<?xml version="1.0" encoding="UTF-8" standalone="no" ?>
<gpx xmlns="http://www.topografix.com/GPX/1/1" xmlns:xsi="http://www.w3.org/2001/XMLSchema-instance" xsi:schemaLocation="http://www.topografix.com/GPX/1/1 http://www.topografix.com/GPX/1/1/gpx.xsd" version="1.1" creator="VisuGPX - https://www.visugpx.com">
  <metadata>
    <name>voyage toulouse sète mazamet 452km 1200d+</name>
    <desc><![CDATA[Toulouse Sète Mazamet trace complète.]]></desc>
  </metadata>
  <trk>
    <name><![CDATA[toulouse sète mazamet 452km 1200d+]]></name>
    <trkseg>
      <trkpt lat="43.58122" lon="1.33072">
        <ele>160</ele>
        <time>2019-05-13T19:33:01.990Z</time>
      </trkpt>
      <trkpt lat="43.58122" lon="1.33072">
        <ele>160</ele>
        <time>2019-05-13T19:33:01.990Z</time>
      </trkpt>
      <trkpt lat="43.58142" lon="1.33116">
        <ele>161</ele>
        <time>2019-05-13T19:33:11.260Z</time>
      </trkpt>
      <trkpt lat="43.58228" lon="1.33307">
        <ele>161</ele>
        <time>2019-05-13T19:33:48.934Z</time>
      </trkpt>
      <trkpt lat="43.58232" lon="1.33317">
        <ele>161</ele>
        <time>2019-05-13T19:33:50.943Z</time>
      </trkpt>
      <trkpt lat="43.58236" lon="1.33326">
        <ele>161</ele>
        <time>2019-05-13T19:33:52.477Z</time>
      </trkpt>
      <trkpt lat="43.58344" lon="1.33564">
        <ele>158</ele>
        <time>2019-05-13T19:34:35.450Z</time>
      </trkpt>
      <trkpt lat="43.58359" lon="1.33568">
        <ele>158</ele>
        <time>2019-05-13T19:34:38.740Z</time>
      </trkpt>
      <trkpt lat="43.58361" lon="1.33566">
        <ele>158</ele>
        <time>2019-05-13T19:34:39.319Z</time>
      </trkpt>
      <trkpt lat="43.58365" lon="1.3356">
        <ele>158</ele>
        <time>2019-05-13T19:34:40.540Z</time>
      </trkpt>
      <trkpt lat="43.58376" lon="1.33529">
        <ele>159</ele>
        <time>2019-05-13T19:34:46.169Z</time>
      </trkpt>
      <trkpt lat="43.58381" lon="1.33514">
        <ele>158</ele>
        <time>2019-05-13T19:34:48.684Z</time>
      </trkpt>
      <trkpt lat="43.58396" lon="1.33477">
        <ele>159</ele>
        <time>2019-05-13T19:34:55.556Z</time>
      </trkpt>
      <trkpt lat="43.58402" lon="1.33462">
        <ele>159</ele>
        <time>2019-05-13T19:34:58.332Z</time>
      </trkpt>
      <trkpt lat="43.58413" lon="1.33432">
        <ele>159</ele>
        <time>2019-05-13T19:35:04.050Z</time>
      </trkpt>
      <trkpt lat="43.58418" lon="1.33436">
        <ele>159</ele>
        <time>2019-05-13T19:35:05.349Z</time>
      </trkpt>
      <trkpt lat="43.58423" lon="1.33438">
        <ele>159</ele>
        <time>2019-05-13T19:35:06.487Z</time>
      </trkpt>
      <trkpt lat="43.5846" lon="1.33408">
        <ele>159</ele>
        <time>2019-05-13T19:35:17.020Z</time>
      </trkpt>
      <trkpt lat="43.58465" lon="1.33408">
        <ele>159</ele>
        <time>2019-05-13T19:35:18.332Z</time>
      </trkpt>
      <trkpt lat="43.58489" lon="1.3341">
        <ele>158</ele>
        <time>2019-05-13T19:35:24.542Z</time>
      </trkpt>
      <trkpt lat="43.58518" lon="1.33426">
        <ele>158</ele>
        <time>2019-05-13T19:35:33.089Z</time>
      </trkpt>
      <trkpt lat="43.58527" lon="1.33438">
        <ele>158</ele>
        <time>2019-05-13T19:35:36.569Z</time>
      </trkpt>
      <trkpt lat="43.58563" lon="1.33487">
        <ele>158</ele>
        <time>2019-05-13T19:35:50.108Z</time>
      </trkpt>
      <trkpt lat="43.58595" lon="1.3352">
        <ele>159</ele>
        <time>2019-05-13T19:36:00.277Z</time>
      </trkpt>
      <trkpt lat="43.58596" lon="1.33534">
        <ele>159</ele>
        <time>2019-05-13T19:36:02.680Z</time>
      </trkpt>
      <trkpt lat="43.586" lon="1.3354">
        <ele>159</ele>
        <time>2019-05-13T19:36:04.320Z</time>
      </trkpt>
      <trkpt lat="43.58604" lon="1.33546">
        <ele>159</ele>
        <time>2019-05-13T19:36:05.865Z</time>
      </trkpt>
      <trkpt lat="43.58614" lon="1.33547">
        <ele>159</ele>
        <time>2019-05-13T19:36:08.364Z</time>
      </trkpt>
      <trkpt lat="43.58632" lon="1.33581">
        <ele>159</ele>
        <time>2019-05-13T19:36:15.988Z</time>
      </trkpt>
      <trkpt lat="43.58661" lon="1.3362">
        <ele>160</ele>
        <time>2019-05-13T19:36:25.858Z</time>
      </trkpt>
      <trkpt lat="43.58668" lon="1.3363">
        <ele>160</ele>
        <time>2019-05-13T19:36:28.106Z</time>
      </trkpt>
      <trkpt lat="43.58678" lon="1.33643">
        <ele>160</ele>
        <time>2019-05-13T19:36:31.145Z</time>
      </trkpt>
      <trkpt lat="43.58693" lon="1.33662">
        <ele>160</ele>
        <time>2019-05-13T19:36:35.705Z</time>
      </trkpt>
      <trkpt lat="43.58732" lon="1.33711">
        <ele>160</ele>
        <time>2019-05-13T19:36:46.788Z</time>
      </trkpt>
      <trkpt lat="43.58762" lon="1.33768">
        <ele>160</ele>
        <time>2019-05-13T19:36:57.445Z</time>
      </trkpt>
      <trkpt lat="43.58768" lon="1.33777">
        <ele>160</ele>
        <time>2019-05-13T19:36:59.246Z</time>
      </trkpt>
      <trkpt lat="43.58775" lon="1.33786">
        <ele>160</ele>
        <time>2019-05-13T19:37:01.018Z</time>
      </trkpt>
      <trkpt lat="43.58782" lon="1.33794">
        <ele>160</ele>
        <time>2019-05-13T19:37:02.902Z</time>
      </trkpt>
      <trkpt lat="43.58785" lon="1.33798">
        <ele>160</ele>
        <time>2019-05-13T19:37:03.753Z</time>
      </trkpt>
      <trkpt lat="43.58786" lon="1.33814">
        <ele>160</ele>
        <time>2019-05-13T19:37:06.145Z</time>
      </trkpt>
      <trkpt lat="43.58782" lon="1.33821">
        <ele>160</ele>
        <time>2019-05-13T19:37:07.520Z</time>
      </trkpt>
      <trkpt lat="43.58788" lon="1.33827">
        <ele>160</ele>
        <time>2019-05-13T19:37:09.078Z</time>
      </trkpt>
      <trkpt lat="43.58794" lon="1.33837">
        <ele>159</ele>
        <time>2019-05-13T19:37:11.132Z</time>
      </trkpt>
      <trkpt lat="43.5881" lon="1.33831">
        <ele>160</ele>
        <time>2019-05-13T19:37:14.599Z</time>
      </trkpt>
      <trkpt lat="43.58814" lon="1.33833">
        <ele>160</ele>
        <time>2019-05-13T19:37:15.500Z</time>
      </trkpt>
      <trkpt lat="43.5882" lon="1.33838">
        <ele>159</ele>
        <time>2019-05-13T19:37:17.034Z</time>
      </trkpt>
      <trkpt lat="43.58867" lon="1.33891">
        <ele>159</ele>
        <time>2019-05-13T19:37:30.551Z</time>
      </trkpt>
      <trkpt lat="43.58868" lon="1.33917">
        <ele>159</ele>
        <time>2019-05-13T19:37:34.920Z</time>
      </trkpt>
      <trkpt lat="43.58871" lon="1.33921">
        <ele>158</ele>
        <time>2019-05-13T19:37:35.921Z</time>
      </trkpt>
      <trkpt lat="43.58875" lon="1.33925">
        <ele>158</ele>
        <time>2019-05-13T19:37:37.132Z</time>
      </trkpt>
      <trkpt lat="43.58894" lon="1.33923">
        <ele>159</ele>
        <time>2019-05-13T19:37:42.217Z</time>
      </trkpt>
      <trkpt lat="43.58901" lon="1.33931">
        <ele>159</ele>
        <time>2019-05-13T19:37:44.411Z</time>
      </trkpt>
      <trkpt lat="43.58947" lon="1.33984">
        <ele>159</ele>
        <time>2019-05-13T19:37:59.925Z</time>
      </trkpt>
      <trkpt lat="43.59001" lon="1.34046">
        <ele>160</ele>
        <time>2019-05-13T19:38:17.416Z</time>
      </trkpt>
      <trkpt lat="43.59002" lon="1.34047">
        <ele>160</ele>
        <time>2019-05-13T19:38:18.076Z</time>
      </trkpt>
      <trkpt lat="43.59014" lon="1.34062">
        <ele>161</ele>
        <time>2019-05-13T19:38:22.209Z</time>
      </trkpt>
      <trkpt lat="43.59028" lon="1.34078">
        <ele>161</ele>
        <time>2019-05-13T19:38:26.640Z</time>
      </trkpt>
      <trkpt lat="43.5903" lon="1.3408">
        <ele>160</ele>
        <time>2019-05-13T19:38:27.644Z</time>
      </trkpt>
      <trkpt lat="43.59032" lon="1.34078">
        <ele>160</ele>
        <time>2019-05-13T19:38:28.169Z</time>
      </trkpt>
      <trkpt lat="43.59036" lon="1.34086">
        <ele>160</ele>
        <time>2019-05-13T19:38:29.901Z</time>
      </trkpt>
      <trkpt lat="43.59039" lon="1.34086">
        <ele>160</ele>
        <time>2019-05-13T19:38:30.588Z</time>
      </trkpt>
      <trkpt lat="43.5904" lon="1.34088">
        <ele>160</ele>
        <time>2019-05-13T19:38:31.029Z</time>
      </trkpt>
      <trkpt lat="43.59041" lon="1.3409">
        <ele>160</ele>
        <time>2019-05-13T19:38:31.470Z</time>
      </trkpt>
      <trkpt lat="43.59039" lon="1.341">
        <ele>160</ele>
        <time>2019-05-13T19:38:33.296Z</time>
      </trkpt>
      <trkpt lat="43.59036" lon="1.34108">
        <ele>160</ele>
        <time>2019-05-13T19:38:34.852Z</time>
      </trkpt>
      <trkpt lat="43.59031" lon="1.34115">
        <ele>160</ele>
        <time>2019-05-13T19:38:36.730Z</time>
      </trkpt>
      <trkpt lat="43.58983" lon="1.34191">
        <ele>160</ele>
        <time>2019-05-13T19:38:54.357Z</time>
      </trkpt>
      <trkpt lat="43.58974" lon="1.34206">
        <ele>160</ele>
        <time>2019-05-13T19:38:57.510Z</time>
      </trkpt>
      <trkpt lat="43.58919" lon="1.34328">
        <ele>160</ele>
        <time>2019-05-13T19:39:20.309Z</time>
      </trkpt>
      <trkpt lat="43.5888" lon="1.34383">
        <ele>160</ele>
        <time>2019-05-13T19:39:32.381Z</time>
      </trkpt>
      <trkpt lat="43.58868" lon="1.34399">
        <ele>160</ele>
        <time>2019-05-13T19:39:36.016Z</time>
      </trkpt>
      <trkpt lat="43.5887" lon="1.34402">
        <ele>160</ele>
        <time>2019-05-13T19:39:36.528Z</time>
      </trkpt>
      <trkpt lat="43.58874" lon="1.34407">
        <ele>160</ele>
        <time>2019-05-13T19:39:37.713Z</time>
      </trkpt>
      <trkpt lat="43.58921" lon="1.34474">
        <ele>160</ele>
        <time>2019-05-13T19:39:52.591Z</time>
      </trkpt>
      <trkpt lat="43.58942" lon="1.34503">
        <ele>159</ele>
        <time>2019-05-13T19:39:59.277Z</time>
      </trkpt>
      <trkpt lat="43.58949" lon="1.34513">
        <ele>159</ele>
        <time>2019-05-13T19:40:01.289Z</time>
      </trkpt>
      <trkpt lat="43.58983" lon="1.34562">
        <ele>159</ele>
        <time>2019-05-13T19:40:11.775Z</time>
      </trkpt>
      <trkpt lat="43.59008" lon="1.34598">
        <ele>158</ele>
        <time>2019-05-13T19:40:19.895Z</time>
      </trkpt>
      <trkpt lat="43.5902" lon="1.34609">
        <ele>159</ele>
        <time>2019-05-13T19:40:23.096Z</time>
      </trkpt>
      <trkpt lat="43.59018" lon="1.34634">
        <ele>159</ele>
        <time>2019-05-13T19:40:27.277Z</time>
      </trkpt>
      <trkpt lat="43.59015" lon="1.34651">
        <ele>159</ele>
        <time>2019-05-13T19:40:30.292Z</time>
      </trkpt>
      <trkpt lat="43.59013" lon="1.3469">
        <ele>159</ele>
        <time>2019-05-13T19:40:36.809Z</time>
      </trkpt>
      <trkpt lat="43.5903" lon="1.34697">
        <ele>159</ele>
        <time>2019-05-13T19:40:40.558Z</time>
      </trkpt>
      <trkpt lat="43.59148" lon="1.34709">
        <ele>157</ele>
        <time>2019-05-13T19:41:04.222Z</time>
      </trkpt>
      <trkpt lat="43.59155" lon="1.34706">
        <ele>157</ele>
        <time>2019-05-13T19:41:05.788Z</time>
      </trkpt>
      <trkpt lat="43.59162" lon="1.34705">
        <ele>157</ele>
        <time>2019-05-13T19:41:07.044Z</time>
      </trkpt>
      <trkpt lat="43.59183" lon="1.34707">
        <ele>156</ele>
        <time>2019-05-13T19:41:11.094Z</time>
      </trkpt>
      <trkpt lat="43.59229" lon="1.34709">
        <ele>156</ele>
        <time>2019-05-13T19:41:20.086Z</time>
      </trkpt>
      <trkpt lat="43.59268" lon="1.34715">
        <ele>156</ele>
        <time>2019-05-13T19:41:27.621Z</time>
      </trkpt>
      <trkpt lat="43.59305" lon="1.34709">
        <ele>156</ele>
        <time>2019-05-13T19:41:34.760Z</time>
      </trkpt>
      <trkpt lat="43.59323" lon="1.34705">
        <ele>156</ele>
        <time>2019-05-13T19:41:38.361Z</time>
      </trkpt>
      <trkpt lat="43.59351" lon="1.34702">
        <ele>156</ele>
        <time>2019-05-13T19:41:44.164Z</time>
      </trkpt>
      <trkpt lat="43.59362" lon="1.34706">
        <ele>156</ele>
        <time>2019-05-13T19:41:46.475Z</time>
      </trkpt>
      <trkpt lat="43.59376" lon="1.3472">
        <ele>156</ele>
        <time>2019-05-13T19:41:50.474Z</time>
      </trkpt>
      <trkpt lat="43.59385" lon="1.34733">
        <ele>156</ele>
        <time>2019-05-13T19:41:53.239Z</time>
      </trkpt>
      <trkpt lat="43.59403" lon="1.34741">
        <ele>157</ele>
        <time>2019-05-13T19:41:57.728Z</time>
      </trkpt>
      <trkpt lat="43.59448" lon="1.34764">
        <ele>157</ele>
        <time>2019-05-13T19:42:08.908Z</time>
      </trkpt>
      <trkpt lat="43.59513" lon="1.34801">
        <ele>158</ele>
        <time>2019-05-13T19:42:25.966Z</time>
      </trkpt>
      <trkpt lat="43.59566" lon="1.34837">
        <ele>159</ele>
        <time>2019-05-13T19:42:40.177Z</time>
      </trkpt>
      <trkpt lat="43.59654" lon="1.3492">
        <ele>158</ele>
        <time>2019-05-13T19:43:03.030Z</time>
      </trkpt>
      <trkpt lat="43.59678" lon="1.34946">
        <ele>156</ele>
        <time>2019-05-13T19:43:09.181Z</time>
      </trkpt>
      <trkpt lat="43.59685" lon="1.34954">
        <ele>156</ele>
        <time>2019-05-13T19:43:10.919Z</time>
      </trkpt>
      <trkpt lat="43.59714" lon="1.34963">
        <ele>155</ele>
        <time>2019-05-13T19:43:16.931Z</time>
      </trkpt>
      <trkpt lat="43.59719" lon="1.34966">
        <ele>155</ele>
        <time>2019-05-13T19:43:17.944Z</time>
      </trkpt>
      <trkpt lat="43.59732" lon="1.34975">
        <ele>155</ele>
        <time>2019-05-13T19:43:20.798Z</time>
      </trkpt>
      <trkpt lat="43.59741" lon="1.34997">
        <ele>154</ele>
        <time>2019-05-13T19:43:24.630Z</time>
      </trkpt>
      <trkpt lat="43.59749" lon="1.35028">
        <ele>155</ele>
        <time>2019-05-13T19:43:29.286Z</time>
      </trkpt>
      <trkpt lat="43.59758" lon="1.35058">
        <ele>156</ele>
        <time>2019-05-13T19:43:34.006Z</time>
      </trkpt>
      <trkpt lat="43.59786" lon="1.35121">
        <ele>155</ele>
        <time>2019-05-13T19:43:45.228Z</time>
      </trkpt>
      <trkpt lat="43.59804" lon="1.3515">
        <ele>155</ele>
        <time>2019-05-13T19:43:51.140Z</time>
      </trkpt>
      <trkpt lat="43.599" lon="1.35286">
        <ele>156</ele>
        <time>2019-05-13T19:44:22.137Z</time>
      </trkpt>
      <trkpt lat="43.59905" lon="1.35294">
        <ele>156</ele>
        <time>2019-05-13T19:44:23.997Z</time>
      </trkpt>
      <trkpt lat="43.59908" lon="1.35297">
        <ele>156</ele>
        <time>2019-05-13T19:44:24.816Z</time>
      </trkpt>
      <trkpt lat="43.59934" lon="1.35329">
        <ele>157</ele>
        <time>2019-05-13T19:44:32.730Z</time>
      </trkpt>
      <trkpt lat="43.59957" lon="1.35354">
        <ele>156</ele>
        <time>2019-05-13T19:44:39.461Z</time>
      </trkpt>
      <trkpt lat="43.59959" lon="1.35357">
        <ele>156</ele>
        <time>2019-05-13T19:44:40.179Z</time>
      </trkpt>
      <trkpt lat="43.6001" lon="1.35406">
        <ele>156</ele>
        <time>2019-05-13T19:44:55.122Z</time>
      </trkpt>
      <trkpt lat="43.60062" lon="1.35452">
        <ele>156</ele>
        <time>2019-05-13T19:45:09.464Z</time>
      </trkpt>
      <trkpt lat="43.60071" lon="1.35455">
        <ele>156</ele>
        <time>2019-05-13T19:45:11.552Z</time>
      </trkpt>
      <trkpt lat="43.6008" lon="1.35456">
        <ele>156</ele>
        <time>2019-05-13T19:45:13.588Z</time>
      </trkpt>
      <trkpt lat="43.60094" lon="1.35462">
        <ele>156</ele>
        <time>2019-05-13T19:45:16.993Z</time>
      </trkpt>
      <trkpt lat="43.6011" lon="1.35504">
        <ele>156</ele>
        <time>2019-05-13T19:45:24.664Z</time>
      </trkpt>
      <trkpt lat="43.6011" lon="1.35513">
        <ele>156</ele>
        <time>2019-05-13T19:45:26.299Z</time>
      </trkpt>
      <trkpt lat="43.60113" lon="1.35514">
        <ele>156</ele>
        <time>2019-05-13T19:45:27.079Z</time>
      </trkpt>
      <trkpt lat="43.60125" lon="1.35504">
        <ele>156</ele>
        <time>2019-05-13T19:45:30.604Z</time>
      </trkpt>
      <trkpt lat="43.60139" lon="1.35527">
        <ele>156</ele>
        <time>2019-05-13T19:45:35.974Z</time>
      </trkpt>
      <trkpt lat="43.60158" lon="1.35537">
        <ele>156</ele>
        <time>2019-05-13T19:45:41.139Z</time>
      </trkpt>
      <trkpt lat="43.60185" lon="1.35545">
        <ele>156</ele>
        <time>2019-05-13T19:45:48.017Z</time>
      </trkpt>
      <trkpt lat="43.60204" lon="1.35545">
        <ele>156</ele>
        <time>2019-05-13T19:45:53.012Z</time>
      </trkpt>
      <trkpt lat="43.60242" lon="1.35546">
        <ele>157</ele>
        <time>2019-05-13T19:46:02.365Z</time>
      </trkpt>
      <trkpt lat="43.60266" lon="1.35547">
        <ele>157</ele>
        <time>2019-05-13T19:46:08.356Z</time>
      </trkpt>
      <trkpt lat="43.60333" lon="1.35548">
        <ele>158</ele>
        <time>2019-05-13T19:46:24.261Z</time>
      </trkpt>
      <trkpt lat="43.60435" lon="1.35498">
        <ele>157</ele>
        <time>2019-05-13T19:46:49.920Z</time>
      </trkpt>
      <trkpt lat="43.60619" lon="1.35516">
        <ele>154</ele>
        <time>2019-05-13T19:47:30.104Z</time>
      </trkpt>
      <trkpt lat="43.60627" lon="1.3551">
        <ele>154</ele>
        <time>2019-05-13T19:47:32.314Z</time>
      </trkpt>
      <trkpt lat="43.60632" lon="1.35511">
        <ele>154</ele>
        <time>2019-05-13T19:47:33.294Z</time>
      </trkpt>
      <trkpt lat="43.60631" lon="1.35525">
        <ele>155</ele>
        <time>2019-05-13T19:47:35.894Z</time>
      </trkpt>
      <trkpt lat="43.6063" lon="1.35533">
        <ele>155</ele>
        <time>2019-05-13T19:47:37.499Z</time>
      </trkpt>
      <trkpt lat="43.60634" lon="1.35556">
        <ele>155</ele>
        <time>2019-05-13T19:47:41.286Z</time>
      </trkpt>
      <trkpt lat="43.6063" lon="1.35634">
        <ele>157</ele>
        <time>2019-05-13T19:47:54.207Z</time>
      </trkpt>
      <trkpt lat="43.60628" lon="1.35684">
        <ele>157</ele>
        <time>2019-05-13T19:48:02.514Z</time>
      </trkpt>
      <trkpt lat="43.60626" lon="1.35706">
        <ele>157</ele>
        <time>2019-05-13T19:48:05.905Z</time>
      </trkpt>
      <trkpt lat="43.60625" lon="1.35736">
        <ele>158</ele>
        <time>2019-05-13T19:48:10.834Z</time>
      </trkpt>
      <trkpt lat="43.60624" lon="1.35748">
        <ele>158</ele>
        <time>2019-05-13T19:48:12.910Z</time>
      </trkpt>
      <trkpt lat="43.60623" lon="1.35757">
        <ele>158</ele>
        <time>2019-05-13T19:48:14.074Z</time>
      </trkpt>
      <trkpt lat="43.60621" lon="1.35796">
        <ele>157</ele>
        <time>2019-05-13T19:48:20.039Z</time>
      </trkpt>
      <trkpt lat="43.6062" lon="1.35824">
        <ele>157</ele>
        <time>2019-05-13T19:48:23.923Z</time>
      </trkpt>
      <trkpt lat="43.6061" lon="1.359">
        <ele>157</ele>
        <time>2019-05-13T19:48:34.842Z</time>
      </trkpt>
      <trkpt lat="43.6061" lon="1.35906">
        <ele>157</ele>
        <time>2019-05-13T19:48:35.562Z</time>
      </trkpt>
      <trkpt lat="43.60607" lon="1.35905">
        <ele>157</ele>
        <time>2019-05-13T19:48:36.145Z</time>
      </trkpt>
      <trkpt lat="43.60599" lon="1.35914">
        <ele>157</ele>
        <time>2019-05-13T19:48:38.249Z</time>
      </trkpt>
      <trkpt lat="43.60599" lon="1.35918">
        <ele>156</ele>
        <time>2019-05-13T19:48:38.771Z</time>
      </trkpt>
      <trkpt lat="43.606" lon="1.35921">
        <ele>156</ele>
        <time>2019-05-13T19:48:39.293Z</time>
      </trkpt>
      <trkpt lat="43.60608" lon="1.35926">
        <ele>156</ele>
        <time>2019-05-13T19:48:40.942Z</time>
      </trkpt>
      <trkpt lat="43.6061" lon="1.35924">
        <ele>156</ele>
        <time>2019-05-13T19:48:41.464Z</time>
      </trkpt>
      <trkpt lat="43.60612" lon="1.35928">
        <ele>156</ele>
        <time>2019-05-13T19:48:42.040Z</time>
      </trkpt>
      <trkpt lat="43.60621" lon="1.35942">
        <ele>156</ele>
        <time>2019-05-13T19:48:44.671Z</time>
      </trkpt>
      <trkpt lat="43.60612" lon="1.35954">
        <ele>156</ele>
        <time>2019-05-13T19:48:47.156Z</time>
      </trkpt>
      <trkpt lat="43.60603" lon="1.3602">
        <ele>154</ele>
        <time>2019-05-13T19:48:56.586Z</time>
      </trkpt>
      <trkpt lat="43.60605" lon="1.36126">
        <ele>155</ele>
        <time>2019-05-13T19:49:11.919Z</time>
      </trkpt>
      <trkpt lat="43.60604" lon="1.36166">
        <ele>155</ele>
        <time>2019-05-13T19:49:18.173Z</time>
      </trkpt>
      <trkpt lat="43.60602" lon="1.36202">
        <ele>155</ele>
        <time>2019-05-13T19:49:24.033Z</time>
      </trkpt>
      <trkpt lat="43.60598" lon="1.36237">
        <ele>154</ele>
        <time>2019-05-13T19:49:29.719Z</time>
      </trkpt>
      <trkpt lat="43.60595" lon="1.36274">
        <ele>153</ele>
        <time>2019-05-13T19:49:35.663Z</time>
      </trkpt>
      <trkpt lat="43.60591" lon="1.36361">
        <ele>154</ele>
        <time>2019-05-13T19:49:49.741Z</time>
      </trkpt>
      <trkpt lat="43.60598" lon="1.36361">
        <ele>154</ele>
        <time>2019-05-13T19:49:51.276Z</time>
      </trkpt>
      <trkpt lat="43.60605" lon="1.36364">
        <ele>154</ele>
        <time>2019-05-13T19:49:52.820Z</time>
      </trkpt>
      <trkpt lat="43.60623" lon="1.36375">
        <ele>154</ele>
        <time>2019-05-13T19:49:57.493Z</time>
      </trkpt>
      <trkpt lat="43.60609" lon="1.36439">
        <ele>155</ele>
        <time>2019-05-13T19:50:09.314Z</time>
      </trkpt>
      <trkpt lat="43.60607" lon="1.36448">
        <ele>155</ele>
        <time>2019-05-13T19:50:10.959Z</time>
      </trkpt>
      <trkpt lat="43.60591" lon="1.36514">
        <ele>154</ele>
        <time>2019-05-13T19:50:23.261Z</time>
      </trkpt>
      <trkpt lat="43.60589" lon="1.36542">
        <ele>154</ele>
        <time>2019-05-13T19:50:28.082Z</time>
      </trkpt>
      <trkpt lat="43.60588" lon="1.3656">
        <ele>154</ele>
        <time>2019-05-13T19:50:31.140Z</time>
      </trkpt>
      <trkpt lat="43.60586" lon="1.36602">
        <ele>154</ele>
        <time>2019-05-13T19:50:37.845Z</time>
      </trkpt>
      <trkpt lat="43.60582" lon="1.3666">
        <ele>155</ele>
        <time>2019-05-13T19:50:47.449Z</time>
      </trkpt>
      <trkpt lat="43.60579" lon="1.36692">
        <ele>155</ele>
        <time>2019-05-13T19:50:52.544Z</time>
      </trkpt>
      <trkpt lat="43.60566" lon="1.3674">
        <ele>156</ele>
        <time>2019-05-13T19:51:00.599Z</time>
      </trkpt>
      <trkpt lat="43.60504" lon="1.36836">
        <ele>154</ele>
        <time>2019-05-13T19:51:20.093Z</time>
      </trkpt>
      <trkpt lat="43.60511" lon="1.36842">
        <ele>154</ele>
        <time>2019-05-13T19:51:21.898Z</time>
      </trkpt>
      <trkpt lat="43.60637" lon="1.36902">
        <ele>155</ele>
        <time>2019-05-13T19:51:52.214Z</time>
      </trkpt>
      <trkpt lat="43.60641" lon="1.36899">
        <ele>155</ele>
        <time>2019-05-13T19:51:53.201Z</time>
      </trkpt>
      <trkpt lat="43.60654" lon="1.36912">
        <ele>154</ele>
        <time>2019-05-13T19:51:57.282Z</time>
      </trkpt>
      <trkpt lat="43.60668" lon="1.36927">
        <ele>154</ele>
        <time>2019-05-13T19:52:01.012Z</time>
      </trkpt>
      <trkpt lat="43.6068" lon="1.36938">
        <ele>154</ele>
        <time>2019-05-13T19:52:04.731Z</time>
      </trkpt>
      <trkpt lat="43.60686" lon="1.36944">
        <ele>154</ele>
        <time>2019-05-13T19:52:06.625Z</time>
      </trkpt>
      <trkpt lat="43.60712" lon="1.36971">
        <ele>155</ele>
        <time>2019-05-13T19:52:13.947Z</time>
      </trkpt>
      <trkpt lat="43.60715" lon="1.36977">
        <ele>155</ele>
        <time>2019-05-13T19:52:15.173Z</time>
      </trkpt>
      <trkpt lat="43.60716" lon="1.36986">
        <ele>155</ele>
        <time>2019-05-13T19:52:16.516Z</time>
      </trkpt>
      <trkpt lat="43.60706" lon="1.37073">
        <ele>154</ele>
        <time>2019-05-13T19:52:33.101Z</time>
      </trkpt>
      <trkpt lat="43.60703" lon="1.371">
        <ele>154</ele>
        <time>2019-05-13T19:52:37.421Z</time>
      </trkpt>
      <trkpt lat="43.60707" lon="1.37131">
        <ele>154</ele>
        <time>2019-05-13T19:52:43.228Z</time>
      </trkpt>
      <trkpt lat="43.60711" lon="1.37145">
        <ele>154</ele>
        <time>2019-05-13T19:52:45.705Z</time>
      </trkpt>
      <trkpt lat="43.6071" lon="1.37157">
        <ele>154</ele>
        <time>2019-05-13T19:52:47.886Z</time>
      </trkpt>
      <trkpt lat="43.60714" lon="1.37167">
        <ele>154</ele>
        <time>2019-05-13T19:52:50.026Z</time>
      </trkpt>
      <trkpt lat="43.60721" lon="1.37172">
        <ele>155</ele>
        <time>2019-05-13T19:52:51.651Z</time>
      </trkpt>
      <trkpt lat="43.60727" lon="1.37172">
        <ele>155</ele>
        <time>2019-05-13T19:52:52.870Z</time>
      </trkpt>
      <trkpt lat="43.60728" lon="1.37173">
        <ele>155</ele>
        <time>2019-05-13T19:52:53.230Z</time>
      </trkpt>
      <trkpt lat="43.60736" lon="1.3718">
        <ele>155</ele>
        <time>2019-05-13T19:52:55.509Z</time>
      </trkpt>
      <trkpt lat="43.6077" lon="1.37198">
        <ele>156</ele>
        <time>2019-05-13T19:53:04.262Z</time>
      </trkpt>
      <trkpt lat="43.60775" lon="1.372">
        <ele>156</ele>
        <time>2019-05-13T19:53:05.674Z</time>
      </trkpt>
      <trkpt lat="43.60777" lon="1.37203">
        <ele>156</ele>
        <time>2019-05-13T19:53:06.413Z</time>
      </trkpt>
      <trkpt lat="43.60807" lon="1.37214">
        <ele>156</ele>
        <time>2019-05-13T19:53:15.575Z</time>
      </trkpt>
      <trkpt lat="43.60817" lon="1.37218">
        <ele>156</ele>
        <time>2019-05-13T19:53:18.621Z</time>
      </trkpt>
      <trkpt lat="43.60854" lon="1.37243">
        <ele>154</ele>
        <time>2019-05-13T19:53:30.933Z</time>
      </trkpt>
      <trkpt lat="43.60862" lon="1.3726">
        <ele>154</ele>
        <time>2019-05-13T19:53:35.408Z</time>
      </trkpt>
      <trkpt lat="43.60869" lon="1.37269">
        <ele>154</ele>
        <time>2019-05-13T19:53:38.493Z</time>
      </trkpt>
      <trkpt lat="43.6087" lon="1.3728">
        <ele>154</ele>
        <time>2019-05-13T19:53:40.162Z</time>
      </trkpt>
      <trkpt lat="43.6087" lon="1.37287">
        <ele>154</ele>
        <time>2019-05-13T19:53:41.274Z</time>
      </trkpt>
      <trkpt lat="43.60868" lon="1.37352">
        <ele>154</ele>
        <time>2019-05-13T19:53:51.029Z</time>
      </trkpt>
      <trkpt lat="43.60861" lon="1.37542">
        <ele>154</ele>
        <time>2019-05-13T19:54:18.620Z</time>
      </trkpt>
      <trkpt lat="43.60861" lon="1.37558">
        <ele>154</ele>
        <time>2019-05-13T19:54:20.983Z</time>
      </trkpt>
      <trkpt lat="43.60867" lon="1.3756">
        <ele>154</ele>
        <time>2019-05-13T19:54:22.233Z</time>
      </trkpt>
      <trkpt lat="43.60888" lon="1.37571">
        <ele>154</ele>
        <time>2019-05-13T19:54:26.961Z</time>
      </trkpt>
      <trkpt lat="43.6095" lon="1.3761">
        <ele>154</ele>
        <time>2019-05-13T19:54:41.358Z</time>
      </trkpt>
      <trkpt lat="43.6102" lon="1.37652">
        <ele>154</ele>
        <time>2019-05-13T19:54:57.305Z</time>
      </trkpt>
      <trkpt lat="43.61023" lon="1.37656">
        <ele>154</ele>
        <time>2019-05-13T19:54:58.134Z</time>
      </trkpt>
      <trkpt lat="43.61026" lon="1.37652">
        <ele>153</ele>
        <time>2019-05-13T19:54:59.284Z</time>
      </trkpt>
      <trkpt lat="43.61037" lon="1.37624">
        <ele>153</ele>
        <time>2019-05-13T19:55:04.270Z</time>
      </trkpt>
      <trkpt lat="43.61043" lon="1.37619">
        <ele>153</ele>
        <time>2019-05-13T19:55:05.893Z</time>
      </trkpt>
      <trkpt lat="43.61082" lon="1.37581">
        <ele>153</ele>
        <time>2019-05-13T19:55:16.323Z</time>
      </trkpt>
      <trkpt lat="43.61089" lon="1.37576">
        <ele>153</ele>
        <time>2019-05-13T19:55:18.068Z</time>
      </trkpt>
      <trkpt lat="43.611" lon="1.376">
        <ele>153</ele>
        <time>2019-05-13T19:55:22.621Z</time>
      </trkpt>
      <trkpt lat="43.61135" lon="1.37691">
        <ele>152</ele>
        <time>2019-05-13T19:55:38.174Z</time>
      </trkpt>
      <trkpt lat="43.61168" lon="1.37831">
        <ele>153</ele>
        <time>2019-05-13T19:56:00.958Z</time>
      </trkpt>
      <trkpt lat="43.61212" lon="1.37877">
        <ele>152</ele>
        <time>2019-05-13T19:56:13.735Z</time>
      </trkpt>
      <trkpt lat="43.61214" lon="1.3788">
        <ele>152</ele>
        <time>2019-05-13T19:56:14.295Z</time>
      </trkpt>
      <trkpt lat="43.61217" lon="1.37875">
        <ele>152</ele>
        <time>2019-05-13T19:56:15.180Z</time>
      </trkpt>
      <trkpt lat="43.61221" lon="1.37872">
        <ele>152</ele>
        <time>2019-05-13T19:56:16.349Z</time>
      </trkpt>
      <trkpt lat="43.61226" lon="1.37879">
        <ele>152</ele>
        <time>2019-05-13T19:56:17.860Z</time>
      </trkpt>
      <trkpt lat="43.61236" lon="1.37895">
        <ele>152</ele>
        <time>2019-05-13T19:56:21.676Z</time>
      </trkpt>
      <trkpt lat="43.61289" lon="1.38142">
        <ele>152</ele>
        <time>2019-05-13T19:57:02.204Z</time>
      </trkpt>
      <trkpt lat="43.61291" lon="1.38182">
        <ele>152</ele>
        <time>2019-05-13T19:57:08.092Z</time>
      </trkpt>
      <trkpt lat="43.61281" lon="1.38219">
        <ele>151</ele>
        <time>2019-05-13T19:57:13.406Z</time>
      </trkpt>
      <trkpt lat="43.6126" lon="1.38272">
        <ele>150</ele>
        <time>2019-05-13T19:57:21.381Z</time>
      </trkpt>
      <trkpt lat="43.61258" lon="1.38277">
        <ele>150</ele>
        <time>2019-05-13T19:57:22.127Z</time>
      </trkpt>
      <trkpt lat="43.61235" lon="1.38362">
        <ele>149</ele>
        <time>2019-05-13T19:57:33.967Z</time>
      </trkpt>
      <trkpt lat="43.61236" lon="1.3837">
        <ele>149</ele>
        <time>2019-05-13T19:57:35.121Z</time>
      </trkpt>
      <trkpt lat="43.61238" lon="1.38372">
        <ele>149</ele>
        <time>2019-05-13T19:57:35.342Z</time>
      </trkpt>
      <trkpt lat="43.61251" lon="1.38421">
        <ele>147</ele>
        <time>2019-05-13T19:57:42.235Z</time>
      </trkpt>
      <trkpt lat="43.61294" lon="1.38499">
        <ele>147</ele>
        <time>2019-05-13T19:57:55.312Z</time>
      </trkpt>
      <trkpt lat="43.61378" lon="1.3862">
        <ele>145</ele>
        <time>2019-05-13T19:58:19.325Z</time>
      </trkpt>
      <trkpt lat="43.61402" lon="1.38654">
        <ele>145</ele>
        <time>2019-05-13T19:58:26.949Z</time>
      </trkpt>
      <trkpt lat="43.61492" lon="1.38725">
        <ele>145</ele>
        <time>2019-05-13T19:58:51.387Z</time>
      </trkpt>
      <trkpt lat="43.61574" lon="1.38749">
        <ele>149</ele>
        <time>2019-05-13T19:59:11.725Z</time>
      </trkpt>
      <trkpt lat="43.61589" lon="1.38756">
        <ele>148</ele>
        <time>2019-05-13T19:59:15.741Z</time>
      </trkpt>
      <trkpt lat="43.61628" lon="1.38774">
        <ele>147</ele>
        <time>2019-05-13T19:59:25.464Z</time>
      </trkpt>
      <trkpt lat="43.61723" lon="1.38822">
        <ele>148</ele>
        <time>2019-05-13T19:59:49.510Z</time>
      </trkpt>
      <trkpt lat="43.61749" lon="1.38835">
        <ele>147</ele>
        <time>2019-05-13T19:59:55.674Z</time>
      </trkpt>
      <trkpt lat="43.61764" lon="1.38842">
        <ele>147</ele>
        <time>2019-05-13T19:59:59.502Z</time>
      </trkpt>
      <trkpt lat="43.61858" lon="1.38895">
        <ele>149</ele>
        <time>2019-05-13T20:00:25.325Z</time>
      </trkpt>
      <trkpt lat="43.62039" lon="1.3895">
        <ele>152</ele>
        <time>2019-05-13T20:01:15.640Z</time>
      </trkpt>
      <trkpt lat="43.62044" lon="1.38955">
        <ele>152</ele>
        <time>2019-05-13T20:01:17.641Z</time>
      </trkpt>
      <trkpt lat="43.62047" lon="1.38958">
        <ele>152</ele>
        <time>2019-05-13T20:01:18.625Z</time>
      </trkpt>
      <trkpt lat="43.62094" lon="1.39018">
        <ele>153</ele>
        <time>2019-05-13T20:01:33.318Z</time>
      </trkpt>
      <trkpt lat="43.62099" lon="1.39023">
        <ele>153</ele>
        <time>2019-05-13T20:01:35.034Z</time>
      </trkpt>
      <trkpt lat="43.62106" lon="1.39041">
        <ele>153</ele>
        <time>2019-05-13T20:01:38.397Z</time>
      </trkpt>
      <trkpt lat="43.62108" lon="1.3905">
        <ele>153</ele>
        <time>2019-05-13T20:01:39.588Z</time>
      </trkpt>
      <trkpt lat="43.62136" lon="1.39107">
        <ele>149</ele>
        <time>2019-05-13T20:01:51.496Z</time>
      </trkpt>
      <trkpt lat="43.6218" lon="1.39139">
        <ele>149</ele>
        <time>2019-05-13T20:02:02.047Z</time>
      </trkpt>
      <trkpt lat="43.62201" lon="1.39144">
        <ele>149</ele>
        <time>2019-05-13T20:02:06.368Z</time>
      </trkpt>
      <trkpt lat="43.62208" lon="1.39149">
        <ele>149</ele>
        <time>2019-05-13T20:02:08.039Z</time>
      </trkpt>
      <trkpt lat="43.62216" lon="1.39153">
        <ele>149</ele>
        <time>2019-05-13T20:02:09.754Z</time>
      </trkpt>
      <trkpt lat="43.62217" lon="1.3916">
        <ele>149</ele>
        <time>2019-05-13T20:02:10.639Z</time>
      </trkpt>
      <trkpt lat="43.62222" lon="1.39163">
        <ele>149</ele>
        <time>2019-05-13T20:02:11.796Z</time>
      </trkpt>
      <trkpt lat="43.62246" lon="1.39184">
        <ele>147</ele>
        <time>2019-05-13T20:02:17.928Z</time>
      </trkpt>
      <trkpt lat="43.62251" lon="1.39189">
        <ele>149</ele>
        <time>2019-05-13T20:02:19.211Z</time>
      </trkpt>
      <trkpt lat="43.62253" lon="1.39192">
        <ele>149</ele>
        <time>2019-05-13T20:02:19.909Z</time>
      </trkpt>
      <trkpt lat="43.62259" lon="1.39199">
        <ele>149</ele>
        <time>2019-05-13T20:02:21.585Z</time>
      </trkpt>
      <trkpt lat="43.62261" lon="1.39207">
        <ele>149</ele>
        <time>2019-05-13T20:02:22.826Z</time>
      </trkpt>
      <trkpt lat="43.6227" lon="1.39219">
        <ele>149</ele>
        <time>2019-05-13T20:02:25.661Z</time>
      </trkpt>
      <trkpt lat="43.62281" lon="1.39228">
        <ele>149</ele>
        <time>2019-05-13T20:02:28.933Z</time>
      </trkpt>
      <trkpt lat="43.62305" lon="1.39264">
        <ele>148</ele>
        <time>2019-05-13T20:02:37.929Z</time>
      </trkpt>
      <trkpt lat="43.6235" lon="1.39333">
        <ele>148</ele>
        <time>2019-05-13T20:02:55.876Z</time>
      </trkpt>
      <trkpt lat="43.6238" lon="1.39322">
        <ele>149</ele>
        <time>2019-05-13T20:03:02.714Z</time>
      </trkpt>
      <trkpt lat="43.62384" lon="1.39313">
        <ele>149</ele>
        <time>2019-05-13T20:03:04.846Z</time>
      </trkpt>
      <trkpt lat="43.62388" lon="1.39309">
        <ele>149</ele>
        <time>2019-05-13T20:03:06.206Z</time>
      </trkpt>
      <trkpt lat="43.62394" lon="1.39305">
        <ele>149</ele>
        <time>2019-05-13T20:03:07.317Z</time>
      </trkpt>
      <trkpt lat="43.62397" lon="1.39304">
        <ele>149</ele>
        <time>2019-05-13T20:03:08.088Z</time>
      </trkpt>
      <trkpt lat="43.62406" lon="1.39301">
        <ele>149</ele>
        <time>2019-05-13T20:03:10.383Z</time>
      </trkpt>
      <trkpt lat="43.62449" lon="1.3927">
        <ele>149</ele>
        <time>2019-05-13T20:03:21.563Z</time>
      </trkpt>
      <trkpt lat="43.62455" lon="1.39266">
        <ele>149</ele>
        <time>2019-05-13T20:03:22.758Z</time>
      </trkpt>
      <trkpt lat="43.62468" lon="1.39259">
        <ele>148</ele>
        <time>2019-05-13T20:03:25.953Z</time>
      </trkpt>
      <trkpt lat="43.62483" lon="1.39248">
        <ele>149</ele>
        <time>2019-05-13T20:03:29.962Z</time>
      </trkpt>
      <trkpt lat="43.62486" lon="1.39247">
        <ele>149</ele>
        <time>2019-05-13T20:03:30.829Z</time>
      </trkpt>
      <trkpt lat="43.62486" lon="1.39247">
        <ele>149</ele>
        <time>2019-05-13T20:03:30.887Z</time>
      </trkpt>
      <trkpt lat="43.62486" lon="1.39247">
        <ele>149</ele>
        <time>2019-05-13T20:03:30.894Z</time>
      </trkpt>
      <trkpt lat="43.62505" lon="1.3931">
        <ele>148</ele>
        <time>2019-05-13T20:03:43.701Z</time>
      </trkpt>
      <trkpt lat="43.62525" lon="1.39373">
        <ele>146</ele>
        <time>2019-05-13T20:03:56.535Z</time>
      </trkpt>
      <trkpt lat="43.62526" lon="1.3938">
        <ele>146</ele>
        <time>2019-05-13T20:03:57.612Z</time>
      </trkpt>
      <trkpt lat="43.62537" lon="1.39418">
        <ele>145</ele>
        <time>2019-05-13T20:04:02.735Z</time>
      </trkpt>
      <trkpt lat="43.62546" lon="1.3945">
        <ele>145</ele>
        <time>2019-05-13T20:04:06.895Z</time>
      </trkpt>
      <trkpt lat="43.62556" lon="1.39485">
        <ele>145</ele>
        <time>2019-05-13T20:04:11.684Z</time>
      </trkpt>
      <trkpt lat="43.6258" lon="1.39566">
        <ele>145</ele>
        <time>2019-05-13T20:04:22.708Z</time>
      </trkpt>
      <trkpt lat="43.6259" lon="1.39603">
        <ele>145</ele>
        <time>2019-05-13T20:04:27.647Z</time>
      </trkpt>
      <trkpt lat="43.62592" lon="1.39617">
        <ele>144</ele>
        <time>2019-05-13T20:04:29.337Z</time>
      </trkpt>
      <trkpt lat="43.6259" lon="1.39631">
        <ele>144</ele>
        <time>2019-05-13T20:04:31.135Z</time>
      </trkpt>
      <trkpt lat="43.62586" lon="1.39642">
        <ele>143</ele>
        <time>2019-05-13T20:04:32.663Z</time>
      </trkpt>
      <trkpt lat="43.62567" lon="1.39691">
        <ele>141</ele>
        <time>2019-05-13T20:04:39.528Z</time>
      </trkpt>
      <trkpt lat="43.62524" lon="1.39811">
        <ele>139</ele>
        <time>2019-05-13T20:04:54.616Z</time>
      </trkpt>
      <trkpt lat="43.62503" lon="1.39874">
        <ele>138</ele>
        <time>2019-05-13T20:05:02.399Z</time>
      </trkpt>
      <trkpt lat="43.62501" lon="1.3988">
        <ele>138</ele>
        <time>2019-05-13T20:05:03.255Z</time>
      </trkpt>
      <trkpt lat="43.62497" lon="1.3989">
        <ele>136</ele>
        <time>2019-05-13T20:05:04.656Z</time>
      </trkpt>
      <trkpt lat="43.62492" lon="1.39897">
        <ele>136</ele>
        <time>2019-05-13T20:05:05.736Z</time>
      </trkpt>
      <trkpt lat="43.62489" lon="1.39895">
        <ele>136</ele>
        <time>2019-05-13T20:05:06.186Z</time>
      </trkpt>
      <trkpt lat="43.62481" lon="1.39897">
        <ele>136</ele>
        <time>2019-05-13T20:05:07.570Z</time>
      </trkpt>
      <trkpt lat="43.62479" lon="1.39899">
        <ele>136</ele>
        <time>2019-05-13T20:05:08.061Z</time>
      </trkpt>
      <trkpt lat="43.62478" lon="1.39903">
        <ele>136</ele>
        <time>2019-05-13T20:05:08.531Z</time>
      </trkpt>
      <trkpt lat="43.62478" lon="1.39907">
        <ele>136</ele>
        <time>2019-05-13T20:05:08.994Z</time>
      </trkpt>
      <trkpt lat="43.62479" lon="1.3991">
        <ele>136</ele>
        <time>2019-05-13T20:05:09.411Z</time>
      </trkpt>
      <trkpt lat="43.6248" lon="1.39913">
        <ele>136</ele>
        <time>2019-05-13T20:05:09.861Z</time>
      </trkpt>
      <trkpt lat="43.62482" lon="1.39916">
        <ele>136</ele>
        <time>2019-05-13T20:05:10.280Z</time>
      </trkpt>
      <trkpt lat="43.62476" lon="1.39919">
        <ele>134</ele>
        <time>2019-05-13T20:05:11.216Z</time>
      </trkpt>
      <trkpt lat="43.62472" lon="1.39961">
        <ele>132</ele>
        <time>2019-05-13T20:05:16.577Z</time>
      </trkpt>
      <trkpt lat="43.62471" lon="1.39982">
        <ele>131</ele>
        <time>2019-05-13T20:05:18.989Z</time>
      </trkpt>
      <trkpt lat="43.62467" lon="1.40059">
        <ele>124</ele>
        <time>2019-05-13T20:05:30.042Z</time>
      </trkpt>
      <trkpt lat="43.62461" lon="1.40186">
        <ele>125</ele>
        <time>2019-05-13T20:05:49.244Z</time>
      </trkpt>
      <trkpt lat="43.62464" lon="1.40207">
        <ele>126</ele>
        <time>2019-05-13T20:05:54.563Z</time>
      </trkpt>
      <trkpt lat="43.62461" lon="1.40277">
        <ele>132</ele>
        <time>2019-05-13T20:06:07.950Z</time>
      </trkpt>
      <trkpt lat="43.62469" lon="1.40272">
        <ele>132</ele>
        <time>2019-05-13T20:06:10.525Z</time>
      </trkpt>
      <trkpt lat="43.62476" lon="1.4027">
        <ele>132</ele>
        <time>2019-05-13T20:06:12.688Z</time>
      </trkpt>
      <trkpt lat="43.62481" lon="1.4028">
        <ele>132</ele>
        <time>2019-05-13T20:06:15.291Z</time>
      </trkpt>
      <trkpt lat="43.62485" lon="1.40283">
        <ele>132</ele>
        <time>2019-05-13T20:06:16.345Z</time>
      </trkpt>
      <trkpt lat="43.62493" lon="1.4029">
        <ele>132</ele>
        <time>2019-05-13T20:06:18.474Z</time>
      </trkpt>
      <trkpt lat="43.62527" lon="1.40357">
        <ele>133</ele>
        <time>2019-05-13T20:06:35.126Z</time>
      </trkpt>
      <trkpt lat="43.6255" lon="1.40404">
        <ele>133</ele>
        <time>2019-05-13T20:06:44.412Z</time>
      </trkpt>
      <trkpt lat="43.62601" lon="1.40451">
        <ele>132</ele>
        <time>2019-05-13T20:06:57.511Z</time>
      </trkpt>
      <trkpt lat="43.62672" lon="1.4048">
        <ele>131</ele>
        <time>2019-05-13T20:07:12.838Z</time>
      </trkpt>
      <trkpt lat="43.62722" lon="1.405">
        <ele>131</ele>
        <time>2019-05-13T20:07:23.564Z</time>
      </trkpt>
      <trkpt lat="43.62789" lon="1.40525">
        <ele>129</ele>
        <time>2019-05-13T20:07:37.691Z</time>
      </trkpt>
      <trkpt lat="43.63208" lon="1.40644">
        <ele>127</ele>
        <time>2019-05-13T20:09:06.039Z</time>
      </trkpt>
      <trkpt lat="43.63213" lon="1.40646">
        <ele>127</ele>
        <time>2019-05-13T20:09:06.949Z</time>
      </trkpt>
      <trkpt lat="43.63222" lon="1.4065">
        <ele>127</ele>
        <time>2019-05-13T20:09:09.071Z</time>
      </trkpt>
      <trkpt lat="43.6324" lon="1.40658">
        <ele>126</ele>
        <time>2019-05-13T20:09:13.543Z</time>
      </trkpt>
      <trkpt lat="43.63323" lon="1.40713">
        <ele>127</ele>
        <time>2019-05-13T20:09:34.325Z</time>
      </trkpt>
      <trkpt lat="43.63387" lon="1.40778">
        <ele>130</ele>
        <time>2019-05-13T20:09:53.674Z</time>
      </trkpt>
      <trkpt lat="43.63566" lon="1.4106">
        <ele>129</ele>
        <time>2019-05-13T20:11:00.121Z</time>
      </trkpt>
      <trkpt lat="43.63641" lon="1.41145">
        <ele>130</ele>
        <time>2019-05-13T20:11:23.355Z</time>
      </trkpt>
      <trkpt lat="43.6367" lon="1.41193">
        <ele>131</ele>
        <time>2019-05-13T20:11:33.134Z</time>
      </trkpt>
      <trkpt lat="43.63685" lon="1.41218">
        <ele>131</ele>
        <time>2019-05-13T20:11:38.431Z</time>
      </trkpt>
      <trkpt lat="43.63704" lon="1.41245">
        <ele>131</ele>
        <time>2019-05-13T20:11:44.283Z</time>
      </trkpt>
      <trkpt lat="43.6375" lon="1.4129">
        <ele>129</ele>
        <time>2019-05-13T20:11:57.096Z</time>
      </trkpt>
      <trkpt lat="43.63797" lon="1.41327">
        <ele>130</ele>
        <time>2019-05-13T20:12:09.348Z</time>
      </trkpt>
      <trkpt lat="43.63828" lon="1.41356">
        <ele>130</ele>
        <time>2019-05-13T20:12:17.883Z</time>
      </trkpt>
      <trkpt lat="43.63878" lon="1.41422">
        <ele>131</ele>
        <time>2019-05-13T20:12:35.157Z</time>
      </trkpt>
      <trkpt lat="43.63969" lon="1.41579">
        <ele>132</ele>
        <time>2019-05-13T20:13:12.162Z</time>
      </trkpt>
      <trkpt lat="43.64011" lon="1.4154">
        <ele>132</ele>
        <time>2019-05-13T20:13:24.483Z</time>
      </trkpt>
      <trkpt lat="43.64015" lon="1.41548">
        <ele>132</ele>
        <time>2019-05-13T20:13:26.254Z</time>
      </trkpt>
      <trkpt lat="43.64017" lon="1.41552">
        <ele>132</ele>
        <time>2019-05-13T20:13:26.868Z</time>
      </trkpt>
      <trkpt lat="43.64018" lon="1.41554">
        <ele>132</ele>
        <time>2019-05-13T20:13:27.401Z</time>
      </trkpt>
      <trkpt lat="43.64106" lon="1.41471">
        <ele>132</ele>
        <time>2019-05-13T20:13:52.554Z</time>
      </trkpt>
      <trkpt lat="43.64143" lon="1.41437">
        <ele>132</ele>
        <time>2019-05-13T20:14:02.780Z</time>
      </trkpt>
      <trkpt lat="43.64165" lon="1.41416">
        <ele>132</ele>
        <time>2019-05-13T20:14:09.304Z</time>
      </trkpt>
      <trkpt lat="43.64173" lon="1.41413">
        <ele>132</ele>
        <time>2019-05-13T20:14:11.498Z</time>
      </trkpt>
      <trkpt lat="43.64182" lon="1.41413">
        <ele>132</ele>
        <time>2019-05-13T20:14:13.764Z</time>
      </trkpt>
      <trkpt lat="43.64188" lon="1.41417">
        <ele>132</ele>
        <time>2019-05-13T20:14:15.612Z</time>
      </trkpt>
      <trkpt lat="43.64198" lon="1.4143">
        <ele>132</ele>
        <time>2019-05-13T20:14:19.341Z</time>
      </trkpt>
      <trkpt lat="43.64214" lon="1.41464">
        <ele>132</ele>
        <time>2019-05-13T20:14:27.275Z</time>
      </trkpt>
      <trkpt lat="43.64246" lon="1.41535">
        <ele>132</ele>
        <time>2019-05-13T20:14:43.221Z</time>
      </trkpt>
      <trkpt lat="43.64272" lon="1.41593">
        <ele>133</ele>
        <time>2019-05-13T20:14:56.657Z</time>
      </trkpt>
      <trkpt lat="43.64281" lon="1.41587">
        <ele>133</ele>
        <time>2019-05-13T20:14:59.134Z</time>
      </trkpt>
      <trkpt lat="43.64288" lon="1.41598">
        <ele>133</ele>
        <time>2019-05-13T20:15:01.824Z</time>
      </trkpt>
      <trkpt lat="43.64329" lon="1.41639">
        <ele>133</ele>
        <time>2019-05-13T20:15:14.978Z</time>
      </trkpt>
      <trkpt lat="43.64334" lon="1.41648">
        <ele>132</ele>
        <time>2019-05-13T20:15:17.141Z</time>
      </trkpt>
      <trkpt lat="43.64342" lon="1.41663">
        <ele>131</ele>
        <time>2019-05-13T20:15:20.630Z</time>
      </trkpt>
      <trkpt lat="43.64352" lon="1.41685">
        <ele>132</ele>
        <time>2019-05-13T20:15:25.622Z</time>
      </trkpt>
      <trkpt lat="43.64365" lon="1.41712">
        <ele>133</ele>
        <time>2019-05-13T20:15:31.719Z</time>
      </trkpt>
      <trkpt lat="43.64452" lon="1.41878">
        <ele>134</ele>
        <time>2019-05-13T20:16:03.479Z</time>
      </trkpt>
      <trkpt lat="43.64462" lon="1.41893">
        <ele>134</ele>
        <time>2019-05-13T20:16:06.515Z</time>
      </trkpt>
      <trkpt lat="43.64471" lon="1.41906">
        <ele>134</ele>
        <time>2019-05-13T20:16:08.837Z</time>
      </trkpt>
      <trkpt lat="43.64511" lon="1.41952">
        <ele>133</ele>
        <time>2019-05-13T20:16:19.486Z</time>
      </trkpt>
      <trkpt lat="43.6452" lon="1.41952">
        <ele>133</ele>
        <time>2019-05-13T20:16:21.185Z</time>
      </trkpt>
      <trkpt lat="43.64521" lon="1.41958">
        <ele>133</ele>
        <time>2019-05-13T20:16:22.116Z</time>
      </trkpt>
      <trkpt lat="43.64522" lon="1.41972">
        <ele>133</ele>
        <time>2019-05-13T20:16:24.380Z</time>
      </trkpt>
      <trkpt lat="43.64524" lon="1.41979">
        <ele>133</ele>
        <time>2019-05-13T20:16:25.630Z</time>
      </trkpt>
      <trkpt lat="43.6453" lon="1.41988">
        <ele>133</ele>
        <time>2019-05-13T20:16:27.478Z</time>
      </trkpt>
      <trkpt lat="43.64578" lon="1.42053">
        <ele>131</ele>
        <time>2019-05-13T20:16:42.437Z</time>
      </trkpt>
      <trkpt lat="43.64602" lon="1.42084">
        <ele>132</ele>
        <time>2019-05-13T20:16:49.792Z</time>
      </trkpt>
      <trkpt lat="43.64569" lon="1.42105">
        <ele>132</ele>
        <time>2019-05-13T20:16:57.809Z</time>
      </trkpt>
      <trkpt lat="43.64561" lon="1.42116">
        <ele>132</ele>
        <time>2019-05-13T20:17:00.395Z</time>
      </trkpt>
      <trkpt lat="43.64557" lon="1.42135">
        <ele>133</ele>
        <time>2019-05-13T20:17:04.115Z</time>
      </trkpt>
      <trkpt lat="43.64557" lon="1.42187">
        <ele>134</ele>
        <time>2019-05-13T20:17:12.800Z</time>
      </trkpt>
      <trkpt lat="43.64603" lon="1.42188">
        <ele>133</ele>
        <time>2019-05-13T20:17:23.770Z</time>
      </trkpt>
      <trkpt lat="43.64673" lon="1.42191">
        <ele>133</ele>
        <time>2019-05-13T20:17:39.834Z</time>
      </trkpt>
      <trkpt lat="43.64681" lon="1.42192">
        <ele>133</ele>
        <time>2019-05-13T20:17:41.389Z</time>
      </trkpt>
      <trkpt lat="43.6468" lon="1.42203">
        <ele>133</ele>
        <time>2019-05-13T20:17:42.962Z</time>
      </trkpt>
      <trkpt lat="43.6468" lon="1.42232">
        <ele>132</ele>
        <time>2019-05-13T20:17:47.548Z</time>
      </trkpt>
      <trkpt lat="43.64677" lon="1.4227">
        <ele>132</ele>
        <time>2019-05-13T20:17:53.402Z</time>
      </trkpt>
      <trkpt lat="43.64676" lon="1.42286">
        <ele>133</ele>
        <time>2019-05-13T20:17:56.013Z</time>
      </trkpt>
      <trkpt lat="43.64673" lon="1.42325">
        <ele>133</ele>
        <time>2019-05-13T20:18:02.373Z</time>
      </trkpt>
      <trkpt lat="43.64671" lon="1.4235">
        <ele>134</ele>
        <time>2019-05-13T20:18:06.190Z</time>
      </trkpt>
      <trkpt lat="43.64657" lon="1.42344">
        <ele>133</ele>
        <time>2019-05-13T20:18:09.520Z</time>
      </trkpt>
      <trkpt lat="43.64616" lon="1.42337">
        <ele>133</ele>
        <time>2019-05-13T20:18:19.250Z</time>
      </trkpt>
      <trkpt lat="43.64601" lon="1.42328">
        <ele>133</ele>
        <time>2019-05-13T20:18:23.564Z</time>
      </trkpt>
      <trkpt lat="43.64533" lon="1.42321">
        <ele>133</ele>
        <time>2019-05-13T20:18:40.351Z</time>
      </trkpt>
      <trkpt lat="43.64518" lon="1.42319">
        <ele>133</ele>
        <time>2019-05-13T20:18:46.118Z</time>
      </trkpt>
      <trkpt lat="43.64507" lon="1.42312">
        <ele>133</ele>
        <time>2019-05-13T20:18:50.554Z</time>
      </trkpt>
      <trkpt lat="43.64502" lon="1.42304">
        <ele>133</ele>
        <time>2019-05-13T20:18:53.758Z</time>
      </trkpt>
      <trkpt lat="43.64471" lon="1.42299">
        <ele>133</ele>
        <time>2019-05-13T20:19:06.070Z</time>
      </trkpt>
      <trkpt lat="43.6447" lon="1.42299">
        <ele>133</ele>
        <time>2019-05-13T20:19:06.385Z</time>
      </trkpt>
      <trkpt lat="43.63946" lon="1.42225">
        <ele>135</ele>
        <time>2019-05-13T20:22:29.283Z</time>
      </trkpt>
      <trkpt lat="43.63925" lon="1.42222">
        <ele>135</ele>
        <time>2019-05-13T20:22:37.065Z</time>
      </trkpt>
      <trkpt lat="43.63883" lon="1.42217">
        <ele>135</ele>
        <time>2019-05-13T20:22:52.641Z</time>
      </trkpt>
      <trkpt lat="43.63547" lon="1.42172">
        <ele>134</ele>
        <time>2019-05-13T20:24:54.594Z</time>
      </trkpt>
      <trkpt lat="43.63542" lon="1.42173">
        <ele>135</ele>
        <time>2019-05-13T20:24:56.385Z</time>
      </trkpt>
      <trkpt lat="43.63538" lon="1.42171">
        <ele>135</ele>
        <time>2019-05-13T20:24:57.845Z</time>
      </trkpt>
      <trkpt lat="43.62692" lon="1.42059">
        <ele>134</ele>
        <time>2019-05-13T20:28:03.194Z</time>
      </trkpt>
      <trkpt lat="43.62687" lon="1.42059">
        <ele>134</ele>
        <time>2019-05-13T20:28:04.215Z</time>
      </trkpt>
      <trkpt lat="43.62638" lon="1.4205">
        <ele>135</ele>
        <time>2019-05-13T20:28:16.114Z</time>
      </trkpt>
      <trkpt lat="43.62415" lon="1.42017">
        <ele>136</ele>
        <time>2019-05-13T20:29:06.853Z</time>
      </trkpt>
      <trkpt lat="43.62346" lon="1.42009">
        <ele>134</ele>
        <time>2019-05-13T20:29:21.641Z</time>
      </trkpt>
      <trkpt lat="43.62208" lon="1.41992">
        <ele>135</ele>
        <time>2019-05-13T20:29:51.049Z</time>
      </trkpt>
      <trkpt lat="43.61579" lon="1.41907">
        <ele>135</ele>
        <time>2019-05-13T20:32:14.976Z</time>
      </trkpt>
      <trkpt lat="43.61322" lon="1.41872">
        <ele>134</ele>
        <time>2019-05-13T20:33:18.664Z</time>
      </trkpt>
      <trkpt lat="43.61267" lon="1.41868">
        <ele>135</ele>
        <time>2019-05-13T20:33:35.240Z</time>
      </trkpt>
      <trkpt lat="43.61216" lon="1.41863">
        <ele>136</ele>
        <time>2019-05-13T20:33:51.234Z</time>
      </trkpt>
      <trkpt lat="43.61161" lon="1.41854">
        <ele>139</ele>
        <time>2019-05-13T20:34:07.773Z</time>
      </trkpt>
      <trkpt lat="43.61149" lon="1.41853">
        <ele>139</ele>
        <time>2019-05-13T20:34:11.514Z</time>
      </trkpt>
      <trkpt lat="43.6115" lon="1.41869">
        <ele>139</ele>
        <time>2019-05-13T20:34:14.318Z</time>
      </trkpt>
      <trkpt lat="43.61149" lon="1.41876">
        <ele>139</ele>
        <time>2019-05-13T20:34:15.938Z</time>
      </trkpt>
      <trkpt lat="43.61145" lon="1.41885">
        <ele>139</ele>
        <time>2019-05-13T20:34:18.166Z</time>
      </trkpt>
      <trkpt lat="43.61135" lon="1.41883">
        <ele>139</ele>
        <time>2019-05-13T20:34:21.373Z</time>
      </trkpt>
      <trkpt lat="43.61131" lon="1.41883">
        <ele>139</ele>
        <time>2019-05-13T20:34:22.579Z</time>
      </trkpt>
      <trkpt lat="43.61128" lon="1.4189">
        <ele>139</ele>
        <time>2019-05-13T20:34:24.098Z</time>
      </trkpt>
      <trkpt lat="43.61129" lon="1.41894">
        <ele>139</ele>
        <time>2019-05-13T20:34:24.662Z</time>
      </trkpt>
      <trkpt lat="43.61139" lon="1.41982">
        <ele>139</ele>
        <time>2019-05-13T20:34:42.251Z</time>
      </trkpt>
      <trkpt lat="43.61139" lon="1.41983">
        <ele>139</ele>
        <time>2019-05-13T20:34:42.366Z</time>
      </trkpt>
      <trkpt lat="43.6114" lon="1.41988">
        <ele>139</ele>
        <time>2019-05-13T20:34:43.318Z</time>
      </trkpt>
      <trkpt lat="43.6114" lon="1.41994">
        <ele>139</ele>
        <time>2019-05-13T20:34:44.192Z</time>
      </trkpt>
      <trkpt lat="43.61141" lon="1.42">
        <ele>139</ele>
        <time>2019-05-13T20:34:45.281Z</time>
      </trkpt>
      <trkpt lat="43.61143" lon="1.42014">
        <ele>139</ele>
        <time>2019-05-13T20:34:47.966Z</time>
      </trkpt>
      <trkpt lat="43.61153" lon="1.42083">
        <ele>138</ele>
        <time>2019-05-13T20:34:59.526Z</time>
      </trkpt>
      <trkpt lat="43.61156" lon="1.42117">
        <ele>138</ele>
        <time>2019-05-13T20:35:04.680Z</time>
      </trkpt>
      <trkpt lat="43.61211" lon="1.42468">
        <ele>140</ele>
        <time>2019-05-13T20:36:02.781Z</time>
      </trkpt>
      <trkpt lat="43.61222" lon="1.42501">
        <ele>140</ele>
        <time>2019-05-13T20:36:09.363Z</time>
      </trkpt>
      <trkpt lat="43.61222" lon="1.42505">
        <ele>140</ele>
        <time>2019-05-13T20:36:09.942Z</time>
      </trkpt>
      <trkpt lat="43.61222" lon="1.42507">
        <ele>140</ele>
        <time>2019-05-13T20:36:10.248Z</time>
      </trkpt>
      <trkpt lat="43.61218" lon="1.42517">
        <ele>140</ele>
        <time>2019-05-13T20:36:12.165Z</time>
      </trkpt>
      <trkpt lat="43.61219" lon="1.42524">
        <ele>140</ele>
        <time>2019-05-13T20:36:13.462Z</time>
      </trkpt>
      <trkpt lat="43.6122" lon="1.42531">
        <ele>140</ele>
        <time>2019-05-13T20:36:14.657Z</time>
      </trkpt>
      <trkpt lat="43.61226" lon="1.42542">
        <ele>140</ele>
        <time>2019-05-13T20:36:17.216Z</time>
      </trkpt>
      <trkpt lat="43.61228" lon="1.42556">
        <ele>140</ele>
        <time>2019-05-13T20:36:19.412Z</time>
      </trkpt>
      <trkpt lat="43.61231" lon="1.42576">
        <ele>139</ele>
        <time>2019-05-13T20:36:23.030Z</time>
      </trkpt>
      <trkpt lat="43.61237" lon="1.42613">
        <ele>139</ele>
        <time>2019-05-13T20:36:29.654Z</time>
      </trkpt>
      <trkpt lat="43.61243" lon="1.4265">
        <ele>139</ele>
        <time>2019-05-13T20:36:36.139Z</time>
      </trkpt>
      <trkpt lat="43.6125" lon="1.4268">
        <ele>139</ele>
        <time>2019-05-13T20:36:41.934Z</time>
      </trkpt>
      <trkpt lat="43.6129" lon="1.42866">
        <ele>141</ele>
        <time>2019-05-13T20:37:19.785Z</time>
      </trkpt>
      <trkpt lat="43.61298" lon="1.429">
        <ele>141</ele>
        <time>2019-05-13T20:37:26.519Z</time>
      </trkpt>
      <trkpt lat="43.61345" lon="1.43052">
        <ele>142</ele>
        <time>2019-05-13T20:37:55.150Z</time>
      </trkpt>
      <trkpt lat="43.61351" lon="1.43067">
        <ele>142</ele>
        <time>2019-05-13T20:37:58.150Z</time>
      </trkpt>
      <trkpt lat="43.61359" lon="1.43089">
        <ele>142</ele>
        <time>2019-05-13T20:38:01.935Z</time>
      </trkpt>
      <trkpt lat="43.61408" lon="1.43197">
        <ele>141</ele>
        <time>2019-05-13T20:38:21.867Z</time>
      </trkpt>
      <trkpt lat="43.61479" lon="1.43303">
        <ele>142</ele>
        <time>2019-05-13T20:38:45.135Z</time>
      </trkpt>
      <trkpt lat="43.61481" lon="1.43303">
        <ele>142</ele>
        <time>2019-05-13T20:38:45.468Z</time>
      </trkpt>
      <trkpt lat="43.61482" lon="1.43306">
        <ele>142</ele>
        <time>2019-05-13T20:38:46.213Z</time>
      </trkpt>
      <trkpt lat="43.6153" lon="1.43393">
        <ele>142</ele>
        <time>2019-05-13T20:39:05.717Z</time>
      </trkpt>
      <trkpt lat="43.61535" lon="1.43403">
        <ele>142</ele>
        <time>2019-05-13T20:39:07.942Z</time>
      </trkpt>
      <trkpt lat="43.6154" lon="1.43412">
        <ele>142</ele>
        <time>2019-05-13T20:39:10.091Z</time>
      </trkpt>
      <trkpt lat="43.61577" lon="1.43521">
        <ele>140</ele>
        <time>2019-05-13T20:39:32.756Z</time>
      </trkpt>
      <trkpt lat="43.6163" lon="1.43833">
        <ele>144</ele>
        <time>2019-05-13T20:40:32.057Z</time>
      </trkpt>
      <trkpt lat="43.6163" lon="1.43909">
        <ele>143</ele>
        <time>2019-05-13T20:40:46.551Z</time>
      </trkpt>
      <trkpt lat="43.61593" lon="1.44043">
        <ele>144</ele>
        <time>2019-05-13T20:41:13.117Z</time>
      </trkpt>
      <trkpt lat="43.61591" lon="1.44048">
        <ele>144</ele>
        <time>2019-05-13T20:41:14.562Z</time>
      </trkpt>
      <trkpt lat="43.6158" lon="1.44077">
        <ele>145</ele>
        <time>2019-05-13T20:41:20.166Z</time>
      </trkpt>
      <trkpt lat="43.61562" lon="1.44131">
        <ele>146</ele>
        <time>2019-05-13T20:41:30.700Z</time>
      </trkpt>
      <trkpt lat="43.61556" lon="1.44156">
        <ele>146</ele>
        <time>2019-05-13T20:41:35.530Z</time>
      </trkpt>
      <trkpt lat="43.61544" lon="1.44197">
        <ele>147</ele>
        <time>2019-05-13T20:41:43.519Z</time>
      </trkpt>
      <trkpt lat="43.61536" lon="1.44237">
        <ele>146</ele>
        <time>2019-05-13T20:41:50.876Z</time>
      </trkpt>
      <trkpt lat="43.61533" lon="1.44249">
        <ele>146</ele>
        <time>2019-05-13T20:41:53.008Z</time>
      </trkpt>
      <trkpt lat="43.61528" lon="1.44275">
        <ele>146</ele>
        <time>2019-05-13T20:41:57.702Z</time>
      </trkpt>
      <trkpt lat="43.61525" lon="1.44293">
        <ele>146</ele>
        <time>2019-05-13T20:42:00.678Z</time>
      </trkpt>
      <trkpt lat="43.61527" lon="1.44401">
        <ele>144</ele>
        <time>2019-05-13T20:42:18.974Z</time>
      </trkpt>
      <trkpt lat="43.61548" lon="1.44557">
        <ele>147</ele>
        <time>2019-05-13T20:42:46.865Z</time>
      </trkpt>
      <trkpt lat="43.61551" lon="1.44563">
        <ele>148</ele>
        <time>2019-05-13T20:42:48.315Z</time>
      </trkpt>
      <trkpt lat="43.61554" lon="1.44584">
        <ele>147</ele>
        <time>2019-05-13T20:42:51.978Z</time>
      </trkpt>
      <trkpt lat="43.61559" lon="1.44717">
        <ele>145</ele>
        <time>2019-05-13T20:43:16.812Z</time>
      </trkpt>
      <trkpt lat="43.61531" lon="1.44809">
        <ele>145</ele>
        <time>2019-05-13T20:43:35.778Z</time>
      </trkpt>
      <trkpt lat="43.61525" lon="1.44821">
        <ele>145</ele>
        <time>2019-05-13T20:43:38.759Z</time>
      </trkpt>
      <trkpt lat="43.61523" lon="1.44824">
        <ele>145</ele>
        <time>2019-05-13T20:43:39.609Z</time>
      </trkpt>
      <trkpt lat="43.61444" lon="1.45001">
        <ele>148</ele>
        <time>2019-05-13T20:44:22.995Z</time>
      </trkpt>
      <trkpt lat="43.61426" lon="1.45042">
        <ele>148</ele>
        <time>2019-05-13T20:44:32.581Z</time>
      </trkpt>
      <trkpt lat="43.61423" lon="1.4505">
        <ele>148</ele>
        <time>2019-05-13T20:44:34.757Z</time>
      </trkpt>
      <trkpt lat="43.61418" lon="1.4506">
        <ele>148</ele>
        <time>2019-05-13T20:44:37.022Z</time>
      </trkpt>
      <trkpt lat="43.61412" lon="1.45071">
        <ele>149</ele>
        <time>2019-05-13T20:44:39.533Z</time>
      </trkpt>
      <trkpt lat="43.6141" lon="1.45072">
        <ele>149</ele>
        <time>2019-05-13T20:44:40.163Z</time>
      </trkpt>
      <trkpt lat="43.61389" lon="1.45049">
        <ele>150</ele>
        <time>2019-05-13T20:44:47.423Z</time>
      </trkpt>
      <trkpt lat="43.61387" lon="1.45047">
        <ele>150</ele>
        <time>2019-05-13T20:44:48.008Z</time>
      </trkpt>
      <trkpt lat="43.61383" lon="1.4505">
        <ele>150</ele>
        <time>2019-05-13T20:44:49.213Z</time>
      </trkpt>
      <trkpt lat="43.61379" lon="1.45056">
        <ele>150</ele>
        <time>2019-05-13T20:44:50.500Z</time>
      </trkpt>
      <trkpt lat="43.61375" lon="1.45063">
        <ele>150</ele>
        <time>2019-05-13T20:44:52.292Z</time>
      </trkpt>
      <trkpt lat="43.61373" lon="1.45068">
        <ele>150</ele>
        <time>2019-05-13T20:44:53.749Z</time>
      </trkpt>
      <trkpt lat="43.61355" lon="1.45098">
        <ele>150</ele>
        <time>2019-05-13T20:45:00.671Z</time>
      </trkpt>
      <trkpt lat="43.61306" lon="1.45146">
        <ele>152</ele>
        <time>2019-05-13T20:45:15.580Z</time>
      </trkpt>
      <trkpt lat="43.61256" lon="1.45176">
        <ele>151</ele>
        <time>2019-05-13T20:45:27.935Z</time>
      </trkpt>
      <trkpt lat="43.61173" lon="1.45223">
        <ele>150</ele>
        <time>2019-05-13T20:45:49.865Z</time>
      </trkpt>
      <trkpt lat="43.61167" lon="1.45229">
        <ele>150</ele>
        <time>2019-05-13T20:45:51.584Z</time>
      </trkpt>
      <trkpt lat="43.61161" lon="1.45234">
        <ele>150</ele>
        <time>2019-05-13T20:45:53.834Z</time>
      </trkpt>
      <trkpt lat="43.6115" lon="1.4524">
        <ele>150</ele>
        <time>2019-05-13T20:45:57.162Z</time>
      </trkpt>
      <trkpt lat="43.61146" lon="1.45243">
        <ele>150</ele>
        <time>2019-05-13T20:45:58.301Z</time>
      </trkpt>
      <trkpt lat="43.61143" lon="1.45246">
        <ele>150</ele>
        <time>2019-05-13T20:45:59.428Z</time>
      </trkpt>
      <trkpt lat="43.6114" lon="1.45249">
        <ele>151</ele>
        <time>2019-05-13T20:46:00.397Z</time>
      </trkpt>
      <trkpt lat="43.61133" lon="1.45259">
        <ele>149</ele>
        <time>2019-05-13T20:46:02.999Z</time>
      </trkpt>
      <trkpt lat="43.61118" lon="1.45265">
        <ele>149</ele>
        <time>2019-05-13T20:46:07.730Z</time>
      </trkpt>
      <trkpt lat="43.61098" lon="1.45273">
        <ele>150</ele>
        <time>2019-05-13T20:46:12.996Z</time>
      </trkpt>
      <trkpt lat="43.61096" lon="1.45274">
        <ele>150</ele>
        <time>2019-05-13T20:46:14.015Z</time>
      </trkpt>
      <trkpt lat="43.61083" lon="1.45279">
        <ele>151</ele>
        <time>2019-05-13T20:46:17.751Z</time>
      </trkpt>
      <trkpt lat="43.61044" lon="1.45298">
        <ele>152</ele>
        <time>2019-05-13T20:46:29.834Z</time>
      </trkpt>
      <trkpt lat="43.61039" lon="1.45301">
        <ele>152</ele>
        <time>2019-05-13T20:46:31.233Z</time>
      </trkpt>
      <trkpt lat="43.61031" lon="1.45305">
        <ele>152</ele>
        <time>2019-05-13T20:46:33.615Z</time>
      </trkpt>
      <trkpt lat="43.61007" lon="1.45318">
        <ele>152</ele>
        <time>2019-05-13T20:46:41.726Z</time>
      </trkpt>
      <trkpt lat="43.60986" lon="1.45335">
        <ele>154</ele>
        <time>2019-05-13T20:46:48.657Z</time>
      </trkpt>
      <trkpt lat="43.6096" lon="1.45362">
        <ele>154</ele>
        <time>2019-05-13T20:46:58.155Z</time>
      </trkpt>
      <trkpt lat="43.60956" lon="1.45366">
        <ele>154</ele>
        <time>2019-05-13T20:46:59.481Z</time>
      </trkpt>
      <trkpt lat="43.60956" lon="1.45368">
        <ele>154</ele>
        <time>2019-05-13T20:47:00.096Z</time>
      </trkpt>
      <trkpt lat="43.60943" lon="1.45397">
        <ele>154</ele>
        <time>2019-05-13T20:47:06.476Z</time>
      </trkpt>
      <trkpt lat="43.60911" lon="1.45429">
        <ele>154</ele>
        <time>2019-05-13T20:47:16.512Z</time>
      </trkpt>
      <trkpt lat="43.60899" lon="1.45442">
        <ele>155</ele>
        <time>2019-05-13T20:47:20.619Z</time>
      </trkpt>
      <trkpt lat="43.60895" lon="1.45444">
        <ele>155</ele>
        <time>2019-05-13T20:47:21.393Z</time>
      </trkpt>
      <trkpt lat="43.60866" lon="1.45474">
        <ele>155</ele>
        <time>2019-05-13T20:47:29.654Z</time>
      </trkpt>
      <trkpt lat="43.60698" lon="1.45569">
        <ele>155</ele>
        <time>2019-05-13T20:48:11.057Z</time>
      </trkpt>
      <trkpt lat="43.60681" lon="1.45578">
        <ele>155</ele>
        <time>2019-05-13T20:48:15.221Z</time>
      </trkpt>
      <trkpt lat="43.60653" lon="1.45594">
        <ele>154</ele>
        <time>2019-05-13T20:48:22.347Z</time>
      </trkpt>
      <trkpt lat="43.60629" lon="1.45607">
        <ele>154</ele>
        <time>2019-05-13T20:48:28.056Z</time>
      </trkpt>
      <trkpt lat="43.6062" lon="1.45611">
        <ele>154</ele>
        <time>2019-05-13T20:48:30.779Z</time>
      </trkpt>
      <trkpt lat="43.60543" lon="1.45656">
        <ele>155</ele>
        <time>2019-05-13T20:48:51.511Z</time>
      </trkpt>
      <trkpt lat="43.6052" lon="1.45668">
        <ele>154</ele>
        <time>2019-05-13T20:48:58.414Z</time>
      </trkpt>
      <trkpt lat="43.60514" lon="1.45678">
        <ele>154</ele>
        <time>2019-05-13T20:49:00.545Z</time>
      </trkpt>
      <trkpt lat="43.60497" lon="1.45677">
        <ele>154</ele>
        <time>2019-05-13T20:49:04.925Z</time>
      </trkpt>
      <trkpt lat="43.60496" lon="1.45677">
        <ele>154</ele>
        <time>2019-05-13T20:49:05.348Z</time>
      </trkpt>
      <trkpt lat="43.60495" lon="1.45676">
        <ele>154</ele>
        <time>2019-05-13T20:49:05.679Z</time>
      </trkpt>
      <trkpt lat="43.60494" lon="1.45676">
        <ele>154</ele>
        <time>2019-05-13T20:49:05.949Z</time>
      </trkpt>
      <trkpt lat="43.60474" lon="1.45675">
        <ele>154</ele>
        <time>2019-05-13T20:49:10.978Z</time>
      </trkpt>
      <trkpt lat="43.60465" lon="1.45675">
        <ele>155</ele>
        <time>2019-05-13T20:49:13.281Z</time>
      </trkpt>
      <trkpt lat="43.60376" lon="1.45672">
        <ele>155</ele>
        <time>2019-05-13T20:49:37.080Z</time>
      </trkpt>
      <trkpt lat="43.60373" lon="1.45672">
        <ele>155</ele>
        <time>2019-05-13T20:49:37.863Z</time>
      </trkpt>
      <trkpt lat="43.60358" lon="1.45671">
        <ele>155</ele>
        <time>2019-05-13T20:49:41.688Z</time>
      </trkpt>
      <trkpt lat="43.60315" lon="1.45668">
        <ele>155</ele>
        <time>2019-05-13T20:49:53.009Z</time>
      </trkpt>
      <trkpt lat="43.60204" lon="1.45655">
        <ele>156</ele>
        <time>2019-05-13T20:50:19.518Z</time>
      </trkpt>
      <trkpt lat="43.6005" lon="1.45612">
        <ele>157</ele>
        <time>2019-05-13T20:50:51.858Z</time>
      </trkpt>
      <trkpt lat="43.59967" lon="1.45611">
        <ele>155</ele>
        <time>2019-05-13T20:51:08.846Z</time>
      </trkpt>
      <trkpt lat="43.5996" lon="1.45611">
        <ele>155</ele>
        <time>2019-05-13T20:51:10.316Z</time>
      </trkpt>
      <trkpt lat="43.59938" lon="1.45612">
        <ele>156</ele>
        <time>2019-05-13T20:51:14.865Z</time>
      </trkpt>
      <trkpt lat="43.59932" lon="1.45612">
        <ele>156</ele>
        <time>2019-05-13T20:51:16.199Z</time>
      </trkpt>
      <trkpt lat="43.59718" lon="1.45607">
        <ele>154</ele>
        <time>2019-05-13T20:52:02.239Z</time>
      </trkpt>
      <trkpt lat="43.59675" lon="1.45581">
        <ele>155</ele>
        <time>2019-05-13T20:52:12.039Z</time>
      </trkpt>
      <trkpt lat="43.59674" lon="1.45581">
        <ele>155</ele>
        <time>2019-05-13T20:52:12.195Z</time>
      </trkpt>
      <trkpt lat="43.59673" lon="1.4558">
        <ele>155</ele>
        <time>2019-05-13T20:52:12.425Z</time>
      </trkpt>
      <trkpt lat="43.59668" lon="1.45579">
        <ele>155</ele>
        <time>2019-05-13T20:52:13.499Z</time>
      </trkpt>
      <trkpt lat="43.59642" lon="1.45575">
        <ele>156</ele>
        <time>2019-05-13T20:52:18.929Z</time>
      </trkpt>
      <trkpt lat="43.59624" lon="1.45571">
        <ele>156</ele>
        <time>2019-05-13T20:52:22.760Z</time>
      </trkpt>
      <trkpt lat="43.59616" lon="1.4557">
        <ele>156</ele>
        <time>2019-05-13T20:52:24.323Z</time>
      </trkpt>
      <trkpt lat="43.59575" lon="1.45571">
        <ele>155</ele>
        <time>2019-05-13T20:52:32.753Z</time>
      </trkpt>
      <trkpt lat="43.59544" lon="1.45575">
        <ele>155</ele>
        <time>2019-05-13T20:52:39.807Z</time>
      </trkpt>
      <trkpt lat="43.59491" lon="1.45586">
        <ele>152</ele>
        <time>2019-05-13T20:52:53.778Z</time>
      </trkpt>
      <trkpt lat="43.59468" lon="1.45591">
        <ele>152</ele>
        <time>2019-05-13T20:52:58.918Z</time>
      </trkpt>
      <trkpt lat="43.59463" lon="1.45593">
        <ele>152</ele>
        <time>2019-05-13T20:53:00.703Z</time>
      </trkpt>
      <trkpt lat="43.59461" lon="1.45593">
        <ele>152</ele>
        <time>2019-05-13T20:53:01.331Z</time>
      </trkpt>
      <trkpt lat="43.59435" lon="1.45583">
        <ele>152</ele>
        <time>2019-05-13T20:53:07.991Z</time>
      </trkpt>
      <trkpt lat="43.59433" lon="1.45585">
        <ele>151</ele>
        <time>2019-05-13T20:53:08.745Z</time>
      </trkpt>
      <trkpt lat="43.59431" lon="1.45588">
        <ele>151</ele>
        <time>2019-05-13T20:53:09.792Z</time>
      </trkpt>
      <trkpt lat="43.59412" lon="1.45638">
        <ele>152</ele>
        <time>2019-05-13T20:53:20.702Z</time>
      </trkpt>
      <trkpt lat="43.5941" lon="1.45643">
        <ele>152</ele>
        <time>2019-05-13T20:53:22.192Z</time>
      </trkpt>
      <trkpt lat="43.59406" lon="1.45648">
        <ele>152</ele>
        <time>2019-05-13T20:53:23.744Z</time>
      </trkpt>
      <trkpt lat="43.59278" lon="1.4578">
        <ele>156</ele>
        <time>2019-05-13T20:54:02.178Z</time>
      </trkpt>
      <trkpt lat="43.59236" lon="1.45822">
        <ele>155</ele>
        <time>2019-05-13T20:54:12.605Z</time>
      </trkpt>
      <trkpt lat="43.59164" lon="1.45897">
        <ele>152</ele>
        <time>2019-05-13T20:54:31.368Z</time>
      </trkpt>
      <trkpt lat="43.59152" lon="1.45912">
        <ele>152</ele>
        <time>2019-05-13T20:54:34.759Z</time>
      </trkpt>
      <trkpt lat="43.59148" lon="1.45917">
        <ele>152</ele>
        <time>2019-05-13T20:54:35.717Z</time>
      </trkpt>
      <trkpt lat="43.59145" lon="1.45921">
        <ele>152</ele>
        <time>2019-05-13T20:54:36.730Z</time>
      </trkpt>
      <trkpt lat="43.59116" lon="1.45957">
        <ele>152</ele>
        <time>2019-05-13T20:54:45.228Z</time>
      </trkpt>
      <trkpt lat="43.59095" lon="1.45965">
        <ele>152</ele>
        <time>2019-05-13T20:54:50.043Z</time>
      </trkpt>
      <trkpt lat="43.59082" lon="1.45968">
        <ele>151</ele>
        <time>2019-05-13T20:54:52.936Z</time>
      </trkpt>
      <trkpt lat="43.59029" lon="1.45981">
        <ele>151</ele>
        <time>2019-05-13T20:55:05.331Z</time>
      </trkpt>
      <trkpt lat="43.58816" lon="1.46019">
        <ele>151</ele>
        <time>2019-05-13T20:55:55.091Z</time>
      </trkpt>
      <trkpt lat="43.58808" lon="1.4602">
        <ele>152</ele>
        <time>2019-05-13T20:55:56.831Z</time>
      </trkpt>
      <trkpt lat="43.58807" lon="1.4602">
        <ele>152</ele>
        <time>2019-05-13T20:55:57.182Z</time>
      </trkpt>
      <trkpt lat="43.5872" lon="1.4604">
        <ele>152</ele>
        <time>2019-05-13T20:56:15.825Z</time>
      </trkpt>
      <trkpt lat="43.58718" lon="1.46041">
        <ele>152</ele>
        <time>2019-05-13T20:56:16.280Z</time>
      </trkpt>
      <trkpt lat="43.58706" lon="1.46045">
        <ele>152</ele>
        <time>2019-05-13T20:56:18.684Z</time>
      </trkpt>
      <trkpt lat="43.5869" lon="1.46052">
        <ele>152</ele>
        <time>2019-05-13T20:56:22.224Z</time>
      </trkpt>
      <trkpt lat="43.58612" lon="1.46084">
        <ele>152</ele>
        <time>2019-05-13T20:56:38.890Z</time>
      </trkpt>
      <trkpt lat="43.58597" lon="1.46091">
        <ele>151</ele>
        <time>2019-05-13T20:56:42.077Z</time>
      </trkpt>
      <trkpt lat="43.58572" lon="1.46101">
        <ele>150</ele>
        <time>2019-05-13T20:56:47.980Z</time>
      </trkpt>
      <trkpt lat="43.58509" lon="1.46127">
        <ele>149</ele>
        <time>2019-05-13T20:57:03.260Z</time>
      </trkpt>
      <trkpt lat="43.58447" lon="1.46153">
        <ele>148</ele>
        <time>2019-05-13T20:57:19.563Z</time>
      </trkpt>
      <trkpt lat="43.58428" lon="1.46161">
        <ele>149</ele>
        <time>2019-05-13T20:57:25.133Z</time>
      </trkpt>
      <trkpt lat="43.58218" lon="1.46264">
        <ele>153</ele>
        <time>2019-05-13T20:58:22.061Z</time>
      </trkpt>
      <trkpt lat="43.58211" lon="1.46268">
        <ele>152</ele>
        <time>2019-05-13T20:58:23.547Z</time>
      </trkpt>
      <trkpt lat="43.58206" lon="1.46271">
        <ele>152</ele>
        <time>2019-05-13T20:58:25.098Z</time>
      </trkpt>
      <trkpt lat="43.58188" lon="1.46282">
        <ele>152</ele>
        <time>2019-05-13T20:58:29.724Z</time>
      </trkpt>
      <trkpt lat="43.58165" lon="1.46298">
        <ele>152</ele>
        <time>2019-05-13T20:58:35.756Z</time>
      </trkpt>
      <trkpt lat="43.58164" lon="1.46298">
        <ele>152</ele>
        <time>2019-05-13T20:58:35.842Z</time>
      </trkpt>
      <trkpt lat="43.58156" lon="1.46304">
        <ele>152</ele>
        <time>2019-05-13T20:58:38.166Z</time>
      </trkpt>
      <trkpt lat="43.58155" lon="1.46304">
        <ele>152</ele>
        <time>2019-05-13T20:58:38.217Z</time>
      </trkpt>
      <trkpt lat="43.58134" lon="1.46323">
        <ele>152</ele>
        <time>2019-05-13T20:58:43.939Z</time>
      </trkpt>
      <trkpt lat="43.58098" lon="1.46359">
        <ele>152</ele>
        <time>2019-05-13T20:58:54.442Z</time>
      </trkpt>
      <trkpt lat="43.58091" lon="1.46365">
        <ele>152</ele>
        <time>2019-05-13T20:58:56.249Z</time>
      </trkpt>
      <trkpt lat="43.5808" lon="1.46376">
        <ele>152</ele>
        <time>2019-05-13T20:58:59.392Z</time>
      </trkpt>
      <trkpt lat="43.57953" lon="1.46519">
        <ele>152</ele>
        <time>2019-05-13T20:59:39.293Z</time>
      </trkpt>
      <trkpt lat="43.57803" lon="1.46586">
        <ele>154</ele>
        <time>2019-05-13T21:00:14.187Z</time>
      </trkpt>
      <trkpt lat="43.578" lon="1.46586">
        <ele>154</ele>
        <time>2019-05-13T21:00:14.829Z</time>
      </trkpt>
      <trkpt lat="43.57723" lon="1.46589">
        <ele>152</ele>
        <time>2019-05-13T21:00:31.409Z</time>
      </trkpt>
      <trkpt lat="43.57624" lon="1.46619">
        <ele>150</ele>
        <time>2019-05-13T21:00:53.133Z</time>
      </trkpt>
      <trkpt lat="43.57619" lon="1.46623">
        <ele>150</ele>
        <time>2019-05-13T21:00:54.710Z</time>
      </trkpt>
      <trkpt lat="43.5759" lon="1.46649">
        <ele>151</ele>
        <time>2019-05-13T21:01:02.287Z</time>
      </trkpt>
      <trkpt lat="43.57578" lon="1.46661">
        <ele>151</ele>
        <time>2019-05-13T21:01:05.459Z</time>
      </trkpt>
      <trkpt lat="43.57568" lon="1.46673">
        <ele>152</ele>
        <time>2019-05-13T21:01:08.227Z</time>
      </trkpt>
      <trkpt lat="43.57553" lon="1.46701">
        <ele>151</ele>
        <time>2019-05-13T21:01:13.616Z</time>
      </trkpt>
      <trkpt lat="43.57539" lon="1.46728">
        <ele>151</ele>
        <time>2019-05-13T21:01:18.875Z</time>
      </trkpt>
      <trkpt lat="43.57522" lon="1.46763">
        <ele>152</ele>
        <time>2019-05-13T21:01:25.319Z</time>
      </trkpt>
      <trkpt lat="43.57514" lon="1.4678">
        <ele>152</ele>
        <time>2019-05-13T21:01:28.326Z</time>
      </trkpt>
      <trkpt lat="43.57493" lon="1.46818">
        <ele>152</ele>
        <time>2019-05-13T21:01:36.612Z</time>
      </trkpt>
      <trkpt lat="43.57478" lon="1.46848">
        <ele>152</ele>
        <time>2019-05-13T21:01:43.626Z</time>
      </trkpt>
      <trkpt lat="43.57471" lon="1.46861">
        <ele>151</ele>
        <time>2019-05-13T21:01:46.105Z</time>
      </trkpt>
      <trkpt lat="43.57453" lon="1.46888">
        <ele>151</ele>
        <time>2019-05-13T21:01:53.516Z</time>
      </trkpt>
      <trkpt lat="43.57449" lon="1.46892">
        <ele>151</ele>
        <time>2019-05-13T21:01:54.364Z</time>
      </trkpt>
      <trkpt lat="43.57437" lon="1.46902">
        <ele>150</ele>
        <time>2019-05-13T21:01:57.767Z</time>
      </trkpt>
      <trkpt lat="43.57405" lon="1.46928">
        <ele>149</ele>
        <time>2019-05-13T21:02:07.483Z</time>
      </trkpt>
      <trkpt lat="43.57401" lon="1.46931">
        <ele>149</ele>
        <time>2019-05-13T21:02:09.464Z</time>
      </trkpt>
      <trkpt lat="43.57265" lon="1.46977">
        <ele>154</ele>
        <time>2019-05-13T21:02:48.997Z</time>
      </trkpt>
      <trkpt lat="43.57095" lon="1.46986">
        <ele>156</ele>
        <time>2019-05-13T21:03:31.973Z</time>
      </trkpt>
      <trkpt lat="43.57024" lon="1.47005">
        <ele>154</ele>
        <time>2019-05-13T21:03:47.991Z</time>
      </trkpt>
      <trkpt lat="43.57012" lon="1.47012">
        <ele>154</ele>
        <time>2019-05-13T21:03:50.859Z</time>
      </trkpt>
      <trkpt lat="43.57022" lon="1.47043">
        <ele>154</ele>
        <time>2019-05-13T21:03:56.240Z</time>
      </trkpt>
      <trkpt lat="43.56993" lon="1.47058">
        <ele>154</ele>
        <time>2019-05-13T21:04:02.842Z</time>
      </trkpt>
      <trkpt lat="43.5697" lon="1.47074">
        <ele>154</ele>
        <time>2019-05-13T21:04:08.123Z</time>
      </trkpt>
      <trkpt lat="43.56928" lon="1.47103">
        <ele>154</ele>
        <time>2019-05-13T21:04:18.024Z</time>
      </trkpt>
      <trkpt lat="43.56885" lon="1.47135">
        <ele>154</ele>
        <time>2019-05-13T21:04:28.059Z</time>
      </trkpt>
      <trkpt lat="43.56864" lon="1.47152">
        <ele>154</ele>
        <time>2019-05-13T21:04:33.365Z</time>
      </trkpt>
      <trkpt lat="43.56854" lon="1.47157">
        <ele>154</ele>
        <time>2019-05-13T21:04:35.551Z</time>
      </trkpt>
      <trkpt lat="43.56838" lon="1.47161">
        <ele>154</ele>
        <time>2019-05-13T21:04:38.866Z</time>
      </trkpt>
      <trkpt lat="43.56822" lon="1.47164">
        <ele>154</ele>
        <time>2019-05-13T21:04:42.274Z</time>
      </trkpt>
      <trkpt lat="43.56788" lon="1.4717">
        <ele>153</ele>
        <time>2019-05-13T21:04:49.603Z</time>
      </trkpt>
      <trkpt lat="43.56741" lon="1.47175">
        <ele>154</ele>
        <time>2019-05-13T21:04:59.232Z</time>
      </trkpt>
      <trkpt lat="43.5663" lon="1.47175">
        <ele>153</ele>
        <time>2019-05-13T21:05:22.337Z</time>
      </trkpt>
      <trkpt lat="43.56559" lon="1.47171">
        <ele>152</ele>
        <time>2019-05-13T21:05:38.196Z</time>
      </trkpt>
      <trkpt lat="43.56559" lon="1.47168">
        <ele>152</ele>
        <time>2019-05-13T21:05:38.775Z</time>
      </trkpt>
      <trkpt lat="43.56521" lon="1.47167">
        <ele>152</ele>
        <time>2019-05-13T21:05:47.720Z</time>
      </trkpt>
      <trkpt lat="43.56521" lon="1.47167">
        <ele>151</ele>
        <time>2019-05-13T21:05:47.854Z</time>
      </trkpt>
      <trkpt lat="43.56518" lon="1.47168">
        <ele>151</ele>
        <time>2019-05-13T21:05:48.600Z</time>
      </trkpt>
      <trkpt lat="43.56517" lon="1.47168">
        <ele>151</ele>
        <time>2019-05-13T21:05:48.735Z</time>
      </trkpt>
      <trkpt lat="43.56511" lon="1.47168">
        <ele>151</ele>
        <time>2019-05-13T21:05:50.583Z</time>
      </trkpt>
      <trkpt lat="43.56418" lon="1.47163">
        <ele>154</ele>
        <time>2019-05-13T21:06:14.106Z</time>
      </trkpt>
      <trkpt lat="43.56346" lon="1.47195">
        <ele>153</ele>
        <time>2019-05-13T21:06:35.733Z</time>
      </trkpt>
      <trkpt lat="43.5615" lon="1.47439">
        <ele>155</ele>
        <time>2019-05-13T21:07:50.753Z</time>
      </trkpt>
      <trkpt lat="43.56129" lon="1.47464">
        <ele>155</ele>
        <time>2019-05-13T21:07:57.805Z</time>
      </trkpt>
      <trkpt lat="43.5612" lon="1.47474">
        <ele>156</ele>
        <time>2019-05-13T21:08:00.273Z</time>
      </trkpt>
      <trkpt lat="43.56067" lon="1.47534">
        <ele>157</ele>
        <time>2019-05-13T21:08:16.494Z</time>
      </trkpt>
      <trkpt lat="43.56009" lon="1.476">
        <ele>156</ele>
        <time>2019-05-13T21:08:33.182Z</time>
      </trkpt>
      <trkpt lat="43.55952" lon="1.47666">
        <ele>156</ele>
        <time>2019-05-13T21:08:48.583Z</time>
      </trkpt>
      <trkpt lat="43.55763" lon="1.47929">
        <ele>155</ele>
        <time>2019-05-13T21:09:46.215Z</time>
      </trkpt>
      <trkpt lat="43.55664" lon="1.48021">
        <ele>154</ele>
        <time>2019-05-13T21:10:10.236Z</time>
      </trkpt>
      <trkpt lat="43.5561" lon="1.48058">
        <ele>152</ele>
        <time>2019-05-13T21:10:22.236Z</time>
      </trkpt>
      <trkpt lat="43.55594" lon="1.48069">
        <ele>152</ele>
        <time>2019-05-13T21:10:25.738Z</time>
      </trkpt>
      <trkpt lat="43.5557" lon="1.48081">
        <ele>153</ele>
        <time>2019-05-13T21:10:31.089Z</time>
      </trkpt>
      <trkpt lat="43.55565" lon="1.48082">
        <ele>152</ele>
        <time>2019-05-13T21:10:32.021Z</time>
      </trkpt>
      <trkpt lat="43.55556" lon="1.48084">
        <ele>152</ele>
        <time>2019-05-13T21:10:33.855Z</time>
      </trkpt>
      <trkpt lat="43.55532" lon="1.48093">
        <ele>152</ele>
        <time>2019-05-13T21:10:39.149Z</time>
      </trkpt>
      <trkpt lat="43.55491" lon="1.48111">
        <ele>151</ele>
        <time>2019-05-13T21:10:47.976Z</time>
      </trkpt>
      <trkpt lat="43.55485" lon="1.48114">
        <ele>151</ele>
        <time>2019-05-13T21:10:49.382Z</time>
      </trkpt>
      <trkpt lat="43.55481" lon="1.48115">
        <ele>151</ele>
        <time>2019-05-13T21:10:50.398Z</time>
      </trkpt>
      <trkpt lat="43.55476" lon="1.48116">
        <ele>151</ele>
        <time>2019-05-13T21:10:51.544Z</time>
      </trkpt>
      <trkpt lat="43.55472" lon="1.48118">
        <ele>151</ele>
        <time>2019-05-13T21:10:52.535Z</time>
      </trkpt>
      <trkpt lat="43.55345" lon="1.4813">
        <ele>152</ele>
        <time>2019-05-13T21:11:20.422Z</time>
      </trkpt>
      <trkpt lat="43.55259" lon="1.48156">
        <ele>152</ele>
        <time>2019-05-13T21:11:40.352Z</time>
      </trkpt>
      <trkpt lat="43.55236" lon="1.48165">
        <ele>152</ele>
        <time>2019-05-13T21:11:45.914Z</time>
      </trkpt>
      <trkpt lat="43.55163" lon="1.4819">
        <ele>152</ele>
        <time>2019-05-13T21:12:03.614Z</time>
      </trkpt>
      <trkpt lat="43.55142" lon="1.48198">
        <ele>151</ele>
        <time>2019-05-13T21:12:08.491Z</time>
      </trkpt>
      <trkpt lat="43.55131" lon="1.48202">
        <ele>151</ele>
        <time>2019-05-13T21:12:11.304Z</time>
      </trkpt>
      <trkpt lat="43.55076" lon="1.4823">
        <ele>151</ele>
        <time>2019-05-13T21:12:24.202Z</time>
      </trkpt>
      <trkpt lat="43.55043" lon="1.48261">
        <ele>151</ele>
        <time>2019-05-13T21:12:33.078Z</time>
      </trkpt>
      <trkpt lat="43.55013" lon="1.4829">
        <ele>151</ele>
        <time>2019-05-13T21:12:41.542Z</time>
      </trkpt>
      <trkpt lat="43.54983" lon="1.48319">
        <ele>151</ele>
        <time>2019-05-13T21:12:49.745Z</time>
      </trkpt>
      <trkpt lat="43.5493" lon="1.48372">
        <ele>150</ele>
        <time>2019-05-13T21:13:03.856Z</time>
      </trkpt>
      <trkpt lat="43.54866" lon="1.48428">
        <ele>150</ele>
        <time>2019-05-13T21:13:20.212Z</time>
      </trkpt>
      <trkpt lat="43.54866" lon="1.48429">
        <ele>150</ele>
        <time>2019-05-13T21:13:20.456Z</time>
      </trkpt>
      <trkpt lat="43.54864" lon="1.48431">
        <ele>150</ele>
        <time>2019-05-13T21:13:20.992Z</time>
      </trkpt>
      <trkpt lat="43.54863" lon="1.48432">
        <ele>150</ele>
        <time>2019-05-13T21:13:21.228Z</time>
      </trkpt>
      <trkpt lat="43.54823" lon="1.48464">
        <ele>150</ele>
        <time>2019-05-13T21:13:31.899Z</time>
      </trkpt>
      <trkpt lat="43.54822" lon="1.48466">
        <ele>150</ele>
        <time>2019-05-13T21:13:32.328Z</time>
      </trkpt>
      <trkpt lat="43.54821" lon="1.48481">
        <ele>150</ele>
        <time>2019-05-13T21:13:34.919Z</time>
      </trkpt>
      <trkpt lat="43.54831" lon="1.48485">
        <ele>149</ele>
        <time>2019-05-13T21:13:37.502Z</time>
      </trkpt>
      <trkpt lat="43.54837" lon="1.48474">
        <ele>150</ele>
        <time>2019-05-13T21:13:39.894Z</time>
      </trkpt>
      <trkpt lat="43.54832" lon="1.48462">
        <ele>150</ele>
        <time>2019-05-13T21:13:42.249Z</time>
      </trkpt>
      <trkpt lat="43.5483" lon="1.48461">
        <ele>150</ele>
        <time>2019-05-13T21:13:42.656Z</time>
      </trkpt>
      <trkpt lat="43.54829" lon="1.4846">
        <ele>150</ele>
        <time>2019-05-13T21:13:43.102Z</time>
      </trkpt>
      <trkpt lat="43.54826" lon="1.48459">
        <ele>150</ele>
        <time>2019-05-13T21:13:43.748Z</time>
      </trkpt>
      <trkpt lat="43.54823" lon="1.48458">
        <ele>150</ele>
        <time>2019-05-13T21:13:44.510Z</time>
      </trkpt>
      <trkpt lat="43.54819" lon="1.48458">
        <ele>150</ele>
        <time>2019-05-13T21:13:45.713Z</time>
      </trkpt>
      <trkpt lat="43.54817" lon="1.48458">
        <ele>150</ele>
        <time>2019-05-13T21:13:46.253Z</time>
      </trkpt>
      <trkpt lat="43.54812" lon="1.4846">
        <ele>150</ele>
        <time>2019-05-13T21:13:47.498Z</time>
      </trkpt>
      <trkpt lat="43.54808" lon="1.48462">
        <ele>150</ele>
        <time>2019-05-13T21:13:48.383Z</time>
      </trkpt>
      <trkpt lat="43.54805" lon="1.48464">
        <ele>150</ele>
        <time>2019-05-13T21:13:49.323Z</time>
      </trkpt>
      <trkpt lat="43.54801" lon="1.48466">
        <ele>150</ele>
        <time>2019-05-13T21:13:50.346Z</time>
      </trkpt>
      <trkpt lat="43.54794" lon="1.48471">
        <ele>150</ele>
        <time>2019-05-13T21:13:52.196Z</time>
      </trkpt>
      <trkpt lat="43.54781" lon="1.4848">
        <ele>150</ele>
        <time>2019-05-13T21:13:56.029Z</time>
      </trkpt>
      <trkpt lat="43.54626" lon="1.48615">
        <ele>151</ele>
        <time>2019-05-13T21:14:41.405Z</time>
      </trkpt>
      <trkpt lat="43.54589" lon="1.48679">
        <ele>151</ele>
        <time>2019-05-13T21:14:55.818Z</time>
      </trkpt>
      <trkpt lat="43.54542" lon="1.48802">
        <ele>151</ele>
        <time>2019-05-13T21:15:21.165Z</time>
      </trkpt>
      <trkpt lat="43.54533" lon="1.48829">
        <ele>151</ele>
        <time>2019-05-13T21:15:26.798Z</time>
      </trkpt>
      <trkpt lat="43.54528" lon="1.48841">
        <ele>151</ele>
        <time>2019-05-13T21:15:29.768Z</time>
      </trkpt>
      <trkpt lat="43.54468" lon="1.4899">
        <ele>151</ele>
        <time>2019-05-13T21:16:02.976Z</time>
      </trkpt>
      <trkpt lat="43.54461" lon="1.49003">
        <ele>151</ele>
        <time>2019-05-13T21:16:06.385Z</time>
      </trkpt>
      <trkpt lat="43.54455" lon="1.49009">
        <ele>152</ele>
        <time>2019-05-13T21:16:08.681Z</time>
      </trkpt>
      <trkpt lat="43.54431" lon="1.49021">
        <ele>153</ele>
        <time>2019-05-13T21:16:15.328Z</time>
      </trkpt>
      <trkpt lat="43.54422" lon="1.49025">
        <ele>153</ele>
        <time>2019-05-13T21:16:17.829Z</time>
      </trkpt>
      <trkpt lat="43.54395" lon="1.49037">
        <ele>154</ele>
        <time>2019-05-13T21:16:25.202Z</time>
      </trkpt>
      <trkpt lat="43.54355" lon="1.49052">
        <ele>155</ele>
        <time>2019-05-13T21:16:35.788Z</time>
      </trkpt>
      <trkpt lat="43.54231" lon="1.49113">
        <ele>155</ele>
        <time>2019-05-13T21:17:04.829Z</time>
      </trkpt>
      <trkpt lat="43.54198" lon="1.49132">
        <ele>154</ele>
        <time>2019-05-13T21:17:12.258Z</time>
      </trkpt>
      <trkpt lat="43.54161" lon="1.49154">
        <ele>153</ele>
        <time>2019-05-13T21:17:20.508Z</time>
      </trkpt>
      <trkpt lat="43.54017" lon="1.49239">
        <ele>152</ele>
        <time>2019-05-13T21:17:52.091Z</time>
      </trkpt>
      <trkpt lat="43.539" lon="1.49273">
        <ele>152</ele>
        <time>2019-05-13T21:18:16.331Z</time>
      </trkpt>
      <trkpt lat="43.53864" lon="1.49315">
        <ele>151</ele>
        <time>2019-05-13T21:18:26.172Z</time>
      </trkpt>
      <trkpt lat="43.53854" lon="1.49365">
        <ele>149</ele>
        <time>2019-05-13T21:18:34.193Z</time>
      </trkpt>
      <trkpt lat="43.53857" lon="1.49412">
        <ele>148</ele>
        <time>2019-05-13T21:18:41.553Z</time>
      </trkpt>
      <trkpt lat="43.53903" lon="1.49747">
        <ele>149</ele>
        <time>2019-05-13T21:19:37.728Z</time>
      </trkpt>
      <trkpt lat="43.53887" lon="1.49869">
        <ele>149</ele>
        <time>2019-05-13T21:19:57.626Z</time>
      </trkpt>
      <trkpt lat="43.53855" lon="1.49956">
        <ele>149</ele>
        <time>2019-05-13T21:20:13.115Z</time>
      </trkpt>
      <trkpt lat="43.53769" lon="1.50107">
        <ele>146</ele>
        <time>2019-05-13T21:20:44.789Z</time>
      </trkpt>
      <trkpt lat="43.5372" lon="1.50213">
        <ele>148</ele>
        <time>2019-05-13T21:21:06.734Z</time>
      </trkpt>
      <trkpt lat="43.53593" lon="1.50378">
        <ele>149</ele>
        <time>2019-05-13T21:21:49.455Z</time>
      </trkpt>
      <trkpt lat="43.53533" lon="1.50431">
        <ele>149</ele>
        <time>2019-05-13T21:22:06.015Z</time>
      </trkpt>
      <trkpt lat="43.53479" lon="1.50475">
        <ele>150</ele>
        <time>2019-05-13T21:22:20.416Z</time>
      </trkpt>
      <trkpt lat="43.53379" lon="1.50533">
        <ele>149</ele>
        <time>2019-05-13T21:22:45.110Z</time>
      </trkpt>
      <trkpt lat="43.53235" lon="1.50555">
        <ele>150</ele>
        <time>2019-05-13T21:23:20.148Z</time>
      </trkpt>
      <trkpt lat="43.53136" lon="1.50592">
        <ele>150</ele>
        <time>2019-05-13T21:23:45.671Z</time>
      </trkpt>
      <trkpt lat="43.53109" lon="1.50603">
        <ele>149</ele>
        <time>2019-05-13T21:23:52.891Z</time>
      </trkpt>
      <trkpt lat="43.53024" lon="1.50669">
        <ele>150</ele>
        <time>2019-05-13T21:24:16.844Z</time>
      </trkpt>
      <trkpt lat="43.52878" lon="1.50826">
        <ele>152</ele>
        <time>2019-05-13T21:24:58.741Z</time>
      </trkpt>
      <trkpt lat="43.52782" lon="1.50886">
        <ele>151</ele>
        <time>2019-05-13T21:25:21.032Z</time>
      </trkpt>
      <trkpt lat="43.52748" lon="1.50921">
        <ele>150</ele>
        <time>2019-05-13T21:25:30.087Z</time>
      </trkpt>
      <trkpt lat="43.52695" lon="1.51016">
        <ele>147</ele>
        <time>2019-05-13T21:25:48.704Z</time>
      </trkpt>
      <trkpt lat="43.52664" lon="1.51124">
        <ele>149</ele>
        <time>2019-05-13T21:26:08.362Z</time>
      </trkpt>
      <trkpt lat="43.52623" lon="1.51516">
        <ele>149</ele>
        <time>2019-05-13T21:27:21.861Z</time>
      </trkpt>
      <trkpt lat="43.5258" lon="1.51688">
        <ele>150</ele>
        <time>2019-05-13T21:27:53.452Z</time>
      </trkpt>
      <trkpt lat="43.52553" lon="1.51752">
        <ele>150</ele>
        <time>2019-05-13T21:28:05.868Z</time>
      </trkpt>
      <trkpt lat="43.52522" lon="1.51797">
        <ele>150</ele>
        <time>2019-05-13T21:28:16.637Z</time>
      </trkpt>
      <trkpt lat="43.52462" lon="1.51851">
        <ele>151</ele>
        <time>2019-05-13T21:28:35.089Z</time>
      </trkpt>
      <trkpt lat="43.52413" lon="1.51874">
        <ele>150</ele>
        <time>2019-05-13T21:28:49.662Z</time>
      </trkpt>
      <trkpt lat="43.52402" lon="1.51876">
        <ele>151</ele>
        <time>2019-05-13T21:28:52.944Z</time>
      </trkpt>
      <trkpt lat="43.52367" lon="1.51887">
        <ele>151</ele>
        <time>2019-05-13T21:29:03.171Z</time>
      </trkpt>
      <trkpt lat="43.5236" lon="1.51888">
        <ele>151</ele>
        <time>2019-05-13T21:29:05.547Z</time>
      </trkpt>
      <trkpt lat="43.52343" lon="1.51891">
        <ele>151</ele>
        <time>2019-05-13T21:29:10.373Z</time>
      </trkpt>
      <trkpt lat="43.52331" lon="1.51897">
        <ele>152</ele>
        <time>2019-05-13T21:29:14.002Z</time>
      </trkpt>
      <trkpt lat="43.52326" lon="1.519">
        <ele>152</ele>
        <time>2019-05-13T21:29:15.517Z</time>
      </trkpt>
      <trkpt lat="43.52325" lon="1.51901">
        <ele>152</ele>
        <time>2019-05-13T21:29:16.023Z</time>
      </trkpt>
      <trkpt lat="43.52323" lon="1.51903">
        <ele>152</ele>
        <time>2019-05-13T21:29:16.630Z</time>
      </trkpt>
      <trkpt lat="43.5232" lon="1.51905">
        <ele>152</ele>
        <time>2019-05-13T21:29:17.988Z</time>
      </trkpt>
      <trkpt lat="43.52207" lon="1.51943">
        <ele>157</ele>
        <time>2019-05-13T21:29:49.893Z</time>
      </trkpt>
      <trkpt lat="43.52114" lon="1.51956">
        <ele>158</ele>
        <time>2019-05-13T21:30:12.121Z</time>
      </trkpt>
      <trkpt lat="43.52036" lon="1.52008">
        <ele>154</ele>
        <time>2019-05-13T21:30:31.557Z</time>
      </trkpt>
      <trkpt lat="43.5199" lon="1.52022">
        <ele>155</ele>
        <time>2019-05-13T21:30:41.975Z</time>
      </trkpt>
      <trkpt lat="43.51929" lon="1.52016">
        <ele>156</ele>
        <time>2019-05-13T21:30:55.891Z</time>
      </trkpt>
      <trkpt lat="43.51833" lon="1.51977">
        <ele>158</ele>
        <time>2019-05-13T21:31:18.024Z</time>
      </trkpt>
      <trkpt lat="43.51803" lon="1.51977">
        <ele>158</ele>
        <time>2019-05-13T21:31:24.351Z</time>
      </trkpt>
      <trkpt lat="43.51684" lon="1.5205">
        <ele>155</ele>
        <time>2019-05-13T21:31:51.073Z</time>
      </trkpt>
      <trkpt lat="43.51642" lon="1.52064">
        <ele>154</ele>
        <time>2019-05-13T21:31:59.799Z</time>
      </trkpt>
      <trkpt lat="43.516" lon="1.52059">
        <ele>154</ele>
        <time>2019-05-13T21:32:08.552Z</time>
      </trkpt>
      <trkpt lat="43.51523" lon="1.51976">
        <ele>153</ele>
        <time>2019-05-13T21:32:29.952Z</time>
      </trkpt>
      <trkpt lat="43.51514" lon="1.51964">
        <ele>153</ele>
        <time>2019-05-13T21:32:32.887Z</time>
      </trkpt>
      <trkpt lat="43.51502" lon="1.51949">
        <ele>154</ele>
        <time>2019-05-13T21:32:36.781Z</time>
      </trkpt>
      <trkpt lat="43.51482" lon="1.51916">
        <ele>154</ele>
        <time>2019-05-13T21:32:44.269Z</time>
      </trkpt>
      <trkpt lat="43.51475" lon="1.51868">
        <ele>154</ele>
        <time>2019-05-13T21:32:53.029Z</time>
      </trkpt>
      <trkpt lat="43.51484" lon="1.51726">
        <ele>156</ele>
        <time>2019-05-13T21:33:19.398Z</time>
      </trkpt>
      <trkpt lat="43.51447" lon="1.51657">
        <ele>156</ele>
        <time>2019-05-13T21:33:34.981Z</time>
      </trkpt>
      <trkpt lat="43.51408" lon="1.51656">
        <ele>154</ele>
        <time>2019-05-13T21:33:45.050Z</time>
      </trkpt>
      <trkpt lat="43.5113" lon="1.51736">
        <ele>155</ele>
        <time>2019-05-13T21:35:00.523Z</time>
      </trkpt>
      <trkpt lat="43.51122" lon="1.51739">
        <ele>155</ele>
        <time>2019-05-13T21:35:02.551Z</time>
      </trkpt>
      <trkpt lat="43.51112" lon="1.51742">
        <ele>155</ele>
        <time>2019-05-13T21:35:05.623Z</time>
      </trkpt>
      <trkpt lat="43.51092" lon="1.51739">
        <ele>156</ele>
        <time>2019-05-13T21:35:10.909Z</time>
      </trkpt>
      <trkpt lat="43.50953" lon="1.51806">
        <ele>158</ele>
        <time>2019-05-13T21:35:47.984Z</time>
      </trkpt>
      <trkpt lat="43.50712" lon="1.52051">
        <ele>155</ele>
        <time>2019-05-13T21:36:50.975Z</time>
      </trkpt>
      <trkpt lat="43.50539" lon="1.52088">
        <ele>154</ele>
        <time>2019-05-13T21:37:29.943Z</time>
      </trkpt>
      <trkpt lat="43.50496" lon="1.52112">
        <ele>154</ele>
        <time>2019-05-13T21:37:40.919Z</time>
      </trkpt>
      <trkpt lat="43.50455" lon="1.5216">
        <ele>154</ele>
        <time>2019-05-13T21:37:54.055Z</time>
      </trkpt>
      <trkpt lat="43.50434" lon="1.52203">
        <ele>154</ele>
        <time>2019-05-13T21:38:03.888Z</time>
      </trkpt>
      <trkpt lat="43.50422" lon="1.52342">
        <ele>155</ele>
        <time>2019-05-13T21:38:31.002Z</time>
      </trkpt>
      <trkpt lat="43.50422" lon="1.52345">
        <ele>155</ele>
        <time>2019-05-13T21:38:31.777Z</time>
      </trkpt>
      <trkpt lat="43.50423" lon="1.52365">
        <ele>155</ele>
        <time>2019-05-13T21:38:35.597Z</time>
      </trkpt>
      <trkpt lat="43.50424" lon="1.52391">
        <ele>155</ele>
        <time>2019-05-13T21:38:40.537Z</time>
      </trkpt>
      <trkpt lat="43.50385" lon="1.52599">
        <ele>158</ele>
        <time>2019-05-13T21:39:22.442Z</time>
      </trkpt>
      <trkpt lat="43.50346" lon="1.52713">
        <ele>157</ele>
        <time>2019-05-13T21:39:44.911Z</time>
      </trkpt>
      <trkpt lat="43.50272" lon="1.52802">
        <ele>158</ele>
        <time>2019-05-13T21:40:08.643Z</time>
      </trkpt>
      <trkpt lat="43.50097" lon="1.5296">
        <ele>158</ele>
        <time>2019-05-13T21:40:58.219Z</time>
      </trkpt>
      <trkpt lat="43.50067" lon="1.52998">
        <ele>158</ele>
        <time>2019-05-13T21:41:08.224Z</time>
      </trkpt>
      <trkpt lat="43.50041" lon="1.5303">
        <ele>158</ele>
        <time>2019-05-13T21:41:16.543Z</time>
      </trkpt>
      <trkpt lat="43.49802" lon="1.53276">
        <ele>159</ele>
        <time>2019-05-13T21:42:26.853Z</time>
      </trkpt>
      <trkpt lat="43.49679" lon="1.53486">
        <ele>157</ele>
        <time>2019-05-13T21:43:05.944Z</time>
      </trkpt>
      <trkpt lat="43.49627" lon="1.53548">
        <ele>156</ele>
        <time>2019-05-13T21:43:19.051Z</time>
      </trkpt>
      <trkpt lat="43.49603" lon="1.53572">
        <ele>156</ele>
        <time>2019-05-13T21:43:25.047Z</time>
      </trkpt>
      <trkpt lat="43.49599" lon="1.53576">
        <ele>156</ele>
        <time>2019-05-13T21:43:25.966Z</time>
      </trkpt>
      <trkpt lat="43.49471" lon="1.53628">
        <ele>155</ele>
        <time>2019-05-13T21:43:52.942Z</time>
      </trkpt>
      <trkpt lat="43.49304" lon="1.53662">
        <ele>155</ele>
        <time>2019-05-13T21:44:31.142Z</time>
      </trkpt>
      <trkpt lat="43.4917" lon="1.53658">
        <ele>155</ele>
        <time>2019-05-13T21:45:04.362Z</time>
      </trkpt>
      <trkpt lat="43.49037" lon="1.53623">
        <ele>156</ele>
        <time>2019-05-13T21:45:39.792Z</time>
      </trkpt>
      <trkpt lat="43.48998" lon="1.53639">
        <ele>156</ele>
        <time>2019-05-13T21:45:50.971Z</time>
      </trkpt>
      <trkpt lat="43.48969" lon="1.53685">
        <ele>155</ele>
        <time>2019-05-13T21:46:03.073Z</time>
      </trkpt>
      <trkpt lat="43.48961" lon="1.53717">
        <ele>155</ele>
        <time>2019-05-13T21:46:10.068Z</time>
      </trkpt>
      <trkpt lat="43.48962" lon="1.53772">
        <ele>155</ele>
        <time>2019-05-13T21:46:21.091Z</time>
      </trkpt>
      <trkpt lat="43.48979" lon="1.54003">
        <ele>157</ele>
        <time>2019-05-13T21:47:06.803Z</time>
      </trkpt>
      <trkpt lat="43.48973" lon="1.54107">
        <ele>157</ele>
        <time>2019-05-13T21:47:25.548Z</time>
      </trkpt>
      <trkpt lat="43.48958" lon="1.54197">
        <ele>158</ele>
        <time>2019-05-13T21:47:40.972Z</time>
      </trkpt>
      <trkpt lat="43.48918" lon="1.54293">
        <ele>157</ele>
        <time>2019-05-13T21:47:58.452Z</time>
      </trkpt>
      <trkpt lat="43.48747" lon="1.54539">
        <ele>157</ele>
        <time>2019-05-13T21:48:50.971Z</time>
      </trkpt>
      <trkpt lat="43.48693" lon="1.5459">
        <ele>156</ele>
        <time>2019-05-13T21:49:05.292Z</time>
      </trkpt>
      <trkpt lat="43.48618" lon="1.54627">
        <ele>156</ele>
        <time>2019-05-13T21:49:22.945Z</time>
      </trkpt>
      <trkpt lat="43.48502" lon="1.54651">
        <ele>159</ele>
        <time>2019-05-13T21:49:48.955Z</time>
      </trkpt>
      <trkpt lat="43.48413" lon="1.54684">
        <ele>156</ele>
        <time>2019-05-13T21:50:09.188Z</time>
      </trkpt>
      <trkpt lat="43.48318" lon="1.54671">
        <ele>157</ele>
        <time>2019-05-13T21:50:31.274Z</time>
      </trkpt>
      <trkpt lat="43.48289" lon="1.54679">
        <ele>156</ele>
        <time>2019-05-13T21:50:38.224Z</time>
      </trkpt>
      <trkpt lat="43.48197" lon="1.54763">
        <ele>156</ele>
        <time>2019-05-13T21:51:04.887Z</time>
      </trkpt>
      <trkpt lat="43.48094" lon="1.54827">
        <ele>158</ele>
        <time>2019-05-13T21:51:32.022Z</time>
      </trkpt>
      <trkpt lat="43.4808" lon="1.54852">
        <ele>157</ele>
        <time>2019-05-13T21:51:37.442Z</time>
      </trkpt>
      <trkpt lat="43.48057" lon="1.5498">
        <ele>156</ele>
        <time>2019-05-13T21:51:59.528Z</time>
      </trkpt>
      <trkpt lat="43.48041" lon="1.55015">
        <ele>156</ele>
        <time>2019-05-13T21:52:06.457Z</time>
      </trkpt>
      <trkpt lat="43.47998" lon="1.55059">
        <ele>156</ele>
        <time>2019-05-13T21:52:18.632Z</time>
      </trkpt>
      <trkpt lat="43.47869" lon="1.5515">
        <ele>157</ele>
        <time>2019-05-13T21:52:51.765Z</time>
      </trkpt>
      <trkpt lat="43.47801" lon="1.55237">
        <ele>156</ele>
        <time>2019-05-13T21:53:13.248Z</time>
      </trkpt>
      <trkpt lat="43.47762" lon="1.5528">
        <ele>155</ele>
        <time>2019-05-13T21:53:24.891Z</time>
      </trkpt>
      <trkpt lat="43.4772" lon="1.55327">
        <ele>156</ele>
        <time>2019-05-13T21:53:37.766Z</time>
      </trkpt>
      <trkpt lat="43.4767" lon="1.55375">
        <ele>155</ele>
        <time>2019-05-13T21:53:51.750Z</time>
      </trkpt>
      <trkpt lat="43.47599" lon="1.55437">
        <ele>157</ele>
        <time>2019-05-13T21:54:11.816Z</time>
      </trkpt>
      <trkpt lat="43.47584" lon="1.55453">
        <ele>157</ele>
        <time>2019-05-13T21:54:16.170Z</time>
      </trkpt>
      <trkpt lat="43.47533" lon="1.55503">
        <ele>156</ele>
        <time>2019-05-13T21:54:30.942Z</time>
      </trkpt>
      <trkpt lat="43.4752" lon="1.55516">
        <ele>156</ele>
        <time>2019-05-13T21:54:34.727Z</time>
      </trkpt>
      <trkpt lat="43.4744" lon="1.55599">
        <ele>156</ele>
        <time>2019-05-13T21:54:58.370Z</time>
      </trkpt>
      <trkpt lat="43.47401" lon="1.55625">
        <ele>158</ele>
        <time>2019-05-13T21:55:09.022Z</time>
      </trkpt>
      <trkpt lat="43.47211" lon="1.55713">
        <ele>157</ele>
        <time>2019-05-13T21:55:57.914Z</time>
      </trkpt>
      <trkpt lat="43.4704" lon="1.55759">
        <ele>158</ele>
        <time>2019-05-13T21:56:43.188Z</time>
      </trkpt>
      <trkpt lat="43.46979" lon="1.55813">
        <ele>160</ele>
        <time>2019-05-13T21:57:01.724Z</time>
      </trkpt>
      <trkpt lat="43.46888" lon="1.55984">
        <ele>160</ele>
        <time>2019-05-13T21:57:39.730Z</time>
      </trkpt>
      <trkpt lat="43.46691" lon="1.56406">
        <ele>159</ele>
        <time>2019-05-13T21:59:05.475Z</time>
      </trkpt>
      <trkpt lat="43.46658" lon="1.56519">
        <ele>160</ele>
        <time>2019-05-13T21:59:24.385Z</time>
      </trkpt>
      <trkpt lat="43.4655" lon="1.56779">
        <ele>156</ele>
        <time>2019-05-13T22:00:08.346Z</time>
      </trkpt>
      <trkpt lat="43.4646" lon="1.56939">
        <ele>155</ele>
        <time>2019-05-13T22:00:39.635Z</time>
      </trkpt>
      <trkpt lat="43.46445" lon="1.56957">
        <ele>155</ele>
        <time>2019-05-13T22:00:44.222Z</time>
      </trkpt>
      <trkpt lat="43.46438" lon="1.56967">
        <ele>155</ele>
        <time>2019-05-13T22:00:46.756Z</time>
      </trkpt>
      <trkpt lat="43.46422" lon="1.56985">
        <ele>155</ele>
        <time>2019-05-13T22:00:52.253Z</time>
      </trkpt>
      <trkpt lat="43.46398" lon="1.5701">
        <ele>155</ele>
        <time>2019-05-13T22:01:01.065Z</time>
      </trkpt>
      <trkpt lat="43.46374" lon="1.57035">
        <ele>156</ele>
        <time>2019-05-13T22:01:10.498Z</time>
      </trkpt>
      <trkpt lat="43.46313" lon="1.57079">
        <ele>158</ele>
        <time>2019-05-13T22:01:32.589Z</time>
      </trkpt>
      <trkpt lat="43.46301" lon="1.57085">
        <ele>158</ele>
        <time>2019-05-13T22:01:36.846Z</time>
      </trkpt>
      <trkpt lat="43.46294" lon="1.57085">
        <ele>158</ele>
        <time>2019-05-13T22:01:39.770Z</time>
      </trkpt>
      <trkpt lat="43.46228" lon="1.57142">
        <ele>161</ele>
        <time>2019-05-13T22:02:06.621Z</time>
      </trkpt>
      <trkpt lat="43.46192" lon="1.57189">
        <ele>162</ele>
        <time>2019-05-13T22:02:23.351Z</time>
      </trkpt>
      <trkpt lat="43.46045" lon="1.57422">
        <ele>164</ele>
        <time>2019-05-13T22:03:29.822Z</time>
      </trkpt>
      <trkpt lat="43.45893" lon="1.57726">
        <ele>165</ele>
        <time>2019-05-13T22:04:25.480Z</time>
      </trkpt>
      <trkpt lat="43.45822" lon="1.57934">
        <ele>160</ele>
        <time>2019-05-13T22:04:59.587Z</time>
      </trkpt>
      <trkpt lat="43.4579" lon="1.58001">
        <ele>160</ele>
        <time>2019-05-13T22:05:12.182Z</time>
      </trkpt>
      <trkpt lat="43.45614" lon="1.58267">
        <ele>162</ele>
        <time>2019-05-13T22:06:11.874Z</time>
      </trkpt>
      <trkpt lat="43.45582" lon="1.58332">
        <ele>163</ele>
        <time>2019-05-13T22:06:24.223Z</time>
      </trkpt>
      <trkpt lat="43.4557" lon="1.58388">
        <ele>163</ele>
        <time>2019-05-13T22:06:33.278Z</time>
      </trkpt>
      <trkpt lat="43.45564" lon="1.58532">
        <ele>161</ele>
        <time>2019-05-13T22:06:54.971Z</time>
      </trkpt>
      <trkpt lat="43.45585" lon="1.58801">
        <ele>159</ele>
        <time>2019-05-13T22:07:35.609Z</time>
      </trkpt>
      <trkpt lat="43.45571" lon="1.59106">
        <ele>158</ele>
        <time>2019-05-13T22:08:25.900Z</time>
      </trkpt>
      <trkpt lat="43.45569" lon="1.59113">
        <ele>158</ele>
        <time>2019-05-13T22:08:27.278Z</time>
      </trkpt>
      <trkpt lat="43.45567" lon="1.59118">
        <ele>158</ele>
        <time>2019-05-13T22:08:28.816Z</time>
      </trkpt>
      <trkpt lat="43.45535" lon="1.5922">
        <ele>160</ele>
        <time>2019-05-13T22:08:48.597Z</time>
      </trkpt>
      <trkpt lat="43.45487" lon="1.59285">
        <ele>162</ele>
        <time>2019-05-13T22:09:05.759Z</time>
      </trkpt>
      <trkpt lat="43.45256" lon="1.59376">
        <ele>158</ele>
        <time>2019-05-13T22:10:03.237Z</time>
      </trkpt>
      <trkpt lat="43.45164" lon="1.59468">
        <ele>163</ele>
        <time>2019-05-13T22:10:32.856Z</time>
      </trkpt>
      <trkpt lat="43.45117" lon="1.59537">
        <ele>162</ele>
        <time>2019-05-13T22:10:50.364Z</time>
      </trkpt>
      <trkpt lat="43.45055" lon="1.59712">
        <ele>163</ele>
        <time>2019-05-13T22:11:25.509Z</time>
      </trkpt>
      <trkpt lat="43.44977" lon="1.5984">
        <ele>162</ele>
        <time>2019-05-13T22:11:54.697Z</time>
      </trkpt>
      <trkpt lat="43.44931" lon="1.59874">
        <ele>161</ele>
        <time>2019-05-13T22:12:07.766Z</time>
      </trkpt>
      <trkpt lat="43.44792" lon="1.59919">
        <ele>165</ele>
        <time>2019-05-13T22:12:46.879Z</time>
      </trkpt>
      <trkpt lat="43.44765" lon="1.59928">
        <ele>164</ele>
        <time>2019-05-13T22:12:55.183Z</time>
      </trkpt>
      <trkpt lat="43.44741" lon="1.59935">
        <ele>164</ele>
        <time>2019-05-13T22:13:01.953Z</time>
      </trkpt>
      <trkpt lat="43.44726" lon="1.59934">
        <ele>164</ele>
        <time>2019-05-13T22:13:06.751Z</time>
      </trkpt>
      <trkpt lat="43.44717" lon="1.59934">
        <ele>164</ele>
        <time>2019-05-13T22:13:09.178Z</time>
      </trkpt>
      <trkpt lat="43.44701" lon="1.59934">
        <ele>165</ele>
        <time>2019-05-13T22:13:13.476Z</time>
      </trkpt>
      <trkpt lat="43.44699" lon="1.59934">
        <ele>165</ele>
        <time>2019-05-13T22:13:14.348Z</time>
      </trkpt>
      <trkpt lat="43.44696" lon="1.59935">
        <ele>165</ele>
        <time>2019-05-13T22:13:15.913Z</time>
      </trkpt>
      <trkpt lat="43.44655" lon="1.59946">
        <ele>167</ele>
        <time>2019-05-13T22:13:27.920Z</time>
      </trkpt>
      <trkpt lat="43.44615" lon="1.59975">
        <ele>169</ele>
        <time>2019-05-13T22:13:39.149Z</time>
      </trkpt>
      <trkpt lat="43.44544" lon="1.60065">
        <ele>170</ele>
        <time>2019-05-13T22:14:00.834Z</time>
      </trkpt>
      <trkpt lat="43.4453" lon="1.60091">
        <ele>167</ele>
        <time>2019-05-13T22:14:05.256Z</time>
      </trkpt>
      <trkpt lat="43.44521" lon="1.6011">
        <ele>167</ele>
        <time>2019-05-13T22:14:08.664Z</time>
      </trkpt>
      <trkpt lat="43.44519" lon="1.60114">
        <ele>167</ele>
        <time>2019-05-13T22:14:09.203Z</time>
      </trkpt>
      <trkpt lat="43.44525" lon="1.60193">
        <ele>164</ele>
        <time>2019-05-13T22:14:20.217Z</time>
      </trkpt>
      <trkpt lat="43.44565" lon="1.6038">
        <ele>161</ele>
        <time>2019-05-13T22:14:47.526Z</time>
      </trkpt>
      <trkpt lat="43.44569" lon="1.60445">
        <ele>162</ele>
        <time>2019-05-13T22:14:57.776Z</time>
      </trkpt>
      <trkpt lat="43.44557" lon="1.60499">
        <ele>163</ele>
        <time>2019-05-13T22:15:07.330Z</time>
      </trkpt>
      <trkpt lat="43.44406" lon="1.60704">
        <ele>164</ele>
        <time>2019-05-13T22:16:01.819Z</time>
      </trkpt>
      <trkpt lat="43.44295" lon="1.60791">
        <ele>166</ele>
        <time>2019-05-13T22:16:32.872Z</time>
      </trkpt>
      <trkpt lat="43.44218" lon="1.60874">
        <ele>166</ele>
        <time>2019-05-13T22:16:54.010Z</time>
      </trkpt>
      <trkpt lat="43.44168" lon="1.60975">
        <ele>162</ele>
        <time>2019-05-13T22:17:12.340Z</time>
      </trkpt>
      <trkpt lat="43.44097" lon="1.61165">
        <ele>162</ele>
        <time>2019-05-13T22:17:46.495Z</time>
      </trkpt>
      <trkpt lat="43.44022" lon="1.61239">
        <ele>162</ele>
        <time>2019-05-13T22:18:14.347Z</time>
      </trkpt>
      <trkpt lat="43.44005" lon="1.61249">
        <ele>162</ele>
        <time>2019-05-13T22:18:19.304Z</time>
      </trkpt>
      <trkpt lat="43.44001" lon="1.6125">
        <ele>162</ele>
        <time>2019-05-13T22:18:20.873Z</time>
      </trkpt>
      <trkpt lat="43.43966" lon="1.61257">
        <ele>164</ele>
        <time>2019-05-13T22:18:31.531Z</time>
      </trkpt>
      <trkpt lat="43.43964" lon="1.61256">
        <ele>164</ele>
        <time>2019-05-13T22:18:32.743Z</time>
      </trkpt>
      <trkpt lat="43.43957" lon="1.61259">
        <ele>164</ele>
        <time>2019-05-13T22:18:35.003Z</time>
      </trkpt>
      <trkpt lat="43.43942" lon="1.61266">
        <ele>165</ele>
        <time>2019-05-13T22:18:39.234Z</time>
      </trkpt>
      <trkpt lat="43.43926" lon="1.61277">
        <ele>165</ele>
        <time>2019-05-13T22:18:45.413Z</time>
      </trkpt>
      <trkpt lat="43.43912" lon="1.61288">
        <ele>168</ele>
        <time>2019-05-13T22:18:49.575Z</time>
      </trkpt>
      <trkpt lat="43.43908" lon="1.61302">
        <ele>168</ele>
        <time>2019-05-13T22:18:52.875Z</time>
      </trkpt>
      <trkpt lat="43.43851" lon="1.61348">
        <ele>169</ele>
        <time>2019-05-13T22:19:12.661Z</time>
      </trkpt>
      <trkpt lat="43.4369" lon="1.61548">
        <ele>168</ele>
        <time>2019-05-13T22:20:05.053Z</time>
      </trkpt>
      <trkpt lat="43.43566" lon="1.61684">
        <ele>169</ele>
        <time>2019-05-13T22:20:41.179Z</time>
      </trkpt>
      <trkpt lat="43.43432" lon="1.61883">
        <ele>167</ele>
        <time>2019-05-13T22:21:23.267Z</time>
      </trkpt>
      <trkpt lat="43.43252" lon="1.62073">
        <ele>166</ele>
        <time>2019-05-13T22:22:11.962Z</time>
      </trkpt>
      <trkpt lat="43.43199" lon="1.62094">
        <ele>166</ele>
        <time>2019-05-13T22:22:24.771Z</time>
      </trkpt>
      <trkpt lat="43.4305" lon="1.62083">
        <ele>166</ele>
        <time>2019-05-13T22:23:02.491Z</time>
      </trkpt>
      <trkpt lat="43.43001" lon="1.62099">
        <ele>167</ele>
        <time>2019-05-13T22:23:15.365Z</time>
      </trkpt>
      <trkpt lat="43.42976" lon="1.62124">
        <ele>168</ele>
        <time>2019-05-13T22:23:23.143Z</time>
      </trkpt>
      <trkpt lat="43.42786" lon="1.62407">
        <ele>167</ele>
        <time>2019-05-13T22:24:29.134Z</time>
      </trkpt>
      <trkpt lat="43.42736" lon="1.62493">
        <ele>167</ele>
        <time>2019-05-13T22:24:47.125Z</time>
      </trkpt>
      <trkpt lat="43.42706" lon="1.62565">
        <ele>167</ele>
        <time>2019-05-13T22:25:00.654Z</time>
      </trkpt>
      <trkpt lat="43.42698" lon="1.62593">
        <ele>166</ele>
        <time>2019-05-13T22:25:05.724Z</time>
      </trkpt>
      <trkpt lat="43.42695" lon="1.62603">
        <ele>166</ele>
        <time>2019-05-13T22:25:07.555Z</time>
      </trkpt>
      <trkpt lat="43.4267" lon="1.62693">
        <ele>165</ele>
        <time>2019-05-13T22:25:24.247Z</time>
      </trkpt>
      <trkpt lat="43.42639" lon="1.62786">
        <ele>166</ele>
        <time>2019-05-13T22:25:42.774Z</time>
      </trkpt>
      <trkpt lat="43.42607" lon="1.62883">
        <ele>167</ele>
        <time>2019-05-13T22:26:02.394Z</time>
      </trkpt>
      <trkpt lat="43.42604" lon="1.6294">
        <ele>167</ele>
        <time>2019-05-13T22:26:13.051Z</time>
      </trkpt>
      <trkpt lat="43.42619" lon="1.63019">
        <ele>168</ele>
        <time>2019-05-13T22:26:27.687Z</time>
      </trkpt>
      <trkpt lat="43.427" lon="1.63177">
        <ele>167</ele>
        <time>2019-05-13T22:26:57.888Z</time>
      </trkpt>
      <trkpt lat="43.42721" lon="1.63247">
        <ele>166</ele>
        <time>2019-05-13T22:27:09.060Z</time>
      </trkpt>
      <trkpt lat="43.42719" lon="1.633">
        <ele>166</ele>
        <time>2019-05-13T22:27:16.772Z</time>
      </trkpt>
      <trkpt lat="43.42689" lon="1.63371">
        <ele>165</ele>
        <time>2019-05-13T22:27:29.087Z</time>
      </trkpt>
      <trkpt lat="43.42665" lon="1.63404">
        <ele>166</ele>
        <time>2019-05-13T22:27:36.204Z</time>
      </trkpt>
      <trkpt lat="43.42643" lon="1.63416">
        <ele>166</ele>
        <time>2019-05-13T22:27:41.248Z</time>
      </trkpt>
      <trkpt lat="43.42562" lon="1.63407">
        <ele>166</ele>
        <time>2019-05-13T22:28:00.236Z</time>
      </trkpt>
      <trkpt lat="43.42536" lon="1.63418">
        <ele>166</ele>
        <time>2019-05-13T22:28:06.886Z</time>
      </trkpt>
      <trkpt lat="43.42368" lon="1.63668">
        <ele>167</ele>
        <time>2019-05-13T22:29:11.777Z</time>
      </trkpt>
      <trkpt lat="43.42069" lon="1.63973">
        <ele>168</ele>
        <time>2019-05-13T22:30:38.184Z</time>
      </trkpt>
      <trkpt lat="43.41876" lon="1.641">
        <ele>170</ele>
        <time>2019-05-13T22:31:33.945Z</time>
      </trkpt>
      <trkpt lat="43.41871" lon="1.641">
        <ele>170</ele>
        <time>2019-05-13T22:31:35.707Z</time>
      </trkpt>
      <trkpt lat="43.4187" lon="1.64103">
        <ele>170</ele>
        <time>2019-05-13T22:31:36.230Z</time>
      </trkpt>
      <trkpt lat="43.41867" lon="1.64125">
        <ele>170</ele>
        <time>2019-05-13T22:31:40.192Z</time>
      </trkpt>
      <trkpt lat="43.41868" lon="1.64133">
        <ele>170</ele>
        <time>2019-05-13T22:31:41.548Z</time>
      </trkpt>
      <trkpt lat="43.41862" lon="1.64137">
        <ele>170</ele>
        <time>2019-05-13T22:31:43.263Z</time>
      </trkpt>
      <trkpt lat="43.41827" lon="1.64141">
        <ele>171</ele>
        <time>2019-05-13T22:31:52.479Z</time>
      </trkpt>
      <trkpt lat="43.41824" lon="1.64142">
        <ele>171</ele>
        <time>2019-05-13T22:31:53.592Z</time>
      </trkpt>
      <trkpt lat="43.41814" lon="1.64147">
        <ele>171</ele>
        <time>2019-05-13T22:31:56.227Z</time>
      </trkpt>
      <trkpt lat="43.41783" lon="1.64162">
        <ele>172</ele>
        <time>2019-05-13T22:32:04.469Z</time>
      </trkpt>
      <trkpt lat="43.4178" lon="1.64169">
        <ele>171</ele>
        <time>2019-05-13T22:32:05.824Z</time>
      </trkpt>
      <trkpt lat="43.41779" lon="1.64174">
        <ele>171</ele>
        <time>2019-05-13T22:32:06.612Z</time>
      </trkpt>
      <trkpt lat="43.41764" lon="1.64183">
        <ele>171</ele>
        <time>2019-05-13T22:32:10.764Z</time>
      </trkpt>
      <trkpt lat="43.41696" lon="1.64236">
        <ele>172</ele>
        <time>2019-05-13T22:32:29.729Z</time>
      </trkpt>
      <trkpt lat="43.41633" lon="1.64306">
        <ele>172</ele>
        <time>2019-05-13T22:32:49.167Z</time>
      </trkpt>
      <trkpt lat="43.41614" lon="1.64336">
        <ele>170</ele>
        <time>2019-05-13T22:32:55.653Z</time>
      </trkpt>
      <trkpt lat="43.41607" lon="1.64345">
        <ele>170</ele>
        <time>2019-05-13T22:32:58.343Z</time>
      </trkpt>
      <trkpt lat="43.41425" lon="1.64667">
        <ele>172</ele>
        <time>2019-05-13T22:34:10.507Z</time>
      </trkpt>
      <trkpt lat="43.41381" lon="1.64704">
        <ele>172</ele>
        <time>2019-05-13T22:34:23.139Z</time>
      </trkpt>
      <trkpt lat="43.41236" lon="1.64763">
        <ele>175</ele>
        <time>2019-05-13T22:34:59.703Z</time>
      </trkpt>
      <trkpt lat="43.412" lon="1.64806">
        <ele>175</ele>
        <time>2019-05-13T22:35:10.690Z</time>
      </trkpt>
      <trkpt lat="43.4116" lon="1.64897">
        <ele>174</ele>
        <time>2019-05-13T22:35:27.720Z</time>
      </trkpt>
      <trkpt lat="43.41129" lon="1.65026">
        <ele>171</ele>
        <time>2019-05-13T22:35:49.115Z</time>
      </trkpt>
      <trkpt lat="43.41127" lon="1.65232">
        <ele>171</ele>
        <time>2019-05-13T22:36:21.951Z</time>
      </trkpt>
      <trkpt lat="43.41141" lon="1.65333">
        <ele>171</ele>
        <time>2019-05-13T22:36:38.603Z</time>
      </trkpt>
      <trkpt lat="43.4121" lon="1.65631">
        <ele>171</ele>
        <time>2019-05-13T22:37:27.686Z</time>
      </trkpt>
      <trkpt lat="43.41223" lon="1.6569">
        <ele>169</ele>
        <time>2019-05-13T22:37:37.579Z</time>
      </trkpt>
      <trkpt lat="43.41226" lon="1.6571">
        <ele>169</ele>
        <time>2019-05-13T22:37:40.864Z</time>
      </trkpt>
      <trkpt lat="43.41229" lon="1.65852">
        <ele>169</ele>
        <time>2019-05-13T22:38:04.639Z</time>
      </trkpt>
      <trkpt lat="43.4121" lon="1.65971">
        <ele>172</ele>
        <time>2019-05-13T22:38:26.784Z</time>
      </trkpt>
      <trkpt lat="43.41169" lon="1.66071">
        <ele>172</ele>
        <time>2019-05-13T22:38:46.968Z</time>
      </trkpt>
      <trkpt lat="43.41102" lon="1.66174">
        <ele>171</ele>
        <time>2019-05-13T22:39:10.283Z</time>
      </trkpt>
      <trkpt lat="43.40942" lon="1.66355">
        <ele>171</ele>
        <time>2019-05-13T22:39:57.191Z</time>
      </trkpt>
      <trkpt lat="43.40733" lon="1.6652">
        <ele>170</ele>
        <time>2019-05-13T22:40:52.961Z</time>
      </trkpt>
      <trkpt lat="43.40543" lon="1.66627">
        <ele>171</ele>
        <time>2019-05-13T22:41:47.429Z</time>
      </trkpt>
      <trkpt lat="43.40487" lon="1.66681">
        <ele>173</ele>
        <time>2019-05-13T22:42:06.890Z</time>
      </trkpt>
      <trkpt lat="43.40424" lon="1.66766">
        <ele>172</ele>
        <time>2019-05-13T22:42:30.978Z</time>
      </trkpt>
      <trkpt lat="43.40385" lon="1.66848">
        <ele>174</ele>
        <time>2019-05-13T22:42:49.218Z</time>
      </trkpt>
      <trkpt lat="43.40275" lon="1.67147">
        <ele>174</ele>
        <time>2019-05-13T22:43:42.799Z</time>
      </trkpt>
      <trkpt lat="43.40193" lon="1.67421">
        <ele>171</ele>
        <time>2019-05-13T22:44:29.570Z</time>
      </trkpt>
      <trkpt lat="43.40124" lon="1.67589">
        <ele>172</ele>
        <time>2019-05-13T22:45:02.860Z</time>
      </trkpt>
      <trkpt lat="43.39976" lon="1.67873">
        <ele>173</ele>
        <time>2019-05-13T22:46:05.799Z</time>
      </trkpt>
      <trkpt lat="43.39924" lon="1.67939">
        <ele>172</ele>
        <time>2019-05-13T22:46:24.149Z</time>
      </trkpt>
      <trkpt lat="43.39898" lon="1.67952">
        <ele>174</ele>
        <time>2019-05-13T22:46:31.089Z</time>
      </trkpt>
      <trkpt lat="43.39892" lon="1.67952">
        <ele>174</ele>
        <time>2019-05-13T22:46:32.794Z</time>
      </trkpt>
      <trkpt lat="43.39863" lon="1.67969">
        <ele>175</ele>
        <time>2019-05-13T22:46:41.107Z</time>
      </trkpt>
      <trkpt lat="43.39831" lon="1.67995">
        <ele>177</ele>
        <time>2019-05-13T22:46:50.713Z</time>
      </trkpt>
      <trkpt lat="43.39795" lon="1.68057">
        <ele>176</ele>
        <time>2019-05-13T22:47:05.862Z</time>
      </trkpt>
      <trkpt lat="43.3975" lon="1.68225">
        <ele>176</ele>
        <time>2019-05-13T22:47:38.991Z</time>
      </trkpt>
      <trkpt lat="43.39723" lon="1.68287">
        <ele>175</ele>
        <time>2019-05-13T22:47:51.998Z</time>
      </trkpt>
      <trkpt lat="43.39687" lon="1.68331">
        <ele>177</ele>
        <time>2019-05-13T22:48:03.960Z</time>
      </trkpt>
      <trkpt lat="43.3959" lon="1.68394">
        <ele>178</ele>
        <time>2019-05-13T22:48:30.001Z</time>
      </trkpt>
      <trkpt lat="43.39569" lon="1.68431">
        <ele>179</ele>
        <time>2019-05-13T22:48:37.994Z</time>
      </trkpt>
      <trkpt lat="43.39561" lon="1.68498">
        <ele>177</ele>
        <time>2019-05-13T22:48:49.333Z</time>
      </trkpt>
      <trkpt lat="43.39571" lon="1.68669">
        <ele>176</ele>
        <time>2019-05-13T22:49:18.145Z</time>
      </trkpt>
      <trkpt lat="43.39565" lon="1.68743">
        <ele>176</ele>
        <time>2019-05-13T22:49:31.103Z</time>
      </trkpt>
      <trkpt lat="43.39547" lon="1.68796">
        <ele>176</ele>
        <time>2019-05-13T22:49:41.458Z</time>
      </trkpt>
      <trkpt lat="43.39523" lon="1.68823">
        <ele>176</ele>
        <time>2019-05-13T22:49:49.187Z</time>
      </trkpt>
      <trkpt lat="43.39496" lon="1.6883">
        <ele>177</ele>
        <time>2019-05-13T22:49:56.177Z</time>
      </trkpt>
      <trkpt lat="43.39378" lon="1.68799">
        <ele>179</ele>
        <time>2019-05-13T22:50:26.797Z</time>
      </trkpt>
      <trkpt lat="43.39377" lon="1.68799">
        <ele>179</ele>
        <time>2019-05-13T22:50:27.369Z</time>
      </trkpt>
      <trkpt lat="43.39363" lon="1.68805">
        <ele>179</ele>
        <time>2019-05-13T22:50:30.752Z</time>
      </trkpt>
      <trkpt lat="43.39362" lon="1.68807">
        <ele>179</ele>
        <time>2019-05-13T22:50:31.026Z</time>
      </trkpt>
      <trkpt lat="43.39296" lon="1.68937">
        <ele>178</ele>
        <time>2019-05-13T22:50:59.826Z</time>
      </trkpt>
      <trkpt lat="43.39228" lon="1.69123">
        <ele>179</ele>
        <time>2019-05-13T22:51:36.475Z</time>
      </trkpt>
      <trkpt lat="43.39193" lon="1.69172">
        <ele>180</ele>
        <time>2019-05-13T22:51:48.412Z</time>
      </trkpt>
      <trkpt lat="43.3919" lon="1.69175">
        <ele>180</ele>
        <time>2019-05-13T22:51:49.283Z</time>
      </trkpt>
      <trkpt lat="43.39188" lon="1.69179">
        <ele>180</ele>
        <time>2019-05-13T22:51:50.039Z</time>
      </trkpt>
      <trkpt lat="43.39035" lon="1.69366">
        <ele>180</ele>
        <time>2019-05-13T22:52:37.235Z</time>
      </trkpt>
      <trkpt lat="43.38989" lon="1.69473">
        <ele>180</ele>
        <time>2019-05-13T22:52:57.201Z</time>
      </trkpt>
      <trkpt lat="43.3898" lon="1.69582">
        <ele>178</ele>
        <time>2019-05-13T22:53:14.692Z</time>
      </trkpt>
      <trkpt lat="43.39039" lon="1.69699">
        <ele>177</ele>
        <time>2019-05-13T22:53:37.314Z</time>
      </trkpt>
      <trkpt lat="43.39047" lon="1.69733">
        <ele>177</ele>
        <time>2019-05-13T22:53:43.191Z</time>
      </trkpt>
      <trkpt lat="43.39035" lon="1.69886">
        <ele>178</ele>
        <time>2019-05-13T22:54:08.941Z</time>
      </trkpt>
      <trkpt lat="43.3902" lon="1.69936">
        <ele>178</ele>
        <time>2019-05-13T22:54:18.381Z</time>
      </trkpt>
      <trkpt lat="43.39014" lon="1.69947">
        <ele>178</ele>
        <time>2019-05-13T22:54:20.720Z</time>
      </trkpt>
      <trkpt lat="43.39007" lon="1.69954">
        <ele>178</ele>
        <time>2019-05-13T22:54:22.776Z</time>
      </trkpt>
      <trkpt lat="43.38969" lon="1.69979">
        <ele>179</ele>
        <time>2019-05-13T22:54:32.885Z</time>
      </trkpt>
      <trkpt lat="43.38873" lon="1.69972">
        <ele>179</ele>
        <time>2019-05-13T22:54:56.058Z</time>
      </trkpt>
      <trkpt lat="43.38778" lon="1.70042">
        <ele>179</ele>
        <time>2019-05-13T22:55:21.565Z</time>
      </trkpt>
      <trkpt lat="43.38635" lon="1.70184">
        <ele>178</ele>
        <time>2019-05-13T22:56:02.913Z</time>
      </trkpt>
      <trkpt lat="43.38503" lon="1.70412">
        <ele>180</ele>
        <time>2019-05-13T22:56:55.577Z</time>
      </trkpt>
      <trkpt lat="43.38493" lon="1.70447">
        <ele>181</ele>
        <time>2019-05-13T22:57:02.257Z</time>
      </trkpt>
      <trkpt lat="43.38494" lon="1.70489">
        <ele>181</ele>
        <time>2019-05-13T22:57:09.394Z</time>
      </trkpt>
      <trkpt lat="43.38605" lon="1.70804">
        <ele>179</ele>
        <time>2019-05-13T22:58:04.410Z</time>
      </trkpt>
      <trkpt lat="43.38616" lon="1.70871">
        <ele>179</ele>
        <time>2019-05-13T22:58:15.777Z</time>
      </trkpt>
      <trkpt lat="43.38616" lon="1.70872">
        <ele>179</ele>
        <time>2019-05-13T22:58:15.964Z</time>
      </trkpt>
      <trkpt lat="43.38623" lon="1.70891">
        <ele>179</ele>
        <time>2019-05-13T22:58:19.242Z</time>
      </trkpt>
      <trkpt lat="43.38624" lon="1.70892">
        <ele>179</ele>
        <time>2019-05-13T22:58:19.622Z</time>
      </trkpt>
      <trkpt lat="43.38647" lon="1.70925">
        <ele>179</ele>
        <time>2019-05-13T22:58:27.215Z</time>
      </trkpt>
      <trkpt lat="43.38654" lon="1.70935">
        <ele>179</ele>
        <time>2019-05-13T22:58:29.596Z</time>
      </trkpt>
      <trkpt lat="43.38663" lon="1.70947">
        <ele>179</ele>
        <time>2019-05-13T22:58:32.481Z</time>
      </trkpt>
      <trkpt lat="43.38942" lon="1.71152">
        <ele>178</ele>
        <time>2019-05-13T22:59:49.374Z</time>
      </trkpt>
      <trkpt lat="43.38977" lon="1.71173">
        <ele>179</ele>
        <time>2019-05-13T22:59:58.396Z</time>
      </trkpt>
      <trkpt lat="43.38992" lon="1.71185">
        <ele>178</ele>
        <time>2019-05-13T23:00:02.776Z</time>
      </trkpt>
      <trkpt lat="43.39037" lon="1.71225">
        <ele>178</ele>
        <time>2019-05-13T23:00:15.355Z</time>
      </trkpt>
      <trkpt lat="43.39073" lon="1.71278">
        <ele>179</ele>
        <time>2019-05-13T23:00:27.498Z</time>
      </trkpt>
      <trkpt lat="43.39094" lon="1.71358">
        <ele>179</ele>
        <time>2019-05-13T23:00:41.311Z</time>
      </trkpt>
      <trkpt lat="43.39058" lon="1.71586">
        <ele>178</ele>
        <time>2019-05-13T23:01:18.095Z</time>
      </trkpt>
      <trkpt lat="43.39041" lon="1.71765">
        <ele>178</ele>
        <time>2019-05-13T23:01:45.864Z</time>
      </trkpt>
      <trkpt lat="43.39" lon="1.719">
        <ele>177</ele>
        <time>2019-05-13T23:02:07.994Z</time>
      </trkpt>
      <trkpt lat="43.38969" lon="1.7195">
        <ele>176</ele>
        <time>2019-05-13T23:02:18.517Z</time>
      </trkpt>
      <trkpt lat="43.3891" lon="1.71996">
        <ele>177</ele>
        <time>2019-05-13T23:02:34.057Z</time>
      </trkpt>
      <trkpt lat="43.3875" lon="1.72034">
        <ele>178</ele>
        <time>2019-05-13T23:03:15.756Z</time>
      </trkpt>
      <trkpt lat="43.38682" lon="1.72075">
        <ele>180</ele>
        <time>2019-05-13T23:03:35.723Z</time>
      </trkpt>
      <trkpt lat="43.38485" lon="1.72414">
        <ele>181</ele>
        <time>2019-05-13T23:04:56.972Z</time>
      </trkpt>
      <trkpt lat="43.38381" lon="1.72648">
        <ele>181</ele>
        <time>2019-05-13T23:05:44.230Z</time>
      </trkpt>
      <trkpt lat="43.38371" lon="1.72672">
        <ele>179</ele>
        <time>2019-05-13T23:05:48.560Z</time>
      </trkpt>
      <trkpt lat="43.38369" lon="1.72675">
        <ele>179</ele>
        <time>2019-05-13T23:05:49.960Z</time>
      </trkpt>
      <trkpt lat="43.38332" lon="1.72754">
        <ele>178</ele>
        <time>2019-05-13T23:06:06.461Z</time>
      </trkpt>
      <trkpt lat="43.3833" lon="1.72755">
        <ele>179</ele>
        <time>2019-05-13T23:06:07.286Z</time>
      </trkpt>
      <trkpt lat="43.38327" lon="1.72756">
        <ele>179</ele>
        <time>2019-05-13T23:06:08.699Z</time>
      </trkpt>
      <trkpt lat="43.38287" lon="1.72814">
        <ele>181</ele>
        <time>2019-05-13T23:06:23.515Z</time>
      </trkpt>
      <trkpt lat="43.38169" lon="1.7306">
        <ele>181</ele>
        <time>2019-05-13T23:07:18.102Z</time>
      </trkpt>
      <trkpt lat="43.38124" lon="1.73186">
        <ele>180</ele>
        <time>2019-05-13T23:07:40.529Z</time>
      </trkpt>
      <trkpt lat="43.38076" lon="1.734">
        <ele>181</ele>
        <time>2019-05-13T23:08:15.441Z</time>
      </trkpt>
      <trkpt lat="43.37923" lon="1.73803">
        <ele>180</ele>
        <time>2019-05-13T23:09:28.772Z</time>
      </trkpt>
      <trkpt lat="43.37851" lon="1.73929">
        <ele>181</ele>
        <time>2019-05-13T23:09:55.527Z</time>
      </trkpt>
      <trkpt lat="43.37672" lon="1.74136">
        <ele>180</ele>
        <time>2019-05-13T23:10:51.936Z</time>
      </trkpt>
      <trkpt lat="43.37605" lon="1.74326">
        <ele>181</ele>
        <time>2019-05-13T23:11:28.657Z</time>
      </trkpt>
      <trkpt lat="43.37531" lon="1.74586">
        <ele>180</ele>
        <time>2019-05-13T23:12:15.079Z</time>
      </trkpt>
      <trkpt lat="43.37467" lon="1.74743">
        <ele>182</ele>
        <time>2019-05-13T23:12:44.468Z</time>
      </trkpt>
      <trkpt lat="43.37426" lon="1.74814">
        <ele>181</ele>
        <time>2019-05-13T23:12:59.632Z</time>
      </trkpt>
      <trkpt lat="43.37304" lon="1.7498">
        <ele>182</ele>
        <time>2019-05-13T23:13:38.816Z</time>
      </trkpt>
      <trkpt lat="43.37239" lon="1.75121">
        <ele>182</ele>
        <time>2019-05-13T23:14:05.615Z</time>
      </trkpt>
      <trkpt lat="43.37221" lon="1.75169">
        <ele>181</ele>
        <time>2019-05-13T23:14:14.309Z</time>
      </trkpt>
      <trkpt lat="43.3719" lon="1.75264">
        <ele>180</ele>
        <time>2019-05-13T23:14:30.974Z</time>
      </trkpt>
      <trkpt lat="43.37149" lon="1.75363">
        <ele>181</ele>
        <time>2019-05-13T23:14:50.500Z</time>
      </trkpt>
      <trkpt lat="43.37122" lon="1.75405">
        <ele>181</ele>
        <time>2019-05-13T23:15:00.560Z</time>
      </trkpt>
      <trkpt lat="43.36923" lon="1.75602">
        <ele>182</ele>
        <time>2019-05-13T23:16:12.200Z</time>
      </trkpt>
      <trkpt lat="43.36912" lon="1.7561">
        <ele>185</ele>
        <time>2019-05-13T23:16:16.165Z</time>
      </trkpt>
      <trkpt lat="43.36912" lon="1.7561">
        <ele>185</ele>
        <time>2019-05-13T23:16:16.414Z</time>
      </trkpt>
      <trkpt lat="43.36909" lon="1.75608">
        <ele>185</ele>
        <time>2019-05-13T23:16:17.403Z</time>
      </trkpt>
      <trkpt lat="43.36908" lon="1.75608">
        <ele>185</ele>
        <time>2019-05-13T23:16:17.662Z</time>
      </trkpt>
      <trkpt lat="43.36907" lon="1.75609">
        <ele>185</ele>
        <time>2019-05-13T23:16:18.432Z</time>
      </trkpt>
      <trkpt lat="43.36817" lon="1.7571">
        <ele>188</ele>
        <time>2019-05-13T23:16:56.438Z</time>
      </trkpt>
      <trkpt lat="43.3674" lon="1.75822">
        <ele>191</ele>
        <time>2019-05-13T23:17:28.801Z</time>
      </trkpt>
      <trkpt lat="43.36628" lon="1.76091">
        <ele>186</ele>
        <time>2019-05-13T23:18:22.679Z</time>
      </trkpt>
      <trkpt lat="43.36594" lon="1.76226">
        <ele>184</ele>
        <time>2019-05-13T23:18:47.902Z</time>
      </trkpt>
      <trkpt lat="43.36563" lon="1.76419">
        <ele>187</ele>
        <time>2019-05-13T23:19:24.179Z</time>
      </trkpt>
      <trkpt lat="43.36498" lon="1.7656">
        <ele>192</ele>
        <time>2019-05-13T23:19:53.256Z</time>
      </trkpt>
      <trkpt lat="43.36448" lon="1.76714">
        <ele>187</ele>
        <time>2019-05-13T23:20:19.904Z</time>
      </trkpt>
      <trkpt lat="43.36417" lon="1.76809">
        <ele>186</ele>
        <time>2019-05-13T23:20:35.708Z</time>
      </trkpt>
      <trkpt lat="43.36375" lon="1.77161">
        <ele>184</ele>
        <time>2019-05-13T23:21:35.475Z</time>
      </trkpt>
      <trkpt lat="43.36339" lon="1.773">
        <ele>188</ele>
        <time>2019-05-13T23:22:02.872Z</time>
      </trkpt>
      <trkpt lat="43.36337" lon="1.77304">
        <ele>188</ele>
        <time>2019-05-13T23:22:04.297Z</time>
      </trkpt>
      <trkpt lat="43.36336" lon="1.77307">
        <ele>188</ele>
        <time>2019-05-13T23:22:04.750Z</time>
      </trkpt>
      <trkpt lat="43.3623" lon="1.77638">
        <ele>189</ele>
        <time>2019-05-13T23:23:03.274Z</time>
      </trkpt>
      <trkpt lat="43.36091" lon="1.77858">
        <ele>189</ele>
        <time>2019-05-13T23:23:55.049Z</time>
      </trkpt>
      <trkpt lat="43.36022" lon="1.78074">
        <ele>189</ele>
        <time>2019-05-13T23:24:40.210Z</time>
      </trkpt>
      <trkpt lat="43.35899" lon="1.78303">
        <ele>193</ele>
        <time>2019-05-13T23:25:33.730Z</time>
      </trkpt>
      <trkpt lat="43.35866" lon="1.78387">
        <ele>191</ele>
        <time>2019-05-13T23:25:50.712Z</time>
      </trkpt>
      <trkpt lat="43.35667" lon="1.79128">
        <ele>188</ele>
        <time>2019-05-13T23:27:59.782Z</time>
      </trkpt>
      <trkpt lat="43.35582" lon="1.7955">
        <ele>191</ele>
        <time>2019-05-13T23:29:07.447Z</time>
      </trkpt>
      <trkpt lat="43.3558" lon="1.79557">
        <ele>191</ele>
        <time>2019-05-13T23:29:08.616Z</time>
      </trkpt>
      <trkpt lat="43.35579" lon="1.79561">
        <ele>191</ele>
        <time>2019-05-13T23:29:09.123Z</time>
      </trkpt>
      <trkpt lat="43.35441" lon="1.79845">
        <ele>190</ele>
        <time>2019-05-13T23:30:04.289Z</time>
      </trkpt>
      <trkpt lat="43.35401" lon="1.79955">
        <ele>190</ele>
        <time>2019-05-13T23:30:24.893Z</time>
      </trkpt>
      <trkpt lat="43.35407" lon="1.80064">
        <ele>188</ele>
        <time>2019-05-13T23:30:43.944Z</time>
      </trkpt>
      <trkpt lat="43.35421" lon="1.80129">
        <ele>188</ele>
        <time>2019-05-13T23:30:56.376Z</time>
      </trkpt>
      <trkpt lat="43.35493" lon="1.80275">
        <ele>190</ele>
        <time>2019-05-13T23:31:28.217Z</time>
      </trkpt>
      <trkpt lat="43.35498" lon="1.80281">
        <ele>190</ele>
        <time>2019-05-13T23:31:30.303Z</time>
      </trkpt>
      <trkpt lat="43.35524" lon="1.80318">
        <ele>188</ele>
        <time>2019-05-13T23:31:39.631Z</time>
      </trkpt>
      <trkpt lat="43.35542" lon="1.80335">
        <ele>188</ele>
        <time>2019-05-13T23:31:44.450Z</time>
      </trkpt>
      <trkpt lat="43.35581" lon="1.80365">
        <ele>187</ele>
        <time>2019-05-13T23:31:55.305Z</time>
      </trkpt>
      <trkpt lat="43.35689" lon="1.80547">
        <ele>188</ele>
        <time>2019-05-13T23:32:33.290Z</time>
      </trkpt>
      <trkpt lat="43.35701" lon="1.80575">
        <ele>189</ele>
        <time>2019-05-13T23:32:38.654Z</time>
      </trkpt>
      <trkpt lat="43.35703" lon="1.80614">
        <ele>190</ele>
        <time>2019-05-13T23:32:44.547Z</time>
      </trkpt>
      <trkpt lat="43.35704" lon="1.80617">
        <ele>190</ele>
        <time>2019-05-13T23:32:45.189Z</time>
      </trkpt>
      <trkpt lat="43.35709" lon="1.80628">
        <ele>190</ele>
        <time>2019-05-13T23:32:47.251Z</time>
      </trkpt>
      <trkpt lat="43.3571" lon="1.80629">
        <ele>190</ele>
        <time>2019-05-13T23:32:47.451Z</time>
      </trkpt>
      <trkpt lat="43.35766" lon="1.80822">
        <ele>188</ele>
        <time>2019-05-13T23:33:20.489Z</time>
      </trkpt>
      <trkpt lat="43.35773" lon="1.80875">
        <ele>188</ele>
        <time>2019-05-13T23:33:29.724Z</time>
      </trkpt>
      <trkpt lat="43.35793" lon="1.81126">
        <ele>188</ele>
        <time>2019-05-13T23:34:19.206Z</time>
      </trkpt>
      <trkpt lat="43.35786" lon="1.81246">
        <ele>189</ele>
        <time>2019-05-13T23:34:43.713Z</time>
      </trkpt>
      <trkpt lat="43.35778" lon="1.81291">
        <ele>191</ele>
        <time>2019-05-13T23:34:53.008Z</time>
      </trkpt>
      <trkpt lat="43.35764" lon="1.81355">
        <ele>192</ele>
        <time>2019-05-13T23:35:12.554Z</time>
      </trkpt>
      <trkpt lat="43.35717" lon="1.81528">
        <ele>191</ele>
        <time>2019-05-13T23:36:05.367Z</time>
      </trkpt>
      <trkpt lat="43.3567" lon="1.81639">
        <ele>194</ele>
        <time>2019-05-13T23:36:39.279Z</time>
      </trkpt>
      <trkpt lat="43.35645" lon="1.81687">
        <ele>195</ele>
        <time>2019-05-13T23:36:54.464Z</time>
      </trkpt>
      <trkpt lat="43.35573" lon="1.81812">
        <ele>192</ele>
        <time>2019-05-13T23:37:38.174Z</time>
      </trkpt>
      <trkpt lat="43.35537" lon="1.81834">
        <ele>191</ele>
        <time>2019-05-13T23:37:53.433Z</time>
      </trkpt>
      <trkpt lat="43.35536" lon="1.81834">
        <ele>191</ele>
        <time>2019-05-13T23:37:53.911Z</time>
      </trkpt>
      <trkpt lat="43.35531" lon="1.81823">
        <ele>192</ele>
        <time>2019-05-13T23:37:56.502Z</time>
      </trkpt>
      <trkpt lat="43.35523" lon="1.8181">
        <ele>193</ele>
        <time>2019-05-13T23:37:59.331Z</time>
      </trkpt>
      <trkpt lat="43.35508" lon="1.81826">
        <ele>192</ele>
        <time>2019-05-13T23:38:07.670Z</time>
      </trkpt>
      <trkpt lat="43.35442" lon="1.81891">
        <ele>194</ele>
        <time>2019-05-13T23:38:40.403Z</time>
      </trkpt>
      <trkpt lat="43.35419" lon="1.819">
        <ele>195</ele>
        <time>2019-05-13T23:38:50.356Z</time>
      </trkpt>
      <trkpt lat="43.3499" lon="1.81822">
        <ele>192</ele>
        <time>2019-05-13T23:41:21.405Z</time>
      </trkpt>
      <trkpt lat="43.34979" lon="1.8182">
        <ele>192</ele>
        <time>2019-05-13T23:41:24.612Z</time>
      </trkpt>
      <trkpt lat="43.34893" lon="1.81896">
        <ele>190</ele>
        <time>2019-05-13T23:41:58.985Z</time>
      </trkpt>
      <trkpt lat="43.34866" lon="1.81936">
        <ele>190</ele>
        <time>2019-05-13T23:42:12.396Z</time>
      </trkpt>
      <trkpt lat="43.34825" lon="1.81992">
        <ele>190</ele>
        <time>2019-05-13T23:42:33.727Z</time>
      </trkpt>
      <trkpt lat="43.34575" lon="1.82438">
        <ele>192</ele>
        <time>2019-05-13T23:45:11.720Z</time>
      </trkpt>
      <trkpt lat="43.34409" lon="1.82687">
        <ele>193</ele>
        <time>2019-05-13T23:46:41.680Z</time>
      </trkpt>
      <trkpt lat="43.3424" lon="1.83124">
        <ele>192</ele>
        <time>2019-05-13T23:48:54.751Z</time>
      </trkpt>
      <trkpt lat="43.34239" lon="1.83127">
        <ele>192</ele>
        <time>2019-05-13T23:48:55.745Z</time>
      </trkpt>
      <trkpt lat="43.3414" lon="1.8341">
        <ele>192</ele>
        <time>2019-05-13T23:50:24.279Z</time>
      </trkpt>
      <trkpt lat="43.34136" lon="1.83427">
        <ele>192</ele>
        <time>2019-05-13T23:50:29.661Z</time>
      </trkpt>
      <trkpt lat="43.34125" lon="1.83458">
        <ele>192</ele>
        <time>2019-05-13T23:50:36.243Z</time>
      </trkpt>
      <trkpt lat="43.34111" lon="1.83489">
        <ele>192</ele>
        <time>2019-05-13T23:50:43.235Z</time>
      </trkpt>
      <trkpt lat="43.34099" lon="1.83516">
        <ele>192</ele>
        <time>2019-05-13T23:50:49.177Z</time>
      </trkpt>
      <trkpt lat="43.3409" lon="1.8354">
        <ele>192</ele>
        <time>2019-05-13T23:50:54.470Z</time>
      </trkpt>
      <trkpt lat="43.34072" lon="1.83594">
        <ele>193</ele>
        <time>2019-05-13T23:51:05.502Z</time>
      </trkpt>
      <trkpt lat="43.34064" lon="1.8362">
        <ele>194</ele>
        <time>2019-05-13T23:51:10.673Z</time>
      </trkpt>
      <trkpt lat="43.34061" lon="1.83633">
        <ele>194</ele>
        <time>2019-05-13T23:51:14.721Z</time>
      </trkpt>
      <trkpt lat="43.3404" lon="1.83744">
        <ele>195</ele>
        <time>2019-05-13T23:51:46.248Z</time>
      </trkpt>
      <trkpt lat="43.34025" lon="1.84156">
        <ele>192</ele>
        <time>2019-05-13T23:53:31.616Z</time>
      </trkpt>
      <trkpt lat="43.34006" lon="1.84243">
        <ele>191</ele>
        <time>2019-05-13T23:53:54.106Z</time>
      </trkpt>
      <trkpt lat="43.33972" lon="1.84312">
        <ele>191</ele>
        <time>2019-05-13T23:54:14.924Z</time>
      </trkpt>
      <trkpt lat="43.33909" lon="1.84367">
        <ele>191</ele>
        <time>2019-05-13T23:54:41.370Z</time>
      </trkpt>
      <trkpt lat="43.33884" lon="1.8436">
        <ele>191</ele>
        <time>2019-05-13T23:54:50.459Z</time>
      </trkpt>
      <trkpt lat="43.3381" lon="1.84237">
        <ele>192</ele>
        <time>2019-05-13T23:55:35.434Z</time>
      </trkpt>
      <trkpt lat="43.33756" lon="1.84205">
        <ele>192</ele>
        <time>2019-05-13T23:55:59.246Z</time>
      </trkpt>
      <trkpt lat="43.33719" lon="1.84205">
        <ele>192</ele>
        <time>2019-05-13T23:56:13.938Z</time>
      </trkpt>
      <trkpt lat="43.33682" lon="1.84226">
        <ele>193</ele>
        <time>2019-05-13T23:56:30.011Z</time>
      </trkpt>
      <trkpt lat="43.33629" lon="1.84274">
        <ele>193</ele>
        <time>2019-05-13T23:56:54.717Z</time>
      </trkpt>
      <trkpt lat="43.33601" lon="1.84325">
        <ele>193</ele>
        <time>2019-05-13T23:57:12.337Z</time>
      </trkpt>
      <trkpt lat="43.33467" lon="1.8472">
        <ele>192</ele>
        <time>2019-05-13T23:59:08.398Z</time>
      </trkpt>
      <trkpt lat="43.33413" lon="1.84816">
        <ele>193</ele>
        <time>2019-05-13T23:59:40.596Z</time>
      </trkpt>
      <trkpt lat="43.33325" lon="1.84912">
        <ele>193</ele>
        <time>2019-05-14T00:00:21.645Z</time>
      </trkpt>
      <trkpt lat="43.33312" lon="1.84942">
        <ele>192</ele>
        <time>2019-05-14T00:00:31.182Z</time>
      </trkpt>
      <trkpt lat="43.33312" lon="1.84947">
        <ele>192</ele>
        <time>2019-05-14T00:00:32.419Z</time>
      </trkpt>
      <trkpt lat="43.33297" lon="1.85138">
        <ele>191</ele>
        <time>2019-05-14T00:01:23.370Z</time>
      </trkpt>
      <trkpt lat="43.33195" lon="1.85431">
        <ele>190</ele>
        <time>2019-05-14T00:02:49.450Z</time>
      </trkpt>
      <trkpt lat="43.33189" lon="1.8562">
        <ele>191</ele>
        <time>2019-05-14T00:03:40.411Z</time>
      </trkpt>
      <trkpt lat="43.3318" lon="1.8566">
        <ele>192</ele>
        <time>2019-05-14T00:03:51.811Z</time>
      </trkpt>
      <trkpt lat="43.33096" lon="1.85853">
        <ele>191</ele>
        <time>2019-05-14T00:04:51.923Z</time>
      </trkpt>
      <trkpt lat="43.33029" lon="1.86081">
        <ele>192</ele>
        <time>2019-05-14T00:05:55.094Z</time>
      </trkpt>
      <trkpt lat="43.3301" lon="1.86156">
        <ele>191</ele>
        <time>2019-05-14T00:06:14.873Z</time>
      </trkpt>
      <trkpt lat="43.32961" lon="1.8636">
        <ele>189</ele>
        <time>2019-05-14T00:07:07.600Z</time>
      </trkpt>
      <trkpt lat="43.32913" lon="1.86602">
        <ele>187</ele>
        <time>2019-05-14T00:08:09.109Z</time>
      </trkpt>
      <trkpt lat="43.32903" lon="1.86685">
        <ele>187</ele>
        <time>2019-05-14T00:08:30.046Z</time>
      </trkpt>
      <trkpt lat="43.32905" lon="1.86747">
        <ele>188</ele>
        <time>2019-05-14T00:08:45.748Z</time>
      </trkpt>
      <trkpt lat="43.32906" lon="1.86886">
        <ele>187</ele>
        <time>2019-05-14T00:09:21.313Z</time>
      </trkpt>
      <trkpt lat="43.32845" lon="1.87095">
        <ele>186</ele>
        <time>2019-05-14T00:10:19.618Z</time>
      </trkpt>
      <trkpt lat="43.32737" lon="1.87414">
        <ele>184</ele>
        <time>2019-05-14T00:11:50.517Z</time>
      </trkpt>
      <trkpt lat="43.32713" lon="1.87659">
        <ele>183</ele>
        <time>2019-05-14T00:12:57.550Z</time>
      </trkpt>
      <trkpt lat="43.32695" lon="1.87843">
        <ele>184</ele>
        <time>2019-05-14T00:13:47.223Z</time>
      </trkpt>
      <trkpt lat="43.32526" lon="1.88213">
        <ele>182</ele>
        <time>2019-05-14T00:15:36.498Z</time>
      </trkpt>
      <trkpt lat="43.32516" lon="1.88282">
        <ele>182</ele>
        <time>2019-05-14T00:15:53.722Z</time>
      </trkpt>
      <trkpt lat="43.32518" lon="1.8843">
        <ele>180</ele>
        <time>2019-05-14T00:16:30.620Z</time>
      </trkpt>
      <trkpt lat="43.32517" lon="1.88557">
        <ele>179</ele>
        <time>2019-05-14T00:17:02.469Z</time>
      </trkpt>
      <trkpt lat="43.32516" lon="1.88747">
        <ele>180</ele>
        <time>2019-05-14T00:17:33.675Z</time>
      </trkpt>
      <trkpt lat="43.32512" lon="1.88869">
        <ele>180</ele>
        <time>2019-05-14T00:17:54.012Z</time>
      </trkpt>
      <trkpt lat="43.32469" lon="1.89068">
        <ele>177</ele>
        <time>2019-05-14T00:18:30.050Z</time>
      </trkpt>
      <trkpt lat="43.32467" lon="1.89077">
        <ele>177</ele>
        <time>2019-05-14T00:18:31.848Z</time>
      </trkpt>
      <trkpt lat="43.32455" lon="1.8913">
        <ele>178</ele>
        <time>2019-05-14T00:18:41.796Z</time>
      </trkpt>
      <trkpt lat="43.32441" lon="1.89192">
        <ele>179</ele>
        <time>2019-05-14T00:18:59.412Z</time>
      </trkpt>
      <trkpt lat="43.32399" lon="1.89491">
        <ele>178</ele>
        <time>2019-05-14T00:20:20.690Z</time>
      </trkpt>
      <trkpt lat="43.32232" lon="1.90128">
        <ele>176</ele>
        <time>2019-05-14T00:23:19.131Z</time>
      </trkpt>
      <trkpt lat="43.32217" lon="1.90266">
        <ele>177</ele>
        <time>2019-05-14T00:23:56.486Z</time>
      </trkpt>
      <trkpt lat="43.32209" lon="1.90454">
        <ele>179</ele>
        <time>2019-05-14T00:24:48.101Z</time>
      </trkpt>
      <trkpt lat="43.3213" lon="1.909">
        <ele>173</ele>
        <time>2019-05-14T00:26:59.130Z</time>
      </trkpt>
      <trkpt lat="43.32085" lon="1.91053">
        <ele>178</ele>
        <time>2019-05-14T00:27:48.524Z</time>
      </trkpt>
      <trkpt lat="43.3207" lon="1.91141">
        <ele>183</ele>
        <time>2019-05-14T00:28:13.386Z</time>
      </trkpt>
      <trkpt lat="43.32084" lon="1.91348">
        <ele>176</ele>
        <time>2019-05-14T00:29:00.328Z</time>
      </trkpt>
      <trkpt lat="43.32084" lon="1.91385">
        <ele>174</ele>
        <time>2019-05-14T00:29:08.229Z</time>
      </trkpt>
      <trkpt lat="43.32091" lon="1.91439">
        <ele>173</ele>
        <time>2019-05-14T00:29:15.933Z</time>
      </trkpt>
      <trkpt lat="43.32122" lon="1.91556">
        <ele>173</ele>
        <time>2019-05-14T00:29:33.793Z</time>
      </trkpt>
      <trkpt lat="43.32129" lon="1.91629">
        <ele>172</ele>
        <time>2019-05-14T00:29:45.488Z</time>
      </trkpt>
      <trkpt lat="43.32081" lon="1.9182">
        <ele>170</ele>
        <time>2019-05-14T00:30:20.917Z</time>
      </trkpt>
      <trkpt lat="43.32062" lon="1.91997">
        <ele>173</ele>
        <time>2019-05-14T00:30:54.299Z</time>
      </trkpt>
      <trkpt lat="43.32069" lon="1.9208">
        <ele>173</ele>
        <time>2019-05-14T00:31:10.570Z</time>
      </trkpt>
      <trkpt lat="43.32101" lon="1.92217">
        <ele>172</ele>
        <time>2019-05-14T00:31:39.155Z</time>
      </trkpt>
      <trkpt lat="43.32103" lon="1.92268">
        <ele>172</ele>
        <time>2019-05-14T00:31:49.611Z</time>
      </trkpt>
      <trkpt lat="43.32057" lon="1.92428">
        <ele>174</ele>
        <time>2019-05-14T00:32:23.788Z</time>
      </trkpt>
      <trkpt lat="43.32045" lon="1.92565">
        <ele>174</ele>
        <time>2019-05-14T00:32:49.541Z</time>
      </trkpt>
      <trkpt lat="43.32031" lon="1.92677">
        <ele>174</ele>
        <time>2019-05-14T00:33:09.463Z</time>
      </trkpt>
      <trkpt lat="43.32029" lon="1.92694">
        <ele>174</ele>
        <time>2019-05-14T00:33:12.340Z</time>
      </trkpt>
      <trkpt lat="43.31984" lon="1.93002">
        <ele>172</ele>
        <time>2019-05-14T00:34:07.873Z</time>
      </trkpt>
      <trkpt lat="43.31941" lon="1.93175">
        <ele>173</ele>
        <time>2019-05-14T00:34:43.731Z</time>
      </trkpt>
      <trkpt lat="43.31904" lon="1.93264">
        <ele>173</ele>
        <time>2019-05-14T00:35:03.690Z</time>
      </trkpt>
      <trkpt lat="43.31854" lon="1.93335">
        <ele>175</ele>
        <time>2019-05-14T00:35:21.370Z</time>
      </trkpt>
      <trkpt lat="43.31837" lon="1.93361">
        <ele>175</ele>
        <time>2019-05-14T00:35:27.541Z</time>
      </trkpt>
      <trkpt lat="43.31816" lon="1.93395">
        <ele>174</ele>
        <time>2019-05-14T00:35:34.952Z</time>
      </trkpt>
      <trkpt lat="43.31792" lon="1.93426">
        <ele>174</ele>
        <time>2019-05-14T00:35:42.460Z</time>
      </trkpt>
      <trkpt lat="43.31781" lon="1.93462">
        <ele>174</ele>
        <time>2019-05-14T00:35:48.963Z</time>
      </trkpt>
      <trkpt lat="43.31805" lon="1.93564">
        <ele>173</ele>
        <time>2019-05-14T00:36:06.692Z</time>
      </trkpt>
      <trkpt lat="43.31805" lon="1.93601">
        <ele>172</ele>
        <time>2019-05-14T00:36:13.199Z</time>
      </trkpt>
      <trkpt lat="43.31763" lon="1.93721">
        <ele>173</ele>
        <time>2019-05-14T00:36:37.225Z</time>
      </trkpt>
      <trkpt lat="43.3175" lon="1.93809">
        <ele>175</ele>
        <time>2019-05-14T00:36:53.956Z</time>
      </trkpt>
      <trkpt lat="43.31735" lon="1.9386">
        <ele>175</ele>
        <time>2019-05-14T00:37:04.254Z</time>
      </trkpt>
      <trkpt lat="43.317" lon="1.93896">
        <ele>174</ele>
        <time>2019-05-14T00:37:15.421Z</time>
      </trkpt>
      <trkpt lat="43.31649" lon="1.9395">
        <ele>173</ele>
        <time>2019-05-14T00:37:31.654Z</time>
      </trkpt>
      <trkpt lat="43.31589" lon="1.94012">
        <ele>173</ele>
        <time>2019-05-14T00:37:49.365Z</time>
      </trkpt>
      <trkpt lat="43.31505" lon="1.94081">
        <ele>173</ele>
        <time>2019-05-14T00:38:12.162Z</time>
      </trkpt>
      <trkpt lat="43.31485" lon="1.94113">
        <ele>172</ele>
        <time>2019-05-14T00:38:19.047Z</time>
      </trkpt>
      <trkpt lat="43.31462" lon="1.94154">
        <ele>173</ele>
        <time>2019-05-14T00:38:27.376Z</time>
      </trkpt>
      <trkpt lat="43.31368" lon="1.94326">
        <ele>172</ele>
        <time>2019-05-14T00:38:59.781Z</time>
      </trkpt>
      <trkpt lat="43.31347" lon="1.94426">
        <ele>172</ele>
        <time>2019-05-14T00:39:14.413Z</time>
      </trkpt>
      <trkpt lat="43.31341" lon="1.94438">
        <ele>172</ele>
        <time>2019-05-14T00:39:16.440Z</time>
      </trkpt>
      <trkpt lat="43.31331" lon="1.94457">
        <ele>170</ele>
        <time>2019-05-14T00:39:19.705Z</time>
      </trkpt>
      <trkpt lat="43.31308" lon="1.94478">
        <ele>170</ele>
        <time>2019-05-14T00:39:25.040Z</time>
      </trkpt>
      <trkpt lat="43.31282" lon="1.94525">
        <ele>170</ele>
        <time>2019-05-14T00:39:33.248Z</time>
      </trkpt>
      <trkpt lat="43.31274" lon="1.94555">
        <ele>170</ele>
        <time>2019-05-14T00:39:37.942Z</time>
      </trkpt>
      <trkpt lat="43.31268" lon="1.94578">
        <ele>170</ele>
        <time>2019-05-14T00:39:41.604Z</time>
      </trkpt>
      <trkpt lat="43.31268" lon="1.94659">
        <ele>170</ele>
        <time>2019-05-14T00:39:54.798Z</time>
      </trkpt>
      <trkpt lat="43.31273" lon="1.94668">
        <ele>170</ele>
        <time>2019-05-14T00:39:56.691Z</time>
      </trkpt>
      <trkpt lat="43.31292" lon="1.94727">
        <ele>170</ele>
        <time>2019-05-14T00:40:14.867Z</time>
      </trkpt>
      <trkpt lat="43.31303" lon="1.94754">
        <ele>170</ele>
        <time>2019-05-14T00:40:23.764Z</time>
      </trkpt>
      <trkpt lat="43.31304" lon="1.94756">
        <ele>170</ele>
        <time>2019-05-14T00:40:24.642Z</time>
      </trkpt>
      <trkpt lat="43.31326" lon="1.94799">
        <ele>170</ele>
        <time>2019-05-14T00:40:41.483Z</time>
      </trkpt>
      <trkpt lat="43.31347" lon="1.9483">
        <ele>172</ele>
        <time>2019-05-14T00:40:54.931Z</time>
      </trkpt>
      <trkpt lat="43.31373" lon="1.94845">
        <ele>172</ele>
        <time>2019-05-14T00:41:07.269Z</time>
      </trkpt>
      <trkpt lat="43.31427" lon="1.94838">
        <ele>174</ele>
        <time>2019-05-14T00:41:31.840Z</time>
      </trkpt>
      <trkpt lat="43.31449" lon="1.94839">
        <ele>174</ele>
        <time>2019-05-14T00:41:41.442Z</time>
      </trkpt>
      <trkpt lat="43.31494" lon="1.9486">
        <ele>174</ele>
        <time>2019-05-14T00:42:01.324Z</time>
      </trkpt>
      <trkpt lat="43.31527" lon="1.94883">
        <ele>173</ele>
        <time>2019-05-14T00:42:16.291Z</time>
      </trkpt>
      <trkpt lat="43.31545" lon="1.94896">
        <ele>173</ele>
        <time>2019-05-14T00:42:24.653Z</time>
      </trkpt>
      <trkpt lat="43.31569" lon="1.94928">
        <ele>173</ele>
        <time>2019-05-14T00:42:38.592Z</time>
      </trkpt>
      <trkpt lat="43.3158" lon="1.94979">
        <ele>173</ele>
        <time>2019-05-14T00:42:54.056Z</time>
      </trkpt>
      <trkpt lat="43.31579" lon="1.94998">
        <ele>173</ele>
        <time>2019-05-14T00:42:59.710Z</time>
      </trkpt>
      <trkpt lat="43.31565" lon="1.95034">
        <ele>173</ele>
        <time>2019-05-14T00:43:11.192Z</time>
      </trkpt>
      <trkpt lat="43.31553" lon="1.95059">
        <ele>173</ele>
        <time>2019-05-14T00:43:19.728Z</time>
      </trkpt>
      <trkpt lat="43.31548" lon="1.9507">
        <ele>173</ele>
        <time>2019-05-14T00:43:22.943Z</time>
      </trkpt>
      <trkpt lat="43.31558" lon="1.9508">
        <ele>174</ele>
        <time>2019-05-14T00:43:25.792Z</time>
      </trkpt>
      <trkpt lat="43.31577" lon="1.95099">
        <ele>175</ele>
        <time>2019-05-14T00:43:30.742Z</time>
      </trkpt>
      <trkpt lat="43.31581" lon="1.95103">
        <ele>175</ele>
        <time>2019-05-14T00:43:31.772Z</time>
      </trkpt>
      <trkpt lat="43.31584" lon="1.95105">
        <ele>175</ele>
        <time>2019-05-14T00:43:32.621Z</time>
      </trkpt>
      <trkpt lat="43.31583" lon="1.95108">
        <ele>175</ele>
        <time>2019-05-14T00:43:33.099Z</time>
      </trkpt>
      <trkpt lat="43.31584" lon="1.95113">
        <ele>175</ele>
        <time>2019-05-14T00:43:33.918Z</time>
      </trkpt>
      <trkpt lat="43.31585" lon="1.95115">
        <ele>175</ele>
        <time>2019-05-14T00:43:34.385Z</time>
      </trkpt>
      <trkpt lat="43.31587" lon="1.95116">
        <ele>176</ele>
        <time>2019-05-14T00:43:34.848Z</time>
      </trkpt>
      <trkpt lat="43.31589" lon="1.95116">
        <ele>176</ele>
        <time>2019-05-14T00:43:35.292Z</time>
      </trkpt>
      <trkpt lat="43.31591" lon="1.95114">
        <ele>175</ele>
        <time>2019-05-14T00:43:35.745Z</time>
      </trkpt>
      <trkpt lat="43.31592" lon="1.95112">
        <ele>175</ele>
        <time>2019-05-14T00:43:36.117Z</time>
      </trkpt>
      <trkpt lat="43.31593" lon="1.95111">
        <ele>175</ele>
        <time>2019-05-14T00:43:36.395Z</time>
      </trkpt>
      <trkpt lat="43.31592" lon="1.95106">
        <ele>175</ele>
        <time>2019-05-14T00:43:37.094Z</time>
      </trkpt>
      <trkpt lat="43.31591" lon="1.95104">
        <ele>175</ele>
        <time>2019-05-14T00:43:37.379Z</time>
      </trkpt>
      <trkpt lat="43.31594" lon="1.95099">
        <ele>175</ele>
        <time>2019-05-14T00:43:38.474Z</time>
      </trkpt>
      <trkpt lat="43.31597" lon="1.95094">
        <ele>175</ele>
        <time>2019-05-14T00:43:39.312Z</time>
      </trkpt>
      <trkpt lat="43.31603" lon="1.95078">
        <ele>174</ele>
        <time>2019-05-14T00:43:42.373Z</time>
      </trkpt>
      <trkpt lat="43.31631" lon="1.95013">
        <ele>173</ele>
        <time>2019-05-14T00:43:53.911Z</time>
      </trkpt>
      <trkpt lat="43.31642" lon="1.94988">
        <ele>172</ele>
        <time>2019-05-14T00:43:58.664Z</time>
      </trkpt>
      <trkpt lat="43.31649" lon="1.9498">
        <ele>172</ele>
        <time>2019-05-14T00:44:00.390Z</time>
      </trkpt>
      <trkpt lat="43.31708" lon="1.94902">
        <ele>172</ele>
        <time>2019-05-14T00:44:17.967Z</time>
      </trkpt>
      <trkpt lat="43.31715" lon="1.94889">
        <ele>172</ele>
        <time>2019-05-14T00:44:20.538Z</time>
      </trkpt>
      <trkpt lat="43.31721" lon="1.94875">
        <ele>172</ele>
        <time>2019-05-14T00:44:23.221Z</time>
      </trkpt>
      <trkpt lat="43.31728" lon="1.94861">
        <ele>172</ele>
        <time>2019-05-14T00:44:26.138Z</time>
      </trkpt>
      <trkpt lat="43.31742" lon="1.94827">
        <ele>173</ele>
        <time>2019-05-14T00:44:32.965Z</time>
      </trkpt>
      <trkpt lat="43.31746" lon="1.9481">
        <ele>173</ele>
        <time>2019-05-14T00:44:36.206Z</time>
      </trkpt>
      <trkpt lat="43.31747" lon="1.94799">
        <ele>173</ele>
        <time>2019-05-14T00:44:38.240Z</time>
      </trkpt>
      <trkpt lat="43.31749" lon="1.94784">
        <ele>174</ele>
        <time>2019-05-14T00:44:41.400Z</time>
      </trkpt>
      <trkpt lat="43.31754" lon="1.94752">
        <ele>175</ele>
        <time>2019-05-14T00:44:47.868Z</time>
      </trkpt>
      <trkpt lat="43.31761" lon="1.94689">
        <ele>176</ele>
        <time>2019-05-14T00:45:02.253Z</time>
      </trkpt>
      <trkpt lat="43.31761" lon="1.94653">
        <ele>177</ele>
        <time>2019-05-14T00:45:10.703Z</time>
      </trkpt>
      <trkpt lat="43.31763" lon="1.94629">
        <ele>177</ele>
        <time>2019-05-14T00:45:16.644Z</time>
      </trkpt>
      <trkpt lat="43.31766" lon="1.9462">
        <ele>177</ele>
        <time>2019-05-14T00:45:18.847Z</time>
      </trkpt>
      <trkpt lat="43.31767" lon="1.94614">
        <ele>178</ele>
        <time>2019-05-14T00:45:20.508Z</time>
      </trkpt>
      <trkpt lat="43.31774" lon="1.94592">
        <ele>178</ele>
        <time>2019-05-14T00:45:26.434Z</time>
      </trkpt>
      <trkpt lat="43.31776" lon="1.94587">
        <ele>178</ele>
        <time>2019-05-14T00:45:27.995Z</time>
      </trkpt>
      <trkpt lat="43.31781" lon="1.94577">
        <ele>179</ele>
        <time>2019-05-14T00:45:30.758Z</time>
      </trkpt>
      <trkpt lat="43.31808" lon="1.94519">
        <ele>180</ele>
        <time>2019-05-14T00:45:47.210Z</time>
      </trkpt>
      <trkpt lat="43.31837" lon="1.94459">
        <ele>182</ele>
        <time>2019-05-14T00:46:03.978Z</time>
      </trkpt>
      <trkpt lat="43.31841" lon="1.94451">
        <ele>182</ele>
        <time>2019-05-14T00:46:06.592Z</time>
      </trkpt>
      <trkpt lat="43.31856" lon="1.94421">
        <ele>182</ele>
        <time>2019-05-14T00:46:15.194Z</time>
      </trkpt>
      <trkpt lat="43.31848" lon="1.94416">
        <ele>182</ele>
        <time>2019-05-14T00:46:18.538Z</time>
      </trkpt>
      <trkpt lat="43.31852" lon="1.94394">
        <ele>182</ele>
        <time>2019-05-14T00:46:24.121Z</time>
      </trkpt>
      <trkpt lat="43.31856" lon="1.94376">
        <ele>182</ele>
        <time>2019-05-14T00:46:28.516Z</time>
      </trkpt>
      <trkpt lat="43.31859" lon="1.94363">
        <ele>182</ele>
        <time>2019-05-14T00:46:32.297Z</time>
      </trkpt>
      <trkpt lat="43.3188" lon="1.94281">
        <ele>184</ele>
        <time>2019-05-14T00:46:51.868Z</time>
      </trkpt>
      <trkpt lat="43.3188" lon="1.94279">
        <ele>184</ele>
        <time>2019-05-14T00:46:52.555Z</time>
      </trkpt>
      <trkpt lat="43.31882" lon="1.94271">
        <ele>184</ele>
        <time>2019-05-14T00:46:54.607Z</time>
      </trkpt>
      <trkpt lat="43.31896" lon="1.94213">
        <ele>185</ele>
        <time>2019-05-14T00:47:08.028Z</time>
      </trkpt>
      <trkpt lat="43.31898" lon="1.94203">
        <ele>186</ele>
        <time>2019-05-14T00:47:10.198Z</time>
      </trkpt>
      <trkpt lat="43.31917" lon="1.94148">
        <ele>186</ele>
        <time>2019-05-14T00:47:23.021Z</time>
      </trkpt>
      <trkpt lat="43.3194" lon="1.94069">
        <ele>187</ele>
        <time>2019-05-14T00:47:41.604Z</time>
      </trkpt>
      <trkpt lat="43.31953" lon="1.94027">
        <ele>188</ele>
        <time>2019-05-14T00:47:50.772Z</time>
      </trkpt>
      <trkpt lat="43.31974" lon="1.93963">
        <ele>188</ele>
        <time>2019-05-14T00:48:03.423Z</time>
      </trkpt>
      <trkpt lat="43.31976" lon="1.93957">
        <ele>188</ele>
        <time>2019-05-14T00:48:04.498Z</time>
      </trkpt>
      <trkpt lat="43.31981" lon="1.93958">
        <ele>188</ele>
        <time>2019-05-14T00:48:05.909Z</time>
      </trkpt>
      <trkpt lat="43.31987" lon="1.93955">
        <ele>189</ele>
        <time>2019-05-14T00:48:07.562Z</time>
      </trkpt>
      <trkpt lat="43.3199" lon="1.93951">
        <ele>189</ele>
        <time>2019-05-14T00:48:08.898Z</time>
      </trkpt>
      <trkpt lat="43.31992" lon="1.93945">
        <ele>189</ele>
        <time>2019-05-14T00:48:09.855Z</time>
      </trkpt>
      <trkpt lat="43.3199" lon="1.93929">
        <ele>189</ele>
        <time>2019-05-14T00:48:12.757Z</time>
      </trkpt>
      <trkpt lat="43.31987" lon="1.93926">
        <ele>189</ele>
        <time>2019-05-14T00:48:13.457Z</time>
      </trkpt>
      <trkpt lat="43.31989" lon="1.93921">
        <ele>190</ele>
        <time>2019-05-14T00:48:14.753Z</time>
      </trkpt>
      <trkpt lat="43.31991" lon="1.93915">
        <ele>189</ele>
        <time>2019-05-14T00:48:15.946Z</time>
      </trkpt>
      <trkpt lat="43.31991" lon="1.93914">
        <ele>189</ele>
        <time>2019-05-13T19:41:06.385Z</time>
      </trkpt>
      <trkpt lat="43.31991" lon="1.93914">
        <ele>189</ele>
        <time>2019-05-13T19:41:06.385Z</time>
      </trkpt>
      <trkpt lat="43.31989" lon="1.93921">
        <ele>190</ele>
        <time>2019-05-13T19:41:07.698Z</time>
      </trkpt>
      <trkpt lat="43.31987" lon="1.93926">
        <ele>189</ele>
        <time>2019-05-13T19:41:08.751Z</time>
      </trkpt>
      <trkpt lat="43.31983" lon="1.93924">
        <ele>189</ele>
        <time>2019-05-13T19:41:09.762Z</time>
      </trkpt>
      <trkpt lat="43.31978" lon="1.93923">
        <ele>189</ele>
        <time>2019-05-13T19:41:10.937Z</time>
      </trkpt>
      <trkpt lat="43.31972" lon="1.93927">
        <ele>188</ele>
        <time>2019-05-13T19:41:12.013Z</time>
      </trkpt>
      <trkpt lat="43.31969" lon="1.93933">
        <ele>188</ele>
        <time>2019-05-13T19:41:13.320Z</time>
      </trkpt>
      <trkpt lat="43.31967" lon="1.93942">
        <ele>188</ele>
        <time>2019-05-13T19:41:14.817Z</time>
      </trkpt>
      <trkpt lat="43.31968" lon="1.93947">
        <ele>188</ele>
        <time>2019-05-13T19:41:15.829Z</time>
      </trkpt>
      <trkpt lat="43.31972" lon="1.93954">
        <ele>188</ele>
        <time>2019-05-13T19:41:17.127Z</time>
      </trkpt>
      <trkpt lat="43.31976" lon="1.93957">
        <ele>188</ele>
        <time>2019-05-13T19:41:18.300Z</time>
      </trkpt>
      <trkpt lat="43.31974" lon="1.93963">
        <ele>188</ele>
        <time>2019-05-13T19:41:19.179Z</time>
      </trkpt>
      <trkpt lat="43.31953" lon="1.94027">
        <ele>188</ele>
        <time>2019-05-13T19:41:30.131Z</time>
      </trkpt>
      <trkpt lat="43.3194" lon="1.94069">
        <ele>187</ele>
        <time>2019-05-13T19:41:36.864Z</time>
      </trkpt>
      <trkpt lat="43.31917" lon="1.94148">
        <ele>186</ele>
        <time>2019-05-13T19:41:48.850Z</time>
      </trkpt>
      <trkpt lat="43.31898" lon="1.94203">
        <ele>186</ele>
        <time>2019-05-13T19:41:57.357Z</time>
      </trkpt>
      <trkpt lat="43.31896" lon="1.94213">
        <ele>185</ele>
        <time>2019-05-13T19:41:58.861Z</time>
      </trkpt>
      <trkpt lat="43.31882" lon="1.94271">
        <ele>184</ele>
        <time>2019-05-13T19:42:07.220Z</time>
      </trkpt>
      <trkpt lat="43.3188" lon="1.94279">
        <ele>184</ele>
        <time>2019-05-13T19:42:08.368Z</time>
      </trkpt>
      <trkpt lat="43.3188" lon="1.94281">
        <ele>184</ele>
        <time>2019-05-13T19:42:08.555Z</time>
      </trkpt>
      <trkpt lat="43.31859" lon="1.94363">
        <ele>182</ele>
        <time>2019-05-13T19:42:20.196Z</time>
      </trkpt>
      <trkpt lat="43.31856" lon="1.94376">
        <ele>182</ele>
        <time>2019-05-13T19:42:21.916Z</time>
      </trkpt>
      <trkpt lat="43.31852" lon="1.94394">
        <ele>182</ele>
        <time>2019-05-13T19:42:24.507Z</time>
      </trkpt>
      <trkpt lat="43.31848" lon="1.94416">
        <ele>182</ele>
        <time>2019-05-13T19:42:27.336Z</time>
      </trkpt>
      <trkpt lat="43.31856" lon="1.94421">
        <ele>182</ele>
        <time>2019-05-13T19:42:28.932Z</time>
      </trkpt>
      <trkpt lat="43.31841" lon="1.94451">
        <ele>182</ele>
        <time>2019-05-13T19:42:33.606Z</time>
      </trkpt>
      <trkpt lat="43.31837" lon="1.94459">
        <ele>182</ele>
        <time>2019-05-13T19:42:34.790Z</time>
      </trkpt>
      <trkpt lat="43.31808" lon="1.94519">
        <ele>180</ele>
        <time>2019-05-13T19:42:44.316Z</time>
      </trkpt>
      <trkpt lat="43.31781" lon="1.94577">
        <ele>179</ele>
        <time>2019-05-13T19:42:53.296Z</time>
      </trkpt>
      <trkpt lat="43.31776" lon="1.94587">
        <ele>178</ele>
        <time>2019-05-13T19:42:54.932Z</time>
      </trkpt>
      <trkpt lat="43.31774" lon="1.94592">
        <ele>178</ele>
        <time>2019-05-13T19:42:55.671Z</time>
      </trkpt>
      <trkpt lat="43.31767" lon="1.94614">
        <ele>178</ele>
        <time>2019-05-13T19:42:58.719Z</time>
      </trkpt>
      <trkpt lat="43.31766" lon="1.9462">
        <ele>177</ele>
        <time>2019-05-13T19:42:59.552Z</time>
      </trkpt>
      <trkpt lat="43.31763" lon="1.94629">
        <ele>177</ele>
        <time>2019-05-13T19:43:00.844Z</time>
      </trkpt>
      <trkpt lat="43.31761" lon="1.94653">
        <ele>177</ele>
        <time>2019-05-13T19:43:03.921Z</time>
      </trkpt>
      <trkpt lat="43.31761" lon="1.94689">
        <ele>176</ele>
        <time>2019-05-13T19:43:08.661Z</time>
      </trkpt>
      <trkpt lat="43.31754" lon="1.94752">
        <ele>175</ele>
        <time>2019-05-13T19:43:17.346Z</time>
      </trkpt>
      <trkpt lat="43.31749" lon="1.94784">
        <ele>174</ele>
        <time>2019-05-13T19:43:21.805Z</time>
      </trkpt>
      <trkpt lat="43.31747" lon="1.94799">
        <ele>173</ele>
        <time>2019-05-13T19:43:23.855Z</time>
      </trkpt>
      <trkpt lat="43.31746" lon="1.9481">
        <ele>173</ele>
        <time>2019-05-13T19:43:25.572Z</time>
      </trkpt>
      <trkpt lat="43.31742" lon="1.94827">
        <ele>173</ele>
        <time>2019-05-13T19:43:28.013Z</time>
      </trkpt>
      <trkpt lat="43.31728" lon="1.94861">
        <ele>172</ele>
        <time>2019-05-13T19:43:33.981Z</time>
      </trkpt>
      <trkpt lat="43.31721" lon="1.94875">
        <ele>172</ele>
        <time>2019-05-13T19:43:36.569Z</time>
      </trkpt>
      <trkpt lat="43.31715" lon="1.94889">
        <ele>172</ele>
        <time>2019-05-13T19:43:39.079Z</time>
      </trkpt>
      <trkpt lat="43.31708" lon="1.94902">
        <ele>172</ele>
        <time>2019-05-13T19:43:41.877Z</time>
      </trkpt>
      <trkpt lat="43.31649" lon="1.9498">
        <ele>172</ele>
        <time>2019-05-13T19:44:00.882Z</time>
      </trkpt>
      <trkpt lat="43.31642" lon="1.94988">
        <ele>172</ele>
        <time>2019-05-13T19:44:03.013Z</time>
      </trkpt>
      <trkpt lat="43.31631" lon="1.95013">
        <ele>173</ele>
        <time>2019-05-13T19:44:08.259Z</time>
      </trkpt>
      <trkpt lat="43.31603" lon="1.95078">
        <ele>174</ele>
        <time>2019-05-13T19:44:21.474Z</time>
      </trkpt>
      <trkpt lat="43.31597" lon="1.95094">
        <ele>175</ele>
        <time>2019-05-13T19:44:24.301Z</time>
      </trkpt>
      <trkpt lat="43.31594" lon="1.95099">
        <ele>175</ele>
        <time>2019-05-13T19:44:25.375Z</time>
      </trkpt>
      <trkpt lat="43.31591" lon="1.95104">
        <ele>175</ele>
        <time>2019-05-13T19:44:26.458Z</time>
      </trkpt>
      <trkpt lat="43.3159" lon="1.95103">
        <ele>175</ele>
        <time>2019-05-13T19:44:26.827Z</time>
      </trkpt>
      <trkpt lat="43.31585" lon="1.95104">
        <ele>175</ele>
        <time>2019-05-13T19:44:28.098Z</time>
      </trkpt>
      <trkpt lat="43.31584" lon="1.95105">
        <ele>175</ele>
        <time>2019-05-13T19:44:28.415Z</time>
      </trkpt>
      <trkpt lat="43.31583" lon="1.95108">
        <ele>175</ele>
        <time>2019-05-13T19:44:28.928Z</time>
      </trkpt>
      <trkpt lat="43.31584" lon="1.95113">
        <ele>175</ele>
        <time>2019-05-13T19:44:29.804Z</time>
      </trkpt>
      <trkpt lat="43.31585" lon="1.95115">
        <ele>175</ele>
        <time>2019-05-13T19:44:30.295Z</time>
      </trkpt>
      <trkpt lat="43.31584" lon="1.95117">
        <ele>176</ele>
        <time>2019-05-13T19:44:30.830Z</time>
      </trkpt>
      <trkpt lat="43.31578" lon="1.95127">
        <ele>175</ele>
        <time>2019-05-13T19:44:32.755Z</time>
      </trkpt>
      <trkpt lat="43.31557" lon="1.95183">
        <ele>175</ele>
        <time>2019-05-13T19:44:43.695Z</time>
      </trkpt>
      <trkpt lat="43.3155" lon="1.95321">
        <ele>173</ele>
        <time>2019-05-13T19:45:08.446Z</time>
      </trkpt>
      <trkpt lat="43.31547" lon="1.95371">
        <ele>173</ele>
        <time>2019-05-13T19:45:19.148Z</time>
      </trkpt>
      <trkpt lat="43.31547" lon="1.95378">
        <ele>173</ele>
        <time>2019-05-13T19:45:21.024Z</time>
      </trkpt>
      <trkpt lat="43.31545" lon="1.95439">
        <ele>174</ele>
        <time>2019-05-13T19:45:34.177Z</time>
      </trkpt>
      <trkpt lat="43.31542" lon="1.95452">
        <ele>174</ele>
        <time>2019-05-13T19:45:37.559Z</time>
      </trkpt>
      <trkpt lat="43.31543" lon="1.95474">
        <ele>175</ele>
        <time>2019-05-13T19:45:42.557Z</time>
      </trkpt>
      <trkpt lat="43.31547" lon="1.95497">
        <ele>175</ele>
        <time>2019-05-13T19:45:47.344Z</time>
      </trkpt>
      <trkpt lat="43.31553" lon="1.95506">
        <ele>177</ele>
        <time>2019-05-13T19:45:50.008Z</time>
      </trkpt>
      <trkpt lat="43.31578" lon="1.95551">
        <ele>178</ele>
        <time>2019-05-13T19:46:01.337Z</time>
      </trkpt>
      <trkpt lat="43.31598" lon="1.95593">
        <ele>182</ele>
        <time>2019-05-13T19:46:12.294Z</time>
      </trkpt>
      <trkpt lat="43.31599" lon="1.95595">
        <ele>182</ele>
        <time>2019-05-13T19:46:12.637Z</time>
      </trkpt>
      <trkpt lat="43.31601" lon="1.956">
        <ele>182</ele>
        <time>2019-05-13T19:46:14.392Z</time>
      </trkpt>
      <trkpt lat="43.31595" lon="1.95609">
        <ele>182</ele>
        <time>2019-05-13T19:46:16.226Z</time>
      </trkpt>
      <trkpt lat="43.31566" lon="1.95654">
        <ele>181</ele>
        <time>2019-05-13T19:46:27.930Z</time>
      </trkpt>
      <trkpt lat="43.31545" lon="1.95707">
        <ele>181</ele>
        <time>2019-05-13T19:46:37.477Z</time>
      </trkpt>
      <trkpt lat="43.31536" lon="1.9573">
        <ele>181</ele>
        <time>2019-05-13T19:46:41.424Z</time>
      </trkpt>
      <trkpt lat="43.31531" lon="1.95745">
        <ele>180</ele>
        <time>2019-05-13T19:46:43.843Z</time>
      </trkpt>
      <trkpt lat="43.3152" lon="1.95781">
        <ele>182</ele>
        <time>2019-05-13T19:46:49.591Z</time>
      </trkpt>
      <trkpt lat="43.31519" lon="1.95785">
        <ele>182</ele>
        <time>2019-05-13T19:46:50.348Z</time>
      </trkpt>
      <trkpt lat="43.31512" lon="1.95798">
        <ele>182</ele>
        <time>2019-05-13T19:46:52.866Z</time>
      </trkpt>
      <trkpt lat="43.31506" lon="1.95807">
        <ele>182</ele>
        <time>2019-05-13T19:46:54.543Z</time>
      </trkpt>
      <trkpt lat="43.31486" lon="1.95828">
        <ele>178</ele>
        <time>2019-05-13T19:46:59.573Z</time>
      </trkpt>
      <trkpt lat="43.31465" lon="1.95842">
        <ele>179</ele>
        <time>2019-05-13T19:47:03.854Z</time>
      </trkpt>
      <trkpt lat="43.31397" lon="1.95887">
        <ele>177</ele>
        <time>2019-05-13T19:47:18.847Z</time>
      </trkpt>
      <trkpt lat="43.31388" lon="1.95893">
        <ele>177</ele>
        <time>2019-05-13T19:47:21.192Z</time>
      </trkpt>
      <trkpt lat="43.3137" lon="1.959">
        <ele>178</ele>
        <time>2019-05-13T19:47:24.467Z</time>
      </trkpt>
      <trkpt lat="43.31357" lon="1.95904">
        <ele>178</ele>
        <time>2019-05-13T19:47:26.854Z</time>
      </trkpt>
      <trkpt lat="43.31335" lon="1.95912">
        <ele>180</ele>
        <time>2019-05-13T19:47:30.864Z</time>
      </trkpt>
      <trkpt lat="43.31329" lon="1.95914">
        <ele>180</ele>
        <time>2019-05-13T19:47:31.910Z</time>
      </trkpt>
      <trkpt lat="43.31295" lon="1.95922">
        <ele>177</ele>
        <time>2019-05-13T19:47:37.968Z</time>
      </trkpt>
      <trkpt lat="43.31289" lon="1.95923">
        <ele>176</ele>
        <time>2019-05-13T19:47:39.051Z</time>
      </trkpt>
      <trkpt lat="43.31268" lon="1.95925">
        <ele>176</ele>
        <time>2019-05-13T19:47:42.657Z</time>
      </trkpt>
      <trkpt lat="43.31249" lon="1.95926">
        <ele>176</ele>
        <time>2019-05-13T19:47:45.762Z</time>
      </trkpt>
      <trkpt lat="43.31242" lon="1.95927">
        <ele>176</ele>
        <time>2019-05-13T19:47:47.025Z</time>
      </trkpt>
      <trkpt lat="43.31241" lon="1.95931">
        <ele>176</ele>
        <time>2019-05-13T19:47:47.495Z</time>
      </trkpt>
      <trkpt lat="43.31241" lon="1.95934">
        <ele>176</ele>
        <time>2019-05-13T19:47:47.855Z</time>
      </trkpt>
      <trkpt lat="43.31232" lon="1.9599">
        <ele>174</ele>
        <time>2019-05-13T19:47:55.101Z</time>
      </trkpt>
      <trkpt lat="43.31223" lon="1.96011">
        <ele>172</ele>
        <time>2019-05-13T19:47:58.044Z</time>
      </trkpt>
      <trkpt lat="43.31211" lon="1.96058">
        <ele>170</ele>
        <time>2019-05-13T19:48:04.330Z</time>
      </trkpt>
      <trkpt lat="43.31186" lon="1.96174">
        <ele>165</ele>
        <time>2019-05-13T19:48:19.347Z</time>
      </trkpt>
      <trkpt lat="43.31184" lon="1.96181">
        <ele>165</ele>
        <time>2019-05-13T19:48:20.255Z</time>
      </trkpt>
      <trkpt lat="43.31177" lon="1.96221">
        <ele>164</ele>
        <time>2019-05-13T19:48:25.693Z</time>
      </trkpt>
      <trkpt lat="43.3116" lon="1.96309">
        <ele>164</ele>
        <time>2019-05-13T19:48:37.808Z</time>
      </trkpt>
      <trkpt lat="43.31158" lon="1.9632">
        <ele>163</ele>
        <time>2019-05-13T19:48:39.309Z</time>
      </trkpt>
      <trkpt lat="43.31145" lon="1.96382">
        <ele>163</ele>
        <time>2019-05-13T19:48:48.037Z</time>
      </trkpt>
      <trkpt lat="43.31077" lon="1.96639">
        <ele>163</ele>
        <time>2019-05-13T19:49:31.552Z</time>
      </trkpt>
      <trkpt lat="43.30851" lon="1.96903">
        <ele>164</ele>
        <time>2019-05-13T19:50:44.869Z</time>
      </trkpt>
      <trkpt lat="43.30798" lon="1.97061">
        <ele>163</ele>
        <time>2019-05-13T19:51:14.930Z</time>
      </trkpt>
      <trkpt lat="43.30761" lon="1.97225">
        <ele>163</ele>
        <time>2019-05-13T19:51:43.589Z</time>
      </trkpt>
      <trkpt lat="43.3076" lon="1.97228">
        <ele>163</ele>
        <time>2019-05-13T19:51:44.155Z</time>
      </trkpt>
      <trkpt lat="43.30741" lon="1.97316">
        <ele>164</ele>
        <time>2019-05-13T19:51:59.138Z</time>
      </trkpt>
      <trkpt lat="43.3071" lon="1.97416">
        <ele>163</ele>
        <time>2019-05-13T19:52:16.143Z</time>
      </trkpt>
      <trkpt lat="43.30676" lon="1.97463">
        <ele>163</ele>
        <time>2019-05-13T19:52:26.235Z</time>
      </trkpt>
      <trkpt lat="43.30622" lon="1.97602">
        <ele>163</ele>
        <time>2019-05-13T19:52:49.255Z</time>
      </trkpt>
      <trkpt lat="43.30547" lon="1.9775">
        <ele>159</ele>
        <time>2019-05-13T19:53:16.317Z</time>
      </trkpt>
      <trkpt lat="43.30545" lon="1.97759">
        <ele>159</ele>
        <time>2019-05-13T19:53:17.572Z</time>
      </trkpt>
      <trkpt lat="43.30512" lon="1.97829">
        <ele>160</ele>
        <time>2019-05-13T19:53:31.902Z</time>
      </trkpt>
      <trkpt lat="43.30484" lon="1.97893">
        <ele>160</ele>
        <time>2019-05-13T19:53:44.425Z</time>
      </trkpt>
      <trkpt lat="43.30476" lon="1.97907">
        <ele>160</ele>
        <time>2019-05-13T19:53:47.943Z</time>
      </trkpt>
      <trkpt lat="43.30408" lon="1.98034">
        <ele>161</ele>
        <time>2019-05-13T19:54:16.844Z</time>
      </trkpt>
      <trkpt lat="43.30196" lon="1.98357">
        <ele>162</ele>
        <time>2019-05-13T19:55:38.355Z</time>
      </trkpt>
      <trkpt lat="43.30141" lon="1.98461">
        <ele>162</ele>
        <time>2019-05-13T19:56:02.465Z</time>
      </trkpt>
      <trkpt lat="43.30125" lon="1.98506">
        <ele>161</ele>
        <time>2019-05-13T19:56:11.754Z</time>
      </trkpt>
      <trkpt lat="43.30073" lon="1.98649">
        <ele>161</ele>
        <time>2019-05-13T19:56:40.824Z</time>
      </trkpt>
      <trkpt lat="43.29893" lon="1.98904">
        <ele>160</ele>
        <time>2019-05-13T19:57:43.174Z</time>
      </trkpt>
      <trkpt lat="43.29872" lon="1.98955">
        <ele>161</ele>
        <time>2019-05-13T19:57:53.051Z</time>
      </trkpt>
      <trkpt lat="43.29851" lon="1.99138">
        <ele>162</ele>
        <time>2019-05-13T19:58:21.387Z</time>
      </trkpt>
      <trkpt lat="43.29807" lon="1.9925">
        <ele>161</ele>
        <time>2019-05-13T19:58:39.348Z</time>
      </trkpt>
      <trkpt lat="43.29754" lon="1.99455">
        <ele>154</ele>
        <time>2019-05-13T19:59:09.264Z</time>
      </trkpt>
      <trkpt lat="43.29749" lon="1.99481">
        <ele>151</ele>
        <time>2019-05-13T19:59:13.026Z</time>
      </trkpt>
      <trkpt lat="43.29745" lon="1.99507">
        <ele>151</ele>
        <time>2019-05-13T19:59:16.921Z</time>
      </trkpt>
      <trkpt lat="43.29567" lon="2.00176">
        <ele>147</ele>
        <time>2019-05-13T20:01:09.944Z</time>
      </trkpt>
      <trkpt lat="43.29547" lon="2.00214">
        <ele>147</ele>
        <time>2019-05-13T20:01:18.225Z</time>
      </trkpt>
      <trkpt lat="43.29379" lon="2.00412">
        <ele>146</ele>
        <time>2019-05-13T20:02:17.098Z</time>
      </trkpt>
      <trkpt lat="43.29327" lon="2.0053">
        <ele>149</ele>
        <time>2019-05-13T20:02:42.378Z</time>
      </trkpt>
      <trkpt lat="43.29326" lon="2.00538">
        <ele>149</ele>
        <time>2019-05-13T20:02:44.224Z</time>
      </trkpt>
      <trkpt lat="43.29321" lon="2.00559">
        <ele>149</ele>
        <time>2019-05-13T20:02:47.718Z</time>
      </trkpt>
      <trkpt lat="43.29199" lon="2.00898">
        <ele>144</ele>
        <time>2019-05-13T20:03:49.453Z</time>
      </trkpt>
      <trkpt lat="43.29122" lon="2.01255">
        <ele>144</ele>
        <time>2019-05-13T20:04:50.193Z</time>
      </trkpt>
      <trkpt lat="43.29019" lon="2.01597">
        <ele>142</ele>
        <time>2019-05-13T20:05:52.282Z</time>
      </trkpt>
      <trkpt lat="43.29019" lon="2.0161">
        <ele>143</ele>
        <time>2019-05-13T20:05:54.614Z</time>
      </trkpt>
      <trkpt lat="43.29011" lon="2.01639">
        <ele>143</ele>
        <time>2019-05-13T20:05:59.938Z</time>
      </trkpt>
      <trkpt lat="43.2881" lon="2.0233">
        <ele>143</ele>
        <time>2019-05-13T20:08:15.259Z</time>
      </trkpt>
      <trkpt lat="43.28795" lon="2.0248">
        <ele>143</ele>
        <time>2019-05-13T20:08:41.083Z</time>
      </trkpt>
      <trkpt lat="43.28781" lon="2.02542">
        <ele>144</ele>
        <time>2019-05-13T20:08:51.816Z</time>
      </trkpt>
      <trkpt lat="43.28718" lon="2.02681">
        <ele>142</ele>
        <time>2019-05-13T20:09:17.659Z</time>
      </trkpt>
      <trkpt lat="43.28678" lon="2.02854">
        <ele>140</ele>
        <time>2019-05-13T20:09:46.737Z</time>
      </trkpt>
      <trkpt lat="43.28677" lon="2.02865">
        <ele>140</ele>
        <time>2019-05-13T20:09:48.407Z</time>
      </trkpt>
      <trkpt lat="43.28679" lon="2.02872">
        <ele>140</ele>
        <time>2019-05-13T20:09:49.739Z</time>
      </trkpt>
      <trkpt lat="43.28662" lon="2.02947">
        <ele>139</ele>
        <time>2019-05-13T20:10:02.855Z</time>
      </trkpt>
      <trkpt lat="43.28654" lon="2.02982">
        <ele>140</ele>
        <time>2019-05-13T20:10:09.046Z</time>
      </trkpt>
      <trkpt lat="43.28624" lon="2.03125">
        <ele>141</ele>
        <time>2019-05-13T20:10:34.068Z</time>
      </trkpt>
      <trkpt lat="43.2859" lon="2.03276">
        <ele>140</ele>
        <time>2019-05-13T20:10:59.315Z</time>
      </trkpt>
      <trkpt lat="43.28579" lon="2.03317">
        <ele>138</ele>
        <time>2019-05-13T20:11:06.365Z</time>
      </trkpt>
      <trkpt lat="43.28562" lon="2.03372">
        <ele>137</ele>
        <time>2019-05-13T20:11:15.868Z</time>
      </trkpt>
      <trkpt lat="43.28545" lon="2.03407">
        <ele>137</ele>
        <time>2019-05-13T20:11:22.718Z</time>
      </trkpt>
      <trkpt lat="43.28446" lon="2.03756">
        <ele>135</ele>
        <time>2019-05-13T20:12:26.656Z</time>
      </trkpt>
      <trkpt lat="43.28279" lon="2.04274">
        <ele>135</ele>
        <time>2019-05-13T20:14:04.468Z</time>
      </trkpt>
      <trkpt lat="43.28279" lon="2.04294">
        <ele>135</ele>
        <time>2019-05-13T20:14:07.867Z</time>
      </trkpt>
      <trkpt lat="43.28271" lon="2.04303">
        <ele>135</ele>
        <time>2019-05-13T20:14:10.103Z</time>
      </trkpt>
      <trkpt lat="43.281" lon="2.04799">
        <ele>135</ele>
        <time>2019-05-13T20:15:41.778Z</time>
      </trkpt>
      <trkpt lat="43.28083" lon="2.04839">
        <ele>136</ele>
        <time>2019-05-13T20:15:48.753Z</time>
      </trkpt>
      <trkpt lat="43.28075" lon="2.04862">
        <ele>136</ele>
        <time>2019-05-13T20:15:52.571Z</time>
      </trkpt>
      <trkpt lat="43.28054" lon="2.04931">
        <ele>134</ele>
        <time>2019-05-13T20:16:03.945Z</time>
      </trkpt>
      <trkpt lat="43.2805" lon="2.04999">
        <ele>134</ele>
        <time>2019-05-13T20:16:13.939Z</time>
      </trkpt>
      <trkpt lat="43.28033" lon="2.05015">
        <ele>133</ele>
        <time>2019-05-13T20:16:18.127Z</time>
      </trkpt>
      <trkpt lat="43.28025" lon="2.05012">
        <ele>134</ele>
        <time>2019-05-13T20:16:19.753Z</time>
      </trkpt>
      <trkpt lat="43.28003" lon="2.05074">
        <ele>134</ele>
        <time>2019-05-13T20:16:37.512Z</time>
      </trkpt>
      <trkpt lat="43.27814" lon="2.05665">
        <ele>133</ele>
        <time>2019-05-13T20:19:30.988Z</time>
      </trkpt>
      <trkpt lat="43.27776" lon="2.05838">
        <ele>134</ele>
        <time>2019-05-13T20:20:19.904Z</time>
      </trkpt>
      <trkpt lat="43.27732" lon="2.06164">
        <ele>133</ele>
        <time>2019-05-13T20:21:50.485Z</time>
      </trkpt>
      <trkpt lat="43.27717" lon="2.0628">
        <ele>134</ele>
        <time>2019-05-13T20:22:23.072Z</time>
      </trkpt>
      <trkpt lat="43.27686" lon="2.0653">
        <ele>132</ele>
        <time>2019-05-13T20:23:31.698Z</time>
      </trkpt>
      <trkpt lat="43.27661" lon="2.06713">
        <ele>134</ele>
        <time>2019-05-13T20:24:22.082Z</time>
      </trkpt>
      <trkpt lat="43.2765" lon="2.06797">
        <ele>133</ele>
        <time>2019-05-13T20:24:45.251Z</time>
      </trkpt>
      <trkpt lat="43.27612" lon="2.06961">
        <ele>134</ele>
        <time>2019-05-13T20:25:29.910Z</time>
      </trkpt>
      <trkpt lat="43.27569" lon="2.07069">
        <ele>133</ele>
        <time>2019-05-13T20:26:01.555Z</time>
      </trkpt>
      <trkpt lat="43.27525" lon="2.07176">
        <ele>131</ele>
        <time>2019-05-13T20:26:33.698Z</time>
      </trkpt>
      <trkpt lat="43.2751" lon="2.07236">
        <ele>132</ele>
        <time>2019-05-13T20:26:50.960Z</time>
      </trkpt>
      <trkpt lat="43.27518" lon="2.07297">
        <ele>132</ele>
        <time>2019-05-13T20:27:08.089Z</time>
      </trkpt>
      <trkpt lat="43.27566" lon="2.07425">
        <ele>133</ele>
        <time>2019-05-13T20:27:48.096Z</time>
      </trkpt>
      <trkpt lat="43.27606" lon="2.07503">
        <ele>132</ele>
        <time>2019-05-13T20:28:14.284Z</time>
      </trkpt>
      <trkpt lat="43.27617" lon="2.07555">
        <ele>132</ele>
        <time>2019-05-13T20:28:29.485Z</time>
      </trkpt>
      <trkpt lat="43.27602" lon="2.07778">
        <ele>133</ele>
        <time>2019-05-13T20:29:33.929Z</time>
      </trkpt>
      <trkpt lat="43.27602" lon="2.07783">
        <ele>133</ele>
        <time>2019-05-13T20:29:35.508Z</time>
      </trkpt>
      <trkpt lat="43.27599" lon="2.07816">
        <ele>133</ele>
        <time>2019-05-13T20:29:45.525Z</time>
      </trkpt>
      <trkpt lat="43.276" lon="2.07864">
        <ele>133</ele>
        <time>2019-05-13T20:29:55.292Z</time>
      </trkpt>
      <trkpt lat="43.27601" lon="2.0788">
        <ele>134</ele>
        <time>2019-05-13T20:29:58.541Z</time>
      </trkpt>
      <trkpt lat="43.276" lon="2.0789">
        <ele>134</ele>
        <time>2019-05-13T20:30:00.884Z</time>
      </trkpt>
      <trkpt lat="43.27595" lon="2.07909">
        <ele>135</ele>
        <time>2019-05-13T20:30:04.872Z</time>
      </trkpt>
      <trkpt lat="43.27582" lon="2.08771">
        <ele>139</ele>
        <time>2019-05-13T20:32:53.244Z</time>
      </trkpt>
      <trkpt lat="43.27583" lon="2.09012">
        <ele>134</ele>
        <time>2019-05-13T20:33:29.398Z</time>
      </trkpt>
      <trkpt lat="43.27597" lon="2.09129">
        <ele>131</ele>
        <time>2019-05-13T20:33:46.791Z</time>
      </trkpt>
      <trkpt lat="43.27577" lon="2.09179">
        <ele>132</ele>
        <time>2019-05-13T20:33:55.384Z</time>
      </trkpt>
      <trkpt lat="43.27486" lon="2.09317">
        <ele>133</ele>
        <time>2019-05-13T20:34:24.139Z</time>
      </trkpt>
      <trkpt lat="43.27436" lon="2.09391">
        <ele>131</ele>
        <time>2019-05-13T20:34:40.980Z</time>
      </trkpt>
      <trkpt lat="43.27427" lon="2.09403">
        <ele>131</ele>
        <time>2019-05-13T20:34:44.224Z</time>
      </trkpt>
      <trkpt lat="43.27344" lon="2.0951">
        <ele>132</ele>
        <time>2019-05-13T20:35:12.649Z</time>
      </trkpt>
      <trkpt lat="43.27311" lon="2.09554">
        <ele>132</ele>
        <time>2019-05-13T20:35:25.074Z</time>
      </trkpt>
      <trkpt lat="43.27295" lon="2.09574">
        <ele>132</ele>
        <time>2019-05-13T20:35:30.849Z</time>
      </trkpt>
      <trkpt lat="43.27152" lon="2.09779">
        <ele>132</ele>
        <time>2019-05-13T20:36:25.242Z</time>
      </trkpt>
      <trkpt lat="43.26933" lon="2.10301">
        <ele>131</ele>
        <time>2019-05-13T20:38:16.158Z</time>
      </trkpt>
      <trkpt lat="43.26922" lon="2.10345">
        <ele>132</ele>
        <time>2019-05-13T20:38:24.173Z</time>
      </trkpt>
      <trkpt lat="43.26921" lon="2.10604">
        <ele>129</ele>
        <time>2019-05-13T20:39:07.192Z</time>
      </trkpt>
      <trkpt lat="43.26892" lon="2.10714">
        <ele>131</ele>
        <time>2019-05-13T20:39:26.374Z</time>
      </trkpt>
      <trkpt lat="43.26843" lon="2.10804">
        <ele>130</ele>
        <time>2019-05-13T20:39:45.088Z</time>
      </trkpt>
      <trkpt lat="43.2681" lon="2.10833">
        <ele>132</ele>
        <time>2019-05-13T20:39:53.888Z</time>
      </trkpt>
      <trkpt lat="43.26547" lon="2.10973">
        <ele>129</ele>
        <time>2019-05-13T20:40:57.159Z</time>
      </trkpt>
      <trkpt lat="43.26531" lon="2.10986">
        <ele>129</ele>
        <time>2019-05-13T20:41:01.400Z</time>
      </trkpt>
      <trkpt lat="43.26526" lon="2.10991">
        <ele>129</ele>
        <time>2019-05-13T20:41:02.927Z</time>
      </trkpt>
      <trkpt lat="43.26517" lon="2.10997">
        <ele>129</ele>
        <time>2019-05-13T20:41:05.181Z</time>
      </trkpt>
      <trkpt lat="43.26285" lon="2.11125">
        <ele>128</ele>
        <time>2019-05-13T20:42:10.079Z</time>
      </trkpt>
      <trkpt lat="43.26208" lon="2.11177">
        <ele>131</ele>
        <time>2019-05-13T20:42:32.296Z</time>
      </trkpt>
      <trkpt lat="43.26167" lon="2.11219">
        <ele>132</ele>
        <time>2019-05-13T20:42:45.040Z</time>
      </trkpt>
      <trkpt lat="43.25849" lon="2.11966">
        <ele>126</ele>
        <time>2019-05-13T20:45:09.336Z</time>
      </trkpt>
      <trkpt lat="43.25851" lon="2.11996">
        <ele>126</ele>
        <time>2019-05-13T20:45:14.480Z</time>
      </trkpt>
      <trkpt lat="43.25834" lon="2.12042">
        <ele>125</ele>
        <time>2019-05-13T20:45:23.447Z</time>
      </trkpt>
      <trkpt lat="43.25815" lon="2.12055">
        <ele>126</ele>
        <time>2019-05-13T20:45:28.355Z</time>
      </trkpt>
      <trkpt lat="43.25568" lon="2.12654">
        <ele>126</ele>
        <time>2019-05-13T20:47:34.320Z</time>
      </trkpt>
      <trkpt lat="43.25566" lon="2.12661">
        <ele>126</ele>
        <time>2019-05-13T20:47:35.809Z</time>
      </trkpt>
      <trkpt lat="43.25562" lon="2.1267">
        <ele>126</ele>
        <time>2019-05-13T20:47:37.772Z</time>
      </trkpt>
      <trkpt lat="43.25539" lon="2.12731">
        <ele>126</ele>
        <time>2019-05-13T20:47:50.678Z</time>
      </trkpt>
      <trkpt lat="43.25532" lon="2.12742">
        <ele>126</ele>
        <time>2019-05-13T20:47:54.762Z</time>
      </trkpt>
      <trkpt lat="43.25056" lon="2.13867">
        <ele>127</ele>
        <time>2019-05-13T20:53:46.790Z</time>
      </trkpt>
      <trkpt lat="43.25003" lon="2.13989">
        <ele>127</ele>
        <time>2019-05-13T20:54:25.354Z</time>
      </trkpt>
      <trkpt lat="43.2499" lon="2.14019">
        <ele>126</ele>
        <time>2019-05-13T20:54:35.084Z</time>
      </trkpt>
      <trkpt lat="43.24943" lon="2.14116">
        <ele>125</ele>
        <time>2019-05-13T20:55:08.101Z</time>
      </trkpt>
      <trkpt lat="43.24921" lon="2.14152">
        <ele>126</ele>
        <time>2019-05-13T20:55:21.659Z</time>
      </trkpt>
      <trkpt lat="43.24743" lon="2.14462">
        <ele>127</ele>
        <time>2019-05-13T20:57:10.131Z</time>
      </trkpt>
      <trkpt lat="43.24524" lon="2.14845">
        <ele>127</ele>
        <time>2019-05-13T20:59:19.587Z</time>
      </trkpt>
      <trkpt lat="43.24489" lon="2.1491">
        <ele>128</ele>
        <time>2019-05-13T20:59:40.966Z</time>
      </trkpt>
      <trkpt lat="43.24473" lon="2.14982">
        <ele>127</ele>
        <time>2019-05-13T21:00:00.741Z</time>
      </trkpt>
      <trkpt lat="43.24469" lon="2.14994">
        <ele>127</ele>
        <time>2019-05-13T21:00:04.155Z</time>
      </trkpt>
      <trkpt lat="43.24446" lon="2.15176">
        <ele>126</ele>
        <time>2019-05-13T21:00:52.816Z</time>
      </trkpt>
      <trkpt lat="43.24443" lon="2.15286">
        <ele>125</ele>
        <time>2019-05-13T21:01:22.271Z</time>
      </trkpt>
      <trkpt lat="43.24454" lon="2.15401">
        <ele>125</ele>
        <time>2019-05-13T21:01:53.658Z</time>
      </trkpt>
      <trkpt lat="43.24452" lon="2.15478">
        <ele>126</ele>
        <time>2019-05-13T21:02:14.717Z</time>
      </trkpt>
      <trkpt lat="43.2444" lon="2.15541">
        <ele>126</ele>
        <time>2019-05-13T21:02:32.684Z</time>
      </trkpt>
      <trkpt lat="43.24423" lon="2.15619">
        <ele>126</ele>
        <time>2019-05-13T21:02:55.615Z</time>
      </trkpt>
      <trkpt lat="43.24418" lon="2.15643">
        <ele>127</ele>
        <time>2019-05-13T21:03:02.432Z</time>
      </trkpt>
      <trkpt lat="43.24418" lon="2.15651">
        <ele>127</ele>
        <time>2019-05-13T21:03:04.851Z</time>
      </trkpt>
      <trkpt lat="43.24419" lon="2.15665">
        <ele>128</ele>
        <time>2019-05-13T21:03:08.810Z</time>
      </trkpt>
      <trkpt lat="43.24408" lon="2.157">
        <ele>127</ele>
        <time>2019-05-13T21:03:19.412Z</time>
      </trkpt>
      <trkpt lat="43.24373" lon="2.15808">
        <ele>127</ele>
        <time>2019-05-13T21:03:52.163Z</time>
      </trkpt>
      <trkpt lat="43.24304" lon="2.15928">
        <ele>127</ele>
        <time>2019-05-13T21:04:32.965Z</time>
      </trkpt>
      <trkpt lat="43.24289" lon="2.15937">
        <ele>127</ele>
        <time>2019-05-13T21:04:38.620Z</time>
      </trkpt>
      <trkpt lat="43.24275" lon="2.15971">
        <ele>127</ele>
        <time>2019-05-13T21:04:48.677Z</time>
      </trkpt>
      <trkpt lat="43.24177" lon="2.16115">
        <ele>126</ele>
        <time>2019-05-13T21:05:39.278Z</time>
      </trkpt>
      <trkpt lat="43.24127" lon="2.16233">
        <ele>125</ele>
        <time>2019-05-13T21:06:14.648Z</time>
      </trkpt>
      <trkpt lat="43.24077" lon="2.16482">
        <ele>126</ele>
        <time>2019-05-13T21:07:23.844Z</time>
      </trkpt>
      <trkpt lat="43.24054" lon="2.16543">
        <ele>125</ele>
        <time>2019-05-13T21:07:42.897Z</time>
      </trkpt>
      <trkpt lat="43.2401" lon="2.16658">
        <ele>126</ele>
        <time>2019-05-13T21:08:18.918Z</time>
      </trkpt>
      <trkpt lat="43.23955" lon="2.16787">
        <ele>126</ele>
        <time>2019-05-13T21:08:59.101Z</time>
      </trkpt>
      <trkpt lat="43.23954" lon="2.16799">
        <ele>126</ele>
        <time>2019-05-13T21:09:02.234Z</time>
      </trkpt>
      <trkpt lat="43.23952" lon="2.16816">
        <ele>126</ele>
        <time>2019-05-13T21:09:07.016Z</time>
      </trkpt>
      <trkpt lat="43.2395" lon="2.16855">
        <ele>125</ele>
        <time>2019-05-13T21:09:18.125Z</time>
      </trkpt>
      <trkpt lat="43.23949" lon="2.16894">
        <ele>124</ele>
        <time>2019-05-13T21:09:28.821Z</time>
      </trkpt>
      <trkpt lat="43.2394" lon="2.16893">
        <ele>124</ele>
        <time>2019-05-13T21:09:31.006Z</time>
      </trkpt>
      <trkpt lat="43.2394" lon="2.16874">
        <ele>125</ele>
        <time>2019-05-13T21:09:34.467Z</time>
      </trkpt>
      <trkpt lat="43.23939" lon="2.16838">
        <ele>125</ele>
        <time>2019-05-13T21:09:40.244Z</time>
      </trkpt>
      <trkpt lat="43.23936" lon="2.16821">
        <ele>126</ele>
        <time>2019-05-13T21:09:43.594Z</time>
      </trkpt>
      <trkpt lat="43.23935" lon="2.16816">
        <ele>126</ele>
        <time>2019-05-13T21:09:44.376Z</time>
      </trkpt>
      <trkpt lat="43.23925" lon="2.16768">
        <ele>127</ele>
        <time>2019-05-13T21:09:52.833Z</time>
      </trkpt>
      <trkpt lat="43.23922" lon="2.16751">
        <ele>128</ele>
        <time>2019-05-13T21:09:55.915Z</time>
      </trkpt>
      <trkpt lat="43.2392" lon="2.16736">
        <ele>128</ele>
        <time>2019-05-13T21:09:58.805Z</time>
      </trkpt>
      <trkpt lat="43.23919" lon="2.16727">
        <ele>128</ele>
        <time>2019-05-13T21:10:00.610Z</time>
      </trkpt>
      <trkpt lat="43.23915" lon="2.16728">
        <ele>128</ele>
        <time>2019-05-13T21:10:01.512Z</time>
      </trkpt>
      <trkpt lat="43.23909" lon="2.16726">
        <ele>127</ele>
        <time>2019-05-13T21:10:02.794Z</time>
      </trkpt>
      <trkpt lat="43.23906" lon="2.16735">
        <ele>128</ele>
        <time>2019-05-13T21:10:04.835Z</time>
      </trkpt>
      <trkpt lat="43.23898" lon="2.16791">
        <ele>127</ele>
        <time>2019-05-13T21:10:16.228Z</time>
      </trkpt>
      <trkpt lat="43.23809" lon="2.16914">
        <ele>128</ele>
        <time>2019-05-13T21:10:48.122Z</time>
      </trkpt>
      <trkpt lat="43.23772" lon="2.16985">
        <ele>127</ele>
        <time>2019-05-13T21:11:03.491Z</time>
      </trkpt>
      <trkpt lat="43.23742" lon="2.17094">
        <ele>128</ele>
        <time>2019-05-13T21:11:23.054Z</time>
      </trkpt>
      <trkpt lat="43.2374" lon="2.17322">
        <ele>128</ele>
        <time>2019-05-13T21:11:59.452Z</time>
      </trkpt>
      <trkpt lat="43.23719" lon="2.17432">
        <ele>126</ele>
        <time>2019-05-13T21:12:18.392Z</time>
      </trkpt>
      <trkpt lat="43.2361" lon="2.17655">
        <ele>127</ele>
        <time>2019-05-13T21:13:09.046Z</time>
      </trkpt>
      <trkpt lat="43.23596" lon="2.17667">
        <ele>128</ele>
        <time>2019-05-13T21:13:13.697Z</time>
      </trkpt>
      <trkpt lat="43.23597" lon="2.17679">
        <ele>128</ele>
        <time>2019-05-13T21:13:15.751Z</time>
      </trkpt>
      <trkpt lat="43.23526" lon="2.17997">
        <ele>127</ele>
        <time>2019-05-13T21:14:14.918Z</time>
      </trkpt>
      <trkpt lat="43.2353" lon="2.18007">
        <ele>126</ele>
        <time>2019-05-13T21:14:17.207Z</time>
      </trkpt>
      <trkpt lat="43.23537" lon="2.18013">
        <ele>126</ele>
        <time>2019-05-13T21:14:19.480Z</time>
      </trkpt>
      <trkpt lat="43.23555" lon="2.18021">
        <ele>126</ele>
        <time>2019-05-13T21:14:23.858Z</time>
      </trkpt>
      <trkpt lat="43.2356" lon="2.18023">
        <ele>126</ele>
        <time>2019-05-13T21:14:25.176Z</time>
      </trkpt>
      <trkpt lat="43.23544" lon="2.18102">
        <ele>126</ele>
        <time>2019-05-13T21:14:49.013Z</time>
      </trkpt>
      <trkpt lat="43.23517" lon="2.18262">
        <ele>127</ele>
        <time>2019-05-13T21:15:34.884Z</time>
      </trkpt>
      <trkpt lat="43.23464" lon="2.18465">
        <ele>130</ele>
        <time>2019-05-13T21:16:28.224Z</time>
      </trkpt>
      <trkpt lat="43.23468" lon="2.18507">
        <ele>129</ele>
        <time>2019-05-13T21:16:38.191Z</time>
      </trkpt>
      <trkpt lat="43.23548" lon="2.1867">
        <ele>124</ele>
        <time>2019-05-13T21:17:23.882Z</time>
      </trkpt>
      <trkpt lat="43.2357" lon="2.18759">
        <ele>124</ele>
        <time>2019-05-13T21:17:46.582Z</time>
      </trkpt>
      <trkpt lat="43.23576" lon="2.18827">
        <ele>123</ele>
        <time>2019-05-13T21:18:04.014Z</time>
      </trkpt>
      <trkpt lat="43.23566" lon="2.18934">
        <ele>123</ele>
        <time>2019-05-13T21:18:32.134Z</time>
      </trkpt>
      <trkpt lat="43.23542" lon="2.19003">
        <ele>123</ele>
        <time>2019-05-13T21:18:53.060Z</time>
      </trkpt>
      <trkpt lat="43.235" lon="2.19125">
        <ele>124</ele>
        <time>2019-05-13T21:19:30.663Z</time>
      </trkpt>
      <trkpt lat="43.23493" lon="2.19205">
        <ele>124</ele>
        <time>2019-05-13T21:19:53.477Z</time>
      </trkpt>
      <trkpt lat="43.23522" lon="2.19488">
        <ele>124</ele>
        <time>2019-05-13T21:21:14.427Z</time>
      </trkpt>
      <trkpt lat="43.23512" lon="2.19575">
        <ele>125</ele>
        <time>2019-05-13T21:21:37.848Z</time>
      </trkpt>
      <trkpt lat="43.23477" lon="2.19717">
        <ele>125</ele>
        <time>2019-05-13T21:22:16.862Z</time>
      </trkpt>
      <trkpt lat="43.23353" lon="2.20065">
        <ele>124</ele>
        <time>2019-05-13T21:23:58.073Z</time>
      </trkpt>
      <trkpt lat="43.23325" lon="2.20175">
        <ele>124</ele>
        <time>2019-05-13T21:24:29.694Z</time>
      </trkpt>
      <trkpt lat="43.23299" lon="2.20382">
        <ele>124</ele>
        <time>2019-05-13T21:25:28.374Z</time>
      </trkpt>
      <trkpt lat="43.23303" lon="2.20443">
        <ele>124</ele>
        <time>2019-05-13T21:25:45.452Z</time>
      </trkpt>
      <trkpt lat="43.23306" lon="2.2046">
        <ele>124</ele>
        <time>2019-05-13T21:25:50.393Z</time>
      </trkpt>
      <trkpt lat="43.23307" lon="2.20463">
        <ele>124</ele>
        <time>2019-05-13T21:25:51.502Z</time>
      </trkpt>
      <trkpt lat="43.23321" lon="2.20505">
        <ele>125</ele>
        <time>2019-05-13T21:26:04.430Z</time>
      </trkpt>
      <trkpt lat="43.23416" lon="2.20666">
        <ele>128</ele>
        <time>2019-05-13T21:27:01.844Z</time>
      </trkpt>
      <trkpt lat="43.2344" lon="2.20682">
        <ele>127</ele>
        <time>2019-05-13T21:27:11.654Z</time>
      </trkpt>
      <trkpt lat="43.2355" lon="2.20658">
        <ele>124</ele>
        <time>2019-05-13T21:27:52.850Z</time>
      </trkpt>
      <trkpt lat="43.23591" lon="2.20665">
        <ele>124</ele>
        <time>2019-05-13T21:28:07.992Z</time>
      </trkpt>
      <trkpt lat="43.23772" lon="2.20715">
        <ele>122</ele>
        <time>2019-05-13T21:29:17.000Z</time>
      </trkpt>
      <trkpt lat="43.23801" lon="2.20743">
        <ele>122</ele>
        <time>2019-05-13T21:29:30.455Z</time>
      </trkpt>
      <trkpt lat="43.23806" lon="2.20772">
        <ele>123</ele>
        <time>2019-05-13T21:29:38.792Z</time>
      </trkpt>
      <trkpt lat="43.23794" lon="2.20841">
        <ele>123</ele>
        <time>2019-05-13T21:29:58.336Z</time>
      </trkpt>
      <trkpt lat="43.23739" lon="2.21013">
        <ele>125</ele>
        <time>2019-05-13T21:30:50.341Z</time>
      </trkpt>
      <trkpt lat="43.23688" lon="2.21241">
        <ele>125</ele>
        <time>2019-05-13T21:31:54.576Z</time>
      </trkpt>
      <trkpt lat="43.23669" lon="2.21285">
        <ele>124</ele>
        <time>2019-05-13T21:32:07.716Z</time>
      </trkpt>
      <trkpt lat="43.23654" lon="2.21302">
        <ele>127</ele>
        <time>2019-05-13T21:32:14.544Z</time>
      </trkpt>
      <trkpt lat="43.23648" lon="2.21304">
        <ele>127</ele>
        <time>2019-05-13T21:32:16.737Z</time>
      </trkpt>
      <trkpt lat="43.23631" lon="2.2132">
        <ele>127</ele>
        <time>2019-05-13T21:32:24.092Z</time>
      </trkpt>
      <trkpt lat="43.23608" lon="2.21345">
        <ele>126</ele>
        <time>2019-05-13T21:32:34.252Z</time>
      </trkpt>
      <trkpt lat="43.23557" lon="2.214">
        <ele>125</ele>
        <time>2019-05-13T21:32:56.655Z</time>
      </trkpt>
      <trkpt lat="43.23533" lon="2.21438">
        <ele>124</ele>
        <time>2019-05-13T21:33:09.489Z</time>
      </trkpt>
      <trkpt lat="43.2352" lon="2.2152">
        <ele>123</ele>
        <time>2019-05-13T21:33:31.618Z</time>
      </trkpt>
      <trkpt lat="43.23532" lon="2.21566">
        <ele>123</ele>
        <time>2019-05-13T21:33:44.730Z</time>
      </trkpt>
      <trkpt lat="43.23553" lon="2.21597">
        <ele>124</ele>
        <time>2019-05-13T21:33:56.287Z</time>
      </trkpt>
      <trkpt lat="43.23655" lon="2.21601">
        <ele>122</ele>
        <time>2019-05-13T21:34:34.697Z</time>
      </trkpt>
      <trkpt lat="43.23679" lon="2.21616">
        <ele>121</ele>
        <time>2019-05-13T21:34:44.911Z</time>
      </trkpt>
      <trkpt lat="43.23696" lon="2.21654">
        <ele>122</ele>
        <time>2019-05-13T21:34:57.303Z</time>
      </trkpt>
      <trkpt lat="43.23695" lon="2.21697">
        <ele>123</ele>
        <time>2019-05-13T21:35:09.332Z</time>
      </trkpt>
      <trkpt lat="43.23633" lon="2.21865">
        <ele>126</ele>
        <time>2019-05-13T21:36:00.837Z</time>
      </trkpt>
      <trkpt lat="43.23635" lon="2.21894">
        <ele>126</ele>
        <time>2019-05-13T21:36:08.758Z</time>
      </trkpt>
      <trkpt lat="43.23656" lon="2.21918">
        <ele>125</ele>
        <time>2019-05-13T21:36:18.681Z</time>
      </trkpt>
      <trkpt lat="43.23748" lon="2.21936">
        <ele>123</ele>
        <time>2019-05-13T21:36:52.486Z</time>
      </trkpt>
      <trkpt lat="43.23773" lon="2.21972">
        <ele>121</ele>
        <time>2019-05-13T21:37:05.856Z</time>
      </trkpt>
      <trkpt lat="43.23795" lon="2.22041">
        <ele>121</ele>
        <time>2019-05-13T21:37:25.926Z</time>
      </trkpt>
      <trkpt lat="43.23803" lon="2.22111">
        <ele>122</ele>
        <time>2019-05-13T21:37:44.893Z</time>
      </trkpt>
      <trkpt lat="43.23794" lon="2.22183">
        <ele>124</ele>
        <time>2019-05-13T21:38:04.654Z</time>
      </trkpt>
      <trkpt lat="43.23766" lon="2.22249">
        <ele>125</ele>
        <time>2019-05-13T21:38:25.145Z</time>
      </trkpt>
      <trkpt lat="43.23724" lon="2.22314">
        <ele>125</ele>
        <time>2019-05-13T21:38:48.461Z</time>
      </trkpt>
      <trkpt lat="43.23569" lon="2.22458">
        <ele>125</ele>
        <time>2019-05-13T21:39:57.076Z</time>
      </trkpt>
      <trkpt lat="43.23536" lon="2.22494">
        <ele>126</ele>
        <time>2019-05-13T21:40:12.612Z</time>
      </trkpt>
      <trkpt lat="43.2345" lon="2.22588">
        <ele>123</ele>
        <time>2019-05-13T21:40:52.497Z</time>
      </trkpt>
      <trkpt lat="43.23419" lon="2.22634">
        <ele>123</ele>
        <time>2019-05-13T21:41:09.152Z</time>
      </trkpt>
      <trkpt lat="43.23351" lon="2.22732">
        <ele>124</ele>
        <time>2019-05-13T21:41:45.949Z</time>
      </trkpt>
      <trkpt lat="43.23276" lon="2.22848">
        <ele>124</ele>
        <time>2019-05-13T21:42:28.093Z</time>
      </trkpt>
      <trkpt lat="43.23256" lon="2.22898">
        <ele>124</ele>
        <time>2019-05-13T21:42:43.504Z</time>
      </trkpt>
      <trkpt lat="43.23269" lon="2.22959">
        <ele>124</ele>
        <time>2019-05-13T21:43:00.403Z</time>
      </trkpt>
      <trkpt lat="43.23301" lon="2.22996">
        <ele>123</ele>
        <time>2019-05-13T21:43:15.475Z</time>
      </trkpt>
      <trkpt lat="43.23303" lon="2.23003">
        <ele>123</ele>
        <time>2019-05-13T21:43:17.760Z</time>
      </trkpt>
      <trkpt lat="43.23307" lon="2.23005">
        <ele>123</ele>
        <time>2019-05-13T21:43:18.598Z</time>
      </trkpt>
      <trkpt lat="43.2336" lon="2.23094">
        <ele>121</ele>
        <time>2019-05-13T21:43:36.429Z</time>
      </trkpt>
      <trkpt lat="43.23367" lon="2.23117">
        <ele>121</ele>
        <time>2019-05-13T21:43:40.175Z</time>
      </trkpt>
      <trkpt lat="43.23365" lon="2.23122">
        <ele>121</ele>
        <time>2019-05-13T21:43:41.195Z</time>
      </trkpt>
      <trkpt lat="43.23362" lon="2.23242">
        <ele>123</ele>
        <time>2019-05-13T21:44:02.306Z</time>
      </trkpt>
      <trkpt lat="43.23344" lon="2.233">
        <ele>123</ele>
        <time>2019-05-13T21:44:13.601Z</time>
      </trkpt>
      <trkpt lat="43.23322" lon="2.23341">
        <ele>123</ele>
        <time>2019-05-13T21:44:28.087Z</time>
      </trkpt>
      <trkpt lat="43.23233" lon="2.23417">
        <ele>124</ele>
        <time>2019-05-13T21:45:08.451Z</time>
      </trkpt>
      <trkpt lat="43.23178" lon="2.23494">
        <ele>125</ele>
        <time>2019-05-13T21:45:38.885Z</time>
      </trkpt>
      <trkpt lat="43.23013" lon="2.23806">
        <ele>126</ele>
        <time>2019-05-13T21:47:26.519Z</time>
      </trkpt>
      <trkpt lat="43.22934" lon="2.23979">
        <ele>126</ele>
        <time>2019-05-13T21:48:22.681Z</time>
      </trkpt>
      <trkpt lat="43.22916" lon="2.24083">
        <ele>126</ele>
        <time>2019-05-13T21:48:51.820Z</time>
      </trkpt>
      <trkpt lat="43.22936" lon="2.24281">
        <ele>124</ele>
        <time>2019-05-13T21:49:46.131Z</time>
      </trkpt>
      <trkpt lat="43.22939" lon="2.24311">
        <ele>124</ele>
        <time>2019-05-13T21:49:54.105Z</time>
      </trkpt>
      <trkpt lat="43.22916" lon="2.24486">
        <ele>125</ele>
        <time>2019-05-13T21:50:41.056Z</time>
      </trkpt>
      <trkpt lat="43.2292" lon="2.24514">
        <ele>125</ele>
        <time>2019-05-13T21:50:48.416Z</time>
      </trkpt>
      <trkpt lat="43.2295" lon="2.24549">
        <ele>124</ele>
        <time>2019-05-13T21:51:02.350Z</time>
      </trkpt>
      <trkpt lat="43.22986" lon="2.24549">
        <ele>124</ele>
        <time>2019-05-13T21:51:15.145Z</time>
      </trkpt>
      <trkpt lat="43.23018" lon="2.24536">
        <ele>124</ele>
        <time>2019-05-13T21:51:27.122Z</time>
      </trkpt>
      <trkpt lat="43.23135" lon="2.24451">
        <ele>123</ele>
        <time>2019-05-13T21:52:16.002Z</time>
      </trkpt>
      <trkpt lat="43.23344" lon="2.24381">
        <ele>123</ele>
        <time>2019-05-13T21:53:37.216Z</time>
      </trkpt>
      <trkpt lat="43.23388" lon="2.24386">
        <ele>123</ele>
        <time>2019-05-13T21:53:53.600Z</time>
      </trkpt>
      <trkpt lat="43.2344" lon="2.24433">
        <ele>122</ele>
        <time>2019-05-13T21:54:16.184Z</time>
      </trkpt>
      <trkpt lat="43.23503" lon="2.24602">
        <ele>120</ele>
        <time>2019-05-13T21:55:05.815Z</time>
      </trkpt>
      <trkpt lat="43.23544" lon="2.24808">
        <ele>122</ele>
        <time>2019-05-13T21:56:01.754Z</time>
      </trkpt>
      <trkpt lat="43.23558" lon="2.24997">
        <ele>122</ele>
        <time>2019-05-13T21:56:51.041Z</time>
      </trkpt>
      <trkpt lat="43.2353" lon="2.25161">
        <ele>122</ele>
        <time>2019-05-13T21:57:34.202Z</time>
      </trkpt>
      <trkpt lat="43.23532" lon="2.25227">
        <ele>122</ele>
        <time>2019-05-13T21:57:50.938Z</time>
      </trkpt>
      <trkpt lat="43.23562" lon="2.25266">
        <ele>122</ele>
        <time>2019-05-13T21:58:05.710Z</time>
      </trkpt>
      <trkpt lat="43.23607" lon="2.25272">
        <ele>122</ele>
        <time>2019-05-13T21:58:22.294Z</time>
      </trkpt>
      <trkpt lat="43.23641" lon="2.2527">
        <ele>122</ele>
        <time>2019-05-13T21:58:35.157Z</time>
      </trkpt>
      <trkpt lat="43.23675" lon="2.25256">
        <ele>123</ele>
        <time>2019-05-13T21:58:48.351Z</time>
      </trkpt>
      <trkpt lat="43.23847" lon="2.25111">
        <ele>123</ele>
        <time>2019-05-13T22:00:07.960Z</time>
      </trkpt>
      <trkpt lat="43.23893" lon="2.25091">
        <ele>123</ele>
        <time>2019-05-13T22:00:26.782Z</time>
      </trkpt>
      <trkpt lat="43.23948" lon="2.25096">
        <ele>122</ele>
        <time>2019-05-13T22:00:47.791Z</time>
      </trkpt>
      <trkpt lat="43.23967" lon="2.25107">
        <ele>122</ele>
        <time>2019-05-13T22:00:55.329Z</time>
      </trkpt>
      <trkpt lat="43.23984" lon="2.2515">
        <ele>122</ele>
        <time>2019-05-13T22:01:08.533Z</time>
      </trkpt>
      <trkpt lat="43.23981" lon="2.25262">
        <ele>123</ele>
        <time>2019-05-13T22:01:37.346Z</time>
      </trkpt>
      <trkpt lat="43.23999" lon="2.25337">
        <ele>122</ele>
        <time>2019-05-13T22:01:56.795Z</time>
      </trkpt>
      <trkpt lat="43.24028" lon="2.25369">
        <ele>121</ele>
        <time>2019-05-13T22:02:09.229Z</time>
      </trkpt>
      <trkpt lat="43.24071" lon="2.25387">
        <ele>121</ele>
        <time>2019-05-13T22:02:24.625Z</time>
      </trkpt>
      <trkpt lat="43.24105" lon="2.25377">
        <ele>121</ele>
        <time>2019-05-13T22:02:36.200Z</time>
      </trkpt>
      <trkpt lat="43.24162" lon="2.25224">
        <ele>121</ele>
        <time>2019-05-13T22:03:20.120Z</time>
      </trkpt>
      <trkpt lat="43.24175" lon="2.25208">
        <ele>121</ele>
        <time>2019-05-13T22:03:26.682Z</time>
      </trkpt>
      <trkpt lat="43.24209" lon="2.25196">
        <ele>121</ele>
        <time>2019-05-13T22:03:39.546Z</time>
      </trkpt>
      <trkpt lat="43.24247" lon="2.2522">
        <ele>121</ele>
        <time>2019-05-13T22:03:55.375Z</time>
      </trkpt>
      <trkpt lat="43.24255" lon="2.25257">
        <ele>120</ele>
        <time>2019-05-13T22:04:06.244Z</time>
      </trkpt>
      <trkpt lat="43.2424" lon="2.25382">
        <ele>121</ele>
        <time>2019-05-13T22:04:41.850Z</time>
      </trkpt>
      <trkpt lat="43.24297" lon="2.25504">
        <ele>121</ele>
        <time>2019-05-13T22:05:22.759Z</time>
      </trkpt>
      <trkpt lat="43.243" lon="2.25561">
        <ele>122</ele>
        <time>2019-05-13T22:05:39.169Z</time>
      </trkpt>
      <trkpt lat="43.24305" lon="2.25674">
        <ele>121</ele>
        <time>2019-05-13T22:06:11.463Z</time>
      </trkpt>
      <trkpt lat="43.24295" lon="2.25771">
        <ele>120</ele>
        <time>2019-05-13T22:06:39.738Z</time>
      </trkpt>
      <trkpt lat="43.24248" lon="2.25958">
        <ele>124</ele>
        <time>2019-05-13T22:07:35.664Z</time>
      </trkpt>
      <trkpt lat="43.24174" lon="2.26169">
        <ele>123</ele>
        <time>2019-05-13T22:08:38.934Z</time>
      </trkpt>
      <trkpt lat="43.24173" lon="2.26203">
        <ele>122</ele>
        <time>2019-05-13T22:08:47.653Z</time>
      </trkpt>
      <trkpt lat="43.24206" lon="2.26318">
        <ele>122</ele>
        <time>2019-05-13T22:09:17.475Z</time>
      </trkpt>
      <trkpt lat="43.24214" lon="2.26338">
        <ele>121</ele>
        <time>2019-05-13T22:09:22.865Z</time>
      </trkpt>
      <trkpt lat="43.24236" lon="2.26383">
        <ele>121</ele>
        <time>2019-05-13T22:09:35.512Z</time>
      </trkpt>
      <trkpt lat="43.24237" lon="2.26385">
        <ele>121</ele>
        <time>2019-05-13T22:09:36.187Z</time>
      </trkpt>
      <trkpt lat="43.24241" lon="2.26391">
        <ele>121</ele>
        <time>2019-05-13T22:09:37.905Z</time>
      </trkpt>
      <trkpt lat="43.24249" lon="2.26384">
        <ele>121</ele>
        <time>2019-05-13T22:09:39.616Z</time>
      </trkpt>
      <trkpt lat="43.24367" lon="2.26266">
        <ele>117</ele>
        <time>2019-05-13T22:10:05.044Z</time>
      </trkpt>
      <trkpt lat="43.24468" lon="2.26292">
        <ele>116</ele>
        <time>2019-05-13T22:10:25.328Z</time>
      </trkpt>
      <trkpt lat="43.24486" lon="2.26288">
        <ele>115</ele>
        <time>2019-05-13T22:10:28.931Z</time>
      </trkpt>
      <trkpt lat="43.24489" lon="2.26299">
        <ele>116</ele>
        <time>2019-05-13T22:10:31.775Z</time>
      </trkpt>
      <trkpt lat="43.24509" lon="2.26332">
        <ele>116</ele>
        <time>2019-05-13T22:10:41.384Z</time>
      </trkpt>
      <trkpt lat="43.2451" lon="2.2649">
        <ele>116</ele>
        <time>2019-05-13T22:11:22.740Z</time>
      </trkpt>
      <trkpt lat="43.2451" lon="2.26579">
        <ele>118</ele>
        <time>2019-05-13T22:11:47.219Z</time>
      </trkpt>
      <trkpt lat="43.24505" lon="2.26591">
        <ele>118</ele>
        <time>2019-05-13T22:11:52.316Z</time>
      </trkpt>
      <trkpt lat="43.24481" lon="2.26832">
        <ele>122</ele>
        <time>2019-05-13T22:13:08.871Z</time>
      </trkpt>
      <trkpt lat="43.24498" lon="2.27039">
        <ele>121</ele>
        <time>2019-05-13T22:14:07.978Z</time>
      </trkpt>
      <trkpt lat="43.24448" lon="2.27313">
        <ele>122</ele>
        <time>2019-05-13T22:15:25.188Z</time>
      </trkpt>
      <trkpt lat="43.24445" lon="2.27475">
        <ele>122</ele>
        <time>2019-05-13T22:16:06.514Z</time>
      </trkpt>
      <trkpt lat="43.24432" lon="2.27576">
        <ele>122</ele>
        <time>2019-05-13T22:16:32.389Z</time>
      </trkpt>
      <trkpt lat="43.24284" lon="2.2799">
        <ele>120</ele>
        <time>2019-05-13T22:18:30.611Z</time>
      </trkpt>
      <trkpt lat="43.24198" lon="2.28125">
        <ele>121</ele>
        <time>2019-05-13T22:19:19.141Z</time>
      </trkpt>
      <trkpt lat="43.24174" lon="2.28195">
        <ele>121</ele>
        <time>2019-05-13T22:19:40.182Z</time>
      </trkpt>
      <trkpt lat="43.24055" lon="2.28442">
        <ele>120</ele>
        <time>2019-05-13T22:20:55.732Z</time>
      </trkpt>
      <trkpt lat="43.24044" lon="2.28461">
        <ele>120</ele>
        <time>2019-05-13T22:21:01.722Z</time>
      </trkpt>
      <trkpt lat="43.24036" lon="2.28455">
        <ele>120</ele>
        <time>2019-05-13T22:21:04.820Z</time>
      </trkpt>
      <trkpt lat="43.24013" lon="2.28482">
        <ele>121</ele>
        <time>2019-05-13T22:21:14.733Z</time>
      </trkpt>
      <trkpt lat="43.23729" lon="2.28842">
        <ele>113</ele>
        <time>2019-05-13T22:23:20.171Z</time>
      </trkpt>
      <trkpt lat="43.2372" lon="2.28852">
        <ele>112</ele>
        <time>2019-05-13T22:23:23.723Z</time>
      </trkpt>
      <trkpt lat="43.23722" lon="2.28857">
        <ele>112</ele>
        <time>2019-05-13T22:23:24.511Z</time>
      </trkpt>
      <trkpt lat="43.23466" lon="2.29164">
        <ele>111</ele>
        <time>2019-05-13T22:24:36.527Z</time>
      </trkpt>
      <trkpt lat="43.2342" lon="2.29221">
        <ele>110</ele>
        <time>2019-05-13T22:24:50.152Z</time>
      </trkpt>
      <trkpt lat="43.23417" lon="2.29216">
        <ele>111</ele>
        <time>2019-05-13T22:24:51.308Z</time>
      </trkpt>
      <trkpt lat="43.23385" lon="2.29253">
        <ele>110</ele>
        <time>2019-05-13T22:25:06.345Z</time>
      </trkpt>
      <trkpt lat="43.23181" lon="2.29498">
        <ele>111</ele>
        <time>2019-05-13T22:26:47.553Z</time>
      </trkpt>
      <trkpt lat="43.23139" lon="2.29568">
        <ele>111</ele>
        <time>2019-05-13T22:27:11.788Z</time>
      </trkpt>
      <trkpt lat="43.23057" lon="2.29808">
        <ele>110</ele>
        <time>2019-05-13T22:28:21.272Z</time>
      </trkpt>
      <trkpt lat="43.22962" lon="2.30087">
        <ele>109</ele>
        <time>2019-05-13T22:29:41.613Z</time>
      </trkpt>
      <trkpt lat="43.22954" lon="2.30111">
        <ele>109</ele>
        <time>2019-05-13T22:29:48.398Z</time>
      </trkpt>
      <trkpt lat="43.2295" lon="2.30132">
        <ele>109</ele>
        <time>2019-05-13T22:29:54.213Z</time>
      </trkpt>
      <trkpt lat="43.22749" lon="2.30685">
        <ele>109</ele>
        <time>2019-05-13T22:32:45.245Z</time>
      </trkpt>
      <trkpt lat="43.22665" lon="2.3088">
        <ele>112</ele>
        <time>2019-05-13T22:33:52.281Z</time>
      </trkpt>
      <trkpt lat="43.22688" lon="2.31142">
        <ele>109</ele>
        <time>2019-05-13T22:35:05.670Z</time>
      </trkpt>
      <trkpt lat="43.22682" lon="2.31187">
        <ele>109</ele>
        <time>2019-05-13T22:35:17.575Z</time>
      </trkpt>
      <trkpt lat="43.2262" lon="2.3135">
        <ele>109</ele>
        <time>2019-05-13T22:36:05.180Z</time>
      </trkpt>
      <trkpt lat="43.22619" lon="2.3139">
        <ele>109</ele>
        <time>2019-05-13T22:36:15.652Z</time>
      </trkpt>
      <trkpt lat="43.22611" lon="2.31613">
        <ele>107</ele>
        <time>2019-05-13T22:37:14.814Z</time>
      </trkpt>
      <trkpt lat="43.22625" lon="2.31668">
        <ele>109</ele>
        <time>2019-05-13T22:37:30.828Z</time>
      </trkpt>
      <trkpt lat="43.22701" lon="2.31721">
        <ele>106</ele>
        <time>2019-05-13T22:38:03.401Z</time>
      </trkpt>
      <trkpt lat="43.2272" lon="2.3177">
        <ele>107</ele>
        <time>2019-05-13T22:38:19.279Z</time>
      </trkpt>
      <trkpt lat="43.22732" lon="2.31989">
        <ele>109</ele>
        <time>2019-05-13T22:39:22.626Z</time>
      </trkpt>
      <trkpt lat="43.22735" lon="2.32022">
        <ele>110</ele>
        <time>2019-05-13T22:39:31.674Z</time>
      </trkpt>
      <trkpt lat="43.22744" lon="2.32094">
        <ele>110</ele>
        <time>2019-05-13T22:39:50.985Z</time>
      </trkpt>
      <trkpt lat="43.22737" lon="2.32242">
        <ele>111</ele>
        <time>2019-05-13T22:40:27.777Z</time>
      </trkpt>
      <trkpt lat="43.22638" lon="2.32415">
        <ele>109</ele>
        <time>2019-05-13T22:41:20.042Z</time>
      </trkpt>
      <trkpt lat="43.22536" lon="2.32495">
        <ele>109</ele>
        <time>2019-05-13T22:42:00.491Z</time>
      </trkpt>
      <trkpt lat="43.22477" lon="2.32514">
        <ele>108</ele>
        <time>2019-05-13T22:42:22.289Z</time>
      </trkpt>
      <trkpt lat="43.22381" lon="2.32518">
        <ele>108</ele>
        <time>2019-05-13T22:42:57.998Z</time>
      </trkpt>
      <trkpt lat="43.2235" lon="2.3253">
        <ele>108</ele>
        <time>2019-05-13T22:43:10.178Z</time>
      </trkpt>
      <trkpt lat="43.22328" lon="2.32541">
        <ele>109</ele>
        <time>2019-05-13T22:43:18.942Z</time>
      </trkpt>
      <trkpt lat="43.22311" lon="2.32554">
        <ele>108</ele>
        <time>2019-05-13T22:43:26.300Z</time>
      </trkpt>
      <trkpt lat="43.22253" lon="2.32615">
        <ele>107</ele>
        <time>2019-05-13T22:43:54.029Z</time>
      </trkpt>
      <trkpt lat="43.22182" lon="2.32719">
        <ele>106</ele>
        <time>2019-05-13T22:44:34.195Z</time>
      </trkpt>
      <trkpt lat="43.22076" lon="2.32869">
        <ele>110</ele>
        <time>2019-05-13T22:45:35.486Z</time>
      </trkpt>
      <trkpt lat="43.22073" lon="2.32882">
        <ele>110</ele>
        <time>2019-05-13T22:45:39.612Z</time>
      </trkpt>
      <trkpt lat="43.22059" lon="2.329">
        <ele>110</ele>
        <time>2019-05-13T22:45:44.627Z</time>
      </trkpt>
      <trkpt lat="43.21924" lon="2.33044">
        <ele>111</ele>
        <time>2019-05-13T22:46:25.059Z</time>
      </trkpt>
      <trkpt lat="43.21885" lon="2.33075">
        <ele>111</ele>
        <time>2019-05-13T22:46:34.795Z</time>
      </trkpt>
      <trkpt lat="43.21856" lon="2.33102">
        <ele>111</ele>
        <time>2019-05-13T22:46:42.165Z</time>
      </trkpt>
      <trkpt lat="43.21781" lon="2.33269">
        <ele>108</ele>
        <time>2019-05-13T22:47:12.720Z</time>
      </trkpt>
      <trkpt lat="43.21726" lon="2.33457">
        <ele>109</ele>
        <time>2019-05-13T22:47:47.306Z</time>
      </trkpt>
      <trkpt lat="43.21679" lon="2.33671">
        <ele>109</ele>
        <time>2019-05-13T22:48:28.193Z</time>
      </trkpt>
      <trkpt lat="43.21632" lon="2.33729">
        <ele>109</ele>
        <time>2019-05-13T22:48:44.111Z</time>
      </trkpt>
      <trkpt lat="43.21616" lon="2.3374">
        <ele>109</ele>
        <time>2019-05-13T22:48:48.785Z</time>
      </trkpt>
      <trkpt lat="43.21607" lon="2.33757">
        <ele>110</ele>
        <time>2019-05-13T22:48:52.439Z</time>
      </trkpt>
      <trkpt lat="43.21601" lon="2.33778">
        <ele>110</ele>
        <time>2019-05-13T22:48:56.657Z</time>
      </trkpt>
      <trkpt lat="43.21592" lon="2.33807">
        <ele>110</ele>
        <time>2019-05-13T22:49:02.346Z</time>
      </trkpt>
      <trkpt lat="43.21534" lon="2.33986">
        <ele>111</ele>
        <time>2019-05-13T22:49:38.894Z</time>
      </trkpt>
      <trkpt lat="43.21527" lon="2.34008">
        <ele>111</ele>
        <time>2019-05-13T22:49:44.022Z</time>
      </trkpt>
      <trkpt lat="43.21519" lon="2.34032">
        <ele>111</ele>
        <time>2019-05-13T22:49:49.475Z</time>
      </trkpt>
      <trkpt lat="43.21501" lon="2.34088">
        <ele>110</ele>
        <time>2019-05-13T22:50:02.587Z</time>
      </trkpt>
      <trkpt lat="43.21495" lon="2.34105">
        <ele>111</ele>
        <time>2019-05-13T22:50:06.805Z</time>
      </trkpt>
      <trkpt lat="43.21478" lon="2.3416">
        <ele>112</ele>
        <time>2019-05-13T22:50:20.063Z</time>
      </trkpt>
      <trkpt lat="43.21469" lon="2.3419">
        <ele>113</ele>
        <time>2019-05-13T22:50:27.708Z</time>
      </trkpt>
      <trkpt lat="43.2146" lon="2.345">
        <ele>120</ele>
        <time>2019-05-13T22:51:36.976Z</time>
      </trkpt>
      <trkpt lat="43.2146" lon="2.34513">
        <ele>120</ele>
        <time>2019-05-13T22:51:39.383Z</time>
      </trkpt>
      <trkpt lat="43.21459" lon="2.34523">
        <ele>120</ele>
        <time>2019-05-13T22:51:41.081Z</time>
      </trkpt>
      <trkpt lat="43.21461" lon="2.34608">
        <ele>119</ele>
        <time>2019-05-13T22:51:55.125Z</time>
      </trkpt>
      <trkpt lat="43.21485" lon="2.34663">
        <ele>119</ele>
        <time>2019-05-13T22:52:04.751Z</time>
      </trkpt>
      <trkpt lat="43.215" lon="2.34677">
        <ele>118</ele>
        <time>2019-05-13T22:52:08.255Z</time>
      </trkpt>
      <trkpt lat="43.21503" lon="2.34679">
        <ele>117</ele>
        <time>2019-05-13T22:52:08.789Z</time>
      </trkpt>
      <trkpt lat="43.21511" lon="2.34684">
        <ele>117</ele>
        <time>2019-05-13T22:52:10.559Z</time>
      </trkpt>
      <trkpt lat="43.21506" lon="2.34697">
        <ele>117</ele>
        <time>2019-05-13T22:52:14.184Z</time>
      </trkpt>
      <trkpt lat="43.21492" lon="2.34737">
        <ele>117</ele>
        <time>2019-05-13T22:52:24.829Z</time>
      </trkpt>
      <trkpt lat="43.21491" lon="2.34739">
        <ele>117</ele>
        <time>2019-05-13T22:52:25.396Z</time>
      </trkpt>
      <trkpt lat="43.2149" lon="2.34741">
        <ele>117</ele>
        <time>2019-05-13T22:52:25.861Z</time>
      </trkpt>
      <trkpt lat="43.21501" lon="2.34747">
        <ele>115</ele>
        <time>2019-05-13T22:52:28.032Z</time>
      </trkpt>
      <trkpt lat="43.21641" lon="2.34839">
        <ele>113</ele>
        <time>2019-05-13T22:52:57.633Z</time>
      </trkpt>
      <trkpt lat="43.21636" lon="2.34852">
        <ele>113</ele>
        <time>2019-05-13T22:52:59.697Z</time>
      </trkpt>
      <trkpt lat="43.21632" lon="2.34861">
        <ele>113</ele>
        <time>2019-05-13T22:53:01.621Z</time>
      </trkpt>
      <trkpt lat="43.21641" lon="2.34891">
        <ele>114</ele>
        <time>2019-05-13T22:53:07.759Z</time>
      </trkpt>
      <trkpt lat="43.21648" lon="2.34891">
        <ele>114</ele>
        <time>2019-05-13T22:53:09.424Z</time>
      </trkpt>
      <trkpt lat="43.21651" lon="2.34891">
        <ele>114</ele>
        <time>2019-05-13T22:53:10.231Z</time>
      </trkpt>
      <trkpt lat="43.21652" lon="2.34881">
        <ele>114</ele>
        <time>2019-05-13T22:53:11.707Z</time>
      </trkpt>
      <trkpt lat="43.21658" lon="2.34852">
        <ele>113</ele>
        <time>2019-05-13T22:53:15.842Z</time>
      </trkpt>
      <trkpt lat="43.21662" lon="2.34854">
        <ele>113</ele>
        <time>2019-05-13T22:53:17.014Z</time>
      </trkpt>
      <trkpt lat="43.21677" lon="2.34861">
        <ele>112</ele>
        <time>2019-05-13T22:53:21.199Z</time>
      </trkpt>
      <trkpt lat="43.217" lon="2.34893">
        <ele>112</ele>
        <time>2019-05-13T22:53:29.617Z</time>
      </trkpt>
      <trkpt lat="43.21705" lon="2.34979">
        <ele>111</ele>
        <time>2019-05-13T22:53:46.808Z</time>
      </trkpt>
      <trkpt lat="43.21709" lon="2.35069">
        <ele>110</ele>
        <time>2019-05-13T22:54:04.142Z</time>
      </trkpt>
      <trkpt lat="43.2171" lon="2.35096">
        <ele>110</ele>
        <time>2019-05-13T22:54:08.928Z</time>
      </trkpt>
      <trkpt lat="43.21711" lon="2.3511">
        <ele>110</ele>
        <time>2019-05-13T22:54:11.771Z</time>
      </trkpt>
      <trkpt lat="43.21712" lon="2.3515">
        <ele>110</ele>
        <time>2019-05-13T22:54:19.096Z</time>
      </trkpt>
      <trkpt lat="43.21714" lon="2.35166">
        <ele>110</ele>
        <time>2019-05-13T22:54:22.075Z</time>
      </trkpt>
      <trkpt lat="43.21715" lon="2.35177">
        <ele>110</ele>
        <time>2019-05-13T22:54:24.169Z</time>
      </trkpt>
      <trkpt lat="43.21716" lon="2.35189">
        <ele>110</ele>
        <time>2019-05-13T22:54:26.015Z</time>
      </trkpt>
      <trkpt lat="43.21721" lon="2.35189">
        <ele>110</ele>
        <time>2019-05-13T22:54:26.954Z</time>
      </trkpt>
      <trkpt lat="43.2172" lon="2.352">
        <ele>110</ele>
        <time>2019-05-13T22:54:28.595Z</time>
      </trkpt>
      <trkpt lat="43.21719" lon="2.35219">
        <ele>110</ele>
        <time>2019-05-13T22:54:31.143Z</time>
      </trkpt>
      <trkpt lat="43.21719" lon="2.35225">
        <ele>110</ele>
        <time>2019-05-13T22:54:31.769Z</time>
      </trkpt>
      <trkpt lat="43.21732" lon="2.35278">
        <ele>109</ele>
        <time>2019-05-13T22:54:39.145Z</time>
      </trkpt>
      <trkpt lat="43.21764" lon="2.35332">
        <ele>108</ele>
        <time>2019-05-13T22:54:48.142Z</time>
      </trkpt>
      <trkpt lat="43.21769" lon="2.35349">
        <ele>107</ele>
        <time>2019-05-13T22:54:50.460Z</time>
      </trkpt>
      <trkpt lat="43.21779" lon="2.35355">
        <ele>107</ele>
        <time>2019-05-13T22:54:52.215Z</time>
      </trkpt>
      <trkpt lat="43.21822" lon="2.35383">
        <ele>107</ele>
        <time>2019-05-13T22:55:00.538Z</time>
      </trkpt>
      <trkpt lat="43.21847" lon="2.35399">
        <ele>107</ele>
        <time>2019-05-13T22:55:05.502Z</time>
      </trkpt>
      <trkpt lat="43.21851" lon="2.35402">
        <ele>107</ele>
        <time>2019-05-13T22:55:06.374Z</time>
      </trkpt>
      <trkpt lat="43.21929" lon="2.35457">
        <ele>107</ele>
        <time>2019-05-13T22:55:22.763Z</time>
      </trkpt>
      <trkpt lat="43.21938" lon="2.35463">
        <ele>107</ele>
        <time>2019-05-13T22:55:24.668Z</time>
      </trkpt>
      <trkpt lat="43.22028" lon="2.35527">
        <ele>108</ele>
        <time>2019-05-13T22:55:45.477Z</time>
      </trkpt>
      <trkpt lat="43.22031" lon="2.35517">
        <ele>108</ele>
        <time>2019-05-13T22:55:48.729Z</time>
      </trkpt>
      <trkpt lat="43.22189" lon="2.35633">
        <ele>113</ele>
        <time>2019-05-13T22:56:55.312Z</time>
      </trkpt>
      <trkpt lat="43.22215" lon="2.35665">
        <ele>114</ele>
        <time>2019-05-13T22:57:08.347Z</time>
      </trkpt>
      <trkpt lat="43.22251" lon="2.35748">
        <ele>112</ele>
        <time>2019-05-13T22:57:34.813Z</time>
      </trkpt>
      <trkpt lat="43.22392" lon="2.36243">
        <ele>114</ele>
        <time>2019-05-13T23:00:03.922Z</time>
      </trkpt>
      <trkpt lat="43.22403" lon="2.3634">
        <ele>115</ele>
        <time>2019-05-13T23:00:29.140Z</time>
      </trkpt>
      <trkpt lat="43.22402" lon="2.3639">
        <ele>112</ele>
        <time>2019-05-13T23:00:41.331Z</time>
      </trkpt>
      <trkpt lat="43.22395" lon="2.36651">
        <ele>105</ele>
        <time>2019-05-13T23:01:42.161Z</time>
      </trkpt>
      <trkpt lat="43.22426" lon="2.36748">
        <ele>105</ele>
        <time>2019-05-13T23:02:08.254Z</time>
      </trkpt>
      <trkpt lat="43.2245" lon="2.36788">
        <ele>104</ele>
        <time>2019-05-13T23:02:21.904Z</time>
      </trkpt>
      <trkpt lat="43.22497" lon="2.3683">
        <ele>104</ele>
        <time>2019-05-13T23:02:43.244Z</time>
      </trkpt>
      <trkpt lat="43.2266" lon="2.36878">
        <ele>106</ele>
        <time>2019-05-13T23:03:51.214Z</time>
      </trkpt>
      <trkpt lat="43.22703" lon="2.36904">
        <ele>107</ele>
        <time>2019-05-13T23:04:09.744Z</time>
      </trkpt>
      <trkpt lat="43.22735" lon="2.36943">
        <ele>106</ele>
        <time>2019-05-13T23:04:26.727Z</time>
      </trkpt>
      <trkpt lat="43.22765" lon="2.37029">
        <ele>110</ele>
        <time>2019-05-13T23:04:52.773Z</time>
      </trkpt>
      <trkpt lat="43.22796" lon="2.37302">
        <ele>107</ele>
        <time>2019-05-13T23:06:06.247Z</time>
      </trkpt>
      <trkpt lat="43.2282" lon="2.37375">
        <ele>106</ele>
        <time>2019-05-13T23:06:28.023Z</time>
      </trkpt>
      <trkpt lat="43.22851" lon="2.37428">
        <ele>106</ele>
        <time>2019-05-13T23:06:46.746Z</time>
      </trkpt>
      <trkpt lat="43.22929" lon="2.37508">
        <ele>106</ele>
        <time>2019-05-13T23:07:26.221Z</time>
      </trkpt>
      <trkpt lat="43.22988" lon="2.37529">
        <ele>105</ele>
        <time>2019-05-13T23:07:51.235Z</time>
      </trkpt>
      <trkpt lat="43.23006" lon="2.37536">
        <ele>106</ele>
        <time>2019-05-13T23:07:59.086Z</time>
      </trkpt>
      <trkpt lat="43.23054" lon="2.37535">
        <ele>107</ele>
        <time>2019-05-13T23:08:19.316Z</time>
      </trkpt>
      <trkpt lat="43.23156" lon="2.37488">
        <ele>108</ele>
        <time>2019-05-13T23:09:00.254Z</time>
      </trkpt>
      <trkpt lat="43.23164" lon="2.37484">
        <ele>108</ele>
        <time>2019-05-13T23:09:03.507Z</time>
      </trkpt>
      <trkpt lat="43.23171" lon="2.37481">
        <ele>106</ele>
        <time>2019-05-13T23:09:05.916Z</time>
      </trkpt>
      <trkpt lat="43.23217" lon="2.37461">
        <ele>105</ele>
        <time>2019-05-13T23:09:22.783Z</time>
      </trkpt>
      <trkpt lat="43.2322" lon="2.37459">
        <ele>105</ele>
        <time>2019-05-13T23:09:23.832Z</time>
      </trkpt>
      <trkpt lat="43.23243" lon="2.37447">
        <ele>105</ele>
        <time>2019-05-13T23:09:32.871Z</time>
      </trkpt>
      <trkpt lat="43.23323" lon="2.37409">
        <ele>104</ele>
        <time>2019-05-13T23:10:02.937Z</time>
      </trkpt>
      <trkpt lat="43.23243" lon="2.37447">
        <ele>105</ele>
        <time>2019-05-13T23:10:31.765Z</time>
      </trkpt>
      <trkpt lat="43.2322" lon="2.37459">
        <ele>105</ele>
        <time>2019-05-13T23:10:41.413Z</time>
      </trkpt>
      <trkpt lat="43.23237" lon="2.37456">
        <ele>105</ele>
        <time>2019-05-13T23:10:45.194Z</time>
      </trkpt>
      <trkpt lat="43.23673" lon="2.37253">
        <ele>102</ele>
        <time>2019-05-13T23:12:29.292Z</time>
      </trkpt>
      <trkpt lat="43.23717" lon="2.37263">
        <ele>101</ele>
        <time>2019-05-13T23:12:38.569Z</time>
      </trkpt>
      <trkpt lat="43.23748" lon="2.37296">
        <ele>101</ele>
        <time>2019-05-13T23:12:46.487Z</time>
      </trkpt>
      <trkpt lat="43.23753" lon="2.37302">
        <ele>100</ele>
        <time>2019-05-13T23:12:47.936Z</time>
      </trkpt>
      <trkpt lat="43.23756" lon="2.37305">
        <ele>100</ele>
        <time>2019-05-13T23:12:48.548Z</time>
      </trkpt>
      <trkpt lat="43.23775" lon="2.37344">
        <ele>99</ele>
        <time>2019-05-13T23:12:55.028Z</time>
      </trkpt>
      <trkpt lat="43.23777" lon="2.3735">
        <ele>99</ele>
        <time>2019-05-13T23:12:55.829Z</time>
      </trkpt>
      <trkpt lat="43.23779" lon="2.37355">
        <ele>99</ele>
        <time>2019-05-13T23:12:56.717Z</time>
      </trkpt>
      <trkpt lat="43.23785" lon="2.37371">
        <ele>98</ele>
        <time>2019-05-13T23:13:00.102Z</time>
      </trkpt>
      <trkpt lat="43.23794" lon="2.37394">
        <ele>98</ele>
        <time>2019-05-13T23:13:04.716Z</time>
      </trkpt>
      <trkpt lat="43.23806" lon="2.37426">
        <ele>97</ele>
        <time>2019-05-13T23:13:11.380Z</time>
      </trkpt>
      <trkpt lat="43.23815" lon="2.3745">
        <ele>97</ele>
        <time>2019-05-13T23:13:16.051Z</time>
      </trkpt>
      <trkpt lat="43.23846" lon="2.37515">
        <ele>96</ele>
        <time>2019-05-13T23:13:30.495Z</time>
      </trkpt>
      <trkpt lat="43.23853" lon="2.37531">
        <ele>96</ele>
        <time>2019-05-13T23:13:33.739Z</time>
      </trkpt>
      <trkpt lat="43.23918" lon="2.37665">
        <ele>98</ele>
        <time>2019-05-13T23:13:59.299Z</time>
      </trkpt>
      <trkpt lat="43.24002" lon="2.37842">
        <ele>99</ele>
        <time>2019-05-13T23:14:35.050Z</time>
      </trkpt>
      <trkpt lat="43.24051" lon="2.37936">
        <ele>97</ele>
        <time>2019-05-13T23:14:55.043Z</time>
      </trkpt>
      <trkpt lat="43.24056" lon="2.37948">
        <ele>97</ele>
        <time>2019-05-13T23:14:57.352Z</time>
      </trkpt>
      <trkpt lat="43.24067" lon="2.37976">
        <ele>97</ele>
        <time>2019-05-13T23:15:02.875Z</time>
      </trkpt>
      <trkpt lat="43.24074" lon="2.37999">
        <ele>98</ele>
        <time>2019-05-13T23:15:07.096Z</time>
      </trkpt>
      <trkpt lat="43.24077" lon="2.38008">
        <ele>97</ele>
        <time>2019-05-13T23:15:08.874Z</time>
      </trkpt>
      <trkpt lat="43.24101" lon="2.38044">
        <ele>99</ele>
        <time>2019-05-13T23:15:17.118Z</time>
      </trkpt>
      <trkpt lat="43.24148" lon="2.38105">
        <ele>99</ele>
        <time>2019-05-13T23:15:32.394Z</time>
      </trkpt>
      <trkpt lat="43.24236" lon="2.38235">
        <ele>99</ele>
        <time>2019-05-13T23:16:02.255Z</time>
      </trkpt>
      <trkpt lat="43.24315" lon="2.38378">
        <ele>98</ele>
        <time>2019-05-13T23:16:31.571Z</time>
      </trkpt>
      <trkpt lat="43.24336" lon="2.38436">
        <ele>99</ele>
        <time>2019-05-13T23:16:42.281Z</time>
      </trkpt>
      <trkpt lat="43.24349" lon="2.38507">
        <ele>98</ele>
        <time>2019-05-13T23:16:54.595Z</time>
      </trkpt>
      <trkpt lat="43.24353" lon="2.38676">
        <ele>99</ele>
        <time>2019-05-13T23:17:22.835Z</time>
      </trkpt>
      <trkpt lat="43.24344" lon="2.38741">
        <ele>98</ele>
        <time>2019-05-13T23:17:33.816Z</time>
      </trkpt>
      <trkpt lat="43.24257" lon="2.38915">
        <ele>96</ele>
        <time>2019-05-13T23:18:07.624Z</time>
      </trkpt>
      <trkpt lat="43.24244" lon="2.38956">
        <ele>95</ele>
        <time>2019-05-13T23:18:14.901Z</time>
      </trkpt>
      <trkpt lat="43.24221" lon="2.39118">
        <ele>97</ele>
        <time>2019-05-13T23:18:41.435Z</time>
      </trkpt>
      <trkpt lat="43.24246" lon="2.39372">
        <ele>96</ele>
        <time>2019-05-13T23:19:24.104Z</time>
      </trkpt>
      <trkpt lat="43.24252" lon="2.39407">
        <ele>97</ele>
        <time>2019-05-13T23:19:30.530Z</time>
      </trkpt>
      <trkpt lat="43.24259" lon="2.39432">
        <ele>96</ele>
        <time>2019-05-13T23:19:35.427Z</time>
      </trkpt>
      <trkpt lat="43.24268" lon="2.39452">
        <ele>96</ele>
        <time>2019-05-13T23:19:39.729Z</time>
      </trkpt>
      <trkpt lat="43.24292" lon="2.39481">
        <ele>96</ele>
        <time>2019-05-13T23:19:47.690Z</time>
      </trkpt>
      <trkpt lat="43.24315" lon="2.39504">
        <ele>96</ele>
        <time>2019-05-13T23:19:54.782Z</time>
      </trkpt>
      <trkpt lat="43.24338" lon="2.39528">
        <ele>96</ele>
        <time>2019-05-13T23:20:02.216Z</time>
      </trkpt>
      <trkpt lat="43.24374" lon="2.39583">
        <ele>96</ele>
        <time>2019-05-13T23:20:15.678Z</time>
      </trkpt>
      <trkpt lat="43.24387" lon="2.39684">
        <ele>98</ele>
        <time>2019-05-13T23:20:33.486Z</time>
      </trkpt>
      <trkpt lat="43.24376" lon="2.39752">
        <ele>99</ele>
        <time>2019-05-13T23:20:44.820Z</time>
      </trkpt>
      <trkpt lat="43.24332" lon="2.39909">
        <ele>95</ele>
        <time>2019-05-13T23:21:11.285Z</time>
      </trkpt>
      <trkpt lat="43.24259" lon="2.40336">
        <ele>96</ele>
        <time>2019-05-13T23:22:25.418Z</time>
      </trkpt>
      <trkpt lat="43.24258" lon="2.40468">
        <ele>96</ele>
        <time>2019-05-13T23:22:50.196Z</time>
      </trkpt>
      <trkpt lat="43.24257" lon="2.405">
        <ele>95</ele>
        <time>2019-05-13T23:22:56.466Z</time>
      </trkpt>
      <trkpt lat="43.2424" lon="2.40582">
        <ele>96</ele>
        <time>2019-05-13T23:23:12.646Z</time>
      </trkpt>
      <trkpt lat="43.24203" lon="2.40633">
        <ele>97</ele>
        <time>2019-05-13T23:23:25.843Z</time>
      </trkpt>
      <trkpt lat="43.24113" lon="2.40694">
        <ele>97</ele>
        <time>2019-05-13T23:23:49.721Z</time>
      </trkpt>
      <trkpt lat="43.24045" lon="2.40755">
        <ele>97</ele>
        <time>2019-05-13T23:24:08.072Z</time>
      </trkpt>
      <trkpt lat="43.23879" lon="2.41031">
        <ele>96</ele>
        <time>2019-05-13T23:25:08.534Z</time>
      </trkpt>
      <trkpt lat="43.23804" lon="2.41124">
        <ele>97</ele>
        <time>2019-05-13T23:25:31.792Z</time>
      </trkpt>
      <trkpt lat="43.23556" lon="2.41321">
        <ele>94</ele>
        <time>2019-05-13T23:26:32.989Z</time>
      </trkpt>
      <trkpt lat="43.23539" lon="2.41335">
        <ele>94</ele>
        <time>2019-05-13T23:26:37.245Z</time>
      </trkpt>
      <trkpt lat="43.23524" lon="2.41347">
        <ele>93</ele>
        <time>2019-05-13T23:26:41.412Z</time>
      </trkpt>
      <trkpt lat="43.2332" lon="2.41518">
        <ele>95</ele>
        <time>2019-05-13T23:27:38.940Z</time>
      </trkpt>
      <trkpt lat="43.23214" lon="2.41559">
        <ele>94</ele>
        <time>2019-05-13T23:28:03.895Z</time>
      </trkpt>
      <trkpt lat="43.23134" lon="2.41562">
        <ele>94</ele>
        <time>2019-05-13T23:28:21.273Z</time>
      </trkpt>
      <trkpt lat="43.23095" lon="2.41544">
        <ele>94</ele>
        <time>2019-05-13T23:28:30.366Z</time>
      </trkpt>
      <trkpt lat="43.23024" lon="2.41429">
        <ele>93</ele>
        <time>2019-05-13T23:28:55.539Z</time>
      </trkpt>
      <trkpt lat="43.23011" lon="2.41399">
        <ele>93</ele>
        <time>2019-05-13T23:29:01.624Z</time>
      </trkpt>
      <trkpt lat="43.22992" lon="2.41359">
        <ele>93</ele>
        <time>2019-05-13T23:29:09.640Z</time>
      </trkpt>
      <trkpt lat="43.22914" lon="2.41221">
        <ele>92</ele>
        <time>2019-05-13T23:29:38.495Z</time>
      </trkpt>
      <trkpt lat="43.22879" lon="2.41196">
        <ele>92</ele>
        <time>2019-05-13T23:29:46.884Z</time>
      </trkpt>
      <trkpt lat="43.22798" lon="2.41187">
        <ele>92</ele>
        <time>2019-05-13T23:30:03.998Z</time>
      </trkpt>
      <trkpt lat="43.2274" lon="2.41194">
        <ele>90</ele>
        <time>2019-05-13T23:30:16.021Z</time>
      </trkpt>
      <trkpt lat="43.22627" lon="2.41234">
        <ele>91</ele>
        <time>2019-05-13T23:30:40.027Z</time>
      </trkpt>
      <trkpt lat="43.22469" lon="2.41327">
        <ele>90</ele>
        <time>2019-05-13T23:31:15.600Z</time>
      </trkpt>
      <trkpt lat="43.22384" lon="2.41404">
        <ele>90</ele>
        <time>2019-05-13T23:31:37.125Z</time>
      </trkpt>
      <trkpt lat="43.22263" lon="2.41566">
        <ele>91</ele>
        <time>2019-05-13T23:32:14.370Z</time>
      </trkpt>
      <trkpt lat="43.2217" lon="2.41703">
        <ele>90</ele>
        <time>2019-05-13T23:32:48.806Z</time>
      </trkpt>
      <trkpt lat="43.22066" lon="2.41885">
        <ele>92</ele>
        <time>2019-05-13T23:33:34.795Z</time>
      </trkpt>
      <trkpt lat="43.21915" lon="2.42018">
        <ele>92</ele>
        <time>2019-05-13T23:34:18.894Z</time>
      </trkpt>
      <trkpt lat="43.21637" lon="2.4222">
        <ele>89</ele>
        <time>2019-05-13T23:35:23.551Z</time>
      </trkpt>
      <trkpt lat="43.21627" lon="2.42234">
        <ele>89</ele>
        <time>2019-05-13T23:35:26.484Z</time>
      </trkpt>
      <trkpt lat="43.21619" lon="2.42246">
        <ele>89</ele>
        <time>2019-05-13T23:35:28.951Z</time>
      </trkpt>
      <trkpt lat="43.21605" lon="2.42282">
        <ele>91</ele>
        <time>2019-05-13T23:35:35.420Z</time>
      </trkpt>
      <trkpt lat="43.21591" lon="2.42542">
        <ele>93</ele>
        <time>2019-05-13T23:36:18.988Z</time>
      </trkpt>
      <trkpt lat="43.21566" lon="2.42724">
        <ele>92</ele>
        <time>2019-05-13T23:36:50.835Z</time>
      </trkpt>
      <trkpt lat="43.21518" lon="2.4288">
        <ele>91</ele>
        <time>2019-05-13T23:37:19.854Z</time>
      </trkpt>
      <trkpt lat="43.21452" lon="2.43038">
        <ele>91</ele>
        <time>2019-05-13T23:37:49.613Z</time>
      </trkpt>
      <trkpt lat="43.21418" lon="2.43095">
        <ele>92</ele>
        <time>2019-05-13T23:38:01.430Z</time>
      </trkpt>
      <trkpt lat="43.21403" lon="2.43137">
        <ele>90</ele>
        <time>2019-05-13T23:38:08.932Z</time>
      </trkpt>
      <trkpt lat="43.21384" lon="2.43222">
        <ele>90</ele>
        <time>2019-05-13T23:38:22.752Z</time>
      </trkpt>
      <trkpt lat="43.21382" lon="2.43353">
        <ele>91</ele>
        <time>2019-05-13T23:38:45.290Z</time>
      </trkpt>
      <trkpt lat="43.21395" lon="2.43436">
        <ele>90</ele>
        <time>2019-05-13T23:39:00.862Z</time>
      </trkpt>
      <trkpt lat="43.21401" lon="2.43449">
        <ele>90</ele>
        <time>2019-05-13T23:39:04.185Z</time>
      </trkpt>
      <trkpt lat="43.21454" lon="2.43541">
        <ele>92</ele>
        <time>2019-05-13T23:39:24.130Z</time>
      </trkpt>
      <trkpt lat="43.21462" lon="2.43569">
        <ele>93</ele>
        <time>2019-05-13T23:39:29.550Z</time>
      </trkpt>
      <trkpt lat="43.21465" lon="2.43604">
        <ele>93</ele>
        <time>2019-05-13T23:39:34.984Z</time>
      </trkpt>
      <trkpt lat="43.21434" lon="2.43867">
        <ele>87</ele>
        <time>2019-05-13T23:40:16.633Z</time>
      </trkpt>
      <trkpt lat="43.21433" lon="2.4388">
        <ele>87</ele>
        <time>2019-05-13T23:40:18.425Z</time>
      </trkpt>
      <trkpt lat="43.21436" lon="2.43894">
        <ele>86</ele>
        <time>2019-05-13T23:40:21.572Z</time>
      </trkpt>
      <trkpt lat="43.2144" lon="2.43899">
        <ele>86</ele>
        <time>2019-05-13T23:40:22.952Z</time>
      </trkpt>
      <trkpt lat="43.21444" lon="2.43904">
        <ele>86</ele>
        <time>2019-05-13T23:40:24.600Z</time>
      </trkpt>
      <trkpt lat="43.21455" lon="2.43958">
        <ele>86</ele>
        <time>2019-05-13T23:40:35.697Z</time>
      </trkpt>
      <trkpt lat="43.21451" lon="2.43963">
        <ele>86</ele>
        <time>2019-05-13T23:40:36.824Z</time>
      </trkpt>
      <trkpt lat="43.2145" lon="2.43972">
        <ele>86</ele>
        <time>2019-05-13T23:40:38.265Z</time>
      </trkpt>
      <trkpt lat="43.21451" lon="2.43976">
        <ele>86</ele>
        <time>2019-05-13T23:40:39.283Z</time>
      </trkpt>
      <trkpt lat="43.21454" lon="2.44001">
        <ele>89</ele>
        <time>2019-05-13T23:40:45.186Z</time>
      </trkpt>
      <trkpt lat="43.21437" lon="2.44039">
        <ele>90</ele>
        <time>2019-05-13T23:40:54.935Z</time>
      </trkpt>
      <trkpt lat="43.21286" lon="2.44138">
        <ele>90</ele>
        <time>2019-05-13T23:41:48.123Z</time>
      </trkpt>
      <trkpt lat="43.21235" lon="2.44167">
        <ele>93</ele>
        <time>2019-05-13T23:42:02.927Z</time>
      </trkpt>
      <trkpt lat="43.21142" lon="2.4422">
        <ele>96</ele>
        <time>2019-05-13T23:42:24.967Z</time>
      </trkpt>
      <trkpt lat="43.21121" lon="2.44237">
        <ele>95</ele>
        <time>2019-05-13T23:42:29.386Z</time>
      </trkpt>
      <trkpt lat="43.2108" lon="2.44286">
        <ele>93</ele>
        <time>2019-05-13T23:42:39.484Z</time>
      </trkpt>
      <trkpt lat="43.21039" lon="2.44299">
        <ele>93</ele>
        <time>2019-05-13T23:42:47.189Z</time>
      </trkpt>
      <trkpt lat="43.21035" lon="2.44302">
        <ele>93</ele>
        <time>2019-05-13T23:42:47.858Z</time>
      </trkpt>
      <trkpt lat="43.21033" lon="2.44301">
        <ele>93</ele>
        <time>2019-05-13T23:42:48.079Z</time>
      </trkpt>
      <trkpt lat="43.21005" lon="2.44301">
        <ele>92</ele>
        <time>2019-05-13T23:42:53.739Z</time>
      </trkpt>
      <trkpt lat="43.20996" lon="2.443">
        <ele>90</ele>
        <time>2019-05-13T23:42:55.034Z</time>
      </trkpt>
      <trkpt lat="43.20982" lon="2.44344">
        <ele>89</ele>
        <time>2019-05-13T23:43:02.048Z</time>
      </trkpt>
      <trkpt lat="43.20965" lon="2.44488">
        <ele>89</ele>
        <time>2019-05-13T23:43:25.784Z</time>
      </trkpt>
      <trkpt lat="43.20962" lon="2.4449">
        <ele>89</ele>
        <time>2019-05-13T23:43:27.103Z</time>
      </trkpt>
      <trkpt lat="43.20956" lon="2.44502">
        <ele>91</ele>
        <time>2019-05-13T23:43:29.805Z</time>
      </trkpt>
      <trkpt lat="43.20915" lon="2.44606">
        <ele>92</ele>
        <time>2019-05-13T23:43:50.020Z</time>
      </trkpt>
      <trkpt lat="43.20903" lon="2.44632">
        <ele>92</ele>
        <time>2019-05-13T23:43:55.337Z</time>
      </trkpt>
      <trkpt lat="43.20902" lon="2.44634">
        <ele>92</ele>
        <time>2019-05-13T23:43:55.597Z</time>
      </trkpt>
      <trkpt lat="43.20848" lon="2.44727">
        <ele>93</ele>
        <time>2019-05-13T23:44:13.603Z</time>
      </trkpt>
      <trkpt lat="43.20817" lon="2.44777">
        <ele>90</ele>
        <time>2019-05-13T23:44:22.579Z</time>
      </trkpt>
      <trkpt lat="43.20792" lon="2.44818">
        <ele>89</ele>
        <time>2019-05-13T23:44:29.723Z</time>
      </trkpt>
      <trkpt lat="43.20788" lon="2.44822">
        <ele>89</ele>
        <time>2019-05-13T23:44:30.827Z</time>
      </trkpt>
      <trkpt lat="43.2079" lon="2.44836">
        <ele>91</ele>
        <time>2019-05-13T23:44:32.960Z</time>
      </trkpt>
      <trkpt lat="43.20779" lon="2.44855">
        <ele>90</ele>
        <time>2019-05-13T23:44:37.089Z</time>
      </trkpt>
      <trkpt lat="43.20732" lon="2.44881">
        <ele>86</ele>
        <time>2019-05-13T23:44:49.567Z</time>
      </trkpt>
      <trkpt lat="43.20719" lon="2.44888">
        <ele>86</ele>
        <time>2019-05-13T23:44:52.940Z</time>
      </trkpt>
      <trkpt lat="43.20709" lon="2.44899">
        <ele>86</ele>
        <time>2019-05-13T23:44:55.458Z</time>
      </trkpt>
      <trkpt lat="43.20663" lon="2.4492">
        <ele>83</ele>
        <time>2019-05-13T23:45:05.003Z</time>
      </trkpt>
      <trkpt lat="43.20654" lon="2.44925">
        <ele>84</ele>
        <time>2019-05-13T23:45:06.702Z</time>
      </trkpt>
      <trkpt lat="43.20579" lon="2.44955">
        <ele>82</ele>
        <time>2019-05-13T23:45:22.084Z</time>
      </trkpt>
      <trkpt lat="43.20555" lon="2.44969">
        <ele>82</ele>
        <time>2019-05-13T23:45:27.669Z</time>
      </trkpt>
      <trkpt lat="43.20522" lon="2.45016">
        <ele>85</ele>
        <time>2019-05-13T23:45:37.613Z</time>
      </trkpt>
      <trkpt lat="43.20468" lon="2.45134">
        <ele>85</ele>
        <time>2019-05-13T23:46:01.038Z</time>
      </trkpt>
      <trkpt lat="43.20456" lon="2.45174">
        <ele>87</ele>
        <time>2019-05-13T23:46:08.716Z</time>
      </trkpt>
      <trkpt lat="43.20446" lon="2.45215">
        <ele>87</ele>
        <time>2019-05-13T23:46:21.362Z</time>
      </trkpt>
      <trkpt lat="43.20427" lon="2.4533">
        <ele>86</ele>
        <time>2019-05-13T23:46:56.243Z</time>
      </trkpt>
      <trkpt lat="43.20351" lon="2.45475">
        <ele>88</ele>
        <time>2019-05-13T23:47:50.054Z</time>
      </trkpt>
      <trkpt lat="43.20281" lon="2.45582">
        <ele>86</ele>
        <time>2019-05-13T23:48:30.920Z</time>
      </trkpt>
      <trkpt lat="43.19942" lon="2.46041">
        <ele>86</ele>
        <time>2019-05-13T23:51:20.604Z</time>
      </trkpt>
      <trkpt lat="43.199" lon="2.46123">
        <ele>85</ele>
        <time>2019-05-13T23:51:45.319Z</time>
      </trkpt>
      <trkpt lat="43.19868" lon="2.46205">
        <ele>85</ele>
        <time>2019-05-13T23:52:08.406Z</time>
      </trkpt>
      <trkpt lat="43.19837" lon="2.46309">
        <ele>85</ele>
        <time>2019-05-13T23:52:37.062Z</time>
      </trkpt>
      <trkpt lat="43.19797" lon="2.46464">
        <ele>82</ele>
        <time>2019-05-13T23:53:21.137Z</time>
      </trkpt>
      <trkpt lat="43.1979" lon="2.46523">
        <ele>82</ele>
        <time>2019-05-13T23:53:37.867Z</time>
      </trkpt>
      <trkpt lat="43.19793" lon="2.46755">
        <ele>84</ele>
        <time>2019-05-13T23:54:42.707Z</time>
      </trkpt>
      <trkpt lat="43.19775" lon="2.46954">
        <ele>83</ele>
        <time>2019-05-13T23:55:38.409Z</time>
      </trkpt>
      <trkpt lat="43.19732" lon="2.47227">
        <ele>84</ele>
        <time>2019-05-13T23:56:54.955Z</time>
      </trkpt>
      <trkpt lat="43.19651" lon="2.4756">
        <ele>88</ele>
        <time>2019-05-13T23:58:31.826Z</time>
      </trkpt>
      <trkpt lat="43.19547" lon="2.4799">
        <ele>88</ele>
        <time>2019-05-14T00:00:34.807Z</time>
      </trkpt>
      <trkpt lat="43.19472" lon="2.48106">
        <ele>84</ele>
        <time>2019-05-14T00:01:13.818Z</time>
      </trkpt>
      <trkpt lat="43.19467" lon="2.48119">
        <ele>84</ele>
        <time>2019-05-14T00:01:17.300Z</time>
      </trkpt>
      <trkpt lat="43.19455" lon="2.48157">
        <ele>84</ele>
        <time>2019-05-14T00:01:27.537Z</time>
      </trkpt>
      <trkpt lat="43.19438" lon="2.48251">
        <ele>85</ele>
        <time>2019-05-14T00:01:51.484Z</time>
      </trkpt>
      <trkpt lat="43.19447" lon="2.4848">
        <ele>87</ele>
        <time>2019-05-14T00:02:48.427Z</time>
      </trkpt>
      <trkpt lat="43.19446" lon="2.48637">
        <ele>85</ele>
        <time>2019-05-14T00:03:29.386Z</time>
      </trkpt>
      <trkpt lat="43.1944" lon="2.48749">
        <ele>84</ele>
        <time>2019-05-14T00:03:48.990Z</time>
      </trkpt>
      <trkpt lat="43.19414" lon="2.48881">
        <ele>82</ele>
        <time>2019-05-14T00:04:13.017Z</time>
      </trkpt>
      <trkpt lat="43.19379" lon="2.4898">
        <ele>81</ele>
        <time>2019-05-14T00:04:31.690Z</time>
      </trkpt>
      <trkpt lat="43.19376" lon="2.49066">
        <ele>82</ele>
        <time>2019-05-14T00:04:46.371Z</time>
      </trkpt>
      <trkpt lat="43.19404" lon="2.49183">
        <ele>82</ele>
        <time>2019-05-14T00:05:07.656Z</time>
      </trkpt>
      <trkpt lat="43.19443" lon="2.49262">
        <ele>82</ele>
        <time>2019-05-14T00:05:24.530Z</time>
      </trkpt>
      <trkpt lat="43.19499" lon="2.49315">
        <ele>83</ele>
        <time>2019-05-14T00:05:41.343Z</time>
      </trkpt>
      <trkpt lat="43.1951" lon="2.49338">
        <ele>84</ele>
        <time>2019-05-14T00:05:46.060Z</time>
      </trkpt>
      <trkpt lat="43.19487" lon="2.49514">
        <ele>81</ele>
        <time>2019-05-14T00:06:16.876Z</time>
      </trkpt>
      <trkpt lat="43.19488" lon="2.49523">
        <ele>81</ele>
        <time>2019-05-14T00:06:18.311Z</time>
      </trkpt>
      <trkpt lat="43.19487" lon="2.49536">
        <ele>80</ele>
        <time>2019-05-14T00:06:20.502Z</time>
      </trkpt>
      <trkpt lat="43.19514" lon="2.49803">
        <ele>83</ele>
        <time>2019-05-14T00:07:05.776Z</time>
      </trkpt>
      <trkpt lat="43.19477" lon="2.49995">
        <ele>79</ele>
        <time>2019-05-14T00:07:39.044Z</time>
      </trkpt>
      <trkpt lat="43.19484" lon="2.50114">
        <ele>78</ele>
        <time>2019-05-14T00:07:59.937Z</time>
      </trkpt>
      <trkpt lat="43.19499" lon="2.50217">
        <ele>78</ele>
        <time>2019-05-14T00:08:19.526Z</time>
      </trkpt>
      <trkpt lat="43.19504" lon="2.5024">
        <ele>81</ele>
        <time>2019-05-14T00:08:26.360Z</time>
      </trkpt>
      <trkpt lat="43.19548" lon="2.50371">
        <ele>82</ele>
        <time>2019-05-14T00:09:08.141Z</time>
      </trkpt>
      <trkpt lat="43.1958" lon="2.50503">
        <ele>83</ele>
        <time>2019-05-14T00:09:47.929Z</time>
      </trkpt>
      <trkpt lat="43.19635" lon="2.5056">
        <ele>82</ele>
        <time>2019-05-14T00:10:14.335Z</time>
      </trkpt>
      <trkpt lat="43.19873" lon="2.50807">
        <ele>81</ele>
        <time>2019-05-14T00:12:05.880Z</time>
      </trkpt>
      <trkpt lat="43.19902" lon="2.50967">
        <ele>80</ele>
        <time>2019-05-14T00:12:50.758Z</time>
      </trkpt>
      <trkpt lat="43.19921" lon="2.51031">
        <ele>82</ele>
        <time>2019-05-14T00:13:09.706Z</time>
      </trkpt>
      <trkpt lat="43.20162" lon="2.51424">
        <ele>82</ele>
        <time>2019-05-14T00:15:31.117Z</time>
      </trkpt>
      <trkpt lat="43.20187" lon="2.51484">
        <ele>83</ele>
        <time>2019-05-14T00:15:50.221Z</time>
      </trkpt>
      <trkpt lat="43.20226" lon="2.51632">
        <ele>81</ele>
        <time>2019-05-14T00:16:31.799Z</time>
      </trkpt>
      <trkpt lat="43.2024" lon="2.51726">
        <ele>81</ele>
        <time>2019-05-14T00:16:56.789Z</time>
      </trkpt>
      <trkpt lat="43.20239" lon="2.51816">
        <ele>82</ele>
        <time>2019-05-14T00:17:19.825Z</time>
      </trkpt>
      <trkpt lat="43.20186" lon="2.52084">
        <ele>82</ele>
        <time>2019-05-14T00:18:31.090Z</time>
      </trkpt>
      <trkpt lat="43.20184" lon="2.52295">
        <ele>83</ele>
        <time>2019-05-14T00:19:28.640Z</time>
      </trkpt>
      <trkpt lat="43.2016" lon="2.52375">
        <ele>79</ele>
        <time>2019-05-14T00:19:52.540Z</time>
      </trkpt>
      <trkpt lat="43.20148" lon="2.5249">
        <ele>83</ele>
        <time>2019-05-14T00:20:23.923Z</time>
      </trkpt>
      <trkpt lat="43.20109" lon="2.52671">
        <ele>81</ele>
        <time>2019-05-14T00:21:13.745Z</time>
      </trkpt>
      <trkpt lat="43.20134" lon="2.52834">
        <ele>83</ele>
        <time>2019-05-14T00:21:57.488Z</time>
      </trkpt>
      <trkpt lat="43.20106" lon="2.5306">
        <ele>81</ele>
        <time>2019-05-14T00:22:59.960Z</time>
      </trkpt>
      <trkpt lat="43.20108" lon="2.53191">
        <ele>79</ele>
        <time>2019-05-14T00:23:35.606Z</time>
      </trkpt>
      <trkpt lat="43.20116" lon="2.53233">
        <ele>79</ele>
        <time>2019-05-14T00:23:47.202Z</time>
      </trkpt>
      <trkpt lat="43.20165" lon="2.5328">
        <ele>80</ele>
        <time>2019-05-14T00:24:09.311Z</time>
      </trkpt>
      <trkpt lat="43.20193" lon="2.53339">
        <ele>83</ele>
        <time>2019-05-14T00:24:27.419Z</time>
      </trkpt>
      <trkpt lat="43.20193" lon="2.53378">
        <ele>83</ele>
        <time>2019-05-14T00:24:37.662Z</time>
      </trkpt>
      <trkpt lat="43.20172" lon="2.53485">
        <ele>81</ele>
        <time>2019-05-14T00:25:06.917Z</time>
      </trkpt>
      <trkpt lat="43.20179" lon="2.53532">
        <ele>81</ele>
        <time>2019-05-14T00:25:19.889Z</time>
      </trkpt>
      <trkpt lat="43.20269" lon="2.53833">
        <ele>81</ele>
        <time>2019-05-14T00:26:56.410Z</time>
      </trkpt>
      <trkpt lat="43.20294" lon="2.53874">
        <ele>80</ele>
        <time>2019-05-14T00:27:13.637Z</time>
      </trkpt>
      <trkpt lat="43.20306" lon="2.53887">
        <ele>80</ele>
        <time>2019-05-14T00:27:20.149Z</time>
      </trkpt>
      <trkpt lat="43.20318" lon="2.53898">
        <ele>81</ele>
        <time>2019-05-14T00:27:27.076Z</time>
      </trkpt>
      <trkpt lat="43.20339" lon="2.53907">
        <ele>82</ele>
        <time>2019-05-14T00:27:36.513Z</time>
      </trkpt>
      <trkpt lat="43.20346" lon="2.53908">
        <ele>82</ele>
        <time>2019-05-14T00:27:40.109Z</time>
      </trkpt>
      <trkpt lat="43.20348" lon="2.53902">
        <ele>82</ele>
        <time>2019-05-14T00:27:41.578Z</time>
      </trkpt>
      <trkpt lat="43.20354" lon="2.53874">
        <ele>81</ele>
        <time>2019-05-14T00:27:48.335Z</time>
      </trkpt>
      <trkpt lat="43.20356" lon="2.53868">
        <ele>81</ele>
        <time>2019-05-14T00:27:49.693Z</time>
      </trkpt>
      <trkpt lat="43.20356" lon="2.53866">
        <ele>81</ele>
        <time>2019-05-14T00:27:50.319Z</time>
      </trkpt>
      <trkpt lat="43.20361" lon="2.53868">
        <ele>81</ele>
        <time>2019-05-14T00:27:52.299Z</time>
      </trkpt>
      <trkpt lat="43.20425" lon="2.53907">
        <ele>81</ele>
        <time>2019-05-14T00:28:15.739Z</time>
      </trkpt>
      <trkpt lat="43.20455" lon="2.53962">
        <ele>80</ele>
        <time>2019-05-14T00:28:30.750Z</time>
      </trkpt>
      <trkpt lat="43.20458" lon="2.53969">
        <ele>80</ele>
        <time>2019-05-14T00:28:32.538Z</time>
      </trkpt>
      <trkpt lat="43.20458" lon="2.53974">
        <ele>80</ele>
        <time>2019-05-14T00:28:34.521Z</time>
      </trkpt>
      <trkpt lat="43.20481" lon="2.54082">
        <ele>81</ele>
        <time>2019-05-14T00:29:09.572Z</time>
      </trkpt>
      <trkpt lat="43.20485" lon="2.54323">
        <ele>84</ele>
        <time>2019-05-14T00:30:19.015Z</time>
      </trkpt>
      <trkpt lat="43.20487" lon="2.54438">
        <ele>85</ele>
        <time>2019-05-14T00:30:49.640Z</time>
      </trkpt>
      <trkpt lat="43.2052" lon="2.5478">
        <ele>80</ele>
        <time>2019-05-14T00:32:17.857Z</time>
      </trkpt>
      <trkpt lat="43.20579" lon="2.54985">
        <ele>79</ele>
        <time>2019-05-14T00:33:13.109Z</time>
      </trkpt>
      <trkpt lat="43.20581" lon="2.5499">
        <ele>79</ele>
        <time>2019-05-14T00:33:14.438Z</time>
      </trkpt>
      <trkpt lat="43.20584" lon="2.54991">
        <ele>77</ele>
        <time>2019-05-14T00:33:15.137Z</time>
      </trkpt>
      <trkpt lat="43.20588" lon="2.54993">
        <ele>77</ele>
        <time>2019-05-14T00:33:15.988Z</time>
      </trkpt>
      <trkpt lat="43.20588" lon="2.55002">
        <ele>77</ele>
        <time>2019-05-14T00:33:18.574Z</time>
      </trkpt>
      <trkpt lat="43.2059" lon="2.55016">
        <ele>76</ele>
        <time>2019-05-14T00:33:22.308Z</time>
      </trkpt>
      <trkpt lat="43.2059" lon="2.5509">
        <ele>78</ele>
        <time>2019-05-14T00:33:41.169Z</time>
      </trkpt>
      <trkpt lat="43.2059" lon="2.55095">
        <ele>77</ele>
        <time>2019-05-14T00:33:42.610Z</time>
      </trkpt>
      <trkpt lat="43.20598" lon="2.55292">
        <ele>77</ele>
        <time>2019-05-14T00:34:36.136Z</time>
      </trkpt>
      <trkpt lat="43.20614" lon="2.55454">
        <ele>80</ele>
        <time>2019-05-14T00:35:21.478Z</time>
      </trkpt>
      <trkpt lat="43.20718" lon="2.55675">
        <ele>83</ele>
        <time>2019-05-14T00:36:34.282Z</time>
      </trkpt>
      <trkpt lat="43.2081" lon="2.56024">
        <ele>83</ele>
        <time>2019-05-14T00:38:13.879Z</time>
      </trkpt>
      <trkpt lat="43.20814" lon="2.56081">
        <ele>82</ele>
        <time>2019-05-14T00:38:29.083Z</time>
      </trkpt>
      <trkpt lat="43.20811" lon="2.56127">
        <ele>81</ele>
        <time>2019-05-14T00:38:41.330Z</time>
      </trkpt>
      <trkpt lat="43.20801" lon="2.56177">
        <ele>78</ele>
        <time>2019-05-14T00:38:55.342Z</time>
      </trkpt>
      <trkpt lat="43.20756" lon="2.56318">
        <ele>77</ele>
        <time>2019-05-14T00:39:37.234Z</time>
      </trkpt>
      <trkpt lat="43.20729" lon="2.56378">
        <ele>82</ele>
        <time>2019-05-14T00:39:57.435Z</time>
      </trkpt>
      <trkpt lat="43.20715" lon="2.56498">
        <ele>81</ele>
        <time>2019-05-14T00:40:30.299Z</time>
      </trkpt>
      <trkpt lat="43.20695" lon="2.56571">
        <ele>79</ele>
        <time>2019-05-14T00:40:50.622Z</time>
      </trkpt>
      <trkpt lat="43.20622" lon="2.56827">
        <ele>78</ele>
        <time>2019-05-14T00:42:00.676Z</time>
      </trkpt>
      <trkpt lat="43.20633" lon="2.56865">
        <ele>77</ele>
        <time>2019-05-14T00:42:11.586Z</time>
      </trkpt>
      <trkpt lat="43.20651" lon="2.56892">
        <ele>77</ele>
        <time>2019-05-14T00:42:21.278Z</time>
      </trkpt>
      <trkpt lat="43.20666" lon="2.56934">
        <ele>78</ele>
        <time>2019-05-14T00:42:33.651Z</time>
      </trkpt>
      <trkpt lat="43.20708" lon="2.57082">
        <ele>75</ele>
        <time>2019-05-14T00:43:15.538Z</time>
      </trkpt>
      <trkpt lat="43.20722" lon="2.57203">
        <ele>79</ele>
        <time>2019-05-14T00:43:47.432Z</time>
      </trkpt>
      <trkpt lat="43.20757" lon="2.57316">
        <ele>74</ele>
        <time>2019-05-14T00:44:19.909Z</time>
      </trkpt>
      <trkpt lat="43.20828" lon="2.57419">
        <ele>78</ele>
        <time>2019-05-14T00:44:58.886Z</time>
      </trkpt>
      <trkpt lat="43.20963" lon="2.57756">
        <ele>77</ele>
        <time>2019-05-14T00:46:47.089Z</time>
      </trkpt>
      <trkpt lat="43.20973" lon="2.57938">
        <ele>78</ele>
        <time>2019-05-14T00:47:34.699Z</time>
      </trkpt>
      <trkpt lat="43.21022" lon="2.58104">
        <ele>77</ele>
        <time>2019-05-14T00:48:20.458Z</time>
      </trkpt>
      <trkpt lat="43.21059" lon="2.58302">
        <ele>78</ele>
        <time>2019-05-14T00:49:12.175Z</time>
      </trkpt>
      <trkpt lat="43.21078" lon="2.58408">
        <ele>76</ele>
        <time>2019-05-14T00:49:37.911Z</time>
      </trkpt>
      <trkpt lat="43.21085" lon="2.58452">
        <ele>73</ele>
        <time>2019-05-14T00:49:48.190Z</time>
      </trkpt>
      <trkpt lat="43.21091" lon="2.5848">
        <ele>73</ele>
        <time>2019-05-14T00:49:55.037Z</time>
      </trkpt>
      <trkpt lat="43.21097" lon="2.58492">
        <ele>73</ele>
        <time>2019-05-14T00:49:58.087Z</time>
      </trkpt>
      <trkpt lat="43.2111" lon="2.58521">
        <ele>72</ele>
        <time>2019-05-14T00:50:06.019Z</time>
      </trkpt>
      <trkpt lat="43.21164" lon="2.58726">
        <ele>71</ele>
        <time>2019-05-14T00:50:55.313Z</time>
      </trkpt>
      <trkpt lat="43.21195" lon="2.58911">
        <ele>68</ele>
        <time>2019-05-14T00:51:41.068Z</time>
      </trkpt>
      <trkpt lat="43.2135" lon="2.59262">
        <ele>69</ele>
        <time>2019-05-14T00:53:30.356Z</time>
      </trkpt>
      <trkpt lat="43.21445" lon="2.59405">
        <ele>69</ele>
        <time>2019-05-14T00:54:23.162Z</time>
      </trkpt>
      <trkpt lat="43.21656" lon="2.59642">
        <ele>69</ele>
        <time>2019-05-14T00:55:59.257Z</time>
      </trkpt>
      <trkpt lat="43.21709" lon="2.59665">
        <ele>68</ele>
        <time>2019-05-14T00:56:17.736Z</time>
      </trkpt>
      <trkpt lat="43.21762" lon="2.59671">
        <ele>68</ele>
        <time>2019-05-14T00:56:35.739Z</time>
      </trkpt>
      <trkpt lat="43.21772" lon="2.59672">
        <ele>68</ele>
        <time>2019-05-14T00:56:39.103Z</time>
      </trkpt>
      <trkpt lat="43.21781" lon="2.59674">
        <ele>68</ele>
        <time>2019-05-14T00:56:42.324Z</time>
      </trkpt>
      <trkpt lat="43.21841" lon="2.59676">
        <ele>66</ele>
        <time>2019-05-14T00:57:02.422Z</time>
      </trkpt>
      <trkpt lat="43.21934" lon="2.59652">
        <ele>62</ele>
        <time>2019-05-14T00:57:34.279Z</time>
      </trkpt>
      <trkpt lat="43.21972" lon="2.5967">
        <ele>64</ele>
        <time>2019-05-14T00:57:48.353Z</time>
      </trkpt>
      <trkpt lat="43.22055" lon="2.59747">
        <ele>64</ele>
        <time>2019-05-14T00:58:23.426Z</time>
      </trkpt>
      <trkpt lat="43.22178" lon="2.59808">
        <ele>63</ele>
        <time>2019-05-14T00:59:09.954Z</time>
      </trkpt>
      <trkpt lat="43.22263" lon="2.59845">
        <ele>63</ele>
        <time>2019-05-14T00:59:41.760Z</time>
      </trkpt>
      <trkpt lat="43.22519" lon="2.59904">
        <ele>62</ele>
        <time>2019-05-14T01:01:16.402Z</time>
      </trkpt>
      <trkpt lat="43.22534" lon="2.59913">
        <ele>62</ele>
        <time>2019-05-14T01:01:22.579Z</time>
      </trkpt>
      <trkpt lat="43.22669" lon="2.59991">
        <ele>62</ele>
        <time>2019-05-14T01:02:16.798Z</time>
      </trkpt>
      <trkpt lat="43.22913" lon="2.60095">
        <ele>64</ele>
        <time>2019-05-14T01:03:51.490Z</time>
      </trkpt>
      <trkpt lat="43.22944" lon="2.60139">
        <ele>63</ele>
        <time>2019-05-14T01:04:07.311Z</time>
      </trkpt>
      <trkpt lat="43.2295" lon="2.60178">
        <ele>64</ele>
        <time>2019-05-14T01:04:17.741Z</time>
      </trkpt>
      <trkpt lat="43.2295" lon="2.60377">
        <ele>63</ele>
        <time>2019-05-14T01:05:06.619Z</time>
      </trkpt>
      <trkpt lat="43.22994" lon="2.6063">
        <ele>59</ele>
        <time>2019-05-14T01:06:08.444Z</time>
      </trkpt>
      <trkpt lat="43.2299" lon="2.60631">
        <ele>59</ele>
        <time>2019-05-14T01:06:09.235Z</time>
      </trkpt>
      <trkpt lat="43.22969" lon="2.60637">
        <ele>60</ele>
        <time>2019-05-14T01:06:13.141Z</time>
      </trkpt>
      <trkpt lat="43.22964" lon="2.60638">
        <ele>60</ele>
        <time>2019-05-14T01:06:14.229Z</time>
      </trkpt>
      <trkpt lat="43.22979" lon="2.60724">
        <ele>59</ele>
        <time>2019-05-14T01:06:36.295Z</time>
      </trkpt>
      <trkpt lat="43.2298" lon="2.60837">
        <ele>60</ele>
        <time>2019-05-14T01:07:05.793Z</time>
      </trkpt>
      <trkpt lat="43.23026" lon="2.60872">
        <ele>60</ele>
        <time>2019-05-14T01:07:24.167Z</time>
      </trkpt>
      <trkpt lat="43.23036" lon="2.60869">
        <ele>60</ele>
        <time>2019-05-14T01:07:28.000Z</time>
      </trkpt>
      <trkpt lat="43.23057" lon="2.60873">
        <ele>60</ele>
        <time>2019-05-14T01:07:35.519Z</time>
      </trkpt>
      <trkpt lat="43.23061" lon="2.60879">
        <ele>60</ele>
        <time>2019-05-14T01:07:37.566Z</time>
      </trkpt>
      <trkpt lat="43.23195" lon="2.61008">
        <ele>59</ele>
        <time>2019-05-14T01:08:35.540Z</time>
      </trkpt>
      <trkpt lat="43.23283" lon="2.61114">
        <ele>59</ele>
        <time>2019-05-14T01:09:16.949Z</time>
      </trkpt>
      <trkpt lat="43.23312" lon="2.61149">
        <ele>59</ele>
        <time>2019-05-14T01:09:31.139Z</time>
      </trkpt>
      <trkpt lat="43.23418" lon="2.61304">
        <ele>57</ele>
        <time>2019-05-14T01:10:28.727Z</time>
      </trkpt>
      <trkpt lat="43.23429" lon="2.61366">
        <ele>58</ele>
        <time>2019-05-14T01:10:46.598Z</time>
      </trkpt>
      <trkpt lat="43.23427" lon="2.61404">
        <ele>58</ele>
        <time>2019-05-14T01:10:57.095Z</time>
      </trkpt>
      <trkpt lat="43.23391" lon="2.61516">
        <ele>59</ele>
        <time>2019-05-14T01:11:30.732Z</time>
      </trkpt>
      <trkpt lat="43.2331" lon="2.61686">
        <ele>58</ele>
        <time>2019-05-14T01:12:26.398Z</time>
      </trkpt>
      <trkpt lat="43.2327" lon="2.61796">
        <ele>60</ele>
        <time>2019-05-14T01:12:59.237Z</time>
      </trkpt>
      <trkpt lat="43.23163" lon="2.6198">
        <ele>58</ele>
        <time>2019-05-14T01:14:00.107Z</time>
      </trkpt>
      <trkpt lat="43.23136" lon="2.62075">
        <ele>57</ele>
        <time>2019-05-14T01:14:26.074Z</time>
      </trkpt>
      <trkpt lat="43.23128" lon="2.62208">
        <ele>57</ele>
        <time>2019-05-14T01:15:01.435Z</time>
      </trkpt>
      <trkpt lat="43.23132" lon="2.62211">
        <ele>57</ele>
        <time>2019-05-14T01:15:02.860Z</time>
      </trkpt>
      <trkpt lat="43.2313" lon="2.62236">
        <ele>57</ele>
        <time>2019-05-14T01:15:06.854Z</time>
      </trkpt>
      <trkpt lat="43.23128" lon="2.62242">
        <ele>57</ele>
        <time>2019-05-14T01:15:07.825Z</time>
      </trkpt>
      <trkpt lat="43.23131" lon="2.62254">
        <ele>57</ele>
        <time>2019-05-14T01:15:11.419Z</time>
      </trkpt>
      <trkpt lat="43.2313" lon="2.62487">
        <ele>58</ele>
        <time>2019-05-14T01:16:17.185Z</time>
      </trkpt>
      <trkpt lat="43.23129" lon="2.62831">
        <ele>58</ele>
        <time>2019-05-14T01:17:53.891Z</time>
      </trkpt>
      <trkpt lat="43.2311" lon="2.63389">
        <ele>59</ele>
        <time>2019-05-14T01:20:31.489Z</time>
      </trkpt>
      <trkpt lat="43.23096" lon="2.63429">
        <ele>59</ele>
        <time>2019-05-14T01:20:43.195Z</time>
      </trkpt>
      <trkpt lat="43.23055" lon="2.63529">
        <ele>59</ele>
        <time>2019-05-14T01:21:11.924Z</time>
      </trkpt>
      <trkpt lat="43.23025" lon="2.63623">
        <ele>59</ele>
        <time>2019-05-14T01:21:36.465Z</time>
      </trkpt>
      <trkpt lat="43.23021" lon="2.63682">
        <ele>58</ele>
        <time>2019-05-14T01:21:50.363Z</time>
      </trkpt>
      <trkpt lat="43.2303" lon="2.63732">
        <ele>57</ele>
        <time>2019-05-14T01:22:02.427Z</time>
      </trkpt>
      <trkpt lat="43.23067" lon="2.63805">
        <ele>56</ele>
        <time>2019-05-14T01:22:23.440Z</time>
      </trkpt>
      <trkpt lat="43.23086" lon="2.63856">
        <ele>55</ele>
        <time>2019-05-14T01:22:37.333Z</time>
      </trkpt>
      <trkpt lat="43.23128" lon="2.6395">
        <ele>54</ele>
        <time>2019-05-14T01:23:05.052Z</time>
      </trkpt>
      <trkpt lat="43.23316" lon="2.64375">
        <ele>53</ele>
        <time>2019-05-14T01:25:17.508Z</time>
      </trkpt>
      <trkpt lat="43.23416" lon="2.64602">
        <ele>54</ele>
        <time>2019-05-14T01:26:28.644Z</time>
      </trkpt>
      <trkpt lat="43.23625" lon="2.6501">
        <ele>54</ele>
        <time>2019-05-14T01:28:43.553Z</time>
      </trkpt>
      <trkpt lat="43.23811" lon="2.65322">
        <ele>56</ele>
        <time>2019-05-14T01:30:30.121Z</time>
      </trkpt>
      <trkpt lat="43.23895" lon="2.65436">
        <ele>55</ele>
        <time>2019-05-14T01:31:12.704Z</time>
      </trkpt>
      <trkpt lat="43.23979" lon="2.65524">
        <ele>53</ele>
        <time>2019-05-14T01:31:51.329Z</time>
      </trkpt>
      <trkpt lat="43.24119" lon="2.65611">
        <ele>55</ele>
        <time>2019-05-14T01:32:48.011Z</time>
      </trkpt>
      <trkpt lat="43.24155" lon="2.65658">
        <ele>55</ele>
        <time>2019-05-14T01:33:06.331Z</time>
      </trkpt>
      <trkpt lat="43.24301" lon="2.66005">
        <ele>52</ele>
        <time>2019-05-14T01:34:52.389Z</time>
      </trkpt>
      <trkpt lat="43.24399" lon="2.66108">
        <ele>53</ele>
        <time>2019-05-14T01:35:38.928Z</time>
      </trkpt>
      <trkpt lat="43.24456" lon="2.66132">
        <ele>53</ele>
        <time>2019-05-14T01:36:01.683Z</time>
      </trkpt>
      <trkpt lat="43.2452" lon="2.66111">
        <ele>53</ele>
        <time>2019-05-14T01:36:26.513Z</time>
      </trkpt>
      <trkpt lat="43.24587" lon="2.66071">
        <ele>52</ele>
        <time>2019-05-14T01:36:54.283Z</time>
      </trkpt>
      <trkpt lat="43.24698" lon="2.65989">
        <ele>54</ele>
        <time>2019-05-14T01:37:42.648Z</time>
      </trkpt>
      <trkpt lat="43.24754" lon="2.65948">
        <ele>56</ele>
        <time>2019-05-14T01:38:06.952Z</time>
      </trkpt>
      <trkpt lat="43.24782" lon="2.6596">
        <ele>55</ele>
        <time>2019-05-14T01:38:17.651Z</time>
      </trkpt>
      <trkpt lat="43.24786" lon="2.65963">
        <ele>55</ele>
        <time>2019-05-14T01:38:19.699Z</time>
      </trkpt>
      <trkpt lat="43.24809" lon="2.65979">
        <ele>55</ele>
        <time>2019-05-14T01:38:28.869Z</time>
      </trkpt>
      <trkpt lat="43.24825" lon="2.66043">
        <ele>54</ele>
        <time>2019-05-14T01:38:47.834Z</time>
      </trkpt>
      <trkpt lat="43.24719" lon="2.66549">
        <ele>53</ele>
        <time>2019-05-14T01:41:03.505Z</time>
      </trkpt>
      <trkpt lat="43.24715" lon="2.66594">
        <ele>52</ele>
        <time>2019-05-14T01:41:15.228Z</time>
      </trkpt>
      <trkpt lat="43.24724" lon="2.66652">
        <ele>52</ele>
        <time>2019-05-14T01:41:30.594Z</time>
      </trkpt>
      <trkpt lat="43.24755" lon="2.66741">
        <ele>54</ele>
        <time>2019-05-14T01:41:56.678Z</time>
      </trkpt>
      <trkpt lat="43.24767" lon="2.66757">
        <ele>54</ele>
        <time>2019-05-14T01:42:00.485Z</time>
      </trkpt>
      <trkpt lat="43.24775" lon="2.66768">
        <ele>54</ele>
        <time>2019-05-14T01:42:04.481Z</time>
      </trkpt>
      <trkpt lat="43.24794" lon="2.66812">
        <ele>54</ele>
        <time>2019-05-14T01:42:18.471Z</time>
      </trkpt>
      <trkpt lat="43.24838" lon="2.66864">
        <ele>54</ele>
        <time>2019-05-14T01:42:42.003Z</time>
      </trkpt>
      <trkpt lat="43.24883" lon="2.66888">
        <ele>54</ele>
        <time>2019-05-14T01:43:02.505Z</time>
      </trkpt>
      <trkpt lat="43.24908" lon="2.66889">
        <ele>54</ele>
        <time>2019-05-14T01:43:14.202Z</time>
      </trkpt>
      <trkpt lat="43.24932" lon="2.66881">
        <ele>55</ele>
        <time>2019-05-14T01:43:24.777Z</time>
      </trkpt>
      <trkpt lat="43.24932" lon="2.66881">
        <ele>55</ele>
        <time>2019-05-14T01:43:25.115Z</time>
      </trkpt>
      <trkpt lat="43.24955" lon="2.66886">
        <ele>55</ele>
        <time>2019-05-14T01:43:36.215Z</time>
      </trkpt>
      <trkpt lat="43.24996" lon="2.66853">
        <ele>55</ele>
        <time>2019-05-14T01:43:58.298Z</time>
      </trkpt>
      <trkpt lat="43.24998" lon="2.66848">
        <ele>56</ele>
        <time>2019-05-14T01:44:01.347Z</time>
      </trkpt>
      <trkpt lat="43.2502" lon="2.66782">
        <ele>56</ele>
        <time>2019-05-14T01:44:19.034Z</time>
      </trkpt>
      <trkpt lat="43.25053" lon="2.66688">
        <ele>58</ele>
        <time>2019-05-14T01:44:52.557Z</time>
      </trkpt>
      <trkpt lat="43.25077" lon="2.66626">
        <ele>58</ele>
        <time>2019-05-14T01:45:13.353Z</time>
      </trkpt>
      <trkpt lat="43.25098" lon="2.66582">
        <ele>58</ele>
        <time>2019-05-14T01:45:21.677Z</time>
      </trkpt>
      <trkpt lat="43.25132" lon="2.66546">
        <ele>57</ele>
        <time>2019-05-14T01:45:36.438Z</time>
      </trkpt>
      <trkpt lat="43.25172" lon="2.66564">
        <ele>57</ele>
        <time>2019-05-14T01:45:50.350Z</time>
      </trkpt>
      <trkpt lat="43.25234" lon="2.66638">
        <ele>55</ele>
        <time>2019-05-14T01:46:17.001Z</time>
      </trkpt>
      <trkpt lat="43.25335" lon="2.66758">
        <ele>55</ele>
        <time>2019-05-14T01:47:03.314Z</time>
      </trkpt>
      <trkpt lat="43.25386" lon="2.669">
        <ele>54</ele>
        <time>2019-05-14T01:47:46.165Z</time>
      </trkpt>
      <trkpt lat="43.25426" lon="2.66971">
        <ele>54</ele>
        <time>2019-05-14T01:48:11.167Z</time>
      </trkpt>
      <trkpt lat="43.25409" lon="2.66976">
        <ele>55</ele>
        <time>2019-05-14T01:48:15.314Z</time>
      </trkpt>
      <trkpt lat="43.25403" lon="2.66976">
        <ele>55</ele>
        <time>2019-05-14T01:48:16.877Z</time>
      </trkpt>
      <trkpt lat="43.25418" lon="2.66989">
        <ele>54</ele>
        <time>2019-05-14T01:48:22.173Z</time>
      </trkpt>
      <trkpt lat="43.25445" lon="2.67034">
        <ele>54</ele>
        <time>2019-05-14T01:48:34.808Z</time>
      </trkpt>
      <trkpt lat="43.25452" lon="2.67046">
        <ele>54</ele>
        <time>2019-05-14T01:48:38.260Z</time>
      </trkpt>
      <trkpt lat="43.25465" lon="2.6706">
        <ele>54</ele>
        <time>2019-05-14T01:48:42.725Z</time>
      </trkpt>
      <trkpt lat="43.2566" lon="2.67367">
        <ele>55</ele>
        <time>2019-05-14T01:50:06.144Z</time>
      </trkpt>
      <trkpt lat="43.25918" lon="2.67681">
        <ele>54</ele>
        <time>2019-05-14T01:51:45.041Z</time>
      </trkpt>
      <trkpt lat="43.25959" lon="2.67934">
        <ele>54</ele>
        <time>2019-05-14T01:52:40.480Z</time>
      </trkpt>
      <trkpt lat="43.26034" lon="2.68101">
        <ele>54</ele>
        <time>2019-05-14T01:53:21.770Z</time>
      </trkpt>
      <trkpt lat="43.26054" lon="2.68148">
        <ele>54</ele>
        <time>2019-05-14T01:53:32.896Z</time>
      </trkpt>
      <trkpt lat="43.26063" lon="2.6816">
        <ele>54</ele>
        <time>2019-05-14T01:53:36.374Z</time>
      </trkpt>
      <trkpt lat="43.26106" lon="2.68279">
        <ele>53</ele>
        <time>2019-05-14T01:54:03.331Z</time>
      </trkpt>
      <trkpt lat="43.26159" lon="2.68572">
        <ele>53</ele>
        <time>2019-05-14T01:55:04.092Z</time>
      </trkpt>
      <trkpt lat="43.26166" lon="2.68588">
        <ele>54</ele>
        <time>2019-05-14T01:55:07.906Z</time>
      </trkpt>
      <trkpt lat="43.26186" lon="2.68679">
        <ele>51</ele>
        <time>2019-05-14T01:55:26.908Z</time>
      </trkpt>
      <trkpt lat="43.26212" lon="2.68829">
        <ele>50</ele>
        <time>2019-05-14T01:55:57.668Z</time>
      </trkpt>
      <trkpt lat="43.26294" lon="2.69297">
        <ele>50</ele>
        <time>2019-05-14T01:57:36.309Z</time>
      </trkpt>
      <trkpt lat="43.26398" lon="2.69609">
        <ele>51</ele>
        <time>2019-05-14T01:58:56.858Z</time>
      </trkpt>
      <trkpt lat="43.26408" lon="2.69621">
        <ele>51</ele>
        <time>2019-05-14T01:59:01.416Z</time>
      </trkpt>
      <trkpt lat="43.26411" lon="2.69625">
        <ele>51</ele>
        <time>2019-05-14T01:59:02.720Z</time>
      </trkpt>
      <trkpt lat="43.26415" lon="2.69636">
        <ele>51</ele>
        <time>2019-05-14T01:59:05.748Z</time>
      </trkpt>
      <trkpt lat="43.26419" lon="2.69656">
        <ele>52</ele>
        <time>2019-05-14T01:59:11.046Z</time>
      </trkpt>
      <trkpt lat="43.26437" lon="2.69724">
        <ele>52</ele>
        <time>2019-05-14T01:59:28.476Z</time>
      </trkpt>
      <trkpt lat="43.26458" lon="2.69787">
        <ele>52</ele>
        <time>2019-05-14T01:59:44.628Z</time>
      </trkpt>
      <trkpt lat="43.26516" lon="2.69936">
        <ele>52</ele>
        <time>2019-05-14T02:00:28.889Z</time>
      </trkpt>
      <trkpt lat="43.26565" lon="2.70089">
        <ele>49</ele>
        <time>2019-05-14T02:01:08.460Z</time>
      </trkpt>
      <trkpt lat="43.26585" lon="2.70151">
        <ele>49</ele>
        <time>2019-05-14T02:01:24.631Z</time>
      </trkpt>
      <trkpt lat="43.26515" lon="2.70166">
        <ele>48</ele>
        <time>2019-05-14T02:01:47.766Z</time>
      </trkpt>
      <trkpt lat="43.26506" lon="2.70192">
        <ele>48</ele>
        <time>2019-05-14T02:01:54.648Z</time>
      </trkpt>
      <trkpt lat="43.26509" lon="2.70226">
        <ele>48</ele>
        <time>2019-05-14T02:02:02.868Z</time>
      </trkpt>
      <trkpt lat="43.26514" lon="2.70263">
        <ele>48</ele>
        <time>2019-05-14T02:02:12.230Z</time>
      </trkpt>
      <trkpt lat="43.26536" lon="2.70301">
        <ele>48</ele>
        <time>2019-05-14T02:02:24.463Z</time>
      </trkpt>
      <trkpt lat="43.26555" lon="2.70377">
        <ele>47</ele>
        <time>2019-05-14T02:02:44.976Z</time>
      </trkpt>
      <trkpt lat="43.26632" lon="2.70365">
        <ele>48</ele>
        <time>2019-05-14T02:03:13.216Z</time>
      </trkpt>
      <trkpt lat="43.26665" lon="2.70432">
        <ele>48</ele>
        <time>2019-05-14T02:03:35.940Z</time>
      </trkpt>
      <trkpt lat="43.26681" lon="2.70565">
        <ele>49</ele>
        <time>2019-05-14T02:04:14.388Z</time>
      </trkpt>
      <trkpt lat="43.26666" lon="2.70768">
        <ele>49</ele>
        <time>2019-05-14T02:05:14.089Z</time>
      </trkpt>
      <trkpt lat="43.26667" lon="2.70804">
        <ele>49</ele>
        <time>2019-05-14T02:05:24.584Z</time>
      </trkpt>
      <trkpt lat="43.2667" lon="2.70963">
        <ele>49</ele>
        <time>2019-05-14T02:06:10.010Z</time>
      </trkpt>
      <trkpt lat="43.26681" lon="2.71072">
        <ele>51</ele>
        <time>2019-05-14T02:06:40.420Z</time>
      </trkpt>
      <trkpt lat="43.26729" lon="2.71327">
        <ele>49</ele>
        <time>2019-05-14T02:07:51.067Z</time>
      </trkpt>
      <trkpt lat="43.26805" lon="2.71706">
        <ele>50</ele>
        <time>2019-05-14T02:09:38.976Z</time>
      </trkpt>
      <trkpt lat="43.26809" lon="2.71721">
        <ele>50</ele>
        <time>2019-05-14T02:09:42.041Z</time>
      </trkpt>
      <trkpt lat="43.26814" lon="2.71742">
        <ele>50</ele>
        <time>2019-05-14T02:09:46.047Z</time>
      </trkpt>
      <trkpt lat="43.26842" lon="2.71878">
        <ele>51</ele>
        <time>2019-05-14T02:10:11.635Z</time>
      </trkpt>
      <trkpt lat="43.26841" lon="2.71886">
        <ele>51</ele>
        <time>2019-05-14T02:10:13.030Z</time>
      </trkpt>
      <trkpt lat="43.26838" lon="2.71894">
        <ele>51</ele>
        <time>2019-05-14T02:10:14.566Z</time>
      </trkpt>
      <trkpt lat="43.26837" lon="2.71898">
        <ele>51</ele>
        <time>2019-05-14T02:10:15.448Z</time>
      </trkpt>
      <trkpt lat="43.26858" lon="2.71987">
        <ele>51</ele>
        <time>2019-05-14T02:10:31.478Z</time>
      </trkpt>
      <trkpt lat="43.26872" lon="2.71988">
        <ele>51</ele>
        <time>2019-05-14T02:10:34.372Z</time>
      </trkpt>
      <trkpt lat="43.26887" lon="2.72006">
        <ele>50</ele>
        <time>2019-05-14T02:10:38.835Z</time>
      </trkpt>
      <trkpt lat="43.26889" lon="2.72045">
        <ele>50</ele>
        <time>2019-05-14T02:10:44.975Z</time>
      </trkpt>
      <trkpt lat="43.26886" lon="2.72055">
        <ele>50</ele>
        <time>2019-05-14T02:10:46.514Z</time>
      </trkpt>
      <trkpt lat="43.26904" lon="2.72125">
        <ele>50</ele>
        <time>2019-05-14T02:11:01.427Z</time>
      </trkpt>
      <trkpt lat="43.26908" lon="2.72138">
        <ele>50</ele>
        <time>2019-05-14T02:11:04.267Z</time>
      </trkpt>
      <trkpt lat="43.26967" lon="2.72397">
        <ele>49</ele>
        <time>2019-05-14T02:12:15.384Z</time>
      </trkpt>
      <trkpt lat="43.26963" lon="2.72711">
        <ele>49</ele>
        <time>2019-05-14T02:13:38.689Z</time>
      </trkpt>
      <trkpt lat="43.26973" lon="2.73002">
        <ele>48</ele>
        <time>2019-05-14T02:14:55.647Z</time>
      </trkpt>
      <trkpt lat="43.26968" lon="2.73002">
        <ele>48</ele>
        <time>2019-05-14T02:14:56.685Z</time>
      </trkpt>
      <trkpt lat="43.26963" lon="2.73001">
        <ele>48</ele>
        <time>2019-05-14T02:14:57.785Z</time>
      </trkpt>
      <trkpt lat="43.26966" lon="2.73081">
        <ele>48</ele>
        <time>2019-05-14T02:15:19.140Z</time>
      </trkpt>
      <trkpt lat="43.26966" lon="2.73095">
        <ele>48</ele>
        <time>2019-05-14T02:15:22.890Z</time>
      </trkpt>
      <trkpt lat="43.26966" lon="2.73081">
        <ele>48</ele>
        <time>2019-05-14T02:15:26.870Z</time>
      </trkpt>
      <trkpt lat="43.26963" lon="2.73001">
        <ele>48</ele>
        <time>2019-05-14T02:15:47.987Z</time>
      </trkpt>
      <trkpt lat="43.26968" lon="2.73002">
        <ele>48</ele>
        <time>2019-05-14T02:15:49.034Z</time>
      </trkpt>
      <trkpt lat="43.26973" lon="2.73002">
        <ele>48</ele>
        <time>2019-05-14T02:15:50.142Z</time>
      </trkpt>
      <trkpt lat="43.26979" lon="2.7304">
        <ele>48</ele>
        <time>2019-05-14T02:15:56.477Z</time>
      </trkpt>
      <trkpt lat="43.26978" lon="2.73072">
        <ele>48</ele>
        <time>2019-05-14T02:16:01.659Z</time>
      </trkpt>
      <trkpt lat="43.26977" lon="2.73081">
        <ele>48</ele>
        <time>2019-05-14T02:16:04.102Z</time>
      </trkpt>
      <trkpt lat="43.26997" lon="2.7372">
        <ele>46</ele>
        <time>2019-05-14T02:18:45.948Z</time>
      </trkpt>
      <trkpt lat="43.26992" lon="2.73741">
        <ele>45</ele>
        <time>2019-05-14T02:18:51.125Z</time>
      </trkpt>
      <trkpt lat="43.26972" lon="2.73825">
        <ele>44</ele>
        <time>2019-05-14T02:19:13.032Z</time>
      </trkpt>
      <trkpt lat="43.26948" lon="2.73912">
        <ele>43</ele>
        <time>2019-05-14T02:19:26.212Z</time>
      </trkpt>
      <trkpt lat="43.26942" lon="2.73934">
        <ele>43</ele>
        <time>2019-05-14T02:19:29.411Z</time>
      </trkpt>
      <trkpt lat="43.26931" lon="2.73955">
        <ele>43</ele>
        <time>2019-05-14T02:19:33.130Z</time>
      </trkpt>
      <trkpt lat="43.26867" lon="2.7399">
        <ele>42</ele>
        <time>2019-05-14T02:19:46.778Z</time>
      </trkpt>
      <trkpt lat="43.26842" lon="2.73986">
        <ele>42</ele>
        <time>2019-05-14T02:19:51.786Z</time>
      </trkpt>
      <trkpt lat="43.26832" lon="2.7399">
        <ele>42</ele>
        <time>2019-05-14T02:19:53.974Z</time>
      </trkpt>
      <trkpt lat="43.2683" lon="2.7399">
        <ele>42</ele>
        <time>2019-05-14T02:19:54.478Z</time>
      </trkpt>
      <trkpt lat="43.26802" lon="2.73976">
        <ele>41</ele>
        <time>2019-05-14T02:20:04.920Z</time>
      </trkpt>
      <trkpt lat="43.26748" lon="2.7397">
        <ele>40</ele>
        <time>2019-05-14T02:20:23.903Z</time>
      </trkpt>
      <trkpt lat="43.26668" lon="2.7403">
        <ele>41</ele>
        <time>2019-05-14T02:20:55.821Z</time>
      </trkpt>
      <trkpt lat="43.26634" lon="2.74093">
        <ele>41</ele>
        <time>2019-05-14T02:21:16.664Z</time>
      </trkpt>
      <trkpt lat="43.26611" lon="2.74113">
        <ele>41</ele>
        <time>2019-05-14T02:21:26.579Z</time>
      </trkpt>
      <trkpt lat="43.26361" lon="2.74576">
        <ele>40</ele>
        <time>2019-05-14T02:24:04.060Z</time>
      </trkpt>
      <trkpt lat="43.26233" lon="2.74803">
        <ele>42</ele>
        <time>2019-05-14T02:25:24.717Z</time>
      </trkpt>
      <trkpt lat="43.26205" lon="2.74854">
        <ele>42</ele>
        <time>2019-05-14T02:25:43.195Z</time>
      </trkpt>
      <trkpt lat="43.26165" lon="2.74913">
        <ele>42</ele>
        <time>2019-05-14T02:26:06.048Z</time>
      </trkpt>
      <trkpt lat="43.25926" lon="2.75034">
        <ele>45</ele>
        <time>2019-05-14T02:27:43.489Z</time>
      </trkpt>
      <trkpt lat="43.25752" lon="2.75178">
        <ele>43</ele>
        <time>2019-05-14T02:28:57.340Z</time>
      </trkpt>
      <trkpt lat="43.25429" lon="2.75419">
        <ele>45</ele>
        <time>2019-05-14T02:31:12.539Z</time>
      </trkpt>
      <trkpt lat="43.25322" lon="2.75489">
        <ele>41</ele>
        <time>2019-05-14T02:31:53.225Z</time>
      </trkpt>
      <trkpt lat="43.2506" lon="2.75662">
        <ele>39</ele>
        <time>2019-05-14T02:33:29.991Z</time>
      </trkpt>
      <trkpt lat="43.25053" lon="2.75666">
        <ele>38</ele>
        <time>2019-05-14T02:33:32.577Z</time>
      </trkpt>
      <trkpt lat="43.25051" lon="2.75658">
        <ele>38</ele>
        <time>2019-05-14T02:33:34.164Z</time>
      </trkpt>
      <trkpt lat="43.25035" lon="2.75659">
        <ele>37</ele>
        <time>2019-05-14T02:33:37.156Z</time>
      </trkpt>
      <trkpt lat="43.25006" lon="2.75659">
        <ele>36</ele>
        <time>2019-05-14T02:33:42.552Z</time>
      </trkpt>
      <trkpt lat="43.24952" lon="2.7566">
        <ele>34</ele>
        <time>2019-05-14T02:33:52.549Z</time>
      </trkpt>
      <trkpt lat="43.24922" lon="2.75673">
        <ele>35</ele>
        <time>2019-05-14T02:33:58.362Z</time>
      </trkpt>
      <trkpt lat="43.24895" lon="2.7571">
        <ele>36</ele>
        <time>2019-05-14T02:34:05.488Z</time>
      </trkpt>
      <trkpt lat="43.24836" lon="2.75881">
        <ele>39</ele>
        <time>2019-05-14T02:34:34.267Z</time>
      </trkpt>
      <trkpt lat="43.24784" lon="2.75953">
        <ele>35</ele>
        <time>2019-05-14T02:34:51.125Z</time>
      </trkpt>
      <trkpt lat="43.24758" lon="2.76039">
        <ele>38</ele>
        <time>2019-05-14T02:35:06.946Z</time>
      </trkpt>
      <trkpt lat="43.24659" lon="2.76135">
        <ele>36</ele>
        <time>2019-05-14T02:35:35.082Z</time>
      </trkpt>
      <trkpt lat="43.2461" lon="2.76159">
        <ele>35</ele>
        <time>2019-05-14T02:35:47.068Z</time>
      </trkpt>
      <trkpt lat="43.24482" lon="2.76222">
        <ele>35</ele>
        <time>2019-05-14T02:36:17.993Z</time>
      </trkpt>
      <trkpt lat="43.24394" lon="2.76266">
        <ele>36</ele>
        <time>2019-05-14T02:36:40.458Z</time>
      </trkpt>
      <trkpt lat="43.24283" lon="2.76321">
        <ele>37</ele>
        <time>2019-05-14T02:37:08.397Z</time>
      </trkpt>
      <trkpt lat="43.24107" lon="2.7641">
        <ele>37</ele>
        <time>2019-05-14T02:37:49.693Z</time>
      </trkpt>
      <trkpt lat="43.24052" lon="2.76467">
        <ele>37</ele>
        <time>2019-05-14T02:38:04.386Z</time>
      </trkpt>
      <trkpt lat="43.24032" lon="2.76499">
        <ele>37</ele>
        <time>2019-05-14T02:38:10.838Z</time>
      </trkpt>
      <trkpt lat="43.24013" lon="2.76539">
        <ele>37</ele>
        <time>2019-05-14T02:38:18.453Z</time>
      </trkpt>
      <trkpt lat="43.24012" lon="2.76541">
        <ele>37</ele>
        <time>2019-05-14T02:38:18.768Z</time>
      </trkpt>
      <trkpt lat="43.24014" lon="2.76548">
        <ele>37</ele>
        <time>2019-05-14T02:38:20.989Z</time>
      </trkpt>
      <trkpt lat="43.24015" lon="2.76554">
        <ele>37</ele>
        <time>2019-05-14T02:38:22.700Z</time>
      </trkpt>
      <trkpt lat="43.24013" lon="2.76569">
        <ele>37</ele>
        <time>2019-05-14T02:38:26.577Z</time>
      </trkpt>
      <trkpt lat="43.24009" lon="2.76623">
        <ele>37</ele>
        <time>2019-05-14T02:38:41.120Z</time>
      </trkpt>
      <trkpt lat="43.23917" lon="2.77038">
        <ele>38</ele>
        <time>2019-05-14T02:40:39.234Z</time>
      </trkpt>
      <trkpt lat="43.23944" lon="2.77559">
        <ele>38</ele>
        <time>2019-05-14T02:42:54.065Z</time>
      </trkpt>
      <trkpt lat="43.23962" lon="2.779">
        <ele>34</ele>
        <time>2019-05-14T02:44:19.248Z</time>
      </trkpt>
      <trkpt lat="43.23964" lon="2.77938">
        <ele>33</ele>
        <time>2019-05-14T02:44:28.925Z</time>
      </trkpt>
      <trkpt lat="43.23963" lon="2.7795">
        <ele>33</ele>
        <time>2019-05-14T02:44:31.100Z</time>
      </trkpt>
      <trkpt lat="43.23974" lon="2.78073">
        <ele>32</ele>
        <time>2019-05-14T02:44:52.417Z</time>
      </trkpt>
      <trkpt lat="43.23987" lon="2.78214">
        <ele>33</ele>
        <time>2019-05-14T02:45:18.927Z</time>
      </trkpt>
      <trkpt lat="43.24005" lon="2.78343">
        <ele>35</ele>
        <time>2019-05-14T02:45:44.183Z</time>
      </trkpt>
      <trkpt lat="43.24027" lon="2.78429">
        <ele>35</ele>
        <time>2019-05-14T02:46:01.650Z</time>
      </trkpt>
      <trkpt lat="43.24078" lon="2.78541">
        <ele>34</ele>
        <time>2019-05-14T02:46:26.445Z</time>
      </trkpt>
      <trkpt lat="43.24091" lon="2.78561">
        <ele>35</ele>
        <time>2019-05-14T02:46:31.577Z</time>
      </trkpt>
      <trkpt lat="43.24223" lon="2.78773">
        <ele>35</ele>
        <time>2019-05-14T02:47:24.085Z</time>
      </trkpt>
      <trkpt lat="43.24227" lon="2.78818">
        <ele>35</ele>
        <time>2019-05-14T02:47:32.684Z</time>
      </trkpt>
      <trkpt lat="43.24189" lon="2.79064">
        <ele>35</ele>
        <time>2019-05-14T02:48:19.737Z</time>
      </trkpt>
      <trkpt lat="43.24191" lon="2.79289">
        <ele>36</ele>
        <time>2019-05-14T02:49:01.911Z</time>
      </trkpt>
      <trkpt lat="43.24174" lon="2.79668">
        <ele>38</ele>
        <time>2019-05-14T02:50:15.280Z</time>
      </trkpt>
      <trkpt lat="43.24204" lon="2.79816">
        <ele>40</ele>
        <time>2019-05-14T02:50:40.576Z</time>
      </trkpt>
      <trkpt lat="43.24253" lon="2.79927">
        <ele>36</ele>
        <time>2019-05-14T02:51:00.608Z</time>
      </trkpt>
      <trkpt lat="43.24263" lon="2.79942">
        <ele>35</ele>
        <time>2019-05-14T02:51:03.621Z</time>
      </trkpt>
      <trkpt lat="43.24271" lon="2.79956">
        <ele>35</ele>
        <time>2019-05-14T02:51:07.721Z</time>
      </trkpt>
      <trkpt lat="43.24275" lon="2.79968">
        <ele>35</ele>
        <time>2019-05-14T02:51:11.148Z</time>
      </trkpt>
      <trkpt lat="43.24275" lon="2.79976">
        <ele>34</ele>
        <time>2019-05-14T02:51:12.815Z</time>
      </trkpt>
      <trkpt lat="43.2429" lon="2.79984">
        <ele>34</ele>
        <time>2019-05-14T02:51:15.745Z</time>
      </trkpt>
      <trkpt lat="43.24394" lon="2.80089">
        <ele>33</ele>
        <time>2019-05-14T02:51:40.424Z</time>
      </trkpt>
      <trkpt lat="43.24531" lon="2.80179">
        <ele>34</ele>
        <time>2019-05-14T02:52:14.008Z</time>
      </trkpt>
      <trkpt lat="43.24597" lon="2.80272">
        <ele>36</ele>
        <time>2019-05-14T02:52:36.845Z</time>
      </trkpt>
      <trkpt lat="43.24616" lon="2.80308">
        <ele>36</ele>
        <time>2019-05-14T02:52:44.781Z</time>
      </trkpt>
      <trkpt lat="43.24631" lon="2.80333">
        <ele>36</ele>
        <time>2019-05-14T02:52:50.643Z</time>
      </trkpt>
      <trkpt lat="43.24639" lon="2.80341">
        <ele>35</ele>
        <time>2019-05-14T02:52:53.061Z</time>
      </trkpt>
      <trkpt lat="43.24646" lon="2.80343">
        <ele>35</ele>
        <time>2019-05-14T02:52:54.916Z</time>
      </trkpt>
      <trkpt lat="43.24661" lon="2.80359">
        <ele>35</ele>
        <time>2019-05-14T02:52:59.481Z</time>
      </trkpt>
      <trkpt lat="43.24697" lon="2.80383">
        <ele>36</ele>
        <time>2019-05-14T02:53:09.344Z</time>
      </trkpt>
      <trkpt lat="43.24701" lon="2.80387">
        <ele>36</ele>
        <time>2019-05-14T02:53:10.719Z</time>
      </trkpt>
      <trkpt lat="43.24719" lon="2.80409">
        <ele>37</ele>
        <time>2019-05-14T02:53:16.444Z</time>
      </trkpt>
      <trkpt lat="43.24743" lon="2.80431">
        <ele>36</ele>
        <time>2019-05-14T02:53:24.155Z</time>
      </trkpt>
      <trkpt lat="43.2475" lon="2.80441">
        <ele>37</ele>
        <time>2019-05-14T02:53:26.703Z</time>
      </trkpt>
      <trkpt lat="43.24762" lon="2.80459">
        <ele>36</ele>
        <time>2019-05-14T02:53:31.439Z</time>
      </trkpt>
      <trkpt lat="43.24827" lon="2.80563">
        <ele>35</ele>
        <time>2019-05-14T02:53:57.011Z</time>
      </trkpt>
      <trkpt lat="43.24948" lon="2.80735">
        <ele>36</ele>
        <time>2019-05-14T02:54:39.959Z</time>
      </trkpt>
      <trkpt lat="43.25003" lon="2.80829">
        <ele>37</ele>
        <time>2019-05-14T02:55:01.855Z</time>
      </trkpt>
      <trkpt lat="43.25025" lon="2.80917">
        <ele>35</ele>
        <time>2019-05-14T02:55:18.417Z</time>
      </trkpt>
      <trkpt lat="43.25085" lon="2.81139">
        <ele>35</ele>
        <time>2019-05-14T02:56:01.034Z</time>
      </trkpt>
      <trkpt lat="43.25105" lon="2.81214">
        <ele>35</ele>
        <time>2019-05-14T02:56:15.337Z</time>
      </trkpt>
      <trkpt lat="43.25137" lon="2.81594">
        <ele>35</ele>
        <time>2019-05-14T02:57:24.239Z</time>
      </trkpt>
      <trkpt lat="43.25178" lon="2.8177">
        <ele>38</ele>
        <time>2019-05-14T02:57:58.488Z</time>
      </trkpt>
      <trkpt lat="43.25178" lon="2.8178">
        <ele>38</ele>
        <time>2019-05-14T02:58:00.359Z</time>
      </trkpt>
      <trkpt lat="43.25177" lon="2.81866">
        <ele>38</ele>
        <time>2019-05-14T02:58:16.303Z</time>
      </trkpt>
      <trkpt lat="43.25166" lon="2.82044">
        <ele>36</ele>
        <time>2019-05-14T02:58:47.989Z</time>
      </trkpt>
      <trkpt lat="43.25147" lon="2.8214">
        <ele>35</ele>
        <time>2019-05-14T02:59:04.712Z</time>
      </trkpt>
      <trkpt lat="43.25057" lon="2.82343">
        <ele>34</ele>
        <time>2019-05-14T02:59:42.911Z</time>
      </trkpt>
      <trkpt lat="43.25051" lon="2.82359">
        <ele>34</ele>
        <time>2019-05-14T02:59:45.839Z</time>
      </trkpt>
      <trkpt lat="43.25046" lon="2.82378">
        <ele>34</ele>
        <time>2019-05-14T02:59:49.186Z</time>
      </trkpt>
      <trkpt lat="43.25045" lon="2.82392">
        <ele>34</ele>
        <time>2019-05-14T02:59:51.660Z</time>
      </trkpt>
      <trkpt lat="43.25038" lon="2.82472">
        <ele>35</ele>
        <time>2019-05-14T03:00:05.199Z</time>
      </trkpt>
      <trkpt lat="43.25033" lon="2.82485">
        <ele>35</ele>
        <time>2019-05-14T03:00:07.656Z</time>
      </trkpt>
      <trkpt lat="43.25026" lon="2.82518">
        <ele>37</ele>
        <time>2019-05-14T03:00:12.959Z</time>
      </trkpt>
      <trkpt lat="43.24887" lon="2.83026">
        <ele>36</ele>
        <time>2019-05-14T03:01:39.056Z</time>
      </trkpt>
      <trkpt lat="43.24877" lon="2.83068">
        <ele>36</ele>
        <time>2019-05-14T03:01:45.835Z</time>
      </trkpt>
      <trkpt lat="43.2487" lon="2.83099">
        <ele>37</ele>
        <time>2019-05-14T03:01:50.754Z</time>
      </trkpt>
      <trkpt lat="43.24863" lon="2.83167">
        <ele>36</ele>
        <time>2019-05-14T03:02:01.401Z</time>
      </trkpt>
      <trkpt lat="43.24862" lon="2.83194">
        <ele>36</ele>
        <time>2019-05-14T03:02:05.595Z</time>
      </trkpt>
      <trkpt lat="43.24862" lon="2.83211">
        <ele>37</ele>
        <time>2019-05-14T03:02:08.242Z</time>
      </trkpt>
      <trkpt lat="43.24863" lon="2.83324">
        <ele>36</ele>
        <time>2019-05-14T03:02:26.029Z</time>
      </trkpt>
      <trkpt lat="43.24862" lon="2.83362">
        <ele>36</ele>
        <time>2019-05-14T03:02:32.246Z</time>
      </trkpt>
      <trkpt lat="43.24862" lon="2.8337">
        <ele>36</ele>
        <time>2019-05-14T03:02:33.510Z</time>
      </trkpt>
      <trkpt lat="43.24862" lon="2.83406">
        <ele>35</ele>
        <time>2019-05-14T03:02:39.448Z</time>
      </trkpt>
      <trkpt lat="43.24863" lon="2.83445">
        <ele>34</ele>
        <time>2019-05-14T03:02:46.019Z</time>
      </trkpt>
      <trkpt lat="43.24866" lon="2.83488">
        <ele>34</ele>
        <time>2019-05-14T03:02:53.403Z</time>
      </trkpt>
      <trkpt lat="43.24869" lon="2.8352">
        <ele>33</ele>
        <time>2019-05-14T03:02:58.853Z</time>
      </trkpt>
      <trkpt lat="43.24874" lon="2.83602">
        <ele>33</ele>
        <time>2019-05-14T03:03:12.616Z</time>
      </trkpt>
      <trkpt lat="43.24872" lon="2.83632">
        <ele>33</ele>
        <time>2019-05-14T03:03:17.716Z</time>
      </trkpt>
      <trkpt lat="43.24867" lon="2.83714">
        <ele>33</ele>
        <time>2019-05-14T03:03:31.288Z</time>
      </trkpt>
      <trkpt lat="43.24859" lon="2.83876">
        <ele>32</ele>
        <time>2019-05-14T03:03:56.393Z</time>
      </trkpt>
      <trkpt lat="43.24862" lon="2.83897">
        <ele>32</ele>
        <time>2019-05-14T03:04:02.054Z</time>
      </trkpt>
      <trkpt lat="43.24863" lon="2.83927">
        <ele>32</ele>
        <time>2019-05-14T03:04:10.129Z</time>
      </trkpt>
      <trkpt lat="43.24867" lon="2.83949">
        <ele>32</ele>
        <time>2019-05-14T03:04:16.183Z</time>
      </trkpt>
      <trkpt lat="43.24914" lon="2.83987">
        <ele>32</ele>
        <time>2019-05-14T03:04:36.735Z</time>
      </trkpt>
      <trkpt lat="43.25078" lon="2.83966">
        <ele>34</ele>
        <time>2019-05-14T03:05:43.144Z</time>
      </trkpt>
      <trkpt lat="43.25213" lon="2.83917">
        <ele>34</ele>
        <time>2019-05-14T03:06:40.378Z</time>
      </trkpt>
      <trkpt lat="43.25313" lon="2.83863">
        <ele>35</ele>
        <time>2019-05-14T03:07:22.222Z</time>
      </trkpt>
      <trkpt lat="43.25339" lon="2.83866">
        <ele>34</ele>
        <time>2019-05-14T03:07:32.840Z</time>
      </trkpt>
      <trkpt lat="43.25373" lon="2.839">
        <ele>33</ele>
        <time>2019-05-14T03:07:50.028Z</time>
      </trkpt>
      <trkpt lat="43.25422" lon="2.83973">
        <ele>32</ele>
        <time>2019-05-14T03:08:19.637Z</time>
      </trkpt>
      <trkpt lat="43.25434" lon="2.84001">
        <ele>33</ele>
        <time>2019-05-14T03:08:29.468Z</time>
      </trkpt>
      <trkpt lat="43.25437" lon="2.8401">
        <ele>33</ele>
        <time>2019-05-14T03:08:32.597Z</time>
      </trkpt>
      <trkpt lat="43.25438" lon="2.84024">
        <ele>34</ele>
        <time>2019-05-14T03:08:36.365Z</time>
      </trkpt>
      <trkpt lat="43.25438" lon="2.84033">
        <ele>35</ele>
        <time>2019-05-14T03:08:39.301Z</time>
      </trkpt>
      <trkpt lat="43.25438" lon="2.84049">
        <ele>35</ele>
        <time>2019-05-14T03:08:43.931Z</time>
      </trkpt>
      <trkpt lat="43.2542" lon="2.84093">
        <ele>38</ele>
        <time>2019-05-14T03:08:59.026Z</time>
      </trkpt>
      <trkpt lat="43.25363" lon="2.84104">
        <ele>37</ele>
        <time>2019-05-14T03:09:22.890Z</time>
      </trkpt>
      <trkpt lat="43.25362" lon="2.84104">
        <ele>37</ele>
        <time>2019-05-14T03:09:23.175Z</time>
      </trkpt>
      <trkpt lat="43.25133" lon="2.84257">
        <ele>37</ele>
        <time>2019-05-14T03:10:56.804Z</time>
      </trkpt>
      <trkpt lat="43.24915" lon="2.84376">
        <ele>32</ele>
        <time>2019-05-14T03:12:15.248Z</time>
      </trkpt>
      <trkpt lat="43.24849" lon="2.845">
        <ele>34</ele>
        <time>2019-05-14T03:12:53.226Z</time>
      </trkpt>
      <trkpt lat="43.24822" lon="2.84645">
        <ele>33</ele>
        <time>2019-05-14T03:13:32.060Z</time>
      </trkpt>
      <trkpt lat="43.24813" lon="2.84843">
        <ele>35</ele>
        <time>2019-05-14T03:14:26.215Z</time>
      </trkpt>
      <trkpt lat="43.24793" lon="2.85008">
        <ele>34</ele>
        <time>2019-05-14T03:15:12.428Z</time>
      </trkpt>
      <trkpt lat="43.24788" lon="2.85396">
        <ele>36</ele>
        <time>2019-05-14T03:17:00.753Z</time>
      </trkpt>
      <trkpt lat="43.24744" lon="2.85685">
        <ele>37</ele>
        <time>2019-05-14T03:18:23.953Z</time>
      </trkpt>
      <trkpt lat="43.24738" lon="2.85788">
        <ele>37</ele>
        <time>2019-05-14T03:18:52.077Z</time>
      </trkpt>
      <trkpt lat="43.24703" lon="2.85941">
        <ele>37</ele>
        <time>2019-05-14T03:19:37.302Z</time>
      </trkpt>
      <trkpt lat="43.24697" lon="2.85962">
        <ele>37</ele>
        <time>2019-05-14T03:19:43.189Z</time>
      </trkpt>
      <trkpt lat="43.24696" lon="2.85971">
        <ele>37</ele>
        <time>2019-05-14T03:19:44.960Z</time>
      </trkpt>
      <trkpt lat="43.24694" lon="2.85993">
        <ele>36</ele>
        <time>2019-05-14T03:19:48.594Z</time>
      </trkpt>
      <trkpt lat="43.24688" lon="2.86042">
        <ele>39</ele>
        <time>2019-05-14T03:19:56.158Z</time>
      </trkpt>
      <trkpt lat="43.24687" lon="2.86062">
        <ele>40</ele>
        <time>2019-05-14T03:19:59.075Z</time>
      </trkpt>
      <trkpt lat="43.24651" lon="2.86351">
        <ele>35</ele>
        <time>2019-05-14T03:20:39.537Z</time>
      </trkpt>
      <trkpt lat="43.24665" lon="2.86583">
        <ele>36</ele>
        <time>2019-05-14T03:21:11.561Z</time>
      </trkpt>
      <trkpt lat="43.24679" lon="2.86693">
        <ele>33</ele>
        <time>2019-05-14T03:21:28.451Z</time>
      </trkpt>
      <trkpt lat="43.24692" lon="2.86733">
        <ele>32</ele>
        <time>2019-05-14T03:21:35.243Z</time>
      </trkpt>
      <trkpt lat="43.24758" lon="2.86823">
        <ele>34</ele>
        <time>2019-05-14T03:21:56.617Z</time>
      </trkpt>
      <trkpt lat="43.24783" lon="2.86872">
        <ele>33</ele>
        <time>2019-05-14T03:22:06.969Z</time>
      </trkpt>
      <trkpt lat="43.24805" lon="2.87086">
        <ele>32</ele>
        <time>2019-05-14T03:22:43.167Z</time>
      </trkpt>
      <trkpt lat="43.24787" lon="2.87314">
        <ele>31</ele>
        <time>2019-05-14T03:23:24.884Z</time>
      </trkpt>
      <trkpt lat="43.24789" lon="2.87341">
        <ele>32</ele>
        <time>2019-05-14T03:23:29.994Z</time>
      </trkpt>
      <trkpt lat="43.24802" lon="2.87379">
        <ele>33</ele>
        <time>2019-05-14T03:23:43.030Z</time>
      </trkpt>
      <trkpt lat="43.24863" lon="2.87447">
        <ele>37</ele>
        <time>2019-05-14T03:24:16.157Z</time>
      </trkpt>
      <trkpt lat="43.24882" lon="2.87501">
        <ele>37</ele>
        <time>2019-05-14T03:24:34.876Z</time>
      </trkpt>
      <trkpt lat="43.24902" lon="2.87727">
        <ele>36</ele>
        <time>2019-05-14T03:25:36.459Z</time>
      </trkpt>
      <trkpt lat="43.24948" lon="2.87869">
        <ele>34</ele>
        <time>2019-05-14T03:26:17.395Z</time>
      </trkpt>
      <trkpt lat="43.24968" lon="2.879">
        <ele>34</ele>
        <time>2019-05-14T03:26:28.305Z</time>
      </trkpt>
      <trkpt lat="43.24974" lon="2.8791">
        <ele>34</ele>
        <time>2019-05-14T03:26:31.745Z</time>
      </trkpt>
      <trkpt lat="43.25005" lon="2.87937">
        <ele>35</ele>
        <time>2019-05-14T03:26:45.510Z</time>
      </trkpt>
      <trkpt lat="43.25032" lon="2.87963">
        <ele>35</ele>
        <time>2019-05-14T03:26:57.977Z</time>
      </trkpt>
      <trkpt lat="43.25046" lon="2.87976">
        <ele>36</ele>
        <time>2019-05-14T03:27:04.363Z</time>
      </trkpt>
      <trkpt lat="43.25296" lon="2.88236">
        <ele>36</ele>
        <time>2019-05-14T03:29:03.511Z</time>
      </trkpt>
      <trkpt lat="43.25375" lon="2.88495">
        <ele>36</ele>
        <time>2019-05-14T03:30:20.230Z</time>
      </trkpt>
      <trkpt lat="43.25399" lon="2.88533">
        <ele>36</ele>
        <time>2019-05-14T03:30:33.677Z</time>
      </trkpt>
      <trkpt lat="43.2542" lon="2.88567">
        <ele>37</ele>
        <time>2019-05-14T03:30:45.913Z</time>
      </trkpt>
      <trkpt lat="43.25439" lon="2.88593">
        <ele>36</ele>
        <time>2019-05-14T03:30:55.884Z</time>
      </trkpt>
      <trkpt lat="43.25509" lon="2.88644">
        <ele>35</ele>
        <time>2019-05-14T03:31:25.680Z</time>
      </trkpt>
      <trkpt lat="43.25699" lon="2.88723">
        <ele>34</ele>
        <time>2019-05-14T03:32:39.974Z</time>
      </trkpt>
      <trkpt lat="43.2575" lon="2.88788">
        <ele>34</ele>
        <time>2019-05-14T03:33:06.357Z</time>
      </trkpt>
      <trkpt lat="43.25789" lon="2.88868">
        <ele>35</ele>
        <time>2019-05-14T03:33:32.822Z</time>
      </trkpt>
      <trkpt lat="43.25807" lon="2.88993">
        <ele>35</ele>
        <time>2019-05-14T03:34:06.968Z</time>
      </trkpt>
      <trkpt lat="43.25791" lon="2.89095">
        <ele>34</ele>
        <time>2019-05-14T03:34:33.985Z</time>
      </trkpt>
      <trkpt lat="43.25725" lon="2.89285">
        <ele>33</ele>
        <time>2019-05-14T03:35:27.580Z</time>
      </trkpt>
      <trkpt lat="43.25711" lon="2.89362">
        <ele>32</ele>
        <time>2019-05-14T03:35:48.473Z</time>
      </trkpt>
      <trkpt lat="43.25718" lon="2.89442">
        <ele>32</ele>
        <time>2019-05-14T03:36:10.018Z</time>
      </trkpt>
      <trkpt lat="43.25726" lon="2.8953">
        <ele>33</ele>
        <time>2019-05-14T03:36:34.227Z</time>
      </trkpt>
      <trkpt lat="43.25762" lon="2.89654">
        <ele>34</ele>
        <time>2019-05-14T03:37:11.491Z</time>
      </trkpt>
      <trkpt lat="43.25838" lon="2.89781">
        <ele>35</ele>
        <time>2019-05-14T03:37:56.520Z</time>
      </trkpt>
      <trkpt lat="43.25933" lon="2.899">
        <ele>35</ele>
        <time>2019-05-14T03:38:44.370Z</time>
      </trkpt>
      <trkpt lat="43.26054" lon="2.9012">
        <ele>35</ele>
        <time>2019-05-14T03:39:59.356Z</time>
      </trkpt>
      <trkpt lat="43.26101" lon="2.90204">
        <ele>36</ele>
        <time>2019-05-14T03:40:28.005Z</time>
      </trkpt>
      <trkpt lat="43.26186" lon="2.90335">
        <ele>33</ele>
        <time>2019-05-14T03:41:14.987Z</time>
      </trkpt>
      <trkpt lat="43.26234" lon="2.90396">
        <ele>33</ele>
        <time>2019-05-14T03:41:38.996Z</time>
      </trkpt>
      <trkpt lat="43.26248" lon="2.90406">
        <ele>34</ele>
        <time>2019-05-14T03:41:44.698Z</time>
      </trkpt>
      <trkpt lat="43.26277" lon="2.90421">
        <ele>34</ele>
        <time>2019-05-14T03:41:56.305Z</time>
      </trkpt>
      <trkpt lat="43.26285" lon="2.90437">
        <ele>34</ele>
        <time>2019-05-14T03:42:01.583Z</time>
      </trkpt>
      <trkpt lat="43.26317" lon="2.90475">
        <ele>35</ele>
        <time>2019-05-14T03:42:17.143Z</time>
      </trkpt>
      <trkpt lat="43.26348" lon="2.90495">
        <ele>35</ele>
        <time>2019-05-14T03:42:30.188Z</time>
      </trkpt>
      <trkpt lat="43.26449" lon="2.90504">
        <ele>35</ele>
        <time>2019-05-14T03:43:10.560Z</time>
      </trkpt>
      <trkpt lat="43.26459" lon="2.90501">
        <ele>35</ele>
        <time>2019-05-14T03:43:14.404Z</time>
      </trkpt>
      <trkpt lat="43.26512" lon="2.90486">
        <ele>37</ele>
        <time>2019-05-14T03:43:36.183Z</time>
      </trkpt>
      <trkpt lat="43.2654" lon="2.90472">
        <ele>36</ele>
        <time>2019-05-14T03:43:44.298Z</time>
      </trkpt>
      <trkpt lat="43.26585" lon="2.90449">
        <ele>35</ele>
        <time>2019-05-14T03:43:57.135Z</time>
      </trkpt>
      <trkpt lat="43.26607" lon="2.90465">
        <ele>35</ele>
        <time>2019-05-14T03:44:03.867Z</time>
      </trkpt>
      <trkpt lat="43.26614" lon="2.90468">
        <ele>35</ele>
        <time>2019-05-14T03:44:05.825Z</time>
      </trkpt>
      <trkpt lat="43.26637" lon="2.90444">
        <ele>35</ele>
        <time>2019-05-14T03:44:13.227Z</time>
      </trkpt>
      <trkpt lat="43.26631" lon="2.90429">
        <ele>35</ele>
        <time>2019-05-14T03:44:16.379Z</time>
      </trkpt>
      <trkpt lat="43.26612" lon="2.90382">
        <ele>36</ele>
        <time>2019-05-14T03:44:25.837Z</time>
      </trkpt>
      <trkpt lat="43.26608" lon="2.90372">
        <ele>36</ele>
        <time>2019-05-14T03:44:27.745Z</time>
      </trkpt>
      <trkpt lat="43.26608" lon="2.90355">
        <ele>36</ele>
        <time>2019-05-14T03:44:30.471Z</time>
      </trkpt>
      <trkpt lat="43.26626" lon="2.90302">
        <ele>35</ele>
        <time>2019-05-14T03:44:40.286Z</time>
      </trkpt>
      <trkpt lat="43.26665" lon="2.90228">
        <ele>35</ele>
        <time>2019-05-14T03:44:55.291Z</time>
      </trkpt>
      <trkpt lat="43.2673" lon="2.90104">
        <ele>34</ele>
        <time>2019-05-14T03:45:19.161Z</time>
      </trkpt>
      <trkpt lat="43.26796" lon="2.89997">
        <ele>34</ele>
        <time>2019-05-14T03:45:41.312Z</time>
      </trkpt>
      <trkpt lat="43.2684" lon="2.8994">
        <ele>34</ele>
        <time>2019-05-14T03:45:55.090Z</time>
      </trkpt>
      <trkpt lat="43.26861" lon="2.89927">
        <ele>34</ele>
        <time>2019-05-14T03:46:00.457Z</time>
      </trkpt>
      <trkpt lat="43.26882" lon="2.89922">
        <ele>34</ele>
        <time>2019-05-14T03:46:05.429Z</time>
      </trkpt>
      <trkpt lat="43.26943" lon="2.89895">
        <ele>35</ele>
        <time>2019-05-14T03:46:20.869Z</time>
      </trkpt>
      <trkpt lat="43.26987" lon="2.89874">
        <ele>36</ele>
        <time>2019-05-14T03:46:32.084Z</time>
      </trkpt>
      <trkpt lat="43.27003" lon="2.89868">
        <ele>36</ele>
        <time>2019-05-14T03:46:36.114Z</time>
      </trkpt>
      <trkpt lat="43.27024" lon="2.89865">
        <ele>36</ele>
        <time>2019-05-14T03:46:40.999Z</time>
      </trkpt>
      <trkpt lat="43.27252" lon="2.89847">
        <ele>35</ele>
        <time>2019-05-14T03:47:33.623Z</time>
      </trkpt>
      <trkpt lat="43.27445" lon="2.89915">
        <ele>34</ele>
        <time>2019-05-14T03:48:19.901Z</time>
      </trkpt>
      <trkpt lat="43.27498" lon="2.89901">
        <ele>35</ele>
        <time>2019-05-14T03:48:32.939Z</time>
      </trkpt>
      <trkpt lat="43.27663" lon="2.89801">
        <ele>36</ele>
        <time>2019-05-14T03:49:19.583Z</time>
      </trkpt>
      <trkpt lat="43.27803" lon="2.89798">
        <ele>38</ele>
        <time>2019-05-14T03:49:57.188Z</time>
      </trkpt>
      <trkpt lat="43.27905" lon="2.89812">
        <ele>39</ele>
        <time>2019-05-14T03:50:24.696Z</time>
      </trkpt>
      <trkpt lat="43.27968" lon="2.89813">
        <ele>39</ele>
        <time>2019-05-14T03:50:42.092Z</time>
      </trkpt>
      <trkpt lat="43.28011" lon="2.89811">
        <ele>39</ele>
        <time>2019-05-14T03:50:53.824Z</time>
      </trkpt>
      <trkpt lat="43.28053" lon="2.89811">
        <ele>40</ele>
        <time>2019-05-14T03:51:04.982Z</time>
      </trkpt>
      <trkpt lat="43.28057" lon="2.89811">
        <ele>40</ele>
        <time>2019-05-14T03:51:06.243Z</time>
      </trkpt>
      <trkpt lat="43.28138" lon="2.89792">
        <ele>41</ele>
        <time>2019-05-14T03:51:27.565Z</time>
      </trkpt>
      <trkpt lat="43.28153" lon="2.89785">
        <ele>41</ele>
        <time>2019-05-14T03:51:31.522Z</time>
      </trkpt>
      <trkpt lat="43.28156" lon="2.89784">
        <ele>41</ele>
        <time>2019-05-14T03:51:32.278Z</time>
      </trkpt>
      <trkpt lat="43.2817" lon="2.89764">
        <ele>41</ele>
        <time>2019-05-14T03:51:37.535Z</time>
      </trkpt>
      <trkpt lat="43.28188" lon="2.89743">
        <ele>41</ele>
        <time>2019-05-14T03:51:43.494Z</time>
      </trkpt>
      <trkpt lat="43.28199" lon="2.89728">
        <ele>41</ele>
        <time>2019-05-14T03:51:47.444Z</time>
      </trkpt>
      <trkpt lat="43.28245" lon="2.89668">
        <ele>41</ele>
        <time>2019-05-14T03:52:03.531Z</time>
      </trkpt>
      <trkpt lat="43.28275" lon="2.89642">
        <ele>41</ele>
        <time>2019-05-14T03:52:12.564Z</time>
      </trkpt>
      <trkpt lat="43.28304" lon="2.89633">
        <ele>42</ele>
        <time>2019-05-14T03:52:20.368Z</time>
      </trkpt>
      <trkpt lat="43.28329" lon="2.89634">
        <ele>42</ele>
        <time>2019-05-14T03:52:27.284Z</time>
      </trkpt>
      <trkpt lat="43.28344" lon="2.89639">
        <ele>42</ele>
        <time>2019-05-14T03:52:31.316Z</time>
      </trkpt>
      <trkpt lat="43.28376" lon="2.89646">
        <ele>43</ele>
        <time>2019-05-14T03:52:40.101Z</time>
      </trkpt>
      <trkpt lat="43.28414" lon="2.89648">
        <ele>43</ele>
        <time>2019-05-14T03:52:50.085Z</time>
      </trkpt>
      <trkpt lat="43.28459" lon="2.8964">
        <ele>44</ele>
        <time>2019-05-14T03:53:02.410Z</time>
      </trkpt>
      <trkpt lat="43.28494" lon="2.89639">
        <ele>44</ele>
        <time>2019-05-14T03:53:11.642Z</time>
      </trkpt>
      <trkpt lat="43.28498" lon="2.89639">
        <ele>44</ele>
        <time>2019-05-14T03:53:12.729Z</time>
      </trkpt>
      <trkpt lat="43.285" lon="2.89651">
        <ele>45</ele>
        <time>2019-05-14T03:53:14.931Z</time>
      </trkpt>
      <trkpt lat="43.28524" lon="2.8973">
        <ele>43</ele>
        <time>2019-05-14T03:53:30.800Z</time>
      </trkpt>
      <trkpt lat="43.28527" lon="2.89736">
        <ele>43</ele>
        <time>2019-05-14T03:53:31.959Z</time>
      </trkpt>
      <trkpt lat="43.28533" lon="2.89721">
        <ele>43</ele>
        <time>2019-05-14T03:53:35.085Z</time>
      </trkpt>
      <trkpt lat="43.28547" lon="2.89729">
        <ele>43</ele>
        <time>2019-05-14T03:53:38.929Z</time>
      </trkpt>
      <trkpt lat="43.28548" lon="2.89728">
        <ele>43</ele>
        <time>2019-05-14T03:53:39.173Z</time>
      </trkpt>
      <trkpt lat="43.28549" lon="2.89727">
        <ele>43</ele>
        <time>2019-05-13T19:53:30.822Z</time>
      </trkpt>
      <trkpt lat="43.28549" lon="2.89727">
        <ele>43</ele>
        <time>2019-05-13T19:53:30.822Z</time>
      </trkpt>
      <trkpt lat="43.28547" lon="2.89729">
        <ele>43</ele>
        <time>2019-05-13T19:53:31.238Z</time>
      </trkpt>
      <trkpt lat="43.28533" lon="2.89721">
        <ele>43</ele>
        <time>2019-05-13T19:53:34.261Z</time>
      </trkpt>
      <trkpt lat="43.28527" lon="2.89736">
        <ele>43</ele>
        <time>2019-05-13T19:53:36.740Z</time>
      </trkpt>
      <trkpt lat="43.28526" lon="2.89783">
        <ele>43</ele>
        <time>2019-05-13T19:53:43.302Z</time>
      </trkpt>
      <trkpt lat="43.28524" lon="2.89797">
        <ele>43</ele>
        <time>2019-05-13T19:53:45.276Z</time>
      </trkpt>
      <trkpt lat="43.2852" lon="2.8982">
        <ele>43</ele>
        <time>2019-05-13T19:53:48.432Z</time>
      </trkpt>
      <trkpt lat="43.28514" lon="2.89842">
        <ele>43</ele>
        <time>2019-05-13T19:53:51.701Z</time>
      </trkpt>
      <trkpt lat="43.28511" lon="2.89855">
        <ele>43</ele>
        <time>2019-05-13T19:53:53.418Z</time>
      </trkpt>
      <trkpt lat="43.28496" lon="2.89893">
        <ele>43</ele>
        <time>2019-05-13T19:53:59.140Z</time>
      </trkpt>
      <trkpt lat="43.28486" lon="2.89915">
        <ele>43</ele>
        <time>2019-05-13T19:54:02.474Z</time>
      </trkpt>
      <trkpt lat="43.28483" lon="2.89922">
        <ele>42</ele>
        <time>2019-05-13T19:54:03.408Z</time>
      </trkpt>
      <trkpt lat="43.28458" lon="2.89963">
        <ele>41</ele>
        <time>2019-05-13T19:54:10.108Z</time>
      </trkpt>
      <trkpt lat="43.28449" lon="2.89971">
        <ele>41</ele>
        <time>2019-05-13T19:54:11.749Z</time>
      </trkpt>
      <trkpt lat="43.28433" lon="2.89987">
        <ele>40</ele>
        <time>2019-05-13T19:54:14.946Z</time>
      </trkpt>
      <trkpt lat="43.2841" lon="2.90009">
        <ele>39</ele>
        <time>2019-05-13T19:54:19.675Z</time>
      </trkpt>
      <trkpt lat="43.28394" lon="2.90023">
        <ele>39</ele>
        <time>2019-05-13T19:54:22.810Z</time>
      </trkpt>
      <trkpt lat="43.28401" lon="2.90032">
        <ele>39</ele>
        <time>2019-05-13T19:54:24.332Z</time>
      </trkpt>
      <trkpt lat="43.28467" lon="2.90121">
        <ele>35</ele>
        <time>2019-05-13T19:54:41.266Z</time>
      </trkpt>
      <trkpt lat="43.28503" lon="2.90169">
        <ele>37</ele>
        <time>2019-05-13T19:54:51.978Z</time>
      </trkpt>
      <trkpt lat="43.28639" lon="2.9035">
        <ele>39</ele>
        <time>2019-05-13T19:55:42.852Z</time>
      </trkpt>
      <trkpt lat="43.28704" lon="2.90395">
        <ele>40</ele>
        <time>2019-05-13T19:56:01.444Z</time>
      </trkpt>
      <trkpt lat="43.2862" lon="2.90874">
        <ele>38</ele>
        <time>2019-05-13T19:57:16.090Z</time>
      </trkpt>
      <trkpt lat="43.28537" lon="2.91345">
        <ele>36</ele>
        <time>2019-05-13T19:58:33.691Z</time>
      </trkpt>
      <trkpt lat="43.28531" lon="2.91361">
        <ele>36</ele>
        <time>2019-05-13T19:58:36.699Z</time>
      </trkpt>
      <trkpt lat="43.28514" lon="2.91387">
        <ele>37</ele>
        <time>2019-05-13T19:58:42.538Z</time>
      </trkpt>
      <trkpt lat="43.28498" lon="2.91423">
        <ele>37</ele>
        <time>2019-05-13T19:58:49.493Z</time>
      </trkpt>
      <trkpt lat="43.28495" lon="2.91438">
        <ele>37</ele>
        <time>2019-05-13T19:58:52.085Z</time>
      </trkpt>
      <trkpt lat="43.28483" lon="2.91455">
        <ele>37</ele>
        <time>2019-05-13T19:58:55.564Z</time>
      </trkpt>
      <trkpt lat="43.28464" lon="2.91479">
        <ele>37</ele>
        <time>2019-05-13T19:59:01.058Z</time>
      </trkpt>
      <trkpt lat="43.28432" lon="2.91506">
        <ele>37</ele>
        <time>2019-05-13T19:59:08.745Z</time>
      </trkpt>
      <trkpt lat="43.28391" lon="2.91536">
        <ele>36</ele>
        <time>2019-05-13T19:59:17.898Z</time>
      </trkpt>
      <trkpt lat="43.28375" lon="2.9155">
        <ele>36</ele>
        <time>2019-05-13T19:59:21.779Z</time>
      </trkpt>
      <trkpt lat="43.2835" lon="2.91576">
        <ele>36</ele>
        <time>2019-05-13T19:59:27.923Z</time>
      </trkpt>
      <trkpt lat="43.28337" lon="2.91592">
        <ele>36</ele>
        <time>2019-05-13T19:59:31.517Z</time>
      </trkpt>
      <trkpt lat="43.28328" lon="2.91602">
        <ele>35</ele>
        <time>2019-05-13T19:59:33.888Z</time>
      </trkpt>
      <trkpt lat="43.28301" lon="2.91651">
        <ele>35</ele>
        <time>2019-05-13T19:59:43.182Z</time>
      </trkpt>
      <trkpt lat="43.28289" lon="2.91681">
        <ele>34</ele>
        <time>2019-05-13T19:59:48.571Z</time>
      </trkpt>
      <trkpt lat="43.28281" lon="2.91706">
        <ele>34</ele>
        <time>2019-05-13T19:59:53.221Z</time>
      </trkpt>
      <trkpt lat="43.28267" lon="2.91743">
        <ele>34</ele>
        <time>2019-05-13T19:59:59.866Z</time>
      </trkpt>
      <trkpt lat="43.28268" lon="2.91751">
        <ele>34</ele>
        <time>2019-05-13T20:00:01.165Z</time>
      </trkpt>
      <trkpt lat="43.28257" lon="2.91761">
        <ele>34</ele>
        <time>2019-05-13T20:00:03.848Z</time>
      </trkpt>
      <trkpt lat="43.28251" lon="2.91776">
        <ele>34</ele>
        <time>2019-05-13T20:00:06.536Z</time>
      </trkpt>
      <trkpt lat="43.28248" lon="2.91783">
        <ele>35</ele>
        <time>2019-05-13T20:00:07.829Z</time>
      </trkpt>
      <trkpt lat="43.28244" lon="2.91794">
        <ele>35</ele>
        <time>2019-05-13T20:00:09.891Z</time>
      </trkpt>
      <trkpt lat="43.28226" lon="2.91842">
        <ele>35</ele>
        <time>2019-05-13T20:00:18.457Z</time>
      </trkpt>
      <trkpt lat="43.28216" lon="2.91862">
        <ele>35</ele>
        <time>2019-05-13T20:00:22.362Z</time>
      </trkpt>
      <trkpt lat="43.28207" lon="2.91874">
        <ele>35</ele>
        <time>2019-05-13T20:00:25.164Z</time>
      </trkpt>
      <trkpt lat="43.282" lon="2.91876">
        <ele>36</ele>
        <time>2019-05-13T20:00:26.675Z</time>
      </trkpt>
      <trkpt lat="43.28167" lon="2.91887">
        <ele>36</ele>
        <time>2019-05-13T20:00:34.080Z</time>
      </trkpt>
      <trkpt lat="43.28163" lon="2.91889">
        <ele>35</ele>
        <time>2019-05-13T20:00:34.885Z</time>
      </trkpt>
      <trkpt lat="43.28167" lon="2.91908">
        <ele>36</ele>
        <time>2019-05-13T20:00:40.186Z</time>
      </trkpt>
      <trkpt lat="43.28175" lon="2.91942">
        <ele>36</ele>
        <time>2019-05-13T20:00:49.550Z</time>
      </trkpt>
      <trkpt lat="43.28183" lon="2.91966">
        <ele>36</ele>
        <time>2019-05-13T20:00:56.602Z</time>
      </trkpt>
      <trkpt lat="43.28195" lon="2.92014">
        <ele>35</ele>
        <time>2019-05-13T20:01:09.566Z</time>
      </trkpt>
      <trkpt lat="43.28215" lon="2.92062">
        <ele>35</ele>
        <time>2019-05-13T20:01:23.538Z</time>
      </trkpt>
      <trkpt lat="43.28263" lon="2.9213">
        <ele>34</ele>
        <time>2019-05-13T20:01:48.330Z</time>
      </trkpt>
      <trkpt lat="43.28312" lon="2.92175">
        <ele>34</ele>
        <time>2019-05-13T20:02:09.563Z</time>
      </trkpt>
      <trkpt lat="43.28318" lon="2.92199">
        <ele>34</ele>
        <time>2019-05-13T20:02:16.259Z</time>
      </trkpt>
      <trkpt lat="43.28311" lon="2.92215">
        <ele>34</ele>
        <time>2019-05-13T20:02:21.381Z</time>
      </trkpt>
      <trkpt lat="43.28314" lon="2.92223">
        <ele>34</ele>
        <time>2019-05-13T20:02:23.771Z</time>
      </trkpt>
      <trkpt lat="43.28325" lon="2.92244">
        <ele>33</ele>
        <time>2019-05-13T20:02:30.791Z</time>
      </trkpt>
      <trkpt lat="43.28329" lon="2.9225">
        <ele>33</ele>
        <time>2019-05-13T20:02:32.792Z</time>
      </trkpt>
      <trkpt lat="43.28374" lon="2.92197">
        <ele>34</ele>
        <time>2019-05-13T20:02:54.836Z</time>
      </trkpt>
      <trkpt lat="43.284" lon="2.92198">
        <ele>35</ele>
        <time>2019-05-13T20:03:04.337Z</time>
      </trkpt>
      <trkpt lat="43.28411" lon="2.92208">
        <ele>35</ele>
        <time>2019-05-13T20:03:09.282Z</time>
      </trkpt>
      <trkpt lat="43.28576" lon="2.92253">
        <ele>36</ele>
        <time>2019-05-13T20:04:12.315Z</time>
      </trkpt>
      <trkpt lat="43.28809" lon="2.9232">
        <ele>34</ele>
        <time>2019-05-13T20:05:39.093Z</time>
      </trkpt>
      <trkpt lat="43.28922" lon="2.92353">
        <ele>35</ele>
        <time>2019-05-13T20:06:21.369Z</time>
      </trkpt>
      <trkpt lat="43.28977" lon="2.92369">
        <ele>35</ele>
        <time>2019-05-13T20:06:42.106Z</time>
      </trkpt>
      <trkpt lat="43.29145" lon="2.92418">
        <ele>33</ele>
        <time>2019-05-13T20:07:46.932Z</time>
      </trkpt>
      <trkpt lat="43.29861" lon="2.92626">
        <ele>35</ele>
        <time>2019-05-13T20:12:21.100Z</time>
      </trkpt>
      <trkpt lat="43.30191" lon="2.92655">
        <ele>35</ele>
        <time>2019-05-13T20:14:25.697Z</time>
      </trkpt>
      <trkpt lat="43.30199" lon="2.92665">
        <ele>36</ele>
        <time>2019-05-13T20:14:29.729Z</time>
      </trkpt>
      <trkpt lat="43.3021" lon="2.92665">
        <ele>36</ele>
        <time>2019-05-13T20:14:32.388Z</time>
      </trkpt>
      <trkpt lat="43.30223" lon="2.92665">
        <ele>36</ele>
        <time>2019-05-13T20:14:35.333Z</time>
      </trkpt>
      <trkpt lat="43.30597" lon="2.92719">
        <ele>34</ele>
        <time>2019-05-13T20:15:57.873Z</time>
      </trkpt>
      <trkpt lat="43.3062" lon="2.92718">
        <ele>35</ele>
        <time>2019-05-13T20:16:03.226Z</time>
      </trkpt>
      <trkpt lat="43.30634" lon="2.92717">
        <ele>35</ele>
        <time>2019-05-13T20:16:06.906Z</time>
      </trkpt>
      <trkpt lat="43.30723" lon="2.92681">
        <ele>35</ele>
        <time>2019-05-13T20:16:29.883Z</time>
      </trkpt>
      <trkpt lat="43.30727" lon="2.9268">
        <ele>35</ele>
        <time>2019-05-13T20:16:31.157Z</time>
      </trkpt>
      <trkpt lat="43.30732" lon="2.9268">
        <ele>35</ele>
        <time>2019-05-13T20:16:33.332Z</time>
      </trkpt>
      <trkpt lat="43.30762" lon="2.92667">
        <ele>34</ele>
        <time>2019-05-13T20:16:45.722Z</time>
      </trkpt>
      <trkpt lat="43.308" lon="2.92632">
        <ele>35</ele>
        <time>2019-05-13T20:17:03.608Z</time>
      </trkpt>
      <trkpt lat="43.30806" lon="2.9263">
        <ele>35</ele>
        <time>2019-05-13T20:17:05.923Z</time>
      </trkpt>
      <trkpt lat="43.30802" lon="2.92622">
        <ele>35</ele>
        <time>2019-05-13T20:17:08.574Z</time>
      </trkpt>
      <trkpt lat="43.30806" lon="2.92617">
        <ele>35</ele>
        <time>2019-05-13T20:17:10.549Z</time>
      </trkpt>
      <trkpt lat="43.30839" lon="2.9257">
        <ele>35</ele>
        <time>2019-05-13T20:17:28.905Z</time>
      </trkpt>
      <trkpt lat="43.30895" lon="2.92447">
        <ele>34</ele>
        <time>2019-05-13T20:18:08.546Z</time>
      </trkpt>
      <trkpt lat="43.30999" lon="2.92282">
        <ele>34</ele>
        <time>2019-05-13T20:19:07.901Z</time>
      </trkpt>
      <trkpt lat="43.31068" lon="2.92072">
        <ele>34</ele>
        <time>2019-05-13T20:20:11.524Z</time>
      </trkpt>
      <trkpt lat="43.31151" lon="2.91889">
        <ele>35</ele>
        <time>2019-05-13T20:21:10.946Z</time>
      </trkpt>
      <trkpt lat="43.31177" lon="2.91833">
        <ele>37</ele>
        <time>2019-05-13T20:21:28.818Z</time>
      </trkpt>
      <trkpt lat="43.3118" lon="2.91835">
        <ele>36</ele>
        <time>2019-05-13T20:21:30.056Z</time>
      </trkpt>
      <trkpt lat="43.31189" lon="2.91821">
        <ele>36</ele>
        <time>2019-05-13T20:21:35.042Z</time>
      </trkpt>
      <trkpt lat="43.31243" lon="2.91739">
        <ele>38</ele>
        <time>2019-05-13T20:22:04.357Z</time>
      </trkpt>
      <trkpt lat="43.31306" lon="2.9174">
        <ele>39</ele>
        <time>2019-05-13T20:22:27.053Z</time>
      </trkpt>
      <trkpt lat="43.31325" lon="2.91775">
        <ele>38</ele>
        <time>2019-05-13T20:22:38.009Z</time>
      </trkpt>
      <trkpt lat="43.31336" lon="2.91833">
        <ele>37</ele>
        <time>2019-05-13T20:22:53.705Z</time>
      </trkpt>
      <trkpt lat="43.31333" lon="2.91879">
        <ele>35</ele>
        <time>2019-05-13T20:23:05.483Z</time>
      </trkpt>
      <trkpt lat="43.31314" lon="2.9193">
        <ele>34</ele>
        <time>2019-05-13T20:23:20.496Z</time>
      </trkpt>
      <trkpt lat="43.313" lon="2.91955">
        <ele>34</ele>
        <time>2019-05-13T20:23:28.528Z</time>
      </trkpt>
      <trkpt lat="43.31287" lon="2.91977">
        <ele>34</ele>
        <time>2019-05-13T20:23:35.936Z</time>
      </trkpt>
      <trkpt lat="43.31281" lon="2.9199">
        <ele>34</ele>
        <time>2019-05-13T20:23:39.937Z</time>
      </trkpt>
      <trkpt lat="43.3127" lon="2.9203">
        <ele>35</ele>
        <time>2019-05-13T20:23:51.076Z</time>
      </trkpt>
      <trkpt lat="43.31267" lon="2.92063">
        <ele>36</ele>
        <time>2019-05-13T20:24:00.011Z</time>
      </trkpt>
      <trkpt lat="43.31265" lon="2.92102">
        <ele>37</ele>
        <time>2019-05-13T20:24:10.205Z</time>
      </trkpt>
      <trkpt lat="43.31287" lon="2.92239">
        <ele>36</ele>
        <time>2019-05-13T20:24:46.987Z</time>
      </trkpt>
      <trkpt lat="43.31322" lon="2.9236">
        <ele>35</ele>
        <time>2019-05-13T20:25:20.877Z</time>
      </trkpt>
      <trkpt lat="43.31462" lon="2.92618">
        <ele>35</ele>
        <time>2019-05-13T20:26:45.278Z</time>
      </trkpt>
      <trkpt lat="43.31464" lon="2.92623">
        <ele>35</ele>
        <time>2019-05-13T20:26:46.742Z</time>
      </trkpt>
      <trkpt lat="43.31527" lon="2.92746">
        <ele>36</ele>
        <time>2019-05-13T20:27:27.285Z</time>
      </trkpt>
      <trkpt lat="43.31576" lon="2.92845">
        <ele>34</ele>
        <time>2019-05-13T20:28:00.244Z</time>
      </trkpt>
      <trkpt lat="43.31597" lon="2.9296">
        <ele>34</ele>
        <time>2019-05-13T20:28:32.847Z</time>
      </trkpt>
      <trkpt lat="43.31589" lon="2.9306">
        <ele>35</ele>
        <time>2019-05-13T20:28:59.952Z</time>
      </trkpt>
      <trkpt lat="43.31561" lon="2.93204">
        <ele>34</ele>
        <time>2019-05-13T20:29:40.156Z</time>
      </trkpt>
      <trkpt lat="43.31519" lon="2.93418">
        <ele>35</ele>
        <time>2019-05-13T20:30:39.664Z</time>
      </trkpt>
      <trkpt lat="43.31533" lon="2.93483">
        <ele>35</ele>
        <time>2019-05-13T20:30:57.816Z</time>
      </trkpt>
      <trkpt lat="43.31628" lon="2.93644">
        <ele>35</ele>
        <time>2019-05-13T20:31:54.681Z</time>
      </trkpt>
      <trkpt lat="43.31645" lon="2.93723">
        <ele>34</ele>
        <time>2019-05-13T20:32:17.620Z</time>
      </trkpt>
      <trkpt lat="43.31635" lon="2.93813">
        <ele>34</ele>
        <time>2019-05-13T20:32:42.852Z</time>
      </trkpt>
      <trkpt lat="43.31583" lon="2.93991">
        <ele>36</ele>
        <time>2019-05-13T20:33:35.576Z</time>
      </trkpt>
      <trkpt lat="43.31583" lon="2.9403">
        <ele>35</ele>
        <time>2019-05-13T20:33:46.099Z</time>
      </trkpt>
      <trkpt lat="43.31618" lon="2.94244">
        <ele>34</ele>
        <time>2019-05-13T20:34:46.113Z</time>
      </trkpt>
      <trkpt lat="43.31619" lon="2.94341">
        <ele>34</ele>
        <time>2019-05-13T20:35:13.252Z</time>
      </trkpt>
      <trkpt lat="43.31584" lon="2.94409">
        <ele>35</ele>
        <time>2019-05-13T20:35:36.494Z</time>
      </trkpt>
      <trkpt lat="43.31552" lon="2.94439">
        <ele>35</ele>
        <time>2019-05-13T20:35:51.572Z</time>
      </trkpt>
      <trkpt lat="43.31312" lon="2.94542">
        <ele>35</ele>
        <time>2019-05-13T20:37:23.940Z</time>
      </trkpt>
      <trkpt lat="43.31261" lon="2.94586">
        <ele>36</ele>
        <time>2019-05-13T20:37:45.126Z</time>
      </trkpt>
      <trkpt lat="43.31246" lon="2.94648">
        <ele>35</ele>
        <time>2019-05-13T20:38:01.743Z</time>
      </trkpt>
      <trkpt lat="43.31244" lon="2.95166">
        <ele>37</ele>
        <time>2019-05-13T20:40:14.077Z</time>
      </trkpt>
      <trkpt lat="43.31303" lon="2.95361">
        <ele>33</ele>
        <time>2019-05-13T20:41:10.483Z</time>
      </trkpt>
      <trkpt lat="43.31362" lon="2.95453">
        <ele>34</ele>
        <time>2019-05-13T20:41:44.964Z</time>
      </trkpt>
      <trkpt lat="43.31395" lon="2.95487">
        <ele>35</ele>
        <time>2019-05-13T20:42:01.543Z</time>
      </trkpt>
      <trkpt lat="43.31423" lon="2.95541">
        <ele>37</ele>
        <time>2019-05-13T20:42:21.299Z</time>
      </trkpt>
      <trkpt lat="43.31428" lon="2.95599">
        <ele>37</ele>
        <time>2019-05-13T20:42:38.060Z</time>
      </trkpt>
      <trkpt lat="43.31416" lon="2.95668">
        <ele>37</ele>
        <time>2019-05-13T20:42:58.374Z</time>
      </trkpt>
      <trkpt lat="43.31413" lon="2.95688">
        <ele>35</ele>
        <time>2019-05-13T20:43:04.279Z</time>
      </trkpt>
      <trkpt lat="43.3141" lon="2.95704">
        <ele>35</ele>
        <time>2019-05-13T20:43:08.868Z</time>
      </trkpt>
      <trkpt lat="43.31363" lon="2.95853">
        <ele>36</ele>
        <time>2019-05-13T20:43:53.431Z</time>
      </trkpt>
      <trkpt lat="43.31348" lon="2.9594">
        <ele>37</ele>
        <time>2019-05-13T20:44:16.916Z</time>
      </trkpt>
      <trkpt lat="43.31333" lon="2.96131">
        <ele>34</ele>
        <time>2019-05-13T20:45:06.853Z</time>
      </trkpt>
      <trkpt lat="43.31341" lon="2.96306">
        <ele>35</ele>
        <time>2019-05-13T20:45:52.683Z</time>
      </trkpt>
      <trkpt lat="43.31365" lon="2.96385">
        <ele>34</ele>
        <time>2019-05-13T20:46:15.537Z</time>
      </trkpt>
      <trkpt lat="43.31442" lon="2.96549">
        <ele>36</ele>
        <time>2019-05-13T20:47:10.385Z</time>
      </trkpt>
      <trkpt lat="43.31533" lon="2.96692">
        <ele>37</ele>
        <time>2019-05-13T20:48:06.162Z</time>
      </trkpt>
      <trkpt lat="43.31669" lon="2.96855">
        <ele>40</ele>
        <time>2019-05-13T20:49:19.680Z</time>
      </trkpt>
      <trkpt lat="43.31704" lon="2.96913">
        <ele>39</ele>
        <time>2019-05-13T20:49:41.507Z</time>
      </trkpt>
      <trkpt lat="43.31731" lon="2.96978">
        <ele>40</ele>
        <time>2019-05-13T20:50:03.198Z</time>
      </trkpt>
      <trkpt lat="43.31756" lon="2.97035">
        <ele>42</ele>
        <time>2019-05-13T20:50:22.158Z</time>
      </trkpt>
      <trkpt lat="43.31778" lon="2.97137">
        <ele>41</ele>
        <time>2019-05-13T20:50:52.064Z</time>
      </trkpt>
      <trkpt lat="43.31776" lon="2.97197">
        <ele>39</ele>
        <time>2019-05-13T20:51:08.677Z</time>
      </trkpt>
      <trkpt lat="43.31757" lon="2.97275">
        <ele>37</ele>
        <time>2019-05-13T20:51:31.451Z</time>
      </trkpt>
      <trkpt lat="43.3169" lon="2.97428">
        <ele>37</ele>
        <time>2019-05-13T20:52:18.946Z</time>
      </trkpt>
      <trkpt lat="43.3168" lon="2.9746">
        <ele>37</ele>
        <time>2019-05-13T20:52:27.920Z</time>
      </trkpt>
      <trkpt lat="43.31672" lon="2.97497">
        <ele>39</ele>
        <time>2019-05-13T20:52:38.048Z</time>
      </trkpt>
      <trkpt lat="43.31658" lon="2.97641">
        <ele>36</ele>
        <time>2019-05-13T20:53:16.824Z</time>
      </trkpt>
      <trkpt lat="43.3166" lon="2.97657">
        <ele>35</ele>
        <time>2019-05-13T20:53:21.058Z</time>
      </trkpt>
      <trkpt lat="43.3167" lon="2.97678">
        <ele>35</ele>
        <time>2019-05-13T20:53:27.991Z</time>
      </trkpt>
      <trkpt lat="43.31809" lon="2.98202">
        <ele>37</ele>
        <time>2019-05-13T20:56:01.581Z</time>
      </trkpt>
      <trkpt lat="43.31823" lon="2.98285">
        <ele>36</ele>
        <time>2019-05-13T20:56:22.632Z</time>
      </trkpt>
      <trkpt lat="43.31841" lon="2.98568">
        <ele>34</ele>
        <time>2019-05-13T20:57:31.081Z</time>
      </trkpt>
      <trkpt lat="43.31853" lon="2.98685">
        <ele>34</ele>
        <time>2019-05-13T20:58:00.319Z</time>
      </trkpt>
      <trkpt lat="43.31871" lon="2.98786">
        <ele>33</ele>
        <time>2019-05-13T20:58:26.914Z</time>
      </trkpt>
      <trkpt lat="43.31918" lon="2.98908">
        <ele>33</ele>
        <time>2019-05-13T20:59:03.468Z</time>
      </trkpt>
      <trkpt lat="43.3192" lon="2.98913">
        <ele>33</ele>
        <time>2019-05-13T20:59:05.068Z</time>
      </trkpt>
      <trkpt lat="43.31923" lon="2.98917">
        <ele>33</ele>
        <time>2019-05-13T20:59:06.700Z</time>
      </trkpt>
      <trkpt lat="43.3194" lon="2.98939">
        <ele>33</ele>
        <time>2019-05-13T20:59:15.046Z</time>
      </trkpt>
      <trkpt lat="43.31949" lon="2.98954">
        <ele>34</ele>
        <time>2019-05-13T20:59:20.345Z</time>
      </trkpt>
      <trkpt lat="43.32066" lon="2.99095">
        <ele>34</ele>
        <time>2019-05-13T21:00:19.306Z</time>
      </trkpt>
      <trkpt lat="43.32134" lon="2.99129">
        <ele>34</ele>
        <time>2019-05-13T21:00:47.304Z</time>
      </trkpt>
      <trkpt lat="43.32179" lon="2.99123">
        <ele>33</ele>
        <time>2019-05-13T21:01:05.160Z</time>
      </trkpt>
      <trkpt lat="43.32219" lon="2.99092">
        <ele>33</ele>
        <time>2019-05-13T21:01:23.582Z</time>
      </trkpt>
      <trkpt lat="43.3225" lon="2.99034">
        <ele>35</ele>
        <time>2019-05-13T21:01:44.978Z</time>
      </trkpt>
      <trkpt lat="43.32309" lon="2.98819">
        <ele>37</ele>
        <time>2019-05-13T21:02:52.522Z</time>
      </trkpt>
      <trkpt lat="43.32345" lon="2.98796">
        <ele>37</ele>
        <time>2019-05-13T21:03:07.943Z</time>
      </trkpt>
      <trkpt lat="43.32376" lon="2.98808">
        <ele>37</ele>
        <time>2019-05-13T21:03:19.881Z</time>
      </trkpt>
      <trkpt lat="43.32485" lon="2.99132">
        <ele>37</ele>
        <time>2019-05-13T21:04:54.043Z</time>
      </trkpt>
      <trkpt lat="43.32534" lon="2.99429">
        <ele>36</ele>
        <time>2019-05-13T21:06:16.255Z</time>
      </trkpt>
      <trkpt lat="43.32537" lon="2.99469">
        <ele>36</ele>
        <time>2019-05-13T21:06:27.385Z</time>
      </trkpt>
      <trkpt lat="43.32546" lon="2.99523">
        <ele>36</ele>
        <time>2019-05-13T21:06:43.021Z</time>
      </trkpt>
      <trkpt lat="43.3255" lon="2.99621">
        <ele>36</ele>
        <time>2019-05-13T21:07:10.125Z</time>
      </trkpt>
      <trkpt lat="43.32531" lon="2.99795">
        <ele>38</ele>
        <time>2019-05-13T21:07:58.929Z</time>
      </trkpt>
      <trkpt lat="43.3247" lon="2.99986">
        <ele>35</ele>
        <time>2019-05-13T21:08:55.517Z</time>
      </trkpt>
      <trkpt lat="43.32299" lon="3.00312">
        <ele>35</ele>
        <time>2019-05-13T21:10:43.218Z</time>
      </trkpt>
      <trkpt lat="43.32262" lon="3.0039">
        <ele>36</ele>
        <time>2019-05-13T21:11:08.230Z</time>
      </trkpt>
      <trkpt lat="43.32079" lon="3.00785">
        <ele>35</ele>
        <time>2019-05-13T21:13:15.866Z</time>
      </trkpt>
      <trkpt lat="43.3195" lon="3.01031">
        <ele>36</ele>
        <time>2019-05-13T21:14:42.958Z</time>
      </trkpt>
      <trkpt lat="43.31861" lon="3.01164">
        <ele>37</ele>
        <time>2019-05-13T21:15:29.802Z</time>
      </trkpt>
      <trkpt lat="43.31824" lon="3.01215">
        <ele>37</ele>
        <time>2019-05-13T21:15:47.312Z</time>
      </trkpt>
      <trkpt lat="43.31817" lon="3.01229">
        <ele>37</ele>
        <time>2019-05-13T21:15:51.317Z</time>
      </trkpt>
      <trkpt lat="43.31807" lon="3.01313">
        <ele>36</ele>
        <time>2019-05-13T21:16:11.629Z</time>
      </trkpt>
      <trkpt lat="43.31826" lon="3.01402">
        <ele>34</ele>
        <time>2019-05-13T21:16:33.519Z</time>
      </trkpt>
      <trkpt lat="43.3185" lon="3.01427">
        <ele>33</ele>
        <time>2019-05-13T21:16:43.296Z</time>
      </trkpt>
      <trkpt lat="43.31922" lon="3.0144">
        <ele>33</ele>
        <time>2019-05-13T21:17:07.652Z</time>
      </trkpt>
      <trkpt lat="43.32014" lon="3.01428">
        <ele>32</ele>
        <time>2019-05-13T21:17:40.043Z</time>
      </trkpt>
      <trkpt lat="43.32438" lon="3.01272">
        <ele>33</ele>
        <time>2019-05-13T21:20:21.322Z</time>
      </trkpt>
      <trkpt lat="43.32508" lon="3.01257">
        <ele>31</ele>
        <time>2019-05-13T21:20:49.188Z</time>
      </trkpt>
      <trkpt lat="43.32547" lon="3.01224">
        <ele>31</ele>
        <time>2019-05-13T21:21:07.667Z</time>
      </trkpt>
      <trkpt lat="43.3273" lon="3.00961">
        <ele>35</ele>
        <time>2019-05-13T21:22:56.290Z</time>
      </trkpt>
      <trkpt lat="43.32864" lon="3.0069">
        <ele>36</ele>
        <time>2019-05-13T21:24:21.415Z</time>
      </trkpt>
      <trkpt lat="43.32894" lon="3.0069">
        <ele>36</ele>
        <time>2019-05-13T21:24:31.290Z</time>
      </trkpt>
      <trkpt lat="43.32938" lon="3.00747">
        <ele>34</ele>
        <time>2019-05-13T21:24:50.947Z</time>
      </trkpt>
      <trkpt lat="43.3296" lon="3.00779">
        <ele>33</ele>
        <time>2019-05-13T21:25:01.500Z</time>
      </trkpt>
      <trkpt lat="43.32971" lon="3.00796">
        <ele>33</ele>
        <time>2019-05-13T21:25:07.115Z</time>
      </trkpt>
      <trkpt lat="43.32976" lon="3.00804">
        <ele>33</ele>
        <time>2019-05-13T21:25:09.724Z</time>
      </trkpt>
      <trkpt lat="43.32988" lon="3.0086">
        <ele>33</ele>
        <time>2019-05-13T21:25:24.081Z</time>
      </trkpt>
      <trkpt lat="43.32956" lon="3.01191">
        <ele>34</ele>
        <time>2019-05-13T21:26:55.648Z</time>
      </trkpt>
      <trkpt lat="43.3293" lon="3.01288">
        <ele>36</ele>
        <time>2019-05-13T21:27:23.820Z</time>
      </trkpt>
      <trkpt lat="43.32897" lon="3.01361">
        <ele>33</ele>
        <time>2019-05-13T21:27:46.716Z</time>
      </trkpt>
      <trkpt lat="43.32887" lon="3.01428">
        <ele>32</ele>
        <time>2019-05-13T21:28:05.934Z</time>
      </trkpt>
      <trkpt lat="43.32896" lon="3.01481">
        <ele>33</ele>
        <time>2019-05-13T21:28:21.470Z</time>
      </trkpt>
      <trkpt lat="43.32923" lon="3.01526">
        <ele>34</ele>
        <time>2019-05-13T21:28:38.610Z</time>
      </trkpt>
      <trkpt lat="43.32935" lon="3.0154">
        <ele>33</ele>
        <time>2019-05-13T21:28:44.896Z</time>
      </trkpt>
      <trkpt lat="43.32946" lon="3.01548">
        <ele>33</ele>
        <time>2019-05-13T21:28:49.899Z</time>
      </trkpt>
      <trkpt lat="43.32968" lon="3.01553">
        <ele>34</ele>
        <time>2019-05-13T21:28:59.161Z</time>
      </trkpt>
      <trkpt lat="43.33006" lon="3.01562">
        <ele>35</ele>
        <time>2019-05-13T21:29:14.760Z</time>
      </trkpt>
      <trkpt lat="43.33022" lon="3.01599">
        <ele>35</ele>
        <time>2019-05-13T21:29:27.680Z</time>
      </trkpt>
      <trkpt lat="43.33016" lon="3.01636">
        <ele>36</ele>
        <time>2019-05-13T21:29:39.183Z</time>
      </trkpt>
      <trkpt lat="43.32982" lon="3.01675">
        <ele>36</ele>
        <time>2019-05-13T21:29:57.489Z</time>
      </trkpt>
      <trkpt lat="43.32956" lon="3.01681">
        <ele>36</ele>
        <time>2019-05-13T21:30:08.066Z</time>
      </trkpt>
      <trkpt lat="43.32833" lon="3.01667">
        <ele>34</ele>
        <time>2019-05-13T21:30:53.888Z</time>
      </trkpt>
      <trkpt lat="43.32787" lon="3.01691">
        <ele>33</ele>
        <time>2019-05-13T21:31:11.902Z</time>
      </trkpt>
      <trkpt lat="43.32724" lon="3.01783">
        <ele>34</ele>
        <time>2019-05-13T21:31:45.203Z</time>
      </trkpt>
      <trkpt lat="43.32688" lon="3.01804">
        <ele>34</ele>
        <time>2019-05-13T21:31:59.397Z</time>
      </trkpt>
      <trkpt lat="43.32489" lon="3.01808">
        <ele>31</ele>
        <time>2019-05-13T21:33:09.799Z</time>
      </trkpt>
      <trkpt lat="43.32459" lon="3.01825">
        <ele>31</ele>
        <time>2019-05-13T21:33:20.549Z</time>
      </trkpt>
      <trkpt lat="43.32437" lon="3.01876">
        <ele>35</ele>
        <time>2019-05-13T21:33:35.159Z</time>
      </trkpt>
      <trkpt lat="43.32444" lon="3.01912">
        <ele>35</ele>
        <time>2019-05-13T21:33:44.105Z</time>
      </trkpt>
      <trkpt lat="43.32467" lon="3.01943">
        <ele>34</ele>
        <time>2019-05-13T21:33:54.977Z</time>
      </trkpt>
      <trkpt lat="43.32585" lon="3.01987">
        <ele>35</ele>
        <time>2019-05-13T21:34:35.892Z</time>
      </trkpt>
      <trkpt lat="43.32631" lon="3.02051">
        <ele>34</ele>
        <time>2019-05-13T21:34:58.947Z</time>
      </trkpt>
      <trkpt lat="43.32644" lon="3.02115">
        <ele>34</ele>
        <time>2019-05-13T21:35:16.348Z</time>
      </trkpt>
      <trkpt lat="43.32649" lon="3.02189">
        <ele>34</ele>
        <time>2019-05-13T21:35:36.760Z</time>
      </trkpt>
      <trkpt lat="43.3265" lon="3.02217">
        <ele>34</ele>
        <time>2019-05-13T21:35:44.602Z</time>
      </trkpt>
      <trkpt lat="43.32626" lon="3.02454">
        <ele>35</ele>
        <time>2019-05-13T21:36:51.671Z</time>
      </trkpt>
      <trkpt lat="43.32634" lon="3.02625">
        <ele>34</ele>
        <time>2019-05-13T21:37:38.025Z</time>
      </trkpt>
      <trkpt lat="43.32699" lon="3.02807">
        <ele>35</ele>
        <time>2019-05-13T21:38:32.001Z</time>
      </trkpt>
      <trkpt lat="43.32732" lon="3.03008">
        <ele>37</ele>
        <time>2019-05-13T21:39:27.887Z</time>
      </trkpt>
      <trkpt lat="43.32759" lon="3.0311">
        <ele>36</ele>
        <time>2019-05-13T21:39:58.995Z</time>
      </trkpt>
      <trkpt lat="43.32782" lon="3.03147">
        <ele>35</ele>
        <time>2019-05-13T21:40:13.514Z</time>
      </trkpt>
      <trkpt lat="43.32827" lon="3.03154">
        <ele>34</ele>
        <time>2019-05-13T21:40:33.414Z</time>
      </trkpt>
      <trkpt lat="43.3287" lon="3.03124">
        <ele>33</ele>
        <time>2019-05-13T21:40:54.047Z</time>
      </trkpt>
      <trkpt lat="43.32916" lon="3.03064">
        <ele>37</ele>
        <time>2019-05-13T21:41:17.618Z</time>
      </trkpt>
      <trkpt lat="43.32948" lon="3.03003">
        <ele>34</ele>
        <time>2019-05-13T21:41:38.317Z</time>
      </trkpt>
      <trkpt lat="43.32985" lon="3.03046">
        <ele>31</ele>
        <time>2019-05-13T21:41:55.085Z</time>
      </trkpt>
      <trkpt lat="43.3302" lon="3.03078">
        <ele>27</ele>
        <time>2019-05-13T21:42:09.336Z</time>
      </trkpt>
      <trkpt lat="43.33166" lon="3.03098">
        <ele>34</ele>
        <time>2019-05-13T21:43:01.058Z</time>
      </trkpt>
      <trkpt lat="43.33175" lon="3.03102">
        <ele>36</ele>
        <time>2019-05-13T21:43:05.621Z</time>
      </trkpt>
      <trkpt lat="43.33168" lon="3.03139">
        <ele>37</ele>
        <time>2019-05-13T21:43:15.471Z</time>
      </trkpt>
      <trkpt lat="43.33105" lon="3.03467">
        <ele>36</ele>
        <time>2019-05-13T21:44:49.824Z</time>
      </trkpt>
      <trkpt lat="43.33073" lon="3.03827">
        <ele>36</ele>
        <time>2019-05-13T21:46:28.409Z</time>
      </trkpt>
      <trkpt lat="43.33045" lon="3.03899">
        <ele>34</ele>
        <time>2019-05-13T21:46:51.424Z</time>
      </trkpt>
      <trkpt lat="43.33028" lon="3.03972">
        <ele>35</ele>
        <time>2019-05-13T21:47:12.887Z</time>
      </trkpt>
      <trkpt lat="43.3303" lon="3.04028">
        <ele>36</ele>
        <time>2019-05-13T21:47:29.093Z</time>
      </trkpt>
      <trkpt lat="43.33054" lon="3.04145">
        <ele>36</ele>
        <time>2019-05-13T21:48:04.286Z</time>
      </trkpt>
      <trkpt lat="43.33053" lon="3.04158">
        <ele>36</ele>
        <time>2019-05-13T21:48:07.889Z</time>
      </trkpt>
      <trkpt lat="43.33055" lon="3.04167">
        <ele>36</ele>
        <time>2019-05-13T21:48:10.852Z</time>
      </trkpt>
      <trkpt lat="43.33061" lon="3.04181">
        <ele>36</ele>
        <time>2019-05-13T21:48:15.321Z</time>
      </trkpt>
      <trkpt lat="43.33064" lon="3.04188">
        <ele>36</ele>
        <time>2019-05-13T21:48:17.884Z</time>
      </trkpt>
      <trkpt lat="43.33072" lon="3.04202">
        <ele>36</ele>
        <time>2019-05-13T21:48:21.753Z</time>
      </trkpt>
      <trkpt lat="43.33082" lon="3.04203">
        <ele>36</ele>
        <time>2019-05-13T21:48:25.754Z</time>
      </trkpt>
      <trkpt lat="43.33123" lon="3.04298">
        <ele>36</ele>
        <time>2019-05-13T21:48:57.711Z</time>
      </trkpt>
      <trkpt lat="43.33149" lon="3.04405">
        <ele>35</ele>
        <time>2019-05-13T21:49:30.281Z</time>
      </trkpt>
      <trkpt lat="43.33092" lon="3.04596">
        <ele>40</ele>
        <time>2019-05-13T21:50:26.697Z</time>
      </trkpt>
      <trkpt lat="43.3309" lon="3.04601">
        <ele>40</ele>
        <time>2019-05-13T21:50:28.388Z</time>
      </trkpt>
      <trkpt lat="43.33085" lon="3.04615">
        <ele>40</ele>
        <time>2019-05-13T21:50:32.350Z</time>
      </trkpt>
      <trkpt lat="43.33055" lon="3.04709">
        <ele>37</ele>
        <time>2019-05-13T21:50:58.786Z</time>
      </trkpt>
      <trkpt lat="43.33035" lon="3.04812">
        <ele>37</ele>
        <time>2019-05-13T21:51:26.542Z</time>
      </trkpt>
      <trkpt lat="43.33027" lon="3.04884">
        <ele>37</ele>
        <time>2019-05-13T21:51:45.457Z</time>
      </trkpt>
      <trkpt lat="43.33025" lon="3.0491">
        <ele>37</ele>
        <time>2019-05-13T21:51:52.614Z</time>
      </trkpt>
      <trkpt lat="43.33021" lon="3.04973">
        <ele>37</ele>
        <time>2019-05-13T21:52:08.993Z</time>
      </trkpt>
      <trkpt lat="43.33021" lon="3.04974">
        <ele>37</ele>
        <time>2019-05-13T21:52:09.255Z</time>
      </trkpt>
      <trkpt lat="43.33021" lon="3.04984">
        <ele>37</ele>
        <time>2019-05-13T21:52:11.871Z</time>
      </trkpt>
      <trkpt lat="43.33022" lon="3.05009">
        <ele>37</ele>
        <time>2019-05-13T21:52:18.571Z</time>
      </trkpt>
      <trkpt lat="43.33018" lon="3.0514">
        <ele>38</ele>
        <time>2019-05-13T21:52:53.686Z</time>
      </trkpt>
      <trkpt lat="43.33023" lon="3.05196">
        <ele>37</ele>
        <time>2019-05-13T21:53:09.449Z</time>
      </trkpt>
      <trkpt lat="43.33087" lon="3.05458">
        <ele>36</ele>
        <time>2019-05-13T21:54:28.007Z</time>
      </trkpt>
      <trkpt lat="43.3311" lon="3.056">
        <ele>38</ele>
        <time>2019-05-13T21:55:11.191Z</time>
      </trkpt>
      <trkpt lat="43.33128" lon="3.05833">
        <ele>37</ele>
        <time>2019-05-13T21:56:18.528Z</time>
      </trkpt>
      <trkpt lat="43.33132" lon="3.06015">
        <ele>38</ele>
        <time>2019-05-13T21:57:09.068Z</time>
      </trkpt>
      <trkpt lat="43.33131" lon="3.06115">
        <ele>38</ele>
        <time>2019-05-13T21:57:36.530Z</time>
      </trkpt>
      <trkpt lat="43.33125" lon="3.06404">
        <ele>37</ele>
        <time>2019-05-13T21:58:55.705Z</time>
      </trkpt>
      <trkpt lat="43.33123" lon="3.06471">
        <ele>37</ele>
        <time>2019-05-13T21:59:13.620Z</time>
      </trkpt>
      <trkpt lat="43.33122" lon="3.06489">
        <ele>37</ele>
        <time>2019-05-13T21:59:18.095Z</time>
      </trkpt>
      <trkpt lat="43.33109" lon="3.06565">
        <ele>38</ele>
        <time>2019-05-13T21:59:37.975Z</time>
      </trkpt>
      <trkpt lat="43.33068" lon="3.06654">
        <ele>37</ele>
        <time>2019-05-13T22:00:03.833Z</time>
      </trkpt>
      <trkpt lat="43.32991" lon="3.06716">
        <ele>36</ele>
        <time>2019-05-13T22:00:33.369Z</time>
      </trkpt>
      <trkpt lat="43.329" lon="3.06731">
        <ele>34</ele>
        <time>2019-05-13T22:01:04.038Z</time>
      </trkpt>
      <trkpt lat="43.32844" lon="3.06777">
        <ele>34</ele>
        <time>2019-05-13T22:01:26.920Z</time>
      </trkpt>
      <trkpt lat="43.32687" lon="3.07049">
        <ele>36</ele>
        <time>2019-05-13T22:03:02.076Z</time>
      </trkpt>
      <trkpt lat="43.32585" lon="3.0729">
        <ele>35</ele>
        <time>2019-05-13T22:04:18.700Z</time>
      </trkpt>
      <trkpt lat="43.32523" lon="3.074">
        <ele>35</ele>
        <time>2019-05-13T22:04:57.229Z</time>
      </trkpt>
      <trkpt lat="43.32443" lon="3.07507">
        <ele>35</ele>
        <time>2019-05-13T22:05:40.746Z</time>
      </trkpt>
      <trkpt lat="43.32384" lon="3.07555">
        <ele>35</ele>
        <time>2019-05-13T22:06:08.573Z</time>
      </trkpt>
      <trkpt lat="43.32352" lon="3.07565">
        <ele>35</ele>
        <time>2019-05-13T22:06:21.986Z</time>
      </trkpt>
      <trkpt lat="43.3231" lon="3.07559">
        <ele>35</ele>
        <time>2019-05-13T22:06:39.170Z</time>
      </trkpt>
      <trkpt lat="43.32304" lon="3.07551">
        <ele>35</ele>
        <time>2019-05-13T22:06:42.564Z</time>
      </trkpt>
      <trkpt lat="43.32291" lon="3.07549">
        <ele>35</ele>
        <time>2019-05-13T22:06:47.842Z</time>
      </trkpt>
      <trkpt lat="43.32274" lon="3.07541">
        <ele>35</ele>
        <time>2019-05-13T22:06:54.981Z</time>
      </trkpt>
      <trkpt lat="43.3227" lon="3.0754">
        <ele>35</ele>
        <time>2019-05-13T22:06:56.535Z</time>
      </trkpt>
      <trkpt lat="43.32262" lon="3.07538">
        <ele>35</ele>
        <time>2019-05-13T22:06:58.800Z</time>
      </trkpt>
      <trkpt lat="43.32222" lon="3.07535">
        <ele>37</ele>
        <time>2019-05-13T22:07:09.063Z</time>
      </trkpt>
      <trkpt lat="43.32197" lon="3.07528">
        <ele>37</ele>
        <time>2019-05-13T22:07:15.475Z</time>
      </trkpt>
      <trkpt lat="43.32177" lon="3.07526">
        <ele>38</ele>
        <time>2019-05-13T22:07:20.417Z</time>
      </trkpt>
      <trkpt lat="43.32078" lon="3.07496">
        <ele>38</ele>
        <time>2019-05-13T22:07:45.142Z</time>
      </trkpt>
      <trkpt lat="43.31992" lon="3.07452">
        <ele>37</ele>
        <time>2019-05-13T22:08:07.803Z</time>
      </trkpt>
      <trkpt lat="43.3197" lon="3.0744">
        <ele>37</ele>
        <time>2019-05-13T22:08:13.898Z</time>
      </trkpt>
      <trkpt lat="43.31969" lon="3.07445">
        <ele>37</ele>
        <time>2019-05-13T22:08:15.332Z</time>
      </trkpt>
      <trkpt lat="43.3194" lon="3.07426">
        <ele>37</ele>
        <time>2019-05-13T22:08:28.155Z</time>
      </trkpt>
      <trkpt lat="43.31889" lon="3.07349">
        <ele>38</ele>
        <time>2019-05-13T22:08:58.598Z</time>
      </trkpt>
      <trkpt lat="43.31826" lon="3.07142">
        <ele>36</ele>
        <time>2019-05-13T22:10:05.057Z</time>
      </trkpt>
      <trkpt lat="43.31801" lon="3.07121">
        <ele>35</ele>
        <time>2019-05-13T22:10:16.261Z</time>
      </trkpt>
      <trkpt lat="43.31751" lon="3.07116">
        <ele>36</ele>
        <time>2019-05-13T22:10:35.585Z</time>
      </trkpt>
      <trkpt lat="43.31722" lon="3.07097">
        <ele>39</ele>
        <time>2019-05-13T22:10:47.115Z</time>
      </trkpt>
      <trkpt lat="43.31652" lon="3.06992">
        <ele>35</ele>
        <time>2019-05-13T22:11:21.436Z</time>
      </trkpt>
      <trkpt lat="43.3162" lon="3.06909">
        <ele>32</ele>
        <time>2019-05-13T22:11:42.513Z</time>
      </trkpt>
      <trkpt lat="43.31601" lon="3.06879">
        <ele>32</ele>
        <time>2019-05-13T22:11:51.127Z</time>
      </trkpt>
      <trkpt lat="43.31594" lon="3.06867">
        <ele>32</ele>
        <time>2019-05-13T22:11:54.548Z</time>
      </trkpt>
      <trkpt lat="43.31553" lon="3.0685">
        <ele>33</ele>
        <time>2019-05-13T22:12:07.159Z</time>
      </trkpt>
      <trkpt lat="43.31509" lon="3.06863">
        <ele>32</ele>
        <time>2019-05-13T22:12:20.735Z</time>
      </trkpt>
      <trkpt lat="43.31446" lon="3.06916">
        <ele>28</ele>
        <time>2019-05-13T22:12:43.561Z</time>
      </trkpt>
      <trkpt lat="43.31367" lon="3.07032">
        <ele>33</ele>
        <time>2019-05-13T22:13:22.881Z</time>
      </trkpt>
      <trkpt lat="43.31337" lon="3.07145">
        <ele>39</ele>
        <time>2019-05-13T22:13:56.611Z</time>
      </trkpt>
      <trkpt lat="43.31197" lon="3.07485">
        <ele>34</ele>
        <time>2019-05-13T22:15:50.942Z</time>
      </trkpt>
      <trkpt lat="43.31149" lon="3.07548">
        <ele>34</ele>
        <time>2019-05-13T22:16:17.488Z</time>
      </trkpt>
      <trkpt lat="43.31039" lon="3.07623">
        <ele>35</ele>
        <time>2019-05-13T22:17:05.711Z</time>
      </trkpt>
      <trkpt lat="43.31005" lon="3.07666">
        <ele>37</ele>
        <time>2019-05-13T22:17:24.023Z</time>
      </trkpt>
      <trkpt lat="43.3099" lon="3.07719">
        <ele>33</ele>
        <time>2019-05-13T22:17:41.452Z</time>
      </trkpt>
      <trkpt lat="43.30998" lon="3.07809">
        <ele>35</ele>
        <time>2019-05-13T22:18:09.348Z</time>
      </trkpt>
      <trkpt lat="43.30989" lon="3.07827">
        <ele>35</ele>
        <time>2019-05-13T22:18:16.133Z</time>
      </trkpt>
      <trkpt lat="43.30941" lon="3.07859">
        <ele>37</ele>
        <time>2019-05-13T22:18:37.554Z</time>
      </trkpt>
      <trkpt lat="43.30931" lon="3.07861">
        <ele>37</ele>
        <time>2019-05-13T22:18:42.268Z</time>
      </trkpt>
      <trkpt lat="43.30916" lon="3.07864">
        <ele>37</ele>
        <time>2019-05-13T22:18:46.045Z</time>
      </trkpt>
      <trkpt lat="43.30859" lon="3.07874">
        <ele>38</ele>
        <time>2019-05-13T22:19:01.766Z</time>
      </trkpt>
      <trkpt lat="43.30841" lon="3.07873">
        <ele>38</ele>
        <time>2019-05-13T22:19:06.143Z</time>
      </trkpt>
      <trkpt lat="43.30822" lon="3.0787">
        <ele>37</ele>
        <time>2019-05-13T22:19:11.497Z</time>
      </trkpt>
      <trkpt lat="43.30793" lon="3.07861">
        <ele>37</ele>
        <time>2019-05-13T22:19:18.150Z</time>
      </trkpt>
      <trkpt lat="43.30758" lon="3.0785">
        <ele>37</ele>
        <time>2019-05-13T22:19:25.131Z</time>
      </trkpt>
      <trkpt lat="43.30747" lon="3.07842">
        <ele>37</ele>
        <time>2019-05-13T22:19:27.419Z</time>
      </trkpt>
      <trkpt lat="43.30726" lon="3.07822">
        <ele>37</ele>
        <time>2019-05-13T22:19:32.014Z</time>
      </trkpt>
      <trkpt lat="43.30706" lon="3.07796">
        <ele>37</ele>
        <time>2019-05-13T22:19:36.566Z</time>
      </trkpt>
      <trkpt lat="43.30699" lon="3.07787">
        <ele>37</ele>
        <time>2019-05-13T22:19:38.252Z</time>
      </trkpt>
      <trkpt lat="43.30696" lon="3.07783">
        <ele>36</ele>
        <time>2019-05-13T22:19:38.959Z</time>
      </trkpt>
      <trkpt lat="43.3069" lon="3.07777">
        <ele>36</ele>
        <time>2019-05-13T22:19:40.146Z</time>
      </trkpt>
      <trkpt lat="43.3068" lon="3.07765">
        <ele>36</ele>
        <time>2019-05-13T22:19:42.369Z</time>
      </trkpt>
      <trkpt lat="43.3067" lon="3.07755">
        <ele>36</ele>
        <time>2019-05-13T22:19:44.542Z</time>
      </trkpt>
      <trkpt lat="43.30663" lon="3.07745">
        <ele>35</ele>
        <time>2019-05-13T22:19:46.108Z</time>
      </trkpt>
      <trkpt lat="43.3064" lon="3.07715">
        <ele>33</ele>
        <time>2019-05-13T22:19:51.585Z</time>
      </trkpt>
      <trkpt lat="43.30636" lon="3.07708">
        <ele>33</ele>
        <time>2019-05-13T22:19:52.592Z</time>
      </trkpt>
      <trkpt lat="43.30634" lon="3.07706">
        <ele>33</ele>
        <time>2019-05-13T22:19:52.912Z</time>
      </trkpt>
      <trkpt lat="43.30626" lon="3.07703">
        <ele>32</ele>
        <time>2019-05-13T22:19:54.830Z</time>
      </trkpt>
      <trkpt lat="43.30613" lon="3.07701">
        <ele>32</ele>
        <time>2019-05-13T22:19:57.050Z</time>
      </trkpt>
      <trkpt lat="43.30606" lon="3.07702">
        <ele>32</ele>
        <time>2019-05-13T22:19:58.119Z</time>
      </trkpt>
      <trkpt lat="43.30576" lon="3.07726">
        <ele>28</ele>
        <time>2019-05-13T22:20:04.060Z</time>
      </trkpt>
      <trkpt lat="43.30556" lon="3.07786">
        <ele>30</ele>
        <time>2019-05-13T22:20:12.026Z</time>
      </trkpt>
      <trkpt lat="43.30553" lon="3.07802">
        <ele>31</ele>
        <time>2019-05-13T22:20:14.499Z</time>
      </trkpt>
      <trkpt lat="43.30545" lon="3.07845">
        <ele>34</ele>
        <time>2019-05-13T22:20:20.463Z</time>
      </trkpt>
      <trkpt lat="43.3052" lon="3.0793">
        <ele>37</ele>
        <time>2019-05-13T22:20:34.117Z</time>
      </trkpt>
      <trkpt lat="43.30471" lon="3.08024">
        <ele>34</ele>
        <time>2019-05-13T22:20:52.787Z</time>
      </trkpt>
      <trkpt lat="43.30455" lon="3.08102">
        <ele>33</ele>
        <time>2019-05-13T22:21:07.364Z</time>
      </trkpt>
      <trkpt lat="43.30455" lon="3.08128">
        <ele>33</ele>
        <time>2019-05-13T22:21:11.429Z</time>
      </trkpt>
      <trkpt lat="43.30456" lon="3.08151">
        <ele>33</ele>
        <time>2019-05-13T22:21:16.340Z</time>
      </trkpt>
      <trkpt lat="43.30468" lon="3.08174">
        <ele>33</ele>
        <time>2019-05-13T22:21:24.128Z</time>
      </trkpt>
      <trkpt lat="43.30475" lon="3.08188">
        <ele>34</ele>
        <time>2019-05-13T22:21:29.928Z</time>
      </trkpt>
      <trkpt lat="43.3054" lon="3.08271">
        <ele>37</ele>
        <time>2019-05-13T22:22:06.553Z</time>
      </trkpt>
      <trkpt lat="43.30558" lon="3.08324">
        <ele>38</ele>
        <time>2019-05-13T22:22:25.277Z</time>
      </trkpt>
      <trkpt lat="43.30562" lon="3.0838">
        <ele>37</ele>
        <time>2019-05-13T22:22:42.672Z</time>
      </trkpt>
      <trkpt lat="43.30517" lon="3.08697">
        <ele>37</ele>
        <time>2019-05-13T22:24:10.322Z</time>
      </trkpt>
      <trkpt lat="43.30449" lon="3.0885">
        <ele>35</ele>
        <time>2019-05-13T22:24:56.755Z</time>
      </trkpt>
      <trkpt lat="43.30424" lon="3.09142">
        <ele>37</ele>
        <time>2019-05-13T22:26:13.213Z</time>
      </trkpt>
      <trkpt lat="43.30435" lon="3.09209">
        <ele>36</ele>
        <time>2019-05-13T22:26:32.165Z</time>
      </trkpt>
      <trkpt lat="43.30523" lon="3.09313">
        <ele>37</ele>
        <time>2019-05-13T22:27:16.602Z</time>
      </trkpt>
      <trkpt lat="43.30533" lon="3.09419">
        <ele>36</ele>
        <time>2019-05-13T22:27:45.992Z</time>
      </trkpt>
      <trkpt lat="43.30535" lon="3.09452">
        <ele>36</ele>
        <time>2019-05-13T22:27:54.832Z</time>
      </trkpt>
      <trkpt lat="43.30538" lon="3.09502">
        <ele>34</ele>
        <time>2019-05-13T22:28:08.129Z</time>
      </trkpt>
      <trkpt lat="43.30501" lon="3.09859">
        <ele>38</ele>
        <time>2019-05-13T22:29:44.494Z</time>
      </trkpt>
      <trkpt lat="43.30507" lon="3.09988">
        <ele>38</ele>
        <time>2019-05-13T22:30:22.215Z</time>
      </trkpt>
      <trkpt lat="43.30508" lon="3.10006">
        <ele>38</ele>
        <time>2019-05-13T22:30:27.335Z</time>
      </trkpt>
      <trkpt lat="43.30505" lon="3.10023">
        <ele>38</ele>
        <time>2019-05-13T22:30:32.535Z</time>
      </trkpt>
      <trkpt lat="43.30505" lon="3.10041">
        <ele>39</ele>
        <time>2019-05-13T22:30:37.624Z</time>
      </trkpt>
      <trkpt lat="43.3051" lon="3.10061">
        <ele>38</ele>
        <time>2019-05-13T22:30:43.678Z</time>
      </trkpt>
      <trkpt lat="43.30514" lon="3.10087">
        <ele>38</ele>
        <time>2019-05-13T22:30:51.397Z</time>
      </trkpt>
      <trkpt lat="43.30517" lon="3.10136">
        <ele>40</ele>
        <time>2019-05-13T22:31:05.390Z</time>
      </trkpt>
      <trkpt lat="43.30524" lon="3.10358">
        <ele>36</ele>
        <time>2019-05-13T22:32:07.279Z</time>
      </trkpt>
      <trkpt lat="43.30553" lon="3.10559">
        <ele>36</ele>
        <time>2019-05-13T22:33:02.459Z</time>
      </trkpt>
      <trkpt lat="43.30544" lon="3.10691">
        <ele>35</ele>
        <time>2019-05-13T22:33:38.960Z</time>
      </trkpt>
      <trkpt lat="43.30543" lon="3.10767">
        <ele>36</ele>
        <time>2019-05-13T22:34:00.124Z</time>
      </trkpt>
      <trkpt lat="43.30541" lon="3.10988">
        <ele>35</ele>
        <time>2019-05-13T22:35:01.747Z</time>
      </trkpt>
      <trkpt lat="43.30522" lon="3.11076">
        <ele>35</ele>
        <time>2019-05-13T22:35:26.707Z</time>
      </trkpt>
      <trkpt lat="43.30514" lon="3.11194">
        <ele>38</ele>
        <time>2019-05-13T22:35:58.291Z</time>
      </trkpt>
      <trkpt lat="43.30499" lon="3.11251">
        <ele>40</ele>
        <time>2019-05-13T22:36:14.059Z</time>
      </trkpt>
      <trkpt lat="43.30468" lon="3.11334">
        <ele>35</ele>
        <time>2019-05-13T22:36:37.634Z</time>
      </trkpt>
      <trkpt lat="43.30439" lon="3.11379">
        <ele>34</ele>
        <time>2019-05-13T22:36:52.952Z</time>
      </trkpt>
      <trkpt lat="43.30375" lon="3.11444">
        <ele>32</ele>
        <time>2019-05-13T22:37:21.368Z</time>
      </trkpt>
      <trkpt lat="43.30361" lon="3.1149">
        <ele>32</ele>
        <time>2019-05-13T22:37:34.647Z</time>
      </trkpt>
      <trkpt lat="43.30358" lon="3.11557">
        <ele>35</ele>
        <time>2019-05-13T22:37:52.694Z</time>
      </trkpt>
      <trkpt lat="43.3039" lon="3.11799">
        <ele>35</ele>
        <time>2019-05-13T22:39:00.823Z</time>
      </trkpt>
      <trkpt lat="43.30398" lon="3.11866">
        <ele>35</ele>
        <time>2019-05-13T22:39:19.938Z</time>
      </trkpt>
      <trkpt lat="43.30403" lon="3.11915">
        <ele>35</ele>
        <time>2019-05-13T22:39:33.710Z</time>
      </trkpt>
      <trkpt lat="43.30414" lon="3.1215">
        <ele>37</ele>
        <time>2019-05-13T22:40:42.543Z</time>
      </trkpt>
      <trkpt lat="43.30426" lon="3.12204">
        <ele>38</ele>
        <time>2019-05-13T22:40:59.500Z</time>
      </trkpt>
      <trkpt lat="43.30469" lon="3.12292">
        <ele>37</ele>
        <time>2019-05-13T22:41:32.970Z</time>
      </trkpt>
      <trkpt lat="43.30622" lon="3.12511">
        <ele>43</ele>
        <time>2019-05-13T22:43:21.017Z</time>
      </trkpt>
      <trkpt lat="43.30636" lon="3.12528">
        <ele>44</ele>
        <time>2019-05-13T22:43:29.759Z</time>
      </trkpt>
      <trkpt lat="43.30648" lon="3.12543">
        <ele>44</ele>
        <time>2019-05-13T22:43:38.667Z</time>
      </trkpt>
      <trkpt lat="43.30661" lon="3.12561">
        <ele>45</ele>
        <time>2019-05-13T22:43:47.279Z</time>
      </trkpt>
      <trkpt lat="43.30676" lon="3.1259">
        <ele>48</ele>
        <time>2019-05-13T22:43:56.612Z</time>
      </trkpt>
      <trkpt lat="43.30705" lon="3.12642">
        <ele>49</ele>
        <time>2019-05-13T22:44:11.131Z</time>
      </trkpt>
      <trkpt lat="43.30714" lon="3.12657">
        <ele>49</ele>
        <time>2019-05-13T22:44:15.414Z</time>
      </trkpt>
      <trkpt lat="43.30722" lon="3.12644">
        <ele>49</ele>
        <time>2019-05-13T22:44:18.564Z</time>
      </trkpt>
      <trkpt lat="43.30725" lon="3.12637">
        <ele>49</ele>
        <time>2019-05-13T22:44:19.744Z</time>
      </trkpt>
      <trkpt lat="43.30768" lon="3.12678">
        <ele>45</ele>
        <time>2019-05-13T22:44:31.423Z</time>
      </trkpt>
      <trkpt lat="43.30815" lon="3.12715">
        <ele>41</ele>
        <time>2019-05-13T22:44:43.226Z</time>
      </trkpt>
      <trkpt lat="43.3082" lon="3.1272">
        <ele>41</ele>
        <time>2019-05-13T22:44:44.331Z</time>
      </trkpt>
      <trkpt lat="43.30825" lon="3.1272">
        <ele>40</ele>
        <time>2019-05-13T22:44:45.391Z</time>
      </trkpt>
      <trkpt lat="43.30833" lon="3.12737">
        <ele>39</ele>
        <time>2019-05-13T22:44:50.857Z</time>
      </trkpt>
      <trkpt lat="43.30849" lon="3.12771">
        <ele>33</ele>
        <time>2019-05-13T22:45:00.039Z</time>
      </trkpt>
      <trkpt lat="43.30852" lon="3.12779">
        <ele>33</ele>
        <time>2019-05-13T22:45:02.345Z</time>
      </trkpt>
      <trkpt lat="43.30856" lon="3.12807">
        <ele>33</ele>
        <time>2019-05-13T22:45:08.902Z</time>
      </trkpt>
      <trkpt lat="43.30856" lon="3.12824">
        <ele>34</ele>
        <time>2019-05-13T22:45:12.966Z</time>
      </trkpt>
      <trkpt lat="43.30856" lon="3.12843">
        <ele>35</ele>
        <time>2019-05-13T22:45:17.897Z</time>
      </trkpt>
      <trkpt lat="43.30855" lon="3.1286">
        <ele>36</ele>
        <time>2019-05-13T22:45:21.679Z</time>
      </trkpt>
      <trkpt lat="43.30852" lon="3.12919">
        <ele>40</ele>
        <time>2019-05-13T22:45:35.318Z</time>
      </trkpt>
      <trkpt lat="43.30853" lon="3.12938">
        <ele>40</ele>
        <time>2019-05-13T22:45:40.263Z</time>
      </trkpt>
      <trkpt lat="43.30857" lon="3.12959">
        <ele>40</ele>
        <time>2019-05-13T22:45:45.473Z</time>
      </trkpt>
      <trkpt lat="43.30872" lon="3.13003">
        <ele>41</ele>
        <time>2019-05-13T22:45:58.198Z</time>
      </trkpt>
      <trkpt lat="43.3091" lon="3.13057">
        <ele>40</ele>
        <time>2019-05-13T22:46:17.104Z</time>
      </trkpt>
      <trkpt lat="43.30952" lon="3.13094">
        <ele>38</ele>
        <time>2019-05-13T22:46:33.002Z</time>
      </trkpt>
      <trkpt lat="43.31069" lon="3.13198">
        <ele>37</ele>
        <time>2019-05-13T22:47:20.156Z</time>
      </trkpt>
      <trkpt lat="43.31146" lon="3.13284">
        <ele>36</ele>
        <time>2019-05-13T22:47:56.066Z</time>
      </trkpt>
      <trkpt lat="43.31175" lon="3.13329">
        <ele>36</ele>
        <time>2019-05-13T22:48:11.981Z</time>
      </trkpt>
      <trkpt lat="43.31225" lon="3.13448">
        <ele>39</ele>
        <time>2019-05-13T22:48:48.480Z</time>
      </trkpt>
      <trkpt lat="43.31315" lon="3.13447">
        <ele>36</ele>
        <time>2019-05-13T22:49:21.427Z</time>
      </trkpt>
      <trkpt lat="43.31412" lon="3.13535">
        <ele>38</ele>
        <time>2019-05-13T22:50:03.983Z</time>
      </trkpt>
      <trkpt lat="43.31524" lon="3.13601">
        <ele>37</ele>
        <time>2019-05-13T22:50:51.175Z</time>
      </trkpt>
      <trkpt lat="43.31561" lon="3.13681">
        <ele>36</ele>
        <time>2019-05-13T22:51:18.310Z</time>
      </trkpt>
      <trkpt lat="43.31574" lon="3.13742">
        <ele>36</ele>
        <time>2019-05-13T22:51:36.866Z</time>
      </trkpt>
      <trkpt lat="43.31564" lon="3.13969">
        <ele>41</ele>
        <time>2019-05-13T22:52:38.345Z</time>
      </trkpt>
      <trkpt lat="43.31565" lon="3.14011">
        <ele>40</ele>
        <time>2019-05-13T22:52:48.658Z</time>
      </trkpt>
      <trkpt lat="43.31562" lon="3.1401">
        <ele>40</ele>
        <time>2019-05-13T22:52:49.300Z</time>
      </trkpt>
      <trkpt lat="43.31554" lon="3.1403">
        <ele>40</ele>
        <time>2019-05-13T22:52:55.011Z</time>
      </trkpt>
      <trkpt lat="43.31552" lon="3.14044">
        <ele>40</ele>
        <time>2019-05-13T22:52:58.488Z</time>
      </trkpt>
      <trkpt lat="43.3155" lon="3.14065">
        <ele>39</ele>
        <time>2019-05-13T22:53:03.487Z</time>
      </trkpt>
      <trkpt lat="43.31533" lon="3.14127">
        <ele>37</ele>
        <time>2019-05-13T22:53:19.685Z</time>
      </trkpt>
      <trkpt lat="43.31453" lon="3.14261">
        <ele>34</ele>
        <time>2019-05-13T22:54:02.150Z</time>
      </trkpt>
      <trkpt lat="43.3144" lon="3.14312">
        <ele>34</ele>
        <time>2019-05-13T22:54:16.447Z</time>
      </trkpt>
      <trkpt lat="43.31444" lon="3.14435">
        <ele>36</ele>
        <time>2019-05-13T22:54:50.427Z</time>
      </trkpt>
      <trkpt lat="43.31468" lon="3.14561">
        <ele>36</ele>
        <time>2019-05-13T22:55:26.881Z</time>
      </trkpt>
      <trkpt lat="43.31477" lon="3.14586">
        <ele>37</ele>
        <time>2019-05-13T22:55:34.781Z</time>
      </trkpt>
      <trkpt lat="43.31477" lon="3.14588">
        <ele>37</ele>
        <time>2019-05-13T22:55:35.295Z</time>
      </trkpt>
      <trkpt lat="43.31525" lon="3.14693">
        <ele>36</ele>
        <time>2019-05-13T22:56:09.701Z</time>
      </trkpt>
      <trkpt lat="43.31549" lon="3.14742">
        <ele>36</ele>
        <time>2019-05-13T22:56:26.305Z</time>
      </trkpt>
      <trkpt lat="43.31567" lon="3.14781">
        <ele>37</ele>
        <time>2019-05-13T22:56:39.418Z</time>
      </trkpt>
      <trkpt lat="43.31624" lon="3.14878">
        <ele>38</ele>
        <time>2019-05-13T22:57:14.982Z</time>
      </trkpt>
      <trkpt lat="43.31674" lon="3.14936">
        <ele>39</ele>
        <time>2019-05-13T22:57:41.927Z</time>
      </trkpt>
      <trkpt lat="43.31874" lon="3.1498">
        <ele>39</ele>
        <time>2019-05-13T22:59:03.447Z</time>
      </trkpt>
      <trkpt lat="43.31947" lon="3.1502">
        <ele>37</ele>
        <time>2019-05-13T22:59:33.329Z</time>
      </trkpt>
      <trkpt lat="43.31986" lon="3.15072">
        <ele>38</ele>
        <time>2019-05-13T22:59:53.401Z</time>
      </trkpt>
      <trkpt lat="43.31997" lon="3.15103">
        <ele>39</ele>
        <time>2019-05-13T23:00:02.644Z</time>
      </trkpt>
      <trkpt lat="43.32012" lon="3.15247">
        <ele>41</ele>
        <time>2019-05-13T23:00:40.111Z</time>
      </trkpt>
      <trkpt lat="43.32028" lon="3.15293">
        <ele>40</ele>
        <time>2019-05-13T23:00:53.024Z</time>
      </trkpt>
      <trkpt lat="43.32288" lon="3.15577">
        <ele>35</ele>
        <time>2019-05-13T23:02:46.486Z</time>
      </trkpt>
      <trkpt lat="43.32289" lon="3.15581">
        <ele>35</ele>
        <time>2019-05-13T23:02:47.398Z</time>
      </trkpt>
      <trkpt lat="43.32308" lon="3.15629">
        <ele>36</ele>
        <time>2019-05-13T23:03:01.276Z</time>
      </trkpt>
      <trkpt lat="43.32317" lon="3.15719">
        <ele>37</ele>
        <time>2019-05-13T23:03:24.609Z</time>
      </trkpt>
      <trkpt lat="43.32286" lon="3.15848">
        <ele>36</ele>
        <time>2019-05-13T23:04:01.002Z</time>
      </trkpt>
      <trkpt lat="43.32203" lon="3.16078">
        <ele>37</ele>
        <time>2019-05-13T23:05:13.589Z</time>
      </trkpt>
      <trkpt lat="43.32185" lon="3.16172">
        <ele>39</ele>
        <time>2019-05-13T23:05:40.489Z</time>
      </trkpt>
      <trkpt lat="43.32188" lon="3.16222">
        <ele>37</ele>
        <time>2019-05-13T23:05:54.073Z</time>
      </trkpt>
      <trkpt lat="43.32231" lon="3.1634">
        <ele>36</ele>
        <time>2019-05-13T23:06:29.886Z</time>
      </trkpt>
      <trkpt lat="43.32337" lon="3.16518">
        <ele>36</ele>
        <time>2019-05-13T23:07:32.877Z</time>
      </trkpt>
      <trkpt lat="43.32353" lon="3.1659">
        <ele>38</ele>
        <time>2019-05-13T23:07:53.646Z</time>
      </trkpt>
      <trkpt lat="43.3234" lon="3.16714">
        <ele>38</ele>
        <time>2019-05-13T23:08:27.866Z</time>
      </trkpt>
      <trkpt lat="43.32349" lon="3.168">
        <ele>36</ele>
        <time>2019-05-13T23:08:51.276Z</time>
      </trkpt>
      <trkpt lat="43.32447" lon="3.17059">
        <ele>37</ele>
        <time>2019-05-13T23:10:09.029Z</time>
      </trkpt>
      <trkpt lat="43.32471" lon="3.17085">
        <ele>38</ele>
        <time>2019-05-13T23:10:20.434Z</time>
      </trkpt>
      <trkpt lat="43.32526" lon="3.17082">
        <ele>37</ele>
        <time>2019-05-13T23:10:41.455Z</time>
      </trkpt>
      <trkpt lat="43.32646" lon="3.17026">
        <ele>37</ele>
        <time>2019-05-13T23:11:32.212Z</time>
      </trkpt>
      <trkpt lat="43.32684" lon="3.17029">
        <ele>35</ele>
        <time>2019-05-13T23:11:47.352Z</time>
      </trkpt>
      <trkpt lat="43.32695" lon="3.17035">
        <ele>35</ele>
        <time>2019-05-13T23:11:52.237Z</time>
      </trkpt>
      <trkpt lat="43.32706" lon="3.17042">
        <ele>35</ele>
        <time>2019-05-13T23:11:57.023Z</time>
      </trkpt>
      <trkpt lat="43.32727" lon="3.17076">
        <ele>35</ele>
        <time>2019-05-13T23:12:05.209Z</time>
      </trkpt>
      <trkpt lat="43.32747" lon="3.17174">
        <ele>38</ele>
        <time>2019-05-13T23:12:23.632Z</time>
      </trkpt>
      <trkpt lat="43.3276" lon="3.17379">
        <ele>39</ele>
        <time>2019-05-13T23:12:56.858Z</time>
      </trkpt>
      <trkpt lat="43.32791" lon="3.17504">
        <ele>38</ele>
        <time>2019-05-13T23:13:16.231Z</time>
      </trkpt>
      <trkpt lat="43.32815" lon="3.17589">
        <ele>37</ele>
        <time>2019-05-13T23:13:29.530Z</time>
      </trkpt>
      <trkpt lat="43.32822" lon="3.17612">
        <ele>37</ele>
        <time>2019-05-13T23:13:33.138Z</time>
      </trkpt>
      <trkpt lat="43.32818" lon="3.17632">
        <ele>37</ele>
        <time>2019-05-13T23:13:38.196Z</time>
      </trkpt>
      <trkpt lat="43.32818" lon="3.17661">
        <ele>37</ele>
        <time>2019-05-13T23:13:45.279Z</time>
      </trkpt>
      <trkpt lat="43.3282" lon="3.17672">
        <ele>36</ele>
        <time>2019-05-13T23:13:48.204Z</time>
      </trkpt>
      <trkpt lat="43.3282" lon="3.17786">
        <ele>35</ele>
        <time>2019-05-13T23:14:16.984Z</time>
      </trkpt>
      <trkpt lat="43.3275" lon="3.18065">
        <ele>36</ele>
        <time>2019-05-13T23:15:39.309Z</time>
      </trkpt>
      <trkpt lat="43.32722" lon="3.18368">
        <ele>37</ele>
        <time>2019-05-13T23:17:10.105Z</time>
      </trkpt>
      <trkpt lat="43.32716" lon="3.18422">
        <ele>39</ele>
        <time>2019-05-13T23:17:25.565Z</time>
      </trkpt>
      <trkpt lat="43.32714" lon="3.18437">
        <ele>39</ele>
        <time>2019-05-13T23:17:29.443Z</time>
      </trkpt>
      <trkpt lat="43.32678" lon="3.18712">
        <ele>38</ele>
        <time>2019-05-13T23:18:42.952Z</time>
      </trkpt>
      <trkpt lat="43.32678" lon="3.18781">
        <ele>38</ele>
        <time>2019-05-13T23:19:01.515Z</time>
      </trkpt>
      <trkpt lat="43.327" lon="3.18856">
        <ele>38</ele>
        <time>2019-05-13T23:19:24.220Z</time>
      </trkpt>
      <trkpt lat="43.32782" lon="3.18966">
        <ele>40</ele>
        <time>2019-05-13T23:20:08.662Z</time>
      </trkpt>
      <trkpt lat="43.32798" lon="3.18985">
        <ele>40</ele>
        <time>2019-05-13T23:20:16.958Z</time>
      </trkpt>
      <trkpt lat="43.32814" lon="3.19004">
        <ele>40</ele>
        <time>2019-05-13T23:20:24.630Z</time>
      </trkpt>
      <trkpt lat="43.32899" lon="3.19133">
        <ele>40</ele>
        <time>2019-05-13T23:21:10.813Z</time>
      </trkpt>
      <trkpt lat="43.32981" lon="3.19181">
        <ele>39</ele>
        <time>2019-05-13T23:21:41.777Z</time>
      </trkpt>
      <trkpt lat="43.33032" lon="3.192">
        <ele>36</ele>
        <time>2019-05-13T23:22:00.243Z</time>
      </trkpt>
      <trkpt lat="43.3305" lon="3.19211">
        <ele>35</ele>
        <time>2019-05-13T23:22:07.558Z</time>
      </trkpt>
      <trkpt lat="43.33058" lon="3.19225">
        <ele>35</ele>
        <time>2019-05-13T23:22:12.463Z</time>
      </trkpt>
      <trkpt lat="43.33068" lon="3.193">
        <ele>35</ele>
        <time>2019-05-13T23:22:33.075Z</time>
      </trkpt>
      <trkpt lat="43.33062" lon="3.19374">
        <ele>36</ele>
        <time>2019-05-13T23:22:53.205Z</time>
      </trkpt>
      <trkpt lat="43.33058" lon="3.19401">
        <ele>36</ele>
        <time>2019-05-13T23:23:00.585Z</time>
      </trkpt>
      <trkpt lat="43.3306" lon="3.19418">
        <ele>36</ele>
        <time>2019-05-13T23:23:05.355Z</time>
      </trkpt>
      <trkpt lat="43.33052" lon="3.19459">
        <ele>37</ele>
        <time>2019-05-13T23:23:16.973Z</time>
      </trkpt>
      <trkpt lat="43.3305" lon="3.19637">
        <ele>34</ele>
        <time>2019-05-13T23:24:04.160Z</time>
      </trkpt>
      <trkpt lat="43.33026" lon="3.19707">
        <ele>33</ele>
        <time>2019-05-13T23:24:21.988Z</time>
      </trkpt>
      <trkpt lat="43.33021" lon="3.1972">
        <ele>33</ele>
        <time>2019-05-13T23:24:25.118Z</time>
      </trkpt>
      <trkpt lat="43.33019" lon="3.19734">
        <ele>33</ele>
        <time>2019-05-13T23:24:28.267Z</time>
      </trkpt>
      <trkpt lat="43.33017" lon="3.19746">
        <ele>34</ele>
        <time>2019-05-13T23:24:30.878Z</time>
      </trkpt>
      <trkpt lat="43.33015" lon="3.1976">
        <ele>33</ele>
        <time>2019-05-13T23:24:33.737Z</time>
      </trkpt>
      <trkpt lat="43.33013" lon="3.19788">
        <ele>32</ele>
        <time>2019-05-13T23:24:39.593Z</time>
      </trkpt>
      <trkpt lat="43.33015" lon="3.19805">
        <ele>32</ele>
        <time>2019-05-13T23:24:43.109Z</time>
      </trkpt>
      <trkpt lat="43.33019" lon="3.19818">
        <ele>32</ele>
        <time>2019-05-13T23:24:46.000Z</time>
      </trkpt>
      <trkpt lat="43.33051" lon="3.19905">
        <ele>29</ele>
        <time>2019-05-13T23:25:05.130Z</time>
      </trkpt>
      <trkpt lat="43.33081" lon="3.19984">
        <ele>23</ele>
        <time>2019-05-13T23:25:22.577Z</time>
      </trkpt>
      <trkpt lat="43.33108" lon="3.20052">
        <ele>18</ele>
        <time>2019-05-13T23:25:38.167Z</time>
      </trkpt>
      <trkpt lat="43.3312" lon="3.20065">
        <ele>18</ele>
        <time>2019-05-13T23:25:42.385Z</time>
      </trkpt>
      <trkpt lat="43.33128" lon="3.20083">
        <ele>18</ele>
        <time>2019-05-13T23:25:46.921Z</time>
      </trkpt>
      <trkpt lat="43.33133" lon="3.20095">
        <ele>17</ele>
        <time>2019-05-13T23:25:49.789Z</time>
      </trkpt>
      <trkpt lat="43.33135" lon="3.20098">
        <ele>17</ele>
        <time>2019-05-13T23:25:50.562Z</time>
      </trkpt>
      <trkpt lat="43.33128" lon="3.20102">
        <ele>17</ele>
        <time>2019-05-13T23:25:52.111Z</time>
      </trkpt>
      <trkpt lat="43.33125" lon="3.20105">
        <ele>17</ele>
        <time>2019-05-13T23:25:52.993Z</time>
      </trkpt>
      <trkpt lat="43.33123" lon="3.20104">
        <ele>17</ele>
        <time>2019-05-13T23:25:54.131Z</time>
      </trkpt>
      <trkpt lat="43.3312" lon="3.20107">
        <ele>17</ele>
        <time>2019-05-13T23:25:57.126Z</time>
      </trkpt>
      <trkpt lat="43.33118" lon="3.20104">
        <ele>17</ele>
        <time>2019-05-13T23:25:57.916Z</time>
      </trkpt>
      <trkpt lat="43.3311" lon="3.20112">
        <ele>17</ele>
        <time>2019-05-13T23:26:00.937Z</time>
      </trkpt>
      <trkpt lat="43.33108" lon="3.20111">
        <ele>17</ele>
        <time>2019-05-13T23:26:01.418Z</time>
      </trkpt>
      <trkpt lat="43.33105" lon="3.20115">
        <ele>18</ele>
        <time>2019-05-13T23:26:02.872Z</time>
      </trkpt>
      <trkpt lat="43.331" lon="3.20126">
        <ele>18</ele>
        <time>2019-05-13T23:26:05.618Z</time>
      </trkpt>
      <trkpt lat="43.331" lon="3.20131">
        <ele>18</ele>
        <time>2019-05-13T23:26:06.936Z</time>
      </trkpt>
      <trkpt lat="43.33097" lon="3.20137">
        <ele>18</ele>
        <time>2019-05-13T23:26:08.717Z</time>
      </trkpt>
      <trkpt lat="43.33095" lon="3.20152">
        <ele>18</ele>
        <time>2019-05-13T23:26:12.077Z</time>
      </trkpt>
      <trkpt lat="43.33085" lon="3.20188">
        <ele>18</ele>
        <time>2019-05-13T23:26:20.812Z</time>
      </trkpt>
      <trkpt lat="43.33074" lon="3.20237">
        <ele>22</ele>
        <time>2019-05-13T23:26:33.051Z</time>
      </trkpt>
      <trkpt lat="43.33065" lon="3.20373">
        <ele>18</ele>
        <time>2019-05-13T23:27:05.211Z</time>
      </trkpt>
      <trkpt lat="43.33094" lon="3.20554">
        <ele>15</ele>
        <time>2019-05-13T23:27:47.981Z</time>
      </trkpt>
      <trkpt lat="43.33184" lon="3.20811">
        <ele>14</ele>
        <time>2019-05-13T23:28:59.487Z</time>
      </trkpt>
      <trkpt lat="43.33206" lon="3.20855">
        <ele>13</ele>
        <time>2019-05-13T23:29:13.528Z</time>
      </trkpt>
      <trkpt lat="43.33248" lon="3.20939">
        <ele>13</ele>
        <time>2019-05-13T23:29:41.538Z</time>
      </trkpt>
      <trkpt lat="43.33345" lon="3.21087">
        <ele>14</ele>
        <time>2019-05-13T23:30:38.860Z</time>
      </trkpt>
      <trkpt lat="43.33381" lon="3.2114">
        <ele>15</ele>
        <time>2019-05-13T23:30:58.655Z</time>
      </trkpt>
      <trkpt lat="43.33406" lon="3.21178">
        <ele>15</ele>
        <time>2019-05-13T23:31:12.300Z</time>
      </trkpt>
      <trkpt lat="43.33415" lon="3.21194">
        <ele>15</ele>
        <time>2019-05-13T23:31:17.254Z</time>
      </trkpt>
      <trkpt lat="43.33418" lon="3.2121">
        <ele>14</ele>
        <time>2019-05-13T23:31:21.544Z</time>
      </trkpt>
      <trkpt lat="43.33507" lon="3.21339">
        <ele>12</ele>
        <time>2019-05-13T23:32:08.210Z</time>
      </trkpt>
      <trkpt lat="43.33519" lon="3.21345">
        <ele>13</ele>
        <time>2019-05-13T23:32:12.805Z</time>
      </trkpt>
      <trkpt lat="43.33528" lon="3.21359">
        <ele>13</ele>
        <time>2019-05-13T23:32:17.334Z</time>
      </trkpt>
      <trkpt lat="43.33535" lon="3.21367">
        <ele>14</ele>
        <time>2019-05-13T23:32:21.199Z</time>
      </trkpt>
      <trkpt lat="43.33557" lon="3.21448">
        <ele>15</ele>
        <time>2019-05-13T23:32:43.591Z</time>
      </trkpt>
      <trkpt lat="43.33556" lon="3.21462">
        <ele>15</ele>
        <time>2019-05-13T23:32:47.964Z</time>
      </trkpt>
      <trkpt lat="43.3355" lon="3.21508">
        <ele>16</ele>
        <time>2019-05-13T23:33:00.972Z</time>
      </trkpt>
      <trkpt lat="43.33536" lon="3.2152">
        <ele>16</ele>
        <time>2019-05-13T23:33:07.444Z</time>
      </trkpt>
      <trkpt lat="43.33519" lon="3.21617">
        <ele>16</ele>
        <time>2019-05-13T23:33:30.445Z</time>
      </trkpt>
      <trkpt lat="43.33519" lon="3.21619">
        <ele>16</ele>
        <time>2019-05-13T23:33:30.972Z</time>
      </trkpt>
      <trkpt lat="43.33519" lon="3.21622">
        <ele>16</ele>
        <time>2019-05-13T23:33:31.531Z</time>
      </trkpt>
      <trkpt lat="43.3352" lon="3.21633">
        <ele>16</ele>
        <time>2019-05-13T23:33:34.062Z</time>
      </trkpt>
      <trkpt lat="43.33523" lon="3.21641">
        <ele>16</ele>
        <time>2019-05-13T23:33:36.285Z</time>
      </trkpt>
      <trkpt lat="43.33498" lon="3.2172">
        <ele>14</ele>
        <time>2019-05-13T23:33:51.023Z</time>
      </trkpt>
      <trkpt lat="43.33477" lon="3.2179">
        <ele>15</ele>
        <time>2019-05-13T23:34:04.033Z</time>
      </trkpt>
      <trkpt lat="43.33472" lon="3.21806">
        <ele>15</ele>
        <time>2019-05-13T23:34:06.957Z</time>
      </trkpt>
      <trkpt lat="43.3343" lon="3.21945">
        <ele>16</ele>
        <time>2019-05-13T23:34:31.851Z</time>
      </trkpt>
      <trkpt lat="43.33426" lon="3.21958">
        <ele>16</ele>
        <time>2019-05-13T23:34:34.254Z</time>
      </trkpt>
      <trkpt lat="43.33415" lon="3.21998">
        <ele>16</ele>
        <time>2019-05-13T23:34:40.717Z</time>
      </trkpt>
      <trkpt lat="43.33374" lon="3.22132">
        <ele>14</ele>
        <time>2019-05-13T23:35:02.605Z</time>
      </trkpt>
      <trkpt lat="43.33359" lon="3.22174">
        <ele>14</ele>
        <time>2019-05-13T23:35:09.398Z</time>
      </trkpt>
      <trkpt lat="43.33355" lon="3.22181">
        <ele>14</ele>
        <time>2019-05-13T23:35:10.876Z</time>
      </trkpt>
      <trkpt lat="43.33327" lon="3.22265">
        <ele>13</ele>
        <time>2019-05-13T23:35:25.871Z</time>
      </trkpt>
      <trkpt lat="43.33317" lon="3.22382">
        <ele>12</ele>
        <time>2019-05-13T23:35:46.194Z</time>
      </trkpt>
      <trkpt lat="43.33321" lon="3.2239">
        <ele>12</ele>
        <time>2019-05-13T23:35:47.928Z</time>
      </trkpt>
      <trkpt lat="43.33326" lon="3.22393">
        <ele>12</ele>
        <time>2019-05-13T23:35:50.053Z</time>
      </trkpt>
      <trkpt lat="43.3331" lon="3.22435">
        <ele>11</ele>
        <time>2019-05-13T23:36:03.330Z</time>
      </trkpt>
      <trkpt lat="43.33304" lon="3.22441">
        <ele>11</ele>
        <time>2019-05-13T23:36:06.754Z</time>
      </trkpt>
      <trkpt lat="43.33298" lon="3.22445">
        <ele>11</ele>
        <time>2019-05-13T23:36:09.576Z</time>
      </trkpt>
      <trkpt lat="43.33267" lon="3.22434">
        <ele>11</ele>
        <time>2019-05-13T23:36:22.484Z</time>
      </trkpt>
      <trkpt lat="43.33261" lon="3.22432">
        <ele>11</ele>
        <time>2019-05-13T23:36:24.902Z</time>
      </trkpt>
      <trkpt lat="43.33219" lon="3.22642">
        <ele>16</ele>
        <time>2019-05-13T23:37:09.392Z</time>
      </trkpt>
      <trkpt lat="43.33173" lon="3.22761">
        <ele>18</ele>
        <time>2019-05-13T23:37:34.155Z</time>
      </trkpt>
      <trkpt lat="43.33126" lon="3.22849">
        <ele>17</ele>
        <time>2019-05-13T23:37:51.209Z</time>
      </trkpt>
      <trkpt lat="43.33007" lon="3.23025">
        <ele>13</ele>
        <time>2019-05-13T23:38:26.730Z</time>
      </trkpt>
      <trkpt lat="43.32975" lon="3.23078">
        <ele>13</ele>
        <time>2019-05-13T23:38:36.665Z</time>
      </trkpt>
      <trkpt lat="43.32926" lon="3.23159">
        <ele>14</ele>
        <time>2019-05-13T23:38:52.894Z</time>
      </trkpt>
      <trkpt lat="43.32908" lon="3.23192">
        <ele>13</ele>
        <time>2019-05-13T23:38:59.447Z</time>
      </trkpt>
      <trkpt lat="43.32891" lon="3.23237">
        <ele>12</ele>
        <time>2019-05-13T23:39:08.054Z</time>
      </trkpt>
      <trkpt lat="43.32885" lon="3.23252">
        <ele>12</ele>
        <time>2019-05-13T23:39:11.091Z</time>
      </trkpt>
      <trkpt lat="43.32841" lon="3.23376">
        <ele>13</ele>
        <time>2019-05-13T23:39:35.075Z</time>
      </trkpt>
      <trkpt lat="43.32834" lon="3.23433">
        <ele>14</ele>
        <time>2019-05-13T23:39:45.857Z</time>
      </trkpt>
      <trkpt lat="43.3284" lon="3.2363">
        <ele>13</ele>
        <time>2019-05-13T23:40:21.672Z</time>
      </trkpt>
      <trkpt lat="43.32832" lon="3.23731">
        <ele>14</ele>
        <time>2019-05-13T23:40:39.890Z</time>
      </trkpt>
      <trkpt lat="43.3282" lon="3.23832">
        <ele>15</ele>
        <time>2019-05-13T23:40:58.862Z</time>
      </trkpt>
      <trkpt lat="43.32815" lon="3.23879">
        <ele>14</ele>
        <time>2019-05-13T23:41:07.537Z</time>
      </trkpt>
      <trkpt lat="43.3279" lon="3.24029">
        <ele>16</ele>
        <time>2019-05-13T23:41:35.798Z</time>
      </trkpt>
      <trkpt lat="43.32749" lon="3.24199">
        <ele>16</ele>
        <time>2019-05-13T23:42:06.137Z</time>
      </trkpt>
      <trkpt lat="43.32733" lon="3.2424">
        <ele>16</ele>
        <time>2019-05-13T23:42:13.885Z</time>
      </trkpt>
      <trkpt lat="43.32709" lon="3.24302">
        <ele>15</ele>
        <time>2019-05-13T23:42:25.753Z</time>
      </trkpt>
      <trkpt lat="43.3265" lon="3.24399">
        <ele>15</ele>
        <time>2019-05-13T23:42:47.438Z</time>
      </trkpt>
      <trkpt lat="43.32482" lon="3.24571">
        <ele>14</ele>
        <time>2019-05-13T23:43:38.191Z</time>
      </trkpt>
      <trkpt lat="43.32443" lon="3.24609">
        <ele>16</ele>
        <time>2019-05-13T23:43:48.701Z</time>
      </trkpt>
      <trkpt lat="43.3242" lon="3.24633">
        <ele>17</ele>
        <time>2019-05-13T23:43:54.719Z</time>
      </trkpt>
      <trkpt lat="43.32367" lon="3.24725">
        <ele>16</ele>
        <time>2019-05-13T23:44:12.078Z</time>
      </trkpt>
      <trkpt lat="43.32331" lon="3.24864">
        <ele>14</ele>
        <time>2019-05-13T23:44:33.495Z</time>
      </trkpt>
      <trkpt lat="43.32326" lon="3.24934">
        <ele>13</ele>
        <time>2019-05-13T23:44:44.177Z</time>
      </trkpt>
      <trkpt lat="43.32345" lon="3.2567">
        <ele>15</ele>
        <time>2019-05-13T23:46:46.560Z</time>
      </trkpt>
      <trkpt lat="43.32279" lon="3.26221">
        <ele>14</ele>
        <time>2019-05-13T23:48:26.726Z</time>
      </trkpt>
      <trkpt lat="43.32277" lon="3.26246">
        <ele>15</ele>
        <time>2019-05-13T23:48:31.303Z</time>
      </trkpt>
      <trkpt lat="43.32274" lon="3.26266">
        <ele>15</ele>
        <time>2019-05-13T23:48:34.304Z</time>
      </trkpt>
      <trkpt lat="43.32243" lon="3.2649">
        <ele>14</ele>
        <time>2019-05-13T23:49:11.834Z</time>
      </trkpt>
      <trkpt lat="43.32239" lon="3.26531">
        <ele>13</ele>
        <time>2019-05-13T23:49:18.661Z</time>
      </trkpt>
      <trkpt lat="43.32233" lon="3.26589">
        <ele>14</ele>
        <time>2019-05-13T23:49:28.698Z</time>
      </trkpt>
      <trkpt lat="43.32186" lon="3.26796">
        <ele>14</ele>
        <time>2019-05-13T23:50:06.957Z</time>
      </trkpt>
      <trkpt lat="43.31897" lon="3.27598">
        <ele>13</ele>
        <time>2019-05-13T23:52:31.328Z</time>
      </trkpt>
      <trkpt lat="43.31817" lon="3.27824">
        <ele>12</ele>
        <time>2019-05-13T23:53:09.374Z</time>
      </trkpt>
      <trkpt lat="43.31805" lon="3.27856">
        <ele>12</ele>
        <time>2019-05-13T23:53:14.914Z</time>
      </trkpt>
      <trkpt lat="43.31802" lon="3.27867">
        <ele>11</ele>
        <time>2019-05-13T23:53:16.922Z</time>
      </trkpt>
      <trkpt lat="43.31777" lon="3.27945">
        <ele>10</ele>
        <time>2019-05-13T23:53:30.436Z</time>
      </trkpt>
      <trkpt lat="43.31752" lon="3.28035">
        <ele>9</ele>
        <time>2019-05-13T23:53:46.277Z</time>
      </trkpt>
      <trkpt lat="43.31747" lon="3.28054">
        <ele>9</ele>
        <time>2019-05-13T23:53:49.749Z</time>
      </trkpt>
      <trkpt lat="43.31742" lon="3.28071">
        <ele>9</ele>
        <time>2019-05-13T23:53:53.123Z</time>
      </trkpt>
      <trkpt lat="43.31742" lon="3.28077">
        <ele>9</ele>
        <time>2019-05-13T23:53:54.126Z</time>
      </trkpt>
      <trkpt lat="43.31736" lon="3.28079">
        <ele>9</ele>
        <time>2019-05-13T23:53:55.416Z</time>
      </trkpt>
      <trkpt lat="43.31727" lon="3.2809">
        <ele>10</ele>
        <time>2019-05-13T23:53:58.360Z</time>
      </trkpt>
      <trkpt lat="43.31725" lon="3.28094">
        <ele>10</ele>
        <time>2019-05-13T23:53:59.040Z</time>
      </trkpt>
      <trkpt lat="43.31727" lon="3.281">
        <ele>10</ele>
        <time>2019-05-13T23:54:00.230Z</time>
      </trkpt>
      <trkpt lat="43.31707" lon="3.28174">
        <ele>10</ele>
        <time>2019-05-13T23:54:14.097Z</time>
      </trkpt>
      <trkpt lat="43.31703" lon="3.28182">
        <ele>10</ele>
        <time>2019-05-13T23:54:15.841Z</time>
      </trkpt>
      <trkpt lat="43.31698" lon="3.28194">
        <ele>10</ele>
        <time>2019-05-13T23:54:18.344Z</time>
      </trkpt>
      <trkpt lat="43.31598" lon="3.28563">
        <ele>10</ele>
        <time>2019-05-13T23:55:24.705Z</time>
      </trkpt>
      <trkpt lat="43.3154" lon="3.28859">
        <ele>9</ele>
        <time>2019-05-13T23:56:17.169Z</time>
      </trkpt>
      <trkpt lat="43.31513" lon="3.29151">
        <ele>12</ele>
        <time>2019-05-13T23:57:07.451Z</time>
      </trkpt>
      <trkpt lat="43.31519" lon="3.2933">
        <ele>12</ele>
        <time>2019-05-13T23:57:35.634Z</time>
      </trkpt>
      <trkpt lat="43.31522" lon="3.29336">
        <ele>10</ele>
        <time>2019-05-13T23:57:36.629Z</time>
      </trkpt>
      <trkpt lat="43.31523" lon="3.29341">
        <ele>10</ele>
        <time>2019-05-13T23:57:37.451Z</time>
      </trkpt>
      <trkpt lat="43.31525" lon="3.29356">
        <ele>10</ele>
        <time>2019-05-13T23:57:39.877Z</time>
      </trkpt>
      <trkpt lat="43.31524" lon="3.29367">
        <ele>10</ele>
        <time>2019-05-13T23:57:41.535Z</time>
      </trkpt>
      <trkpt lat="43.31523" lon="3.29377">
        <ele>9</ele>
        <time>2019-05-13T23:57:43.077Z</time>
      </trkpt>
      <trkpt lat="43.31623" lon="3.29977">
        <ele>8</ele>
        <time>2019-05-13T23:59:18.499Z</time>
      </trkpt>
      <trkpt lat="43.31635" lon="3.30053">
        <ele>6</ele>
        <time>2019-05-13T23:59:31.248Z</time>
      </trkpt>
      <trkpt lat="43.31636" lon="3.30057">
        <ele>6</ele>
        <time>2019-05-13T23:59:31.851Z</time>
      </trkpt>
      <trkpt lat="43.31643" lon="3.30086">
        <ele>7</ele>
        <time>2019-05-13T23:59:37.032Z</time>
      </trkpt>
      <trkpt lat="43.31648" lon="3.30095">
        <ele>7</ele>
        <time>2019-05-13T23:59:38.932Z</time>
      </trkpt>
      <trkpt lat="43.31652" lon="3.30101">
        <ele>7</ele>
        <time>2019-05-13T23:59:40.066Z</time>
      </trkpt>
      <trkpt lat="43.31655" lon="3.30126">
        <ele>7</ele>
        <time>2019-05-13T23:59:44.545Z</time>
      </trkpt>
      <trkpt lat="43.31663" lon="3.30181">
        <ele>9</ele>
        <time>2019-05-13T23:59:53.949Z</time>
      </trkpt>
      <trkpt lat="43.31661" lon="3.30191">
        <ele>9</ele>
        <time>2019-05-13T23:59:55.779Z</time>
      </trkpt>
      <trkpt lat="43.31662" lon="3.30204">
        <ele>9</ele>
        <time>2019-05-13T23:59:57.899Z</time>
      </trkpt>
      <trkpt lat="43.31688" lon="3.30365">
        <ele>9</ele>
        <time>2019-05-14T00:00:29.183Z</time>
      </trkpt>
      <trkpt lat="43.31684" lon="3.30503">
        <ele>9</ele>
        <time>2019-05-14T00:00:54.796Z</time>
      </trkpt>
      <trkpt lat="43.31562" lon="3.31045">
        <ele>10</ele>
        <time>2019-05-14T00:02:41.159Z</time>
      </trkpt>
      <trkpt lat="43.31483" lon="3.31221">
        <ele>11</ele>
        <time>2019-05-14T00:03:19.911Z</time>
      </trkpt>
      <trkpt lat="43.3146" lon="3.31265">
        <ele>11</ele>
        <time>2019-05-14T00:03:29.628Z</time>
      </trkpt>
      <trkpt lat="43.31453" lon="3.31277">
        <ele>11</ele>
        <time>2019-05-14T00:03:32.178Z</time>
      </trkpt>
      <trkpt lat="43.31449" lon="3.31282">
        <ele>11</ele>
        <time>2019-05-14T00:03:33.487Z</time>
      </trkpt>
      <trkpt lat="43.31442" lon="3.31294">
        <ele>11</ele>
        <time>2019-05-14T00:03:35.967Z</time>
      </trkpt>
      <trkpt lat="43.31392" lon="3.31383">
        <ele>11</ele>
        <time>2019-05-14T00:03:55.173Z</time>
      </trkpt>
      <trkpt lat="43.3086" lon="3.32299">
        <ele>10</ele>
        <time>2019-05-14T00:07:03.253Z</time>
      </trkpt>
      <trkpt lat="43.30571" lon="3.32729">
        <ele>9</ele>
        <time>2019-05-14T00:08:35.406Z</time>
      </trkpt>
      <trkpt lat="43.30444" lon="3.32939">
        <ele>6</ele>
        <time>2019-05-14T00:09:18.679Z</time>
      </trkpt>
      <trkpt lat="43.3044" lon="3.32943">
        <ele>6</ele>
        <time>2019-05-14T00:09:19.717Z</time>
      </trkpt>
      <trkpt lat="43.30438" lon="3.32948">
        <ele>6</ele>
        <time>2019-05-14T00:09:20.769Z</time>
      </trkpt>
      <trkpt lat="43.30337" lon="3.3307">
        <ele>7</ele>
        <time>2019-05-14T00:09:51.771Z</time>
      </trkpt>
      <trkpt lat="43.30196" lon="3.3316">
        <ele>7</ele>
        <time>2019-05-14T00:10:26.002Z</time>
      </trkpt>
      <trkpt lat="43.30132" lon="3.33184">
        <ele>6</ele>
        <time>2019-05-14T00:10:40.218Z</time>
      </trkpt>
      <trkpt lat="43.30026" lon="3.33227">
        <ele>4</ele>
        <time>2019-05-14T00:11:04.905Z</time>
      </trkpt>
      <trkpt lat="43.29909" lon="3.33271">
        <ele>6</ele>
        <time>2019-05-14T00:11:33.674Z</time>
      </trkpt>
      <trkpt lat="43.29762" lon="3.3335">
        <ele>5</ele>
        <time>2019-05-14T00:12:10.170Z</time>
      </trkpt>
      <trkpt lat="43.29699" lon="3.33407">
        <ele>5</ele>
        <time>2019-05-14T00:12:26.732Z</time>
      </trkpt>
      <trkpt lat="43.29664" lon="3.33463">
        <ele>5</ele>
        <time>2019-05-14T00:12:38.420Z</time>
      </trkpt>
      <trkpt lat="43.2961" lon="3.33606">
        <ele>4</ele>
        <time>2019-05-14T00:13:03.741Z</time>
      </trkpt>
      <trkpt lat="43.29591" lon="3.33719">
        <ele>5</ele>
        <time>2019-05-14T00:13:21.749Z</time>
      </trkpt>
      <trkpt lat="43.29591" lon="3.3375">
        <ele>6</ele>
        <time>2019-05-14T00:13:26.558Z</time>
      </trkpt>
      <trkpt lat="43.29592" lon="3.33757">
        <ele>5</ele>
        <time>2019-05-14T00:13:27.563Z</time>
      </trkpt>
      <trkpt lat="43.2959" lon="3.33768">
        <ele>5</ele>
        <time>2019-05-14T00:13:29.354Z</time>
      </trkpt>
      <trkpt lat="43.29589" lon="3.33774">
        <ele>5</ele>
        <time>2019-05-14T00:13:30.195Z</time>
      </trkpt>
      <trkpt lat="43.29582" lon="3.33804">
        <ele>5</ele>
        <time>2019-05-14T00:13:35.166Z</time>
      </trkpt>
      <trkpt lat="43.29565" lon="3.33907">
        <ele>4</ele>
        <time>2019-05-14T00:13:51.395Z</time>
      </trkpt>
      <trkpt lat="43.29538" lon="3.33994">
        <ele>4</ele>
        <time>2019-05-14T00:14:06.089Z</time>
      </trkpt>
      <trkpt lat="43.29435" lon="3.34262">
        <ele>4</ele>
        <time>2019-05-14T00:14:55.892Z</time>
      </trkpt>
      <trkpt lat="43.2927" lon="3.34652">
        <ele>3</ele>
        <time>2019-05-14T00:16:12.292Z</time>
      </trkpt>
      <trkpt lat="43.29147" lon="3.34982">
        <ele>2</ele>
        <time>2019-05-14T00:17:17.657Z</time>
      </trkpt>
      <trkpt lat="43.29122" lon="3.35054">
        <ele>3</ele>
        <time>2019-05-14T00:17:31.830Z</time>
      </trkpt>
      <trkpt lat="43.29111" lon="3.35085">
        <ele>4</ele>
        <time>2019-05-14T00:17:37.763Z</time>
      </trkpt>
      <trkpt lat="43.29084" lon="3.35178">
        <ele>4</ele>
        <time>2019-05-14T00:17:55.170Z</time>
      </trkpt>
      <trkpt lat="43.29063" lon="3.35315">
        <ele>4</ele>
        <time>2019-05-14T00:18:18.431Z</time>
      </trkpt>
      <trkpt lat="43.29045" lon="3.35633">
        <ele>2</ele>
        <time>2019-05-14T00:19:10.962Z</time>
      </trkpt>
      <trkpt lat="43.29068" lon="3.36034">
        <ele>2</ele>
        <time>2019-05-14T00:20:19.986Z</time>
      </trkpt>
      <trkpt lat="43.29073" lon="3.36079">
        <ele>2</ele>
        <time>2019-05-14T00:20:27.913Z</time>
      </trkpt>
      <trkpt lat="43.29075" lon="3.36102">
        <ele>3</ele>
        <time>2019-05-14T00:20:32.931Z</time>
      </trkpt>
      <trkpt lat="43.29078" lon="3.36126">
        <ele>3</ele>
        <time>2019-05-14T00:20:38.050Z</time>
      </trkpt>
      <trkpt lat="43.29085" lon="3.36151">
        <ele>4</ele>
        <time>2019-05-14T00:20:43.790Z</time>
      </trkpt>
      <trkpt lat="43.29098" lon="3.36215">
        <ele>4</ele>
        <time>2019-05-14T00:20:58.366Z</time>
      </trkpt>
      <trkpt lat="43.29094" lon="3.36219">
        <ele>4</ele>
        <time>2019-05-14T00:20:59.760Z</time>
      </trkpt>
      <trkpt lat="43.29108" lon="3.36294">
        <ele>4</ele>
        <time>2019-05-14T00:21:20.775Z</time>
      </trkpt>
      <trkpt lat="43.2914" lon="3.36459">
        <ele>4</ele>
        <time>2019-05-14T00:22:05.645Z</time>
      </trkpt>
      <trkpt lat="43.29167" lon="3.36597">
        <ele>3</ele>
        <time>2019-05-14T00:22:43.361Z</time>
      </trkpt>
      <trkpt lat="43.29203" lon="3.36782">
        <ele>1</ele>
        <time>2019-05-14T00:23:34.640Z</time>
      </trkpt>
      <trkpt lat="43.29245" lon="3.37053">
        <ele>4</ele>
        <time>2019-05-14T00:24:49.934Z</time>
      </trkpt>
      <trkpt lat="43.29234" lon="3.37072">
        <ele>4</ele>
        <time>2019-05-14T00:24:56.241Z</time>
      </trkpt>
      <trkpt lat="43.29046" lon="3.37105">
        <ele>2</ele>
        <time>2019-05-14T00:26:02.302Z</time>
      </trkpt>
      <trkpt lat="43.29036" lon="3.3711">
        <ele>2</ele>
        <time>2019-05-14T00:26:05.899Z</time>
      </trkpt>
      <trkpt lat="43.29031" lon="3.37115">
        <ele>2</ele>
        <time>2019-05-14T00:26:08.425Z</time>
      </trkpt>
      <trkpt lat="43.29028" lon="3.37118">
        <ele>2</ele>
        <time>2019-05-14T00:26:09.570Z</time>
      </trkpt>
      <trkpt lat="43.29062" lon="3.37186">
        <ele>2</ele>
        <time>2019-05-14T00:26:23.167Z</time>
      </trkpt>
      <trkpt lat="43.29065" lon="3.37189">
        <ele>2</ele>
        <time>2019-05-14T00:26:23.930Z</time>
      </trkpt>
      <trkpt lat="43.29073" lon="3.37189">
        <ele>2</ele>
        <time>2019-05-14T00:26:26.555Z</time>
      </trkpt>
      <trkpt lat="43.29088" lon="3.37181">
        <ele>2</ele>
        <time>2019-05-14T00:26:31.243Z</time>
      </trkpt>
      <trkpt lat="43.29115" lon="3.37173">
        <ele>2</ele>
        <time>2019-05-14T00:26:39.917Z</time>
      </trkpt>
      <trkpt lat="43.29147" lon="3.37164">
        <ele>3</ele>
        <time>2019-05-14T00:26:49.963Z</time>
      </trkpt>
      <trkpt lat="43.29172" lon="3.37157">
        <ele>3</ele>
        <time>2019-05-14T00:26:58.298Z</time>
      </trkpt>
      <trkpt lat="43.29185" lon="3.37154">
        <ele>3</ele>
        <time>2019-05-14T00:27:02.717Z</time>
      </trkpt>
      <trkpt lat="43.29194" lon="3.37151">
        <ele>3</ele>
        <time>2019-05-14T00:27:05.766Z</time>
      </trkpt>
      <trkpt lat="43.29211" lon="3.37147">
        <ele>4</ele>
        <time>2019-05-14T00:27:11.037Z</time>
      </trkpt>
      <trkpt lat="43.29254" lon="3.37135">
        <ele>4</ele>
        <time>2019-05-14T00:27:25.679Z</time>
      </trkpt>
      <trkpt lat="43.29263" lon="3.37191">
        <ele>3</ele>
        <time>2019-05-14T00:27:39.204Z</time>
      </trkpt>
      <trkpt lat="43.29321" lon="3.37627">
        <ele>3</ele>
        <time>2019-05-14T00:29:39.044Z</time>
      </trkpt>
      <trkpt lat="43.29407" lon="3.38257">
        <ele>2</ele>
        <time>2019-05-14T00:32:28.443Z</time>
      </trkpt>
      <trkpt lat="43.29474" lon="3.38738">
        <ele>2</ele>
        <time>2019-05-14T00:34:37.935Z</time>
      </trkpt>
      <trkpt lat="43.29523" lon="3.38974">
        <ele>2</ele>
        <time>2019-05-14T00:35:47.667Z</time>
      </trkpt>
      <trkpt lat="43.29602" lon="3.39235">
        <ele>4</ele>
        <time>2019-05-14T00:37:09.254Z</time>
      </trkpt>
      <trkpt lat="43.29653" lon="3.39371">
        <ele>3</ele>
        <time>2019-05-14T00:37:50.664Z</time>
      </trkpt>
      <trkpt lat="43.29884" lon="3.39885">
        <ele>2</ele>
        <time>2019-05-14T00:40:29.644Z</time>
      </trkpt>
      <trkpt lat="43.30014" lon="3.40204">
        <ele>4</ele>
        <time>2019-05-14T00:42:15.470Z</time>
      </trkpt>
      <trkpt lat="43.30052" lon="3.40311">
        <ele>4</ele>
        <time>2019-05-14T00:42:50.791Z</time>
      </trkpt>
      <trkpt lat="43.30058" lon="3.40327">
        <ele>5</ele>
        <time>2019-05-14T00:42:56.270Z</time>
      </trkpt>
      <trkpt lat="43.30078" lon="3.40368">
        <ele>5</ele>
        <time>2019-05-14T00:43:10.130Z</time>
      </trkpt>
      <trkpt lat="43.30079" lon="3.40369">
        <ele>5</ele>
        <time>2019-05-14T00:43:10.406Z</time>
      </trkpt>
      <trkpt lat="43.30093" lon="3.40363">
        <ele>5</ele>
        <time>2019-05-14T00:43:15.607Z</time>
      </trkpt>
      <trkpt lat="43.30098" lon="3.40394">
        <ele>5</ele>
        <time>2019-05-14T00:43:24.504Z</time>
      </trkpt>
      <trkpt lat="43.30098" lon="3.40399">
        <ele>5</ele>
        <time>2019-05-14T00:43:25.814Z</time>
      </trkpt>
      <trkpt lat="43.30105" lon="3.40438">
        <ele>5</ele>
        <time>2019-05-14T00:43:36.732Z</time>
      </trkpt>
      <trkpt lat="43.30094" lon="3.40444">
        <ele>5</ele>
        <time>2019-05-14T00:43:40.867Z</time>
      </trkpt>
      <trkpt lat="43.301" lon="3.40475">
        <ele>6</ele>
        <time>2019-05-14T00:43:49.470Z</time>
      </trkpt>
      <trkpt lat="43.30101" lon="3.40482">
        <ele>6</ele>
        <time>2019-05-14T00:43:51.242Z</time>
      </trkpt>
      <trkpt lat="43.30099" lon="3.40489">
        <ele>6</ele>
        <time>2019-05-14T00:43:52.876Z</time>
      </trkpt>
      <trkpt lat="43.30132" lon="3.40725">
        <ele>3</ele>
        <time>2019-05-14T00:44:52.626Z</time>
      </trkpt>
      <trkpt lat="43.30176" lon="3.41366">
        <ele>2</ele>
        <time>2019-05-14T00:47:45.231Z</time>
      </trkpt>
      <trkpt lat="43.302" lon="3.41721">
        <ele>3</ele>
        <time>2019-05-14T00:49:21.088Z</time>
      </trkpt>
      <trkpt lat="43.30186" lon="3.41734">
        <ele>3</ele>
        <time>2019-05-14T00:49:27.341Z</time>
      </trkpt>
      <trkpt lat="43.3019" lon="3.41743">
        <ele>3</ele>
        <time>2019-05-14T00:49:29.059Z</time>
      </trkpt>
      <trkpt lat="43.30202" lon="3.41787">
        <ele>3</ele>
        <time>2019-05-14T00:49:36.874Z</time>
      </trkpt>
      <trkpt lat="43.30193" lon="3.41846">
        <ele>3</ele>
        <time>2019-05-14T00:49:46.985Z</time>
      </trkpt>
      <trkpt lat="43.30189" lon="3.41851">
        <ele>3</ele>
        <time>2019-05-14T00:49:48.176Z</time>
      </trkpt>
      <trkpt lat="43.30192" lon="3.41858">
        <ele>3</ele>
        <time>2019-05-14T00:49:49.621Z</time>
      </trkpt>
      <trkpt lat="43.30201" lon="3.4189">
        <ele>3</ele>
        <time>2019-05-14T00:49:55.607Z</time>
      </trkpt>
      <trkpt lat="43.30205" lon="3.419">
        <ele>3</ele>
        <time>2019-05-14T00:49:57.526Z</time>
      </trkpt>
      <trkpt lat="43.30202" lon="3.41904">
        <ele>3</ele>
        <time>2019-05-14T00:49:58.577Z</time>
      </trkpt>
      <trkpt lat="43.30201" lon="3.41907">
        <ele>3</ele>
        <time>2019-05-14T00:49:59.088Z</time>
      </trkpt>
      <trkpt lat="43.302" lon="3.4191">
        <ele>3</ele>
        <time>2019-05-14T00:49:59.582Z</time>
      </trkpt>
      <trkpt lat="43.30198" lon="3.4193">
        <ele>3</ele>
        <time>2019-05-14T00:50:03.218Z</time>
      </trkpt>
      <trkpt lat="43.30197" lon="3.41945">
        <ele>3</ele>
        <time>2019-05-14T00:50:05.905Z</time>
      </trkpt>
      <trkpt lat="43.30195" lon="3.42007">
        <ele>4</ele>
        <time>2019-05-14T00:50:17.401Z</time>
      </trkpt>
      <trkpt lat="43.30218" lon="3.42064">
        <ele>4</ele>
        <time>2019-05-14T00:50:29.579Z</time>
      </trkpt>
      <trkpt lat="43.30226" lon="3.42175">
        <ele>3</ele>
        <time>2019-05-14T00:50:50.356Z</time>
      </trkpt>
      <trkpt lat="43.30232" lon="3.42259">
        <ele>5</ele>
        <time>2019-05-14T00:51:05.727Z</time>
      </trkpt>
      <trkpt lat="43.3024" lon="3.4236">
        <ele>5</ele>
        <time>2019-05-14T00:51:23.204Z</time>
      </trkpt>
      <trkpt lat="43.30243" lon="3.42409">
        <ele>5</ele>
        <time>2019-05-14T00:51:31.401Z</time>
      </trkpt>
      <trkpt lat="43.30249" lon="3.42502">
        <ele>5</ele>
        <time>2019-05-14T00:51:46.610Z</time>
      </trkpt>
      <trkpt lat="43.30275" lon="3.42876">
        <ele>3</ele>
        <time>2019-05-14T00:52:47.464Z</time>
      </trkpt>
      <trkpt lat="43.30271" lon="3.42917">
        <ele>3</ele>
        <time>2019-05-14T00:52:54.099Z</time>
      </trkpt>
      <trkpt lat="43.30269" lon="3.42922">
        <ele>4</ele>
        <time>2019-05-14T00:52:55.211Z</time>
      </trkpt>
      <trkpt lat="43.30267" lon="3.42929">
        <ele>4</ele>
        <time>2019-05-14T00:52:56.344Z</time>
      </trkpt>
      <trkpt lat="43.30265" lon="3.4294">
        <ele>4</ele>
        <time>2019-05-14T00:52:58.287Z</time>
      </trkpt>
      <trkpt lat="43.30265" lon="3.42946">
        <ele>4</ele>
        <time>2019-05-14T00:52:59.237Z</time>
      </trkpt>
      <trkpt lat="43.30265" lon="3.42951">
        <ele>4</ele>
        <time>2019-05-14T00:53:00.162Z</time>
      </trkpt>
      <trkpt lat="43.30268" lon="3.43002">
        <ele>5</ele>
        <time>2019-05-14T00:53:08.598Z</time>
      </trkpt>
      <trkpt lat="43.30268" lon="3.43007">
        <ele>5</ele>
        <time>2019-05-14T00:53:09.564Z</time>
      </trkpt>
      <trkpt lat="43.30269" lon="3.43017">
        <ele>5</ele>
        <time>2019-05-14T00:53:11.103Z</time>
      </trkpt>
      <trkpt lat="43.3027" lon="3.43031">
        <ele>5</ele>
        <time>2019-05-14T00:53:13.656Z</time>
      </trkpt>
      <trkpt lat="43.3027" lon="3.43037">
        <ele>5</ele>
        <time>2019-05-14T00:53:14.581Z</time>
      </trkpt>
      <trkpt lat="43.30271" lon="3.43043">
        <ele>5</ele>
        <time>2019-05-14T00:53:15.450Z</time>
      </trkpt>
      <trkpt lat="43.30271" lon="3.43051">
        <ele>5</ele>
        <time>2019-05-14T00:53:16.918Z</time>
      </trkpt>
      <trkpt lat="43.30273" lon="3.43056">
        <ele>5</ele>
        <time>2019-05-14T00:53:17.789Z</time>
      </trkpt>
      <trkpt lat="43.30285" lon="3.43067">
        <ele>5</ele>
        <time>2019-05-14T00:53:21.254Z</time>
      </trkpt>
      <trkpt lat="43.30289" lon="3.43114">
        <ele>4</ele>
        <time>2019-05-14T00:53:28.883Z</time>
      </trkpt>
      <trkpt lat="43.3029" lon="3.43129">
        <ele>4</ele>
        <time>2019-05-14T00:53:31.382Z</time>
      </trkpt>
      <trkpt lat="43.30294" lon="3.43172">
        <ele>4</ele>
        <time>2019-05-14T00:53:38.060Z</time>
      </trkpt>
      <trkpt lat="43.30301" lon="3.43276">
        <ele>3</ele>
        <time>2019-05-14T00:53:54.748Z</time>
      </trkpt>
      <trkpt lat="43.30303" lon="3.43292">
        <ele>3</ele>
        <time>2019-05-14T00:53:57.381Z</time>
      </trkpt>
      <trkpt lat="43.30305" lon="3.43305">
        <ele>3</ele>
        <time>2019-05-14T00:53:59.598Z</time>
      </trkpt>
      <trkpt lat="43.30307" lon="3.43322">
        <ele>3</ele>
        <time>2019-05-14T00:54:04.164Z</time>
      </trkpt>
      <trkpt lat="43.30348" lon="3.43475">
        <ele>3</ele>
        <time>2019-05-14T00:54:48.618Z</time>
      </trkpt>
      <trkpt lat="43.30436" lon="3.43598">
        <ele>4</ele>
        <time>2019-05-14T00:55:35.593Z</time>
      </trkpt>
      <trkpt lat="43.30441" lon="3.43604">
        <ele>4</ele>
        <time>2019-05-14T00:55:38.064Z</time>
      </trkpt>
      <trkpt lat="43.30444" lon="3.43608">
        <ele>4</ele>
        <time>2019-05-14T00:55:39.717Z</time>
      </trkpt>
      <trkpt lat="43.30514" lon="3.43675">
        <ele>4</ele>
        <time>2019-05-14T00:56:11.084Z</time>
      </trkpt>
      <trkpt lat="43.30752" lon="3.43781">
        <ele>4</ele>
        <time>2019-05-14T00:57:44.254Z</time>
      </trkpt>
      <trkpt lat="43.30757" lon="3.43786">
        <ele>4</ele>
        <time>2019-05-14T00:57:46.974Z</time>
      </trkpt>
      <trkpt lat="43.30772" lon="3.43795">
        <ele>4</ele>
        <time>2019-05-14T00:57:53.151Z</time>
      </trkpt>
      <trkpt lat="43.31095" lon="3.43934">
        <ele>2</ele>
        <time>2019-05-14T00:59:57.779Z</time>
      </trkpt>
      <trkpt lat="43.31188" lon="3.43979">
        <ele>4</ele>
        <time>2019-05-14T01:00:34.208Z</time>
      </trkpt>
      <trkpt lat="43.31281" lon="3.44043">
        <ele>3</ele>
        <time>2019-05-14T01:01:11.334Z</time>
      </trkpt>
      <trkpt lat="43.31336" lon="3.44065">
        <ele>2</ele>
        <time>2019-05-14T01:01:33.054Z</time>
      </trkpt>
      <trkpt lat="43.31351" lon="3.44068">
        <ele>2</ele>
        <time>2019-05-14T01:01:38.557Z</time>
      </trkpt>
      <trkpt lat="43.31363" lon="3.44073">
        <ele>2</ele>
        <time>2019-05-14T01:01:43.591Z</time>
      </trkpt>
      <trkpt lat="43.31412" lon="3.44084">
        <ele>3</ele>
        <time>2019-05-14T01:02:02.918Z</time>
      </trkpt>
      <trkpt lat="43.31422" lon="3.44084">
        <ele>3</ele>
        <time>2019-05-14T01:02:06.575Z</time>
      </trkpt>
      <trkpt lat="43.3146" lon="3.4407">
        <ele>4</ele>
        <time>2019-05-14T01:02:21.994Z</time>
      </trkpt>
      <trkpt lat="43.31475" lon="3.44065">
        <ele>4</ele>
        <time>2019-05-14T01:02:28.283Z</time>
      </trkpt>
      <trkpt lat="43.31499" lon="3.44064">
        <ele>4</ele>
        <time>2019-05-14T01:02:37.757Z</time>
      </trkpt>
      <trkpt lat="43.31552" lon="3.44117">
        <ele>5</ele>
        <time>2019-05-14T01:03:04.304Z</time>
      </trkpt>
      <trkpt lat="43.31572" lon="3.44154">
        <ele>8</ele>
        <time>2019-05-14T01:03:17.520Z</time>
      </trkpt>
      <trkpt lat="43.31664" lon="3.44692">
        <ele>5</ele>
        <time>2019-05-14T01:05:45.814Z</time>
      </trkpt>
      <trkpt lat="43.31672" lon="3.44732">
        <ele>5</ele>
        <time>2019-05-14T01:05:56.635Z</time>
      </trkpt>
      <trkpt lat="43.31694" lon="3.44855">
        <ele>3</ele>
        <time>2019-05-14T01:06:29.567Z</time>
      </trkpt>
      <trkpt lat="43.31989" lon="3.46687">
        <ele>5</ele>
        <time>2019-05-14T01:15:05.371Z</time>
      </trkpt>
      <trkpt lat="43.31991" lon="3.46729">
        <ele>5</ele>
        <time>2019-05-14T01:15:17.596Z</time>
      </trkpt>
      <trkpt lat="43.31983" lon="3.46732">
        <ele>5</ele>
        <time>2019-05-14T01:15:19.636Z</time>
      </trkpt>
      <trkpt lat="43.31985" lon="3.46744">
        <ele>5</ele>
        <time>2019-05-14T01:15:23.125Z</time>
      </trkpt>
      <trkpt lat="43.31984" lon="3.4675">
        <ele>6</ele>
        <time>2019-05-14T01:15:25.069Z</time>
      </trkpt>
      <trkpt lat="43.31779" lon="3.46827">
        <ele>8</ele>
        <time>2019-05-14T01:16:47.014Z</time>
      </trkpt>
      <trkpt lat="43.3162" lon="3.46863">
        <ele>8</ele>
        <time>2019-05-14T01:17:42.434Z</time>
      </trkpt>
      <trkpt lat="43.31571" lon="3.46877">
        <ele>6</ele>
        <time>2019-05-14T01:18:01.276Z</time>
      </trkpt>
      <trkpt lat="43.31559" lon="3.46867">
        <ele>6</ele>
        <time>2019-05-14T01:18:07.430Z</time>
      </trkpt>
      <trkpt lat="43.31555" lon="3.46867">
        <ele>6</ele>
        <time>2019-05-14T01:18:09.076Z</time>
      </trkpt>
      <trkpt lat="43.3155" lon="3.46867">
        <ele>6</ele>
        <time>2019-05-14T01:18:12.006Z</time>
      </trkpt>
      <trkpt lat="43.31537" lon="3.4687">
        <ele>6</ele>
        <time>2019-05-14T01:18:17.752Z</time>
      </trkpt>
      <trkpt lat="43.31535" lon="3.46863">
        <ele>6</ele>
        <time>2019-05-14T01:18:19.902Z</time>
      </trkpt>
      <trkpt lat="43.31533" lon="3.46856">
        <ele>7</ele>
        <time>2019-05-14T01:18:22.253Z</time>
      </trkpt>
      <trkpt lat="43.31527" lon="3.46851">
        <ele>7</ele>
        <time>2019-05-14T01:18:25.152Z</time>
      </trkpt>
      <trkpt lat="43.31522" lon="3.46845">
        <ele>7</ele>
        <time>2019-05-14T01:18:28.883Z</time>
      </trkpt>
      <trkpt lat="43.3152" lon="3.46849">
        <ele>7</ele>
        <time>2019-05-14T01:18:30.040Z</time>
      </trkpt>
      <trkpt lat="43.31516" lon="3.46851">
        <ele>7</ele>
        <time>2019-05-14T01:18:31.320Z</time>
      </trkpt>
      <trkpt lat="43.31511" lon="3.46853">
        <ele>7</ele>
        <time>2019-05-14T01:18:32.639Z</time>
      </trkpt>
      <trkpt lat="43.31512" lon="3.4686">
        <ele>7</ele>
        <time>2019-05-14T01:18:33.992Z</time>
      </trkpt>
      <trkpt lat="43.3151" lon="3.46867">
        <ele>6</ele>
        <time>2019-05-14T01:18:35.473Z</time>
      </trkpt>
      <trkpt lat="43.31474" lon="3.46962">
        <ele>7</ele>
        <time>2019-05-14T01:19:00.950Z</time>
      </trkpt>
      <trkpt lat="43.31472" lon="3.46973">
        <ele>7</ele>
        <time>2019-05-14T01:19:04.883Z</time>
      </trkpt>
      <trkpt lat="43.31471" lon="3.46988">
        <ele>7</ele>
        <time>2019-05-14T01:19:08.093Z</time>
      </trkpt>
      <trkpt lat="43.31473" lon="3.46999">
        <ele>7</ele>
        <time>2019-05-14T01:19:10.161Z</time>
      </trkpt>
      <trkpt lat="43.31515" lon="3.47067">
        <ele>8</ele>
        <time>2019-05-14T01:19:29.918Z</time>
      </trkpt>
      <trkpt lat="43.31511" lon="3.47084">
        <ele>10</ele>
        <time>2019-05-14T01:19:32.995Z</time>
      </trkpt>
      <trkpt lat="43.31507" lon="3.47088">
        <ele>10</ele>
        <time>2019-05-14T01:19:34.601Z</time>
      </trkpt>
      <trkpt lat="43.3151" lon="3.47096">
        <ele>10</ele>
        <time>2019-05-14T01:19:37.074Z</time>
      </trkpt>
      <trkpt lat="43.31512" lon="3.47102">
        <ele>9</ele>
        <time>2019-05-14T01:19:38.129Z</time>
      </trkpt>
      <trkpt lat="43.3151" lon="3.47105">
        <ele>9</ele>
        <time>2019-05-14T01:19:38.820Z</time>
      </trkpt>
      <trkpt lat="43.3151" lon="3.47126">
        <ele>9</ele>
        <time>2019-05-14T01:19:41.762Z</time>
      </trkpt>
      <trkpt lat="43.3151" lon="3.4713">
        <ele>9</ele>
        <time>2019-05-14T01:19:42.445Z</time>
      </trkpt>
      <trkpt lat="43.31512" lon="3.47134">
        <ele>9</ele>
        <time>2019-05-14T01:19:43.519Z</time>
      </trkpt>
      <trkpt lat="43.31516" lon="3.47137">
        <ele>9</ele>
        <time>2019-05-14T01:19:44.800Z</time>
      </trkpt>
      <trkpt lat="43.31519" lon="3.47137">
        <ele>9</ele>
        <time>2019-05-14T01:19:45.799Z</time>
      </trkpt>
      <trkpt lat="43.3152" lon="3.47137">
        <ele>9</ele>
        <time>2019-05-14T01:19:46.042Z</time>
      </trkpt>
      <trkpt lat="43.31527" lon="3.47143">
        <ele>9</ele>
        <time>2019-05-14T01:19:47.578Z</time>
      </trkpt>
      <trkpt lat="43.31532" lon="3.47148">
        <ele>9</ele>
        <time>2019-05-14T01:19:48.655Z</time>
      </trkpt>
      <trkpt lat="43.31539" lon="3.47182">
        <ele>9</ele>
        <time>2019-05-14T01:19:53.635Z</time>
      </trkpt>
      <trkpt lat="43.31541" lon="3.47187">
        <ele>9</ele>
        <time>2019-05-14T01:19:54.326Z</time>
      </trkpt>
      <trkpt lat="43.31542" lon="3.4719">
        <ele>9</ele>
        <time>2019-05-14T01:19:54.675Z</time>
      </trkpt>
      <trkpt lat="43.31545" lon="3.47197">
        <ele>9</ele>
        <time>2019-05-14T01:19:55.777Z</time>
      </trkpt>
      <trkpt lat="43.31554" lon="3.4722">
        <ele>9</ele>
        <time>2019-05-14T01:19:59.355Z</time>
      </trkpt>
      <trkpt lat="43.31566" lon="3.47251">
        <ele>10</ele>
        <time>2019-05-14T01:20:04.207Z</time>
      </trkpt>
      <trkpt lat="43.31569" lon="3.47257">
        <ele>10</ele>
        <time>2019-05-14T01:20:05.112Z</time>
      </trkpt>
      <trkpt lat="43.31574" lon="3.47274">
        <ele>10</ele>
        <time>2019-05-14T01:20:07.508Z</time>
      </trkpt>
      <trkpt lat="43.31578" lon="3.47284">
        <ele>10</ele>
        <time>2019-05-14T01:20:09.062Z</time>
      </trkpt>
      <trkpt lat="43.31601" lon="3.47342">
        <ele>9</ele>
        <time>2019-05-14T01:20:17.955Z</time>
      </trkpt>
      <trkpt lat="43.31603" lon="3.47346">
        <ele>9</ele>
        <time>2019-05-14T01:20:18.570Z</time>
      </trkpt>
      <trkpt lat="43.31608" lon="3.47346">
        <ele>9</ele>
        <time>2019-05-14T01:20:19.528Z</time>
      </trkpt>
      <trkpt lat="43.31625" lon="3.47351">
        <ele>9</ele>
        <time>2019-05-14T01:20:22.854Z</time>
      </trkpt>
      <trkpt lat="43.31659" lon="3.47343">
        <ele>9</ele>
        <time>2019-05-14T01:20:29.870Z</time>
      </trkpt>
      <trkpt lat="43.31667" lon="3.47335">
        <ele>9</ele>
        <time>2019-05-14T01:20:31.864Z</time>
      </trkpt>
      <trkpt lat="43.31726" lon="3.47334">
        <ele>6</ele>
        <time>2019-05-14T01:20:43.822Z</time>
      </trkpt>
      <trkpt lat="43.31744" lon="3.47336">
        <ele>5</ele>
        <time>2019-05-14T01:20:47.765Z</time>
      </trkpt>
      <trkpt lat="43.31784" lon="3.47344">
        <ele>5</ele>
        <time>2019-05-14T01:20:56.157Z</time>
      </trkpt>
      <trkpt lat="43.31805" lon="3.4735">
        <ele>5</ele>
        <time>2019-05-14T01:21:03.742Z</time>
      </trkpt>
      <trkpt lat="43.31822" lon="3.47357">
        <ele>5</ele>
        <time>2019-05-14T01:21:09.800Z</time>
      </trkpt>
      <trkpt lat="43.31894" lon="3.47345">
        <ele>8</ele>
        <time>2019-05-14T01:21:35.783Z</time>
      </trkpt>
      <trkpt lat="43.3196" lon="3.47333">
        <ele>8</ele>
        <time>2019-05-14T01:22:00.251Z</time>
      </trkpt>
      <trkpt lat="43.32089" lon="3.4735">
        <ele>6</ele>
        <time>2019-05-14T01:22:45.735Z</time>
      </trkpt>
      <trkpt lat="43.32207" lon="3.47395">
        <ele>7</ele>
        <time>2019-05-14T01:23:28.062Z</time>
      </trkpt>
      <trkpt lat="43.32308" lon="3.47453">
        <ele>7</ele>
        <time>2019-05-14T01:24:08.071Z</time>
      </trkpt>
      <trkpt lat="43.32492" lon="3.47656">
        <ele>9</ele>
        <time>2019-05-14T01:25:43.698Z</time>
      </trkpt>
      <trkpt lat="43.32534" lon="3.47681">
        <ele>10</ele>
        <time>2019-05-14T01:26:03.247Z</time>
      </trkpt>
      <trkpt lat="43.32601" lon="3.47828">
        <ele>11</ele>
        <time>2019-05-14T01:26:54.590Z</time>
      </trkpt>
      <trkpt lat="43.32612" lon="3.4785">
        <ele>11</ele>
        <time>2019-05-14T01:27:02.184Z</time>
      </trkpt>
      <trkpt lat="43.32634" lon="3.47892">
        <ele>10</ele>
        <time>2019-05-14T01:27:16.396Z</time>
      </trkpt>
      <trkpt lat="43.32664" lon="3.47954">
        <ele>10</ele>
        <time>2019-05-14T01:27:35.195Z</time>
      </trkpt>
      <trkpt lat="43.32659" lon="3.47989">
        <ele>11</ele>
        <time>2019-05-14T01:27:44.135Z</time>
      </trkpt>
      <trkpt lat="43.32613" lon="3.48026">
        <ele>9</ele>
        <time>2019-05-14T01:28:02.251Z</time>
      </trkpt>
      <trkpt lat="43.32596" lon="3.48036">
        <ele>9</ele>
        <time>2019-05-14T01:28:08.519Z</time>
      </trkpt>
      <trkpt lat="43.32584" lon="3.48047">
        <ele>9</ele>
        <time>2019-05-14T01:28:13.248Z</time>
      </trkpt>
      <trkpt lat="43.32453" lon="3.48102">
        <ele>5</ele>
        <time>2019-05-14T01:29:01.942Z</time>
      </trkpt>
      <trkpt lat="43.32434" lon="3.48109">
        <ele>5</ele>
        <time>2019-05-14T01:29:09.145Z</time>
      </trkpt>
      <trkpt lat="43.32271" lon="3.48212">
        <ele>8</ele>
        <time>2019-05-14T01:30:22.434Z</time>
      </trkpt>
      <trkpt lat="43.3212" lon="3.48374">
        <ele>11</ele>
        <time>2019-05-14T01:31:36.199Z</time>
      </trkpt>
      <trkpt lat="43.31964" lon="3.48577">
        <ele>8</ele>
        <time>2019-05-14T01:32:47.774Z</time>
      </trkpt>
      <trkpt lat="43.31959" lon="3.48579">
        <ele>8</ele>
        <time>2019-05-14T01:32:49.573Z</time>
      </trkpt>
      <trkpt lat="43.31942" lon="3.4861">
        <ele>6</ele>
        <time>2019-05-14T01:32:57.383Z</time>
      </trkpt>
      <trkpt lat="43.31918" lon="3.48644">
        <ele>5</ele>
        <time>2019-05-14T01:33:06.971Z</time>
      </trkpt>
      <trkpt lat="43.31913" lon="3.48644">
        <ele>5</ele>
        <time>2019-05-14T01:33:08.209Z</time>
      </trkpt>
      <trkpt lat="43.31907" lon="3.4865">
        <ele>5</ele>
        <time>2019-05-14T01:33:10.265Z</time>
      </trkpt>
      <trkpt lat="43.31846" lon="3.48702">
        <ele>6</ele>
        <time>2019-05-14T01:33:30.983Z</time>
      </trkpt>
      <trkpt lat="43.31654" lon="3.48807">
        <ele>8</ele>
        <time>2019-05-14T01:34:34.383Z</time>
      </trkpt>
      <trkpt lat="43.31616" lon="3.48846">
        <ele>8</ele>
        <time>2019-05-14T01:34:47.694Z</time>
      </trkpt>
      <trkpt lat="43.31571" lon="3.48929">
        <ele>7</ele>
        <time>2019-05-14T01:35:08.527Z</time>
      </trkpt>
      <trkpt lat="43.31453" lon="3.49296">
        <ele>5</ele>
        <time>2019-05-14T01:36:30.318Z</time>
      </trkpt>
      <trkpt lat="43.31312" lon="3.49551">
        <ele>6</ele>
        <time>2019-05-14T01:37:38.370Z</time>
      </trkpt>
      <trkpt lat="43.31286" lon="3.49632">
        <ele>5</ele>
        <time>2019-05-14T01:37:56.880Z</time>
      </trkpt>
      <trkpt lat="43.31276" lon="3.49741">
        <ele>5</ele>
        <time>2019-05-14T01:38:19.530Z</time>
      </trkpt>
      <trkpt lat="43.31288" lon="3.49805">
        <ele>5</ele>
        <time>2019-05-14T01:38:32.584Z</time>
      </trkpt>
      <trkpt lat="43.31315" lon="3.49843">
        <ele>6</ele>
        <time>2019-05-14T01:38:42.891Z</time>
      </trkpt>
      <trkpt lat="43.31379" lon="3.4989">
        <ele>4</ele>
        <time>2019-05-14T01:39:01.683Z</time>
      </trkpt>
      <trkpt lat="43.31383" lon="3.49894">
        <ele>4</ele>
        <time>2019-05-14T01:39:02.869Z</time>
      </trkpt>
      <trkpt lat="43.31387" lon="3.49897">
        <ele>4</ele>
        <time>2019-05-14T01:39:04.005Z</time>
      </trkpt>
      <trkpt lat="43.31411" lon="3.49903">
        <ele>3</ele>
        <time>2019-05-14T01:39:10.392Z</time>
      </trkpt>
      <trkpt lat="43.31423" lon="3.49921">
        <ele>2</ele>
        <time>2019-05-14T01:39:14.716Z</time>
      </trkpt>
      <trkpt lat="43.31486" lon="3.49937">
        <ele>3</ele>
        <time>2019-05-14T01:39:31.344Z</time>
      </trkpt>
      <trkpt lat="43.31541" lon="3.49983">
        <ele>3</ele>
        <time>2019-05-14T01:39:48.210Z</time>
      </trkpt>
      <trkpt lat="43.31548" lon="3.50006">
        <ele>2</ele>
        <time>2019-05-14T01:39:53.251Z</time>
      </trkpt>
      <trkpt lat="43.31533" lon="3.50195">
        <ele>1</ele>
        <time>2019-05-14T01:40:31.970Z</time>
      </trkpt>
      <trkpt lat="43.3152" lon="3.50204">
        <ele>1</ele>
        <time>2019-05-14T01:40:36.303Z</time>
      </trkpt>
      <trkpt lat="43.31369" lon="3.51248">
        <ele>2</ele>
        <time>2019-05-14T01:44:21.586Z</time>
      </trkpt>
      <trkpt lat="43.31367" lon="3.51433">
        <ele>1</ele>
        <time>2019-05-14T01:45:00.453Z</time>
      </trkpt>
      <trkpt lat="43.31414" lon="3.5169">
        <ele>1</ele>
        <time>2019-05-14T01:45:56.736Z</time>
      </trkpt>
      <trkpt lat="43.31415" lon="3.51699">
        <ele>1</ele>
        <time>2019-05-14T01:45:58.612Z</time>
      </trkpt>
      <trkpt lat="43.31425" lon="3.51755">
        <ele>1</ele>
        <time>2019-05-14T01:46:14.109Z</time>
      </trkpt>
      <trkpt lat="43.31477" lon="3.52041">
        <ele>1</ele>
        <time>2019-05-14T01:47:33.907Z</time>
      </trkpt>
      <trkpt lat="43.31489" lon="3.52168">
        <ele>2</ele>
        <time>2019-05-14T01:48:08.569Z</time>
      </trkpt>
      <trkpt lat="43.31534" lon="3.52384">
        <ele>1</ele>
        <time>2019-05-14T01:49:08.800Z</time>
      </trkpt>
      <trkpt lat="43.31539" lon="3.52411">
        <ele>1</ele>
        <time>2019-05-14T01:49:16.496Z</time>
      </trkpt>
      <trkpt lat="43.31542" lon="3.52417">
        <ele>1</ele>
        <time>2019-05-14T01:49:18.438Z</time>
      </trkpt>
      <trkpt lat="43.31552" lon="3.52438">
        <ele>1</ele>
        <time>2019-05-14T01:49:25.214Z</time>
      </trkpt>
      <trkpt lat="43.31571" lon="3.52627">
        <ele>1</ele>
        <time>2019-05-14T01:50:17.336Z</time>
      </trkpt>
      <trkpt lat="43.31574" lon="3.52654">
        <ele>1</ele>
        <time>2019-05-14T01:50:24.585Z</time>
      </trkpt>
      <trkpt lat="43.31577" lon="3.52694">
        <ele>1</ele>
        <time>2019-05-14T01:50:35.919Z</time>
      </trkpt>
      <trkpt lat="43.31592" lon="3.52844">
        <ele>2</ele>
        <time>2019-05-14T01:51:18.443Z</time>
      </trkpt>
      <trkpt lat="43.31616" lon="3.52938">
        <ele>2</ele>
        <time>2019-05-14T01:51:46.352Z</time>
      </trkpt>
      <trkpt lat="43.31695" lon="3.53049">
        <ele>2</ele>
        <time>2019-05-14T01:52:26.982Z</time>
      </trkpt>
      <trkpt lat="43.31707" lon="3.53056">
        <ele>2</ele>
        <time>2019-05-14T01:52:31.996Z</time>
      </trkpt>
      <trkpt lat="43.31734" lon="3.53078">
        <ele>2</ele>
        <time>2019-05-14T01:52:43.048Z</time>
      </trkpt>
      <trkpt lat="43.31789" lon="3.53106">
        <ele>2</ele>
        <time>2019-05-14T01:53:04.301Z</time>
      </trkpt>
      <trkpt lat="43.32067" lon="3.53197">
        <ele>3</ele>
        <time>2019-05-14T01:54:54.343Z</time>
      </trkpt>
      <trkpt lat="43.32087" lon="3.53186">
        <ele>2</ele>
        <time>2019-05-14T01:55:02.212Z</time>
      </trkpt>
      <trkpt lat="43.32113" lon="3.53201">
        <ele>2</ele>
        <time>2019-05-14T01:55:12.685Z</time>
      </trkpt>
      <trkpt lat="43.32117" lon="3.53201">
        <ele>2</ele>
        <time>2019-05-14T01:55:13.870Z</time>
      </trkpt>
      <trkpt lat="43.32117" lon="3.53204">
        <ele>2</ele>
        <time>2019-05-14T01:55:14.501Z</time>
      </trkpt>
      <trkpt lat="43.32121" lon="3.53228">
        <ele>2</ele>
        <time>2019-05-14T01:55:21.292Z</time>
      </trkpt>
      <trkpt lat="43.32123" lon="3.53233">
        <ele>2</ele>
        <time>2019-05-14T01:55:22.612Z</time>
      </trkpt>
      <trkpt lat="43.32119" lon="3.53245">
        <ele>2</ele>
        <time>2019-05-14T01:55:24.772Z</time>
      </trkpt>
      <trkpt lat="43.3211" lon="3.53322">
        <ele>2</ele>
        <time>2019-05-14T01:55:37.543Z</time>
      </trkpt>
      <trkpt lat="43.32109" lon="3.53331">
        <ele>2</ele>
        <time>2019-05-14T01:55:38.957Z</time>
      </trkpt>
      <trkpt lat="43.32107" lon="3.53362">
        <ele>2</ele>
        <time>2019-05-14T01:55:44.186Z</time>
      </trkpt>
      <trkpt lat="43.32101" lon="3.53407">
        <ele>2</ele>
        <time>2019-05-14T01:55:51.551Z</time>
      </trkpt>
      <trkpt lat="43.32099" lon="3.53418">
        <ele>1</ele>
        <time>2019-05-14T01:55:53.582Z</time>
      </trkpt>
      <trkpt lat="43.32093" lon="3.53445">
        <ele>1</ele>
        <time>2019-05-14T01:55:57.925Z</time>
      </trkpt>
      <trkpt lat="43.3209" lon="3.53454">
        <ele>1</ele>
        <time>2019-05-14T01:55:59.805Z</time>
      </trkpt>
      <trkpt lat="43.32064" lon="3.53456">
        <ele>1</ele>
        <time>2019-05-14T01:56:05.888Z</time>
      </trkpt>
      <trkpt lat="43.32029" lon="3.53434">
        <ele>1</ele>
        <time>2019-05-14T01:56:15.201Z</time>
      </trkpt>
      <trkpt lat="43.32027" lon="3.53435">
        <ele>1</ele>
        <time>2019-05-14T01:56:15.722Z</time>
      </trkpt>
      <trkpt lat="43.32027" lon="3.53451">
        <ele>1</ele>
        <time>2019-05-14T01:56:18.502Z</time>
      </trkpt>
      <trkpt lat="43.32046" lon="3.53544">
        <ele>2</ele>
        <time>2019-05-14T01:56:36.069Z</time>
      </trkpt>
      <trkpt lat="43.32046" lon="3.53561">
        <ele>2</ele>
        <time>2019-05-14T01:56:39.285Z</time>
      </trkpt>
      <trkpt lat="43.32049" lon="3.53569">
        <ele>2</ele>
        <time>2019-05-14T01:56:40.775Z</time>
      </trkpt>
      <trkpt lat="43.3205" lon="3.53585">
        <ele>2</ele>
        <time>2019-05-14T01:56:43.823Z</time>
      </trkpt>
      <trkpt lat="43.32051" lon="3.5359">
        <ele>2</ele>
        <time>2019-05-14T01:56:44.638Z</time>
      </trkpt>
      <trkpt lat="43.3205" lon="3.53596">
        <ele>2</ele>
        <time>2019-05-14T01:56:45.878Z</time>
      </trkpt>
      <trkpt lat="43.32061" lon="3.53621">
        <ele>2</ele>
        <time>2019-05-14T01:56:50.952Z</time>
      </trkpt>
      <trkpt lat="43.32063" lon="3.53627">
        <ele>2</ele>
        <time>2019-05-14T01:56:52.413Z</time>
      </trkpt>
      <trkpt lat="43.32069" lon="3.53634">
        <ele>2</ele>
        <time>2019-05-14T01:56:54.282Z</time>
      </trkpt>
      <trkpt lat="43.32102" lon="3.53689">
        <ele>2</ele>
        <time>2019-05-14T01:57:07.321Z</time>
      </trkpt>
      <trkpt lat="43.32104" lon="3.53695">
        <ele>2</ele>
        <time>2019-05-14T01:57:08.603Z</time>
      </trkpt>
      <trkpt lat="43.32111" lon="3.53715">
        <ele>2</ele>
        <time>2019-05-14T01:57:12.721Z</time>
      </trkpt>
      <trkpt lat="43.32121" lon="3.53776">
        <ele>2</ele>
        <time>2019-05-14T01:57:24.162Z</time>
      </trkpt>
      <trkpt lat="43.32115" lon="3.53838">
        <ele>2</ele>
        <time>2019-05-14T01:57:34.979Z</time>
      </trkpt>
      <trkpt lat="43.32045" lon="3.53947">
        <ele>3</ele>
        <time>2019-05-14T01:57:58.657Z</time>
      </trkpt>
      <trkpt lat="43.32037" lon="3.53959">
        <ele>3</ele>
        <time>2019-05-14T01:58:01.380Z</time>
      </trkpt>
      <trkpt lat="43.32015" lon="3.53991">
        <ele>4</ele>
        <time>2019-05-14T01:58:08.292Z</time>
      </trkpt>
      <trkpt lat="43.32006" lon="3.54007">
        <ele>4</ele>
        <time>2019-05-14T01:58:11.479Z</time>
      </trkpt>
      <trkpt lat="43.31976" lon="3.54093">
        <ele>2</ele>
        <time>2019-05-14T01:58:26.118Z</time>
      </trkpt>
      <trkpt lat="43.31951" lon="3.54231">
        <ele>1</ele>
        <time>2019-05-14T01:58:48.298Z</time>
      </trkpt>
      <trkpt lat="43.31945" lon="3.54253">
        <ele>1</ele>
        <time>2019-05-14T01:58:52.109Z</time>
      </trkpt>
      <trkpt lat="43.31933" lon="3.54309">
        <ele>1</ele>
        <time>2019-05-14T01:59:02.238Z</time>
      </trkpt>
      <trkpt lat="43.31932" lon="3.54478">
        <ele>1</ele>
        <time>2019-05-14T01:59:32.145Z</time>
      </trkpt>
      <trkpt lat="43.31931" lon="3.54506">
        <ele>1</ele>
        <time>2019-05-14T01:59:37.312Z</time>
      </trkpt>
      <trkpt lat="43.31944" lon="3.54549">
        <ele>1</ele>
        <time>2019-05-14T01:59:45.899Z</time>
      </trkpt>
      <trkpt lat="43.31942" lon="3.54559">
        <ele>1</ele>
        <time>2019-05-14T01:59:47.849Z</time>
      </trkpt>
      <trkpt lat="43.31938" lon="3.54571">
        <ele>2</ele>
        <time>2019-05-14T01:59:50.286Z</time>
      </trkpt>
      <trkpt lat="43.31939" lon="3.54573">
        <ele>2</ele>
        <time>2019-05-14T01:59:50.829Z</time>
      </trkpt>
      <trkpt lat="43.3194" lon="3.54577">
        <ele>2</ele>
        <time>2019-05-14T01:59:51.567Z</time>
      </trkpt>
      <trkpt lat="43.31945" lon="3.5459">
        <ele>2</ele>
        <time>2019-05-14T01:59:54.321Z</time>
      </trkpt>
      <trkpt lat="43.31947" lon="3.54595">
        <ele>2</ele>
        <time>2019-05-14T01:59:55.318Z</time>
      </trkpt>
      <trkpt lat="43.31944" lon="3.54599">
        <ele>2</ele>
        <time>2019-05-14T01:59:56.391Z</time>
      </trkpt>
      <trkpt lat="43.31933" lon="3.5465">
        <ele>2</ele>
        <time>2019-05-14T02:00:06.345Z</time>
      </trkpt>
      <trkpt lat="43.31931" lon="3.54651">
        <ele>2</ele>
        <time>2019-05-14T02:00:06.879Z</time>
      </trkpt>
      <trkpt lat="43.31923" lon="3.54655">
        <ele>2</ele>
        <time>2019-05-14T02:00:09.006Z</time>
      </trkpt>
      <trkpt lat="43.31919" lon="3.54657">
        <ele>2</ele>
        <time>2019-05-14T02:00:10.065Z</time>
      </trkpt>
      <trkpt lat="43.31917" lon="3.54658">
        <ele>2</ele>
        <time>2019-05-14T02:00:10.530Z</time>
      </trkpt>
      <trkpt lat="43.3197" lon="3.54816">
        <ele>3</ele>
        <time>2019-05-14T02:00:41.367Z</time>
      </trkpt>
      <trkpt lat="43.31971" lon="3.54822">
        <ele>3</ele>
        <time>2019-05-14T02:00:42.307Z</time>
      </trkpt>
      <trkpt lat="43.32009" lon="3.54945">
        <ele>2</ele>
        <time>2019-05-14T02:01:05.176Z</time>
      </trkpt>
      <trkpt lat="43.32015" lon="3.54965">
        <ele>2</ele>
        <time>2019-05-14T02:01:08.660Z</time>
      </trkpt>
      <trkpt lat="43.32031" lon="3.55021">
        <ele>2</ele>
        <time>2019-05-14T02:01:18.121Z</time>
      </trkpt>
      <trkpt lat="43.32034" lon="3.55029">
        <ele>2</ele>
        <time>2019-05-14T02:01:19.585Z</time>
      </trkpt>
      <trkpt lat="43.3208" lon="3.55179">
        <ele>2</ele>
        <time>2019-05-14T02:01:44.868Z</time>
      </trkpt>
      <trkpt lat="43.32082" lon="3.55185">
        <ele>2</ele>
        <time>2019-05-14T02:01:45.858Z</time>
      </trkpt>
      <trkpt lat="43.32087" lon="3.55195">
        <ele>1</ele>
        <time>2019-05-14T02:01:47.865Z</time>
      </trkpt>
      <trkpt lat="43.32102" lon="3.55243">
        <ele>1</ele>
        <time>2019-05-14T02:01:56.229Z</time>
      </trkpt>
      <trkpt lat="43.32108" lon="3.55263">
        <ele>1</ele>
        <time>2019-05-14T02:01:59.720Z</time>
      </trkpt>
      <trkpt lat="43.32113" lon="3.55279">
        <ele>1</ele>
        <time>2019-05-14T02:02:02.621Z</time>
      </trkpt>
      <trkpt lat="43.32165" lon="3.55424">
        <ele>2</ele>
        <time>2019-05-14T02:02:30.359Z</time>
      </trkpt>
      <trkpt lat="43.32207" lon="3.55506">
        <ele>2</ele>
        <time>2019-05-14T02:02:49.066Z</time>
      </trkpt>
      <trkpt lat="43.32211" lon="3.55514">
        <ele>2</ele>
        <time>2019-05-14T02:02:51.000Z</time>
      </trkpt>
      <trkpt lat="43.3225" lon="3.55589">
        <ele>2</ele>
        <time>2019-05-14T02:03:07.587Z</time>
      </trkpt>
      <trkpt lat="43.32318" lon="3.55707">
        <ele>3</ele>
        <time>2019-05-14T02:03:33.769Z</time>
      </trkpt>
      <trkpt lat="43.32381" lon="3.55821">
        <ele>2</ele>
        <time>2019-05-14T02:03:59.104Z</time>
      </trkpt>
      <trkpt lat="43.324" lon="3.55858">
        <ele>2</ele>
        <time>2019-05-14T02:04:07.549Z</time>
      </trkpt>
      <trkpt lat="43.32414" lon="3.55883">
        <ele>2</ele>
        <time>2019-05-14T02:04:12.629Z</time>
      </trkpt>
      <trkpt lat="43.32418" lon="3.5589">
        <ele>2</ele>
        <time>2019-05-14T02:04:14.629Z</time>
      </trkpt>
      <trkpt lat="43.32466" lon="3.55984">
        <ele>3</ele>
        <time>2019-05-14T02:04:35.140Z</time>
      </trkpt>
      <trkpt lat="43.32472" lon="3.56012">
        <ele>3</ele>
        <time>2019-05-14T02:04:40.204Z</time>
      </trkpt>
      <trkpt lat="43.32475" lon="3.56016">
        <ele>3</ele>
        <time>2019-05-14T02:04:41.624Z</time>
      </trkpt>
      <trkpt lat="43.32479" lon="3.56024">
        <ele>3</ele>
        <time>2019-05-14T02:04:43.263Z</time>
      </trkpt>
      <trkpt lat="43.32481" lon="3.56028">
        <ele>3</ele>
        <time>2019-05-14T02:04:43.910Z</time>
      </trkpt>
      <trkpt lat="43.32494" lon="3.56032">
        <ele>3</ele>
        <time>2019-05-14T02:04:47.091Z</time>
      </trkpt>
      <trkpt lat="43.32568" lon="3.56159">
        <ele>4</ele>
        <time>2019-05-14T02:05:13.357Z</time>
      </trkpt>
      <trkpt lat="43.32602" lon="3.56232">
        <ele>2</ele>
        <time>2019-05-14T02:05:26.442Z</time>
      </trkpt>
      <trkpt lat="43.32603" lon="3.56252">
        <ele>2</ele>
        <time>2019-05-14T02:05:29.687Z</time>
      </trkpt>
      <trkpt lat="43.32605" lon="3.56258">
        <ele>2</ele>
        <time>2019-05-14T02:05:30.536Z</time>
      </trkpt>
      <trkpt lat="43.32612" lon="3.56258">
        <ele>2</ele>
        <time>2019-05-14T02:05:31.942Z</time>
      </trkpt>
      <trkpt lat="43.32637" lon="3.56327">
        <ele>1</ele>
        <time>2019-05-14T02:05:43.787Z</time>
      </trkpt>
      <trkpt lat="43.32753" lon="3.56616">
        <ele>3</ele>
        <time>2019-05-14T02:06:34.642Z</time>
      </trkpt>
      <trkpt lat="43.32875" lon="3.5682">
        <ele>3</ele>
        <time>2019-05-14T02:07:17.357Z</time>
      </trkpt>
      <trkpt lat="43.33435" lon="3.57479">
        <ele>3</ele>
        <time>2019-05-14T02:10:17.919Z</time>
      </trkpt>
      <trkpt lat="43.33481" lon="3.57508">
        <ele>3</ele>
        <time>2019-05-14T02:10:29.342Z</time>
      </trkpt>
      <trkpt lat="43.33528" lon="3.57452">
        <ele>2</ele>
        <time>2019-05-14T02:10:42.813Z</time>
      </trkpt>
      <trkpt lat="43.33651" lon="3.57615">
        <ele>1</ele>
        <time>2019-05-14T02:11:19.824Z</time>
      </trkpt>
      <trkpt lat="43.33733" lon="3.57721">
        <ele>2</ele>
        <time>2019-05-14T02:11:45.155Z</time>
      </trkpt>
      <trkpt lat="43.33742" lon="3.57739">
        <ele>2</ele>
        <time>2019-05-14T02:11:48.672Z</time>
      </trkpt>
      <trkpt lat="43.33734" lon="3.57753">
        <ele>2</ele>
        <time>2019-05-14T02:11:51.713Z</time>
      </trkpt>
      <trkpt lat="43.33738" lon="3.57759">
        <ele>1</ele>
        <time>2019-05-14T02:11:53.378Z</time>
      </trkpt>
      <trkpt lat="43.33711" lon="3.57797">
        <ele>2</ele>
        <time>2019-05-14T02:12:02.084Z</time>
      </trkpt>
      <trkpt lat="43.33706" lon="3.57816">
        <ele>2</ele>
        <time>2019-05-14T02:12:05.226Z</time>
      </trkpt>
      <trkpt lat="43.33758" lon="3.5788">
        <ele>1</ele>
        <time>2019-05-14T02:12:20.404Z</time>
      </trkpt>
      <trkpt lat="43.34735" lon="3.5907">
        <ele>2</ele>
        <time>2019-05-14T02:17:08.859Z</time>
      </trkpt>
      <trkpt lat="43.34738" lon="3.59071">
        <ele>2</ele>
        <time>2019-05-14T02:17:09.645Z</time>
      </trkpt>
      <trkpt lat="43.34742" lon="3.59071">
        <ele>2</ele>
        <time>2019-05-14T02:17:10.848Z</time>
      </trkpt>
      <trkpt lat="43.3478" lon="3.59032">
        <ele>2</ele>
        <time>2019-05-14T02:17:21.971Z</time>
      </trkpt>
      <trkpt lat="43.34838" lon="3.59069">
        <ele>1</ele>
        <time>2019-05-14T02:17:36.894Z</time>
      </trkpt>
      <trkpt lat="43.34947" lon="3.59241">
        <ele>2</ele>
        <time>2019-05-14T02:18:14.311Z</time>
      </trkpt>
      <trkpt lat="43.34984" lon="3.59268">
        <ele>2</ele>
        <time>2019-05-14T02:18:23.369Z</time>
      </trkpt>
      <trkpt lat="43.35108" lon="3.59436">
        <ele>2</ele>
        <time>2019-05-14T02:19:01.315Z</time>
      </trkpt>
      <trkpt lat="43.3514" lon="3.5946">
        <ele>1</ele>
        <time>2019-05-14T02:19:09.586Z</time>
      </trkpt>
      <trkpt lat="43.35313" lon="3.59748">
        <ele>2</ele>
        <time>2019-05-14T02:20:12.310Z</time>
      </trkpt>
      <trkpt lat="43.35364" lon="3.59793">
        <ele>2</ele>
        <time>2019-05-14T02:20:26.184Z</time>
      </trkpt>
      <trkpt lat="43.35484" lon="3.59982">
        <ele>2</ele>
        <time>2019-05-14T02:21:06.413Z</time>
      </trkpt>
      <trkpt lat="43.35525" lon="3.59999">
        <ele>1</ele>
        <time>2019-05-14T02:21:15.649Z</time>
      </trkpt>
      <trkpt lat="43.35604" lon="3.60119">
        <ele>2</ele>
        <time>2019-05-14T02:21:40.523Z</time>
      </trkpt>
      <trkpt lat="43.35629" lon="3.60141">
        <ele>2</ele>
        <time>2019-05-14T02:21:46.739Z</time>
      </trkpt>
      <trkpt lat="43.3577" lon="3.60361">
        <ele>2</ele>
        <time>2019-05-14T02:22:31.684Z</time>
      </trkpt>
      <trkpt lat="43.35819" lon="3.60386">
        <ele>1</ele>
        <time>2019-05-14T02:22:42.907Z</time>
      </trkpt>
      <trkpt lat="43.3602" lon="3.60712">
        <ele>2</ele>
        <time>2019-05-14T02:23:52.426Z</time>
      </trkpt>
      <trkpt lat="43.36034" lon="3.60723">
        <ele>2</ele>
        <time>2019-05-14T02:23:56.030Z</time>
      </trkpt>
      <trkpt lat="43.36068" lon="3.60704">
        <ele>2</ele>
        <time>2019-05-14T02:24:04.263Z</time>
      </trkpt>
      <trkpt lat="43.36087" lon="3.6071">
        <ele>2</ele>
        <time>2019-05-14T02:24:08.674Z</time>
      </trkpt>
      <trkpt lat="43.36493" lon="3.61371">
        <ele>2</ele>
        <time>2019-05-14T02:26:31.201Z</time>
      </trkpt>
      <trkpt lat="43.36503" lon="3.61389">
        <ele>2</ele>
        <time>2019-05-14T02:26:34.948Z</time>
      </trkpt>
      <trkpt lat="43.36532" lon="3.6144">
        <ele>2</ele>
        <time>2019-05-14T02:26:45.503Z</time>
      </trkpt>
      <trkpt lat="43.3655" lon="3.61469">
        <ele>2</ele>
        <time>2019-05-14T02:26:51.808Z</time>
      </trkpt>
      <trkpt lat="43.36561" lon="3.61483">
        <ele>1</ele>
        <time>2019-05-14T02:26:55.111Z</time>
      </trkpt>
      <trkpt lat="43.36586" lon="3.61523">
        <ele>1</ele>
        <time>2019-05-14T02:27:03.863Z</time>
      </trkpt>
      <trkpt lat="43.36601" lon="3.61547">
        <ele>1</ele>
        <time>2019-05-14T02:27:09.228Z</time>
      </trkpt>
      <trkpt lat="43.36614" lon="3.61574">
        <ele>1</ele>
        <time>2019-05-14T02:27:14.482Z</time>
      </trkpt>
      <trkpt lat="43.36623" lon="3.61587">
        <ele>2</ele>
        <time>2019-05-14T02:27:17.571Z</time>
      </trkpt>
      <trkpt lat="43.36635" lon="3.61601">
        <ele>2</ele>
        <time>2019-05-14T02:27:21.051Z</time>
      </trkpt>
      <trkpt lat="43.36658" lon="3.61623">
        <ele>2</ele>
        <time>2019-05-14T02:27:27.208Z</time>
      </trkpt>
      <trkpt lat="43.36676" lon="3.61654">
        <ele>2</ele>
        <time>2019-05-14T02:27:33.662Z</time>
      </trkpt>
      <trkpt lat="43.36729" lon="3.61729">
        <ele>2</ele>
        <time>2019-05-14T02:27:50.550Z</time>
      </trkpt>
      <trkpt lat="43.36781" lon="3.618">
        <ele>1</ele>
        <time>2019-05-14T02:28:06.831Z</time>
      </trkpt>
      <trkpt lat="43.36807" lon="3.61838">
        <ele>1</ele>
        <time>2019-05-14T02:28:14.813Z</time>
      </trkpt>
      <trkpt lat="43.36836" lon="3.61872">
        <ele>1</ele>
        <time>2019-05-14T02:28:22.690Z</time>
      </trkpt>
      <trkpt lat="43.36847" lon="3.61885">
        <ele>1</ele>
        <time>2019-05-14T02:28:25.911Z</time>
      </trkpt>
      <trkpt lat="43.36885" lon="3.61933">
        <ele>2</ele>
        <time>2019-05-14T02:28:36.505Z</time>
      </trkpt>
      <trkpt lat="43.36911" lon="3.61974">
        <ele>2</ele>
        <time>2019-05-14T02:28:44.706Z</time>
      </trkpt>
      <trkpt lat="43.36961" lon="3.62048">
        <ele>1</ele>
        <time>2019-05-14T02:29:00.463Z</time>
      </trkpt>
      <trkpt lat="43.36981" lon="3.62073">
        <ele>1</ele>
        <time>2019-05-14T02:29:06.223Z</time>
      </trkpt>
      <trkpt lat="43.3709" lon="3.62228">
        <ele>2</ele>
        <time>2019-05-14T02:29:40.652Z</time>
      </trkpt>
      <trkpt lat="43.37214" lon="3.62405">
        <ele>1</ele>
        <time>2019-05-14T02:30:20.365Z</time>
      </trkpt>
      <trkpt lat="43.37338" lon="3.62585">
        <ele>2</ele>
        <time>2019-05-14T02:31:00.607Z</time>
      </trkpt>
      <trkpt lat="43.37459" lon="3.62763">
        <ele>2</ele>
        <time>2019-05-14T02:31:39.710Z</time>
      </trkpt>
      <trkpt lat="43.37513" lon="3.62834">
        <ele>2</ele>
        <time>2019-05-14T02:31:56.121Z</time>
      </trkpt>
      <trkpt lat="43.37558" lon="3.62897">
        <ele>1</ele>
        <time>2019-05-14T02:32:10.269Z</time>
      </trkpt>
      <trkpt lat="43.37587" lon="3.62944">
        <ele>1</ele>
        <time>2019-05-14T02:32:20.415Z</time>
      </trkpt>
      <trkpt lat="43.37675" lon="3.63084">
        <ele>1</ele>
        <time>2019-05-14T02:32:51.415Z</time>
      </trkpt>
      <trkpt lat="43.37685" lon="3.63099">
        <ele>2</ele>
        <time>2019-05-14T02:32:54.855Z</time>
      </trkpt>
      <trkpt lat="43.37704" lon="3.63129">
        <ele>2</ele>
        <time>2019-05-14T02:33:01.669Z</time>
      </trkpt>
      <trkpt lat="43.37746" lon="3.63194">
        <ele>3</ele>
        <time>2019-05-14T02:33:16.003Z</time>
      </trkpt>
      <trkpt lat="43.3779" lon="3.63262">
        <ele>2</ele>
        <time>2019-05-14T02:33:30.905Z</time>
      </trkpt>
      <trkpt lat="43.37819" lon="3.63304">
        <ele>1</ele>
        <time>2019-05-14T02:33:40.574Z</time>
      </trkpt>
      <trkpt lat="43.37821" lon="3.63308">
        <ele>1</ele>
        <time>2019-05-14T02:33:41.259Z</time>
      </trkpt>
      <trkpt lat="43.37889" lon="3.63415">
        <ele>3</ele>
        <time>2019-05-14T02:34:03.806Z</time>
      </trkpt>
      <trkpt lat="43.37896" lon="3.63426">
        <ele>3</ele>
        <time>2019-05-14T02:34:05.919Z</time>
      </trkpt>
      <trkpt lat="43.37936" lon="3.63491">
        <ele>2</ele>
        <time>2019-05-14T02:34:19.213Z</time>
      </trkpt>
      <trkpt lat="43.37981" lon="3.63563">
        <ele>1</ele>
        <time>2019-05-14T02:34:34.861Z</time>
      </trkpt>
      <trkpt lat="43.38028" lon="3.63638">
        <ele>2</ele>
        <time>2019-05-14T02:34:50.711Z</time>
      </trkpt>
      <trkpt lat="43.38076" lon="3.63715">
        <ele>2</ele>
        <time>2019-05-14T02:35:06.923Z</time>
      </trkpt>
      <trkpt lat="43.38119" lon="3.63784">
        <ele>1</ele>
        <time>2019-05-14T02:35:21.701Z</time>
      </trkpt>
      <trkpt lat="43.38171" lon="3.63867">
        <ele>1</ele>
        <time>2019-05-14T02:35:39.896Z</time>
      </trkpt>
      <trkpt lat="43.38218" lon="3.63943">
        <ele>1</ele>
        <time>2019-05-14T02:35:56.626Z</time>
      </trkpt>
      <trkpt lat="43.38265" lon="3.64018">
        <ele>2</ele>
        <time>2019-05-14T02:36:13.364Z</time>
      </trkpt>
      <trkpt lat="43.3831" lon="3.64091">
        <ele>2</ele>
        <time>2019-05-14T02:36:28.939Z</time>
      </trkpt>
      <trkpt lat="43.38356" lon="3.64166">
        <ele>3</ele>
        <time>2019-05-14T02:36:44.361Z</time>
      </trkpt>
      <trkpt lat="43.38404" lon="3.64241">
        <ele>3</ele>
        <time>2019-05-14T02:36:59.618Z</time>
      </trkpt>
      <trkpt lat="43.38451" lon="3.64316">
        <ele>3</ele>
        <time>2019-05-14T02:37:15.151Z</time>
      </trkpt>
      <trkpt lat="43.38497" lon="3.64391">
        <ele>0.428035</ele>
        <time>2019-05-14T02:37:30.765Z</time>
      </trkpt>
      <trkpt lat="43.38545" lon="3.64468">
        <ele>1</ele>
        <time>2019-05-14T02:37:48.300Z</time>
      </trkpt>
      <trkpt lat="43.38545" lon="3.64468">
        <ele>1</ele>
        <time>2019-05-14T02:37:48.304Z</time>
      </trkpt>
      <trkpt lat="43.38545" lon="3.64468">
        <ele>1</ele>
        <time>2019-05-14T02:37:48.328Z</time>
      </trkpt>
      <trkpt lat="43.38591" lon="3.6454">
        <ele>1</ele>
        <time>2019-05-14T02:38:05.534Z</time>
      </trkpt>
      <trkpt lat="43.38638" lon="3.64615">
        <ele>1</ele>
        <time>2019-05-14T02:38:22.696Z</time>
      </trkpt>
      <trkpt lat="43.38685" lon="3.6469">
        <ele>2</ele>
        <time>2019-05-14T02:38:38.939Z</time>
      </trkpt>
      <trkpt lat="43.38727" lon="3.6475">
        <ele>2</ele>
        <time>2019-05-14T02:38:52.055Z</time>
      </trkpt>
      <trkpt lat="43.38745" lon="3.64775">
        <ele>2</ele>
        <time>2019-05-14T02:38:57.152Z</time>
      </trkpt>
      <trkpt lat="43.38786" lon="3.64826">
        <ele>1</ele>
        <time>2019-05-14T02:39:08.233Z</time>
      </trkpt>
      <trkpt lat="43.38791" lon="3.64834">
        <ele>1</ele>
        <time>2019-05-14T02:39:09.840Z</time>
      </trkpt>
      <trkpt lat="43.38816" lon="3.64883">
        <ele>1</ele>
        <time>2019-05-14T02:39:18.859Z</time>
      </trkpt>
      <trkpt lat="43.38864" lon="3.64969">
        <ele>0.05593</ele>
        <time>2019-05-14T02:39:35.186Z</time>
      </trkpt>
      <trkpt lat="43.38872" lon="3.64983">
        <ele>0.024229</ele>
        <time>2019-05-14T02:39:37.958Z</time>
      </trkpt>
      <trkpt lat="43.38895" lon="3.65025">
        <ele>1</ele>
        <time>2019-05-14T02:39:45.861Z</time>
      </trkpt>
      <trkpt lat="43.3894" lon="3.65109">
        <ele>1</ele>
        <time>2019-05-14T02:40:02.376Z</time>
      </trkpt>
      <trkpt lat="43.38959" lon="3.65145">
        <ele>2</ele>
        <time>2019-05-14T02:40:09.797Z</time>
      </trkpt>
      <trkpt lat="43.38978" lon="3.65181">
        <ele>3</ele>
        <time>2019-05-14T02:40:17.215Z</time>
      </trkpt>
      <trkpt lat="43.38998" lon="3.65218">
        <ele>2.9</ele>
        <time>2019-05-14T02:40:29.821Z</time>
      </trkpt>
      <trkpt lat="43.38999" lon="3.6522">
        <ele>2.9</ele>
        <time>2019-05-14T02:40:30.222Z</time>
      </trkpt>
      <trkpt lat="43.39004" lon="3.65231">
        <ele>3</ele>
        <time>2019-05-14T02:40:34.038Z</time>
      </trkpt>
      <trkpt lat="43.39053" lon="3.65353">
        <ele>2.9</ele>
        <time>2019-05-14T02:41:12.083Z</time>
      </trkpt>
      <trkpt lat="43.39096" lon="3.65462">
        <ele>1</ele>
        <time>2019-05-14T02:41:44.585Z</time>
      </trkpt>
      <trkpt lat="43.39138" lon="3.65567">
        <ele>1</ele>
        <time>2019-05-14T02:42:16.013Z</time>
      </trkpt>
      <trkpt lat="43.39178" lon="3.65668">
        <ele>2.6</ele>
        <time>2019-05-14T02:42:47.075Z</time>
      </trkpt>
      <trkpt lat="43.39204" lon="3.65736">
        <ele>2.7</ele>
        <time>2019-05-14T02:43:08.539Z</time>
      </trkpt>
      <trkpt lat="43.39227" lon="3.65795">
        <ele>1</ele>
        <time>2019-05-14T02:43:28.247Z</time>
      </trkpt>
      <trkpt lat="43.39269" lon="3.659">
        <ele>1</ele>
        <time>2019-05-14T02:44:03.138Z</time>
      </trkpt>
      <trkpt lat="43.39279" lon="3.65926">
        <ele>1</ele>
        <time>2019-05-14T02:44:11.706Z</time>
      </trkpt>
      <trkpt lat="43.39327" lon="3.66048">
        <ele>1</ele>
        <time>2019-05-14T02:44:49.690Z</time>
      </trkpt>
      <trkpt lat="43.39328" lon="3.66059">
        <ele>1</ele>
        <time>2019-05-14T02:44:52.396Z</time>
      </trkpt>
      <trkpt lat="43.39329" lon="3.66143">
        <ele>2</ele>
        <time>2019-05-14T02:45:13.794Z</time>
      </trkpt>
      <trkpt lat="43.39329" lon="3.66148">
        <ele>2</ele>
        <time>2019-05-14T02:45:15.035Z</time>
      </trkpt>
      <trkpt lat="43.39329" lon="3.66157">
        <ele>2</ele>
        <time>2019-05-14T02:45:17.215Z</time>
      </trkpt>
      <trkpt lat="43.39318" lon="3.66167">
        <ele>2</ele>
        <time>2019-05-14T02:45:20.007Z</time>
      </trkpt>
      <trkpt lat="43.3931" lon="3.66179">
        <ele>1</ele>
        <time>2019-05-14T02:45:22.587Z</time>
      </trkpt>
      <trkpt lat="43.39309" lon="3.66191">
        <ele>1</ele>
        <time>2019-05-14T02:45:24.372Z</time>
      </trkpt>
      <trkpt lat="43.39311" lon="3.66202">
        <ele>1</ele>
        <time>2019-05-14T02:45:26.138Z</time>
      </trkpt>
      <trkpt lat="43.39331" lon="3.66255">
        <ele>1</ele>
        <time>2019-05-14T02:45:35.579Z</time>
      </trkpt>
      <trkpt lat="43.39341" lon="3.66284">
        <ele>2</ele>
        <time>2019-05-14T02:45:40.817Z</time>
      </trkpt>
      <trkpt lat="43.39354" lon="3.66322">
        <ele>2</ele>
        <time>2019-05-14T02:45:48.064Z</time>
      </trkpt>
      <trkpt lat="43.39363" lon="3.66351">
        <ele>5</ele>
        <time>2019-05-14T02:45:53.445Z</time>
      </trkpt>
      <trkpt lat="43.39369" lon="3.66371">
        <ele>5</ele>
        <time>2019-05-14T02:45:57.267Z</time>
      </trkpt>
      <trkpt lat="43.3937" lon="3.6638">
        <ele>5</ele>
        <time>2019-05-14T02:45:58.786Z</time>
      </trkpt>
      <trkpt lat="43.39376" lon="3.6643">
        <ele>6</ele>
        <time>2019-05-14T02:46:07.715Z</time>
      </trkpt>
      <trkpt lat="43.39384" lon="3.66491">
        <ele>5</ele>
        <time>2019-05-14T02:46:19.058Z</time>
      </trkpt>
      <trkpt lat="43.39385" lon="3.66505">
        <ele>5</ele>
        <time>2019-05-14T02:46:21.951Z</time>
      </trkpt>
      <trkpt lat="43.39387" lon="3.66517">
        <ele>5</ele>
        <time>2019-05-14T02:46:24.456Z</time>
      </trkpt>
      <trkpt lat="43.39389" lon="3.66531">
        <ele>5</ele>
        <time>2019-05-14T02:46:27.316Z</time>
      </trkpt>
      <trkpt lat="43.39394" lon="3.66581">
        <ele>5</ele>
        <time>2019-05-14T02:46:37.173Z</time>
      </trkpt>
      <trkpt lat="43.39397" lon="3.66599">
        <ele>4</ele>
        <time>2019-05-14T02:46:40.535Z</time>
      </trkpt>
      <trkpt lat="43.39402" lon="3.66644">
        <ele>3</ele>
        <time>2019-05-14T02:46:48.836Z</time>
      </trkpt>
      <trkpt lat="43.39407" lon="3.66675">
        <ele>2</ele>
        <time>2019-05-14T02:46:54.470Z</time>
      </trkpt>
      <trkpt lat="43.3941" lon="3.66705">
        <ele>2</ele>
        <time>2019-05-14T02:46:59.978Z</time>
      </trkpt>
      <trkpt lat="43.39412" lon="3.66715">
        <ele>3</ele>
        <time>2019-05-14T02:47:01.787Z</time>
      </trkpt>
      <trkpt lat="43.39419" lon="3.66782">
        <ele>5</ele>
        <time>2019-05-14T02:47:13.407Z</time>
      </trkpt>
      <trkpt lat="43.39424" lon="3.66837">
        <ele>6</ele>
        <time>2019-05-14T02:47:23.100Z</time>
      </trkpt>
      <trkpt lat="43.39425" lon="3.66848">
        <ele>6</ele>
        <time>2019-05-14T02:47:25.025Z</time>
      </trkpt>
      <trkpt lat="43.39429" lon="3.66915">
        <ele>7</ele>
        <time>2019-05-14T02:47:37.311Z</time>
      </trkpt>
      <trkpt lat="43.39431" lon="3.66945">
        <ele>7</ele>
        <time>2019-05-14T02:47:42.790Z</time>
      </trkpt>
      <trkpt lat="43.39431" lon="3.66955">
        <ele>7</ele>
        <time>2019-05-14T02:47:44.675Z</time>
      </trkpt>
      <trkpt lat="43.3943" lon="3.6696">
        <ele>7</ele>
        <time>2019-05-14T02:47:45.742Z</time>
      </trkpt>
      <trkpt lat="43.39428" lon="3.66977">
        <ele>7</ele>
        <time>2019-05-14T02:47:49.434Z</time>
      </trkpt>
      <trkpt lat="43.39424" lon="3.66996">
        <ele>6</ele>
        <time>2019-05-14T02:47:53.425Z</time>
      </trkpt>
      <trkpt lat="43.39419" lon="3.67016">
        <ele>7</ele>
        <time>2019-05-14T02:47:58.198Z</time>
      </trkpt>
      <trkpt lat="43.39398" lon="3.67093">
        <ele>8</ele>
        <time>2019-05-14T02:48:17.745Z</time>
      </trkpt>
      <trkpt lat="43.39396" lon="3.671">
        <ele>8</ele>
        <time>2019-05-14T02:48:19.832Z</time>
      </trkpt>
      <trkpt lat="43.39391" lon="3.67116">
        <ele>7</ele>
        <time>2019-05-14T02:48:24.476Z</time>
      </trkpt>
      <trkpt lat="43.39389" lon="3.67124">
        <ele>7</ele>
        <time>2019-05-14T02:48:26.671Z</time>
      </trkpt>
      <trkpt lat="43.39399" lon="3.67129">
        <ele>7</ele>
        <time>2019-05-14T02:48:30.511Z</time>
      </trkpt>
      <trkpt lat="43.39409" lon="3.67129">
        <ele>8</ele>
        <time>2019-05-14T02:48:34.415Z</time>
      </trkpt>
      <trkpt lat="43.39415" lon="3.67129">
        <ele>8</ele>
        <time>2019-05-14T02:48:37.043Z</time>
      </trkpt>
      <trkpt lat="43.39423" lon="3.67132">
        <ele>11</ele>
        <time>2019-05-14T02:48:39.959Z</time>
      </trkpt>
      <trkpt lat="43.39442" lon="3.67139">
        <ele>11</ele>
        <time>2019-05-14T02:48:47.005Z</time>
      </trkpt>
      <trkpt lat="43.39451" lon="3.67143">
        <ele>11</ele>
        <time>2019-05-14T02:48:50.720Z</time>
      </trkpt>
      <trkpt lat="43.39552" lon="3.6719">
        <ele>17</ele>
        <time>2019-05-14T02:49:31.117Z</time>
      </trkpt>
      <trkpt lat="43.39558" lon="3.67192">
        <ele>17</ele>
        <time>2019-05-14T02:49:33.119Z</time>
      </trkpt>
      <trkpt lat="43.39557" lon="3.67196">
        <ele>17</ele>
        <time>2019-05-14T02:49:34.334Z</time>
      </trkpt>
      <trkpt lat="43.39557" lon="3.67205">
        <ele>17</ele>
        <time>2019-05-14T02:49:36.833Z</time>
      </trkpt>
      <trkpt lat="43.3955" lon="3.6725">
        <ele>18</ele>
        <time>2019-05-14T02:49:49.476Z</time>
      </trkpt>
      <trkpt lat="43.39541" lon="3.67293">
        <ele>18</ele>
        <time>2019-05-14T02:50:01.192Z</time>
      </trkpt>
      <trkpt lat="43.39539" lon="3.67305">
        <ele>18</ele>
        <time>2019-05-14T02:50:04.043Z</time>
      </trkpt>
      <trkpt lat="43.39539" lon="3.67312">
        <ele>18</ele>
        <time>2019-05-14T02:50:05.890Z</time>
      </trkpt>
      <trkpt lat="43.39541" lon="3.67318">
        <ele>18</ele>
        <time>2019-05-14T02:50:07.397Z</time>
      </trkpt>
      <trkpt lat="43.39542" lon="3.67322">
        <ele>18</ele>
        <time>2019-05-14T02:50:09.171Z</time>
      </trkpt>
      <trkpt lat="43.39534" lon="3.67382">
        <ele>20</ele>
        <time>2019-05-14T02:50:23.173Z</time>
      </trkpt>
      <trkpt lat="43.39527" lon="3.67393">
        <ele>20</ele>
        <time>2019-05-14T02:50:26.418Z</time>
      </trkpt>
      <trkpt lat="43.39524" lon="3.67397">
        <ele>20</ele>
        <time>2019-05-14T02:50:27.659Z</time>
      </trkpt>
      <trkpt lat="43.39523" lon="3.67398">
        <ele>19</ele>
        <time>2019-05-14T02:50:27.949Z</time>
      </trkpt>
      <trkpt lat="43.39519" lon="3.67409">
        <ele>19</ele>
        <time>2019-05-14T02:50:30.922Z</time>
      </trkpt>
      <trkpt lat="43.39513" lon="3.67446">
        <ele>21</ele>
        <time>2019-05-14T02:50:39.154Z</time>
      </trkpt>
      <trkpt lat="43.39511" lon="3.67452">
        <ele>21</ele>
        <time>2019-05-14T02:50:40.851Z</time>
      </trkpt>
      <trkpt lat="43.39496" lon="3.67531">
        <ele>20</ele>
        <time>2019-05-14T02:50:59.828Z</time>
      </trkpt>
      <trkpt lat="43.39494" lon="3.67539">
        <ele>20</ele>
        <time>2019-05-14T02:51:01.465Z</time>
      </trkpt>
      <trkpt lat="43.39489" lon="3.67557">
        <ele>21</ele>
        <time>2019-05-14T02:51:05.334Z</time>
      </trkpt>
      <trkpt lat="43.39468" lon="3.6766">
        <ele>23</ele>
        <time>2019-05-14T02:51:23.675Z</time>
      </trkpt>
      <trkpt lat="43.39456" lon="3.67696">
        <ele>23</ele>
        <time>2019-05-14T02:51:29.982Z</time>
      </trkpt>
      <trkpt lat="43.39453" lon="3.67705">
        <ele>23</ele>
        <time>2019-05-14T02:51:31.340Z</time>
      </trkpt>
      <trkpt lat="43.39451" lon="3.67711">
        <ele>23</ele>
        <time>2019-05-14T02:51:32.270Z</time>
      </trkpt>
      <trkpt lat="43.39449" lon="3.67718">
        <ele>23</ele>
        <time>2019-05-14T02:51:33.469Z</time>
      </trkpt>
      <trkpt lat="43.39443" lon="3.67739">
        <ele>23</ele>
        <time>2019-05-14T02:51:37.062Z</time>
      </trkpt>
      <trkpt lat="43.39441" lon="3.67743">
        <ele>23</ele>
        <time>2019-05-14T02:51:37.650Z</time>
      </trkpt>
      <trkpt lat="43.3944" lon="3.67747">
        <ele>22</ele>
        <time>2019-05-14T02:51:38.182Z</time>
      </trkpt>
      <trkpt lat="43.39425" lon="3.67797">
        <ele>23</ele>
        <time>2019-05-14T02:51:45.224Z</time>
      </trkpt>
      <trkpt lat="43.39421" lon="3.67808">
        <ele>23</ele>
        <time>2019-05-14T02:51:46.855Z</time>
      </trkpt>
      <trkpt lat="43.3942" lon="3.67812">
        <ele>23</ele>
        <time>2019-05-14T02:51:47.385Z</time>
      </trkpt>
      <trkpt lat="43.39419" lon="3.67817">
        <ele>22</ele>
        <time>2019-05-14T02:51:48.040Z</time>
      </trkpt>
      <trkpt lat="43.39408" lon="3.67853">
        <ele>20</ele>
        <time>2019-05-14T02:51:52.634Z</time>
      </trkpt>
      <trkpt lat="43.39394" lon="3.67912">
        <ele>20</ele>
        <time>2019-05-14T02:52:00.068Z</time>
      </trkpt>
      <trkpt lat="43.39384" lon="3.67957">
        <ele>20</ele>
        <time>2019-05-14T02:52:05.736Z</time>
      </trkpt>
      <trkpt lat="43.39381" lon="3.67968">
        <ele>20</ele>
        <time>2019-05-14T02:52:07.034Z</time>
      </trkpt>
      <trkpt lat="43.3938" lon="3.67972">
        <ele>20</ele>
        <time>2019-05-14T02:52:07.619Z</time>
      </trkpt>
      <trkpt lat="43.39375" lon="3.67975">
        <ele>19</ele>
        <time>2019-05-14T02:52:08.545Z</time>
      </trkpt>
      <trkpt lat="43.39373" lon="3.6798">
        <ele>19</ele>
        <time>2019-05-14T02:52:09.207Z</time>
      </trkpt>
      <trkpt lat="43.39371" lon="3.67984">
        <ele>19</ele>
        <time>2019-05-14T02:52:09.731Z</time>
      </trkpt>
      <trkpt lat="43.39371" lon="3.67988">
        <ele>19</ele>
        <time>2019-05-14T02:52:10.261Z</time>
      </trkpt>
      <trkpt lat="43.39371" lon="3.67994">
        <ele>19</ele>
        <time>2019-05-14T02:52:10.982Z</time>
      </trkpt>
      <trkpt lat="43.39374" lon="3.68001">
        <ele>18</ele>
        <time>2019-05-14T02:52:12.023Z</time>
      </trkpt>
      <trkpt lat="43.39374" lon="3.68005">
        <ele>18</ele>
        <time>2019-05-14T02:52:12.458Z</time>
      </trkpt>
      <trkpt lat="43.39373" lon="3.68035">
        <ele>17</ele>
        <time>2019-05-14T02:52:16.029Z</time>
      </trkpt>
      <trkpt lat="43.39378" lon="3.68141">
        <ele>16</ele>
        <time>2019-05-14T02:52:29.376Z</time>
      </trkpt>
      <trkpt lat="43.3938" lon="3.68182">
        <ele>15</ele>
        <time>2019-05-14T02:52:34.723Z</time>
      </trkpt>
      <trkpt lat="43.39383" lon="3.68225">
        <ele>14</ele>
        <time>2019-05-14T02:52:41.254Z</time>
      </trkpt>
      <trkpt lat="43.3938" lon="3.68282">
        <ele>13</ele>
        <time>2019-05-14T02:52:51.481Z</time>
      </trkpt>
      <trkpt lat="43.39358" lon="3.68344">
        <ele>13</ele>
        <time>2019-05-14T02:53:03.962Z</time>
      </trkpt>
      <trkpt lat="43.39342" lon="3.68378">
        <ele>15</ele>
        <time>2019-05-14T02:53:10.827Z</time>
      </trkpt>
      <trkpt lat="43.3933" lon="3.68404">
        <ele>11</ele>
        <time>2019-05-14T02:53:16.330Z</time>
      </trkpt>
      <trkpt lat="43.39305" lon="3.68465">
        <ele>13</ele>
        <time>2019-05-14T02:53:27.418Z</time>
      </trkpt>
      <trkpt lat="43.39296" lon="3.6849">
        <ele>14</ele>
        <time>2019-05-14T02:53:31.853Z</time>
      </trkpt>
      <trkpt lat="43.39288" lon="3.68516">
        <ele>16</ele>
        <time>2019-05-14T02:53:36.050Z</time>
      </trkpt>
      <trkpt lat="43.39281" lon="3.68542">
        <ele>15</ele>
        <time>2019-05-14T02:53:40.449Z</time>
      </trkpt>
      <trkpt lat="43.3927" lon="3.68571">
        <ele>13</ele>
        <time>2019-05-14T02:53:45.101Z</time>
      </trkpt>
      <trkpt lat="43.39259" lon="3.68635">
        <ele>13</ele>
        <time>2019-05-14T02:53:54.432Z</time>
      </trkpt>
      <trkpt lat="43.3926" lon="3.68666">
        <ele>11</ele>
        <time>2019-05-14T02:53:58.668Z</time>
      </trkpt>
      <trkpt lat="43.3926" lon="3.68682">
        <ele>12</ele>
        <time>2019-05-14T02:54:01.043Z</time>
      </trkpt>
      <trkpt lat="43.3925" lon="3.68832">
        <ele>10</ele>
        <time>2019-05-14T02:54:23.416Z</time>
      </trkpt>
      <trkpt lat="43.3924" lon="3.68991">
        <ele>12</ele>
        <time>2019-05-14T02:54:48.863Z</time>
      </trkpt>
      <trkpt lat="43.3924" lon="3.69011">
        <ele>11</ele>
        <time>2019-05-14T02:54:52.006Z</time>
      </trkpt>
      <trkpt lat="43.39242" lon="3.69036">
        <ele>10</ele>
        <time>2019-05-14T02:54:55.836Z</time>
      </trkpt>
      <trkpt lat="43.39264" lon="3.69106">
        <ele>12</ele>
        <time>2019-05-14T02:55:07.360Z</time>
      </trkpt>
      <trkpt lat="43.39277" lon="3.69134">
        <ele>12</ele>
        <time>2019-05-14T02:55:12.194Z</time>
      </trkpt>
      <trkpt lat="43.39287" lon="3.69151">
        <ele>12</ele>
        <time>2019-05-14T02:55:15.176Z</time>
      </trkpt>
      <trkpt lat="43.39314" lon="3.69184">
        <ele>11</ele>
        <time>2019-05-14T02:55:21.947Z</time>
      </trkpt>
      <trkpt lat="43.39322" lon="3.69191">
        <ele>10</ele>
        <time>2019-05-14T02:55:23.559Z</time>
      </trkpt>
      <trkpt lat="43.39336" lon="3.69203">
        <ele>14</ele>
        <time>2019-05-14T02:55:26.730Z</time>
      </trkpt>
      <trkpt lat="43.39414" lon="3.69256">
        <ele>16</ele>
        <time>2019-05-14T02:55:40.891Z</time>
      </trkpt>
      <trkpt lat="43.39445" lon="3.69329">
        <ele>14</ele>
        <time>2019-05-14T02:55:51.468Z</time>
      </trkpt>
      <trkpt lat="43.39465" lon="3.69389">
        <ele>11</ele>
        <time>2019-05-14T02:56:00.661Z</time>
      </trkpt>
      <trkpt lat="43.39472" lon="3.69409">
        <ele>10</ele>
        <time>2019-05-14T02:56:03.659Z</time>
      </trkpt>
      <trkpt lat="43.39482" lon="3.69443">
        <ele>6</ele>
        <time>2019-05-14T02:56:09.236Z</time>
      </trkpt>
      <trkpt lat="43.39491" lon="3.69469">
        <ele>4</ele>
        <time>2019-05-14T02:56:13.112Z</time>
      </trkpt>
      <trkpt lat="43.39495" lon="3.69477">
        <ele>3</ele>
        <time>2019-05-14T02:56:14.816Z</time>
      </trkpt>
      <trkpt lat="43.39497" lon="3.69484">
        <ele>2</ele>
        <time>2019-05-14T02:56:16.207Z</time>
      </trkpt>
      <trkpt lat="43.39502" lon="3.69515">
        <ele>2</ele>
        <time>2019-05-14T02:56:20.331Z</time>
      </trkpt>
      <trkpt lat="43.39507" lon="3.69516">
        <ele>2</ele>
        <time>2019-05-14T02:56:21.802Z</time>
      </trkpt>
      <trkpt lat="43.39508" lon="3.69509">
        <ele>2</ele>
        <time>2019-05-14T02:56:22.866Z</time>
      </trkpt>
      <trkpt lat="43.39508" lon="3.69504">
        <ele>2</ele>
        <time>2019-05-14T02:56:23.860Z</time>
      </trkpt>
      <trkpt lat="43.39513" lon="3.69506">
        <ele>2</ele>
        <time>2019-05-14T02:56:24.787Z</time>
      </trkpt>
      <trkpt lat="43.39516" lon="3.69506">
        <ele>2</ele>
        <time>2019-05-14T02:56:25.292Z</time>
      </trkpt>
      <trkpt lat="43.39522" lon="3.6951">
        <ele>3</ele>
        <time>2019-05-14T02:56:26.726Z</time>
      </trkpt>
      <trkpt lat="43.39528" lon="3.69512">
        <ele>3</ele>
        <time>2019-05-14T02:56:27.899Z</time>
      </trkpt>
      <trkpt lat="43.39561" lon="3.69522">
        <ele>6</ele>
        <time>2019-05-14T02:56:36.426Z</time>
      </trkpt>
      <trkpt lat="43.39581" lon="3.69535">
        <ele>6</ele>
        <time>2019-05-14T02:56:43.529Z</time>
      </trkpt>
      <trkpt lat="43.39588" lon="3.6954">
        <ele>10</ele>
        <time>2019-05-14T02:56:45.488Z</time>
      </trkpt>
      <trkpt lat="43.39619" lon="3.69564">
        <ele>10</ele>
        <time>2019-05-14T02:56:56.024Z</time>
      </trkpt>
      <trkpt lat="43.39632" lon="3.69572">
        <ele>9</ele>
        <time>2019-05-14T02:57:00.072Z</time>
      </trkpt>
      <trkpt lat="43.39655" lon="3.69582">
        <ele>7</ele>
        <time>2019-05-14T02:57:06.015Z</time>
      </trkpt>
      <trkpt lat="43.39698" lon="3.696">
        <ele>6</ele>
        <time>2019-05-14T02:57:16.939Z</time>
      </trkpt>
      <trkpt lat="43.39717" lon="3.69608">
        <ele>7</ele>
        <time>2019-05-14T02:57:22.380Z</time>
      </trkpt>
      <trkpt lat="43.39732" lon="3.69613">
        <ele>7</ele>
        <time>2019-05-14T02:57:25.757Z</time>
      </trkpt>
      <trkpt lat="43.3974" lon="3.6962">
        <ele>7</ele>
        <time>2019-05-14T02:57:28.295Z</time>
      </trkpt>
      <trkpt lat="43.39761" lon="3.69633">
        <ele>6</ele>
        <time>2019-05-14T02:57:34.654Z</time>
      </trkpt>
      <trkpt lat="43.39785" lon="3.69669">
        <ele>3</ele>
        <time>2019-05-14T02:57:44.899Z</time>
      </trkpt>
      <trkpt lat="43.39795" lon="3.69673">
        <ele>3</ele>
        <time>2019-05-14T02:57:47.817Z</time>
      </trkpt>
      <trkpt lat="43.39821" lon="3.69687">
        <ele>4</ele>
        <time>2019-05-14T02:57:55.886Z</time>
      </trkpt>
      <trkpt lat="43.39837" lon="3.69689">
        <ele>4</ele>
        <time>2019-05-14T02:58:00.437Z</time>
      </trkpt>
      <trkpt lat="43.39848" lon="3.69687">
        <ele>4</ele>
        <time>2019-05-14T02:58:03.856Z</time>
      </trkpt>
      <trkpt lat="43.3987" lon="3.69683">
        <ele>4</ele>
        <time>2019-05-14T02:58:09.971Z</time>
      </trkpt>
      <trkpt lat="43.399" lon="3.69674">
        <ele>4</ele>
        <time>2019-05-14T02:58:18.643Z</time>
      </trkpt>
      <trkpt lat="43.39954" lon="3.69659">
        <ele>8</ele>
        <time>2019-05-14T02:58:33.879Z</time>
      </trkpt>
      <trkpt lat="43.39956" lon="3.69657">
        <ele>8</ele>
        <time>2019-05-14T02:58:34.353Z</time>
      </trkpt>
      <trkpt lat="43.39957" lon="3.69656">
        <ele>8</ele>
        <time>2019-05-14T02:58:34.834Z</time>
      </trkpt>
      <trkpt lat="43.39963" lon="3.69658">
        <ele>8</ele>
        <time>2019-05-14T02:58:36.309Z</time>
      </trkpt>
      <trkpt lat="43.39976" lon="3.69661">
        <ele>8</ele>
        <time>2019-05-14T02:58:39.492Z</time>
      </trkpt>
      <trkpt lat="43.39977" lon="3.69662">
        <ele>8</ele>
        <time>2019-05-14T02:58:39.936Z</time>
      </trkpt>
      <trkpt lat="43.3998" lon="3.69662">
        <ele>8</ele>
        <time>2019-05-14T02:58:40.884Z</time>
      </trkpt>
      <trkpt lat="43.40118" lon="3.69697">
        <ele>6</ele>
        <time>2019-05-14T02:59:15.430Z</time>
      </trkpt>
      <trkpt lat="43.40129" lon="3.69699">
        <ele>6</ele>
        <time>2019-05-14T02:59:18.457Z</time>
      </trkpt>
      <trkpt lat="43.40139" lon="3.69701">
        <ele>6</ele>
        <time>2019-05-14T02:59:20.692Z</time>
      </trkpt>
      <trkpt lat="43.4016" lon="3.69707">
        <ele>6</ele>
        <time>2019-05-14T02:59:25.014Z</time>
      </trkpt>
      <trkpt lat="43.40165" lon="3.69705">
        <ele>6</ele>
        <time>2019-05-14T02:59:26.102Z</time>
      </trkpt>
      <trkpt lat="43.40169" lon="3.69709">
        <ele>7</ele>
        <time>2019-05-14T02:59:27.179Z</time>
      </trkpt>
      <trkpt lat="43.40173" lon="3.69717">
        <ele>6</ele>
        <time>2019-05-14T02:59:28.691Z</time>
      </trkpt>
      <trkpt lat="43.40174" lon="3.69729">
        <ele>5</ele>
        <time>2019-05-14T02:59:30.187Z</time>
      </trkpt>
      <trkpt lat="43.40176" lon="3.6976">
        <ele>3</ele>
        <time>2019-05-14T02:59:34.821Z</time>
      </trkpt>
      <trkpt lat="43.40177" lon="3.69771">
        <ele>4</ele>
        <time>2019-05-14T02:59:36.474Z</time>
      </trkpt>
      <trkpt lat="43.40178" lon="3.69779">
        <ele>4</ele>
        <time>2019-05-14T02:59:37.347Z</time>
      </trkpt>
      <trkpt lat="43.40178" lon="3.69787">
        <ele>5</ele>
        <time>2019-05-14T02:59:38.408Z</time>
      </trkpt>
      <trkpt lat="43.40181" lon="3.69869">
        <ele>6</ele>
        <time>2019-05-14T02:59:50.319Z</time>
      </trkpt>
      <trkpt lat="43.40182" lon="3.69873">
        <ele>6</ele>
        <time>2019-05-14T02:59:50.704Z</time>
      </trkpt>
      <trkpt lat="43.40183" lon="3.69974">
        <ele>5</ele>
        <time>2019-05-14T03:00:05.214Z</time>
      </trkpt>
      <trkpt lat="43.40184" lon="3.69983">
        <ele>5</ele>
        <time>2019-05-14T03:00:06.345Z</time>
      </trkpt>
      <trkpt lat="43.4019" lon="3.69983">
        <ele>5</ele>
        <time>2019-05-14T03:00:07.420Z</time>
      </trkpt>
      <trkpt lat="43.40192" lon="3.69983">
        <ele>5</ele>
        <time>2019-05-14T03:00:08.150Z</time>
      </trkpt>
      <trkpt lat="43.40236" lon="3.69982">
        <ele>4</ele>
        <time>2019-05-14T03:00:15.893Z</time>
      </trkpt>
      <trkpt lat="43.40259" lon="3.69982">
        <ele>5</ele>
        <time>2019-05-14T03:00:19.673Z</time>
      </trkpt>
      <trkpt lat="43.40266" lon="3.69982">
        <ele>5</ele>
        <time>2019-05-14T03:00:21.223Z</time>
      </trkpt>
      <trkpt lat="43.40268" lon="3.69983">
        <ele>5</ele>
        <time>2019-05-14T03:00:21.874Z</time>
      </trkpt>
      <trkpt lat="43.40271" lon="3.69987">
        <ele>5</ele>
        <time>2019-05-14T03:00:22.549Z</time>
      </trkpt>
      <trkpt lat="43.40273" lon="3.69992">
        <ele>5</ele>
        <time>2019-05-14T03:00:23.395Z</time>
      </trkpt>
      <trkpt lat="43.40273" lon="3.70003">
        <ele>5</ele>
        <time>2019-05-14T03:00:24.958Z</time>
      </trkpt>
      <trkpt lat="43.40274" lon="3.70022">
        <ele>5</ele>
        <time>2019-05-14T03:00:27.473Z</time>
      </trkpt>
      <trkpt lat="43.40275" lon="3.70034">
        <ele>5</ele>
        <time>2019-05-14T03:00:29.677Z</time>
      </trkpt>
      <trkpt lat="43.40276" lon="3.70046">
        <ele>5</ele>
        <time>2019-05-14T03:00:31.561Z</time>
      </trkpt>
      <trkpt lat="43.40277" lon="3.70058">
        <ele>4</ele>
        <time>2019-05-14T03:00:33.448Z</time>
      </trkpt>
      <trkpt lat="43.40277" lon="3.70063">
        <ele>4</ele>
        <time>2019-05-14T03:00:34.080Z</time>
      </trkpt>
      <trkpt lat="43.40277" lon="3.70068">
        <ele>4</ele>
        <time>2019-05-14T03:00:34.885Z</time>
      </trkpt>
      <trkpt lat="43.40279" lon="3.70092">
        <ele>3</ele>
        <time>2019-05-14T03:00:40.097Z</time>
      </trkpt>
      <trkpt lat="43.4028" lon="3.70104">
        <ele>3</ele>
        <time>2019-05-14T03:00:42.266Z</time>
      </trkpt>
      <trkpt lat="43.40281" lon="3.70109">
        <ele>3</ele>
        <time>2019-05-14T03:00:43.098Z</time>
      </trkpt>
      <trkpt lat="43.40283" lon="3.70111">
        <ele>3</ele>
        <time>2019-05-14T03:00:43.747Z</time>
      </trkpt>
      <trkpt lat="43.40395" lon="3.70105">
        <ele>4</ele>
        <time>2019-05-14T03:01:10.260Z</time>
      </trkpt>
      <trkpt lat="43.40405" lon="3.70104">
        <ele>4</ele>
        <time>2019-05-14T03:01:13.366Z</time>
      </trkpt>
      <trkpt lat="43.40415" lon="3.70104">
        <ele>4</ele>
        <time>2019-05-14T03:01:15.407Z</time>
      </trkpt>
      <trkpt lat="43.40442" lon="3.70103">
        <ele>4</ele>
        <time>2019-05-14T03:01:23.403Z</time>
      </trkpt>
      <trkpt lat="43.40447" lon="3.70103">
        <ele>4</ele>
        <time>2019-05-14T03:01:24.781Z</time>
      </trkpt>
      <trkpt lat="43.40452" lon="3.70102">
        <ele>4</ele>
        <time>2019-05-14T03:01:25.994Z</time>
      </trkpt>
      <trkpt lat="43.40466" lon="3.70099">
        <ele>4</ele>
        <time>2019-05-14T03:01:29.658Z</time>
      </trkpt>
      <trkpt lat="43.40474" lon="3.70101">
        <ele>4</ele>
        <time>2019-05-14T03:01:32.557Z</time>
      </trkpt>
      <trkpt lat="43.40475" lon="3.70111">
        <ele>4</ele>
        <time>2019-05-14T03:01:34.591Z</time>
      </trkpt>
      <trkpt lat="43.40476" lon="3.70114">
        <ele>4</ele>
        <time>2019-05-14T03:01:35.139Z</time>
      </trkpt>
      <trkpt lat="43.40477" lon="3.70122">
        <ele>4</ele>
        <time>2019-05-14T03:01:36.498Z</time>
      </trkpt>
      <trkpt lat="43.40484" lon="3.70192">
        <ele>2</ele>
        <time>2019-05-14T03:01:49.801Z</time>
      </trkpt>
      <trkpt lat="43.40485" lon="3.70198">
        <ele>2</ele>
        <time>2019-05-14T03:01:51.380Z</time>
      </trkpt>
      <trkpt lat="43.40488" lon="3.70211">
        <ele>2</ele>
        <time>2019-05-14T03:01:53.559Z</time>
      </trkpt>
      <trkpt lat="43.40493" lon="3.70222">
        <ele>3</ele>
        <time>2019-05-14T03:01:55.628Z</time>
      </trkpt>
      <trkpt lat="43.40504" lon="3.70233">
        <ele>4</ele>
        <time>2019-05-14T03:01:58.716Z</time>
      </trkpt>
      <trkpt lat="43.40518" lon="3.70241">
        <ele>4</ele>
        <time>2019-05-14T03:02:02.042Z</time>
      </trkpt>
      <trkpt lat="43.40589" lon="3.7029">
        <ele>3</ele>
        <time>2019-05-14T03:02:19.705Z</time>
      </trkpt>
      <trkpt lat="43.406" lon="3.70297">
        <ele>3</ele>
        <time>2019-05-14T03:02:22.257Z</time>
      </trkpt>
      <trkpt lat="43.40631" lon="3.7032">
        <ele>2</ele>
        <time>2019-05-14T03:02:30.550Z</time>
      </trkpt>
      <trkpt lat="43.40628" lon="3.70318">
        <ele>2</ele>
        <time>2019-05-27T18:56:54.989Z</time>
      </trkpt>
      <trkpt lat="43.40628" lon="3.70318">
        <ele>2</ele>
        <time>2019-05-27T18:56:54.989Z</time>
      </trkpt>
      <trkpt lat="43.406" lon="3.70297">
        <ele>3</ele>
        <time>2019-05-27T18:57:01.987Z</time>
      </trkpt>
      <trkpt lat="43.40589" lon="3.7029">
        <ele>3</ele>
        <time>2019-05-27T18:57:04.542Z</time>
      </trkpt>
      <trkpt lat="43.40518" lon="3.70241">
        <ele>4</ele>
        <time>2019-05-27T18:57:22.891Z</time>
      </trkpt>
      <trkpt lat="43.40504" lon="3.70233">
        <ele>4</ele>
        <time>2019-05-27T18:57:26.792Z</time>
      </trkpt>
      <trkpt lat="43.40493" lon="3.70222">
        <ele>3</ele>
        <time>2019-05-27T18:57:30.452Z</time>
      </trkpt>
      <trkpt lat="43.40488" lon="3.70211">
        <ele>2</ele>
        <time>2019-05-27T18:57:33.255Z</time>
      </trkpt>
      <trkpt lat="43.40485" lon="3.70198">
        <ele>2</ele>
        <time>2019-05-27T18:57:35.816Z</time>
      </trkpt>
      <trkpt lat="43.40484" lon="3.70192">
        <ele>2</ele>
        <time>2019-05-27T18:57:37.179Z</time>
      </trkpt>
      <trkpt lat="43.40477" lon="3.70122">
        <ele>4</ele>
        <time>2019-05-27T18:57:52.534Z</time>
      </trkpt>
      <trkpt lat="43.40476" lon="3.70114">
        <ele>4</ele>
        <time>2019-05-27T18:57:54.705Z</time>
      </trkpt>
      <trkpt lat="43.40475" lon="3.70111">
        <ele>4</ele>
        <time>2019-05-27T18:57:55.196Z</time>
      </trkpt>
      <trkpt lat="43.40474" lon="3.70101">
        <ele>4</ele>
        <time>2019-05-27T18:57:57.281Z</time>
      </trkpt>
      <trkpt lat="43.4047" lon="3.7007">
        <ele>7</ele>
        <time>2019-05-27T18:58:03.919Z</time>
      </trkpt>
      <trkpt lat="43.4047" lon="3.70067">
        <ele>7</ele>
        <time>2019-05-27T18:58:04.827Z</time>
      </trkpt>
      <trkpt lat="43.40461" lon="3.6998">
        <ele>8</ele>
        <time>2019-05-27T18:58:22.498Z</time>
      </trkpt>
      <trkpt lat="43.40459" lon="3.6997">
        <ele>8</ele>
        <time>2019-05-27T18:58:25.032Z</time>
      </trkpt>
      <trkpt lat="43.40456" lon="3.69941">
        <ele>8</ele>
        <time>2019-05-27T18:58:30.948Z</time>
      </trkpt>
      <trkpt lat="43.40451" lon="3.69897">
        <ele>7</ele>
        <time>2019-05-27T18:58:40.295Z</time>
      </trkpt>
      <trkpt lat="43.40445" lon="3.69843">
        <ele>7</ele>
        <time>2019-05-27T18:58:50.946Z</time>
      </trkpt>
      <trkpt lat="43.40444" lon="3.6983">
        <ele>6</ele>
        <time>2019-05-27T18:58:53.266Z</time>
      </trkpt>
      <trkpt lat="43.40443" lon="3.69821">
        <ele>6</ele>
        <time>2019-05-27T18:58:54.998Z</time>
      </trkpt>
      <trkpt lat="43.40435" lon="3.6975">
        <ele>5</ele>
        <time>2019-05-27T18:59:07.427Z</time>
      </trkpt>
      <trkpt lat="43.4043" lon="3.69736">
        <ele>5</ele>
        <time>2019-05-27T18:59:09.689Z</time>
      </trkpt>
      <trkpt lat="43.40428" lon="3.69724">
        <ele>5</ele>
        <time>2019-05-27T18:59:11.382Z</time>
      </trkpt>
      <trkpt lat="43.40427" lon="3.69712">
        <ele>5</ele>
        <time>2019-05-27T18:59:13.279Z</time>
      </trkpt>
      <trkpt lat="43.40423" lon="3.69685">
        <ele>5</ele>
        <time>2019-05-27T18:59:17.013Z</time>
      </trkpt>
      <trkpt lat="43.40421" lon="3.69679">
        <ele>5</ele>
        <time>2019-05-27T18:59:17.998Z</time>
      </trkpt>
      <trkpt lat="43.40419" lon="3.69676">
        <ele>6</ele>
        <time>2019-05-27T18:59:18.600Z</time>
      </trkpt>
      <trkpt lat="43.40416" lon="3.69674">
        <ele>6</ele>
        <time>2019-05-27T18:59:19.295Z</time>
      </trkpt>
      <trkpt lat="43.40405" lon="3.69676">
        <ele>6</ele>
        <time>2019-05-27T18:59:21.607Z</time>
      </trkpt>
      <trkpt lat="43.40334" lon="3.69689">
        <ele>7</ele>
        <time>2019-05-27T18:59:34.841Z</time>
      </trkpt>
      <trkpt lat="43.4031" lon="3.69694">
        <ele>8</ele>
        <time>2019-05-27T18:59:39.205Z</time>
      </trkpt>
      <trkpt lat="43.40301" lon="3.69695">
        <ele>8</ele>
        <time>2019-05-27T18:59:41.124Z</time>
      </trkpt>
      <trkpt lat="43.40284" lon="3.69706">
        <ele>8</ele>
        <time>2019-05-27T18:59:44.591Z</time>
      </trkpt>
      <trkpt lat="43.4025" lon="3.69712">
        <ele>8</ele>
        <time>2019-05-27T18:59:51.309Z</time>
      </trkpt>
      <trkpt lat="43.40234" lon="3.69715">
        <ele>7</ele>
        <time>2019-05-27T18:59:54.660Z</time>
      </trkpt>
      <trkpt lat="43.40227" lon="3.69717">
        <ele>7</ele>
        <time>2019-05-27T18:59:56.045Z</time>
      </trkpt>
      <trkpt lat="43.40221" lon="3.69718">
        <ele>7</ele>
        <time>2019-05-27T18:59:57.169Z</time>
      </trkpt>
      <trkpt lat="43.40215" lon="3.69717">
        <ele>7</ele>
        <time>2019-05-27T18:59:58.208Z</time>
      </trkpt>
      <trkpt lat="43.40185" lon="3.69711">
        <ele>7</ele>
        <time>2019-05-27T19:00:04.121Z</time>
      </trkpt>
      <trkpt lat="43.40177" lon="3.69713">
        <ele>6</ele>
        <time>2019-05-27T19:00:05.650Z</time>
      </trkpt>
      <trkpt lat="43.40173" lon="3.6971">
        <ele>7</ele>
        <time>2019-05-27T19:00:06.506Z</time>
      </trkpt>
      <trkpt lat="43.40172" lon="3.69705">
        <ele>7</ele>
        <time>2019-05-27T19:00:07.330Z</time>
      </trkpt>
      <trkpt lat="43.40165" lon="3.69705">
        <ele>6</ele>
        <time>2019-05-27T19:00:08.696Z</time>
      </trkpt>
      <trkpt lat="43.4016" lon="3.69707">
        <ele>6</ele>
        <time>2019-05-27T19:00:09.774Z</time>
      </trkpt>
      <trkpt lat="43.40139" lon="3.69701">
        <ele>6</ele>
        <time>2019-05-27T19:00:13.638Z</time>
      </trkpt>
      <trkpt lat="43.40129" lon="3.69699">
        <ele>6</ele>
        <time>2019-05-27T19:00:15.670Z</time>
      </trkpt>
      <trkpt lat="43.40118" lon="3.69697">
        <ele>6</ele>
        <time>2019-05-27T19:00:17.909Z</time>
      </trkpt>
      <trkpt lat="43.3998" lon="3.69662">
        <ele>8</ele>
        <time>2019-05-27T19:00:49.293Z</time>
      </trkpt>
      <trkpt lat="43.39977" lon="3.69662">
        <ele>8</ele>
        <time>2019-05-27T19:00:49.808Z</time>
      </trkpt>
      <trkpt lat="43.39976" lon="3.69661">
        <ele>8</ele>
        <time>2019-05-27T19:00:50.131Z</time>
      </trkpt>
      <trkpt lat="43.39963" lon="3.69658">
        <ele>8</ele>
        <time>2019-05-27T19:00:53.726Z</time>
      </trkpt>
      <trkpt lat="43.39957" lon="3.69656">
        <ele>8</ele>
        <time>2019-05-27T19:00:54.953Z</time>
      </trkpt>
      <trkpt lat="43.39956" lon="3.69657">
        <ele>8</ele>
        <time>2019-05-27T19:00:55.318Z</time>
      </trkpt>
      <trkpt lat="43.39954" lon="3.69659">
        <ele>8</ele>
        <time>2019-05-27T19:00:55.739Z</time>
      </trkpt>
      <trkpt lat="43.399" lon="3.69674">
        <ele>4</ele>
        <time>2019-05-27T19:01:07.294Z</time>
      </trkpt>
      <trkpt lat="43.3989" lon="3.69624">
        <ele>8</ele>
        <time>2019-05-27T19:01:15.390Z</time>
      </trkpt>
      <trkpt lat="43.39889" lon="3.6962">
        <ele>8</ele>
        <time>2019-05-27T19:01:15.984Z</time>
      </trkpt>
      <trkpt lat="43.39889" lon="3.69617">
        <ele>8</ele>
        <time>2019-05-27T19:01:17.035Z</time>
      </trkpt>
      <trkpt lat="43.39838" lon="3.69626">
        <ele>8</ele>
        <time>2019-05-27T19:01:27.137Z</time>
      </trkpt>
      <trkpt lat="43.39833" lon="3.69627">
        <ele>7</ele>
        <time>2019-05-27T19:01:27.889Z</time>
      </trkpt>
      <trkpt lat="43.39808" lon="3.69627">
        <ele>7</ele>
        <time>2019-05-27T19:01:33.387Z</time>
      </trkpt>
      <trkpt lat="43.39802" lon="3.69627">
        <ele>7</ele>
        <time>2019-05-27T19:01:34.494Z</time>
      </trkpt>
      <trkpt lat="43.39792" lon="3.69625">
        <ele>7</ele>
        <time>2019-05-27T19:01:36.478Z</time>
      </trkpt>
      <trkpt lat="43.39773" lon="3.69614">
        <ele>8</ele>
        <time>2019-05-27T19:01:41.055Z</time>
      </trkpt>
      <trkpt lat="43.3963" lon="3.69549">
        <ele>11</ele>
        <time>2019-05-27T19:02:08.876Z</time>
      </trkpt>
      <trkpt lat="43.39622" lon="3.69544">
        <ele>11</ele>
        <time>2019-05-27T19:02:10.167Z</time>
      </trkpt>
      <trkpt lat="43.39608" lon="3.69535">
        <ele>11</ele>
        <time>2019-05-27T19:02:12.952Z</time>
      </trkpt>
      <trkpt lat="43.39593" lon="3.6952">
        <ele>10</ele>
        <time>2019-05-27T19:02:16.086Z</time>
      </trkpt>
      <trkpt lat="43.39589" lon="3.69516">
        <ele>10</ele>
        <time>2019-05-27T19:02:16.950Z</time>
      </trkpt>
      <trkpt lat="43.39588" lon="3.69515">
        <ele>9</ele>
        <time>2019-05-27T19:02:17.245Z</time>
      </trkpt>
      <trkpt lat="43.39575" lon="3.69507">
        <ele>7</ele>
        <time>2019-05-27T19:02:19.904Z</time>
      </trkpt>
      <trkpt lat="43.39566" lon="3.69501">
        <ele>7</ele>
        <time>2019-05-27T19:02:21.642Z</time>
      </trkpt>
      <trkpt lat="43.39559" lon="3.69496">
        <ele>8</ele>
        <time>2019-05-27T19:02:23.025Z</time>
      </trkpt>
      <trkpt lat="43.39544" lon="3.6949">
        <ele>7</ele>
        <time>2019-05-27T19:02:26.478Z</time>
      </trkpt>
      <trkpt lat="43.39534" lon="3.69487">
        <ele>7</ele>
        <time>2019-05-27T19:02:28.557Z</time>
      </trkpt>
      <trkpt lat="43.39529" lon="3.69484">
        <ele>6</ele>
        <time>2019-05-27T19:02:29.715Z</time>
      </trkpt>
      <trkpt lat="43.39525" lon="3.69482">
        <ele>6</ele>
        <time>2019-05-27T19:02:30.517Z</time>
      </trkpt>
      <trkpt lat="43.39523" lon="3.69477">
        <ele>6</ele>
        <time>2019-05-27T19:02:31.804Z</time>
      </trkpt>
      <trkpt lat="43.39521" lon="3.69475">
        <ele>6</ele>
        <time>2019-05-27T19:02:32.322Z</time>
      </trkpt>
      <trkpt lat="43.39517" lon="3.69472">
        <ele>6</ele>
        <time>2019-05-27T19:02:33.101Z</time>
      </trkpt>
      <trkpt lat="43.39515" lon="3.69471">
        <ele>6</ele>
        <time>2019-05-27T19:02:33.605Z</time>
      </trkpt>
      <trkpt lat="43.39511" lon="3.69471">
        <ele>6</ele>
        <time>2019-05-27T19:02:34.845Z</time>
      </trkpt>
      <trkpt lat="43.39508" lon="3.69472">
        <ele>6</ele>
        <time>2019-05-27T19:02:35.437Z</time>
      </trkpt>
      <trkpt lat="43.39502" lon="3.69468">
        <ele>6</ele>
        <time>2019-05-27T19:02:36.972Z</time>
      </trkpt>
      <trkpt lat="43.39498" lon="3.69463">
        <ele>4</ele>
        <time>2019-05-27T19:02:38.028Z</time>
      </trkpt>
      <trkpt lat="43.39488" lon="3.69445">
        <ele>6</ele>
        <time>2019-05-27T19:02:41.811Z</time>
      </trkpt>
      <trkpt lat="43.39476" lon="3.69408">
        <ele>10</ele>
        <time>2019-05-27T19:02:49.402Z</time>
      </trkpt>
      <trkpt lat="43.39472" lon="3.69409">
        <ele>10</ele>
        <time>2019-05-27T19:02:50.395Z</time>
      </trkpt>
      <trkpt lat="43.39465" lon="3.69389">
        <ele>11</ele>
        <time>2019-05-27T19:02:54.269Z</time>
      </trkpt>
      <trkpt lat="43.39445" lon="3.69329">
        <ele>14</ele>
        <time>2019-05-27T19:03:06.671Z</time>
      </trkpt>
      <trkpt lat="43.39414" lon="3.69256">
        <ele>16</ele>
        <time>2019-05-27T19:03:25.558Z</time>
      </trkpt>
      <trkpt lat="43.39336" lon="3.69203">
        <ele>14</ele>
        <time>2019-05-27T19:03:55.135Z</time>
      </trkpt>
      <trkpt lat="43.39322" lon="3.69191">
        <ele>10</ele>
        <time>2019-05-27T19:03:59.722Z</time>
      </trkpt>
      <trkpt lat="43.39314" lon="3.69184">
        <ele>11</ele>
        <time>2019-05-27T19:04:02.421Z</time>
      </trkpt>
      <trkpt lat="43.39287" lon="3.69151">
        <ele>12</ele>
        <time>2019-05-27T19:04:12.609Z</time>
      </trkpt>
      <trkpt lat="43.39277" lon="3.69134">
        <ele>12</ele>
        <time>2019-05-27T19:04:17.010Z</time>
      </trkpt>
      <trkpt lat="43.39264" lon="3.69106">
        <ele>12</ele>
        <time>2019-05-27T19:04:23.555Z</time>
      </trkpt>
      <trkpt lat="43.39242" lon="3.69036">
        <ele>10</ele>
        <time>2019-05-27T19:04:38.054Z</time>
      </trkpt>
      <trkpt lat="43.3924" lon="3.69011">
        <ele>11</ele>
        <time>2019-05-27T19:04:42.751Z</time>
      </trkpt>
      <trkpt lat="43.3924" lon="3.68991">
        <ele>12</ele>
        <time>2019-05-27T19:04:46.642Z</time>
      </trkpt>
      <trkpt lat="43.3926" lon="3.68682">
        <ele>12</ele>
        <time>2019-05-27T19:05:44.765Z</time>
      </trkpt>
      <trkpt lat="43.3926" lon="3.68666">
        <ele>11</ele>
        <time>2019-05-27T19:05:47.805Z</time>
      </trkpt>
      <trkpt lat="43.39259" lon="3.68635">
        <ele>13</ele>
        <time>2019-05-27T19:05:54.754Z</time>
      </trkpt>
      <trkpt lat="43.3927" lon="3.68571">
        <ele>13</ele>
        <time>2019-05-27T19:06:08.085Z</time>
      </trkpt>
      <trkpt lat="43.39281" lon="3.68542">
        <ele>15</ele>
        <time>2019-05-27T19:06:14.869Z</time>
      </trkpt>
      <trkpt lat="43.39288" lon="3.68516">
        <ele>16</ele>
        <time>2019-05-27T19:06:19.813Z</time>
      </trkpt>
      <trkpt lat="43.39296" lon="3.6849">
        <ele>14</ele>
        <time>2019-05-27T19:06:25.521Z</time>
      </trkpt>
      <trkpt lat="43.39305" lon="3.68465">
        <ele>13</ele>
        <time>2019-05-27T19:06:30.533Z</time>
      </trkpt>
      <trkpt lat="43.3933" lon="3.68404">
        <ele>11</ele>
        <time>2019-05-27T19:06:43.156Z</time>
      </trkpt>
      <trkpt lat="43.39342" lon="3.68378">
        <ele>15</ele>
        <time>2019-05-27T19:06:48.067Z</time>
      </trkpt>
      <trkpt lat="43.39358" lon="3.68344">
        <ele>13</ele>
        <time>2019-05-27T19:06:54.880Z</time>
      </trkpt>
      <trkpt lat="43.3938" lon="3.68282">
        <ele>13</ele>
        <time>2019-05-27T19:07:05.754Z</time>
      </trkpt>
      <trkpt lat="43.39383" lon="3.68225">
        <ele>14</ele>
        <time>2019-05-27T19:07:14.949Z</time>
      </trkpt>
      <trkpt lat="43.3938" lon="3.68182">
        <ele>15</ele>
        <time>2019-05-27T19:07:22.962Z</time>
      </trkpt>
      <trkpt lat="43.39378" lon="3.68141">
        <ele>16</ele>
        <time>2019-05-27T19:07:32.806Z</time>
      </trkpt>
      <trkpt lat="43.39373" lon="3.68035">
        <ele>17</ele>
        <time>2019-05-27T19:08:00.686Z</time>
      </trkpt>
      <trkpt lat="43.39374" lon="3.68005">
        <ele>18</ele>
        <time>2019-05-27T19:08:09.275Z</time>
      </trkpt>
      <trkpt lat="43.39374" lon="3.68001">
        <ele>18</ele>
        <time>2019-05-27T19:08:10.529Z</time>
      </trkpt>
      <trkpt lat="43.39371" lon="3.67994">
        <ele>19</ele>
        <time>2019-05-27T19:08:12.476Z</time>
      </trkpt>
      <trkpt lat="43.39371" lon="3.67988">
        <ele>19</ele>
        <time>2019-05-27T19:08:13.937Z</time>
      </trkpt>
      <trkpt lat="43.39371" lon="3.67984">
        <ele>19</ele>
        <time>2019-05-27T19:08:15.298Z</time>
      </trkpt>
      <trkpt lat="43.39373" lon="3.6798">
        <ele>19</ele>
        <time>2019-05-27T19:08:16.380Z</time>
      </trkpt>
      <trkpt lat="43.39375" lon="3.67975">
        <ele>19</ele>
        <time>2019-05-27T19:08:18.178Z</time>
      </trkpt>
      <trkpt lat="43.3938" lon="3.67972">
        <ele>20</ele>
        <time>2019-05-27T19:08:20.536Z</time>
      </trkpt>
      <trkpt lat="43.39381" lon="3.67968">
        <ele>20</ele>
        <time>2019-05-27T19:08:22.162Z</time>
      </trkpt>
      <trkpt lat="43.39384" lon="3.67957">
        <ele>20</ele>
        <time>2019-05-27T19:08:25.627Z</time>
      </trkpt>
      <trkpt lat="43.39394" lon="3.67912">
        <ele>20</ele>
        <time>2019-05-27T19:08:39.513Z</time>
      </trkpt>
      <trkpt lat="43.39408" lon="3.67853">
        <ele>20</ele>
        <time>2019-05-27T19:08:56.829Z</time>
      </trkpt>
      <trkpt lat="43.39419" lon="3.67817">
        <ele>22</ele>
        <time>2019-05-27T19:09:08.132Z</time>
      </trkpt>
      <trkpt lat="43.3942" lon="3.67812">
        <ele>23</ele>
        <time>2019-05-27T19:09:09.233Z</time>
      </trkpt>
      <trkpt lat="43.39421" lon="3.67808">
        <ele>23</ele>
        <time>2019-05-27T19:09:10.326Z</time>
      </trkpt>
      <trkpt lat="43.39425" lon="3.67797">
        <ele>23</ele>
        <time>2019-05-27T19:09:13.638Z</time>
      </trkpt>
      <trkpt lat="43.3944" lon="3.67747">
        <ele>22</ele>
        <time>2019-05-27T19:09:26.375Z</time>
      </trkpt>
      <trkpt lat="43.39441" lon="3.67743">
        <ele>23</ele>
        <time>2019-05-27T19:09:27.488Z</time>
      </trkpt>
      <trkpt lat="43.39443" lon="3.67739">
        <ele>23</ele>
        <time>2019-05-27T19:09:28.350Z</time>
      </trkpt>
      <trkpt lat="43.39449" lon="3.67718">
        <ele>23</ele>
        <time>2019-05-27T19:09:32.502Z</time>
      </trkpt>
      <trkpt lat="43.39451" lon="3.67711">
        <ele>23</ele>
        <time>2019-05-27T19:09:34.114Z</time>
      </trkpt>
      <trkpt lat="43.39453" lon="3.67705">
        <ele>23</ele>
        <time>2019-05-27T19:09:35.338Z</time>
      </trkpt>
      <trkpt lat="43.39456" lon="3.67696">
        <ele>23</ele>
        <time>2019-05-27T19:09:37.512Z</time>
      </trkpt>
      <trkpt lat="43.39468" lon="3.6766">
        <ele>23</ele>
        <time>2019-05-27T19:09:44.571Z</time>
      </trkpt>
      <trkpt lat="43.39489" lon="3.67557">
        <ele>21</ele>
        <time>2019-05-27T19:10:02.528Z</time>
      </trkpt>
      <trkpt lat="43.39494" lon="3.67539">
        <ele>20</ele>
        <time>2019-05-27T19:10:05.315Z</time>
      </trkpt>
      <trkpt lat="43.39496" lon="3.67531">
        <ele>20</ele>
        <time>2019-05-27T19:10:06.440Z</time>
      </trkpt>
      <trkpt lat="43.39511" lon="3.67452">
        <ele>21</ele>
        <time>2019-05-27T19:10:17.298Z</time>
      </trkpt>
      <trkpt lat="43.39513" lon="3.67446">
        <ele>21</ele>
        <time>2019-05-27T19:10:18.187Z</time>
      </trkpt>
      <trkpt lat="43.39519" lon="3.67409">
        <ele>19</ele>
        <time>2019-05-27T19:10:23.285Z</time>
      </trkpt>
      <trkpt lat="43.39523" lon="3.67398">
        <ele>19</ele>
        <time>2019-05-27T19:10:24.830Z</time>
      </trkpt>
      <trkpt lat="43.39524" lon="3.67397">
        <ele>20</ele>
        <time>2019-05-27T19:10:25.014Z</time>
      </trkpt>
      <trkpt lat="43.39527" lon="3.67393">
        <ele>20</ele>
        <time>2019-05-27T19:10:25.913Z</time>
      </trkpt>
      <trkpt lat="43.39534" lon="3.67382">
        <ele>20</ele>
        <time>2019-05-27T19:10:28.088Z</time>
      </trkpt>
      <trkpt lat="43.39542" lon="3.67322">
        <ele>18</ele>
        <time>2019-05-27T19:10:36.091Z</time>
      </trkpt>
      <trkpt lat="43.39541" lon="3.67318">
        <ele>18</ele>
        <time>2019-05-27T19:10:36.622Z</time>
      </trkpt>
      <trkpt lat="43.39539" lon="3.67312">
        <ele>18</ele>
        <time>2019-05-27T19:10:37.415Z</time>
      </trkpt>
      <trkpt lat="43.39539" lon="3.67305">
        <ele>18</ele>
        <time>2019-05-27T19:10:38.327Z</time>
      </trkpt>
      <trkpt lat="43.39541" lon="3.67293">
        <ele>18</ele>
        <time>2019-05-27T19:10:39.982Z</time>
      </trkpt>
      <trkpt lat="43.3955" lon="3.6725">
        <ele>18</ele>
        <time>2019-05-27T19:10:45.541Z</time>
      </trkpt>
      <trkpt lat="43.39557" lon="3.67205">
        <ele>17</ele>
        <time>2019-05-27T19:10:51.112Z</time>
      </trkpt>
      <trkpt lat="43.39557" lon="3.67196">
        <ele>17</ele>
        <time>2019-05-27T19:10:52.296Z</time>
      </trkpt>
      <trkpt lat="43.39558" lon="3.67192">
        <ele>17</ele>
        <time>2019-05-27T19:10:52.926Z</time>
      </trkpt>
      <trkpt lat="43.39552" lon="3.6719">
        <ele>17</ele>
        <time>2019-05-27T19:10:53.882Z</time>
      </trkpt>
      <trkpt lat="43.39451" lon="3.67143">
        <ele>11</ele>
        <time>2019-05-27T19:11:11.825Z</time>
      </trkpt>
      <trkpt lat="43.39442" lon="3.67139">
        <ele>11</ele>
        <time>2019-05-27T19:11:13.342Z</time>
      </trkpt>
      <trkpt lat="43.39423" lon="3.67132">
        <ele>11</ele>
        <time>2019-05-27T19:11:16.785Z</time>
      </trkpt>
      <trkpt lat="43.39415" lon="3.67129">
        <ele>8</ele>
        <time>2019-05-27T19:11:18.179Z</time>
      </trkpt>
      <trkpt lat="43.39409" lon="3.67129">
        <ele>8</ele>
        <time>2019-05-27T19:11:19.156Z</time>
      </trkpt>
      <trkpt lat="43.39399" lon="3.67129">
        <ele>7</ele>
        <time>2019-05-27T19:11:20.791Z</time>
      </trkpt>
      <trkpt lat="43.39389" lon="3.67124">
        <ele>7</ele>
        <time>2019-05-27T19:11:22.489Z</time>
      </trkpt>
      <trkpt lat="43.39391" lon="3.67116">
        <ele>7</ele>
        <time>2019-05-27T19:11:23.577Z</time>
      </trkpt>
      <trkpt lat="43.39396" lon="3.671">
        <ele>8</ele>
        <time>2019-05-27T19:11:25.583Z</time>
      </trkpt>
      <trkpt lat="43.39398" lon="3.67093">
        <ele>8</ele>
        <time>2019-05-27T19:11:26.491Z</time>
      </trkpt>
      <trkpt lat="43.39419" lon="3.67016">
        <ele>7</ele>
        <time>2019-05-27T19:11:36.604Z</time>
      </trkpt>
      <trkpt lat="43.39424" lon="3.66996">
        <ele>6</ele>
        <time>2019-05-27T19:11:39.180Z</time>
      </trkpt>
      <trkpt lat="43.39428" lon="3.66977">
        <ele>7</ele>
        <time>2019-05-27T19:11:42.063Z</time>
      </trkpt>
      <trkpt lat="43.3943" lon="3.6696">
        <ele>7</ele>
        <time>2019-05-27T19:11:44.289Z</time>
      </trkpt>
      <trkpt lat="43.39431" lon="3.66955">
        <ele>7</ele>
        <time>2019-05-27T19:11:44.953Z</time>
      </trkpt>
      <trkpt lat="43.39431" lon="3.66945">
        <ele>7</ele>
        <time>2019-05-27T19:11:46.183Z</time>
      </trkpt>
      <trkpt lat="43.39429" lon="3.66915">
        <ele>7</ele>
        <time>2019-05-27T19:11:50.608Z</time>
      </trkpt>
      <trkpt lat="43.39425" lon="3.66848">
        <ele>6</ele>
        <time>2019-05-27T19:12:00.402Z</time>
      </trkpt>
      <trkpt lat="43.39424" lon="3.66837">
        <ele>6</ele>
        <time>2019-05-27T19:12:02.195Z</time>
      </trkpt>
      <trkpt lat="43.39419" lon="3.66782">
        <ele>5</ele>
        <time>2019-05-27T19:12:10.462Z</time>
      </trkpt>
      <trkpt lat="43.39412" lon="3.66715">
        <ele>3</ele>
        <time>2019-05-27T19:12:20.894Z</time>
      </trkpt>
      <trkpt lat="43.3941" lon="3.66705">
        <ele>2</ele>
        <time>2019-05-27T19:12:22.322Z</time>
      </trkpt>
      <trkpt lat="43.39407" lon="3.66675">
        <ele>2</ele>
        <time>2019-05-27T19:12:27.043Z</time>
      </trkpt>
      <trkpt lat="43.39402" lon="3.66644">
        <ele>3</ele>
        <time>2019-05-27T19:12:31.608Z</time>
      </trkpt>
      <trkpt lat="43.39397" lon="3.66599">
        <ele>4</ele>
        <time>2019-05-27T19:12:38.347Z</time>
      </trkpt>
      <trkpt lat="43.39394" lon="3.66581">
        <ele>5</ele>
        <time>2019-05-27T19:12:41.050Z</time>
      </trkpt>
      <trkpt lat="43.39389" lon="3.66531">
        <ele>5</ele>
        <time>2019-05-27T19:12:47.957Z</time>
      </trkpt>
      <trkpt lat="43.39387" lon="3.66517">
        <ele>5</ele>
        <time>2019-05-27T19:12:49.925Z</time>
      </trkpt>
      <trkpt lat="43.39385" lon="3.66505">
        <ele>5</ele>
        <time>2019-05-27T19:12:51.485Z</time>
      </trkpt>
      <trkpt lat="43.39384" lon="3.66491">
        <ele>5</ele>
        <time>2019-05-27T19:12:53.454Z</time>
      </trkpt>
      <trkpt lat="43.39376" lon="3.6643">
        <ele>6</ele>
        <time>2019-05-27T19:13:02.296Z</time>
      </trkpt>
      <trkpt lat="43.3937" lon="3.6638">
        <ele>5</ele>
        <time>2019-05-27T19:13:09.955Z</time>
      </trkpt>
      <trkpt lat="43.39369" lon="3.66371">
        <ele>5</ele>
        <time>2019-05-27T19:13:11.395Z</time>
      </trkpt>
      <trkpt lat="43.39363" lon="3.66351">
        <ele>5</ele>
        <time>2019-05-27T19:13:14.662Z</time>
      </trkpt>
      <trkpt lat="43.39354" lon="3.66322">
        <ele>2</ele>
        <time>2019-05-27T19:13:19.636Z</time>
      </trkpt>
      <trkpt lat="43.39341" lon="3.66284">
        <ele>2</ele>
        <time>2019-05-27T19:13:25.931Z</time>
      </trkpt>
      <trkpt lat="43.39331" lon="3.66255">
        <ele>1</ele>
        <time>2019-05-27T19:13:31.242Z</time>
      </trkpt>
      <trkpt lat="43.39311" lon="3.66202">
        <ele>1</ele>
        <time>2019-05-27T19:13:41.044Z</time>
      </trkpt>
      <trkpt lat="43.39309" lon="3.66191">
        <ele>1</ele>
        <time>2019-05-27T19:13:42.905Z</time>
      </trkpt>
      <trkpt lat="43.3931" lon="3.66179">
        <ele>1</ele>
        <time>2019-05-27T19:13:44.934Z</time>
      </trkpt>
      <trkpt lat="43.39318" lon="3.66167">
        <ele>2</ele>
        <time>2019-05-27T19:13:47.722Z</time>
      </trkpt>
      <trkpt lat="43.39329" lon="3.66157">
        <ele>2</ele>
        <time>2019-05-27T19:13:50.936Z</time>
      </trkpt>
      <trkpt lat="43.39329" lon="3.66148">
        <ele>2</ele>
        <time>2019-05-27T19:13:53.512Z</time>
      </trkpt>
      <trkpt lat="43.39329" lon="3.66143">
        <ele>2</ele>
        <time>2019-05-27T19:13:54.953Z</time>
      </trkpt>
      <trkpt lat="43.39328" lon="3.66059">
        <ele>1</ele>
        <time>2019-05-27T19:14:19.453Z</time>
      </trkpt>
      <trkpt lat="43.39327" lon="3.66048">
        <ele>1</ele>
        <time>2019-05-27T19:14:22.459Z</time>
      </trkpt>
      <trkpt lat="43.39279" lon="3.65926">
        <ele>1</ele>
        <time>2019-05-27T19:14:59.482Z</time>
      </trkpt>
      <trkpt lat="43.39269" lon="3.659">
        <ele>1</ele>
        <time>2019-05-27T19:15:06.799Z</time>
      </trkpt>
      <trkpt lat="43.39227" lon="3.65795">
        <ele>1</ele>
        <time>2019-05-27T19:15:37.016Z</time>
      </trkpt>
      <trkpt lat="43.39204" lon="3.65736">
        <ele>2.7</ele>
        <time>2019-05-27T19:15:53.500Z</time>
      </trkpt>
      <trkpt lat="43.39178" lon="3.65668">
        <ele>2.6</ele>
        <time>2019-05-27T19:16:13.807Z</time>
      </trkpt>
      <trkpt lat="43.39138" lon="3.65567">
        <ele>1</ele>
        <time>2019-05-27T19:16:44.662Z</time>
      </trkpt>
      <trkpt lat="43.39096" lon="3.65462">
        <ele>1</ele>
        <time>2019-05-27T19:17:18.262Z</time>
      </trkpt>
      <trkpt lat="43.39053" lon="3.65353">
        <ele>2.9</ele>
        <time>2019-05-27T19:17:52.818Z</time>
      </trkpt>
      <trkpt lat="43.39004" lon="3.65231">
        <ele>3</ele>
        <time>2019-05-27T19:18:29.906Z</time>
      </trkpt>
      <trkpt lat="43.38999" lon="3.6522">
        <ele>2.9</ele>
        <time>2019-05-27T19:18:33.406Z</time>
      </trkpt>
      <trkpt lat="43.38998" lon="3.65218">
        <ele>2.9</ele>
        <time>2019-05-27T19:18:33.786Z</time>
      </trkpt>
      <trkpt lat="43.38978" lon="3.65181">
        <ele>3</ele>
        <time>2019-05-27T19:18:45.980Z</time>
      </trkpt>
      <trkpt lat="43.38959" lon="3.65145">
        <ele>2</ele>
        <time>2019-05-27T19:18:52.979Z</time>
      </trkpt>
      <trkpt lat="43.3894" lon="3.65109">
        <ele>1</ele>
        <time>2019-05-27T19:19:00.164Z</time>
      </trkpt>
      <trkpt lat="43.38895" lon="3.65025">
        <ele>1</ele>
        <time>2019-05-27T19:19:17.382Z</time>
      </trkpt>
      <trkpt lat="43.38872" lon="3.64983">
        <ele>0.074095</ele>
        <time>2019-05-27T19:19:26.517Z</time>
      </trkpt>
      <trkpt lat="43.38864" lon="3.64969">
        <ele>0.096667</ele>
        <time>2019-05-27T19:19:29.578Z</time>
      </trkpt>
      <trkpt lat="43.38816" lon="3.64883">
        <ele>1</ele>
        <time>2019-05-27T19:19:48.601Z</time>
      </trkpt>
      <trkpt lat="43.38791" lon="3.64834">
        <ele>1</ele>
        <time>2019-05-27T19:19:59.017Z</time>
      </trkpt>
      <trkpt lat="43.38786" lon="3.64826">
        <ele>1</ele>
        <time>2019-05-27T19:20:01.140Z</time>
      </trkpt>
      <trkpt lat="43.38745" lon="3.64775">
        <ele>2</ele>
        <time>2019-05-27T19:20:14.795Z</time>
      </trkpt>
      <trkpt lat="43.38727" lon="3.6475">
        <ele>2</ele>
        <time>2019-05-27T19:20:20.990Z</time>
      </trkpt>
      <trkpt lat="43.38685" lon="3.6469">
        <ele>2</ele>
        <time>2019-05-27T19:20:34.844Z</time>
      </trkpt>
      <trkpt lat="43.38638" lon="3.64615">
        <ele>1</ele>
        <time>2019-05-27T19:20:50.733Z</time>
      </trkpt>
      <trkpt lat="43.38591" lon="3.6454">
        <ele>1</ele>
        <time>2019-05-27T19:21:05.834Z</time>
      </trkpt>
      <trkpt lat="43.38545" lon="3.64468">
        <ele>1</ele>
        <time>2019-05-27T19:21:19.998Z</time>
      </trkpt>
      <trkpt lat="43.38497" lon="3.64391">
        <ele>0.371468</ele>
        <time>2019-05-27T19:21:35.374Z</time>
      </trkpt>
      <trkpt lat="43.38451" lon="3.64316">
        <ele>3</ele>
        <time>2019-05-27T19:21:51.601Z</time>
      </trkpt>
      <trkpt lat="43.38404" lon="3.64241">
        <ele>3</ele>
        <time>2019-05-27T19:22:08.078Z</time>
      </trkpt>
      <trkpt lat="43.38356" lon="3.64166">
        <ele>3</ele>
        <time>2019-05-27T19:22:25.219Z</time>
      </trkpt>
      <trkpt lat="43.3831" lon="3.64091">
        <ele>2</ele>
        <time>2019-05-27T19:22:41.865Z</time>
      </trkpt>
      <trkpt lat="43.38265" lon="3.64018">
        <ele>2</ele>
        <time>2019-05-27T19:22:57.075Z</time>
      </trkpt>
      <trkpt lat="43.38218" lon="3.63943">
        <ele>1</ele>
        <time>2019-05-27T19:23:12.299Z</time>
      </trkpt>
      <trkpt lat="43.38171" lon="3.63867">
        <ele>1</ele>
        <time>2019-05-27T19:23:28.032Z</time>
      </trkpt>
      <trkpt lat="43.38119" lon="3.63784">
        <ele>1</ele>
        <time>2019-05-27T19:23:45.193Z</time>
      </trkpt>
      <trkpt lat="43.38076" lon="3.63715">
        <ele>2</ele>
        <time>2019-05-27T19:23:59.825Z</time>
      </trkpt>
      <trkpt lat="43.38028" lon="3.63638">
        <ele>2</ele>
        <time>2019-05-27T19:24:16.469Z</time>
      </trkpt>
      <trkpt lat="43.37981" lon="3.63563">
        <ele>1</ele>
        <time>2019-05-27T19:24:32.761Z</time>
      </trkpt>
      <trkpt lat="43.37936" lon="3.63491">
        <ele>2</ele>
        <time>2019-05-27T19:24:48.066Z</time>
      </trkpt>
      <trkpt lat="43.37896" lon="3.63426">
        <ele>3</ele>
        <time>2019-05-27T19:25:02.290Z</time>
      </trkpt>
      <trkpt lat="43.37889" lon="3.63415">
        <ele>3</ele>
        <time>2019-05-27T19:25:04.752Z</time>
      </trkpt>
      <trkpt lat="43.37821" lon="3.63308">
        <ele>1</ele>
        <time>2019-05-27T19:25:28.388Z</time>
      </trkpt>
      <trkpt lat="43.37819" lon="3.63304">
        <ele>1</ele>
        <time>2019-05-27T19:25:29.265Z</time>
      </trkpt>
      <trkpt lat="43.3779" lon="3.63262">
        <ele>2</ele>
        <time>2019-05-27T19:25:38.298Z</time>
      </trkpt>
      <trkpt lat="43.37746" lon="3.63194">
        <ele>3</ele>
        <time>2019-05-27T19:25:52.894Z</time>
      </trkpt>
      <trkpt lat="43.37704" lon="3.63129">
        <ele>2</ele>
        <time>2019-05-27T19:26:06.617Z</time>
      </trkpt>
      <trkpt lat="43.37685" lon="3.63099">
        <ele>2</ele>
        <time>2019-05-27T19:26:12.947Z</time>
      </trkpt>
      <trkpt lat="43.37675" lon="3.63084">
        <ele>1</ele>
        <time>2019-05-27T19:26:16.128Z</time>
      </trkpt>
      <trkpt lat="43.37587" lon="3.62944">
        <ele>1</ele>
        <time>2019-05-27T19:26:44.988Z</time>
      </trkpt>
      <trkpt lat="43.37558" lon="3.62897">
        <ele>1</ele>
        <time>2019-05-27T19:26:54.950Z</time>
      </trkpt>
      <trkpt lat="43.37513" lon="3.62834">
        <ele>2</ele>
        <time>2019-05-27T19:27:09.106Z</time>
      </trkpt>
      <trkpt lat="43.37459" lon="3.62763">
        <ele>2</ele>
        <time>2019-05-27T19:27:26.000Z</time>
      </trkpt>
      <trkpt lat="43.37338" lon="3.62585">
        <ele>2</ele>
        <time>2019-05-27T19:28:06.026Z</time>
      </trkpt>
      <trkpt lat="43.37214" lon="3.62405">
        <ele>1</ele>
        <time>2019-05-27T19:28:45.873Z</time>
      </trkpt>
      <trkpt lat="43.3709" lon="3.62228">
        <ele>2</ele>
        <time>2019-05-27T19:29:25.827Z</time>
      </trkpt>
      <trkpt lat="43.36981" lon="3.62073">
        <ele>1</ele>
        <time>2019-05-27T19:30:01.147Z</time>
      </trkpt>
      <trkpt lat="43.36961" lon="3.62048">
        <ele>1</ele>
        <time>2019-05-27T19:30:07.280Z</time>
      </trkpt>
      <trkpt lat="43.36911" lon="3.61974">
        <ele>2</ele>
        <time>2019-05-27T19:30:24.521Z</time>
      </trkpt>
      <trkpt lat="43.36885" lon="3.61933">
        <ele>2</ele>
        <time>2019-05-27T19:30:33.948Z</time>
      </trkpt>
      <trkpt lat="43.36847" lon="3.61885">
        <ele>1</ele>
        <time>2019-05-27T19:30:46.192Z</time>
      </trkpt>
      <trkpt lat="43.36836" lon="3.61872">
        <ele>1</ele>
        <time>2019-05-27T19:30:49.815Z</time>
      </trkpt>
      <trkpt lat="43.36807" lon="3.61838">
        <ele>1</ele>
        <time>2019-05-27T19:30:58.712Z</time>
      </trkpt>
      <trkpt lat="43.36781" lon="3.618">
        <ele>1</ele>
        <time>2019-05-27T19:31:07.507Z</time>
      </trkpt>
      <trkpt lat="43.36729" lon="3.61729">
        <ele>2</ele>
        <time>2019-05-27T19:31:23.964Z</time>
      </trkpt>
      <trkpt lat="43.36676" lon="3.61654">
        <ele>2</ele>
        <time>2019-05-27T19:31:41.179Z</time>
      </trkpt>
      <trkpt lat="43.36658" lon="3.61623">
        <ele>2</ele>
        <time>2019-05-27T19:31:47.485Z</time>
      </trkpt>
      <trkpt lat="43.36635" lon="3.61601">
        <ele>2</ele>
        <time>2019-05-27T19:31:53.515Z</time>
      </trkpt>
      <trkpt lat="43.36623" lon="3.61587">
        <ele>2</ele>
        <time>2019-05-27T19:31:57.241Z</time>
      </trkpt>
      <trkpt lat="43.36614" lon="3.61574">
        <ele>1</ele>
        <time>2019-05-27T19:32:00.051Z</time>
      </trkpt>
      <trkpt lat="43.36601" lon="3.61547">
        <ele>1</ele>
        <time>2019-05-27T19:32:05.303Z</time>
      </trkpt>
      <trkpt lat="43.36586" lon="3.61523">
        <ele>1</ele>
        <time>2019-05-27T19:32:10.137Z</time>
      </trkpt>
      <trkpt lat="43.36561" lon="3.61483">
        <ele>1</ele>
        <time>2019-05-27T19:32:18.361Z</time>
      </trkpt>
      <trkpt lat="43.3655" lon="3.61469">
        <ele>2</ele>
        <time>2019-05-27T19:32:21.702Z</time>
      </trkpt>
      <trkpt lat="43.36532" lon="3.6144">
        <ele>2</ele>
        <time>2019-05-27T19:32:27.861Z</time>
      </trkpt>
      <trkpt lat="43.36503" lon="3.61389">
        <ele>2</ele>
        <time>2019-05-27T19:32:38.331Z</time>
      </trkpt>
      <trkpt lat="43.36493" lon="3.61371">
        <ele>2</ele>
        <time>2019-05-27T19:32:41.837Z</time>
      </trkpt>
      <trkpt lat="43.36087" lon="3.6071">
        <ele>2</ele>
        <time>2019-05-27T19:34:59.524Z</time>
      </trkpt>
      <trkpt lat="43.36068" lon="3.60704">
        <ele>2</ele>
        <time>2019-05-27T19:35:03.751Z</time>
      </trkpt>
      <trkpt lat="43.36034" lon="3.60723">
        <ele>2</ele>
        <time>2019-05-27T19:35:11.645Z</time>
      </trkpt>
      <trkpt lat="43.3602" lon="3.60712">
        <ele>2</ele>
        <time>2019-05-27T19:35:15.101Z</time>
      </trkpt>
      <trkpt lat="43.35819" lon="3.60386">
        <ele>1</ele>
        <time>2019-05-27T19:36:24.014Z</time>
      </trkpt>
      <trkpt lat="43.3577" lon="3.60361">
        <ele>2</ele>
        <time>2019-05-27T19:36:36.026Z</time>
      </trkpt>
      <trkpt lat="43.35629" lon="3.60141">
        <ele>2</ele>
        <time>2019-05-27T19:37:26.337Z</time>
      </trkpt>
      <trkpt lat="43.35604" lon="3.60119">
        <ele>2</ele>
        <time>2019-05-27T19:37:33.395Z</time>
      </trkpt>
      <trkpt lat="43.35525" lon="3.59999">
        <ele>1</ele>
        <time>2019-05-27T19:38:01.148Z</time>
      </trkpt>
      <trkpt lat="43.35484" lon="3.59982">
        <ele>2</ele>
        <time>2019-05-27T19:38:11.201Z</time>
      </trkpt>
      <trkpt lat="43.35364" lon="3.59793">
        <ele>2</ele>
        <time>2019-05-27T19:38:52.233Z</time>
      </trkpt>
      <trkpt lat="43.35313" lon="3.59748">
        <ele>2</ele>
        <time>2019-05-27T19:39:05.356Z</time>
      </trkpt>
      <trkpt lat="43.3514" lon="3.5946">
        <ele>1</ele>
        <time>2019-05-27T19:40:03.539Z</time>
      </trkpt>
      <trkpt lat="43.35108" lon="3.59436">
        <ele>2</ele>
        <time>2019-05-27T19:40:11.724Z</time>
      </trkpt>
      <trkpt lat="43.34984" lon="3.59268">
        <ele>2</ele>
        <time>2019-05-27T19:40:51.181Z</time>
      </trkpt>
      <trkpt lat="43.34947" lon="3.59241">
        <ele>2</ele>
        <time>2019-05-27T19:41:00.760Z</time>
      </trkpt>
      <trkpt lat="43.34838" lon="3.59069">
        <ele>1</ele>
        <time>2019-05-27T19:41:37.254Z</time>
      </trkpt>
      <trkpt lat="43.3478" lon="3.59032">
        <ele>2</ele>
        <time>2019-05-27T19:41:50.666Z</time>
      </trkpt>
      <trkpt lat="43.34742" lon="3.59071">
        <ele>2</ele>
        <time>2019-05-27T19:42:00.826Z</time>
      </trkpt>
      <trkpt lat="43.34738" lon="3.59071">
        <ele>2</ele>
        <time>2019-05-27T19:42:01.601Z</time>
      </trkpt>
      <trkpt lat="43.34735" lon="3.5907">
        <ele>2</ele>
        <time>2019-05-27T19:42:02.408Z</time>
      </trkpt>
      <trkpt lat="43.33758" lon="3.5788">
        <ele>1</ele>
        <time>2019-05-27T19:46:54.967Z</time>
      </trkpt>
      <trkpt lat="43.33706" lon="3.57816">
        <ele>2</ele>
        <time>2019-05-27T19:47:10.743Z</time>
      </trkpt>
      <trkpt lat="43.33711" lon="3.57797">
        <ele>2</ele>
        <time>2019-05-27T19:47:14.048Z</time>
      </trkpt>
      <trkpt lat="43.33738" lon="3.57759">
        <ele>1</ele>
        <time>2019-05-27T19:47:22.580Z</time>
      </trkpt>
      <trkpt lat="43.33734" lon="3.57753">
        <ele>2</ele>
        <time>2019-05-27T19:47:24.014Z</time>
      </trkpt>
      <trkpt lat="43.33742" lon="3.57739">
        <ele>2</ele>
        <time>2019-05-27T19:47:27.118Z</time>
      </trkpt>
      <trkpt lat="43.33733" lon="3.57721">
        <ele>2</ele>
        <time>2019-05-27T19:47:30.858Z</time>
      </trkpt>
      <trkpt lat="43.33651" lon="3.57615">
        <ele>1</ele>
        <time>2019-05-27T19:47:57.602Z</time>
      </trkpt>
      <trkpt lat="43.33528" lon="3.57452">
        <ele>2</ele>
        <time>2019-05-27T19:48:40.350Z</time>
      </trkpt>
      <trkpt lat="43.33481" lon="3.57508">
        <ele>3</ele>
        <time>2019-05-27T19:48:55.728Z</time>
      </trkpt>
      <trkpt lat="43.33435" lon="3.57479">
        <ele>3</ele>
        <time>2019-05-27T19:49:07.740Z</time>
      </trkpt>
      <trkpt lat="43.32875" lon="3.5682">
        <ele>3</ele>
        <time>2019-05-27T19:51:50.170Z</time>
      </trkpt>
      <trkpt lat="43.32753" lon="3.56616">
        <ele>3</ele>
        <time>2019-05-27T19:52:36.533Z</time>
      </trkpt>
      <trkpt lat="43.32637" lon="3.56327">
        <ele>1</ele>
        <time>2019-05-27T19:53:37.993Z</time>
      </trkpt>
      <trkpt lat="43.32612" lon="3.56258">
        <ele>2</ele>
        <time>2019-05-27T19:53:52.399Z</time>
      </trkpt>
      <trkpt lat="43.32605" lon="3.56258">
        <ele>2</ele>
        <time>2019-05-27T19:53:54.318Z</time>
      </trkpt>
      <trkpt lat="43.32603" lon="3.56252">
        <ele>2</ele>
        <time>2019-05-27T19:53:55.743Z</time>
      </trkpt>
      <trkpt lat="43.32602" lon="3.56232">
        <ele>2</ele>
        <time>2019-05-27T19:53:59.484Z</time>
      </trkpt>
      <trkpt lat="43.32568" lon="3.56159">
        <ele>4</ele>
        <time>2019-05-27T19:54:16.227Z</time>
      </trkpt>
      <trkpt lat="43.32494" lon="3.56032">
        <ele>3</ele>
        <time>2019-05-27T19:54:44.535Z</time>
      </trkpt>
      <trkpt lat="43.32481" lon="3.56028">
        <ele>3</ele>
        <time>2019-05-27T19:54:47.802Z</time>
      </trkpt>
      <trkpt lat="43.32479" lon="3.56024">
        <ele>3</ele>
        <time>2019-05-27T19:54:48.778Z</time>
      </trkpt>
      <trkpt lat="43.32475" lon="3.56016">
        <ele>3</ele>
        <time>2019-05-27T19:54:50.441Z</time>
      </trkpt>
      <trkpt lat="43.32472" lon="3.56012">
        <ele>3</ele>
        <time>2019-05-27T19:54:51.198Z</time>
      </trkpt>
      <trkpt lat="43.32466" lon="3.55984">
        <ele>3</ele>
        <time>2019-05-27T19:54:55.889Z</time>
      </trkpt>
      <trkpt lat="43.32418" lon="3.5589">
        <ele>2</ele>
        <time>2019-05-27T19:55:14.597Z</time>
      </trkpt>
      <trkpt lat="43.32414" lon="3.55883">
        <ele>2</ele>
        <time>2019-05-27T19:55:15.759Z</time>
      </trkpt>
      <trkpt lat="43.324" lon="3.55858">
        <ele>2</ele>
        <time>2019-05-27T19:55:21.053Z</time>
      </trkpt>
      <trkpt lat="43.32381" lon="3.55821">
        <ele>2</ele>
        <time>2019-05-27T19:55:28.014Z</time>
      </trkpt>
      <trkpt lat="43.32318" lon="3.55707">
        <ele>3</ele>
        <time>2019-05-27T19:55:51.358Z</time>
      </trkpt>
      <trkpt lat="43.3225" lon="3.55589">
        <ele>2</ele>
        <time>2019-05-27T19:56:15.977Z</time>
      </trkpt>
      <trkpt lat="43.32207" lon="3.55506">
        <ele>2</ele>
        <time>2019-05-27T19:56:31.882Z</time>
      </trkpt>
      <trkpt lat="43.32165" lon="3.55424">
        <ele>2</ele>
        <time>2019-05-27T19:56:47.246Z</time>
      </trkpt>
      <trkpt lat="43.32113" lon="3.55279">
        <ele>1</ele>
        <time>2019-05-27T19:57:14.113Z</time>
      </trkpt>
      <trkpt lat="43.32108" lon="3.55263">
        <ele>1</ele>
        <time>2019-05-27T19:57:17.488Z</time>
      </trkpt>
      <trkpt lat="43.32102" lon="3.55243">
        <ele>1</ele>
        <time>2019-05-27T19:57:21.036Z</time>
      </trkpt>
      <trkpt lat="43.32087" lon="3.55195">
        <ele>1</ele>
        <time>2019-05-27T19:57:30.392Z</time>
      </trkpt>
      <trkpt lat="43.32082" lon="3.55185">
        <ele>2</ele>
        <time>2019-05-27T19:57:32.684Z</time>
      </trkpt>
      <trkpt lat="43.3208" lon="3.55179">
        <ele>2</ele>
        <time>2019-05-27T19:57:34.069Z</time>
      </trkpt>
      <trkpt lat="43.32034" lon="3.55029">
        <ele>2</ele>
        <time>2019-05-27T19:58:03.887Z</time>
      </trkpt>
      <trkpt lat="43.32031" lon="3.55021">
        <ele>2</ele>
        <time>2019-05-27T19:58:05.512Z</time>
      </trkpt>
      <trkpt lat="43.32015" lon="3.54965">
        <ele>2</ele>
        <time>2019-05-27T19:58:16.422Z</time>
      </trkpt>
      <trkpt lat="43.32009" lon="3.54945">
        <ele>2</ele>
        <time>2019-05-27T19:58:20.453Z</time>
      </trkpt>
      <trkpt lat="43.31971" lon="3.54822">
        <ele>3</ele>
        <time>2019-05-27T19:58:42.589Z</time>
      </trkpt>
      <trkpt lat="43.3197" lon="3.54816">
        <ele>3</ele>
        <time>2019-05-27T19:58:43.719Z</time>
      </trkpt>
      <trkpt lat="43.31917" lon="3.54658">
        <ele>2</ele>
        <time>2019-05-27T19:59:11.901Z</time>
      </trkpt>
      <trkpt lat="43.31919" lon="3.54657">
        <ele>2</ele>
        <time>2019-05-27T19:59:12.291Z</time>
      </trkpt>
      <trkpt lat="43.31923" lon="3.54655">
        <ele>2</ele>
        <time>2019-05-27T19:59:13.192Z</time>
      </trkpt>
      <trkpt lat="43.31931" lon="3.54651">
        <ele>2</ele>
        <time>2019-05-27T19:59:15.134Z</time>
      </trkpt>
      <trkpt lat="43.31933" lon="3.5465">
        <ele>2</ele>
        <time>2019-05-27T19:59:15.622Z</time>
      </trkpt>
      <trkpt lat="43.31944" lon="3.54599">
        <ele>2</ele>
        <time>2019-05-27T19:59:23.747Z</time>
      </trkpt>
      <trkpt lat="43.31947" lon="3.54595">
        <ele>2</ele>
        <time>2019-05-27T19:59:24.593Z</time>
      </trkpt>
      <trkpt lat="43.31945" lon="3.5459">
        <ele>2</ele>
        <time>2019-05-27T19:59:25.425Z</time>
      </trkpt>
      <trkpt lat="43.3194" lon="3.54577">
        <ele>2</ele>
        <time>2019-05-27T19:59:27.723Z</time>
      </trkpt>
      <trkpt lat="43.31939" lon="3.54573">
        <ele>2</ele>
        <time>2019-05-27T19:59:28.348Z</time>
      </trkpt>
      <trkpt lat="43.31938" lon="3.54571">
        <ele>2</ele>
        <time>2019-05-27T19:59:28.812Z</time>
      </trkpt>
      <trkpt lat="43.31942" lon="3.54559">
        <ele>1</ele>
        <time>2019-05-27T19:59:30.783Z</time>
      </trkpt>
      <trkpt lat="43.31944" lon="3.54549">
        <ele>1</ele>
        <time>2019-05-27T19:59:32.411Z</time>
      </trkpt>
      <trkpt lat="43.31931" lon="3.54506">
        <ele>1</ele>
        <time>2019-05-27T19:59:39.670Z</time>
      </trkpt>
      <trkpt lat="43.31932" lon="3.54478">
        <ele>1</ele>
        <time>2019-05-27T19:59:44.071Z</time>
      </trkpt>
      <trkpt lat="43.31933" lon="3.54309">
        <ele>1</ele>
        <time>2019-05-27T20:00:11.222Z</time>
      </trkpt>
      <trkpt lat="43.31945" lon="3.54253">
        <ele>1</ele>
        <time>2019-05-27T20:00:21.034Z</time>
      </trkpt>
      <trkpt lat="43.31951" lon="3.54231">
        <ele>1</ele>
        <time>2019-05-27T20:00:25.099Z</time>
      </trkpt>
      <trkpt lat="43.31976" lon="3.54093">
        <ele>2</ele>
        <time>2019-05-27T20:00:51.263Z</time>
      </trkpt>
      <trkpt lat="43.32006" lon="3.54007">
        <ele>4</ele>
        <time>2019-05-27T20:01:09.133Z</time>
      </trkpt>
      <trkpt lat="43.32015" lon="3.53991">
        <ele>4</ele>
        <time>2019-05-27T20:01:13.051Z</time>
      </trkpt>
      <trkpt lat="43.32037" lon="3.53959">
        <ele>3</ele>
        <time>2019-05-27T20:01:21.192Z</time>
      </trkpt>
      <trkpt lat="43.32045" lon="3.53947">
        <ele>3</ele>
        <time>2019-05-27T20:01:23.891Z</time>
      </trkpt>
      <trkpt lat="43.32115" lon="3.53838">
        <ele>2</ele>
        <time>2019-05-27T20:01:49.278Z</time>
      </trkpt>
      <trkpt lat="43.32121" lon="3.53776">
        <ele>2</ele>
        <time>2019-05-27T20:01:59.452Z</time>
      </trkpt>
      <trkpt lat="43.32111" lon="3.53715">
        <ele>2</ele>
        <time>2019-05-27T20:02:09.272Z</time>
      </trkpt>
      <trkpt lat="43.32104" lon="3.53695">
        <ele>2</ele>
        <time>2019-05-27T20:02:12.715Z</time>
      </trkpt>
      <trkpt lat="43.32102" lon="3.53689">
        <ele>2</ele>
        <time>2019-05-27T20:02:13.931Z</time>
      </trkpt>
      <trkpt lat="43.32069" lon="3.53634">
        <ele>2</ele>
        <time>2019-05-27T20:02:25.091Z</time>
      </trkpt>
      <trkpt lat="43.32063" lon="3.53627">
        <ele>2</ele>
        <time>2019-05-27T20:02:26.592Z</time>
      </trkpt>
      <trkpt lat="43.32061" lon="3.53621">
        <ele>2</ele>
        <time>2019-05-27T20:02:27.704Z</time>
      </trkpt>
      <trkpt lat="43.3205" lon="3.53596">
        <ele>2</ele>
        <time>2019-05-27T20:02:32.274Z</time>
      </trkpt>
      <trkpt lat="43.32051" lon="3.5359">
        <ele>2</ele>
        <time>2019-05-27T20:02:33.233Z</time>
      </trkpt>
      <trkpt lat="43.3205" lon="3.53585">
        <ele>2</ele>
        <time>2019-05-27T20:02:33.902Z</time>
      </trkpt>
      <trkpt lat="43.32049" lon="3.53569">
        <ele>2</ele>
        <time>2019-05-27T20:02:36.480Z</time>
      </trkpt>
      <trkpt lat="43.32046" lon="3.53561">
        <ele>2</ele>
        <time>2019-05-27T20:02:37.912Z</time>
      </trkpt>
      <trkpt lat="43.32046" lon="3.53544">
        <ele>2</ele>
        <time>2019-05-27T20:02:40.636Z</time>
      </trkpt>
      <trkpt lat="43.32027" lon="3.53451">
        <ele>1</ele>
        <time>2019-05-27T20:02:55.796Z</time>
      </trkpt>
      <trkpt lat="43.32027" lon="3.53435">
        <ele>1</ele>
        <time>2019-05-27T20:02:58.216Z</time>
      </trkpt>
      <trkpt lat="43.32029" lon="3.53434">
        <ele>1</ele>
        <time>2019-05-27T20:02:58.612Z</time>
      </trkpt>
      <trkpt lat="43.32064" lon="3.53456">
        <ele>1</ele>
        <time>2019-05-27T20:03:07.371Z</time>
      </trkpt>
      <trkpt lat="43.3209" lon="3.53454">
        <ele>1</ele>
        <time>2019-05-27T20:03:13.369Z</time>
      </trkpt>
      <trkpt lat="43.32093" lon="3.53445">
        <ele>1</ele>
        <time>2019-05-27T20:03:15.024Z</time>
      </trkpt>
      <trkpt lat="43.32099" lon="3.53418">
        <ele>1</ele>
        <time>2019-05-27T20:03:19.992Z</time>
      </trkpt>
      <trkpt lat="43.32101" lon="3.53407">
        <ele>2</ele>
        <time>2019-05-27T20:03:21.990Z</time>
      </trkpt>
      <trkpt lat="43.32107" lon="3.53362">
        <ele>2</ele>
        <time>2019-05-27T20:03:30.037Z</time>
      </trkpt>
      <trkpt lat="43.32109" lon="3.53331">
        <ele>2</ele>
        <time>2019-05-27T20:03:35.490Z</time>
      </trkpt>
      <trkpt lat="43.3211" lon="3.53322">
        <ele>2</ele>
        <time>2019-05-27T20:03:37.223Z</time>
      </trkpt>
      <trkpt lat="43.32119" lon="3.53245">
        <ele>2</ele>
        <time>2019-05-27T20:03:50.656Z</time>
      </trkpt>
      <trkpt lat="43.32123" lon="3.53233">
        <ele>2</ele>
        <time>2019-05-27T20:03:52.978Z</time>
      </trkpt>
      <trkpt lat="43.32121" lon="3.53228">
        <ele>2</ele>
        <time>2019-05-27T20:03:54.442Z</time>
      </trkpt>
      <trkpt lat="43.32117" lon="3.53204">
        <ele>2</ele>
        <time>2019-05-27T20:04:01.091Z</time>
      </trkpt>
      <trkpt lat="43.32117" lon="3.53201">
        <ele>2</ele>
        <time>2019-05-27T20:04:01.758Z</time>
      </trkpt>
      <trkpt lat="43.32113" lon="3.53201">
        <ele>2</ele>
        <time>2019-05-27T20:04:03.156Z</time>
      </trkpt>
      <trkpt lat="43.32087" lon="3.53186">
        <ele>2</ele>
        <time>2019-05-27T20:04:13.611Z</time>
      </trkpt>
      <trkpt lat="43.32067" lon="3.53197">
        <ele>3</ele>
        <time>2019-05-27T20:04:21.817Z</time>
      </trkpt>
      <trkpt lat="43.31789" lon="3.53106">
        <ele>2</ele>
        <time>2019-05-27T20:06:04.048Z</time>
      </trkpt>
      <trkpt lat="43.31734" lon="3.53078">
        <ele>2</ele>
        <time>2019-05-27T20:06:26.467Z</time>
      </trkpt>
      <trkpt lat="43.31707" lon="3.53056">
        <ele>2</ele>
        <time>2019-05-27T20:06:38.531Z</time>
      </trkpt>
      <trkpt lat="43.31695" lon="3.53049">
        <ele>2</ele>
        <time>2019-05-27T20:06:43.232Z</time>
      </trkpt>
      <trkpt lat="43.31616" lon="3.52938">
        <ele>2</ele>
        <time>2019-05-27T20:07:26.603Z</time>
      </trkpt>
      <trkpt lat="43.31592" lon="3.52844">
        <ele>2</ele>
        <time>2019-05-27T20:07:52.471Z</time>
      </trkpt>
      <trkpt lat="43.31577" lon="3.52694">
        <ele>1</ele>
        <time>2019-05-27T20:08:31.907Z</time>
      </trkpt>
      <trkpt lat="43.31574" lon="3.52654">
        <ele>1</ele>
        <time>2019-05-27T20:08:42.653Z</time>
      </trkpt>
      <trkpt lat="43.31571" lon="3.52627">
        <ele>1</ele>
        <time>2019-05-27T20:08:49.705Z</time>
      </trkpt>
      <trkpt lat="43.31552" lon="3.52438">
        <ele>1</ele>
        <time>2019-05-27T20:09:40.907Z</time>
      </trkpt>
      <trkpt lat="43.31542" lon="3.52417">
        <ele>1</ele>
        <time>2019-05-27T20:09:47.786Z</time>
      </trkpt>
      <trkpt lat="43.31539" lon="3.52411">
        <ele>1</ele>
        <time>2019-05-27T20:09:49.793Z</time>
      </trkpt>
      <trkpt lat="43.31534" lon="3.52384">
        <ele>1</ele>
        <time>2019-05-27T20:09:57.563Z</time>
      </trkpt>
      <trkpt lat="43.31489" lon="3.52168">
        <ele>2</ele>
        <time>2019-05-27T20:10:58.479Z</time>
      </trkpt>
      <trkpt lat="43.31477" lon="3.52041">
        <ele>1</ele>
        <time>2019-05-27T20:11:33.283Z</time>
      </trkpt>
      <trkpt lat="43.31425" lon="3.51755">
        <ele>1</ele>
        <time>2019-05-27T20:12:52.978Z</time>
      </trkpt>
      <trkpt lat="43.31415" lon="3.51699">
        <ele>1</ele>
        <time>2019-05-27T20:13:08.480Z</time>
      </trkpt>
      <trkpt lat="43.31414" lon="3.5169">
        <ele>1</ele>
        <time>2019-05-27T20:13:10.283Z</time>
      </trkpt>
      <trkpt lat="43.31367" lon="3.51433">
        <ele>1</ele>
        <time>2019-05-27T20:14:07.330Z</time>
      </trkpt>
      <trkpt lat="43.31369" lon="3.51248">
        <ele>2</ele>
        <time>2019-05-27T20:14:47.484Z</time>
      </trkpt>
      <trkpt lat="43.31452" lon="3.50675">
        <ele>2</ele>
        <time>2019-05-27T20:16:53.100Z</time>
      </trkpt>
      <trkpt lat="43.3152" lon="3.50204">
        <ele>1</ele>
        <time>2019-05-27T20:18:36.462Z</time>
      </trkpt>
      <trkpt lat="43.31533" lon="3.50195">
        <ele>1</ele>
        <time>2019-05-27T20:18:40.936Z</time>
      </trkpt>
      <trkpt lat="43.31548" lon="3.50006">
        <ele>2</ele>
        <time>2019-05-27T20:19:23.250Z</time>
      </trkpt>
      <trkpt lat="43.31541" lon="3.49983">
        <ele>3</ele>
        <time>2019-05-27T20:19:29.101Z</time>
      </trkpt>
      <trkpt lat="43.31486" lon="3.49937">
        <ele>3</ele>
        <time>2019-05-27T20:19:50.662Z</time>
      </trkpt>
      <trkpt lat="43.31423" lon="3.49921">
        <ele>2</ele>
        <time>2019-05-27T20:20:12.281Z</time>
      </trkpt>
      <trkpt lat="43.31411" lon="3.49903">
        <ele>3</ele>
        <time>2019-05-27T20:20:18.618Z</time>
      </trkpt>
      <trkpt lat="43.31387" lon="3.49897">
        <ele>4</ele>
        <time>2019-05-27T20:20:26.142Z</time>
      </trkpt>
      <trkpt lat="43.31383" lon="3.49894">
        <ele>4</ele>
        <time>2019-05-27T20:20:28.345Z</time>
      </trkpt>
      <trkpt lat="43.31379" lon="3.4989">
        <ele>4</ele>
        <time>2019-05-27T20:20:30.005Z</time>
      </trkpt>
      <trkpt lat="43.31315" lon="3.49843">
        <ele>6</ele>
        <time>2019-05-27T20:20:54.224Z</time>
      </trkpt>
      <trkpt lat="43.31288" lon="3.49805">
        <ele>5</ele>
        <time>2019-05-27T20:21:07.068Z</time>
      </trkpt>
      <trkpt lat="43.31276" lon="3.49741">
        <ele>5</ele>
        <time>2019-05-27T20:21:22.658Z</time>
      </trkpt>
      <trkpt lat="43.31286" lon="3.49632">
        <ele>5</ele>
        <time>2019-05-27T20:21:46.754Z</time>
      </trkpt>
      <trkpt lat="43.31312" lon="3.49551">
        <ele>6</ele>
        <time>2019-05-27T20:22:06.019Z</time>
      </trkpt>
      <trkpt lat="43.31453" lon="3.49296">
        <ele>5</ele>
        <time>2019-05-27T20:23:14.565Z</time>
      </trkpt>
      <trkpt lat="43.31571" lon="3.48929">
        <ele>7</ele>
        <time>2019-05-27T20:24:44.480Z</time>
      </trkpt>
      <trkpt lat="43.31616" lon="3.48846">
        <ele>8</ele>
        <time>2019-05-27T20:25:07.645Z</time>
      </trkpt>
      <trkpt lat="43.31654" lon="3.48807">
        <ele>8</ele>
        <time>2019-05-27T20:25:21.974Z</time>
      </trkpt>
      <trkpt lat="43.31846" lon="3.48702">
        <ele>6</ele>
        <time>2019-05-27T20:26:20.075Z</time>
      </trkpt>
      <trkpt lat="43.31907" lon="3.4865">
        <ele>5</ele>
        <time>2019-05-27T20:26:41.194Z</time>
      </trkpt>
      <trkpt lat="43.31913" lon="3.48644">
        <ele>5</ele>
        <time>2019-05-27T20:26:43.584Z</time>
      </trkpt>
      <trkpt lat="43.31918" lon="3.48644">
        <ele>5</ele>
        <time>2019-05-27T20:26:45.152Z</time>
      </trkpt>
      <trkpt lat="43.31942" lon="3.4861">
        <ele>6</ele>
        <time>2019-05-27T20:26:56.028Z</time>
      </trkpt>
      <trkpt lat="43.31959" lon="3.48579">
        <ele>8</ele>
        <time>2019-05-27T20:27:04.503Z</time>
      </trkpt>
      <trkpt lat="43.31964" lon="3.48577">
        <ele>8</ele>
        <time>2019-05-27T20:27:07.325Z</time>
      </trkpt>
      <trkpt lat="43.3212" lon="3.48374">
        <ele>11</ele>
        <time>2019-05-27T20:28:36.523Z</time>
      </trkpt>
      <trkpt lat="43.32271" lon="3.48212">
        <ele>8</ele>
        <time>2019-05-27T20:29:45.045Z</time>
      </trkpt>
      <trkpt lat="43.32434" lon="3.48109">
        <ele>5</ele>
        <time>2019-05-27T20:30:46.251Z</time>
      </trkpt>
      <trkpt lat="43.32584" lon="3.48047">
        <ele>9</ele>
        <time>2019-05-27T20:31:46.532Z</time>
      </trkpt>
      <trkpt lat="43.32596" lon="3.48036">
        <ele>9</ele>
        <time>2019-05-27T20:31:52.479Z</time>
      </trkpt>
      <trkpt lat="43.32613" lon="3.48026">
        <ele>9</ele>
        <time>2019-05-27T20:32:00.139Z</time>
      </trkpt>
      <trkpt lat="43.32659" lon="3.47989">
        <ele>11</ele>
        <time>2019-05-27T20:32:22.186Z</time>
      </trkpt>
      <trkpt lat="43.32664" lon="3.47954">
        <ele>10</ele>
        <time>2019-05-27T20:32:32.332Z</time>
      </trkpt>
      <trkpt lat="43.32634" lon="3.47892">
        <ele>10</ele>
        <time>2019-05-27T20:32:53.674Z</time>
      </trkpt>
      <trkpt lat="43.32612" lon="3.4785">
        <ele>11</ele>
        <time>2019-05-27T20:33:07.723Z</time>
      </trkpt>
      <trkpt lat="43.32601" lon="3.47828">
        <ele>11</ele>
        <time>2019-05-27T20:33:14.371Z</time>
      </trkpt>
      <trkpt lat="43.32534" lon="3.47681">
        <ele>10</ele>
        <time>2019-05-27T20:33:57.547Z</time>
      </trkpt>
      <trkpt lat="43.32492" lon="3.47656">
        <ele>9</ele>
        <time>2019-05-27T20:34:12.461Z</time>
      </trkpt>
      <trkpt lat="43.32417" lon="3.47573">
        <ele>8</ele>
        <time>2019-05-27T20:34:44.534Z</time>
      </trkpt>
      <trkpt lat="43.32308" lon="3.47453">
        <ele>7</ele>
        <time>2019-05-27T20:35:33.141Z</time>
      </trkpt>
      <trkpt lat="43.32207" lon="3.47395">
        <ele>7</ele>
        <time>2019-05-27T20:36:14.681Z</time>
      </trkpt>
      <trkpt lat="43.32089" lon="3.4735">
        <ele>6</ele>
        <time>2019-05-27T20:37:03.375Z</time>
      </trkpt>
      <trkpt lat="43.3196" lon="3.47333">
        <ele>8</ele>
        <time>2019-05-27T20:37:53.863Z</time>
      </trkpt>
      <trkpt lat="43.31822" lon="3.47357">
        <ele>5</ele>
        <time>2019-05-27T20:38:47.166Z</time>
      </trkpt>
      <trkpt lat="43.31805" lon="3.4735">
        <ele>5</ele>
        <time>2019-05-27T20:38:53.928Z</time>
      </trkpt>
      <trkpt lat="43.31784" lon="3.47344">
        <ele>5</ele>
        <time>2019-05-27T20:39:02.285Z</time>
      </trkpt>
      <trkpt lat="43.31744" lon="3.47336">
        <ele>5</ele>
        <time>2019-05-27T20:39:12.639Z</time>
      </trkpt>
      <trkpt lat="43.31726" lon="3.47334">
        <ele>6</ele>
        <time>2019-05-27T20:39:17.484Z</time>
      </trkpt>
      <trkpt lat="43.31667" lon="3.47335">
        <ele>9</ele>
        <time>2019-05-27T20:39:33.013Z</time>
      </trkpt>
      <trkpt lat="43.31659" lon="3.47343">
        <ele>9</ele>
        <time>2019-05-27T20:39:35.543Z</time>
      </trkpt>
      <trkpt lat="43.31625" lon="3.47351">
        <ele>9</ele>
        <time>2019-05-27T20:39:45.272Z</time>
      </trkpt>
      <trkpt lat="43.31608" lon="3.47346">
        <ele>9</ele>
        <time>2019-05-27T20:39:50.309Z</time>
      </trkpt>
      <trkpt lat="43.31603" lon="3.47346">
        <ele>9</ele>
        <time>2019-05-27T20:39:51.759Z</time>
      </trkpt>
      <trkpt lat="43.31601" lon="3.47342">
        <ele>9</ele>
        <time>2019-05-27T20:39:52.654Z</time>
      </trkpt>
      <trkpt lat="43.31578" lon="3.47284">
        <ele>10</ele>
        <time>2019-05-27T20:40:06.030Z</time>
      </trkpt>
      <trkpt lat="43.31577" lon="3.4727">
        <ele>10</ele>
        <time>2019-05-27T20:40:09.005Z</time>
      </trkpt>
      <trkpt lat="43.31573" lon="3.47253">
        <ele>10</ele>
        <time>2019-05-27T20:40:12.618Z</time>
      </trkpt>
      <trkpt lat="43.31571" lon="3.47248">
        <ele>10</ele>
        <time>2019-05-27T20:40:13.697Z</time>
      </trkpt>
      <trkpt lat="43.31549" lon="3.47193">
        <ele>9</ele>
        <time>2019-05-27T20:40:26.218Z</time>
      </trkpt>
      <trkpt lat="43.31545" lon="3.47184">
        <ele>9</ele>
        <time>2019-05-27T20:40:28.457Z</time>
      </trkpt>
      <trkpt lat="43.31541" lon="3.47153">
        <ele>8</ele>
        <time>2019-05-27T20:40:34.467Z</time>
      </trkpt>
      <trkpt lat="43.31538" lon="3.47146">
        <ele>8</ele>
        <time>2019-05-27T20:40:35.674Z</time>
      </trkpt>
      <trkpt lat="43.3153" lon="3.47137">
        <ele>9</ele>
        <time>2019-05-27T20:40:37.805Z</time>
      </trkpt>
      <trkpt lat="43.31528" lon="3.47135">
        <ele>9</ele>
        <time>2019-05-27T20:40:38.405Z</time>
      </trkpt>
      <trkpt lat="43.31526" lon="3.4713">
        <ele>9</ele>
        <time>2019-05-27T20:40:39.426Z</time>
      </trkpt>
      <trkpt lat="43.31527" lon="3.47126">
        <ele>9</ele>
        <time>2019-05-27T20:40:40.119Z</time>
      </trkpt>
      <trkpt lat="43.31527" lon="3.4711">
        <ele>9</ele>
        <time>2019-05-27T20:40:42.555Z</time>
      </trkpt>
      <trkpt lat="43.31527" lon="3.47097">
        <ele>9</ele>
        <time>2019-05-27T20:40:44.129Z</time>
      </trkpt>
      <trkpt lat="43.31525" lon="3.47068">
        <ele>8</ele>
        <time>2019-05-27T20:40:48.605Z</time>
      </trkpt>
      <trkpt lat="43.31523" lon="3.47063">
        <ele>7</ele>
        <time>2019-05-27T20:40:49.339Z</time>
      </trkpt>
      <trkpt lat="43.31521" lon="3.47058">
        <ele>7</ele>
        <time>2019-05-27T20:40:50.234Z</time>
      </trkpt>
      <trkpt lat="43.3151" lon="3.47044">
        <ele>7</ele>
        <time>2019-05-27T20:40:52.837Z</time>
      </trkpt>
      <trkpt lat="43.31502" lon="3.47036">
        <ele>7</ele>
        <time>2019-05-27T20:40:54.731Z</time>
      </trkpt>
      <trkpt lat="43.31485" lon="3.47007">
        <ele>8</ele>
        <time>2019-05-27T20:40:59.734Z</time>
      </trkpt>
      <trkpt lat="43.31479" lon="3.46995">
        <ele>7</ele>
        <time>2019-05-27T20:41:01.625Z</time>
      </trkpt>
      <trkpt lat="43.31478" lon="3.46988">
        <ele>7</ele>
        <time>2019-05-27T20:41:02.499Z</time>
      </trkpt>
      <trkpt lat="43.31477" lon="3.46983">
        <ele>7</ele>
        <time>2019-05-27T20:41:03.299Z</time>
      </trkpt>
      <trkpt lat="43.31478" lon="3.46976">
        <ele>7</ele>
        <time>2019-05-27T20:41:03.985Z</time>
      </trkpt>
      <trkpt lat="43.31482" lon="3.46959">
        <ele>7</ele>
        <time>2019-05-27T20:41:06.469Z</time>
      </trkpt>
      <trkpt lat="43.31512" lon="3.46881">
        <ele>5</ele>
        <time>2019-05-27T20:41:17.529Z</time>
      </trkpt>
      <trkpt lat="43.31522" lon="3.46862">
        <ele>6</ele>
        <time>2019-05-27T20:41:20.931Z</time>
      </trkpt>
      <trkpt lat="43.31527" lon="3.46851">
        <ele>7</ele>
        <time>2019-05-27T20:41:22.592Z</time>
      </trkpt>
      <trkpt lat="43.31532" lon="3.46841">
        <ele>7</ele>
        <time>2019-05-27T20:41:23.916Z</time>
      </trkpt>
      <trkpt lat="43.31564" lon="3.46859">
        <ele>7</ele>
        <time>2019-05-27T20:41:29.955Z</time>
      </trkpt>
      <trkpt lat="43.31571" lon="3.46877">
        <ele>6</ele>
        <time>2019-05-27T20:41:34.920Z</time>
      </trkpt>
      <trkpt lat="43.3162" lon="3.46863">
        <ele>8</ele>
        <time>2019-05-27T20:41:52.777Z</time>
      </trkpt>
      <trkpt lat="43.31779" lon="3.46827">
        <ele>8</ele>
        <time>2019-05-27T20:42:56.768Z</time>
      </trkpt>
      <trkpt lat="43.31984" lon="3.4675">
        <ele>6</ele>
        <time>2019-05-27T20:44:12.519Z</time>
      </trkpt>
      <trkpt lat="43.31985" lon="3.46744">
        <ele>5</ele>
        <time>2019-05-27T20:44:14.358Z</time>
      </trkpt>
      <trkpt lat="43.31983" lon="3.46732">
        <ele>5</ele>
        <time>2019-05-27T20:44:17.317Z</time>
      </trkpt>
      <trkpt lat="43.31991" lon="3.46729">
        <ele>5</ele>
        <time>2019-05-27T20:44:19.081Z</time>
      </trkpt>
      <trkpt lat="43.31989" lon="3.46687">
        <ele>5</ele>
        <time>2019-05-27T20:44:29.975Z</time>
      </trkpt>
      <trkpt lat="43.31694" lon="3.44855">
        <ele>3</ele>
        <time>2019-05-27T20:52:49.087Z</time>
      </trkpt>
      <trkpt lat="43.31672" lon="3.44732">
        <ele>5</ele>
        <time>2019-05-27T20:53:24.462Z</time>
      </trkpt>
      <trkpt lat="43.31664" lon="3.44692">
        <ele>5</ele>
        <time>2019-05-27T20:53:36.124Z</time>
      </trkpt>
      <trkpt lat="43.31572" lon="3.44154">
        <ele>8</ele>
        <time>2019-05-27T20:56:06.836Z</time>
      </trkpt>
      <trkpt lat="43.31552" lon="3.44117">
        <ele>5</ele>
        <time>2019-05-27T20:56:18.206Z</time>
      </trkpt>
      <trkpt lat="43.31499" lon="3.44064">
        <ele>4</ele>
        <time>2019-05-27T20:56:40.896Z</time>
      </trkpt>
      <trkpt lat="43.31475" lon="3.44065">
        <ele>4</ele>
        <time>2019-05-27T20:56:49.423Z</time>
      </trkpt>
      <trkpt lat="43.3146" lon="3.4407">
        <ele>4</ele>
        <time>2019-05-27T20:56:54.635Z</time>
      </trkpt>
      <trkpt lat="43.31422" lon="3.44084">
        <ele>3</ele>
        <time>2019-05-27T20:57:08.386Z</time>
      </trkpt>
      <trkpt lat="43.31421" lon="3.44022">
        <ele>3</ele>
        <time>2019-05-27T20:57:17.779Z</time>
      </trkpt>
      <trkpt lat="43.31399" lon="3.44027">
        <ele>2</ele>
        <time>2019-05-27T20:57:25.780Z</time>
      </trkpt>
      <trkpt lat="43.31384" lon="3.44033">
        <ele>2</ele>
        <time>2019-05-27T20:57:31.485Z</time>
      </trkpt>
      <trkpt lat="43.3135" lon="3.44027">
        <ele>2</ele>
        <time>2019-05-27T20:57:43.891Z</time>
      </trkpt>
      <trkpt lat="43.31144" lon="3.43918">
        <ele>3</ele>
        <time>2019-05-27T20:59:05.956Z</time>
      </trkpt>
      <trkpt lat="43.31137" lon="3.43914">
        <ele>3</ele>
        <time>2019-05-27T20:59:08.644Z</time>
      </trkpt>
      <trkpt lat="43.31118" lon="3.43904">
        <ele>2</ele>
        <time>2019-05-27T20:59:16.409Z</time>
      </trkpt>
      <trkpt lat="43.30807" lon="3.43764">
        <ele>3</ele>
        <time>2019-05-27T21:01:19.966Z</time>
      </trkpt>
      <trkpt lat="43.30771" lon="3.43746">
        <ele>3</ele>
        <time>2019-05-27T21:01:34.253Z</time>
      </trkpt>
      <trkpt lat="43.30763" lon="3.43743">
        <ele>3</ele>
        <time>2019-05-27T21:01:37.412Z</time>
      </trkpt>
      <trkpt lat="43.30514" lon="3.43623">
        <ele>4</ele>
        <time>2019-05-27T21:03:15.694Z</time>
      </trkpt>
      <trkpt lat="43.3046" lon="3.43568">
        <ele>3</ele>
        <time>2019-05-27T21:03:40.314Z</time>
      </trkpt>
      <trkpt lat="43.30371" lon="3.43446">
        <ele>3</ele>
        <time>2019-05-27T21:04:26.454Z</time>
      </trkpt>
      <trkpt lat="43.30336" lon="3.43284">
        <ele>3</ele>
        <time>2019-05-27T21:05:11.900Z</time>
      </trkpt>
      <trkpt lat="43.30315" lon="3.42905">
        <ele>3</ele>
        <time>2019-05-27T21:06:56.155Z</time>
      </trkpt>
      <trkpt lat="43.30291" lon="3.42638">
        <ele>4</ele>
        <time>2019-05-27T21:08:10.110Z</time>
      </trkpt>
      <trkpt lat="43.30282" lon="3.42543">
        <ele>3</ele>
        <time>2019-05-27T21:08:36.854Z</time>
      </trkpt>
      <trkpt lat="43.30282" lon="3.4246">
        <ele>3</ele>
        <time>2019-05-27T21:08:59.734Z</time>
      </trkpt>
      <trkpt lat="43.30284" lon="3.42415">
        <ele>4</ele>
        <time>2019-05-27T21:09:12.235Z</time>
      </trkpt>
      <trkpt lat="43.30279" lon="3.4239">
        <ele>4</ele>
        <time>2019-05-27T21:09:19.050Z</time>
      </trkpt>
      <trkpt lat="43.30246" lon="3.41955">
        <ele>4</ele>
        <time>2019-05-27T21:11:13.151Z</time>
      </trkpt>
      <trkpt lat="43.30253" lon="3.41909">
        <ele>4</ele>
        <time>2019-05-27T21:11:25.270Z</time>
      </trkpt>
      <trkpt lat="43.3026" lon="3.41892">
        <ele>4</ele>
        <time>2019-05-27T21:11:30.490Z</time>
      </trkpt>
      <trkpt lat="43.30256" lon="3.41893">
        <ele>4</ele>
        <time>2019-05-27T21:11:31.516Z</time>
      </trkpt>
      <trkpt lat="43.30241" lon="3.41896">
        <ele>3</ele>
        <time>2019-05-27T21:11:34.688Z</time>
      </trkpt>
      <trkpt lat="43.30215" lon="3.419">
        <ele>3</ele>
        <time>2019-05-27T21:11:40.424Z</time>
      </trkpt>
      <trkpt lat="43.30205" lon="3.419">
        <ele>3</ele>
        <time>2019-05-27T21:11:42.647Z</time>
      </trkpt>
      <trkpt lat="43.30201" lon="3.4189">
        <ele>3</ele>
        <time>2019-05-27T21:11:44.346Z</time>
      </trkpt>
      <trkpt lat="43.30192" lon="3.41858">
        <ele>3</ele>
        <time>2019-05-27T21:11:50.010Z</time>
      </trkpt>
      <trkpt lat="43.30189" lon="3.41851">
        <ele>3</ele>
        <time>2019-05-27T21:11:51.167Z</time>
      </trkpt>
      <trkpt lat="43.30193" lon="3.41846">
        <ele>3</ele>
        <time>2019-05-27T21:11:52.356Z</time>
      </trkpt>
      <trkpt lat="43.30202" lon="3.41787">
        <ele>3</ele>
        <time>2019-05-27T21:12:01.781Z</time>
      </trkpt>
      <trkpt lat="43.3019" lon="3.41743">
        <ele>3</ele>
        <time>2019-05-27T21:12:09.133Z</time>
      </trkpt>
      <trkpt lat="43.30186" lon="3.41734">
        <ele>3</ele>
        <time>2019-05-27T21:12:10.753Z</time>
      </trkpt>
      <trkpt lat="43.302" lon="3.41721">
        <ele>3</ele>
        <time>2019-05-27T21:12:16.850Z</time>
      </trkpt>
      <trkpt lat="43.3016" lon="3.41128">
        <ele>3</ele>
        <time>2019-05-27T21:14:58.738Z</time>
      </trkpt>
      <trkpt lat="43.30132" lon="3.40725">
        <ele>3</ele>
        <time>2019-05-27T21:16:49.778Z</time>
      </trkpt>
      <trkpt lat="43.30099" lon="3.40489">
        <ele>6</ele>
        <time>2019-05-27T21:18:00.707Z</time>
      </trkpt>
      <trkpt lat="43.30101" lon="3.40482">
        <ele>6</ele>
        <time>2019-05-27T21:18:03.126Z</time>
      </trkpt>
      <trkpt lat="43.301" lon="3.40475">
        <ele>6</ele>
        <time>2019-05-27T21:18:05.177Z</time>
      </trkpt>
      <trkpt lat="43.30094" lon="3.40444">
        <ele>5</ele>
        <time>2019-05-27T21:18:14.286Z</time>
      </trkpt>
      <trkpt lat="43.30105" lon="3.40438">
        <ele>5</ele>
        <time>2019-05-27T21:18:19.332Z</time>
      </trkpt>
      <trkpt lat="43.30098" lon="3.40399">
        <ele>5</ele>
        <time>2019-05-27T21:18:30.652Z</time>
      </trkpt>
      <trkpt lat="43.30098" lon="3.40394">
        <ele>5</ele>
        <time>2019-05-27T21:18:32.100Z</time>
      </trkpt>
      <trkpt lat="43.30093" lon="3.40363">
        <ele>5</ele>
        <time>2019-05-27T21:18:40.225Z</time>
      </trkpt>
      <trkpt lat="43.30079" lon="3.40369">
        <ele>5</ele>
        <time>2019-05-27T21:18:45.842Z</time>
      </trkpt>
      <trkpt lat="43.30078" lon="3.40368">
        <ele>5</ele>
        <time>2019-05-27T21:18:46.029Z</time>
      </trkpt>
      <trkpt lat="43.30058" lon="3.40327">
        <ele>5</ele>
        <time>2019-05-27T21:18:58.899Z</time>
      </trkpt>
      <trkpt lat="43.30052" lon="3.40311">
        <ele>4</ele>
        <time>2019-05-27T21:19:03.541Z</time>
      </trkpt>
      <trkpt lat="43.30014" lon="3.40204">
        <ele>4</ele>
        <time>2019-05-27T21:19:33.099Z</time>
      </trkpt>
      <trkpt lat="43.29884" lon="3.39885">
        <ele>2</ele>
        <time>2019-05-27T21:21:05.712Z</time>
      </trkpt>
      <trkpt lat="43.29653" lon="3.39371">
        <ele>3</ele>
        <time>2019-05-27T21:23:53.331Z</time>
      </trkpt>
      <trkpt lat="43.29602" lon="3.39235">
        <ele>4</ele>
        <time>2019-05-27T21:24:35.007Z</time>
      </trkpt>
      <trkpt lat="43.29523" lon="3.38974">
        <ele>2</ele>
        <time>2019-05-27T21:25:46.518Z</time>
      </trkpt>
      <trkpt lat="43.29474" lon="3.38738">
        <ele>2</ele>
        <time>2019-05-27T21:26:51.070Z</time>
      </trkpt>
      <trkpt lat="43.29457" lon="3.38619">
        <ele>3</ele>
        <time>2019-05-27T21:27:24.464Z</time>
      </trkpt>
      <trkpt lat="43.29321" lon="3.37627">
        <ele>3</ele>
        <time>2019-05-27T21:32:03.040Z</time>
      </trkpt>
      <trkpt lat="43.29263" lon="3.37191">
        <ele>3</ele>
        <time>2019-05-27T21:34:02.878Z</time>
      </trkpt>
      <trkpt lat="43.29254" lon="3.37135">
        <ele>4</ele>
        <time>2019-05-27T21:34:14.056Z</time>
      </trkpt>
      <trkpt lat="43.29211" lon="3.37147">
        <ele>4</ele>
        <time>2019-05-27T21:34:25.790Z</time>
      </trkpt>
      <trkpt lat="43.29194" lon="3.37151">
        <ele>3</ele>
        <time>2019-05-27T21:34:30.188Z</time>
      </trkpt>
      <trkpt lat="43.29185" lon="3.37154">
        <ele>3</ele>
        <time>2019-05-27T21:34:32.674Z</time>
      </trkpt>
      <trkpt lat="43.29172" lon="3.37157">
        <ele>3</ele>
        <time>2019-05-27T21:34:36.158Z</time>
      </trkpt>
      <trkpt lat="43.29147" lon="3.37164">
        <ele>3</ele>
        <time>2019-05-27T21:34:43.207Z</time>
      </trkpt>
      <trkpt lat="43.29115" lon="3.37173">
        <ele>2</ele>
        <time>2019-05-27T21:34:51.937Z</time>
      </trkpt>
      <trkpt lat="43.29088" lon="3.37181">
        <ele>2</ele>
        <time>2019-05-27T21:34:59.911Z</time>
      </trkpt>
      <trkpt lat="43.29073" lon="3.37189">
        <ele>2</ele>
        <time>2019-05-27T21:35:04.203Z</time>
      </trkpt>
      <trkpt lat="43.29065" lon="3.37189">
        <ele>2</ele>
        <time>2019-05-27T21:35:06.326Z</time>
      </trkpt>
      <trkpt lat="43.29062" lon="3.37186">
        <ele>2</ele>
        <time>2019-05-27T21:35:07.318Z</time>
      </trkpt>
      <trkpt lat="43.29028" lon="3.37118">
        <ele>2</ele>
        <time>2019-05-27T21:35:21.632Z</time>
      </trkpt>
      <trkpt lat="43.29031" lon="3.37115">
        <ele>2</ele>
        <time>2019-05-27T21:35:22.683Z</time>
      </trkpt>
      <trkpt lat="43.29036" lon="3.3711">
        <ele>2</ele>
        <time>2019-05-27T21:35:25.154Z</time>
      </trkpt>
      <trkpt lat="43.29046" lon="3.37105">
        <ele>2</ele>
        <time>2019-05-27T21:35:29.601Z</time>
      </trkpt>
      <trkpt lat="43.29234" lon="3.37072">
        <ele>4</ele>
        <time>2019-05-27T21:36:43.947Z</time>
      </trkpt>
      <trkpt lat="43.29245" lon="3.37053">
        <ele>4</ele>
        <time>2019-05-27T21:36:50.537Z</time>
      </trkpt>
      <trkpt lat="43.29203" lon="3.36782">
        <ele>1</ele>
        <time>2019-05-27T21:38:05.390Z</time>
      </trkpt>
      <trkpt lat="43.29179" lon="3.36662">
        <ele>2</ele>
        <time>2019-05-27T21:38:39.088Z</time>
      </trkpt>
      <trkpt lat="43.2914" lon="3.36459">
        <ele>4</ele>
        <time>2019-05-27T21:39:36.973Z</time>
      </trkpt>
      <trkpt lat="43.29108" lon="3.36294">
        <ele>4</ele>
        <time>2019-05-27T21:40:24.541Z</time>
      </trkpt>
      <trkpt lat="43.29094" lon="3.36219">
        <ele>4</ele>
        <time>2019-05-27T21:40:45.519Z</time>
      </trkpt>
      <trkpt lat="43.29098" lon="3.36215">
        <ele>4</ele>
        <time>2019-05-27T21:40:47.015Z</time>
      </trkpt>
      <trkpt lat="43.29085" lon="3.36151">
        <ele>4</ele>
        <time>2019-05-27T21:41:01.190Z</time>
      </trkpt>
      <trkpt lat="43.29078" lon="3.36126">
        <ele>3</ele>
        <time>2019-05-27T21:41:06.975Z</time>
      </trkpt>
      <trkpt lat="43.29075" lon="3.36102">
        <ele>3</ele>
        <time>2019-05-27T21:41:11.907Z</time>
      </trkpt>
      <trkpt lat="43.29073" lon="3.36079">
        <ele>2</ele>
        <time>2019-05-27T21:41:16.914Z</time>
      </trkpt>
      <trkpt lat="43.29068" lon="3.36034">
        <ele>2</ele>
        <time>2019-05-27T21:41:24.540Z</time>
      </trkpt>
      <trkpt lat="43.29045" lon="3.35633">
        <ele>2</ele>
        <time>2019-05-27T21:42:31.402Z</time>
      </trkpt>
      <trkpt lat="43.29063" lon="3.35315">
        <ele>4</ele>
        <time>2019-05-27T21:43:26.792Z</time>
      </trkpt>
      <trkpt lat="43.29084" lon="3.35178">
        <ele>4</ele>
        <time>2019-05-27T21:43:51.001Z</time>
      </trkpt>
      <trkpt lat="43.29111" lon="3.35085">
        <ele>4</ele>
        <time>2019-05-27T21:44:07.508Z</time>
      </trkpt>
      <trkpt lat="43.29122" lon="3.35054">
        <ele>3</ele>
        <time>2019-05-27T21:44:13.142Z</time>
      </trkpt>
      <trkpt lat="43.29147" lon="3.34982">
        <ele>2</ele>
        <time>2019-05-27T21:44:25.959Z</time>
      </trkpt>
      <trkpt lat="43.2927" lon="3.34652">
        <ele>3</ele>
        <time>2019-05-27T21:45:26.228Z</time>
      </trkpt>
      <trkpt lat="43.29435" lon="3.34262">
        <ele>4</ele>
        <time>2019-05-27T21:46:42.273Z</time>
      </trkpt>
      <trkpt lat="43.29538" lon="3.33994">
        <ele>4</ele>
        <time>2019-05-27T21:47:34.857Z</time>
      </trkpt>
      <trkpt lat="43.29565" lon="3.33907">
        <ele>4</ele>
        <time>2019-05-27T21:47:52.422Z</time>
      </trkpt>
      <trkpt lat="43.29582" lon="3.33804">
        <ele>5</ele>
        <time>2019-05-27T21:48:11.963Z</time>
      </trkpt>
      <trkpt lat="43.29589" lon="3.33774">
        <ele>5</ele>
        <time>2019-05-27T21:48:18.026Z</time>
      </trkpt>
      <trkpt lat="43.2959" lon="3.33768">
        <ele>5</ele>
        <time>2019-05-27T21:48:19.050Z</time>
      </trkpt>
      <trkpt lat="43.29592" lon="3.33757">
        <ele>5</ele>
        <time>2019-05-27T21:48:21.198Z</time>
      </trkpt>
      <trkpt lat="43.29591" lon="3.3375">
        <ele>6</ele>
        <time>2019-05-27T21:48:22.452Z</time>
      </trkpt>
      <trkpt lat="43.29591" lon="3.33719">
        <ele>5</ele>
        <time>2019-05-27T21:48:28.255Z</time>
      </trkpt>
      <trkpt lat="43.2961" lon="3.33606">
        <ele>4</ele>
        <time>2019-05-27T21:48:49.932Z</time>
      </trkpt>
      <trkpt lat="43.29664" lon="3.33463">
        <ele>5</ele>
        <time>2019-05-27T21:49:19.281Z</time>
      </trkpt>
      <trkpt lat="43.29699" lon="3.33407">
        <ele>5</ele>
        <time>2019-05-27T21:49:32.692Z</time>
      </trkpt>
      <trkpt lat="43.29762" lon="3.3335">
        <ele>5</ele>
        <time>2019-05-27T21:49:51.394Z</time>
      </trkpt>
      <trkpt lat="43.29909" lon="3.33271">
        <ele>6</ele>
        <time>2019-05-27T21:50:27.795Z</time>
      </trkpt>
      <trkpt lat="43.30026" lon="3.33227">
        <ele>4</ele>
        <time>2019-05-27T21:50:55.358Z</time>
      </trkpt>
      <trkpt lat="43.30132" lon="3.33184">
        <ele>6</ele>
        <time>2019-05-27T21:51:21.560Z</time>
      </trkpt>
      <trkpt lat="43.30196" lon="3.3316">
        <ele>7</ele>
        <time>2019-05-27T21:51:38.536Z</time>
      </trkpt>
      <trkpt lat="43.30337" lon="3.3307">
        <ele>7</ele>
        <time>2019-05-27T21:52:16.241Z</time>
      </trkpt>
      <trkpt lat="43.30438" lon="3.32948">
        <ele>6</ele>
        <time>2019-05-27T21:52:47.894Z</time>
      </trkpt>
      <trkpt lat="43.3044" lon="3.32943">
        <ele>6</ele>
        <time>2019-05-27T21:52:48.583Z</time>
      </trkpt>
      <trkpt lat="43.30444" lon="3.32939">
        <ele>6</ele>
        <time>2019-05-27T21:52:49.837Z</time>
      </trkpt>
      <trkpt lat="43.30571" lon="3.32729">
        <ele>9</ele>
        <time>2019-05-27T21:53:39.335Z</time>
      </trkpt>
      <trkpt lat="43.3086" lon="3.32299">
        <ele>10</ele>
        <time>2019-05-27T21:55:25.682Z</time>
      </trkpt>
      <trkpt lat="43.31144" lon="3.31811">
        <ele>10</ele>
        <time>2019-05-27T21:57:16.619Z</time>
      </trkpt>
      <trkpt lat="43.31392" lon="3.31383">
        <ele>11</ele>
        <time>2019-05-27T21:58:54.293Z</time>
      </trkpt>
      <trkpt lat="43.31442" lon="3.31294">
        <ele>11</ele>
        <time>2019-05-27T21:59:13.259Z</time>
      </trkpt>
      <trkpt lat="43.31449" lon="3.31282">
        <ele>11</ele>
        <time>2019-05-27T21:59:15.807Z</time>
      </trkpt>
      <trkpt lat="43.31453" lon="3.31277">
        <ele>11</ele>
        <time>2019-05-27T21:59:17.019Z</time>
      </trkpt>
      <trkpt lat="43.3146" lon="3.31265">
        <ele>11</ele>
        <time>2019-05-27T21:59:19.344Z</time>
      </trkpt>
      <trkpt lat="43.31483" lon="3.31221">
        <ele>11</ele>
        <time>2019-05-27T21:59:28.094Z</time>
      </trkpt>
      <trkpt lat="43.31562" lon="3.31045">
        <ele>10</ele>
        <time>2019-05-27T21:59:59.995Z</time>
      </trkpt>
      <trkpt lat="43.31684" lon="3.30503">
        <ele>9</ele>
        <time>2019-05-27T22:01:27.147Z</time>
      </trkpt>
      <trkpt lat="43.31688" lon="3.30365">
        <ele>9</ele>
        <time>2019-05-27T22:01:48.659Z</time>
      </trkpt>
      <trkpt lat="43.31662" lon="3.30204">
        <ele>9</ele>
        <time>2019-05-27T22:02:13.533Z</time>
      </trkpt>
      <trkpt lat="43.31661" lon="3.30191">
        <ele>9</ele>
        <time>2019-05-27T22:02:15.812Z</time>
      </trkpt>
      <trkpt lat="43.31663" lon="3.30181">
        <ele>9</ele>
        <time>2019-05-27T22:02:17.442Z</time>
      </trkpt>
      <trkpt lat="43.31655" lon="3.30126">
        <ele>7</ele>
        <time>2019-05-27T22:02:26.192Z</time>
      </trkpt>
      <trkpt lat="43.31652" lon="3.30101">
        <ele>7</ele>
        <time>2019-05-27T22:02:30.211Z</time>
      </trkpt>
      <trkpt lat="43.31648" lon="3.30095">
        <ele>7</ele>
        <time>2019-05-27T22:02:31.749Z</time>
      </trkpt>
      <trkpt lat="43.31643" lon="3.30086">
        <ele>7</ele>
        <time>2019-05-27T22:02:33.556Z</time>
      </trkpt>
      <trkpt lat="43.31636" lon="3.30057">
        <ele>6</ele>
        <time>2019-05-27T22:02:38.350Z</time>
      </trkpt>
      <trkpt lat="43.31635" lon="3.30053">
        <ele>6</ele>
        <time>2019-05-27T22:02:39.525Z</time>
      </trkpt>
      <trkpt lat="43.31523" lon="3.29377">
        <ele>9</ele>
        <time>2019-05-27T22:04:48.788Z</time>
      </trkpt>
      <trkpt lat="43.31524" lon="3.29367">
        <ele>10</ele>
        <time>2019-05-27T22:04:50.610Z</time>
      </trkpt>
      <trkpt lat="43.31525" lon="3.29356">
        <ele>10</ele>
        <time>2019-05-27T22:04:52.695Z</time>
      </trkpt>
      <trkpt lat="43.31523" lon="3.29341">
        <ele>10</ele>
        <time>2019-05-27T22:04:55.474Z</time>
      </trkpt>
      <trkpt lat="43.31522" lon="3.29336">
        <ele>10</ele>
        <time>2019-05-27T22:04:56.549Z</time>
      </trkpt>
      <trkpt lat="43.31519" lon="3.2933">
        <ele>12</ele>
        <time>2019-05-27T22:04:58.082Z</time>
      </trkpt>
      <trkpt lat="43.31513" lon="3.29151">
        <ele>12</ele>
        <time>2019-05-27T22:05:31.067Z</time>
      </trkpt>
      <trkpt lat="43.3154" lon="3.28859">
        <ele>9</ele>
        <time>2019-05-27T22:06:20.153Z</time>
      </trkpt>
      <trkpt lat="43.31598" lon="3.28563">
        <ele>10</ele>
        <time>2019-05-27T22:07:11.504Z</time>
      </trkpt>
      <trkpt lat="43.31698" lon="3.28194">
        <ele>10</ele>
        <time>2019-05-27T22:08:18.170Z</time>
      </trkpt>
      <trkpt lat="43.31703" lon="3.28182">
        <ele>10</ele>
        <time>2019-05-27T22:08:20.436Z</time>
      </trkpt>
      <trkpt lat="43.31707" lon="3.28174">
        <ele>10</ele>
        <time>2019-05-27T22:08:21.941Z</time>
      </trkpt>
      <trkpt lat="43.31727" lon="3.281">
        <ele>10</ele>
        <time>2019-05-27T22:08:34.738Z</time>
      </trkpt>
      <trkpt lat="43.31725" lon="3.28094">
        <ele>10</ele>
        <time>2019-05-27T22:08:35.712Z</time>
      </trkpt>
      <trkpt lat="43.31727" lon="3.2809">
        <ele>10</ele>
        <time>2019-05-27T22:08:36.368Z</time>
      </trkpt>
      <trkpt lat="43.31736" lon="3.28079">
        <ele>9</ele>
        <time>2019-05-27T22:08:38.941Z</time>
      </trkpt>
      <trkpt lat="43.31742" lon="3.28077">
        <ele>9</ele>
        <time>2019-05-27T22:08:40.229Z</time>
      </trkpt>
      <trkpt lat="43.31742" lon="3.28071">
        <ele>9</ele>
        <time>2019-05-27T22:08:41.203Z</time>
      </trkpt>
      <trkpt lat="43.31747" lon="3.28054">
        <ele>9</ele>
        <time>2019-05-27T22:08:44.225Z</time>
      </trkpt>
      <trkpt lat="43.31752" lon="3.28035">
        <ele>9</ele>
        <time>2019-05-27T22:08:47.558Z</time>
      </trkpt>
      <trkpt lat="43.31777" lon="3.27945">
        <ele>10</ele>
        <time>2019-05-27T22:09:04.115Z</time>
      </trkpt>
      <trkpt lat="43.31802" lon="3.27867">
        <ele>11</ele>
        <time>2019-05-27T22:09:19.547Z</time>
      </trkpt>
      <trkpt lat="43.31805" lon="3.27856">
        <ele>12</ele>
        <time>2019-05-27T22:09:21.850Z</time>
      </trkpt>
      <trkpt lat="43.31817" lon="3.27824">
        <ele>12</ele>
        <time>2019-05-27T22:09:28.430Z</time>
      </trkpt>
      <trkpt lat="43.31897" lon="3.27598">
        <ele>13</ele>
        <time>2019-05-27T22:10:16.604Z</time>
      </trkpt>
      <trkpt lat="43.32186" lon="3.26796">
        <ele>14</ele>
        <time>2019-05-27T22:12:54.997Z</time>
      </trkpt>
      <trkpt lat="43.32233" lon="3.26589">
        <ele>14</ele>
        <time>2019-05-27T22:13:30.085Z</time>
      </trkpt>
      <trkpt lat="43.32239" lon="3.26531">
        <ele>13</ele>
        <time>2019-05-27T22:13:39.682Z</time>
      </trkpt>
      <trkpt lat="43.32243" lon="3.2649">
        <ele>14</ele>
        <time>2019-05-27T22:13:46.789Z</time>
      </trkpt>
      <trkpt lat="43.32274" lon="3.26266">
        <ele>15</ele>
        <time>2019-05-27T22:14:26.706Z</time>
      </trkpt>
      <trkpt lat="43.32277" lon="3.26246">
        <ele>15</ele>
        <time>2019-05-27T22:14:30.371Z</time>
      </trkpt>
      <trkpt lat="43.32279" lon="3.26221">
        <ele>14</ele>
        <time>2019-05-27T22:14:34.412Z</time>
      </trkpt>
      <trkpt lat="43.32345" lon="3.2567">
        <ele>15</ele>
        <time>2019-05-27T22:16:03.522Z</time>
      </trkpt>
      <trkpt lat="43.32326" lon="3.24934">
        <ele>13</ele>
        <time>2019-05-27T22:18:10.303Z</time>
      </trkpt>
      <trkpt lat="43.32331" lon="3.24864">
        <ele>14</ele>
        <time>2019-05-27T22:18:23.872Z</time>
      </trkpt>
      <trkpt lat="43.32367" lon="3.24725">
        <ele>16</ele>
        <time>2019-05-27T22:18:53.357Z</time>
      </trkpt>
      <trkpt lat="43.3242" lon="3.24633">
        <ele>17</ele>
        <time>2019-05-27T22:19:16.323Z</time>
      </trkpt>
      <trkpt lat="43.32443" lon="3.24609">
        <ele>16</ele>
        <time>2019-05-27T22:19:23.741Z</time>
      </trkpt>
      <trkpt lat="43.32482" lon="3.24571">
        <ele>14</ele>
        <time>2019-05-27T22:19:35.679Z</time>
      </trkpt>
      <trkpt lat="43.3265" lon="3.24399">
        <ele>15</ele>
        <time>2019-05-27T22:20:22.144Z</time>
      </trkpt>
      <trkpt lat="43.32709" lon="3.24302">
        <ele>15</ele>
        <time>2019-05-27T22:20:43.192Z</time>
      </trkpt>
      <trkpt lat="43.32733" lon="3.2424">
        <ele>16</ele>
        <time>2019-05-27T22:20:55.102Z</time>
      </trkpt>
      <trkpt lat="43.32749" lon="3.24199">
        <ele>16</ele>
        <time>2019-05-27T22:21:03.127Z</time>
      </trkpt>
      <trkpt lat="43.3279" lon="3.24029">
        <ele>16</ele>
        <time>2019-05-27T22:21:33.189Z</time>
      </trkpt>
      <trkpt lat="43.32815" lon="3.23879">
        <ele>14</ele>
        <time>2019-05-27T22:21:57.248Z</time>
      </trkpt>
      <trkpt lat="43.3282" lon="3.23832">
        <ele>15</ele>
        <time>2019-05-27T22:22:04.571Z</time>
      </trkpt>
      <trkpt lat="43.32832" lon="3.23731">
        <ele>14</ele>
        <time>2019-05-27T22:22:20.671Z</time>
      </trkpt>
      <trkpt lat="43.3284" lon="3.2363">
        <ele>13</ele>
        <time>2019-05-27T22:22:36.647Z</time>
      </trkpt>
      <trkpt lat="43.32834" lon="3.23433">
        <ele>14</ele>
        <time>2019-05-27T22:23:08.064Z</time>
      </trkpt>
      <trkpt lat="43.32841" lon="3.23376">
        <ele>13</ele>
        <time>2019-05-27T22:23:16.810Z</time>
      </trkpt>
      <trkpt lat="43.32885" lon="3.23252">
        <ele>12</ele>
        <time>2019-05-27T22:23:39.574Z</time>
      </trkpt>
      <trkpt lat="43.32891" lon="3.23237">
        <ele>12</ele>
        <time>2019-05-27T22:23:42.368Z</time>
      </trkpt>
      <trkpt lat="43.32908" lon="3.23192">
        <ele>13</ele>
        <time>2019-05-27T22:23:51.006Z</time>
      </trkpt>
      <trkpt lat="43.32926" lon="3.23159">
        <ele>14</ele>
        <time>2019-05-27T22:23:58.127Z</time>
      </trkpt>
      <trkpt lat="43.33007" lon="3.23025">
        <ele>13</ele>
        <time>2019-05-27T22:24:32.097Z</time>
      </trkpt>
      <trkpt lat="43.33126" lon="3.22849">
        <ele>17</ele>
        <time>2019-05-27T22:25:19.275Z</time>
      </trkpt>
      <trkpt lat="43.33173" lon="3.22761">
        <ele>18</ele>
        <time>2019-05-27T22:25:39.277Z</time>
      </trkpt>
      <trkpt lat="43.33219" lon="3.22642">
        <ele>16</ele>
        <time>2019-05-27T22:26:00.280Z</time>
      </trkpt>
      <trkpt lat="43.33261" lon="3.22432">
        <ele>11</ele>
        <time>2019-05-27T22:26:31.607Z</time>
      </trkpt>
      <trkpt lat="43.33267" lon="3.22434">
        <ele>11</ele>
        <time>2019-05-27T22:26:33.532Z</time>
      </trkpt>
      <trkpt lat="43.33298" lon="3.22445">
        <ele>11</ele>
        <time>2019-05-27T22:26:44.235Z</time>
      </trkpt>
      <trkpt lat="43.33304" lon="3.22441">
        <ele>11</ele>
        <time>2019-05-27T22:26:46.567Z</time>
      </trkpt>
      <trkpt lat="43.3331" lon="3.22435">
        <ele>11</ele>
        <time>2019-05-27T22:26:49.236Z</time>
      </trkpt>
      <trkpt lat="43.33326" lon="3.22393">
        <ele>12</ele>
        <time>2019-05-27T22:27:01.231Z</time>
      </trkpt>
      <trkpt lat="43.33321" lon="3.2239">
        <ele>12</ele>
        <time>2019-05-27T22:27:03.131Z</time>
      </trkpt>
      <trkpt lat="43.33317" lon="3.22382">
        <ele>12</ele>
        <time>2019-05-27T22:27:05.143Z</time>
      </trkpt>
      <trkpt lat="43.33327" lon="3.22265">
        <ele>13</ele>
        <time>2019-05-27T22:27:27.211Z</time>
      </trkpt>
      <trkpt lat="43.33355" lon="3.22181">
        <ele>14</ele>
        <time>2019-05-27T22:27:45.727Z</time>
      </trkpt>
      <trkpt lat="43.33359" lon="3.22174">
        <ele>14</ele>
        <time>2019-05-27T22:27:47.919Z</time>
      </trkpt>
      <trkpt lat="43.33374" lon="3.22132">
        <ele>14</ele>
        <time>2019-05-27T22:27:57.176Z</time>
      </trkpt>
      <trkpt lat="43.33415" lon="3.21998">
        <ele>16</ele>
        <time>2019-05-27T22:28:25.191Z</time>
      </trkpt>
      <trkpt lat="43.33426" lon="3.21958">
        <ele>16</ele>
        <time>2019-05-27T22:28:33.169Z</time>
      </trkpt>
      <trkpt lat="43.3343" lon="3.21945">
        <ele>16</ele>
        <time>2019-05-27T22:28:35.647Z</time>
      </trkpt>
      <trkpt lat="43.33472" lon="3.21806">
        <ele>15</ele>
        <time>2019-05-27T22:29:02.057Z</time>
      </trkpt>
      <trkpt lat="43.33477" lon="3.2179">
        <ele>15</ele>
        <time>2019-05-27T22:29:04.997Z</time>
      </trkpt>
      <trkpt lat="43.33485" lon="3.21763">
        <ele>15</ele>
        <time>2019-05-27T22:29:09.859Z</time>
      </trkpt>
      <trkpt lat="43.33498" lon="3.2172">
        <ele>14</ele>
        <time>2019-05-27T22:29:17.588Z</time>
      </trkpt>
      <trkpt lat="43.33523" lon="3.21641">
        <ele>16</ele>
        <time>2019-05-27T22:29:32.419Z</time>
      </trkpt>
      <trkpt lat="43.33527" lon="3.21627">
        <ele>16</ele>
        <time>2019-05-27T22:29:35.321Z</time>
      </trkpt>
      <trkpt lat="43.33559" lon="3.21524">
        <ele>17</ele>
        <time>2019-05-27T22:29:56.826Z</time>
      </trkpt>
      <trkpt lat="43.33574" lon="3.21473">
        <ele>16</ele>
        <time>2019-05-27T22:30:06.673Z</time>
      </trkpt>
      <trkpt lat="43.33579" lon="3.21454">
        <ele>16</ele>
        <time>2019-05-27T22:30:09.901Z</time>
      </trkpt>
      <trkpt lat="43.33593" lon="3.21431">
        <ele>18</ele>
        <time>2019-05-27T22:30:15.272Z</time>
      </trkpt>
      <trkpt lat="43.336" lon="3.21425">
        <ele>18</ele>
        <time>2019-05-27T22:30:16.998Z</time>
      </trkpt>
      <trkpt lat="43.33614" lon="3.21423">
        <ele>19</ele>
        <time>2019-05-27T22:30:19.931Z</time>
      </trkpt>
      <trkpt lat="43.33618" lon="3.21422">
        <ele>19</ele>
        <time>2019-05-27T22:30:20.866Z</time>
      </trkpt>
      <trkpt lat="43.33622" lon="3.21426">
        <ele>19</ele>
        <time>2019-05-27T22:30:21.967Z</time>
      </trkpt>
      <trkpt lat="43.33627" lon="3.21428">
        <ele>19</ele>
        <time>2019-05-27T22:30:22.943Z</time>
      </trkpt>
      <trkpt lat="43.33632" lon="3.21428">
        <ele>19</ele>
        <time>2019-05-27T22:30:24.062Z</time>
      </trkpt>
      <trkpt lat="43.33637" lon="3.21425">
        <ele>20</ele>
        <time>2019-05-27T22:30:25.176Z</time>
      </trkpt>
      <trkpt lat="43.33643" lon="3.21419">
        <ele>20</ele>
        <time>2019-05-27T22:30:26.529Z</time>
      </trkpt>
      <trkpt lat="43.33646" lon="3.21408">
        <ele>19</ele>
        <time>2019-05-27T22:30:28.375Z</time>
      </trkpt>
      <trkpt lat="43.33646" lon="3.214">
        <ele>19</ele>
        <time>2019-05-27T22:30:29.602Z</time>
      </trkpt>
      <trkpt lat="43.33643" lon="3.21392">
        <ele>18</ele>
        <time>2019-05-27T22:30:30.882Z</time>
      </trkpt>
      <trkpt lat="43.3364" lon="3.21387">
        <ele>18</ele>
        <time>2019-05-27T22:30:31.881Z</time>
      </trkpt>
      <trkpt lat="43.33636" lon="3.21384">
        <ele>18</ele>
        <time>2019-05-27T22:30:32.882Z</time>
      </trkpt>
      <trkpt lat="43.33631" lon="3.21382">
        <ele>18</ele>
        <time>2019-05-27T22:30:33.759Z</time>
      </trkpt>
      <trkpt lat="43.33627" lon="3.21382">
        <ele>18</ele>
        <time>2019-05-27T22:30:34.753Z</time>
      </trkpt>
      <trkpt lat="43.33621" lon="3.21376">
        <ele>18</ele>
        <time>2019-05-27T22:30:36.337Z</time>
      </trkpt>
      <trkpt lat="43.33616" lon="3.21368">
        <ele>17</ele>
        <time>2019-05-27T22:30:37.918Z</time>
      </trkpt>
      <trkpt lat="43.33607" lon="3.21352">
        <ele>17</ele>
        <time>2019-05-27T22:30:40.818Z</time>
      </trkpt>
      <trkpt lat="43.3358" lon="3.21311">
        <ele>14</ele>
        <time>2019-05-27T22:30:49.151Z</time>
      </trkpt>
      <trkpt lat="43.33564" lon="3.21287">
        <ele>14</ele>
        <time>2019-05-27T22:30:53.954Z</time>
      </trkpt>
      <trkpt lat="43.3347" lon="3.21136">
        <ele>13</ele>
        <time>2019-05-27T22:31:22.946Z</time>
      </trkpt>
      <trkpt lat="43.33458" lon="3.21115">
        <ele>14</ele>
        <time>2019-05-27T22:31:27.391Z</time>
      </trkpt>
      <trkpt lat="43.33451" lon="3.21099">
        <ele>14</ele>
        <time>2019-05-27T22:31:30.507Z</time>
      </trkpt>
      <trkpt lat="43.33448" lon="3.21082">
        <ele>13</ele>
        <time>2019-05-27T22:31:33.360Z</time>
      </trkpt>
      <trkpt lat="43.33449" lon="3.21072">
        <ele>13</ele>
        <time>2019-05-27T22:31:35.026Z</time>
      </trkpt>
      <trkpt lat="43.33448" lon="3.21065">
        <ele>13</ele>
        <time>2019-05-27T22:31:36.297Z</time>
      </trkpt>
      <trkpt lat="43.33456" lon="3.21042">
        <ele>13</ele>
        <time>2019-05-27T22:31:40.330Z</time>
      </trkpt>
      <trkpt lat="43.33479" lon="3.21013">
        <ele>13</ele>
        <time>2019-05-27T22:31:47.482Z</time>
      </trkpt>
      <trkpt lat="43.33488" lon="3.20997">
        <ele>13</ele>
        <time>2019-05-27T22:31:50.734Z</time>
      </trkpt>
      <trkpt lat="43.33558" lon="3.20892">
        <ele>14</ele>
        <time>2019-05-27T22:32:14.203Z</time>
      </trkpt>
      <trkpt lat="43.33564" lon="3.20882">
        <ele>14</ele>
        <time>2019-05-27T22:32:16.586Z</time>
      </trkpt>
      <trkpt lat="43.33568" lon="3.20876">
        <ele>14</ele>
        <time>2019-05-27T22:32:18.266Z</time>
      </trkpt>
      <trkpt lat="43.33583" lon="3.20854">
        <ele>14</ele>
        <time>2019-05-27T22:32:23.660Z</time>
      </trkpt>
      <trkpt lat="43.33588" lon="3.20842">
        <ele>14</ele>
        <time>2019-05-27T22:32:26.411Z</time>
      </trkpt>
      <trkpt lat="43.33596" lon="3.20837">
        <ele>15</ele>
        <time>2019-05-27T22:32:29.011Z</time>
      </trkpt>
      <trkpt lat="43.33623" lon="3.20809">
        <ele>16</ele>
        <time>2019-05-27T22:32:38.509Z</time>
      </trkpt>
      <trkpt lat="43.33645" lon="3.2079">
        <ele>16</ele>
        <time>2019-05-27T22:32:45.468Z</time>
      </trkpt>
      <trkpt lat="43.33656" lon="3.20781">
        <ele>16</ele>
        <time>2019-05-27T22:32:49.256Z</time>
      </trkpt>
      <trkpt lat="43.33751" lon="3.20708">
        <ele>17</ele>
        <time>2019-05-27T22:33:14.473Z</time>
      </trkpt>
      <trkpt lat="43.33771" lon="3.20719">
        <ele>17</ele>
        <time>2019-05-27T22:33:19.414Z</time>
      </trkpt>
      <trkpt lat="43.33778" lon="3.20725">
        <ele>18</ele>
        <time>2019-05-27T22:33:20.951Z</time>
      </trkpt>
      <trkpt lat="43.33782" lon="3.20729">
        <ele>18</ele>
        <time>2019-05-27T22:33:22.131Z</time>
      </trkpt>
      <trkpt lat="43.33791" lon="3.20744">
        <ele>18</ele>
        <time>2019-05-27T22:33:25.393Z</time>
      </trkpt>
      <trkpt lat="43.33796" lon="3.20753">
        <ele>17</ele>
        <time>2019-05-27T22:33:27.290Z</time>
      </trkpt>
      <trkpt lat="43.33801" lon="3.20765">
        <ele>17</ele>
        <time>2019-05-27T22:33:29.182Z</time>
      </trkpt>
      <trkpt lat="43.33812" lon="3.20793">
        <ele>16</ele>
        <time>2019-05-27T22:33:34.529Z</time>
      </trkpt>
      <trkpt lat="43.33818" lon="3.20798">
        <ele>16</ele>
        <time>2019-05-27T22:33:35.775Z</time>
      </trkpt>
      <trkpt lat="43.33826" lon="3.20822">
        <ele>14</ele>
        <time>2019-05-27T22:33:40.542Z</time>
      </trkpt>
      <trkpt lat="43.3388" lon="3.20973">
        <ele>14</ele>
        <time>2019-05-27T22:34:15.590Z</time>
      </trkpt>
      <trkpt lat="43.33896" lon="3.21021">
        <ele>19</ele>
        <time>2019-05-27T22:34:26.147Z</time>
      </trkpt>
      <trkpt lat="43.33901" lon="3.21034">
        <ele>20</ele>
        <time>2019-05-27T22:34:29.431Z</time>
      </trkpt>
      <trkpt lat="43.33903" lon="3.21049">
        <ele>20</ele>
        <time>2019-05-27T22:34:32.039Z</time>
      </trkpt>
      <trkpt lat="43.33904" lon="3.21055">
        <ele>21</ele>
        <time>2019-05-27T22:34:33.001Z</time>
      </trkpt>
      <trkpt lat="43.33906" lon="3.21065">
        <ele>21</ele>
        <time>2019-05-27T22:34:34.751Z</time>
      </trkpt>
      <trkpt lat="43.33907" lon="3.21073">
        <ele>22</ele>
        <time>2019-05-27T22:34:36.381Z</time>
      </trkpt>
      <trkpt lat="43.33909" lon="3.21084">
        <ele>24</ele>
        <time>2019-05-27T22:34:38.627Z</time>
      </trkpt>
      <trkpt lat="43.33904" lon="3.21088">
        <ele>24</ele>
        <time>2019-05-27T22:34:39.868Z</time>
      </trkpt>
      <trkpt lat="43.33867" lon="3.21116">
        <ele>23</ele>
        <time>2019-05-27T22:34:50.087Z</time>
      </trkpt>
      <trkpt lat="43.33864" lon="3.21118">
        <ele>23</ele>
        <time>2019-05-27T22:34:50.754Z</time>
      </trkpt>
      <trkpt lat="43.33854" lon="3.21094">
        <ele>23</ele>
        <time>2019-05-27T22:34:56.092Z</time>
      </trkpt>
      <trkpt lat="43.33827" lon="3.21028">
        <ele>15</ele>
        <time>2019-05-27T22:35:07.710Z</time>
      </trkpt>
      <trkpt lat="43.33818" lon="3.21023">
        <ele>14</ele>
        <time>2019-05-27T22:35:09.566Z</time>
      </trkpt>
      <trkpt lat="43.33816" lon="3.21018">
        <ele>14</ele>
        <time>2019-05-27T22:35:10.433Z</time>
      </trkpt>
      <trkpt lat="43.33822" lon="3.21002">
        <ele>13</ele>
        <time>2019-05-27T22:35:13.145Z</time>
      </trkpt>
      <trkpt lat="43.33919" lon="3.20931">
        <ele>16</ele>
        <time>2019-05-27T22:35:35.576Z</time>
      </trkpt>
      <trkpt lat="43.33942" lon="3.20958">
        <ele>19</ele>
        <time>2019-05-27T22:35:44.368Z</time>
      </trkpt>
      <trkpt lat="43.33946" lon="3.20966">
        <ele>19</ele>
        <time>2019-05-27T22:35:47.322Z</time>
      </trkpt>
      <trkpt lat="43.33951" lon="3.20969">
        <ele>19</ele>
        <time>2019-05-27T22:35:49.109Z</time>
      </trkpt>
      <trkpt lat="43.33955" lon="3.20965">
        <ele>20</ele>
        <time>2019-05-27T22:35:50.555Z</time>
      </trkpt>
      <trkpt lat="43.33971" lon="3.20949">
        <ele>20</ele>
        <time>2019-05-27T22:35:57.644Z</time>
      </trkpt>
      <trkpt lat="43.33972" lon="3.20936">
        <ele>20</ele>
        <time>2019-05-27T22:36:01.617Z</time>
      </trkpt>
      <trkpt lat="43.33973" lon="3.20932">
        <ele>20</ele>
        <time>2019-05-27T22:36:02.695Z</time>
      </trkpt>
      <trkpt lat="43.33976" lon="3.20922">
        <ele>20</ele>
        <time>2019-05-27T22:36:05.640Z</time>
      </trkpt>
      <trkpt lat="43.3399" lon="3.20889">
        <ele>17</ele>
        <time>2019-05-27T22:36:18.608Z</time>
      </trkpt>
      <trkpt lat="43.34004" lon="3.20881">
        <ele>22</ele>
        <time>2019-05-27T22:36:25.760Z</time>
      </trkpt>
      <trkpt lat="43.34056" lon="3.20854">
        <ele>23</ele>
        <time>2019-05-27T22:36:54.289Z</time>
      </trkpt>
      <trkpt lat="43.34087" lon="3.20841">
        <ele>23</ele>
        <time>2019-05-27T22:37:10.638Z</time>
      </trkpt>
      <trkpt lat="43.34124" lon="3.20842">
        <ele>29</ele>
        <time>2019-05-27T22:37:28.520Z</time>
      </trkpt>
      <trkpt lat="43.34139" lon="3.20843">
        <ele>30</ele>
        <time>2019-05-27T22:37:36.039Z</time>
      </trkpt>
      <trkpt lat="43.34178" lon="3.20838">
        <ele>29</ele>
        <time>2019-05-27T22:37:55.170Z</time>
      </trkpt>
      <trkpt lat="43.34195" lon="3.20845">
        <ele>34</ele>
        <time>2019-05-27T22:38:04.071Z</time>
      </trkpt>
      <trkpt lat="43.34226" lon="3.20837">
        <ele>33</ele>
        <time>2019-05-27T22:38:18.828Z</time>
      </trkpt>
      <trkpt lat="43.34314" lon="3.20813">
        <ele>22</ele>
        <time>2019-05-27T22:38:51.924Z</time>
      </trkpt>
      <trkpt lat="43.34328" lon="3.20815">
        <ele>22</ele>
        <time>2019-05-27T22:38:54.662Z</time>
      </trkpt>
      <trkpt lat="43.34381" lon="3.20846">
        <ele>35</ele>
        <time>2019-05-27T22:39:05.574Z</time>
      </trkpt>
      <trkpt lat="43.34396" lon="3.20846">
        <ele>34</ele>
        <time>2019-05-27T22:39:07.796Z</time>
      </trkpt>
      <trkpt lat="43.3446" lon="3.20838">
        <ele>31</ele>
        <time>2019-05-27T22:39:18.411Z</time>
      </trkpt>
      <trkpt lat="43.34489" lon="3.20834">
        <ele>27</ele>
        <time>2019-05-27T22:39:23.102Z</time>
      </trkpt>
      <trkpt lat="43.34524" lon="3.20835">
        <ele>25</ele>
        <time>2019-05-27T22:39:28.470Z</time>
      </trkpt>
      <trkpt lat="43.34528" lon="3.20835">
        <ele>25</ele>
        <time>2019-05-27T22:39:29.125Z</time>
      </trkpt>
      <trkpt lat="43.34538" lon="3.20837">
        <ele>25</ele>
        <time>2019-05-27T22:39:30.578Z</time>
      </trkpt>
      <trkpt lat="43.34543" lon="3.2085">
        <ele>25</ele>
        <time>2019-05-27T22:39:32.248Z</time>
      </trkpt>
      <trkpt lat="43.34554" lon="3.20862">
        <ele>25</ele>
        <time>2019-05-27T22:39:35.842Z</time>
      </trkpt>
      <trkpt lat="43.34562" lon="3.20866">
        <ele>25</ele>
        <time>2019-05-27T22:39:37.088Z</time>
      </trkpt>
      <trkpt lat="43.34566" lon="3.20865">
        <ele>25</ele>
        <time>2019-05-27T22:39:37.744Z</time>
      </trkpt>
      <trkpt lat="43.34571" lon="3.20864">
        <ele>25</ele>
        <time>2019-05-27T22:39:38.627Z</time>
      </trkpt>
      <trkpt lat="43.34575" lon="3.2086">
        <ele>25</ele>
        <time>2019-05-27T22:39:39.614Z</time>
      </trkpt>
      <trkpt lat="43.34584" lon="3.20861">
        <ele>24</ele>
        <time>2019-05-27T22:39:41.884Z</time>
      </trkpt>
      <trkpt lat="43.34595" lon="3.20862">
        <ele>24</ele>
        <time>2019-05-27T22:39:44.074Z</time>
      </trkpt>
      <trkpt lat="43.34606" lon="3.2087">
        <ele>24</ele>
        <time>2019-05-27T22:39:46.079Z</time>
      </trkpt>
      <trkpt lat="43.34625" lon="3.20887">
        <ele>24</ele>
        <time>2019-05-27T22:39:51.860Z</time>
      </trkpt>
      <trkpt lat="43.34642" lon="3.20916">
        <ele>23</ele>
        <time>2019-05-27T22:39:59.372Z</time>
      </trkpt>
      <trkpt lat="43.34657" lon="3.20944">
        <ele>25</ele>
        <time>2019-05-27T22:40:05.062Z</time>
      </trkpt>
      <trkpt lat="43.34665" lon="3.20961">
        <ele>25</ele>
        <time>2019-05-27T22:40:11.637Z</time>
      </trkpt>
      <trkpt lat="43.34689" lon="3.21024">
        <ele>31</ele>
        <time>2019-05-27T22:40:25.961Z</time>
      </trkpt>
      <trkpt lat="43.34732" lon="3.21059">
        <ele>32</ele>
        <time>2019-05-27T22:40:43.070Z</time>
      </trkpt>
      <trkpt lat="43.34739" lon="3.21059">
        <ele>32</ele>
        <time>2019-05-27T22:40:46.971Z</time>
      </trkpt>
      <trkpt lat="43.3475" lon="3.2106">
        <ele>31</ele>
        <time>2019-05-27T22:40:49.603Z</time>
      </trkpt>
      <trkpt lat="43.3476" lon="3.21063">
        <ele>31</ele>
        <time>2019-05-27T22:40:52.269Z</time>
      </trkpt>
      <trkpt lat="43.34772" lon="3.21066">
        <ele>31</ele>
        <time>2019-05-27T22:40:57.235Z</time>
      </trkpt>
      <trkpt lat="43.3483" lon="3.21101">
        <ele>31</ele>
        <time>2019-05-27T22:41:11.569Z</time>
      </trkpt>
      <trkpt lat="43.34835" lon="3.21103">
        <ele>30</ele>
        <time>2019-05-27T22:41:12.656Z</time>
      </trkpt>
      <trkpt lat="43.34842" lon="3.21106">
        <ele>30</ele>
        <time>2019-05-27T22:41:14.639Z</time>
      </trkpt>
      <trkpt lat="43.34882" lon="3.21118">
        <ele>31</ele>
        <time>2019-05-27T22:41:23.049Z</time>
      </trkpt>
      <trkpt lat="43.34918" lon="3.21144">
        <ele>32</ele>
        <time>2019-05-27T22:41:31.262Z</time>
      </trkpt>
      <trkpt lat="43.34958" lon="3.21137">
        <ele>32</ele>
        <time>2019-05-27T22:41:40.892Z</time>
      </trkpt>
      <trkpt lat="43.34985" lon="3.21128">
        <ele>32</ele>
        <time>2019-05-27T22:41:47.990Z</time>
      </trkpt>
      <trkpt lat="43.34997" lon="3.21128">
        <ele>33</ele>
        <time>2019-05-27T22:41:51.209Z</time>
      </trkpt>
      <trkpt lat="43.35013" lon="3.21127">
        <ele>34</ele>
        <time>2019-05-27T22:41:55.898Z</time>
      </trkpt>
      <trkpt lat="43.35017" lon="3.21128">
        <ele>34</ele>
        <time>2019-05-27T22:41:57.092Z</time>
      </trkpt>
      <trkpt lat="43.35021" lon="3.21126">
        <ele>34</ele>
        <time>2019-05-27T22:41:58.377Z</time>
      </trkpt>
      <trkpt lat="43.35023" lon="3.21122">
        <ele>34</ele>
        <time>2019-05-27T22:41:59.373Z</time>
      </trkpt>
      <trkpt lat="43.35032" lon="3.2112">
        <ele>34</ele>
        <time>2019-05-27T22:42:01.851Z</time>
      </trkpt>
      <trkpt lat="43.35044" lon="3.21116">
        <ele>34</ele>
        <time>2019-05-27T22:42:05.286Z</time>
      </trkpt>
      <trkpt lat="43.35057" lon="3.21116">
        <ele>34</ele>
        <time>2019-05-27T22:42:09.229Z</time>
      </trkpt>
      <trkpt lat="43.35107" lon="3.21122">
        <ele>36</ele>
        <time>2019-05-27T22:42:23.366Z</time>
      </trkpt>
      <trkpt lat="43.35136" lon="3.21132">
        <ele>36</ele>
        <time>2019-05-27T22:42:33.084Z</time>
      </trkpt>
      <trkpt lat="43.35163" lon="3.21147">
        <ele>37</ele>
        <time>2019-05-27T22:42:43.516Z</time>
      </trkpt>
      <trkpt lat="43.3518" lon="3.21163">
        <ele>38</ele>
        <time>2019-05-27T22:42:51.561Z</time>
      </trkpt>
      <trkpt lat="43.35224" lon="3.21201">
        <ele>39</ele>
        <time>2019-05-27T22:43:10.182Z</time>
      </trkpt>
      <trkpt lat="43.35231" lon="3.21214">
        <ele>39</ele>
        <time>2019-05-27T22:43:15.281Z</time>
      </trkpt>
      <trkpt lat="43.35242" lon="3.21231">
        <ele>38</ele>
        <time>2019-05-27T22:43:21.105Z</time>
      </trkpt>
      <trkpt lat="43.35242" lon="3.21237">
        <ele>38</ele>
        <time>2019-05-27T22:43:22.649Z</time>
      </trkpt>
      <trkpt lat="43.35244" lon="3.21241">
        <ele>37</ele>
        <time>2019-05-27T22:43:23.680Z</time>
      </trkpt>
      <trkpt lat="43.35247" lon="3.21245">
        <ele>37</ele>
        <time>2019-05-27T22:43:24.991Z</time>
      </trkpt>
      <trkpt lat="43.35242" lon="3.21255">
        <ele>38</ele>
        <time>2019-05-27T22:43:29.579Z</time>
      </trkpt>
      <trkpt lat="43.35207" lon="3.21313">
        <ele>42</ele>
        <time>2019-05-27T22:43:48.622Z</time>
      </trkpt>
      <trkpt lat="43.35209" lon="3.21363">
        <ele>46</ele>
        <time>2019-05-27T22:44:01.859Z</time>
      </trkpt>
      <trkpt lat="43.35199" lon="3.21413">
        <ele>48</ele>
        <time>2019-05-27T22:44:15.611Z</time>
      </trkpt>
      <trkpt lat="43.35206" lon="3.21485">
        <ele>49</ele>
        <time>2019-05-27T22:44:35.418Z</time>
      </trkpt>
      <trkpt lat="43.35212" lon="3.21509">
        <ele>50</ele>
        <time>2019-05-27T22:44:41.865Z</time>
      </trkpt>
      <trkpt lat="43.35219" lon="3.21529">
        <ele>51</ele>
        <time>2019-05-27T22:44:47.368Z</time>
      </trkpt>
      <trkpt lat="43.35229" lon="3.21541">
        <ele>51</ele>
        <time>2019-05-27T22:44:51.951Z</time>
      </trkpt>
      <trkpt lat="43.35239" lon="3.21543">
        <ele>50</ele>
        <time>2019-05-27T22:44:55.681Z</time>
      </trkpt>
      <trkpt lat="43.35245" lon="3.21542">
        <ele>50</ele>
        <time>2019-05-27T22:44:57.661Z</time>
      </trkpt>
      <trkpt lat="43.35258" lon="3.21546">
        <ele>53</ele>
        <time>2019-05-27T22:45:02.010Z</time>
      </trkpt>
      <trkpt lat="43.35265" lon="3.21614">
        <ele>55</ele>
        <time>2019-05-27T22:45:19.315Z</time>
      </trkpt>
      <trkpt lat="43.35274" lon="3.2169">
        <ele>56</ele>
        <time>2019-05-27T22:45:38.336Z</time>
      </trkpt>
      <trkpt lat="43.35284" lon="3.21849">
        <ele>60</ele>
        <time>2019-05-27T22:46:24.520Z</time>
      </trkpt>
      <trkpt lat="43.35268" lon="3.21892">
        <ele>60</ele>
        <time>2019-05-27T22:46:38.198Z</time>
      </trkpt>
      <trkpt lat="43.35249" lon="3.21967">
        <ele>65</ele>
        <time>2019-05-27T22:46:59.064Z</time>
      </trkpt>
      <trkpt lat="43.353" lon="3.22006">
        <ele>67</ele>
        <time>2019-05-27T22:47:19.942Z</time>
      </trkpt>
      <trkpt lat="43.35351" lon="3.22026">
        <ele>66</ele>
        <time>2019-05-27T22:47:38.388Z</time>
      </trkpt>
      <trkpt lat="43.3542" lon="3.22049">
        <ele>68</ele>
        <time>2019-05-27T22:47:59.670Z</time>
      </trkpt>
      <trkpt lat="43.35463" lon="3.22062">
        <ele>69</ele>
        <time>2019-05-27T22:48:12.093Z</time>
      </trkpt>
      <trkpt lat="43.35488" lon="3.22069">
        <ele>69</ele>
        <time>2019-05-27T22:48:19.543Z</time>
      </trkpt>
      <trkpt lat="43.35568" lon="3.22086">
        <ele>72</ele>
        <time>2019-05-27T22:48:45.701Z</time>
      </trkpt>
      <trkpt lat="43.35609" lon="3.22081">
        <ele>73</ele>
        <time>2019-05-27T22:48:59.206Z</time>
      </trkpt>
      <trkpt lat="43.35628" lon="3.22078">
        <ele>73</ele>
        <time>2019-05-27T22:49:05.628Z</time>
      </trkpt>
      <trkpt lat="43.35646" lon="3.22074">
        <ele>73</ele>
        <time>2019-05-27T22:49:11.626Z</time>
      </trkpt>
      <trkpt lat="43.35674" lon="3.22097">
        <ele>76</ele>
        <time>2019-05-27T22:49:22.280Z</time>
      </trkpt>
      <trkpt lat="43.35739" lon="3.2217">
        <ele>79</ele>
        <time>2019-05-27T22:49:50.387Z</time>
      </trkpt>
      <trkpt lat="43.3576" lon="3.22207">
        <ele>80</ele>
        <time>2019-05-27T22:50:02.295Z</time>
      </trkpt>
      <trkpt lat="43.35791" lon="3.22252">
        <ele>80</ele>
        <time>2019-05-27T22:50:18.306Z</time>
      </trkpt>
      <trkpt lat="43.35816" lon="3.22295">
        <ele>80</ele>
        <time>2019-05-27T22:50:33.184Z</time>
      </trkpt>
      <trkpt lat="43.35825" lon="3.22314">
        <ele>80</ele>
        <time>2019-05-27T22:50:39.664Z</time>
      </trkpt>
      <trkpt lat="43.35856" lon="3.22378">
        <ele>82</ele>
        <time>2019-05-27T22:51:01.006Z</time>
      </trkpt>
      <trkpt lat="43.35876" lon="3.22413">
        <ele>83</ele>
        <time>2019-05-27T22:51:13.425Z</time>
      </trkpt>
      <trkpt lat="43.35889" lon="3.22434">
        <ele>86</ele>
        <time>2019-05-27T22:51:20.679Z</time>
      </trkpt>
      <trkpt lat="43.35904" lon="3.22459">
        <ele>87</ele>
        <time>2019-05-27T22:51:29.520Z</time>
      </trkpt>
      <trkpt lat="43.3592" lon="3.22467">
        <ele>89</ele>
        <time>2019-05-27T22:51:35.595Z</time>
      </trkpt>
      <trkpt lat="43.35925" lon="3.22482">
        <ele>89</ele>
        <time>2019-05-27T22:51:40.241Z</time>
      </trkpt>
      <trkpt lat="43.35946" lon="3.22476">
        <ele>89</ele>
        <time>2019-05-27T22:51:47.146Z</time>
      </trkpt>
      <trkpt lat="43.35951" lon="3.22475">
        <ele>89</ele>
        <time>2019-05-27T22:51:49.005Z</time>
      </trkpt>
      <trkpt lat="43.35958" lon="3.22474">
        <ele>89</ele>
        <time>2019-05-27T22:51:51.408Z</time>
      </trkpt>
      <trkpt lat="43.3597" lon="3.22475">
        <ele>90</ele>
        <time>2019-05-27T22:51:55.208Z</time>
      </trkpt>
      <trkpt lat="43.35977" lon="3.22476">
        <ele>90</ele>
        <time>2019-05-27T22:51:57.246Z</time>
      </trkpt>
      <trkpt lat="43.35981" lon="3.2248">
        <ele>90</ele>
        <time>2019-05-27T22:51:58.787Z</time>
      </trkpt>
      <trkpt lat="43.35983" lon="3.22481">
        <ele>90</ele>
        <time>2019-05-27T22:51:59.426Z</time>
      </trkpt>
      <trkpt lat="43.35986" lon="3.22482">
        <ele>90</ele>
        <time>2019-05-27T22:52:00.388Z</time>
      </trkpt>
      <trkpt lat="43.35995" lon="3.2248">
        <ele>90</ele>
        <time>2019-05-27T22:52:03.806Z</time>
      </trkpt>
      <trkpt lat="43.35999" lon="3.22475">
        <ele>90</ele>
        <time>2019-05-27T22:52:05.305Z</time>
      </trkpt>
      <trkpt lat="43.36002" lon="3.22469">
        <ele>91</ele>
        <time>2019-05-27T22:52:06.667Z</time>
      </trkpt>
      <trkpt lat="43.3601" lon="3.22464">
        <ele>91</ele>
        <time>2019-05-27T22:52:09.168Z</time>
      </trkpt>
      <trkpt lat="43.36023" lon="3.22458">
        <ele>91</ele>
        <time>2019-05-27T22:52:13.295Z</time>
      </trkpt>
      <trkpt lat="43.36084" lon="3.22447">
        <ele>91</ele>
        <time>2019-05-27T22:52:28.636Z</time>
      </trkpt>
      <trkpt lat="43.36131" lon="3.22437">
        <ele>91</ele>
        <time>2019-05-27T22:52:40.148Z</time>
      </trkpt>
      <trkpt lat="43.36267" lon="3.22409">
        <ele>93</ele>
        <time>2019-05-27T22:53:13.585Z</time>
      </trkpt>
      <trkpt lat="43.36267" lon="3.22409">
        <ele>93</ele>
        <time>2019-05-27T22:53:13.672Z</time>
      </trkpt>
      <trkpt lat="43.36292" lon="3.22404">
        <ele>93</ele>
        <time>2019-05-27T22:53:19.592Z</time>
      </trkpt>
      <trkpt lat="43.36291" lon="3.22398">
        <ele>93</ele>
        <time>2019-05-27T22:53:22.365Z</time>
      </trkpt>
      <trkpt lat="43.36289" lon="3.22387">
        <ele>93</ele>
        <time>2019-05-27T22:53:28.392Z</time>
      </trkpt>
      <trkpt lat="43.36303" lon="3.22384">
        <ele>93</ele>
        <time>2019-05-27T22:53:31.676Z</time>
      </trkpt>
      <trkpt lat="43.36315" lon="3.22382">
        <ele>93</ele>
        <time>2019-05-27T22:53:34.447Z</time>
      </trkpt>
      <trkpt lat="43.36433" lon="3.22358">
        <ele>93</ele>
        <time>2019-05-27T22:54:02.576Z</time>
      </trkpt>
      <trkpt lat="43.36443" lon="3.22337">
        <ele>92</ele>
        <time>2019-05-27T22:54:06.838Z</time>
      </trkpt>
      <trkpt lat="43.36448" lon="3.2233">
        <ele>92</ele>
        <time>2019-05-27T22:54:08.323Z</time>
      </trkpt>
      <trkpt lat="43.36456" lon="3.22322">
        <ele>92</ele>
        <time>2019-05-27T22:54:10.295Z</time>
      </trkpt>
      <trkpt lat="43.36462" lon="3.22317">
        <ele>92</ele>
        <time>2019-05-27T22:54:11.822Z</time>
      </trkpt>
      <trkpt lat="43.36495" lon="3.22321">
        <ele>92</ele>
        <time>2019-05-27T22:54:18.915Z</time>
      </trkpt>
      <trkpt lat="43.365" lon="3.22328">
        <ele>92</ele>
        <time>2019-05-27T22:54:20.763Z</time>
      </trkpt>
      <trkpt lat="43.36505" lon="3.22337">
        <ele>92</ele>
        <time>2019-05-27T22:54:22.636Z</time>
      </trkpt>
      <trkpt lat="43.36528" lon="3.22344">
        <ele>92</ele>
        <time>2019-05-27T22:54:28.040Z</time>
      </trkpt>
      <trkpt lat="43.36546" lon="3.22341">
        <ele>92</ele>
        <time>2019-05-27T22:54:32.434Z</time>
      </trkpt>
      <trkpt lat="43.36588" lon="3.22333">
        <ele>93</ele>
        <time>2019-05-27T22:54:44.280Z</time>
      </trkpt>
      <trkpt lat="43.36624" lon="3.22325">
        <ele>94</ele>
        <time>2019-05-27T22:54:55.523Z</time>
      </trkpt>
      <trkpt lat="43.36632" lon="3.22319">
        <ele>94</ele>
        <time>2019-05-27T22:54:58.948Z</time>
      </trkpt>
      <trkpt lat="43.3664" lon="3.22302">
        <ele>94</ele>
        <time>2019-05-27T22:55:02.829Z</time>
      </trkpt>
      <trkpt lat="43.36646" lon="3.22294">
        <ele>94</ele>
        <time>2019-05-27T22:55:05.268Z</time>
      </trkpt>
      <trkpt lat="43.3665" lon="3.2229">
        <ele>94</ele>
        <time>2019-05-27T22:55:07.167Z</time>
      </trkpt>
      <trkpt lat="43.36674" lon="3.22279">
        <ele>94</ele>
        <time>2019-05-27T22:55:14.983Z</time>
      </trkpt>
      <trkpt lat="43.3668" lon="3.22278">
        <ele>94</ele>
        <time>2019-05-27T22:55:16.873Z</time>
      </trkpt>
      <trkpt lat="43.36683" lon="3.22281">
        <ele>94</ele>
        <time>2019-05-27T22:55:18.232Z</time>
      </trkpt>
      <trkpt lat="43.36688" lon="3.22287">
        <ele>94</ele>
        <time>2019-05-27T22:55:21.035Z</time>
      </trkpt>
      <trkpt lat="43.36701" lon="3.22308">
        <ele>95</ele>
        <time>2019-05-27T22:55:26.584Z</time>
      </trkpt>
      <trkpt lat="43.36915" lon="3.22339">
        <ele>101</ele>
        <time>2019-05-27T22:56:36.623Z</time>
      </trkpt>
      <trkpt lat="43.37061" lon="3.22324">
        <ele>102</ele>
        <time>2019-05-27T22:57:16.335Z</time>
      </trkpt>
      <trkpt lat="43.37459" lon="3.22112">
        <ele>106</ele>
        <time>2019-05-27T22:59:00.722Z</time>
      </trkpt>
      <trkpt lat="43.37503" lon="3.22095">
        <ele>106</ele>
        <time>2019-05-27T22:59:10.419Z</time>
      </trkpt>
      <trkpt lat="43.37504" lon="3.22106">
        <ele>106</ele>
        <time>2019-05-27T22:59:12.089Z</time>
      </trkpt>
      <trkpt lat="43.37506" lon="3.22113">
        <ele>106</ele>
        <time>2019-05-27T22:59:13.320Z</time>
      </trkpt>
      <trkpt lat="43.37511" lon="3.22119">
        <ele>106</ele>
        <time>2019-05-27T22:59:14.640Z</time>
      </trkpt>
      <trkpt lat="43.37514" lon="3.22121">
        <ele>106</ele>
        <time>2019-05-27T22:59:15.276Z</time>
      </trkpt>
      <trkpt lat="43.37516" lon="3.22123">
        <ele>106</ele>
        <time>2019-05-27T22:59:15.866Z</time>
      </trkpt>
      <trkpt lat="43.37534" lon="3.22117">
        <ele>106</ele>
        <time>2019-05-27T22:59:19.477Z</time>
      </trkpt>
      <trkpt lat="43.37536" lon="3.22113">
        <ele>105</ele>
        <time>2019-05-27T22:59:20.303Z</time>
      </trkpt>
      <trkpt lat="43.37538" lon="3.22111">
        <ele>105</ele>
        <time>2019-05-27T22:59:20.662Z</time>
      </trkpt>
      <trkpt lat="43.3754" lon="3.22103">
        <ele>105</ele>
        <time>2019-05-27T22:59:21.929Z</time>
      </trkpt>
      <trkpt lat="43.3754" lon="3.22095">
        <ele>105</ele>
        <time>2019-05-27T22:59:23.111Z</time>
      </trkpt>
      <trkpt lat="43.37538" lon="3.22086">
        <ele>105</ele>
        <time>2019-05-27T22:59:24.427Z</time>
      </trkpt>
      <trkpt lat="43.37535" lon="3.22079">
        <ele>105</ele>
        <time>2019-05-27T22:59:25.663Z</time>
      </trkpt>
      <trkpt lat="43.37529" lon="3.22074">
        <ele>106</ele>
        <time>2019-05-27T22:59:26.902Z</time>
      </trkpt>
      <trkpt lat="43.37528" lon="3.22062">
        <ele>106</ele>
        <time>2019-05-27T22:59:28.701Z</time>
      </trkpt>
      <trkpt lat="43.37528" lon="3.22043">
        <ele>106</ele>
        <time>2019-05-27T22:59:31.468Z</time>
      </trkpt>
      <trkpt lat="43.37539" lon="3.22043">
        <ele>106</ele>
        <time>2019-05-27T22:59:33.555Z</time>
      </trkpt>
      <trkpt lat="43.37607" lon="3.22061">
        <ele>104</ele>
        <time>2019-05-27T22:59:46.918Z</time>
      </trkpt>
      <trkpt lat="43.3773" lon="3.2206">
        <ele>101</ele>
        <time>2019-05-27T23:00:10.099Z</time>
      </trkpt>
      <trkpt lat="43.37799" lon="3.22022">
        <ele>99</ele>
        <time>2019-05-27T23:00:24.031Z</time>
      </trkpt>
      <trkpt lat="43.37857" lon="3.21935">
        <ele>99</ele>
        <time>2019-05-27T23:00:40.531Z</time>
      </trkpt>
      <trkpt lat="43.37872" lon="3.21897">
        <ele>99</ele>
        <time>2019-05-27T23:00:46.670Z</time>
      </trkpt>
      <trkpt lat="43.3788" lon="3.21687">
        <ele>98</ele>
        <time>2019-05-27T23:01:17.703Z</time>
      </trkpt>
      <trkpt lat="43.37891" lon="3.21614">
        <ele>96</ele>
        <time>2019-05-27T23:01:29.681Z</time>
      </trkpt>
      <trkpt lat="43.37895" lon="3.21601">
        <ele>96</ele>
        <time>2019-05-27T23:01:32.012Z</time>
      </trkpt>
      <trkpt lat="43.3796" lon="3.21572">
        <ele>95</ele>
        <time>2019-05-27T23:01:49.594Z</time>
      </trkpt>
      <trkpt lat="43.38015" lon="3.21558">
        <ele>98</ele>
        <time>2019-05-27T23:02:05.165Z</time>
      </trkpt>
      <trkpt lat="43.38037" lon="3.21555">
        <ele>98</ele>
        <time>2019-05-27T23:02:11.741Z</time>
      </trkpt>
      <trkpt lat="43.38071" lon="3.2155">
        <ele>99</ele>
        <time>2019-05-27T23:02:22.569Z</time>
      </trkpt>
      <trkpt lat="43.38243" lon="3.21567">
        <ele>102</ele>
        <time>2019-05-27T23:03:16.973Z</time>
      </trkpt>
      <trkpt lat="43.38368" lon="3.2163">
        <ele>106</ele>
        <time>2019-05-27T23:03:52.366Z</time>
      </trkpt>
      <trkpt lat="43.3846" lon="3.2168">
        <ele>106</ele>
        <time>2019-05-27T23:04:13.325Z</time>
      </trkpt>
      <trkpt lat="43.38468" lon="3.21684">
        <ele>106</ele>
        <time>2019-05-27T23:04:15.026Z</time>
      </trkpt>
      <trkpt lat="43.38539" lon="3.21718">
        <ele>106</ele>
        <time>2019-05-27T23:04:28.833Z</time>
      </trkpt>
      <trkpt lat="43.38613" lon="3.21754">
        <ele>103</ele>
        <time>2019-05-27T23:04:42.889Z</time>
      </trkpt>
      <trkpt lat="43.38663" lon="3.21779">
        <ele>102</ele>
        <time>2019-05-27T23:04:52.242Z</time>
      </trkpt>
      <trkpt lat="43.38819" lon="3.21838">
        <ele>98</ele>
        <time>2019-05-27T23:05:21.063Z</time>
      </trkpt>
      <trkpt lat="43.38861" lon="3.21869">
        <ele>98</ele>
        <time>2019-05-27T23:05:29.449Z</time>
      </trkpt>
      <trkpt lat="43.38867" lon="3.21873">
        <ele>98</ele>
        <time>2019-05-27T23:05:30.612Z</time>
      </trkpt>
      <trkpt lat="43.38888" lon="3.21883">
        <ele>98</ele>
        <time>2019-05-27T23:05:34.560Z</time>
      </trkpt>
      <trkpt lat="43.38924" lon="3.21888">
        <ele>97</ele>
        <time>2019-05-27T23:05:40.782Z</time>
      </trkpt>
      <trkpt lat="43.38966" lon="3.21893">
        <ele>96</ele>
        <time>2019-05-27T23:05:47.985Z</time>
      </trkpt>
      <trkpt lat="43.39116" lon="3.219">
        <ele>91</ele>
        <time>2019-05-27T23:06:12.961Z</time>
      </trkpt>
      <trkpt lat="43.39166" lon="3.21909">
        <ele>91</ele>
        <time>2019-05-27T23:06:21.642Z</time>
      </trkpt>
      <trkpt lat="43.39191" lon="3.21915">
        <ele>90</ele>
        <time>2019-05-27T23:06:26.114Z</time>
      </trkpt>
      <trkpt lat="43.39214" lon="3.21918">
        <ele>89</ele>
        <time>2019-05-27T23:06:30.136Z</time>
      </trkpt>
      <trkpt lat="43.39229" lon="3.21918">
        <ele>88</ele>
        <time>2019-05-27T23:06:32.784Z</time>
      </trkpt>
      <trkpt lat="43.39281" lon="3.21918">
        <ele>87</ele>
        <time>2019-05-27T23:06:42.239Z</time>
      </trkpt>
      <trkpt lat="43.39351" lon="3.21916">
        <ele>86</ele>
        <time>2019-05-27T23:06:56.206Z</time>
      </trkpt>
      <trkpt lat="43.39359" lon="3.21917">
        <ele>86</ele>
        <time>2019-05-27T23:06:58.119Z</time>
      </trkpt>
      <trkpt lat="43.3937" lon="3.21917">
        <ele>86</ele>
        <time>2019-05-27T23:07:00.619Z</time>
      </trkpt>
      <trkpt lat="43.39383" lon="3.21918">
        <ele>86</ele>
        <time>2019-05-27T23:07:03.729Z</time>
      </trkpt>
      <trkpt lat="43.39395" lon="3.21918">
        <ele>86</ele>
        <time>2019-05-27T23:07:06.403Z</time>
      </trkpt>
      <trkpt lat="43.39409" lon="3.21919">
        <ele>86</ele>
        <time>2019-05-27T23:07:09.916Z</time>
      </trkpt>
      <trkpt lat="43.39496" lon="3.21908">
        <ele>89</ele>
        <time>2019-05-27T23:07:30.688Z</time>
      </trkpt>
      <trkpt lat="43.39518" lon="3.219">
        <ele>89</ele>
        <time>2019-05-27T23:07:36.448Z</time>
      </trkpt>
      <trkpt lat="43.39529" lon="3.21895">
        <ele>89</ele>
        <time>2019-05-27T23:07:39.256Z</time>
      </trkpt>
      <trkpt lat="43.39605" lon="3.21866">
        <ele>89</ele>
        <time>2019-05-27T23:07:58.390Z</time>
      </trkpt>
      <trkpt lat="43.39712" lon="3.21867">
        <ele>88</ele>
        <time>2019-05-27T23:08:19.782Z</time>
      </trkpt>
      <trkpt lat="43.39727" lon="3.2187">
        <ele>88</ele>
        <time>2019-05-27T23:08:22.545Z</time>
      </trkpt>
      <trkpt lat="43.39761" lon="3.2187">
        <ele>87</ele>
        <time>2019-05-27T23:08:28.650Z</time>
      </trkpt>
      <trkpt lat="43.39832" lon="3.21851">
        <ele>86</ele>
        <time>2019-05-27T23:08:41.504Z</time>
      </trkpt>
      <trkpt lat="43.39979" lon="3.2181">
        <ele>80</ele>
        <time>2019-05-27T23:09:06.631Z</time>
      </trkpt>
      <trkpt lat="43.40025" lon="3.21811">
        <ele>77</ele>
        <time>2019-05-27T23:09:14.002Z</time>
      </trkpt>
      <trkpt lat="43.40055" lon="3.21812">
        <ele>77</ele>
        <time>2019-05-27T23:09:18.786Z</time>
      </trkpt>
      <trkpt lat="43.40073" lon="3.21813">
        <ele>76</ele>
        <time>2019-05-27T23:09:21.759Z</time>
      </trkpt>
      <trkpt lat="43.40203" lon="3.21817">
        <ele>73</ele>
        <time>2019-05-27T23:09:44.637Z</time>
      </trkpt>
      <trkpt lat="43.40209" lon="3.21818">
        <ele>73</ele>
        <time>2019-05-27T23:09:45.891Z</time>
      </trkpt>
      <trkpt lat="43.4024" lon="3.21819">
        <ele>74</ele>
        <time>2019-05-27T23:09:52.793Z</time>
      </trkpt>
      <trkpt lat="43.40274" lon="3.21821">
        <ele>75</ele>
        <time>2019-05-27T23:10:01.739Z</time>
      </trkpt>
      <trkpt lat="43.40411" lon="3.21826">
        <ele>81</ele>
        <time>2019-05-27T23:10:46.729Z</time>
      </trkpt>
      <trkpt lat="43.40509" lon="3.21858">
        <ele>83</ele>
        <time>2019-05-27T23:11:23.105Z</time>
      </trkpt>
      <trkpt lat="43.406" lon="3.21889">
        <ele>87</ele>
        <time>2019-05-27T23:11:53.917Z</time>
      </trkpt>
      <trkpt lat="43.4067" lon="3.21929">
        <ele>88</ele>
        <time>2019-05-27T23:12:14.314Z</time>
      </trkpt>
      <trkpt lat="43.40687" lon="3.21933">
        <ele>87</ele>
        <time>2019-05-27T23:12:18.885Z</time>
      </trkpt>
      <trkpt lat="43.40735" lon="3.21942">
        <ele>86</ele>
        <time>2019-05-27T23:12:28.503Z</time>
      </trkpt>
      <trkpt lat="43.40866" lon="3.21922">
        <ele>84</ele>
        <time>2019-05-27T23:12:53.729Z</time>
      </trkpt>
      <trkpt lat="43.4087" lon="3.21921">
        <ele>84</ele>
        <time>2019-05-27T23:12:54.330Z</time>
      </trkpt>
      <trkpt lat="43.40953" lon="3.21909">
        <ele>84</ele>
        <time>2019-05-27T23:13:11.948Z</time>
      </trkpt>
      <trkpt lat="43.41017" lon="3.21896">
        <ele>84</ele>
        <time>2019-05-27T23:13:28.188Z</time>
      </trkpt>
      <trkpt lat="43.41083" lon="3.21885">
        <ele>88</ele>
        <time>2019-05-27T23:13:48.923Z</time>
      </trkpt>
      <trkpt lat="43.41087" lon="3.21885">
        <ele>88</ele>
        <time>2019-05-27T23:13:49.877Z</time>
      </trkpt>
      <trkpt lat="43.41094" lon="3.21884">
        <ele>88</ele>
        <time>2019-05-27T23:13:52.853Z</time>
      </trkpt>
      <trkpt lat="43.41238" lon="3.21858">
        <ele>94</ele>
        <time>2019-05-27T23:14:40.787Z</time>
      </trkpt>
      <trkpt lat="43.41277" lon="3.21846">
        <ele>94</ele>
        <time>2019-05-27T23:14:51.662Z</time>
      </trkpt>
      <trkpt lat="43.41299" lon="3.21841">
        <ele>94</ele>
        <time>2019-05-27T23:14:57.671Z</time>
      </trkpt>
      <trkpt lat="43.41354" lon="3.21824">
        <ele>92</ele>
        <time>2019-05-27T23:15:11.320Z</time>
      </trkpt>
      <trkpt lat="43.41786" lon="3.21657">
        <ele>92</ele>
        <time>2019-05-27T23:16:49.264Z</time>
      </trkpt>
      <trkpt lat="43.41793" lon="3.21653">
        <ele>93</ele>
        <time>2019-05-27T23:16:52.549Z</time>
      </trkpt>
      <trkpt lat="43.41835" lon="3.21609">
        <ele>96</ele>
        <time>2019-05-27T23:17:09.017Z</time>
      </trkpt>
      <trkpt lat="43.42033" lon="3.21475">
        <ele>101</ele>
        <time>2019-05-27T23:18:21.485Z</time>
      </trkpt>
      <trkpt lat="43.42035" lon="3.21474">
        <ele>101</ele>
        <time>2019-05-27T23:18:22.673Z</time>
      </trkpt>
      <trkpt lat="43.42048" lon="3.2147">
        <ele>101</ele>
        <time>2019-05-27T23:18:26.001Z</time>
      </trkpt>
      <trkpt lat="43.42081" lon="3.2146">
        <ele>101</ele>
        <time>2019-05-27T23:18:34.618Z</time>
      </trkpt>
      <trkpt lat="43.42115" lon="3.21448">
        <ele>100</ele>
        <time>2019-05-27T23:18:42.786Z</time>
      </trkpt>
      <trkpt lat="43.4218" lon="3.21426">
        <ele>99</ele>
        <time>2019-05-27T23:18:56.860Z</time>
      </trkpt>
      <trkpt lat="43.42244" lon="3.21404">
        <ele>98</ele>
        <time>2019-05-27T23:19:08.907Z</time>
      </trkpt>
      <trkpt lat="43.42292" lon="3.21389">
        <ele>96</ele>
        <time>2019-05-27T23:19:17.764Z</time>
      </trkpt>
      <trkpt lat="43.42403" lon="3.21343">
        <ele>95</ele>
        <time>2019-05-27T23:19:39.296Z</time>
      </trkpt>
      <trkpt lat="43.4248" lon="3.21317">
        <ele>95</ele>
        <time>2019-05-27T23:19:54.848Z</time>
      </trkpt>
      <trkpt lat="43.42503" lon="3.21312">
        <ele>95</ele>
        <time>2019-05-27T23:19:59.567Z</time>
      </trkpt>
      <trkpt lat="43.42508" lon="3.2131">
        <ele>95</ele>
        <time>2019-05-27T23:20:00.717Z</time>
      </trkpt>
      <trkpt lat="43.42584" lon="3.21297">
        <ele>95</ele>
        <time>2019-05-27T23:20:18.372Z</time>
      </trkpt>
      <trkpt lat="43.42653" lon="3.21286">
        <ele>95</ele>
        <time>2019-05-27T23:20:35.237Z</time>
      </trkpt>
      <trkpt lat="43.42799" lon="3.21245">
        <ele>98</ele>
        <time>2019-05-27T23:21:17.559Z</time>
      </trkpt>
      <trkpt lat="43.42825" lon="3.21243">
        <ele>98</ele>
        <time>2019-05-27T23:21:25.773Z</time>
      </trkpt>
      <trkpt lat="43.42848" lon="3.2124">
        <ele>99</ele>
        <time>2019-05-27T23:21:32.677Z</time>
      </trkpt>
      <trkpt lat="43.42881" lon="3.21237">
        <ele>99</ele>
        <time>2019-05-27T23:21:42.419Z</time>
      </trkpt>
      <trkpt lat="43.42949" lon="3.21222">
        <ele>100</ele>
        <time>2019-05-27T23:22:01.933Z</time>
      </trkpt>
      <trkpt lat="43.43134" lon="3.21172">
        <ele>99</ele>
        <time>2019-05-27T23:22:46.608Z</time>
      </trkpt>
      <trkpt lat="43.43284" lon="3.21145">
        <ele>99</ele>
        <time>2019-05-27T23:23:18.623Z</time>
      </trkpt>
      <trkpt lat="43.43294" lon="3.21143">
        <ele>99</ele>
        <time>2019-05-27T23:23:20.724Z</time>
      </trkpt>
      <trkpt lat="43.4342" lon="3.21117">
        <ele>97</ele>
        <time>2019-05-27T23:23:47.802Z</time>
      </trkpt>
      <trkpt lat="43.43611" lon="3.21055">
        <ele>98</ele>
        <time>2019-05-27T23:24:33.866Z</time>
      </trkpt>
      <trkpt lat="43.4367" lon="3.21031">
        <ele>100</ele>
        <time>2019-05-27T23:24:51.171Z</time>
      </trkpt>
      <trkpt lat="43.43693" lon="3.21019">
        <ele>100</ele>
        <time>2019-05-27T23:24:58.343Z</time>
      </trkpt>
      <trkpt lat="43.4373" lon="3.21007">
        <ele>100</ele>
        <time>2019-05-27T23:25:10.266Z</time>
      </trkpt>
      <trkpt lat="43.43788" lon="3.2099">
        <ele>103</ele>
        <time>2019-05-27T23:25:30.972Z</time>
      </trkpt>
      <trkpt lat="43.43834" lon="3.2098">
        <ele>106</ele>
        <time>2019-05-27T23:25:48.771Z</time>
      </trkpt>
      <trkpt lat="43.43853" lon="3.20969">
        <ele>107</ele>
        <time>2019-05-27T23:25:55.623Z</time>
      </trkpt>
      <trkpt lat="43.43866" lon="3.20959">
        <ele>107</ele>
        <time>2019-05-27T23:26:01.974Z</time>
      </trkpt>
      <trkpt lat="43.43894" lon="3.20932">
        <ele>108</ele>
        <time>2019-05-27T23:26:15.401Z</time>
      </trkpt>
      <trkpt lat="43.43917" lon="3.20918">
        <ele>110</ele>
        <time>2019-05-27T23:26:24.485Z</time>
      </trkpt>
      <trkpt lat="43.4392" lon="3.20916">
        <ele>110</ele>
        <time>2019-05-27T23:26:26.742Z</time>
      </trkpt>
      <trkpt lat="43.4399" lon="3.20891">
        <ele>113</ele>
        <time>2019-05-27T23:26:55.462Z</time>
      </trkpt>
      <trkpt lat="43.44047" lon="3.20863">
        <ele>116</ele>
        <time>2019-05-27T23:27:18.577Z</time>
      </trkpt>
      <trkpt lat="43.44054" lon="3.2086">
        <ele>116</ele>
        <time>2019-05-27T23:27:21.533Z</time>
      </trkpt>
      <trkpt lat="43.44072" lon="3.20851">
        <ele>117</ele>
        <time>2019-05-27T23:27:28.890Z</time>
      </trkpt>
      <trkpt lat="43.44112" lon="3.20829">
        <ele>119</ele>
        <time>2019-05-27T23:27:43.908Z</time>
      </trkpt>
      <trkpt lat="43.44122" lon="3.20823">
        <ele>119</ele>
        <time>2019-05-27T23:27:47.781Z</time>
      </trkpt>
      <trkpt lat="43.44134" lon="3.20818">
        <ele>119</ele>
        <time>2019-05-27T23:27:52.099Z</time>
      </trkpt>
      <trkpt lat="43.44137" lon="3.20817">
        <ele>119</ele>
        <time>2019-05-27T23:27:53.244Z</time>
      </trkpt>
      <trkpt lat="43.44173" lon="3.20806">
        <ele>120</ele>
        <time>2019-05-27T23:28:05.951Z</time>
      </trkpt>
      <trkpt lat="43.44211" lon="3.20794">
        <ele>121</ele>
        <time>2019-05-27T23:28:18.877Z</time>
      </trkpt>
      <trkpt lat="43.4434" lon="3.20788">
        <ele>125</ele>
        <time>2019-05-27T23:28:57.105Z</time>
      </trkpt>
      <trkpt lat="43.44445" lon="3.2077">
        <ele>125</ele>
        <time>2019-05-27T23:29:23.865Z</time>
      </trkpt>
      <trkpt lat="43.44527" lon="3.20756">
        <ele>122</ele>
        <time>2019-05-27T23:29:42.559Z</time>
      </trkpt>
      <trkpt lat="43.44548" lon="3.20751">
        <ele>122</ele>
        <time>2019-05-27T23:29:47.236Z</time>
      </trkpt>
      <trkpt lat="43.44586" lon="3.20738">
        <ele>123</ele>
        <time>2019-05-27T23:29:55.661Z</time>
      </trkpt>
      <trkpt lat="43.44773" lon="3.20655">
        <ele>121</ele>
        <time>2019-05-27T23:30:33.908Z</time>
      </trkpt>
      <trkpt lat="43.44811" lon="3.20651">
        <ele>121</ele>
        <time>2019-05-27T23:30:40.876Z</time>
      </trkpt>
      <trkpt lat="43.45001" lon="3.20676">
        <ele>112</ele>
        <time>2019-05-27T23:31:12.123Z</time>
      </trkpt>
      <trkpt lat="43.45014" lon="3.20678">
        <ele>111</ele>
        <time>2019-05-27T23:31:14.126Z</time>
      </trkpt>
      <trkpt lat="43.45021" lon="3.20672">
        <ele>111</ele>
        <time>2019-05-27T23:31:15.464Z</time>
      </trkpt>
      <trkpt lat="43.45035" lon="3.20663">
        <ele>111</ele>
        <time>2019-05-27T23:31:18.033Z</time>
      </trkpt>
      <trkpt lat="43.45053" lon="3.20654">
        <ele>111</ele>
        <time>2019-05-27T23:31:21.075Z</time>
      </trkpt>
      <trkpt lat="43.45113" lon="3.20619">
        <ele>108</ele>
        <time>2019-05-27T23:31:31.528Z</time>
      </trkpt>
      <trkpt lat="43.45505" lon="3.20385">
        <ele>96</ele>
        <time>2019-05-27T23:32:43.712Z</time>
      </trkpt>
      <trkpt lat="43.45532" lon="3.20371">
        <ele>96</ele>
        <time>2019-05-27T23:32:48.811Z</time>
      </trkpt>
      <trkpt lat="43.45543" lon="3.20366">
        <ele>96</ele>
        <time>2019-05-27T23:32:50.742Z</time>
      </trkpt>
      <trkpt lat="43.45597" lon="3.20322">
        <ele>95</ele>
        <time>2019-05-27T23:33:01.899Z</time>
      </trkpt>
      <trkpt lat="43.45693" lon="3.20221">
        <ele>94</ele>
        <time>2019-05-27T23:33:23.997Z</time>
      </trkpt>
      <trkpt lat="43.45753" lon="3.20178">
        <ele>91</ele>
        <time>2019-05-27T23:33:36.632Z</time>
      </trkpt>
      <trkpt lat="43.45859" lon="3.20202">
        <ele>90</ele>
        <time>2019-05-27T23:33:56.438Z</time>
      </trkpt>
      <trkpt lat="43.45925" lon="3.20195">
        <ele>89</ele>
        <time>2019-05-27T23:34:08.220Z</time>
      </trkpt>
      <trkpt lat="43.46021" lon="3.20184">
        <ele>89</ele>
        <time>2019-05-27T23:34:25.919Z</time>
      </trkpt>
      <trkpt lat="43.46031" lon="3.20182">
        <ele>89</ele>
        <time>2019-05-27T23:34:27.894Z</time>
      </trkpt>
      <trkpt lat="43.4604" lon="3.20177">
        <ele>89</ele>
        <time>2019-05-27T23:34:29.590Z</time>
      </trkpt>
      <trkpt lat="43.46289" lon="3.20035">
        <ele>88</ele>
        <time>2019-05-27T23:35:29.916Z</time>
      </trkpt>
      <trkpt lat="43.46547" lon="3.19956">
        <ele>96</ele>
        <time>2019-05-27T23:36:52.238Z</time>
      </trkpt>
      <trkpt lat="43.46735" lon="3.19934">
        <ele>102</ele>
        <time>2019-05-27T23:37:57.528Z</time>
      </trkpt>
      <trkpt lat="43.46755" lon="3.19932">
        <ele>104</ele>
        <time>2019-05-27T23:38:04.794Z</time>
      </trkpt>
      <trkpt lat="43.4676" lon="3.19932">
        <ele>104</ele>
        <time>2019-05-27T23:38:06.171Z</time>
      </trkpt>
      <trkpt lat="43.46773" lon="3.19932">
        <ele>104</ele>
        <time>2019-05-27T23:38:10.727Z</time>
      </trkpt>
      <trkpt lat="43.46791" lon="3.19932">
        <ele>105</ele>
        <time>2019-05-27T23:38:16.919Z</time>
      </trkpt>
      <trkpt lat="43.46794" lon="3.19931">
        <ele>105</ele>
        <time>2019-05-27T23:38:17.913Z</time>
      </trkpt>
      <trkpt lat="43.46804" lon="3.19933">
        <ele>105</ele>
        <time>2019-05-27T23:38:21.033Z</time>
      </trkpt>
      <trkpt lat="43.46823" lon="3.19935">
        <ele>105</ele>
        <time>2019-05-27T23:38:27.420Z</time>
      </trkpt>
      <trkpt lat="43.46828" lon="3.19934">
        <ele>106</ele>
        <time>2019-05-27T23:38:29.050Z</time>
      </trkpt>
      <trkpt lat="43.46876" lon="3.19887">
        <ele>106</ele>
        <time>2019-05-27T23:38:48.573Z</time>
      </trkpt>
      <trkpt lat="43.46999" lon="3.19773">
        <ele>108</ele>
        <time>2019-05-27T23:39:35.085Z</time>
      </trkpt>
      <trkpt lat="43.47098" lon="3.19751">
        <ele>112</ele>
        <time>2019-05-27T23:40:09.948Z</time>
      </trkpt>
      <trkpt lat="43.47274" lon="3.19683">
        <ele>122</ele>
        <time>2019-05-27T23:41:24.284Z</time>
      </trkpt>
      <trkpt lat="43.47396" lon="3.19606">
        <ele>129</ele>
        <time>2019-05-27T23:42:25.007Z</time>
      </trkpt>
      <trkpt lat="43.47474" lon="3.1954">
        <ele>136</ele>
        <time>2019-05-27T23:43:08.797Z</time>
      </trkpt>
      <trkpt lat="43.4749" lon="3.19516">
        <ele>136</ele>
        <time>2019-05-27T23:43:18.880Z</time>
      </trkpt>
      <trkpt lat="43.47494" lon="3.19511">
        <ele>136</ele>
        <time>2019-05-27T23:43:21.647Z</time>
      </trkpt>
      <trkpt lat="43.47528" lon="3.19502">
        <ele>139</ele>
        <time>2019-05-27T23:43:36.257Z</time>
      </trkpt>
      <trkpt lat="43.47533" lon="3.19501">
        <ele>139</ele>
        <time>2019-05-27T23:43:39.094Z</time>
      </trkpt>
      <trkpt lat="43.4754" lon="3.195">
        <ele>140</ele>
        <time>2019-05-27T23:43:42.161Z</time>
      </trkpt>
      <trkpt lat="43.47615" lon="3.19469">
        <ele>141</ele>
        <time>2019-05-27T23:44:13.835Z</time>
      </trkpt>
      <trkpt lat="43.47639" lon="3.19426">
        <ele>141</ele>
        <time>2019-05-27T23:44:28.569Z</time>
      </trkpt>
      <trkpt lat="43.47687" lon="3.194">
        <ele>143</ele>
        <time>2019-05-27T23:44:45.521Z</time>
      </trkpt>
      <trkpt lat="43.47944" lon="3.19322">
        <ele>149</ele>
        <time>2019-05-27T23:46:06.405Z</time>
      </trkpt>
      <trkpt lat="43.47958" lon="3.19324">
        <ele>149</ele>
        <time>2019-05-27T23:46:10.610Z</time>
      </trkpt>
      <trkpt lat="43.47976" lon="3.1929">
        <ele>149</ele>
        <time>2019-05-27T23:46:17.968Z</time>
      </trkpt>
      <trkpt lat="43.48088" lon="3.19093">
        <ele>144</ele>
        <time>2019-05-27T23:46:53.908Z</time>
      </trkpt>
      <trkpt lat="43.48258" lon="3.18902">
        <ele>138</ele>
        <time>2019-05-27T23:47:31.849Z</time>
      </trkpt>
      <trkpt lat="43.48312" lon="3.18904">
        <ele>136</ele>
        <time>2019-05-27T23:47:40.647Z</time>
      </trkpt>
      <trkpt lat="43.48374" lon="3.18829">
        <ele>129</ele>
        <time>2019-05-27T23:47:54.241Z</time>
      </trkpt>
      <trkpt lat="43.4844" lon="3.18774">
        <ele>126</ele>
        <time>2019-05-27T23:48:07.221Z</time>
      </trkpt>
      <trkpt lat="43.48636" lon="3.1864">
        <ele>124</ele>
        <time>2019-05-27T23:48:45.977Z</time>
      </trkpt>
      <trkpt lat="43.4876" lon="3.18581">
        <ele>123</ele>
        <time>2019-05-27T23:49:11.211Z</time>
      </trkpt>
      <trkpt lat="43.48773" lon="3.18572">
        <ele>123</ele>
        <time>2019-05-27T23:49:13.885Z</time>
      </trkpt>
      <trkpt lat="43.48781" lon="3.18578">
        <ele>122</ele>
        <time>2019-05-27T23:49:15.616Z</time>
      </trkpt>
      <trkpt lat="43.48808" lon="3.18561">
        <ele>122</ele>
        <time>2019-05-27T23:49:21.518Z</time>
      </trkpt>
      <trkpt lat="43.48843" lon="3.18526">
        <ele>121</ele>
        <time>2019-05-27T23:49:29.882Z</time>
      </trkpt>
      <trkpt lat="43.48973" lon="3.18332">
        <ele>116</ele>
        <time>2019-05-27T23:50:05.880Z</time>
      </trkpt>
      <trkpt lat="43.48997" lon="3.18248">
        <ele>113</ele>
        <time>2019-05-27T23:50:17.591Z</time>
      </trkpt>
      <trkpt lat="43.49002" lon="3.18154">
        <ele>111</ele>
        <time>2019-05-27T23:50:30.096Z</time>
      </trkpt>
      <trkpt lat="43.49012" lon="3.18136">
        <ele>111</ele>
        <time>2019-05-27T23:50:33.047Z</time>
      </trkpt>
      <trkpt lat="43.49268" lon="3.17929">
        <ele>114</ele>
        <time>2019-05-27T23:51:34.950Z</time>
      </trkpt>
      <trkpt lat="43.4927" lon="3.17768">
        <ele>114</ele>
        <time>2019-05-27T23:52:04.284Z</time>
      </trkpt>
      <trkpt lat="43.49282" lon="3.17628">
        <ele>115</ele>
        <time>2019-05-27T23:52:32.314Z</time>
      </trkpt>
      <trkpt lat="43.49283" lon="3.17606">
        <ele>115</ele>
        <time>2019-05-27T23:52:36.797Z</time>
      </trkpt>
      <trkpt lat="43.49294" lon="3.17601">
        <ele>115</ele>
        <time>2019-05-27T23:52:39.936Z</time>
      </trkpt>
      <trkpt lat="43.49456" lon="3.17558">
        <ele>117</ele>
        <time>2019-05-27T23:53:27.355Z</time>
      </trkpt>
      <trkpt lat="43.49497" lon="3.17539">
        <ele>117</ele>
        <time>2019-05-27T23:53:40.856Z</time>
      </trkpt>
      <trkpt lat="43.4957" lon="3.17505">
        <ele>122</ele>
        <time>2019-05-27T23:54:07.979Z</time>
      </trkpt>
      <trkpt lat="43.49618" lon="3.1748">
        <ele>125</ele>
        <time>2019-05-27T23:54:28.753Z</time>
      </trkpt>
      <trkpt lat="43.4965" lon="3.17461">
        <ele>126</ele>
        <time>2019-05-27T23:54:44.533Z</time>
      </trkpt>
      <trkpt lat="43.49689" lon="3.17429">
        <ele>131</ele>
        <time>2019-05-27T23:55:05.370Z</time>
      </trkpt>
      <trkpt lat="43.49714" lon="3.17409">
        <ele>133</ele>
        <time>2019-05-27T23:55:18.874Z</time>
      </trkpt>
      <trkpt lat="43.49724" lon="3.17403">
        <ele>134</ele>
        <time>2019-05-27T23:55:24.537Z</time>
      </trkpt>
      <trkpt lat="43.49752" lon="3.17386">
        <ele>138</ele>
        <time>2019-05-27T23:55:39.370Z</time>
      </trkpt>
      <trkpt lat="43.49813" lon="3.17359">
        <ele>140</ele>
        <time>2019-05-27T23:56:10.092Z</time>
      </trkpt>
      <trkpt lat="43.49857" lon="3.17349">
        <ele>143</ele>
        <time>2019-05-27T23:56:31.563Z</time>
      </trkpt>
      <trkpt lat="43.49875" lon="3.17346">
        <ele>143</ele>
        <time>2019-05-27T23:56:40.036Z</time>
      </trkpt>
      <trkpt lat="43.49923" lon="3.17335">
        <ele>146</ele>
        <time>2019-05-27T23:57:02.238Z</time>
      </trkpt>
      <trkpt lat="43.49927" lon="3.17334">
        <ele>146</ele>
        <time>2019-05-27T23:57:04.047Z</time>
      </trkpt>
      <trkpt lat="43.49958" lon="3.17328">
        <ele>149</ele>
        <time>2019-05-27T23:57:17.993Z</time>
      </trkpt>
      <trkpt lat="43.50006" lon="3.17312">
        <ele>152</ele>
        <time>2019-05-27T23:57:39.883Z</time>
      </trkpt>
      <trkpt lat="43.50015" lon="3.17309">
        <ele>152</ele>
        <time>2019-05-27T23:57:44.269Z</time>
      </trkpt>
      <trkpt lat="43.50053" lon="3.17293">
        <ele>154</ele>
        <time>2019-05-27T23:58:00.655Z</time>
      </trkpt>
      <trkpt lat="43.50123" lon="3.17265">
        <ele>157</ele>
        <time>2019-05-27T23:58:31.503Z</time>
      </trkpt>
      <trkpt lat="43.5022" lon="3.17256">
        <ele>160</ele>
        <time>2019-05-27T23:59:12.648Z</time>
      </trkpt>
      <trkpt lat="43.50305" lon="3.172">
        <ele>167</ele>
        <time>2019-05-27T23:59:51.179Z</time>
      </trkpt>
      <trkpt lat="43.50422" lon="3.17165">
        <ele>172</ele>
        <time>2019-05-28T00:00:37.194Z</time>
      </trkpt>
      <trkpt lat="43.5044" lon="3.17154">
        <ele>173</ele>
        <time>2019-05-28T00:00:43.949Z</time>
      </trkpt>
      <trkpt lat="43.50464" lon="3.17141">
        <ele>173</ele>
        <time>2019-05-28T00:00:52.276Z</time>
      </trkpt>
      <trkpt lat="43.50484" lon="3.17137">
        <ele>174</ele>
        <time>2019-05-28T00:00:58.095Z</time>
      </trkpt>
      <trkpt lat="43.50491" lon="3.17136">
        <ele>174</ele>
        <time>2019-05-28T00:01:00.154Z</time>
      </trkpt>
      <trkpt lat="43.50509" lon="3.17132">
        <ele>172</ele>
        <time>2019-05-28T00:01:05.451Z</time>
      </trkpt>
      <trkpt lat="43.50586" lon="3.17124">
        <ele>169</ele>
        <time>2019-05-28T00:01:23.643Z</time>
      </trkpt>
      <trkpt lat="43.50638" lon="3.17106">
        <ele>168</ele>
        <time>2019-05-28T00:01:33.938Z</time>
      </trkpt>
      <trkpt lat="43.50664" lon="3.17095">
        <ele>168</ele>
        <time>2019-05-28T00:01:38.673Z</time>
      </trkpt>
      <trkpt lat="43.50709" lon="3.17077">
        <ele>167</ele>
        <time>2019-05-28T00:01:47.283Z</time>
      </trkpt>
      <trkpt lat="43.5104" lon="3.16895">
        <ele>165</ele>
        <time>2019-05-28T00:02:58.666Z</time>
      </trkpt>
      <trkpt lat="43.51097" lon="3.16873">
        <ele>166</ele>
        <time>2019-05-28T00:03:13.640Z</time>
      </trkpt>
      <trkpt lat="43.51194" lon="3.16861">
        <ele>169</ele>
        <time>2019-05-28T00:03:42.026Z</time>
      </trkpt>
      <trkpt lat="43.51404" lon="3.16739">
        <ele>175</ele>
        <time>2019-05-28T00:04:57.276Z</time>
      </trkpt>
      <trkpt lat="43.51455" lon="3.16719">
        <ele>177</ele>
        <time>2019-05-28T00:05:14.198Z</time>
      </trkpt>
      <trkpt lat="43.51543" lon="3.16718">
        <ele>179</ele>
        <time>2019-05-28T00:05:40.266Z</time>
      </trkpt>
      <trkpt lat="43.51669" lon="3.16657">
        <ele>181</ele>
        <time>2019-05-28T00:06:11.518Z</time>
      </trkpt>
      <trkpt lat="43.51803" lon="3.16525">
        <ele>173</ele>
        <time>2019-05-28T00:06:41.124Z</time>
      </trkpt>
      <trkpt lat="43.51964" lon="3.16418">
        <ele>169</ele>
        <time>2019-05-28T00:07:11.878Z</time>
      </trkpt>
      <trkpt lat="43.52013" lon="3.1634">
        <ele>170</ele>
        <time>2019-05-28T00:07:26.064Z</time>
      </trkpt>
      <trkpt lat="43.5202" lon="3.16335">
        <ele>170</ele>
        <time>2019-05-28T00:07:27.871Z</time>
      </trkpt>
      <trkpt lat="43.52025" lon="3.16365">
        <ele>170</ele>
        <time>2019-05-28T00:07:32.556Z</time>
      </trkpt>
      <trkpt lat="43.52027" lon="3.1639">
        <ele>170</ele>
        <time>2019-05-28T00:07:36.775Z</time>
      </trkpt>
      <trkpt lat="43.52027" lon="3.16394">
        <ele>170</ele>
        <time>2019-05-28T00:07:37.263Z</time>
      </trkpt>
      <trkpt lat="43.52041" lon="3.16395">
        <ele>170</ele>
        <time>2019-05-28T00:07:40.714Z</time>
      </trkpt>
      <trkpt lat="43.52192" lon="3.16342">
        <ele>174</ele>
        <time>2019-05-28T00:08:29.747Z</time>
      </trkpt>
      <trkpt lat="43.52286" lon="3.16366">
        <ele>179</ele>
        <time>2019-05-28T00:09:10.735Z</time>
      </trkpt>
      <trkpt lat="43.52308" lon="3.16361">
        <ele>180</ele>
        <time>2019-05-28T00:09:21.060Z</time>
      </trkpt>
      <trkpt lat="43.52371" lon="3.16307">
        <ele>190</ele>
        <time>2019-05-28T00:09:59.567Z</time>
      </trkpt>
      <trkpt lat="43.52416" lon="3.16236">
        <ele>193</ele>
        <time>2019-05-28T00:10:36.527Z</time>
      </trkpt>
      <trkpt lat="43.52446" lon="3.16219">
        <ele>194</ele>
        <time>2019-05-28T00:10:53.838Z</time>
      </trkpt>
      <trkpt lat="43.52508" lon="3.16231">
        <ele>199</ele>
        <time>2019-05-28T00:11:26.487Z</time>
      </trkpt>
      <trkpt lat="43.52561" lon="3.16261">
        <ele>204</ele>
        <time>2019-05-28T00:11:54.728Z</time>
      </trkpt>
      <trkpt lat="43.52634" lon="3.16254">
        <ele>207</ele>
        <time>2019-05-28T00:12:27.000Z</time>
      </trkpt>
      <trkpt lat="43.52675" lon="3.16267">
        <ele>209</ele>
        <time>2019-05-28T00:12:44.241Z</time>
      </trkpt>
      <trkpt lat="43.5275" lon="3.16187">
        <ele>212</ele>
        <time>2019-05-28T00:13:20.554Z</time>
      </trkpt>
      <trkpt lat="43.52875" lon="3.16156">
        <ele>218</ele>
        <time>2019-05-28T00:14:05.655Z</time>
      </trkpt>
      <trkpt lat="43.5296" lon="3.16072">
        <ele>217</ele>
        <time>2019-05-28T00:14:39.571Z</time>
      </trkpt>
      <trkpt lat="43.52982" lon="3.16053">
        <ele>217</ele>
        <time>2019-05-28T00:14:47.367Z</time>
      </trkpt>
      <trkpt lat="43.52982" lon="3.16053">
        <ele>217</ele>
        <time>2019-05-28T00:14:47.471Z</time>
      </trkpt>
      <trkpt lat="43.52997" lon="3.16045">
        <ele>217</ele>
        <time>2019-05-28T00:14:51.895Z</time>
      </trkpt>
      <trkpt lat="43.53071" lon="3.16059">
        <ele>217</ele>
        <time>2019-05-28T00:15:13.333Z</time>
      </trkpt>
      <trkpt lat="43.53141" lon="3.16046">
        <ele>218</ele>
        <time>2019-05-28T00:15:32.527Z</time>
      </trkpt>
      <trkpt lat="43.53183" lon="3.1606">
        <ele>220</ele>
        <time>2019-05-28T00:15:43.630Z</time>
      </trkpt>
      <trkpt lat="43.53262" lon="3.16057">
        <ele>222</ele>
        <time>2019-05-28T00:16:03.815Z</time>
      </trkpt>
      <trkpt lat="43.5339" lon="3.16015">
        <ele>220</ele>
        <time>2019-05-28T00:16:31.945Z</time>
      </trkpt>
      <trkpt lat="43.53431" lon="3.16023">
        <ele>219</ele>
        <time>2019-05-28T00:16:40.259Z</time>
      </trkpt>
      <trkpt lat="43.53441" lon="3.16033">
        <ele>218</ele>
        <time>2019-05-28T00:16:42.679Z</time>
      </trkpt>
      <trkpt lat="43.53454" lon="3.16031">
        <ele>218</ele>
        <time>2019-05-28T00:16:45.227Z</time>
      </trkpt>
      <trkpt lat="43.53499" lon="3.15997">
        <ele>219</ele>
        <time>2019-05-28T00:16:55.563Z</time>
      </trkpt>
      <trkpt lat="43.53556" lon="3.15987">
        <ele>218</ele>
        <time>2019-05-28T00:17:07.419Z</time>
      </trkpt>
      <trkpt lat="43.53623" lon="3.15952">
        <ele>215</ele>
        <time>2019-05-28T00:17:26.071Z</time>
      </trkpt>
      <trkpt lat="43.53665" lon="3.15886">
        <ele>219</ele>
        <time>2019-05-28T00:17:46.782Z</time>
      </trkpt>
      <trkpt lat="43.53818" lon="3.15723">
        <ele>231</ele>
        <time>2019-05-28T00:19:05.778Z</time>
      </trkpt>
      <trkpt lat="43.53845" lon="3.15664">
        <ele>234</ele>
        <time>2019-05-28T00:19:26.817Z</time>
      </trkpt>
      <trkpt lat="43.53852" lon="3.15653">
        <ele>233</ele>
        <time>2019-05-28T00:19:32.450Z</time>
      </trkpt>
      <trkpt lat="43.53869" lon="3.15628">
        <ele>233</ele>
        <time>2019-05-28T00:19:41.371Z</time>
      </trkpt>
      <trkpt lat="43.53884" lon="3.15601">
        <ele>233</ele>
        <time>2019-05-28T00:19:51.762Z</time>
      </trkpt>
      <trkpt lat="43.53898" lon="3.156">
        <ele>233</ele>
        <time>2019-05-28T00:19:57.182Z</time>
      </trkpt>
      <trkpt lat="43.53937" lon="3.15602">
        <ele>235</ele>
        <time>2019-05-28T00:20:12.133Z</time>
      </trkpt>
      <trkpt lat="43.53985" lon="3.15718">
        <ele>238</ele>
        <time>2019-05-28T00:20:52.318Z</time>
      </trkpt>
      <trkpt lat="43.54061" lon="3.15727">
        <ele>246</ele>
        <time>2019-05-28T00:21:26.749Z</time>
      </trkpt>
      <trkpt lat="43.54069" lon="3.15725">
        <ele>246</ele>
        <time>2019-05-28T00:21:31.394Z</time>
      </trkpt>
      <trkpt lat="43.54079" lon="3.15715">
        <ele>246</ele>
        <time>2019-05-28T00:21:38.137Z</time>
      </trkpt>
      <trkpt lat="43.54101" lon="3.1566">
        <ele>252</ele>
        <time>2019-05-28T00:22:00.899Z</time>
      </trkpt>
      <trkpt lat="43.54254" lon="3.15582">
        <ele>264</ele>
        <time>2019-05-28T00:23:27.499Z</time>
      </trkpt>
      <trkpt lat="43.54424" lon="3.15623">
        <ele>277</ele>
        <time>2019-05-28T00:24:47.419Z</time>
      </trkpt>
      <trkpt lat="43.54475" lon="3.15619">
        <ele>278</ele>
        <time>2019-05-28T00:25:05.984Z</time>
      </trkpt>
      <trkpt lat="43.54495" lon="3.15608">
        <ele>279</ele>
        <time>2019-05-28T00:25:13.339Z</time>
      </trkpt>
      <trkpt lat="43.54497" lon="3.15607">
        <ele>279</ele>
        <time>2019-05-28T00:25:14.242Z</time>
      </trkpt>
      <trkpt lat="43.54576" lon="3.15582">
        <ele>280</ele>
        <time>2019-05-28T00:25:35.145Z</time>
      </trkpt>
      <trkpt lat="43.54669" lon="3.1561">
        <ele>273</ele>
        <time>2019-05-28T00:25:55.528Z</time>
      </trkpt>
      <trkpt lat="43.54698" lon="3.15611">
        <ele>273</ele>
        <time>2019-05-28T00:26:01.351Z</time>
      </trkpt>
      <trkpt lat="43.54714" lon="3.1561">
        <ele>273</ele>
        <time>2019-05-28T00:26:05.243Z</time>
      </trkpt>
      <trkpt lat="43.549" lon="3.15625">
        <ele>280</ele>
        <time>2019-05-28T00:26:58.807Z</time>
      </trkpt>
      <trkpt lat="43.54912" lon="3.15623">
        <ele>280</ele>
        <time>2019-05-28T00:27:03.225Z</time>
      </trkpt>
      <trkpt lat="43.54918" lon="3.15634">
        <ele>282</ele>
        <time>2019-05-28T00:27:06.316Z</time>
      </trkpt>
      <trkpt lat="43.54935" lon="3.15644">
        <ele>282</ele>
        <time>2019-05-28T00:27:12.411Z</time>
      </trkpt>
      <trkpt lat="43.5497" lon="3.15657">
        <ele>283</ele>
        <time>2019-05-28T00:27:23.924Z</time>
      </trkpt>
      <trkpt lat="43.5498" lon="3.15667">
        <ele>282</ele>
        <time>2019-05-28T00:27:27.696Z</time>
      </trkpt>
      <trkpt lat="43.55047" lon="3.15705">
        <ele>282</ele>
        <time>2019-05-28T00:27:48.087Z</time>
      </trkpt>
      <trkpt lat="43.55116" lon="3.15781">
        <ele>283</ele>
        <time>2019-05-28T00:28:07.700Z</time>
      </trkpt>
      <trkpt lat="43.55195" lon="3.15961">
        <ele>281</ele>
        <time>2019-05-28T00:28:35.936Z</time>
      </trkpt>
      <trkpt lat="43.55203" lon="3.15989">
        <ele>280</ele>
        <time>2019-05-28T00:28:39.793Z</time>
      </trkpt>
      <trkpt lat="43.55211" lon="3.16014">
        <ele>279</ele>
        <time>2019-05-28T00:28:43.455Z</time>
      </trkpt>
      <trkpt lat="43.55298" lon="3.16203">
        <ele>277</ele>
        <time>2019-05-28T00:29:14.730Z</time>
      </trkpt>
      <trkpt lat="43.55336" lon="3.16322">
        <ele>278</ele>
        <time>2019-05-28T00:29:37.748Z</time>
      </trkpt>
      <trkpt lat="43.55358" lon="3.16357">
        <ele>278</ele>
        <time>2019-05-28T00:29:46.271Z</time>
      </trkpt>
      <trkpt lat="43.554" lon="3.16394">
        <ele>279</ele>
        <time>2019-05-28T00:29:59.454Z</time>
      </trkpt>
      <trkpt lat="43.55469" lon="3.16617">
        <ele>282</ele>
        <time>2019-05-28T00:30:43.253Z</time>
      </trkpt>
      <trkpt lat="43.55545" lon="3.16729">
        <ele>282</ele>
        <time>2019-05-28T00:31:07.560Z</time>
      </trkpt>
      <trkpt lat="43.55555" lon="3.16741">
        <ele>282</ele>
        <time>2019-05-28T00:31:10.442Z</time>
      </trkpt>
      <trkpt lat="43.55568" lon="3.16748">
        <ele>282</ele>
        <time>2019-05-28T00:31:13.697Z</time>
      </trkpt>
      <trkpt lat="43.55602" lon="3.16762">
        <ele>280</ele>
        <time>2019-05-28T00:31:21.563Z</time>
      </trkpt>
      <trkpt lat="43.55657" lon="3.16753">
        <ele>281</ele>
        <time>2019-05-28T00:31:34.817Z</time>
      </trkpt>
      <trkpt lat="43.55716" lon="3.16817">
        <ele>280</ele>
        <time>2019-05-28T00:31:56.251Z</time>
      </trkpt>
      <trkpt lat="43.55791" lon="3.16836">
        <ele>283</ele>
        <time>2019-05-28T00:32:23.374Z</time>
      </trkpt>
      <trkpt lat="43.55818" lon="3.16856">
        <ele>284</ele>
        <time>2019-05-28T00:32:33.960Z</time>
      </trkpt>
      <trkpt lat="43.55823" lon="3.16874">
        <ele>285</ele>
        <time>2019-05-28T00:32:39.600Z</time>
      </trkpt>
      <trkpt lat="43.5583" lon="3.16959">
        <ele>287</ele>
        <time>2019-05-28T00:33:00.177Z</time>
      </trkpt>
      <trkpt lat="43.55832" lon="3.16983">
        <ele>287</ele>
        <time>2019-05-28T00:33:05.716Z</time>
      </trkpt>
      <trkpt lat="43.55832" lon="3.17111">
        <ele>287</ele>
        <time>2019-05-28T00:33:30.487Z</time>
      </trkpt>
      <trkpt lat="43.55833" lon="3.1712">
        <ele>287</ele>
        <time>2019-05-28T00:33:32.140Z</time>
      </trkpt>
      <trkpt lat="43.55835" lon="3.17132">
        <ele>284</ele>
        <time>2019-05-28T00:33:33.515Z</time>
      </trkpt>
      <trkpt lat="43.55858" lon="3.17171">
        <ele>283</ele>
        <time>2019-05-28T00:33:39.666Z</time>
      </trkpt>
      <trkpt lat="43.55884" lon="3.1726">
        <ele>280</ele>
        <time>2019-05-28T00:33:50.524Z</time>
      </trkpt>
      <trkpt lat="43.55887" lon="3.17286">
        <ele>279</ele>
        <time>2019-05-28T00:33:53.315Z</time>
      </trkpt>
      <trkpt lat="43.55891" lon="3.17332">
        <ele>278</ele>
        <time>2019-05-28T00:33:58.275Z</time>
      </trkpt>
      <trkpt lat="43.55887" lon="3.17378">
        <ele>275</ele>
        <time>2019-05-28T00:34:03.191Z</time>
      </trkpt>
      <trkpt lat="43.55869" lon="3.17446">
        <ele>271</ele>
        <time>2019-05-28T00:34:10.917Z</time>
      </trkpt>
      <trkpt lat="43.55859" lon="3.17503">
        <ele>270</ele>
        <time>2019-05-28T00:34:17.087Z</time>
      </trkpt>
      <trkpt lat="43.55855" lon="3.17539">
        <ele>269</ele>
        <time>2019-05-28T00:34:21.050Z</time>
      </trkpt>
      <trkpt lat="43.55852" lon="3.17564">
        <ele>268</ele>
        <time>2019-05-28T00:34:23.774Z</time>
      </trkpt>
      <trkpt lat="43.55782" lon="3.17748">
        <ele>267</ele>
        <time>2019-05-28T00:34:46.927Z</time>
      </trkpt>
      <trkpt lat="43.55773" lon="3.17884">
        <ele>259</ele>
        <time>2019-05-28T00:35:03.927Z</time>
      </trkpt>
      <trkpt lat="43.55774" lon="3.17934">
        <ele>258</ele>
        <time>2019-05-28T00:35:12.317Z</time>
      </trkpt>
      <trkpt lat="43.55785" lon="3.1802">
        <ele>259</ele>
        <time>2019-05-28T00:35:32.092Z</time>
      </trkpt>
      <trkpt lat="43.55793" lon="3.18049">
        <ele>259</ele>
        <time>2019-05-28T00:35:40.810Z</time>
      </trkpt>
      <trkpt lat="43.55808" lon="3.18084">
        <ele>261</ele>
        <time>2019-05-28T00:35:52.180Z</time>
      </trkpt>
      <trkpt lat="43.55818" lon="3.1812">
        <ele>262</ele>
        <time>2019-05-28T00:36:03.160Z</time>
      </trkpt>
      <trkpt lat="43.55831" lon="3.18165">
        <ele>265</ele>
        <time>2019-05-28T00:36:18.224Z</time>
      </trkpt>
      <trkpt lat="43.55837" lon="3.18196">
        <ele>268</ele>
        <time>2019-05-28T00:36:28.629Z</time>
      </trkpt>
      <trkpt lat="43.55846" lon="3.18232">
        <ele>269</ele>
        <time>2019-05-28T00:36:40.029Z</time>
      </trkpt>
      <trkpt lat="43.5585" lon="3.18282">
        <ele>271</ele>
        <time>2019-05-28T00:36:53.424Z</time>
      </trkpt>
      <trkpt lat="43.55862" lon="3.18307">
        <ele>272</ele>
        <time>2019-05-28T00:36:59.893Z</time>
      </trkpt>
      <trkpt lat="43.55948" lon="3.18397">
        <ele>272</ele>
        <time>2019-05-28T00:37:23.190Z</time>
      </trkpt>
      <trkpt lat="43.55953" lon="3.18399">
        <ele>272</ele>
        <time>2019-05-28T00:37:24.065Z</time>
      </trkpt>
      <trkpt lat="43.55966" lon="3.18411">
        <ele>272</ele>
        <time>2019-05-28T00:37:26.864Z</time>
      </trkpt>
      <trkpt lat="43.5598" lon="3.18408">
        <ele>271</ele>
        <time>2019-05-28T00:37:29.510Z</time>
      </trkpt>
      <trkpt lat="43.56017" lon="3.18431">
        <ele>269</ele>
        <time>2019-05-28T00:37:36.734Z</time>
      </trkpt>
      <trkpt lat="43.56084" lon="3.18431">
        <ele>273</ele>
        <time>2019-05-28T00:37:48.564Z</time>
      </trkpt>
      <trkpt lat="43.56089" lon="3.18436">
        <ele>274</ele>
        <time>2019-05-28T00:37:49.529Z</time>
      </trkpt>
      <trkpt lat="43.56097" lon="3.18451">
        <ele>274</ele>
        <time>2019-05-28T00:37:51.870Z</time>
      </trkpt>
      <trkpt lat="43.5613" lon="3.18501">
        <ele>271</ele>
        <time>2019-05-28T00:38:00.836Z</time>
      </trkpt>
      <trkpt lat="43.56139" lon="3.18533">
        <ele>270</ele>
        <time>2019-05-28T00:38:05.302Z</time>
      </trkpt>
      <trkpt lat="43.56184" lon="3.18587">
        <ele>270</ele>
        <time>2019-05-28T00:38:16.247Z</time>
      </trkpt>
      <trkpt lat="43.56213" lon="3.18683">
        <ele>269</ele>
        <time>2019-05-28T00:38:30.070Z</time>
      </trkpt>
      <trkpt lat="43.56287" lon="3.18816">
        <ele>267</ele>
        <time>2019-05-28T00:38:52.182Z</time>
      </trkpt>
      <trkpt lat="43.56297" lon="3.18855">
        <ele>262</ele>
        <time>2019-05-28T00:38:58.512Z</time>
      </trkpt>
      <trkpt lat="43.56361" lon="3.18941">
        <ele>264</ele>
        <time>2019-05-28T00:39:23.194Z</time>
      </trkpt>
      <trkpt lat="43.5637" lon="3.18961">
        <ele>264</ele>
        <time>2019-05-28T00:39:28.373Z</time>
      </trkpt>
      <trkpt lat="43.56398" lon="3.18956">
        <ele>266</ele>
        <time>2019-05-28T00:39:37.162Z</time>
      </trkpt>
      <trkpt lat="43.56431" lon="3.18935">
        <ele>273</ele>
        <time>2019-05-28T00:39:48.463Z</time>
      </trkpt>
      <trkpt lat="43.56435" lon="3.18931">
        <ele>273</ele>
        <time>2019-05-28T00:39:51.296Z</time>
      </trkpt>
      <trkpt lat="43.56451" lon="3.18955">
        <ele>272</ele>
        <time>2019-05-28T00:39:56.405Z</time>
      </trkpt>
      <trkpt lat="43.56455" lon="3.18964">
        <ele>272</ele>
        <time>2019-05-28T00:39:58.162Z</time>
      </trkpt>
      <trkpt lat="43.56459" lon="3.18971">
        <ele>272</ele>
        <time>2019-05-28T00:40:00.450Z</time>
      </trkpt>
      <trkpt lat="43.56463" lon="3.18978">
        <ele>272</ele>
        <time>2019-05-28T00:40:01.936Z</time>
      </trkpt>
      <trkpt lat="43.56474" lon="3.19008">
        <ele>269</ele>
        <time>2019-05-28T00:40:08.382Z</time>
      </trkpt>
      <trkpt lat="43.56481" lon="3.19059">
        <ele>267</ele>
        <time>2019-05-28T00:40:20.355Z</time>
      </trkpt>
      <trkpt lat="43.56479" lon="3.19067">
        <ele>266</ele>
        <time>2019-05-28T00:40:21.509Z</time>
      </trkpt>
      <trkpt lat="43.56472" lon="3.19096">
        <ele>264</ele>
        <time>2019-05-28T00:40:26.547Z</time>
      </trkpt>
      <trkpt lat="43.5647" lon="3.19101">
        <ele>264</ele>
        <time>2019-05-28T00:40:27.395Z</time>
      </trkpt>
      <trkpt lat="43.56465" lon="3.19113">
        <ele>263</ele>
        <time>2019-05-28T00:40:30.722Z</time>
      </trkpt>
      <trkpt lat="43.56464" lon="3.19125">
        <ele>263</ele>
        <time>2019-05-28T00:40:32.621Z</time>
      </trkpt>
      <trkpt lat="43.56461" lon="3.19136">
        <ele>263</ele>
        <time>2019-05-28T00:40:34.499Z</time>
      </trkpt>
      <trkpt lat="43.56451" lon="3.19157">
        <ele>263</ele>
        <time>2019-05-28T00:40:37.988Z</time>
      </trkpt>
      <trkpt lat="43.5643" lon="3.192">
        <ele>262</ele>
        <time>2019-05-28T00:40:45.719Z</time>
      </trkpt>
      <trkpt lat="43.56427" lon="3.19216">
        <ele>262</ele>
        <time>2019-05-28T00:40:49.020Z</time>
      </trkpt>
      <trkpt lat="43.56438" lon="3.19253">
        <ele>263</ele>
        <time>2019-05-28T00:40:56.068Z</time>
      </trkpt>
      <trkpt lat="43.56467" lon="3.19324">
        <ele>264</ele>
        <time>2019-05-28T00:41:14.373Z</time>
      </trkpt>
      <trkpt lat="43.56495" lon="3.19388">
        <ele>264</ele>
        <time>2019-05-28T00:41:34.892Z</time>
      </trkpt>
      <trkpt lat="43.56525" lon="3.19457">
        <ele>265</ele>
        <time>2019-05-28T00:41:59.332Z</time>
      </trkpt>
      <trkpt lat="43.56616" lon="3.19528">
        <ele>270</ele>
        <time>2019-05-28T00:42:48.268Z</time>
      </trkpt>
      <trkpt lat="43.56696" lon="3.19657">
        <ele>280</ele>
        <time>2019-05-28T00:43:46.509Z</time>
      </trkpt>
      <trkpt lat="43.56758" lon="3.19713">
        <ele>279</ele>
        <time>2019-05-28T00:44:15.021Z</time>
      </trkpt>
      <trkpt lat="43.56782" lon="3.19827">
        <ele>284</ele>
        <time>2019-05-28T00:44:42.281Z</time>
      </trkpt>
      <trkpt lat="43.56822" lon="3.19863">
        <ele>287</ele>
        <time>2019-05-28T00:44:55.284Z</time>
      </trkpt>
      <trkpt lat="43.56836" lon="3.19895">
        <ele>292</ele>
        <time>2019-05-28T00:45:02.454Z</time>
      </trkpt>
      <trkpt lat="43.56846" lon="3.1997">
        <ele>288</ele>
        <time>2019-05-28T00:45:16.803Z</time>
      </trkpt>
      <trkpt lat="43.56885" lon="3.19976">
        <ele>291</ele>
        <time>2019-05-28T00:45:27.044Z</time>
      </trkpt>
      <trkpt lat="43.56919" lon="3.20012">
        <ele>291</ele>
        <time>2019-05-28T00:45:38.863Z</time>
      </trkpt>
      <trkpt lat="43.56929" lon="3.20047">
        <ele>292</ele>
        <time>2019-05-28T00:45:47.514Z</time>
      </trkpt>
      <trkpt lat="43.56944" lon="3.20052">
        <ele>292</ele>
        <time>2019-05-28T00:45:52.067Z</time>
      </trkpt>
      <trkpt lat="43.57051" lon="3.20029">
        <ele>298</ele>
        <time>2019-05-28T00:46:29.779Z</time>
      </trkpt>
      <trkpt lat="43.57068" lon="3.20025">
        <ele>298</ele>
        <time>2019-05-28T00:46:36.591Z</time>
      </trkpt>
      <trkpt lat="43.57127" lon="3.19994">
        <ele>304</ele>
        <time>2019-05-28T00:47:01.293Z</time>
      </trkpt>
      <trkpt lat="43.57182" lon="3.20005">
        <ele>300</ele>
        <time>2019-05-28T00:47:27.048Z</time>
      </trkpt>
      <trkpt lat="43.57195" lon="3.20017">
        <ele>301</ele>
        <time>2019-05-28T00:47:32.080Z</time>
      </trkpt>
      <trkpt lat="43.57213" lon="3.20099">
        <ele>303</ele>
        <time>2019-05-28T00:47:57.059Z</time>
      </trkpt>
      <trkpt lat="43.57228" lon="3.20125">
        <ele>305</ele>
        <time>2019-05-28T00:48:05.155Z</time>
      </trkpt>
      <trkpt lat="43.57234" lon="3.20128">
        <ele>305</ele>
        <time>2019-05-28T00:48:09.592Z</time>
      </trkpt>
      <trkpt lat="43.57239" lon="3.20127">
        <ele>305</ele>
        <time>2019-05-28T00:48:10.530Z</time>
      </trkpt>
      <trkpt lat="43.57312" lon="3.20049">
        <ele>305</ele>
        <time>2019-05-28T00:48:39.322Z</time>
      </trkpt>
      <trkpt lat="43.57355" lon="3.20044">
        <ele>308</ele>
        <time>2019-05-28T00:48:52.497Z</time>
      </trkpt>
      <trkpt lat="43.57453" lon="3.20005">
        <ele>314</ele>
        <time>2019-05-28T00:49:18.818Z</time>
      </trkpt>
      <trkpt lat="43.57504" lon="3.19926">
        <ele>310</ele>
        <time>2019-05-28T00:49:46.873Z</time>
      </trkpt>
      <trkpt lat="43.57531" lon="3.19904">
        <ele>311</ele>
        <time>2019-05-28T00:49:59.993Z</time>
      </trkpt>
      <trkpt lat="43.57545" lon="3.19903">
        <ele>312</ele>
        <time>2019-05-28T00:50:07.019Z</time>
      </trkpt>
      <trkpt lat="43.57629" lon="3.19894">
        <ele>313</ele>
        <time>2019-05-28T00:50:45.159Z</time>
      </trkpt>
      <trkpt lat="43.57677" lon="3.19908">
        <ele>316</ele>
        <time>2019-05-28T00:51:08.662Z</time>
      </trkpt>
      <trkpt lat="43.57687" lon="3.19924">
        <ele>316</ele>
        <time>2019-05-28T00:51:16.731Z</time>
      </trkpt>
      <trkpt lat="43.57697" lon="3.20011">
        <ele>327</ele>
        <time>2019-05-28T00:51:45.156Z</time>
      </trkpt>
      <trkpt lat="43.57723" lon="3.20051">
        <ele>329</ele>
        <time>2019-05-28T00:52:00.760Z</time>
      </trkpt>
      <trkpt lat="43.57743" lon="3.20053">
        <ele>328</ele>
        <time>2019-05-28T00:52:08.348Z</time>
      </trkpt>
      <trkpt lat="43.57797" lon="3.2003">
        <ele>323</ele>
        <time>2019-05-28T00:52:27.091Z</time>
      </trkpt>
      <trkpt lat="43.5786" lon="3.20027">
        <ele>325</ele>
        <time>2019-05-28T00:52:45.805Z</time>
      </trkpt>
      <trkpt lat="43.5796" lon="3.20079">
        <ele>326</ele>
        <time>2019-05-28T00:53:13.957Z</time>
      </trkpt>
      <trkpt lat="43.57965" lon="3.2008">
        <ele>326</ele>
        <time>2019-05-28T00:53:16.846Z</time>
      </trkpt>
      <trkpt lat="43.57977" lon="3.20082">
        <ele>326</ele>
        <time>2019-05-28T00:53:18.947Z</time>
      </trkpt>
      <trkpt lat="43.58045" lon="3.20022">
        <ele>328</ele>
        <time>2019-05-28T00:53:40.393Z</time>
      </trkpt>
      <trkpt lat="43.58063" lon="3.20022">
        <ele>329</ele>
        <time>2019-05-28T00:53:47.026Z</time>
      </trkpt>
      <trkpt lat="43.58146" lon="3.20082">
        <ele>333</ele>
        <time>2019-05-28T00:54:14.365Z</time>
      </trkpt>
      <trkpt lat="43.58163" lon="3.20135">
        <ele>337</ele>
        <time>2019-05-28T00:54:27.976Z</time>
      </trkpt>
      <trkpt lat="43.58187" lon="3.20153">
        <ele>336</ele>
        <time>2019-05-28T00:54:37.146Z</time>
      </trkpt>
      <trkpt lat="43.58232" lon="3.20175">
        <ele>341</ele>
        <time>2019-05-28T00:54:53.220Z</time>
      </trkpt>
      <trkpt lat="43.5827" lon="3.20167">
        <ele>342</ele>
        <time>2019-05-28T00:55:06.514Z</time>
      </trkpt>
      <trkpt lat="43.58299" lon="3.20071">
        <ele>345</ele>
        <time>2019-05-28T00:55:32.717Z</time>
      </trkpt>
      <trkpt lat="43.58301" lon="3.20025">
        <ele>346</ele>
        <time>2019-05-28T00:55:44.631Z</time>
      </trkpt>
      <trkpt lat="43.58322" lon="3.19969">
        <ele>350</ele>
        <time>2019-05-28T00:56:00.724Z</time>
      </trkpt>
      <trkpt lat="43.58306" lon="3.19824">
        <ele>354</ele>
        <time>2019-05-28T00:56:41.330Z</time>
      </trkpt>
      <trkpt lat="43.58326" lon="3.1979">
        <ele>354</ele>
        <time>2019-05-28T00:56:55.168Z</time>
      </trkpt>
      <trkpt lat="43.58356" lon="3.19789">
        <ele>355</ele>
        <time>2019-05-28T00:57:08.631Z</time>
      </trkpt>
      <trkpt lat="43.58367" lon="3.19781">
        <ele>355</ele>
        <time>2019-05-28T00:57:13.436Z</time>
      </trkpt>
      <trkpt lat="43.58381" lon="3.19771">
        <ele>356</ele>
        <time>2019-05-28T00:57:21.321Z</time>
      </trkpt>
      <trkpt lat="43.58589" lon="3.19641">
        <ele>375</ele>
        <time>2019-05-28T00:59:09.145Z</time>
      </trkpt>
      <trkpt lat="43.58609" lon="3.19612">
        <ele>376</ele>
        <time>2019-05-28T00:59:22.368Z</time>
      </trkpt>
      <trkpt lat="43.58646" lon="3.19518">
        <ele>379</ele>
        <time>2019-05-28T00:59:54.440Z</time>
      </trkpt>
      <trkpt lat="43.58693" lon="3.19498">
        <ele>378</ele>
        <time>2019-05-28T01:00:12.458Z</time>
      </trkpt>
      <trkpt lat="43.58696" lon="3.19499">
        <ele>378</ele>
        <time>2019-05-28T01:00:13.928Z</time>
      </trkpt>
      <trkpt lat="43.5872" lon="3.19508">
        <ele>379</ele>
        <time>2019-05-28T01:00:22.440Z</time>
      </trkpt>
      <trkpt lat="43.58798" lon="3.19554">
        <ele>381</ele>
        <time>2019-05-28T01:00:52.590Z</time>
      </trkpt>
      <trkpt lat="43.58818" lon="3.19554">
        <ele>381</ele>
        <time>2019-05-28T01:00:58.742Z</time>
      </trkpt>
      <trkpt lat="43.58868" lon="3.19526">
        <ele>383</ele>
        <time>2019-05-28T01:01:21.548Z</time>
      </trkpt>
      <trkpt lat="43.58884" lon="3.19518">
        <ele>384</ele>
        <time>2019-05-28T01:01:26.644Z</time>
      </trkpt>
      <trkpt lat="43.58901" lon="3.1951">
        <ele>384</ele>
        <time>2019-05-28T01:01:34.629Z</time>
      </trkpt>
      <trkpt lat="43.58961" lon="3.19532">
        <ele>389</ele>
        <time>2019-05-28T01:01:58.576Z</time>
      </trkpt>
      <trkpt lat="43.58967" lon="3.19535">
        <ele>389</ele>
        <time>2019-05-28T01:02:02.635Z</time>
      </trkpt>
      <trkpt lat="43.58972" lon="3.19537">
        <ele>389</ele>
        <time>2019-05-28T01:02:05.153Z</time>
      </trkpt>
      <trkpt lat="43.59035" lon="3.19568">
        <ele>389</ele>
        <time>2019-05-28T01:02:32.053Z</time>
      </trkpt>
      <trkpt lat="43.59048" lon="3.19572">
        <ele>389</ele>
        <time>2019-05-28T01:02:37.540Z</time>
      </trkpt>
      <trkpt lat="43.59056" lon="3.19595">
        <ele>391</ele>
        <time>2019-05-28T01:02:43.695Z</time>
      </trkpt>
      <trkpt lat="43.59093" lon="3.19709">
        <ele>399</ele>
        <time>2019-05-28T01:03:07.668Z</time>
      </trkpt>
      <trkpt lat="43.59114" lon="3.19746">
        <ele>400</ele>
        <time>2019-05-28T01:03:14.161Z</time>
      </trkpt>
      <trkpt lat="43.59118" lon="3.19766">
        <ele>401</ele>
        <time>2019-05-28T01:03:17.656Z</time>
      </trkpt>
      <trkpt lat="43.59117" lon="3.19787">
        <ele>400</ele>
        <time>2019-05-28T01:03:20.112Z</time>
      </trkpt>
      <trkpt lat="43.59095" lon="3.19935">
        <ele>393</ele>
        <time>2019-05-28T01:03:38.442Z</time>
      </trkpt>
      <trkpt lat="43.5912" lon="3.20346">
        <ele>388</ele>
        <time>2019-05-28T01:04:32.914Z</time>
      </trkpt>
      <trkpt lat="43.59134" lon="3.20385">
        <ele>388</ele>
        <time>2019-05-28T01:04:39.214Z</time>
      </trkpt>
      <trkpt lat="43.59195" lon="3.20445">
        <ele>387</ele>
        <time>2019-05-28T01:04:55.015Z</time>
      </trkpt>
      <trkpt lat="43.59182" lon="3.20577">
        <ele>386</ele>
        <time>2019-05-28T01:05:18.049Z</time>
      </trkpt>
      <trkpt lat="43.59184" lon="3.20589">
        <ele>386</ele>
        <time>2019-05-28T01:05:19.822Z</time>
      </trkpt>
      <trkpt lat="43.59199" lon="3.20585">
        <ele>387</ele>
        <time>2019-05-28T01:05:23.389Z</time>
      </trkpt>
      <trkpt lat="43.59242" lon="3.20548">
        <ele>388</ele>
        <time>2019-05-28T01:05:33.115Z</time>
      </trkpt>
      <trkpt lat="43.59248" lon="3.20525">
        <ele>388</ele>
        <time>2019-05-28T01:05:36.445Z</time>
      </trkpt>
      <trkpt lat="43.59249" lon="3.20514">
        <ele>388</ele>
        <time>2019-05-28T01:05:38.037Z</time>
      </trkpt>
      <trkpt lat="43.59251" lon="3.2048">
        <ele>387</ele>
        <time>2019-05-28T01:05:42.277Z</time>
      </trkpt>
      <trkpt lat="43.59259" lon="3.20458">
        <ele>387</ele>
        <time>2019-05-28T01:05:45.353Z</time>
      </trkpt>
      <trkpt lat="43.59309" lon="3.20414">
        <ele>386</ele>
        <time>2019-05-28T01:05:54.900Z</time>
      </trkpt>
      <trkpt lat="43.5945" lon="3.2032">
        <ele>374</ele>
        <time>2019-05-28T01:06:17.415Z</time>
      </trkpt>
      <trkpt lat="43.59476" lon="3.20277">
        <ele>375</ele>
        <time>2019-05-28T01:06:23.047Z</time>
      </trkpt>
      <trkpt lat="43.59508" lon="3.20295">
        <ele>359</ele>
        <time>2019-05-28T01:06:27.651Z</time>
      </trkpt>
      <trkpt lat="43.59539" lon="3.20293">
        <ele>357</ele>
        <time>2019-05-28T01:06:31.850Z</time>
      </trkpt>
      <trkpt lat="43.59563" lon="3.20243">
        <ele>368</ele>
        <time>2019-05-28T01:06:37.750Z</time>
      </trkpt>
      <trkpt lat="43.59573" lon="3.20239">
        <ele>366</ele>
        <time>2019-05-28T01:06:39.211Z</time>
      </trkpt>
      <trkpt lat="43.59621" lon="3.20233">
        <ele>362</ele>
        <time>2019-05-28T01:06:45.659Z</time>
      </trkpt>
      <trkpt lat="43.59687" lon="3.20293">
        <ele>342</ele>
        <time>2019-05-28T01:06:56.373Z</time>
      </trkpt>
      <trkpt lat="43.59846" lon="3.20308">
        <ele>327</ele>
        <time>2019-05-28T01:07:18.678Z</time>
      </trkpt>
      <trkpt lat="43.59918" lon="3.2027">
        <ele>318</ele>
        <time>2019-05-28T01:07:29.943Z</time>
      </trkpt>
      <trkpt lat="43.59931" lon="3.20243">
        <ele>320</ele>
        <time>2019-05-28T01:07:33.455Z</time>
      </trkpt>
      <trkpt lat="43.59921" lon="3.20194">
        <ele>318</ele>
        <time>2019-05-28T01:07:39.021Z</time>
      </trkpt>
      <trkpt lat="43.59931" lon="3.2019">
        <ele>318</ele>
        <time>2019-05-28T01:07:40.644Z</time>
      </trkpt>
      <trkpt lat="43.5999" lon="3.20252">
        <ele>312</ele>
        <time>2019-05-28T01:07:51.635Z</time>
      </trkpt>
      <trkpt lat="43.59995" lon="3.20287">
        <ele>312</ele>
        <time>2019-05-28T01:07:55.572Z</time>
      </trkpt>
      <trkpt lat="43.5998" lon="3.20325">
        <ele>310</ele>
        <time>2019-05-28T01:08:00.229Z</time>
      </trkpt>
      <trkpt lat="43.59997" lon="3.20326">
        <ele>307</ele>
        <time>2019-05-28T01:08:02.755Z</time>
      </trkpt>
      <trkpt lat="43.60045" lon="3.20233">
        <ele>303</ele>
        <time>2019-05-28T01:08:15.121Z</time>
      </trkpt>
      <trkpt lat="43.60059" lon="3.20139">
        <ele>301</ele>
        <time>2019-05-28T01:08:25.377Z</time>
      </trkpt>
      <trkpt lat="43.60199" lon="3.19999">
        <ele>291</ele>
        <time>2019-05-28T01:08:51.532Z</time>
      </trkpt>
      <trkpt lat="43.6023" lon="3.1999">
        <ele>291</ele>
        <time>2019-05-28T01:08:56.573Z</time>
      </trkpt>
      <trkpt lat="43.60237" lon="3.19979">
        <ele>291</ele>
        <time>2019-05-28T01:08:58.185Z</time>
      </trkpt>
      <trkpt lat="43.60241" lon="3.1996">
        <ele>291</ele>
        <time>2019-05-28T01:09:00.527Z</time>
      </trkpt>
      <trkpt lat="43.60238" lon="3.19912">
        <ele>290</ele>
        <time>2019-05-28T01:09:06.319Z</time>
      </trkpt>
      <trkpt lat="43.60213" lon="3.19815">
        <ele>289</ele>
        <time>2019-05-28T01:09:18.965Z</time>
      </trkpt>
      <trkpt lat="43.60212" lon="3.19704">
        <ele>289</ele>
        <time>2019-05-28T01:09:33.512Z</time>
      </trkpt>
      <trkpt lat="43.60214" lon="3.19678">
        <ele>289</ele>
        <time>2019-05-28T01:09:37.003Z</time>
      </trkpt>
      <trkpt lat="43.60287" lon="3.19542">
        <ele>288</ele>
        <time>2019-05-28T01:09:58.952Z</time>
      </trkpt>
      <trkpt lat="43.6027" lon="3.19307">
        <ele>281</ele>
        <time>2019-05-28T01:10:28.843Z</time>
      </trkpt>
      <trkpt lat="43.60281" lon="3.19228">
        <ele>280</ele>
        <time>2019-05-28T01:10:39.053Z</time>
      </trkpt>
      <trkpt lat="43.60281" lon="3.19228">
        <ele>280</ele>
        <time>2019-05-28T01:10:39.053Z</time>
      </trkpt>
      <trkpt lat="43.60292" lon="3.19196">
        <ele>279</ele>
        <time>2019-05-28T01:10:43.520Z</time>
      </trkpt>
      <trkpt lat="43.60355" lon="3.19118">
        <ele>277</ele>
        <time>2019-05-28T01:10:58.308Z</time>
      </trkpt>
      <trkpt lat="43.60375" lon="3.19036">
        <ele>276</ele>
        <time>2019-05-28T01:11:09.598Z</time>
      </trkpt>
      <trkpt lat="43.60411" lon="3.18979">
        <ele>275</ele>
        <time>2019-05-28T01:11:20.017Z</time>
      </trkpt>
      <trkpt lat="43.60421" lon="3.18948">
        <ele>274</ele>
        <time>2019-05-28T01:11:24.818Z</time>
      </trkpt>
      <trkpt lat="43.60422" lon="3.18942">
        <ele>274</ele>
        <time>2019-05-28T01:11:25.735Z</time>
      </trkpt>
      <trkpt lat="43.60447" lon="3.18702">
        <ele>277</ele>
        <time>2019-05-28T01:12:03.108Z</time>
      </trkpt>
      <trkpt lat="43.60447" lon="3.18579">
        <ele>274</ele>
        <time>2019-05-28T01:12:21.423Z</time>
      </trkpt>
      <trkpt lat="43.60466" lon="3.18538">
        <ele>274</ele>
        <time>2019-05-28T01:12:28.307Z</time>
      </trkpt>
      <trkpt lat="43.60519" lon="3.18502">
        <ele>274</ele>
        <time>2019-05-28T01:12:39.209Z</time>
      </trkpt>
      <trkpt lat="43.60539" lon="3.1846">
        <ele>272</ele>
        <time>2019-05-28T01:12:45.933Z</time>
      </trkpt>
      <trkpt lat="43.60552" lon="3.18424">
        <ele>271</ele>
        <time>2019-05-28T01:12:51.109Z</time>
      </trkpt>
      <trkpt lat="43.60569" lon="3.18263">
        <ele>267</ele>
        <time>2019-05-28T01:13:11.993Z</time>
      </trkpt>
      <trkpt lat="43.60563" lon="3.18152">
        <ele>266</ele>
        <time>2019-05-28T01:13:26.330Z</time>
      </trkpt>
      <trkpt lat="43.60533" lon="3.18071">
        <ele>267</ele>
        <time>2019-05-28T01:13:37.639Z</time>
      </trkpt>
      <trkpt lat="43.60537" lon="3.18056">
        <ele>267</ele>
        <time>2019-05-28T01:13:39.649Z</time>
      </trkpt>
      <trkpt lat="43.6058" lon="3.18017">
        <ele>266</ele>
        <time>2019-05-28T01:13:48.196Z</time>
      </trkpt>
      <trkpt lat="43.60582" lon="3.17859">
        <ele>258</ele>
        <time>2019-05-28T01:14:06.754Z</time>
      </trkpt>
      <trkpt lat="43.60548" lon="3.17742">
        <ele>258</ele>
        <time>2019-05-28T01:14:21.916Z</time>
      </trkpt>
      <trkpt lat="43.60551" lon="3.17724">
        <ele>258</ele>
        <time>2019-05-28T01:14:23.889Z</time>
      </trkpt>
      <trkpt lat="43.60553" lon="3.17694">
        <ele>259</ele>
        <time>2019-05-28T01:14:27.779Z</time>
      </trkpt>
      <trkpt lat="43.60563" lon="3.17542">
        <ele>257</ele>
        <time>2019-05-28T01:14:45.569Z</time>
      </trkpt>
      <trkpt lat="43.60509" lon="3.17453">
        <ele>250</ele>
        <time>2019-05-28T01:14:58.519Z</time>
      </trkpt>
      <trkpt lat="43.60485" lon="3.17413">
        <ele>243</ele>
        <time>2019-05-28T01:15:04.150Z</time>
      </trkpt>
      <trkpt lat="43.60468" lon="3.17376">
        <ele>242</ele>
        <time>2019-05-28T01:15:08.822Z</time>
      </trkpt>
      <trkpt lat="43.60414" lon="3.17266">
        <ele>237</ele>
        <time>2019-05-28T01:15:22.871Z</time>
      </trkpt>
      <trkpt lat="43.60406" lon="3.17246">
        <ele>235</ele>
        <time>2019-05-28T01:15:25.156Z</time>
      </trkpt>
      <trkpt lat="43.60396" lon="3.17208">
        <ele>235</ele>
        <time>2019-05-28T01:15:29.487Z</time>
      </trkpt>
      <trkpt lat="43.60391" lon="3.17148">
        <ele>232</ele>
        <time>2019-05-28T01:15:36.245Z</time>
      </trkpt>
      <trkpt lat="43.60397" lon="3.17123">
        <ele>231</ele>
        <time>2019-05-28T01:15:39.072Z</time>
      </trkpt>
      <trkpt lat="43.605" lon="3.16958">
        <ele>229</ele>
        <time>2019-05-28T01:16:03.967Z</time>
      </trkpt>
      <trkpt lat="43.60505" lon="3.16903">
        <ele>227</ele>
        <time>2019-05-28T01:16:10.755Z</time>
      </trkpt>
      <trkpt lat="43.60481" lon="3.1677">
        <ele>225</ele>
        <time>2019-05-28T01:16:28.644Z</time>
      </trkpt>
      <trkpt lat="43.60491" lon="3.16715">
        <ele>226</ele>
        <time>2019-05-28T01:16:36.779Z</time>
      </trkpt>
      <trkpt lat="43.60513" lon="3.16685">
        <ele>225</ele>
        <time>2019-05-28T01:16:43.327Z</time>
      </trkpt>
      <trkpt lat="43.60543" lon="3.16669">
        <ele>224</ele>
        <time>2019-05-28T01:16:50.266Z</time>
      </trkpt>
      <trkpt lat="43.60634" lon="3.16689">
        <ele>226</ele>
        <time>2019-05-28T01:17:09.713Z</time>
      </trkpt>
      <trkpt lat="43.6064" lon="3.16689">
        <ele>226</ele>
        <time>2019-05-28T01:17:11.074Z</time>
      </trkpt>
      <trkpt lat="43.60643" lon="3.16689">
        <ele>226</ele>
        <time>2019-05-28T01:17:11.828Z</time>
      </trkpt>
      <trkpt lat="43.60742" lon="3.16623">
        <ele>224</ele>
        <time>2019-05-28T01:17:33.241Z</time>
      </trkpt>
      <trkpt lat="43.60814" lon="3.16592">
        <ele>223</ele>
        <time>2019-05-28T01:17:46.395Z</time>
      </trkpt>
      <trkpt lat="43.60849" lon="3.16541">
        <ele>219</ele>
        <time>2019-05-28T01:17:55.197Z</time>
      </trkpt>
      <trkpt lat="43.6085" lon="3.16532">
        <ele>219</ele>
        <time>2019-05-28T01:17:56.204Z</time>
      </trkpt>
      <trkpt lat="43.60835" lon="3.16513">
        <ele>218</ele>
        <time>2019-05-28T01:17:59.701Z</time>
      </trkpt>
      <trkpt lat="43.6082" lon="3.1648">
        <ele>223</ele>
        <time>2019-05-28T01:18:04.904Z</time>
      </trkpt>
      <trkpt lat="43.6082" lon="3.16463">
        <ele>225</ele>
        <time>2019-05-28T01:18:07.302Z</time>
      </trkpt>
      <trkpt lat="43.60863" lon="3.16461">
        <ele>222</ele>
        <time>2019-05-28T01:18:15.135Z</time>
      </trkpt>
      <trkpt lat="43.60877" lon="3.16465">
        <ele>221</ele>
        <time>2019-05-28T01:18:17.811Z</time>
      </trkpt>
      <trkpt lat="43.60884" lon="3.16466">
        <ele>221</ele>
        <time>2019-05-28T01:18:19.085Z</time>
      </trkpt>
      <trkpt lat="43.60889" lon="3.16469">
        <ele>221</ele>
        <time>2019-05-28T01:18:20.100Z</time>
      </trkpt>
      <trkpt lat="43.60891" lon="3.16474">
        <ele>220</ele>
        <time>2019-05-28T01:18:21.239Z</time>
      </trkpt>
      <trkpt lat="43.60895" lon="3.16478">
        <ele>220</ele>
        <time>2019-05-28T01:18:21.906Z</time>
      </trkpt>
      <trkpt lat="43.60899" lon="3.16479">
        <ele>220</ele>
        <time>2019-05-28T01:18:22.556Z</time>
      </trkpt>
      <trkpt lat="43.60903" lon="3.16478">
        <ele>220</ele>
        <time>2019-05-28T01:18:23.483Z</time>
      </trkpt>
      <trkpt lat="43.60907" lon="3.16474">
        <ele>220</ele>
        <time>2019-05-28T01:18:24.466Z</time>
      </trkpt>
      <trkpt lat="43.60909" lon="3.16468">
        <ele>220</ele>
        <time>2019-05-28T01:18:25.523Z</time>
      </trkpt>
      <trkpt lat="43.60909" lon="3.1646">
        <ele>220</ele>
        <time>2019-05-28T01:18:26.446Z</time>
      </trkpt>
      <trkpt lat="43.60911" lon="3.16453">
        <ele>220</ele>
        <time>2019-05-28T01:18:27.988Z</time>
      </trkpt>
      <trkpt lat="43.60915" lon="3.16443">
        <ele>220</ele>
        <time>2019-05-28T01:18:29.672Z</time>
      </trkpt>
      <trkpt lat="43.60925" lon="3.16428">
        <ele>219</ele>
        <time>2019-05-28T01:18:32.959Z</time>
      </trkpt>
      <trkpt lat="43.60929" lon="3.16425">
        <ele>219</ele>
        <time>2019-05-28T01:18:33.858Z</time>
      </trkpt>
      <trkpt lat="43.60933" lon="3.16421">
        <ele>219</ele>
        <time>2019-05-28T01:18:34.774Z</time>
      </trkpt>
      <trkpt lat="43.6096" lon="3.16403">
        <ele>222</ele>
        <time>2019-05-28T01:18:41.378Z</time>
      </trkpt>
      <trkpt lat="43.6108" lon="3.16381">
        <ele>219</ele>
        <time>2019-05-28T01:19:06.117Z</time>
      </trkpt>
      <trkpt lat="43.61124" lon="3.16361">
        <ele>216</ele>
        <time>2019-05-28T01:19:14.376Z</time>
      </trkpt>
      <trkpt lat="43.61128" lon="3.16359">
        <ele>216</ele>
        <time>2019-05-28T01:19:14.926Z</time>
      </trkpt>
      <trkpt lat="43.61147" lon="3.16346">
        <ele>215</ele>
        <time>2019-05-28T01:19:18.905Z</time>
      </trkpt>
      <trkpt lat="43.61202" lon="3.16295">
        <ele>216</ele>
        <time>2019-05-28T01:19:30.576Z</time>
      </trkpt>
      <trkpt lat="43.61208" lon="3.16288">
        <ele>216</ele>
        <time>2019-05-28T01:19:31.938Z</time>
      </trkpt>
      <trkpt lat="43.61218" lon="3.16278">
        <ele>216</ele>
        <time>2019-05-28T01:19:33.886Z</time>
      </trkpt>
      <trkpt lat="43.61228" lon="3.16255">
        <ele>216</ele>
        <time>2019-05-28T01:19:37.567Z</time>
      </trkpt>
      <trkpt lat="43.61235" lon="3.16237">
        <ele>214</ele>
        <time>2019-05-28T01:19:40.071Z</time>
      </trkpt>
      <trkpt lat="43.6126" lon="3.1618">
        <ele>215</ele>
        <time>2019-05-28T01:19:48.678Z</time>
      </trkpt>
      <trkpt lat="43.61296" lon="3.16094">
        <ele>214</ele>
        <time>2019-05-28T01:20:01.378Z</time>
      </trkpt>
      <trkpt lat="43.61326" lon="3.16027">
        <ele>211</ele>
        <time>2019-05-28T01:20:11.750Z</time>
      </trkpt>
      <trkpt lat="43.61335" lon="3.16007">
        <ele>211</ele>
        <time>2019-05-28T01:20:14.873Z</time>
      </trkpt>
      <trkpt lat="43.61346" lon="3.15981">
        <ele>209</ele>
        <time>2019-05-28T01:20:18.683Z</time>
      </trkpt>
      <trkpt lat="43.61357" lon="3.15966">
        <ele>209</ele>
        <time>2019-05-28T01:20:21.284Z</time>
      </trkpt>
      <trkpt lat="43.61366" lon="3.15953">
        <ele>209</ele>
        <time>2019-05-28T01:20:23.789Z</time>
      </trkpt>
      <trkpt lat="43.61395" lon="3.15925">
        <ele>208</ele>
        <time>2019-05-28T01:20:31.045Z</time>
      </trkpt>
      <trkpt lat="43.61426" lon="3.15899">
        <ele>206</ele>
        <time>2019-05-28T01:20:40.200Z</time>
      </trkpt>
      <trkpt lat="43.61442" lon="3.15886">
        <ele>205</ele>
        <time>2019-05-28T01:20:45.354Z</time>
      </trkpt>
      <trkpt lat="43.61476" lon="3.15857">
        <ele>204</ele>
        <time>2019-05-28T01:20:57.112Z</time>
      </trkpt>
      <trkpt lat="43.61482" lon="3.15865">
        <ele>205</ele>
        <time>2019-05-28T01:20:59.826Z</time>
      </trkpt>
      <trkpt lat="43.61484" lon="3.15869">
        <ele>205</ele>
        <time>2019-05-28T01:21:01.173Z</time>
      </trkpt>
      <trkpt lat="43.61485" lon="3.1587">
        <ele>205</ele>
        <time>2019-05-28T01:21:01.690Z</time>
      </trkpt>
      <trkpt lat="43.61497" lon="3.15884">
        <ele>205</ele>
        <time>2019-05-28T01:21:05.902Z</time>
      </trkpt>
      <trkpt lat="43.615" lon="3.15888">
        <ele>205</ele>
        <time>2019-05-28T01:21:06.997Z</time>
      </trkpt>
      <trkpt lat="43.61506" lon="3.15894">
        <ele>205</ele>
        <time>2019-05-28T01:21:08.457Z</time>
      </trkpt>
      <trkpt lat="43.6152" lon="3.15909">
        <ele>206</ele>
        <time>2019-05-28T01:21:12.938Z</time>
      </trkpt>
      <trkpt lat="43.61532" lon="3.15922">
        <ele>209</ele>
        <time>2019-05-28T01:21:15.705Z</time>
      </trkpt>
      <trkpt lat="43.61535" lon="3.15925">
        <ele>209</ele>
        <time>2019-05-28T01:21:16.348Z</time>
      </trkpt>
      <trkpt lat="43.61544" lon="3.15936">
        <ele>209</ele>
        <time>2019-05-28T01:21:20.028Z</time>
      </trkpt>
      <trkpt lat="43.61554" lon="3.15947">
        <ele>209</ele>
        <time>2019-05-28T01:21:22.550Z</time>
      </trkpt>
      <trkpt lat="43.6156" lon="3.15952">
        <ele>209</ele>
        <time>2019-05-28T01:21:23.749Z</time>
      </trkpt>
      <trkpt lat="43.61573" lon="3.15967">
        <ele>209</ele>
        <time>2019-05-28T01:21:27.962Z</time>
      </trkpt>
      <trkpt lat="43.61604" lon="3.16">
        <ele>210</ele>
        <time>2019-05-28T01:21:36.166Z</time>
      </trkpt>
      <trkpt lat="43.61617" lon="3.15985">
        <ele>206</ele>
        <time>2019-05-28T01:21:39.265Z</time>
      </trkpt>
      <trkpt lat="43.61621" lon="3.1598">
        <ele>206</ele>
        <time>2019-05-28T01:21:40.108Z</time>
      </trkpt>
      <trkpt lat="43.61639" lon="3.15959">
        <ele>205</ele>
        <time>2019-05-28T01:21:44.894Z</time>
      </trkpt>
      <trkpt lat="43.61648" lon="3.15948">
        <ele>205</ele>
        <time>2019-05-28T01:21:46.803Z</time>
      </trkpt>
      <trkpt lat="43.6166" lon="3.1597">
        <ele>205</ele>
        <time>2019-05-28T01:21:50.468Z</time>
      </trkpt>
      <trkpt lat="43.61728" lon="3.15881">
        <ele>203</ele>
        <time>2019-05-28T01:22:04.394Z</time>
      </trkpt>
      <trkpt lat="43.61746" lon="3.15857">
        <ele>202</ele>
        <time>2019-05-28T01:22:08.313Z</time>
      </trkpt>
      <trkpt lat="43.61796" lon="3.15792">
        <ele>199</ele>
        <time>2019-05-28T01:22:19.477Z</time>
      </trkpt>
      <trkpt lat="43.61798" lon="3.15789">
        <ele>199</ele>
        <time>2019-05-28T01:22:19.894Z</time>
      </trkpt>
      <trkpt lat="43.61831" lon="3.15746">
        <ele>198</ele>
        <time>2019-05-28T01:22:27.612Z</time>
      </trkpt>
      <trkpt lat="43.61865" lon="3.15701">
        <ele>197</ele>
        <time>2019-05-28T01:22:36.380Z</time>
      </trkpt>
      <trkpt lat="43.61911" lon="3.15642">
        <ele>199</ele>
        <time>2019-05-28T01:22:48.385Z</time>
      </trkpt>
      <trkpt lat="43.61912" lon="3.1564">
        <ele>199</ele>
        <time>2019-05-28T01:22:48.733Z</time>
      </trkpt>
      <trkpt lat="43.61937" lon="3.1561">
        <ele>203</ele>
        <time>2019-05-28T01:22:55.690Z</time>
      </trkpt>
      <trkpt lat="43.61975" lon="3.15652">
        <ele>202</ele>
        <time>2019-05-28T01:23:06.661Z</time>
      </trkpt>
      <trkpt lat="43.62107" lon="3.15798">
        <ele>206</ele>
        <time>2019-05-28T01:23:53.491Z</time>
      </trkpt>
      <trkpt lat="43.62124" lon="3.15812">
        <ele>207</ele>
        <time>2019-05-28T01:23:58.978Z</time>
      </trkpt>
      <trkpt lat="43.62147" lon="3.15833">
        <ele>207</ele>
        <time>2019-05-28T01:24:06.967Z</time>
      </trkpt>
      <trkpt lat="43.6217" lon="3.15848">
        <ele>208</ele>
        <time>2019-05-28T01:24:14.413Z</time>
      </trkpt>
      <trkpt lat="43.62197" lon="3.15868">
        <ele>209</ele>
        <time>2019-05-28T01:24:23.110Z</time>
      </trkpt>
      <trkpt lat="43.62338" lon="3.15976">
        <ele>213</ele>
        <time>2019-05-28T01:25:07.643Z</time>
      </trkpt>
      <trkpt lat="43.62521" lon="3.1612">
        <ele>212</ele>
        <time>2019-05-28T01:25:58.855Z</time>
      </trkpt>
      <trkpt lat="43.62526" lon="3.1613">
        <ele>212</ele>
        <time>2019-05-28T01:26:00.918Z</time>
      </trkpt>
      <trkpt lat="43.62531" lon="3.16141">
        <ele>211</ele>
        <time>2019-05-28T01:26:03.109Z</time>
      </trkpt>
      <trkpt lat="43.6253" lon="3.16146">
        <ele>211</ele>
        <time>2019-05-28T01:26:03.773Z</time>
      </trkpt>
      <trkpt lat="43.62531" lon="3.1615">
        <ele>211</ele>
        <time>2019-05-28T01:26:04.579Z</time>
      </trkpt>
      <trkpt lat="43.62534" lon="3.16154">
        <ele>211</ele>
        <time>2019-05-28T01:26:05.366Z</time>
      </trkpt>
      <trkpt lat="43.62537" lon="3.16156">
        <ele>211</ele>
        <time>2019-05-28T01:26:06.270Z</time>
      </trkpt>
      <trkpt lat="43.62542" lon="3.16155">
        <ele>211</ele>
        <time>2019-05-28T01:26:07.390Z</time>
      </trkpt>
      <trkpt lat="43.62545" lon="3.1615">
        <ele>212</ele>
        <time>2019-05-28T01:26:08.511Z</time>
      </trkpt>
      <trkpt lat="43.62547" lon="3.16145">
        <ele>212</ele>
        <time>2019-05-28T01:26:09.450Z</time>
      </trkpt>
      <trkpt lat="43.62546" lon="3.16139">
        <ele>212</ele>
        <time>2019-05-28T01:26:10.459Z</time>
      </trkpt>
      <trkpt lat="43.62543" lon="3.16135">
        <ele>212</ele>
        <time>2019-05-28T01:26:11.358Z</time>
      </trkpt>
      <trkpt lat="43.62543" lon="3.16135">
        <ele>212</ele>
        <time>2019-05-28T01:26:11.384Z</time>
      </trkpt>
      <trkpt lat="43.62542" lon="3.16135">
        <ele>212</ele>
        <time>2019-05-14T19:11:06.135Z</time>
      </trkpt>
      <trkpt lat="43.62542" lon="3.16135">
        <ele>212</ele>
        <time>2019-05-14T19:11:06.135Z</time>
      </trkpt>
      <trkpt lat="43.62539" lon="3.16133">
        <ele>212</ele>
        <time>2019-05-14T19:11:06.813Z</time>
      </trkpt>
      <trkpt lat="43.62532" lon="3.16128">
        <ele>212</ele>
        <time>2019-05-14T19:11:08.487Z</time>
      </trkpt>
      <trkpt lat="43.62521" lon="3.1612">
        <ele>212</ele>
        <time>2019-05-14T19:11:11.172Z</time>
      </trkpt>
      <trkpt lat="43.62338" lon="3.15976">
        <ele>213</ele>
        <time>2019-05-14T19:11:54.061Z</time>
      </trkpt>
      <trkpt lat="43.62197" lon="3.15868">
        <ele>209</ele>
        <time>2019-05-14T19:12:24.168Z</time>
      </trkpt>
      <trkpt lat="43.6217" lon="3.15848">
        <ele>208</ele>
        <time>2019-05-14T19:12:29.676Z</time>
      </trkpt>
      <trkpt lat="43.6215" lon="3.15828">
        <ele>207</ele>
        <time>2019-05-14T19:12:34.315Z</time>
      </trkpt>
      <trkpt lat="43.62124" lon="3.15812">
        <ele>207</ele>
        <time>2019-05-14T19:12:39.394Z</time>
      </trkpt>
      <trkpt lat="43.62107" lon="3.15798">
        <ele>206</ele>
        <time>2019-05-14T19:12:42.931Z</time>
      </trkpt>
      <trkpt lat="43.61975" lon="3.15652">
        <ele>202</ele>
        <time>2019-05-14T19:13:14.992Z</time>
      </trkpt>
      <trkpt lat="43.61937" lon="3.1561">
        <ele>203</ele>
        <time>2019-05-14T19:13:26.079Z</time>
      </trkpt>
      <trkpt lat="43.619" lon="3.15568">
        <ele>204</ele>
        <time>2019-05-14T19:13:38.073Z</time>
      </trkpt>
      <trkpt lat="43.61875" lon="3.15556">
        <ele>204</ele>
        <time>2019-05-14T19:13:45.137Z</time>
      </trkpt>
      <trkpt lat="43.6187" lon="3.15555">
        <ele>204</ele>
        <time>2019-05-14T19:13:46.702Z</time>
      </trkpt>
      <trkpt lat="43.61851" lon="3.1555">
        <ele>203</ele>
        <time>2019-05-14T19:13:52.008Z</time>
      </trkpt>
      <trkpt lat="43.61832" lon="3.15546">
        <ele>201</ele>
        <time>2019-05-14T19:13:57.395Z</time>
      </trkpt>
      <trkpt lat="43.61815" lon="3.15543">
        <ele>201</ele>
        <time>2019-05-14T19:14:02.445Z</time>
      </trkpt>
      <trkpt lat="43.61799" lon="3.15539">
        <ele>202</ele>
        <time>2019-05-14T19:14:07.099Z</time>
      </trkpt>
      <trkpt lat="43.61741" lon="3.15525">
        <ele>203</ele>
        <time>2019-05-14T19:14:23.617Z</time>
      </trkpt>
      <trkpt lat="43.61738" lon="3.15524">
        <ele>203</ele>
        <time>2019-05-14T19:14:24.408Z</time>
      </trkpt>
      <trkpt lat="43.61716" lon="3.15519">
        <ele>203</ele>
        <time>2019-05-14T19:14:30.014Z</time>
      </trkpt>
      <trkpt lat="43.61691" lon="3.15515">
        <ele>203</ele>
        <time>2019-05-14T19:14:36.191Z</time>
      </trkpt>
      <trkpt lat="43.61673" lon="3.1551">
        <ele>204</ele>
        <time>2019-05-14T19:14:40.175Z</time>
      </trkpt>
      <trkpt lat="43.61662" lon="3.15507">
        <ele>205</ele>
        <time>2019-05-14T19:14:42.801Z</time>
      </trkpt>
      <trkpt lat="43.61653" lon="3.15504">
        <ele>205</ele>
        <time>2019-05-14T19:14:44.885Z</time>
      </trkpt>
      <trkpt lat="43.61639" lon="3.15501">
        <ele>204</ele>
        <time>2019-05-14T19:14:47.991Z</time>
      </trkpt>
      <trkpt lat="43.61623" lon="3.15497">
        <ele>206</ele>
        <time>2019-05-14T19:14:51.471Z</time>
      </trkpt>
      <trkpt lat="43.61595" lon="3.15484">
        <ele>206</ele>
        <time>2019-05-14T19:14:57.671Z</time>
      </trkpt>
      <trkpt lat="43.61578" lon="3.15476">
        <ele>205</ele>
        <time>2019-05-14T19:15:01.264Z</time>
      </trkpt>
      <trkpt lat="43.61559" lon="3.15468">
        <ele>204</ele>
        <time>2019-05-14T19:15:04.939Z</time>
      </trkpt>
      <trkpt lat="43.61542" lon="3.1546">
        <ele>204</ele>
        <time>2019-05-14T19:15:08.164Z</time>
      </trkpt>
      <trkpt lat="43.61523" lon="3.1545">
        <ele>203</ele>
        <time>2019-05-14T19:15:11.860Z</time>
      </trkpt>
      <trkpt lat="43.61518" lon="3.15446">
        <ele>203</ele>
        <time>2019-05-14T19:15:12.813Z</time>
      </trkpt>
      <trkpt lat="43.61472" lon="3.1541">
        <ele>203</ele>
        <time>2019-05-14T19:15:22.246Z</time>
      </trkpt>
      <trkpt lat="43.61456" lon="3.15398">
        <ele>203</ele>
        <time>2019-05-14T19:15:25.497Z</time>
      </trkpt>
      <trkpt lat="43.61439" lon="3.15385">
        <ele>203</ele>
        <time>2019-05-14T19:15:28.988Z</time>
      </trkpt>
      <trkpt lat="43.61423" lon="3.15372">
        <ele>202</ele>
        <time>2019-05-14T19:15:32.398Z</time>
      </trkpt>
      <trkpt lat="43.61407" lon="3.15359">
        <ele>201</ele>
        <time>2019-05-14T19:15:35.882Z</time>
      </trkpt>
      <trkpt lat="43.61393" lon="3.15347">
        <ele>200</ele>
        <time>2019-05-14T19:15:38.890Z</time>
      </trkpt>
      <trkpt lat="43.61376" lon="3.15333">
        <ele>200</ele>
        <time>2019-05-14T19:15:42.838Z</time>
      </trkpt>
      <trkpt lat="43.61359" lon="3.15318">
        <ele>200</ele>
        <time>2019-05-14T19:15:46.777Z</time>
      </trkpt>
      <trkpt lat="43.61352" lon="3.15312">
        <ele>200</ele>
        <time>2019-05-14T19:15:48.468Z</time>
      </trkpt>
      <trkpt lat="43.61334" lon="3.15297">
        <ele>200</ele>
        <time>2019-05-14T19:15:52.445Z</time>
      </trkpt>
      <trkpt lat="43.61186" lon="3.15186">
        <ele>197</ele>
        <time>2019-05-14T19:16:26.842Z</time>
      </trkpt>
      <trkpt lat="43.61137" lon="3.15168">
        <ele>197</ele>
        <time>2019-05-14T19:16:37.884Z</time>
      </trkpt>
      <trkpt lat="43.6113" lon="3.15143">
        <ele>196</ele>
        <time>2019-05-14T19:16:42.161Z</time>
      </trkpt>
      <trkpt lat="43.61117" lon="3.15074">
        <ele>196</ele>
        <time>2019-05-14T19:16:53.634Z</time>
      </trkpt>
      <trkpt lat="43.61114" lon="3.15061">
        <ele>197</ele>
        <time>2019-05-14T19:16:55.896Z</time>
      </trkpt>
      <trkpt lat="43.61089" lon="3.15051">
        <ele>197</ele>
        <time>2019-05-14T19:17:01.818Z</time>
      </trkpt>
      <trkpt lat="43.61016" lon="3.1499">
        <ele>198</ele>
        <time>2019-05-14T19:17:22.721Z</time>
      </trkpt>
      <trkpt lat="43.61012" lon="3.14985">
        <ele>198</ele>
        <time>2019-05-14T19:17:24.012Z</time>
      </trkpt>
      <trkpt lat="43.60975" lon="3.14939">
        <ele>198</ele>
        <time>2019-05-14T19:17:36.688Z</time>
      </trkpt>
      <trkpt lat="43.6095" lon="3.14906">
        <ele>201</ele>
        <time>2019-05-14T19:17:45.782Z</time>
      </trkpt>
      <trkpt lat="43.60928" lon="3.14883">
        <ele>201</ele>
        <time>2019-05-14T19:17:53.089Z</time>
      </trkpt>
      <trkpt lat="43.60862" lon="3.14815">
        <ele>209</ele>
        <time>2019-05-14T19:18:14.199Z</time>
      </trkpt>
      <trkpt lat="43.60814" lon="3.1478">
        <ele>209</ele>
        <time>2019-05-14T19:18:27.787Z</time>
      </trkpt>
      <trkpt lat="43.60582" lon="3.14663">
        <ele>210</ele>
        <time>2019-05-14T19:19:19.264Z</time>
      </trkpt>
      <trkpt lat="43.60551" lon="3.1464">
        <ele>211</ele>
        <time>2019-05-14T19:19:26.473Z</time>
      </trkpt>
      <trkpt lat="43.60527" lon="3.14623">
        <ele>211</ele>
        <time>2019-05-14T19:19:32.033Z</time>
      </trkpt>
      <trkpt lat="43.6047" lon="3.1458">
        <ele>208</ele>
        <time>2019-05-14T19:19:45.095Z</time>
      </trkpt>
      <trkpt lat="43.60374" lon="3.14511">
        <ele>200</ele>
        <time>2019-05-14T19:20:06.556Z</time>
      </trkpt>
      <trkpt lat="43.60362" lon="3.14492">
        <ele>201</ele>
        <time>2019-05-14T19:20:10.112Z</time>
      </trkpt>
      <trkpt lat="43.60339" lon="3.14469">
        <ele>201</ele>
        <time>2019-05-14T19:20:15.500Z</time>
      </trkpt>
      <trkpt lat="43.60253" lon="3.14362">
        <ele>197</ele>
        <time>2019-05-14T19:20:37.008Z</time>
      </trkpt>
      <trkpt lat="43.60195" lon="3.14344">
        <ele>194</ele>
        <time>2019-05-14T19:20:48.133Z</time>
      </trkpt>
      <trkpt lat="43.60175" lon="3.14332">
        <ele>194</ele>
        <time>2019-05-14T19:20:52.258Z</time>
      </trkpt>
      <trkpt lat="43.60168" lon="3.14325">
        <ele>194</ele>
        <time>2019-05-14T19:20:54.104Z</time>
      </trkpt>
      <trkpt lat="43.60161" lon="3.14326">
        <ele>193</ele>
        <time>2019-05-14T19:20:55.578Z</time>
      </trkpt>
      <trkpt lat="43.60147" lon="3.14328">
        <ele>193</ele>
        <time>2019-05-14T19:20:58.537Z</time>
      </trkpt>
      <trkpt lat="43.60142" lon="3.14326">
        <ele>193</ele>
        <time>2019-05-14T19:20:59.705Z</time>
      </trkpt>
      <trkpt lat="43.60004" lon="3.14119">
        <ele>193</ele>
        <time>2019-05-14T19:21:45.776Z</time>
      </trkpt>
      <trkpt lat="43.59993" lon="3.141">
        <ele>192</ele>
        <time>2019-05-14T19:21:49.917Z</time>
      </trkpt>
      <trkpt lat="43.59975" lon="3.14067">
        <ele>193</ele>
        <time>2019-05-14T19:21:56.773Z</time>
      </trkpt>
      <trkpt lat="43.59973" lon="3.14062">
        <ele>193</ele>
        <time>2019-05-14T19:21:57.936Z</time>
      </trkpt>
      <trkpt lat="43.5976" lon="3.13496">
        <ele>192</ele>
        <time>2019-05-14T19:23:48.196Z</time>
      </trkpt>
      <trkpt lat="43.59735" lon="3.13408">
        <ele>191</ele>
        <time>2019-05-14T19:24:04.059Z</time>
      </trkpt>
      <trkpt lat="43.59728" lon="3.13378">
        <ele>191</ele>
        <time>2019-05-14T19:24:09.408Z</time>
      </trkpt>
      <trkpt lat="43.59719" lon="3.13333">
        <ele>191</ele>
        <time>2019-05-14T19:24:17.168Z</time>
      </trkpt>
      <trkpt lat="43.59662" lon="3.12766">
        <ele>193</ele>
        <time>2019-05-14T19:25:57.927Z</time>
      </trkpt>
      <trkpt lat="43.59655" lon="3.12681">
        <ele>190</ele>
        <time>2019-05-14T19:26:10.694Z</time>
      </trkpt>
      <trkpt lat="43.5965" lon="3.1262">
        <ele>187</ele>
        <time>2019-05-14T19:26:19.560Z</time>
      </trkpt>
      <trkpt lat="43.59622" lon="3.12304">
        <ele>182</ele>
        <time>2019-05-14T19:27:04.772Z</time>
      </trkpt>
      <trkpt lat="43.59616" lon="3.12243">
        <ele>182</ele>
        <time>2019-05-14T19:27:14.599Z</time>
      </trkpt>
      <trkpt lat="43.59595" lon="3.11983">
        <ele>183</ele>
        <time>2019-05-14T19:28:04.433Z</time>
      </trkpt>
      <trkpt lat="43.59573" lon="3.11726">
        <ele>186</ele>
        <time>2019-05-14T19:29:02.922Z</time>
      </trkpt>
      <trkpt lat="43.59561" lon="3.1161">
        <ele>189</ele>
        <time>2019-05-14T19:29:32.120Z</time>
      </trkpt>
      <trkpt lat="43.59561" lon="3.11598">
        <ele>189</ele>
        <time>2019-05-14T19:29:34.937Z</time>
      </trkpt>
      <trkpt lat="43.5956" lon="3.11585">
        <ele>189</ele>
        <time>2019-05-14T19:29:37.862Z</time>
      </trkpt>
      <trkpt lat="43.59558" lon="3.11574">
        <ele>190</ele>
        <time>2019-05-14T19:29:40.996Z</time>
      </trkpt>
      <trkpt lat="43.59547" lon="3.11542">
        <ele>191</ele>
        <time>2019-05-14T19:29:49.199Z</time>
      </trkpt>
      <trkpt lat="43.59538" lon="3.11516">
        <ele>191</ele>
        <time>2019-05-14T19:29:56.393Z</time>
      </trkpt>
      <trkpt lat="43.59506" lon="3.1135">
        <ele>194</ele>
        <time>2019-05-14T19:30:34.889Z</time>
      </trkpt>
      <trkpt lat="43.59448" lon="3.11126">
        <ele>194</ele>
        <time>2019-05-14T19:31:18.092Z</time>
      </trkpt>
      <trkpt lat="43.59444" lon="3.11113">
        <ele>194</ele>
        <time>2019-05-14T19:31:20.562Z</time>
      </trkpt>
      <trkpt lat="43.59426" lon="3.11059">
        <ele>192</ele>
        <time>2019-05-14T19:31:30.172Z</time>
      </trkpt>
      <trkpt lat="43.59302" lon="3.10689">
        <ele>190</ele>
        <time>2019-05-14T19:32:34.219Z</time>
      </trkpt>
      <trkpt lat="43.59286" lon="3.10618">
        <ele>190</ele>
        <time>2019-05-14T19:32:45.849Z</time>
      </trkpt>
      <trkpt lat="43.59265" lon="3.10521">
        <ele>191</ele>
        <time>2019-05-14T19:33:01.673Z</time>
      </trkpt>
      <trkpt lat="43.59231" lon="3.10318">
        <ele>190</ele>
        <time>2019-05-14T19:33:35.273Z</time>
      </trkpt>
      <trkpt lat="43.592" lon="3.10213">
        <ele>190</ele>
        <time>2019-05-14T19:33:54.627Z</time>
      </trkpt>
      <trkpt lat="43.59184" lon="3.10175">
        <ele>190</ele>
        <time>2019-05-14T19:34:02.274Z</time>
      </trkpt>
      <trkpt lat="43.59182" lon="3.10171">
        <ele>190</ele>
        <time>2019-05-14T19:34:03.085Z</time>
      </trkpt>
      <trkpt lat="43.59115" lon="3.10057">
        <ele>191</ele>
        <time>2019-05-14T19:34:28.270Z</time>
      </trkpt>
      <trkpt lat="43.58931" lon="3.09843">
        <ele>190</ele>
        <time>2019-05-14T19:35:25.147Z</time>
      </trkpt>
      <trkpt lat="43.58879" lon="3.09715">
        <ele>194</ele>
        <time>2019-05-14T19:35:54.075Z</time>
      </trkpt>
      <trkpt lat="43.58864" lon="3.09595">
        <ele>196</ele>
        <time>2019-05-14T19:36:19.531Z</time>
      </trkpt>
      <trkpt lat="43.58894" lon="3.09341">
        <ele>192</ele>
        <time>2019-05-14T19:37:08.610Z</time>
      </trkpt>
      <trkpt lat="43.58888" lon="3.09234">
        <ele>192</ele>
        <time>2019-05-14T19:37:25.855Z</time>
      </trkpt>
      <trkpt lat="43.58849" lon="3.08881">
        <ele>194</ele>
        <time>2019-05-14T19:38:18.539Z</time>
      </trkpt>
      <trkpt lat="43.58797" lon="3.08674">
        <ele>189</ele>
        <time>2019-05-14T19:38:50.523Z</time>
      </trkpt>
      <trkpt lat="43.58774" lon="3.08513">
        <ele>188</ele>
        <time>2019-05-14T19:39:16.220Z</time>
      </trkpt>
      <trkpt lat="43.58763" lon="3.08352">
        <ele>179</ele>
        <time>2019-05-14T19:39:44.818Z</time>
      </trkpt>
      <trkpt lat="43.58757" lon="3.0827">
        <ele>180</ele>
        <time>2019-05-14T19:40:01.720Z</time>
      </trkpt>
      <trkpt lat="43.58758" lon="3.08215">
        <ele>184</ele>
        <time>2019-05-14T19:40:13.940Z</time>
      </trkpt>
      <trkpt lat="43.58765" lon="3.08126">
        <ele>187</ele>
        <time>2019-05-14T19:40:34.909Z</time>
      </trkpt>
      <trkpt lat="43.58784" lon="3.08029">
        <ele>188</ele>
        <time>2019-05-14T19:41:00.308Z</time>
      </trkpt>
      <trkpt lat="43.58811" lon="3.07924">
        <ele>189</ele>
        <time>2019-05-14T19:41:26.560Z</time>
      </trkpt>
      <trkpt lat="43.58818" lon="3.07897">
        <ele>189</ele>
        <time>2019-05-14T19:41:32.797Z</time>
      </trkpt>
      <trkpt lat="43.58829" lon="3.07752">
        <ele>190</ele>
        <time>2019-05-14T19:42:00.982Z</time>
      </trkpt>
      <trkpt lat="43.58818" lon="3.07557">
        <ele>188</ele>
        <time>2019-05-14T19:42:32.662Z</time>
      </trkpt>
      <trkpt lat="43.58794" lon="3.07441">
        <ele>186</ele>
        <time>2019-05-14T19:42:52.900Z</time>
      </trkpt>
      <trkpt lat="43.58759" lon="3.0735">
        <ele>192</ele>
        <time>2019-05-14T19:43:12.042Z</time>
      </trkpt>
      <trkpt lat="43.58714" lon="3.07266">
        <ele>194</ele>
        <time>2019-05-14T19:43:32.720Z</time>
      </trkpt>
      <trkpt lat="43.58591" lon="3.07092">
        <ele>194</ele>
        <time>2019-05-14T19:44:18.952Z</time>
      </trkpt>
      <trkpt lat="43.58374" lon="3.06651">
        <ele>182</ele>
        <time>2019-05-14T19:45:47.247Z</time>
      </trkpt>
      <trkpt lat="43.58208" lon="3.06445">
        <ele>185</ele>
        <time>2019-05-14T19:46:43.601Z</time>
      </trkpt>
      <trkpt lat="43.58199" lon="3.06432">
        <ele>185</ele>
        <time>2019-05-14T19:46:47.163Z</time>
      </trkpt>
      <trkpt lat="43.58199" lon="3.06432">
        <ele>185</ele>
        <time>2019-05-14T19:46:47.198Z</time>
      </trkpt>
      <trkpt lat="43.58199" lon="3.06432">
        <ele>185</ele>
        <time>2019-05-14T19:46:47.202Z</time>
      </trkpt>
      <trkpt lat="43.58192" lon="3.06423">
        <ele>184</ele>
        <time>2019-05-14T19:46:49.702Z</time>
      </trkpt>
      <trkpt lat="43.58124" lon="3.06312">
        <ele>187</ele>
        <time>2019-05-14T19:47:19.871Z</time>
      </trkpt>
      <trkpt lat="43.58081" lon="3.06174">
        <ele>187</ele>
        <time>2019-05-14T19:47:57.153Z</time>
      </trkpt>
      <trkpt lat="43.58055" lon="3.06033">
        <ele>193</ele>
        <time>2019-05-14T19:48:33.686Z</time>
      </trkpt>
      <trkpt lat="43.58048" lon="3.05996">
        <ele>195</ele>
        <time>2019-05-14T19:48:39.805Z</time>
      </trkpt>
      <trkpt lat="43.5804" lon="3.0595">
        <ele>195</ele>
        <time>2019-05-14T19:48:46.364Z</time>
      </trkpt>
      <trkpt lat="43.58022" lon="3.05881">
        <ele>190</ele>
        <time>2019-05-14T19:48:56.289Z</time>
      </trkpt>
      <trkpt lat="43.58022" lon="3.05878">
        <ele>190</ele>
        <time>2019-05-14T19:48:56.797Z</time>
      </trkpt>
      <trkpt lat="43.58005" lon="3.05826">
        <ele>180</ele>
        <time>2019-05-14T19:49:04.364Z</time>
      </trkpt>
      <trkpt lat="43.57995" lon="3.05797">
        <ele>176</ele>
        <time>2019-05-14T19:49:08.416Z</time>
      </trkpt>
      <trkpt lat="43.57983" lon="3.05764">
        <ele>175</ele>
        <time>2019-05-14T19:49:13.171Z</time>
      </trkpt>
      <trkpt lat="43.57979" lon="3.05755">
        <ele>175</ele>
        <time>2019-05-14T19:49:14.451Z</time>
      </trkpt>
      <trkpt lat="43.57941" lon="3.05635">
        <ele>182</ele>
        <time>2019-05-14T19:49:31.218Z</time>
      </trkpt>
      <trkpt lat="43.57898" lon="3.05419">
        <ele>184</ele>
        <time>2019-05-14T19:50:10.873Z</time>
      </trkpt>
      <trkpt lat="43.57883" lon="3.05341">
        <ele>184</ele>
        <time>2019-05-14T19:50:24.095Z</time>
      </trkpt>
      <trkpt lat="43.5788" lon="3.05326">
        <ele>186</ele>
        <time>2019-05-14T19:50:26.564Z</time>
      </trkpt>
      <trkpt lat="43.57862" lon="3.05263">
        <ele>185</ele>
        <time>2019-05-14T19:50:37.136Z</time>
      </trkpt>
      <trkpt lat="43.57835" lon="3.05197">
        <ele>185</ele>
        <time>2019-05-14T19:50:49.884Z</time>
      </trkpt>
      <trkpt lat="43.57812" lon="3.05152">
        <ele>179</ele>
        <time>2019-05-14T19:50:59.105Z</time>
      </trkpt>
      <trkpt lat="43.57802" lon="3.05133">
        <ele>179</ele>
        <time>2019-05-14T19:51:03.035Z</time>
      </trkpt>
      <trkpt lat="43.57779" lon="3.05091">
        <ele>180</ele>
        <time>2019-05-14T19:51:12.438Z</time>
      </trkpt>
      <trkpt lat="43.57744" lon="3.05016">
        <ele>181</ele>
        <time>2019-05-14T19:51:31.520Z</time>
      </trkpt>
      <trkpt lat="43.57712" lon="3.04911">
        <ele>182</ele>
        <time>2019-05-14T19:51:58.806Z</time>
      </trkpt>
      <trkpt lat="43.57705" lon="3.04872">
        <ele>183</ele>
        <time>2019-05-14T19:52:08.132Z</time>
      </trkpt>
      <trkpt lat="43.57702" lon="3.04855">
        <ele>183</ele>
        <time>2019-05-14T19:52:12.314Z</time>
      </trkpt>
      <trkpt lat="43.57696" lon="3.04801">
        <ele>186</ele>
        <time>2019-05-14T19:52:24.290Z</time>
      </trkpt>
      <trkpt lat="43.57691" lon="3.04677">
        <ele>187</ele>
        <time>2019-05-14T19:52:48.750Z</time>
      </trkpt>
      <trkpt lat="43.577" lon="3.04601">
        <ele>186</ele>
        <time>2019-05-14T19:53:01.455Z</time>
      </trkpt>
      <trkpt lat="43.57734" lon="3.04447">
        <ele>180</ele>
        <time>2019-05-14T19:53:25.496Z</time>
      </trkpt>
      <trkpt lat="43.57769" lon="3.04335">
        <ele>181</ele>
        <time>2019-05-14T19:53:43.705Z</time>
      </trkpt>
      <trkpt lat="43.57849" lon="3.04075">
        <ele>176</ele>
        <time>2019-05-14T19:54:28.331Z</time>
      </trkpt>
      <trkpt lat="43.57858" lon="3.04068">
        <ele>176</ele>
        <time>2019-05-14T19:54:31.217Z</time>
      </trkpt>
      <trkpt lat="43.57885" lon="3.04048">
        <ele>176</ele>
        <time>2019-05-14T19:54:37.325Z</time>
      </trkpt>
      <trkpt lat="43.57891" lon="3.04042">
        <ele>176</ele>
        <time>2019-05-14T19:54:39.431Z</time>
      </trkpt>
      <trkpt lat="43.57894" lon="3.04032">
        <ele>175</ele>
        <time>2019-05-14T19:54:40.846Z</time>
      </trkpt>
      <trkpt lat="43.57893" lon="3.04028">
        <ele>175</ele>
        <time>2019-05-14T19:54:41.628Z</time>
      </trkpt>
      <trkpt lat="43.57878" lon="3.04014">
        <ele>175</ele>
        <time>2019-05-14T19:54:45.337Z</time>
      </trkpt>
      <trkpt lat="43.57871" lon="3.04007">
        <ele>175</ele>
        <time>2019-05-14T19:54:47.529Z</time>
      </trkpt>
      <trkpt lat="43.57872" lon="3.03999">
        <ele>171</ele>
        <time>2019-05-14T19:54:48.706Z</time>
      </trkpt>
      <trkpt lat="43.57882" lon="3.03962">
        <ele>171</ele>
        <time>2019-05-14T19:54:55.035Z</time>
      </trkpt>
      <trkpt lat="43.57989" lon="3.03597">
        <ele>176</ele>
        <time>2019-05-14T19:55:57.259Z</time>
      </trkpt>
      <trkpt lat="43.58005" lon="3.03397">
        <ele>178</ele>
        <time>2019-05-14T19:56:31.749Z</time>
      </trkpt>
      <trkpt lat="43.5799" lon="3.03192">
        <ele>178</ele>
        <time>2019-05-14T19:57:08.082Z</time>
      </trkpt>
      <trkpt lat="43.57973" lon="3.0311">
        <ele>180</ele>
        <time>2019-05-14T19:57:23.322Z</time>
      </trkpt>
      <trkpt lat="43.57967" lon="3.03089">
        <ele>181</ele>
        <time>2019-05-14T19:57:27.334Z</time>
      </trkpt>
      <trkpt lat="43.57944" lon="3.03018">
        <ele>185</ele>
        <time>2019-05-14T19:57:41.259Z</time>
      </trkpt>
      <trkpt lat="43.57872" lon="3.02854">
        <ele>188</ele>
        <time>2019-05-14T19:58:19.788Z</time>
      </trkpt>
      <trkpt lat="43.57753" lon="3.02673">
        <ele>191</ele>
        <time>2019-05-14T19:59:48.098Z</time>
      </trkpt>
      <trkpt lat="43.57728" lon="3.02633">
        <ele>195</ele>
        <time>2019-05-14T20:00:12.951Z</time>
      </trkpt>
      <trkpt lat="43.57672" lon="3.02543">
        <ele>206</ele>
        <time>2019-05-14T20:01:03.670Z</time>
      </trkpt>
      <trkpt lat="43.57648" lon="3.02508">
        <ele>208</ele>
        <time>2019-05-14T20:01:20.310Z</time>
      </trkpt>
      <trkpt lat="43.57581" lon="3.0241">
        <ele>195</ele>
        <time>2019-05-14T20:01:44.938Z</time>
      </trkpt>
      <trkpt lat="43.57513" lon="3.02313">
        <ele>186</ele>
        <time>2019-05-14T20:02:00.742Z</time>
      </trkpt>
      <trkpt lat="43.57503" lon="3.02298">
        <ele>186</ele>
        <time>2019-05-14T20:02:03.128Z</time>
      </trkpt>
      <trkpt lat="43.57468" lon="3.02244">
        <ele>185</ele>
        <time>2019-05-14T20:02:11.726Z</time>
      </trkpt>
      <trkpt lat="43.57384" lon="3.02118">
        <ele>183</ele>
        <time>2019-05-14T20:02:33.775Z</time>
      </trkpt>
      <trkpt lat="43.57335" lon="3.0199">
        <ele>184</ele>
        <time>2019-05-14T20:02:56.037Z</time>
      </trkpt>
      <trkpt lat="43.57315" lon="3.01858">
        <ele>182</ele>
        <time>2019-05-14T20:03:17.833Z</time>
      </trkpt>
      <trkpt lat="43.57328" lon="3.01685">
        <ele>177</ele>
        <time>2019-05-14T20:03:45.237Z</time>
      </trkpt>
      <trkpt lat="43.57339" lon="3.01645">
        <ele>179</ele>
        <time>2019-05-14T20:03:52.044Z</time>
      </trkpt>
      <trkpt lat="43.57365" lon="3.01568">
        <ele>176</ele>
        <time>2019-05-14T20:04:04.698Z</time>
      </trkpt>
      <trkpt lat="43.57403" lon="3.01465">
        <ele>173</ele>
        <time>2019-05-14T20:04:22.301Z</time>
      </trkpt>
      <trkpt lat="43.57407" lon="3.01456">
        <ele>172</ele>
        <time>2019-05-14T20:04:23.683Z</time>
      </trkpt>
      <trkpt lat="43.57434" lon="3.01386">
        <ele>175</ele>
        <time>2019-05-14T20:04:36.203Z</time>
      </trkpt>
      <trkpt lat="43.57496" lon="3.01215">
        <ele>174</ele>
        <time>2019-05-14T20:05:07.308Z</time>
      </trkpt>
      <trkpt lat="43.5753" lon="3.01017">
        <ele>172</ele>
        <time>2019-05-14T20:05:39.498Z</time>
      </trkpt>
      <trkpt lat="43.57536" lon="3.00947">
        <ele>170</ele>
        <time>2019-05-14T20:05:50.846Z</time>
      </trkpt>
      <trkpt lat="43.57538" lon="3.00888">
        <ele>171</ele>
        <time>2019-05-14T20:06:00.585Z</time>
      </trkpt>
      <trkpt lat="43.57541" lon="3.00848">
        <ele>171</ele>
        <time>2019-05-14T20:06:07.456Z</time>
      </trkpt>
      <trkpt lat="43.57546" lon="3.00746">
        <ele>174</ele>
        <time>2019-05-14T20:06:24.964Z</time>
      </trkpt>
      <trkpt lat="43.57568" lon="3.0027">
        <ele>173</ele>
        <time>2019-05-14T20:07:52.187Z</time>
      </trkpt>
      <trkpt lat="43.57558" lon="3.00157">
        <ele>174</ele>
        <time>2019-05-14T20:08:09.375Z</time>
      </trkpt>
      <trkpt lat="43.57537" lon="3.00048">
        <ele>173</ele>
        <time>2019-05-14T20:08:25.235Z</time>
      </trkpt>
      <trkpt lat="43.57535" lon="3.00039">
        <ele>173</ele>
        <time>2019-05-14T20:08:26.511Z</time>
      </trkpt>
      <trkpt lat="43.57533" lon="3.00033">
        <ele>173</ele>
        <time>2019-05-14T20:08:27.382Z</time>
      </trkpt>
      <trkpt lat="43.57497" lon="2.99914">
        <ele>166</ele>
        <time>2019-05-14T20:08:45.888Z</time>
      </trkpt>
      <trkpt lat="43.5748" lon="2.99861">
        <ele>164</ele>
        <time>2019-05-14T20:08:54.366Z</time>
      </trkpt>
      <trkpt lat="43.57457" lon="2.99803">
        <ele>167</ele>
        <time>2019-05-14T20:09:04.296Z</time>
      </trkpt>
      <trkpt lat="43.57441" lon="2.99759">
        <ele>169</ele>
        <time>2019-05-14T20:09:12.297Z</time>
      </trkpt>
      <trkpt lat="43.57438" lon="2.9975">
        <ele>169</ele>
        <time>2019-05-14T20:09:14.251Z</time>
      </trkpt>
      <trkpt lat="43.57435" lon="2.99743">
        <ele>174</ele>
        <time>2019-05-14T20:09:16.180Z</time>
      </trkpt>
      <trkpt lat="43.57205" lon="2.993">
        <ele>170</ele>
        <time>2019-05-14T20:10:47.124Z</time>
      </trkpt>
      <trkpt lat="43.57186" lon="2.99246">
        <ele>172</ele>
        <time>2019-05-14T20:11:00.100Z</time>
      </trkpt>
      <trkpt lat="43.5717" lon="2.99189">
        <ele>176</ele>
        <time>2019-05-14T20:11:13.773Z</time>
      </trkpt>
      <trkpt lat="43.57168" lon="2.99179">
        <ele>176</ele>
        <time>2019-05-14T20:11:16.042Z</time>
      </trkpt>
      <trkpt lat="43.57161" lon="2.99147">
        <ele>174</ele>
        <time>2019-05-14T20:11:23.573Z</time>
      </trkpt>
      <trkpt lat="43.57111" lon="2.98996">
        <ele>179</ele>
        <time>2019-05-14T20:12:00.305Z</time>
      </trkpt>
      <trkpt lat="43.57056" lon="2.98901">
        <ele>176</ele>
        <time>2019-05-14T20:12:21.022Z</time>
      </trkpt>
      <trkpt lat="43.56954" lon="2.98763">
        <ele>177</ele>
        <time>2019-05-14T20:13:10.227Z</time>
      </trkpt>
      <trkpt lat="43.56914" lon="2.98709">
        <ele>185</ele>
        <time>2019-05-14T20:13:38.741Z</time>
      </trkpt>
      <trkpt lat="43.56875" lon="2.98643">
        <ele>205</ele>
        <time>2019-05-14T20:14:13.863Z</time>
      </trkpt>
      <trkpt lat="43.56847" lon="2.98576">
        <ele>208</ele>
        <time>2019-05-14T20:14:41.489Z</time>
      </trkpt>
      <trkpt lat="43.56831" lon="2.98499">
        <ele>199</ele>
        <time>2019-05-14T20:15:05.582Z</time>
      </trkpt>
      <trkpt lat="43.56823" lon="2.9842">
        <ele>188</ele>
        <time>2019-05-14T20:15:18.706Z</time>
      </trkpt>
      <trkpt lat="43.56825" lon="2.98393">
        <ele>181</ele>
        <time>2019-05-14T20:15:22.144Z</time>
      </trkpt>
      <trkpt lat="43.56829" lon="2.98335">
        <ele>179</ele>
        <time>2019-05-14T20:15:29.672Z</time>
      </trkpt>
      <trkpt lat="43.56835" lon="2.98297">
        <ele>180</ele>
        <time>2019-05-14T20:15:34.297Z</time>
      </trkpt>
      <trkpt lat="43.56842" lon="2.98265">
        <ele>179</ele>
        <time>2019-05-14T20:15:38.398Z</time>
      </trkpt>
      <trkpt lat="43.56866" lon="2.9819">
        <ele>176</ele>
        <time>2019-05-14T20:15:48.380Z</time>
      </trkpt>
      <trkpt lat="43.56934" lon="2.97986">
        <ele>174</ele>
        <time>2019-05-14T20:16:19.013Z</time>
      </trkpt>
      <trkpt lat="43.56945" lon="2.97843">
        <ele>170</ele>
        <time>2019-05-14T20:16:38.875Z</time>
      </trkpt>
      <trkpt lat="43.56944" lon="2.97829">
        <ele>169</ele>
        <time>2019-05-14T20:16:40.798Z</time>
      </trkpt>
      <trkpt lat="43.56941" lon="2.97795">
        <ele>169</ele>
        <time>2019-05-14T20:16:46.790Z</time>
      </trkpt>
      <trkpt lat="43.56937" lon="2.97768">
        <ele>168</ele>
        <time>2019-05-14T20:16:52.174Z</time>
      </trkpt>
      <trkpt lat="43.56932" lon="2.97733">
        <ele>171</ele>
        <time>2019-05-14T20:17:00.465Z</time>
      </trkpt>
      <trkpt lat="43.56928" lon="2.97703">
        <ele>173</ele>
        <time>2019-05-14T20:17:08.918Z</time>
      </trkpt>
      <trkpt lat="43.56921" lon="2.97614">
        <ele>185</ele>
        <time>2019-05-14T20:17:35.811Z</time>
      </trkpt>
      <trkpt lat="43.56923" lon="2.97575">
        <ele>188</ele>
        <time>2019-05-14T20:17:48.430Z</time>
      </trkpt>
      <trkpt lat="43.5693" lon="2.97526">
        <ele>192</ele>
        <time>2019-05-14T20:18:04.475Z</time>
      </trkpt>
      <trkpt lat="43.5694" lon="2.97485">
        <ele>188</ele>
        <time>2019-05-14T20:18:18.177Z</time>
      </trkpt>
      <trkpt lat="43.56957" lon="2.97437">
        <ele>185</ele>
        <time>2019-05-14T20:18:34.249Z</time>
      </trkpt>
      <trkpt lat="43.56971" lon="2.97409">
        <ele>175</ele>
        <time>2019-05-14T20:18:42.817Z</time>
      </trkpt>
      <trkpt lat="43.57088" lon="2.97225">
        <ele>179</ele>
        <time>2019-05-14T20:19:18.531Z</time>
      </trkpt>
      <trkpt lat="43.57098" lon="2.97196">
        <ele>178</ele>
        <time>2019-05-14T20:19:22.771Z</time>
      </trkpt>
      <trkpt lat="43.57105" lon="2.97177">
        <ele>177</ele>
        <time>2019-05-14T20:19:26.027Z</time>
      </trkpt>
      <trkpt lat="43.5711" lon="2.97151">
        <ele>173</ele>
        <time>2019-05-14T20:19:30.113Z</time>
      </trkpt>
      <trkpt lat="43.57119" lon="2.97113">
        <ele>172</ele>
        <time>2019-05-14T20:19:37.974Z</time>
      </trkpt>
      <trkpt lat="43.57123" lon="2.9707">
        <ele>170</ele>
        <time>2019-05-14T20:19:47.467Z</time>
      </trkpt>
      <trkpt lat="43.57124" lon="2.97008">
        <ele>170</ele>
        <time>2019-05-14T20:20:03.222Z</time>
      </trkpt>
      <trkpt lat="43.57121" lon="2.96968">
        <ele>173</ele>
        <time>2019-05-14T20:20:14.840Z</time>
      </trkpt>
      <trkpt lat="43.57112" lon="2.96917">
        <ele>175</ele>
        <time>2019-05-14T20:20:30.703Z</time>
      </trkpt>
      <trkpt lat="43.57082" lon="2.96828">
        <ele>184</ele>
        <time>2019-05-14T20:21:01.969Z</time>
      </trkpt>
      <trkpt lat="43.57058" lon="2.96787">
        <ele>188</ele>
        <time>2019-05-14T20:21:19.284Z</time>
      </trkpt>
      <trkpt lat="43.56897" lon="2.96593">
        <ele>185</ele>
        <time>2019-05-14T20:22:21.403Z</time>
      </trkpt>
      <trkpt lat="43.56849" lon="2.96516">
        <ele>185</ele>
        <time>2019-05-14T20:22:37.804Z</time>
      </trkpt>
      <trkpt lat="43.5675" lon="2.96277">
        <ele>182</ele>
        <time>2019-05-14T20:23:24.747Z</time>
      </trkpt>
      <trkpt lat="43.56701" lon="2.96117">
        <ele>185</ele>
        <time>2019-05-14T20:24:00.365Z</time>
      </trkpt>
      <trkpt lat="43.56681" lon="2.96021">
        <ele>187</ele>
        <time>2019-05-14T20:24:17.417Z</time>
      </trkpt>
      <trkpt lat="43.5667" lon="2.95967">
        <ele>187</ele>
        <time>2019-05-14T20:24:26.285Z</time>
      </trkpt>
      <trkpt lat="43.5667" lon="2.95959">
        <ele>187</ele>
        <time>2019-05-14T20:24:27.476Z</time>
      </trkpt>
      <trkpt lat="43.56669" lon="2.9595">
        <ele>187</ele>
        <time>2019-05-14T20:24:28.574Z</time>
      </trkpt>
      <trkpt lat="43.56662" lon="2.95856">
        <ele>181</ele>
        <time>2019-05-14T20:24:42.167Z</time>
      </trkpt>
      <trkpt lat="43.56669" lon="2.95501">
        <ele>181</ele>
        <time>2019-05-14T20:25:29.166Z</time>
      </trkpt>
      <trkpt lat="43.56654" lon="2.95164">
        <ele>175</ele>
        <time>2019-05-14T20:26:16.420Z</time>
      </trkpt>
      <trkpt lat="43.56662" lon="2.9509">
        <ele>172</ele>
        <time>2019-05-14T20:26:27.619Z</time>
      </trkpt>
      <trkpt lat="43.56671" lon="2.9505">
        <ele>172</ele>
        <time>2019-05-14T20:26:34.034Z</time>
      </trkpt>
      <trkpt lat="43.56688" lon="2.94973">
        <ele>171</ele>
        <time>2019-05-14T20:26:46.555Z</time>
      </trkpt>
      <trkpt lat="43.56692" lon="2.9495">
        <ele>172</ele>
        <time>2019-05-14T20:26:50.647Z</time>
      </trkpt>
      <trkpt lat="43.56705" lon="2.9485">
        <ele>177</ele>
        <time>2019-05-14T20:27:07.601Z</time>
      </trkpt>
      <trkpt lat="43.56701" lon="2.94779">
        <ele>180</ele>
        <time>2019-05-14T20:27:18.898Z</time>
      </trkpt>
      <trkpt lat="43.56661" lon="2.9463">
        <ele>171</ele>
        <time>2019-05-14T20:27:51.647Z</time>
      </trkpt>
      <trkpt lat="43.56643" lon="2.94586">
        <ele>172</ele>
        <time>2019-05-14T20:28:03.319Z</time>
      </trkpt>
      <trkpt lat="43.56626" lon="2.94544">
        <ele>173</ele>
        <time>2019-05-14T20:28:14.965Z</time>
      </trkpt>
      <trkpt lat="43.56609" lon="2.94502">
        <ele>174</ele>
        <time>2019-05-14T20:28:26.685Z</time>
      </trkpt>
      <trkpt lat="43.56563" lon="2.94347">
        <ele>178</ele>
        <time>2019-05-14T20:29:06.592Z</time>
      </trkpt>
      <trkpt lat="43.56539" lon="2.94099">
        <ele>167</ele>
        <time>2019-05-14T20:29:47.227Z</time>
      </trkpt>
      <trkpt lat="43.56488" lon="2.93867">
        <ele>171</ele>
        <time>2019-05-14T20:30:21.777Z</time>
      </trkpt>
      <trkpt lat="43.5648" lon="2.93808">
        <ele>168</ele>
        <time>2019-05-14T20:30:30.843Z</time>
      </trkpt>
      <trkpt lat="43.56477" lon="2.9379">
        <ele>167</ele>
        <time>2019-05-14T20:30:33.684Z</time>
      </trkpt>
      <trkpt lat="43.56467" lon="2.93743">
        <ele>165</ele>
        <time>2019-05-14T20:30:41.549Z</time>
      </trkpt>
      <trkpt lat="43.56428" lon="2.9364">
        <ele>167</ele>
        <time>2019-05-14T20:31:01.346Z</time>
      </trkpt>
      <trkpt lat="43.56423" lon="2.93632">
        <ele>167</ele>
        <time>2019-05-14T20:31:03.197Z</time>
      </trkpt>
      <trkpt lat="43.5642" lon="2.93625">
        <ele>168</ele>
        <time>2019-05-14T20:31:05.067Z</time>
      </trkpt>
      <trkpt lat="43.5636" lon="2.93551">
        <ele>174</ele>
        <time>2019-05-14T20:31:25.882Z</time>
      </trkpt>
      <trkpt lat="43.56224" lon="2.9343">
        <ele>170</ele>
        <time>2019-05-14T20:32:09.627Z</time>
      </trkpt>
      <trkpt lat="43.56188" lon="2.93383">
        <ele>172</ele>
        <time>2019-05-14T20:32:23.678Z</time>
      </trkpt>
      <trkpt lat="43.56159" lon="2.93341">
        <ele>168</ele>
        <time>2019-05-14T20:32:35.930Z</time>
      </trkpt>
      <trkpt lat="43.56149" lon="2.93327">
        <ele>171</ele>
        <time>2019-05-14T20:32:40.563Z</time>
      </trkpt>
      <trkpt lat="43.56022" lon="2.93142">
        <ele>181</ele>
        <time>2019-05-14T20:33:37.172Z</time>
      </trkpt>
      <trkpt lat="43.55965" lon="2.93016">
        <ele>176</ele>
        <time>2019-05-14T20:34:08.719Z</time>
      </trkpt>
      <trkpt lat="43.55902" lon="2.92713">
        <ele>176</ele>
        <time>2019-05-14T20:35:13.930Z</time>
      </trkpt>
      <trkpt lat="43.5582" lon="2.92441">
        <ele>176</ele>
        <time>2019-05-14T20:36:08.814Z</time>
      </trkpt>
      <trkpt lat="43.55806" lon="2.9236">
        <ele>178</ele>
        <time>2019-05-14T20:36:24.454Z</time>
      </trkpt>
      <trkpt lat="43.558" lon="2.92318">
        <ele>180</ele>
        <time>2019-05-14T20:36:32.344Z</time>
      </trkpt>
      <trkpt lat="43.55799" lon="2.9231">
        <ele>180</ele>
        <time>2019-05-14T20:36:33.907Z</time>
      </trkpt>
      <trkpt lat="43.55787" lon="2.92201">
        <ele>185</ele>
        <time>2019-05-14T20:36:53.111Z</time>
      </trkpt>
      <trkpt lat="43.55768" lon="2.92092">
        <ele>185</ele>
        <time>2019-05-14T20:37:11.721Z</time>
      </trkpt>
      <trkpt lat="43.55758" lon="2.92063">
        <ele>185</ele>
        <time>2019-05-14T20:37:17.517Z</time>
      </trkpt>
      <trkpt lat="43.55749" lon="2.92037">
        <ele>171</ele>
        <time>2019-05-14T20:37:21.832Z</time>
      </trkpt>
      <trkpt lat="43.55697" lon="2.91893">
        <ele>171</ele>
        <time>2019-05-14T20:37:55.170Z</time>
      </trkpt>
      <trkpt lat="43.55696" lon="2.91891">
        <ele>171</ele>
        <time>2019-05-14T20:37:56.083Z</time>
      </trkpt>
      <trkpt lat="43.55685" lon="2.91858">
        <ele>172</ele>
        <time>2019-05-14T20:38:03.188Z</time>
      </trkpt>
      <trkpt lat="43.55681" lon="2.91849">
        <ele>173</ele>
        <time>2019-05-14T20:38:06.300Z</time>
      </trkpt>
      <trkpt lat="43.55644" lon="2.91721">
        <ele>180</ele>
        <time>2019-05-14T20:38:47.836Z</time>
      </trkpt>
      <trkpt lat="43.55625" lon="2.91618">
        <ele>184</ele>
        <time>2019-05-14T20:39:26.601Z</time>
      </trkpt>
      <trkpt lat="43.55621" lon="2.91599">
        <ele>185</ele>
        <time>2019-05-14T20:39:33.744Z</time>
      </trkpt>
      <trkpt lat="43.55614" lon="2.91565">
        <ele>188</ele>
        <time>2019-05-14T20:39:46.147Z</time>
      </trkpt>
      <trkpt lat="43.55576" lon="2.9137">
        <ele>196</ele>
        <time>2019-05-14T20:40:59.341Z</time>
      </trkpt>
      <trkpt lat="43.55541" lon="2.91265">
        <ele>193</ele>
        <time>2019-05-14T20:41:32.320Z</time>
      </trkpt>
      <trkpt lat="43.55503" lon="2.91202">
        <ele>186</ele>
        <time>2019-05-14T20:41:50.963Z</time>
      </trkpt>
      <trkpt lat="43.55474" lon="2.91166">
        <ele>184</ele>
        <time>2019-05-14T20:42:01.105Z</time>
      </trkpt>
      <trkpt lat="43.55469" lon="2.91161">
        <ele>184</ele>
        <time>2019-05-14T20:42:02.311Z</time>
      </trkpt>
      <trkpt lat="43.5544" lon="2.91134">
        <ele>185</ele>
        <time>2019-05-14T20:42:11.251Z</time>
      </trkpt>
      <trkpt lat="43.55409" lon="2.91114">
        <ele>188</ele>
        <time>2019-05-14T20:42:19.383Z</time>
      </trkpt>
      <trkpt lat="43.55369" lon="2.91089">
        <ele>189</ele>
        <time>2019-05-14T20:42:28.918Z</time>
      </trkpt>
      <trkpt lat="43.5531" lon="2.91039">
        <ele>187</ele>
        <time>2019-05-14T20:42:44.328Z</time>
      </trkpt>
      <trkpt lat="43.55256" lon="2.90964">
        <ele>184</ele>
        <time>2019-05-14T20:43:04.912Z</time>
      </trkpt>
      <trkpt lat="43.55177" lon="2.9071">
        <ele>189</ele>
        <time>2019-05-14T20:44:20.154Z</time>
      </trkpt>
      <trkpt lat="43.55082" lon="2.90551">
        <ele>206</ele>
        <time>2019-05-14T20:45:24.363Z</time>
      </trkpt>
      <trkpt lat="43.55046" lon="2.90462">
        <ele>204</ele>
        <time>2019-05-14T20:45:49.171Z</time>
      </trkpt>
      <trkpt lat="43.55032" lon="2.90361">
        <ele>201</ele>
        <time>2019-05-14T20:46:05.874Z</time>
      </trkpt>
      <trkpt lat="43.55014" lon="2.90239">
        <ele>195</ele>
        <time>2019-05-14T20:46:22.051Z</time>
      </trkpt>
      <trkpt lat="43.54993" lon="2.9016">
        <ele>193</ele>
        <time>2019-05-14T20:46:32.570Z</time>
      </trkpt>
      <trkpt lat="43.54965" lon="2.90099">
        <ele>194</ele>
        <time>2019-05-14T20:46:41.532Z</time>
      </trkpt>
      <trkpt lat="43.54867" lon="2.89954">
        <ele>191</ele>
        <time>2019-05-14T20:47:05.640Z</time>
      </trkpt>
      <trkpt lat="43.54847" lon="2.89915">
        <ele>189</ele>
        <time>2019-05-14T20:47:11.822Z</time>
      </trkpt>
      <trkpt lat="43.54832" lon="2.89876">
        <ele>189</ele>
        <time>2019-05-14T20:47:17.752Z</time>
      </trkpt>
      <trkpt lat="43.54822" lon="2.89844">
        <ele>190</ele>
        <time>2019-05-14T20:47:22.367Z</time>
      </trkpt>
      <trkpt lat="43.54814" lon="2.89801">
        <ele>192</ele>
        <time>2019-05-14T20:47:28.745Z</time>
      </trkpt>
      <trkpt lat="43.54811" lon="2.89783">
        <ele>194</ele>
        <time>2019-05-14T20:47:32.337Z</time>
      </trkpt>
      <trkpt lat="43.54816" lon="2.89633">
        <ele>198</ele>
        <time>2019-05-14T20:47:55.967Z</time>
      </trkpt>
      <trkpt lat="43.54828" lon="2.89583">
        <ele>196</ele>
        <time>2019-05-14T20:48:05.608Z</time>
      </trkpt>
      <trkpt lat="43.5484" lon="2.89535">
        <ele>197</ele>
        <time>2019-05-14T20:48:14.288Z</time>
      </trkpt>
      <trkpt lat="43.54856" lon="2.89468">
        <ele>196</ele>
        <time>2019-05-14T20:48:25.917Z</time>
      </trkpt>
      <trkpt lat="43.54865" lon="2.8943">
        <ele>196</ele>
        <time>2019-05-14T20:48:32.600Z</time>
      </trkpt>
      <trkpt lat="43.54869" lon="2.8941">
        <ele>196</ele>
        <time>2019-05-14T20:48:35.653Z</time>
      </trkpt>
      <trkpt lat="43.54873" lon="2.89394">
        <ele>196</ele>
        <time>2019-05-14T20:48:38.471Z</time>
      </trkpt>
      <trkpt lat="43.54892" lon="2.89184">
        <ele>194</ele>
        <time>2019-05-14T20:49:14.142Z</time>
      </trkpt>
      <trkpt lat="43.54881" lon="2.88733">
        <ele>200</ele>
        <time>2019-05-14T20:50:48.230Z</time>
      </trkpt>
      <trkpt lat="43.54874" lon="2.88688">
        <ele>199</ele>
        <time>2019-05-14T20:50:58.198Z</time>
      </trkpt>
      <trkpt lat="43.54868" lon="2.88661">
        <ele>200</ele>
        <time>2019-05-14T20:51:03.975Z</time>
      </trkpt>
      <trkpt lat="43.54867" lon="2.88649">
        <ele>200</ele>
        <time>2019-05-14T20:51:06.923Z</time>
      </trkpt>
      <trkpt lat="43.54869" lon="2.88612">
        <ele>201</ele>
        <time>2019-05-14T20:51:14.844Z</time>
      </trkpt>
      <trkpt lat="43.54864" lon="2.88584">
        <ele>200</ele>
        <time>2019-05-14T20:51:21.371Z</time>
      </trkpt>
      <trkpt lat="43.5485" lon="2.8852">
        <ele>202</ele>
        <time>2019-05-14T20:51:35.720Z</time>
      </trkpt>
      <trkpt lat="43.54873" lon="2.88404">
        <ele>216</ele>
        <time>2019-05-14T20:52:03.481Z</time>
      </trkpt>
      <trkpt lat="43.54866" lon="2.88385">
        <ele>217</ele>
        <time>2019-05-14T20:52:08.609Z</time>
      </trkpt>
      <trkpt lat="43.5484" lon="2.88372">
        <ele>217</ele>
        <time>2019-05-14T20:52:17.441Z</time>
      </trkpt>
      <trkpt lat="43.54817" lon="2.88318">
        <ele>213</ele>
        <time>2019-05-14T20:52:32.766Z</time>
      </trkpt>
      <trkpt lat="43.54795" lon="2.88218">
        <ele>219</ele>
        <time>2019-05-14T20:52:59.735Z</time>
      </trkpt>
      <trkpt lat="43.54777" lon="2.8805">
        <ele>234</ele>
        <time>2019-05-14T20:53:48.962Z</time>
      </trkpt>
      <trkpt lat="43.54753" lon="2.88037">
        <ele>231</ele>
        <time>2019-05-14T20:53:59.642Z</time>
      </trkpt>
      <trkpt lat="43.54744" lon="2.87908">
        <ele>236</ele>
        <time>2019-05-14T20:54:38.007Z</time>
      </trkpt>
      <trkpt lat="43.54727" lon="2.87856">
        <ele>237</ele>
        <time>2019-05-14T20:54:54.376Z</time>
      </trkpt>
      <trkpt lat="43.54696" lon="2.87799">
        <ele>247</ele>
        <time>2019-05-14T20:55:13.967Z</time>
      </trkpt>
      <trkpt lat="43.54647" lon="2.87775">
        <ele>230</ele>
        <time>2019-05-14T20:55:32.500Z</time>
      </trkpt>
      <trkpt lat="43.54535" lon="2.87562">
        <ele>253</ele>
        <time>2019-05-14T20:56:35.713Z</time>
      </trkpt>
      <trkpt lat="43.5439" lon="2.87433">
        <ele>240</ele>
        <time>2019-05-14T20:57:24.846Z</time>
      </trkpt>
      <trkpt lat="43.54329" lon="2.87395">
        <ele>229</ele>
        <time>2019-05-14T20:57:40.498Z</time>
      </trkpt>
      <trkpt lat="43.54317" lon="2.87366">
        <ele>227</ele>
        <time>2019-05-14T20:57:45.542Z</time>
      </trkpt>
      <trkpt lat="43.54317" lon="2.87341">
        <ele>229</ele>
        <time>2019-05-14T20:57:49.386Z</time>
      </trkpt>
      <trkpt lat="43.54359" lon="2.87188">
        <ele>226</ele>
        <time>2019-05-14T20:58:12.127Z</time>
      </trkpt>
      <trkpt lat="43.5436" lon="2.87182">
        <ele>226</ele>
        <time>2019-05-14T20:58:12.872Z</time>
      </trkpt>
      <trkpt lat="43.54368" lon="2.87152">
        <ele>218</ele>
        <time>2019-05-14T20:58:17.214Z</time>
      </trkpt>
      <trkpt lat="43.5439" lon="2.87111">
        <ele>217</ele>
        <time>2019-05-14T20:58:23.645Z</time>
      </trkpt>
      <trkpt lat="43.54415" lon="2.87077">
        <ele>213</ele>
        <time>2019-05-14T20:58:29.920Z</time>
      </trkpt>
      <trkpt lat="43.54411" lon="2.87071">
        <ele>212</ele>
        <time>2019-05-14T20:58:30.783Z</time>
      </trkpt>
      <trkpt lat="43.54407" lon="2.87068">
        <ele>211</ele>
        <time>2019-05-14T20:58:31.660Z</time>
      </trkpt>
      <trkpt lat="43.54407" lon="2.87065">
        <ele>211</ele>
        <time>2019-05-14T20:58:32.035Z</time>
      </trkpt>
      <trkpt lat="43.5441" lon="2.87059">
        <ele>211</ele>
        <time>2019-05-14T20:58:33.058Z</time>
      </trkpt>
      <trkpt lat="43.54423" lon="2.87042">
        <ele>212</ele>
        <time>2019-05-14T20:58:36.275Z</time>
      </trkpt>
      <trkpt lat="43.54434" lon="2.87025">
        <ele>211</ele>
        <time>2019-05-14T20:58:39.186Z</time>
      </trkpt>
      <trkpt lat="43.54446" lon="2.87003">
        <ele>211</ele>
        <time>2019-05-14T20:58:42.882Z</time>
      </trkpt>
      <trkpt lat="43.54463" lon="2.86967">
        <ele>210</ele>
        <time>2019-05-14T20:58:48.841Z</time>
      </trkpt>
      <trkpt lat="43.54479" lon="2.86918">
        <ele>211</ele>
        <time>2019-05-14T20:58:56.294Z</time>
      </trkpt>
      <trkpt lat="43.54487" lon="2.86888">
        <ele>210</ele>
        <time>2019-05-14T20:59:00.831Z</time>
      </trkpt>
      <trkpt lat="43.54497" lon="2.8676">
        <ele>214</ele>
        <time>2019-05-14T20:59:22.062Z</time>
      </trkpt>
      <trkpt lat="43.54488" lon="2.86691">
        <ele>215</ele>
        <time>2019-05-14T20:59:40.857Z</time>
      </trkpt>
      <trkpt lat="43.54462" lon="2.86601">
        <ele>217</ele>
        <time>2019-05-14T21:00:19.767Z</time>
      </trkpt>
      <trkpt lat="43.54446" lon="2.86569">
        <ele>224</ele>
        <time>2019-05-14T21:00:36.066Z</time>
      </trkpt>
      <trkpt lat="43.54438" lon="2.8655">
        <ele>225</ele>
        <time>2019-05-14T21:00:45.044Z</time>
      </trkpt>
      <trkpt lat="43.54413" lon="2.86506">
        <ele>230</ele>
        <time>2019-05-14T21:01:07.670Z</time>
      </trkpt>
      <trkpt lat="43.54387" lon="2.86458">
        <ele>242</ele>
        <time>2019-05-14T21:01:29.281Z</time>
      </trkpt>
      <trkpt lat="43.54311" lon="2.86334">
        <ele>235</ele>
        <time>2019-05-14T21:02:16.795Z</time>
      </trkpt>
      <trkpt lat="43.54294" lon="2.86311">
        <ele>229</ele>
        <time>2019-05-14T21:02:21.727Z</time>
      </trkpt>
      <trkpt lat="43.54067" lon="2.86032">
        <ele>224</ele>
        <time>2019-05-14T21:03:18.849Z</time>
      </trkpt>
      <trkpt lat="43.53987" lon="2.85964">
        <ele>226</ele>
        <time>2019-05-14T21:03:42.882Z</time>
      </trkpt>
      <trkpt lat="43.53901" lon="2.85938">
        <ele>229</ele>
        <time>2019-05-14T21:04:10.448Z</time>
      </trkpt>
      <trkpt lat="43.53735" lon="2.85967">
        <ele>237</ele>
        <time>2019-05-14T21:05:02.438Z</time>
      </trkpt>
      <trkpt lat="43.53665" lon="2.85961">
        <ele>232</ele>
        <time>2019-05-14T21:05:23.451Z</time>
      </trkpt>
      <trkpt lat="43.53631" lon="2.85952">
        <ele>232</ele>
        <time>2019-05-14T21:05:33.098Z</time>
      </trkpt>
      <trkpt lat="43.53622" lon="2.85947">
        <ele>232</ele>
        <time>2019-05-14T21:05:36.023Z</time>
      </trkpt>
      <trkpt lat="43.53617" lon="2.8594">
        <ele>232</ele>
        <time>2019-05-14T21:05:37.685Z</time>
      </trkpt>
      <trkpt lat="43.53609" lon="2.85924">
        <ele>232</ele>
        <time>2019-05-14T21:05:41.419Z</time>
      </trkpt>
      <trkpt lat="43.53603" lon="2.85915">
        <ele>241</ele>
        <time>2019-05-14T21:05:44.357Z</time>
      </trkpt>
      <trkpt lat="43.53503" lon="2.85839">
        <ele>237</ele>
        <time>2019-05-14T21:06:12.416Z</time>
      </trkpt>
      <trkpt lat="43.53425" lon="2.85755">
        <ele>236</ele>
        <time>2019-05-14T21:06:34.765Z</time>
      </trkpt>
      <trkpt lat="43.53422" lon="2.85752">
        <ele>236</ele>
        <time>2019-05-14T21:06:35.421Z</time>
      </trkpt>
      <trkpt lat="43.53413" lon="2.85749">
        <ele>235</ele>
        <time>2019-05-14T21:06:37.204Z</time>
      </trkpt>
      <trkpt lat="43.53338" lon="2.85666">
        <ele>235</ele>
        <time>2019-05-14T21:06:58.396Z</time>
      </trkpt>
      <trkpt lat="43.53332" lon="2.8566">
        <ele>232</ele>
        <time>2019-05-14T21:06:59.849Z</time>
      </trkpt>
      <trkpt lat="43.53302" lon="2.85616">
        <ele>232</ele>
        <time>2019-05-14T21:07:10.432Z</time>
      </trkpt>
      <trkpt lat="43.53269" lon="2.85555">
        <ele>233</ele>
        <time>2019-05-14T21:07:25.773Z</time>
      </trkpt>
      <trkpt lat="43.53246" lon="2.85505">
        <ele>229</ele>
        <time>2019-05-14T21:07:38.119Z</time>
      </trkpt>
      <trkpt lat="43.53241" lon="2.85491">
        <ele>230</ele>
        <time>2019-05-14T21:07:41.570Z</time>
      </trkpt>
      <trkpt lat="43.53226" lon="2.85453">
        <ele>231</ele>
        <time>2019-05-14T21:07:50.934Z</time>
      </trkpt>
      <trkpt lat="43.53194" lon="2.85322">
        <ele>241</ele>
        <time>2019-05-14T21:08:21.875Z</time>
      </trkpt>
      <trkpt lat="43.5317" lon="2.85164">
        <ele>239</ele>
        <time>2019-05-14T21:08:56.599Z</time>
      </trkpt>
      <trkpt lat="43.53131" lon="2.85044">
        <ele>238</ele>
        <time>2019-05-14T21:09:25.297Z</time>
      </trkpt>
      <trkpt lat="43.53023" lon="2.84821">
        <ele>242</ele>
        <time>2019-05-14T21:10:26.132Z</time>
      </trkpt>
      <trkpt lat="43.52908" lon="2.84692">
        <ele>243</ele>
        <time>2019-05-14T21:11:19.337Z</time>
      </trkpt>
      <trkpt lat="43.52848" lon="2.84587">
        <ele>248</ele>
        <time>2019-05-14T21:11:57.760Z</time>
      </trkpt>
      <trkpt lat="43.52818" lon="2.84464">
        <ele>252</ele>
        <time>2019-05-14T21:12:36.278Z</time>
      </trkpt>
      <trkpt lat="43.52823" lon="2.84336">
        <ele>254</ele>
        <time>2019-05-14T21:13:11.864Z</time>
      </trkpt>
      <trkpt lat="43.52825" lon="2.84325">
        <ele>253</ele>
        <time>2019-05-14T21:13:15.330Z</time>
      </trkpt>
      <trkpt lat="43.52827" lon="2.84313">
        <ele>251</ele>
        <time>2019-05-14T21:13:18.324Z</time>
      </trkpt>
      <trkpt lat="43.52899" lon="2.84057">
        <ele>251</ele>
        <time>2019-05-14T21:14:26.950Z</time>
      </trkpt>
      <trkpt lat="43.52918" lon="2.83695">
        <ele>263</ele>
        <time>2019-05-14T21:15:43.873Z</time>
      </trkpt>
      <trkpt lat="43.52969" lon="2.83447">
        <ele>254</ele>
        <time>2019-05-14T21:16:17.649Z</time>
      </trkpt>
      <trkpt lat="43.52965" lon="2.8333">
        <ele>252</ele>
        <time>2019-05-14T21:16:33.293Z</time>
      </trkpt>
      <trkpt lat="43.52959" lon="2.83306">
        <ele>252</ele>
        <time>2019-05-14T21:16:36.778Z</time>
      </trkpt>
      <trkpt lat="43.52953" lon="2.83284">
        <ele>252</ele>
        <time>2019-05-14T21:16:40.319Z</time>
      </trkpt>
      <trkpt lat="43.52919" lon="2.83194">
        <ele>252</ele>
        <time>2019-05-14T21:16:56.690Z</time>
      </trkpt>
      <trkpt lat="43.52888" lon="2.83144">
        <ele>250</ele>
        <time>2019-05-14T21:17:08.997Z</time>
      </trkpt>
      <trkpt lat="43.52844" lon="2.83097">
        <ele>252</ele>
        <time>2019-05-14T21:17:26.137Z</time>
      </trkpt>
      <trkpt lat="43.5279" lon="2.8306">
        <ele>257</ele>
        <time>2019-05-14T21:17:45.758Z</time>
      </trkpt>
      <trkpt lat="43.52771" lon="2.83051">
        <ele>257</ele>
        <time>2019-05-14T21:17:52.726Z</time>
      </trkpt>
      <trkpt lat="43.52677" lon="2.83032">
        <ele>257</ele>
        <time>2019-05-14T21:18:23.428Z</time>
      </trkpt>
      <trkpt lat="43.52571" lon="2.82994">
        <ele>261</ele>
        <time>2019-05-14T21:18:55.558Z</time>
      </trkpt>
      <trkpt lat="43.52542" lon="2.82969">
        <ele>260</ele>
        <time>2019-05-14T21:19:04.536Z</time>
      </trkpt>
      <trkpt lat="43.52541" lon="2.82968">
        <ele>260</ele>
        <time>2019-05-14T21:19:04.823Z</time>
      </trkpt>
      <trkpt lat="43.52488" lon="2.82898">
        <ele>254</ele>
        <time>2019-05-14T21:19:23.195Z</time>
      </trkpt>
      <trkpt lat="43.52458" lon="2.8284">
        <ele>253</ele>
        <time>2019-05-14T21:19:36.426Z</time>
      </trkpt>
      <trkpt lat="43.52452" lon="2.82827">
        <ele>255</ele>
        <time>2019-05-14T21:19:39.125Z</time>
      </trkpt>
      <trkpt lat="43.52436" lon="2.82776">
        <ele>256</ele>
        <time>2019-05-14T21:19:50.180Z</time>
      </trkpt>
      <trkpt lat="43.52388" lon="2.82623">
        <ele>262</ele>
        <time>2019-05-14T21:20:32.291Z</time>
      </trkpt>
      <trkpt lat="43.52238" lon="2.82327">
        <ele>274</ele>
        <time>2019-05-14T21:22:35.271Z</time>
      </trkpt>
      <trkpt lat="43.52194" lon="2.82159">
        <ele>285</ele>
        <time>2019-05-14T21:23:25.029Z</time>
      </trkpt>
      <trkpt lat="43.52173" lon="2.8208">
        <ele>276</ele>
        <time>2019-05-14T21:23:37.293Z</time>
      </trkpt>
      <trkpt lat="43.52161" lon="2.82051">
        <ele>271</ele>
        <time>2019-05-14T21:23:41.792Z</time>
      </trkpt>
      <trkpt lat="43.5217" lon="2.82041">
        <ele>273</ele>
        <time>2019-05-14T21:23:44.041Z</time>
      </trkpt>
      <trkpt lat="43.52139" lon="2.81982">
        <ele>263</ele>
        <time>2019-05-14T21:23:53.203Z</time>
      </trkpt>
      <trkpt lat="43.52119" lon="2.81947">
        <ele>263</ele>
        <time>2019-05-14T21:23:58.835Z</time>
      </trkpt>
      <trkpt lat="43.52108" lon="2.81926">
        <ele>263</ele>
        <time>2019-05-14T21:24:02.060Z</time>
      </trkpt>
      <trkpt lat="43.52088" lon="2.81887">
        <ele>264</ele>
        <time>2019-05-14T21:24:07.561Z</time>
      </trkpt>
      <trkpt lat="43.52057" lon="2.81823">
        <ele>268</ele>
        <time>2019-05-14T21:24:17.082Z</time>
      </trkpt>
      <trkpt lat="43.52049" lon="2.81784">
        <ele>268</ele>
        <time>2019-05-14T21:24:22.511Z</time>
      </trkpt>
      <trkpt lat="43.52045" lon="2.81773">
        <ele>268</ele>
        <time>2019-05-14T21:24:24.886Z</time>
      </trkpt>
      <trkpt lat="43.52032" lon="2.81781">
        <ele>268</ele>
        <time>2019-05-14T21:24:27.887Z</time>
      </trkpt>
      <trkpt lat="43.52024" lon="2.81749">
        <ele>269</ele>
        <time>2019-05-14T21:24:34.461Z</time>
      </trkpt>
      <trkpt lat="43.52013" lon="2.81666">
        <ele>269</ele>
        <time>2019-05-14T21:24:48.937Z</time>
      </trkpt>
      <trkpt lat="43.51997" lon="2.81279">
        <ele>266</ele>
        <time>2019-05-14T21:25:55.201Z</time>
      </trkpt>
      <trkpt lat="43.51974" lon="2.81155">
        <ele>272</ele>
        <time>2019-05-14T21:26:18.436Z</time>
      </trkpt>
      <trkpt lat="43.51937" lon="2.81043">
        <ele>275</ele>
        <time>2019-05-14T21:26:39.595Z</time>
      </trkpt>
      <trkpt lat="43.51917" lon="2.80994">
        <ele>269</ele>
        <time>2019-05-14T21:26:49.107Z</time>
      </trkpt>
      <trkpt lat="43.51896" lon="2.80943">
        <ele>268</ele>
        <time>2019-05-14T21:26:58.799Z</time>
      </trkpt>
      <trkpt lat="43.51827" lon="2.80784">
        <ele>265</ele>
        <time>2019-05-14T21:27:28.805Z</time>
      </trkpt>
      <trkpt lat="43.51795" lon="2.80706">
        <ele>268</ele>
        <time>2019-05-14T21:27:44.112Z</time>
      </trkpt>
      <trkpt lat="43.51722" lon="2.80538">
        <ele>268</ele>
        <time>2019-05-14T21:28:21.137Z</time>
      </trkpt>
      <trkpt lat="43.51655" lon="2.80382">
        <ele>270</ele>
        <time>2019-05-14T21:28:56.732Z</time>
      </trkpt>
      <trkpt lat="43.51638" lon="2.80348">
        <ele>270</ele>
        <time>2019-05-14T21:29:04.502Z</time>
      </trkpt>
      <trkpt lat="43.51496" lon="2.80106">
        <ele>269</ele>
        <time>2019-05-14T21:30:01.818Z</time>
      </trkpt>
      <trkpt lat="43.51298" lon="2.79817">
        <ele>282</ele>
        <time>2019-05-14T21:31:20.595Z</time>
      </trkpt>
      <trkpt lat="43.51163" lon="2.79566">
        <ele>271</ele>
        <time>2019-05-14T21:32:31.623Z</time>
      </trkpt>
      <trkpt lat="43.51093" lon="2.79461">
        <ele>276</ele>
        <time>2019-05-14T21:33:03.380Z</time>
      </trkpt>
      <trkpt lat="43.51049" lon="2.79417">
        <ele>274</ele>
        <time>2019-05-14T21:33:19.200Z</time>
      </trkpt>
      <trkpt lat="43.51033" lon="2.7938">
        <ele>280</ele>
        <time>2019-05-14T21:33:28.236Z</time>
      </trkpt>
      <trkpt lat="43.50949" lon="2.79336">
        <ele>274</ele>
        <time>2019-05-14T21:33:53.650Z</time>
      </trkpt>
      <trkpt lat="43.50916" lon="2.79337">
        <ele>273</ele>
        <time>2019-05-14T21:34:02.993Z</time>
      </trkpt>
      <trkpt lat="43.5079" lon="2.79282">
        <ele>276</ele>
        <time>2019-05-14T21:34:46.246Z</time>
      </trkpt>
      <trkpt lat="43.50745" lon="2.79256">
        <ele>280</ele>
        <time>2019-05-14T21:35:02.500Z</time>
      </trkpt>
      <trkpt lat="43.50701" lon="2.79228">
        <ele>289</ele>
        <time>2019-05-14T21:35:18.957Z</time>
      </trkpt>
      <trkpt lat="43.50563" lon="2.79145">
        <ele>288</ele>
        <time>2019-05-14T21:36:03.063Z</time>
      </trkpt>
      <trkpt lat="43.50536" lon="2.79131">
        <ele>286</ele>
        <time>2019-05-14T21:36:09.684Z</time>
      </trkpt>
      <trkpt lat="43.50507" lon="2.79115">
        <ele>284</ele>
        <time>2019-05-14T21:36:17.154Z</time>
      </trkpt>
      <trkpt lat="43.50484" lon="2.79104">
        <ele>280</ele>
        <time>2019-05-14T21:36:23.278Z</time>
      </trkpt>
      <trkpt lat="43.5046" lon="2.79094">
        <ele>280</ele>
        <time>2019-05-14T21:36:29.415Z</time>
      </trkpt>
      <trkpt lat="43.50432" lon="2.79086">
        <ele>280</ele>
        <time>2019-05-14T21:36:36.641Z</time>
      </trkpt>
      <trkpt lat="43.50394" lon="2.79081">
        <ele>284</ele>
        <time>2019-05-14T21:36:45.788Z</time>
      </trkpt>
      <trkpt lat="43.50366" lon="2.79081">
        <ele>284</ele>
        <time>2019-05-14T21:36:53.072Z</time>
      </trkpt>
      <trkpt lat="43.50329" lon="2.7908">
        <ele>282</ele>
        <time>2019-05-14T21:37:02.342Z</time>
      </trkpt>
      <trkpt lat="43.5029" lon="2.79078">
        <ele>286</ele>
        <time>2019-05-14T21:37:12.432Z</time>
      </trkpt>
      <trkpt lat="43.50218" lon="2.79065">
        <ele>287</ele>
        <time>2019-05-14T21:37:30.964Z</time>
      </trkpt>
      <trkpt lat="43.50181" lon="2.79046">
        <ele>288</ele>
        <time>2019-05-14T21:37:40.609Z</time>
      </trkpt>
      <trkpt lat="43.50066" lon="2.78951">
        <ele>286</ele>
        <time>2019-05-14T21:38:12.193Z</time>
      </trkpt>
      <trkpt lat="43.49886" lon="2.7885">
        <ele>286</ele>
        <time>2019-05-14T21:39:00.511Z</time>
      </trkpt>
      <trkpt lat="43.49845" lon="2.78834">
        <ele>286</ele>
        <time>2019-05-14T21:39:11.755Z</time>
      </trkpt>
      <trkpt lat="43.49783" lon="2.7883">
        <ele>285</ele>
        <time>2019-05-14T21:39:30.422Z</time>
      </trkpt>
      <trkpt lat="43.49748" lon="2.78837">
        <ele>278</ele>
        <time>2019-05-14T21:39:40.573Z</time>
      </trkpt>
      <trkpt lat="43.4974" lon="2.7884">
        <ele>278</ele>
        <time>2019-05-14T21:39:42.808Z</time>
      </trkpt>
      <trkpt lat="43.49712" lon="2.7885">
        <ele>278</ele>
        <time>2019-05-14T21:39:51.356Z</time>
      </trkpt>
      <trkpt lat="43.49661" lon="2.78875">
        <ele>284</ele>
        <time>2019-05-14T21:40:06.346Z</time>
      </trkpt>
      <trkpt lat="43.49658" lon="2.78877">
        <ele>284</ele>
        <time>2019-05-14T21:40:07.523Z</time>
      </trkpt>
      <trkpt lat="43.49647" lon="2.78881">
        <ele>284</ele>
        <time>2019-05-14T21:40:10.787Z</time>
      </trkpt>
      <trkpt lat="43.49599" lon="2.78897">
        <ele>287</ele>
        <time>2019-05-14T21:40:24.364Z</time>
      </trkpt>
      <trkpt lat="43.49543" lon="2.78902">
        <ele>293</ele>
        <time>2019-05-14T21:40:39.217Z</time>
      </trkpt>
      <trkpt lat="43.49453" lon="2.78877">
        <ele>292</ele>
        <time>2019-05-14T21:41:00.479Z</time>
      </trkpt>
      <trkpt lat="43.49435" lon="2.78864">
        <ele>293</ele>
        <time>2019-05-14T21:41:05.354Z</time>
      </trkpt>
      <trkpt lat="43.49422" lon="2.78855">
        <ele>294</ele>
        <time>2019-05-14T21:41:09.062Z</time>
      </trkpt>
      <trkpt lat="43.49369" lon="2.78803">
        <ele>295</ele>
        <time>2019-05-14T21:41:26.185Z</time>
      </trkpt>
      <trkpt lat="43.49154" lon="2.78481">
        <ele>299</ele>
        <time>2019-05-14T21:43:09.624Z</time>
      </trkpt>
      <trkpt lat="43.49013" lon="2.7836">
        <ele>301</ele>
        <time>2019-05-14T21:44:01.586Z</time>
      </trkpt>
      <trkpt lat="43.48895" lon="2.78215">
        <ele>308</ele>
        <time>2019-05-14T21:44:46.791Z</time>
      </trkpt>
      <trkpt lat="43.48754" lon="2.78088">
        <ele>303</ele>
        <time>2019-05-14T21:45:37.319Z</time>
      </trkpt>
      <trkpt lat="43.4871" lon="2.78012">
        <ele>306</ele>
        <time>2019-05-14T21:45:58.800Z</time>
      </trkpt>
      <trkpt lat="43.48684" lon="2.7794">
        <ele>312</ele>
        <time>2019-05-14T21:46:16.252Z</time>
      </trkpt>
      <trkpt lat="43.48666" lon="2.77762">
        <ele>303</ele>
        <time>2019-05-14T21:46:51.195Z</time>
      </trkpt>
      <trkpt lat="43.48629" lon="2.77592">
        <ele>304</ele>
        <time>2019-05-14T21:47:22.297Z</time>
      </trkpt>
      <trkpt lat="43.48624" lon="2.77585">
        <ele>304</ele>
        <time>2019-05-14T21:47:23.830Z</time>
      </trkpt>
      <trkpt lat="43.48619" lon="2.77579">
        <ele>306</ele>
        <time>2019-05-14T21:47:25.717Z</time>
      </trkpt>
      <trkpt lat="43.48597" lon="2.77493">
        <ele>306</ele>
        <time>2019-05-14T21:47:40.956Z</time>
      </trkpt>
      <trkpt lat="43.48567" lon="2.77465">
        <ele>298</ele>
        <time>2019-05-14T21:47:49.721Z</time>
      </trkpt>
      <trkpt lat="43.48566" lon="2.77439">
        <ele>297</ele>
        <time>2019-05-14T21:47:54.624Z</time>
      </trkpt>
      <trkpt lat="43.48579" lon="2.77414">
        <ele>298</ele>
        <time>2019-05-14T21:48:00.663Z</time>
      </trkpt>
      <trkpt lat="43.48572" lon="2.77346">
        <ele>296</ele>
        <time>2019-05-14T21:48:16.368Z</time>
      </trkpt>
      <trkpt lat="43.4857" lon="2.77316">
        <ele>298</ele>
        <time>2019-05-14T21:48:24.106Z</time>
      </trkpt>
      <trkpt lat="43.48561" lon="2.77279">
        <ele>300</ele>
        <time>2019-05-14T21:48:34.014Z</time>
      </trkpt>
      <trkpt lat="43.48551" lon="2.77247">
        <ele>306</ele>
        <time>2019-05-14T21:48:42.903Z</time>
      </trkpt>
      <trkpt lat="43.48543" lon="2.77216">
        <ele>307</ele>
        <time>2019-05-14T21:48:52.350Z</time>
      </trkpt>
      <trkpt lat="43.48531" lon="2.77186">
        <ele>308</ele>
        <time>2019-05-14T21:49:02.609Z</time>
      </trkpt>
      <trkpt lat="43.4852" lon="2.77161">
        <ele>313</ele>
        <time>2019-05-14T21:49:11.876Z</time>
      </trkpt>
      <trkpt lat="43.48512" lon="2.77144">
        <ele>314</ele>
        <time>2019-05-14T21:49:18.678Z</time>
      </trkpt>
      <trkpt lat="43.48471" lon="2.77073">
        <ele>310</ele>
        <time>2019-05-14T21:49:47.236Z</time>
      </trkpt>
      <trkpt lat="43.48469" lon="2.77069">
        <ele>309</ele>
        <time>2019-05-14T21:49:49.100Z</time>
      </trkpt>
      <trkpt lat="43.48446" lon="2.77038">
        <ele>307</ele>
        <time>2019-05-14T21:50:01.859Z</time>
      </trkpt>
      <trkpt lat="43.48412" lon="2.76995">
        <ele>303</ele>
        <time>2019-05-14T21:50:20.073Z</time>
      </trkpt>
      <trkpt lat="43.48381" lon="2.76965">
        <ele>304</ele>
        <time>2019-05-14T21:50:32.715Z</time>
      </trkpt>
      <trkpt lat="43.48347" lon="2.76938">
        <ele>305</ele>
        <time>2019-05-14T21:50:45.659Z</time>
      </trkpt>
      <trkpt lat="43.48318" lon="2.76913">
        <ele>307</ele>
        <time>2019-05-14T21:50:56.083Z</time>
      </trkpt>
      <trkpt lat="43.48276" lon="2.76877">
        <ele>311</ele>
        <time>2019-05-14T21:51:08.895Z</time>
      </trkpt>
      <trkpt lat="43.48264" lon="2.76865">
        <ele>312</ele>
        <time>2019-05-14T21:51:12.518Z</time>
      </trkpt>
      <trkpt lat="43.48257" lon="2.76861">
        <ele>313</ele>
        <time>2019-05-14T21:51:14.291Z</time>
      </trkpt>
      <trkpt lat="43.48236" lon="2.76843">
        <ele>315</ele>
        <time>2019-05-14T21:51:20.774Z</time>
      </trkpt>
      <trkpt lat="43.48192" lon="2.76807">
        <ele>322</ele>
        <time>2019-05-14T21:51:34.897Z</time>
      </trkpt>
      <trkpt lat="43.48141" lon="2.76776">
        <ele>322</ele>
        <time>2019-05-14T21:51:49.961Z</time>
      </trkpt>
      <trkpt lat="43.4808" lon="2.76749">
        <ele>324</ele>
        <time>2019-05-14T21:52:06.912Z</time>
      </trkpt>
      <trkpt lat="43.4805" lon="2.76735">
        <ele>326</ele>
        <time>2019-05-14T21:52:15.372Z</time>
      </trkpt>
      <trkpt lat="43.47976" lon="2.76686">
        <ele>319</ele>
        <time>2019-05-14T21:52:37.208Z</time>
      </trkpt>
      <trkpt lat="43.4785" lon="2.76526">
        <ele>322</ele>
        <time>2019-05-14T21:53:22.611Z</time>
      </trkpt>
      <trkpt lat="43.4773" lon="2.76414">
        <ele>322</ele>
        <time>2019-05-14T21:54:11.184Z</time>
      </trkpt>
      <trkpt lat="43.47678" lon="2.76341">
        <ele>327</ele>
        <time>2019-05-14T21:54:42.730Z</time>
      </trkpt>
      <trkpt lat="43.47663" lon="2.76313">
        <ele>333</ele>
        <time>2019-05-14T21:54:53.021Z</time>
      </trkpt>
      <trkpt lat="43.47646" lon="2.76267">
        <ele>341</ele>
        <time>2019-05-14T21:55:07.054Z</time>
      </trkpt>
      <trkpt lat="43.4763" lon="2.76189">
        <ele>340</ele>
        <time>2019-05-14T21:55:28.257Z</time>
      </trkpt>
      <trkpt lat="43.47627" lon="2.76144">
        <ele>331</ele>
        <time>2019-05-14T21:55:39.640Z</time>
      </trkpt>
      <trkpt lat="43.47627" lon="2.76106">
        <ele>329</ele>
        <time>2019-05-14T21:55:48.789Z</time>
      </trkpt>
      <trkpt lat="43.47631" lon="2.76051">
        <ele>325</ele>
        <time>2019-05-14T21:56:01.647Z</time>
      </trkpt>
      <trkpt lat="43.47656" lon="2.75954">
        <ele>327</ele>
        <time>2019-05-14T21:56:24.705Z</time>
      </trkpt>
      <trkpt lat="43.47676" lon="2.75907">
        <ele>334</ele>
        <time>2019-05-14T21:56:36.469Z</time>
      </trkpt>
      <trkpt lat="43.477" lon="2.75868">
        <ele>334</ele>
        <time>2019-05-14T21:56:49.585Z</time>
      </trkpt>
      <trkpt lat="43.47724" lon="2.75837">
        <ele>334</ele>
        <time>2019-05-14T21:57:01.440Z</time>
      </trkpt>
      <trkpt lat="43.479" lon="2.7571">
        <ele>335</ele>
        <time>2019-05-14T21:58:04.192Z</time>
      </trkpt>
      <trkpt lat="43.47943" lon="2.7566">
        <ele>336</ele>
        <time>2019-05-14T21:58:17.020Z</time>
      </trkpt>
      <trkpt lat="43.47983" lon="2.75593">
        <ele>337</ele>
        <time>2019-05-14T21:58:30.258Z</time>
      </trkpt>
      <trkpt lat="43.47999" lon="2.75546">
        <ele>330</ele>
        <time>2019-05-14T21:58:37.869Z</time>
      </trkpt>
      <trkpt lat="43.48019" lon="2.75422">
        <ele>341</ele>
        <time>2019-05-14T21:58:56.749Z</time>
      </trkpt>
      <trkpt lat="43.48019" lon="2.75357">
        <ele>345</ele>
        <time>2019-05-14T21:59:06.790Z</time>
      </trkpt>
      <trkpt lat="43.47987" lon="2.75223">
        <ele>338</ele>
        <time>2019-05-14T21:59:30.497Z</time>
      </trkpt>
      <trkpt lat="43.47944" lon="2.75144">
        <ele>346</ele>
        <time>2019-05-14T21:59:49.657Z</time>
      </trkpt>
      <trkpt lat="43.47846" lon="2.75024">
        <ele>348</ele>
        <time>2019-05-14T22:00:29.058Z</time>
      </trkpt>
      <trkpt lat="43.47817" lon="2.74973">
        <ele>343</ele>
        <time>2019-05-14T22:00:43.983Z</time>
      </trkpt>
      <trkpt lat="43.47779" lon="2.74848">
        <ele>347</ele>
        <time>2019-05-14T22:01:14.924Z</time>
      </trkpt>
      <trkpt lat="43.47773" lon="2.74766">
        <ele>347</ele>
        <time>2019-05-14T22:01:33.018Z</time>
      </trkpt>
      <trkpt lat="43.47794" lon="2.7421">
        <ele>350</ele>
        <time>2019-05-14T22:03:25.691Z</time>
      </trkpt>
      <trkpt lat="43.47798" lon="2.74157">
        <ele>349</ele>
        <time>2019-05-14T22:03:38.669Z</time>
      </trkpt>
      <trkpt lat="43.47798" lon="2.74144">
        <ele>349</ele>
        <time>2019-05-14T22:03:41.711Z</time>
      </trkpt>
      <trkpt lat="43.47781" lon="2.74038">
        <ele>343</ele>
        <time>2019-05-14T22:04:08.841Z</time>
      </trkpt>
      <trkpt lat="43.47783" lon="2.74034">
        <ele>343</ele>
        <time>2019-05-14T22:04:09.755Z</time>
      </trkpt>
      <trkpt lat="43.47795" lon="2.74033">
        <ele>344</ele>
        <time>2019-05-14T22:04:13.726Z</time>
      </trkpt>
      <trkpt lat="43.47819" lon="2.74031">
        <ele>345</ele>
        <time>2019-05-14T22:04:21.998Z</time>
      </trkpt>
      <trkpt lat="43.47824" lon="2.74037">
        <ele>346</ele>
        <time>2019-05-14T22:04:24.359Z</time>
      </trkpt>
      <trkpt lat="43.47814" lon="2.74094">
        <ele>349</ele>
        <time>2019-05-14T22:04:36.064Z</time>
      </trkpt>
      <trkpt lat="43.47817" lon="2.741">
        <ele>349</ele>
        <time>2019-05-14T22:04:37.746Z</time>
      </trkpt>
      <trkpt lat="43.47824" lon="2.74084">
        <ele>350</ele>
        <time>2019-05-14T22:04:41.538Z</time>
      </trkpt>
      <trkpt lat="43.47853" lon="2.74035">
        <ele>355</ele>
        <time>2019-05-14T22:04:54.145Z</time>
      </trkpt>
      <trkpt lat="43.47847" lon="2.74001">
        <ele>352</ele>
        <time>2019-05-14T22:05:01.475Z</time>
      </trkpt>
      <trkpt lat="43.47825" lon="2.73974">
        <ele>349</ele>
        <time>2019-05-14T22:05:08.925Z</time>
      </trkpt>
      <trkpt lat="43.47822" lon="2.73972">
        <ele>349</ele>
        <time>2019-05-14T22:05:09.420Z</time>
      </trkpt>
      <trkpt lat="43.47801" lon="2.73957">
        <ele>348</ele>
        <time>2019-05-14T22:05:14.487Z</time>
      </trkpt>
      <trkpt lat="43.47792" lon="2.73928">
        <ele>349</ele>
        <time>2019-05-14T22:05:20.028Z</time>
      </trkpt>
      <trkpt lat="43.47766" lon="2.73856">
        <ele>356</ele>
        <time>2019-05-14T22:05:33.678Z</time>
      </trkpt>
      <trkpt lat="43.4768" lon="2.73689">
        <ele>361</ele>
        <time>2019-05-14T22:06:12.695Z</time>
      </trkpt>
      <trkpt lat="43.47555" lon="2.73452">
        <ele>353</ele>
        <time>2019-05-14T22:07:14.247Z</time>
      </trkpt>
      <trkpt lat="43.4755" lon="2.73443">
        <ele>353</ele>
        <time>2019-05-14T22:07:16.722Z</time>
      </trkpt>
      <trkpt lat="43.47517" lon="2.73366">
        <ele>361</ele>
        <time>2019-05-14T22:07:37.017Z</time>
      </trkpt>
      <trkpt lat="43.47485" lon="2.73255">
        <ele>359</ele>
        <time>2019-05-14T22:08:04.812Z</time>
      </trkpt>
      <trkpt lat="43.47456" lon="2.73086">
        <ele>366</ele>
        <time>2019-05-14T22:08:45.474Z</time>
      </trkpt>
      <trkpt lat="43.4745" lon="2.73051">
        <ele>365</ele>
        <time>2019-05-14T22:08:53.669Z</time>
      </trkpt>
      <trkpt lat="43.47442" lon="2.7301">
        <ele>362</ele>
        <time>2019-05-14T22:09:03.012Z</time>
      </trkpt>
      <trkpt lat="43.47434" lon="2.72978">
        <ele>362</ele>
        <time>2019-05-14T22:09:10.429Z</time>
      </trkpt>
      <trkpt lat="43.47424" lon="2.72952">
        <ele>364</ele>
        <time>2019-05-14T22:09:16.689Z</time>
      </trkpt>
      <trkpt lat="43.47362" lon="2.72796">
        <ele>374</ele>
        <time>2019-05-14T22:09:53.597Z</time>
      </trkpt>
      <trkpt lat="43.47307" lon="2.72601">
        <ele>369</ele>
        <time>2019-05-14T22:10:37.873Z</time>
      </trkpt>
      <trkpt lat="43.47269" lon="2.72408">
        <ele>374</ele>
        <time>2019-05-14T22:11:25.608Z</time>
      </trkpt>
      <trkpt lat="43.47257" lon="2.7213">
        <ele>386</ele>
        <time>2019-05-14T22:12:39.209Z</time>
      </trkpt>
      <trkpt lat="43.47256" lon="2.7207">
        <ele>385</ele>
        <time>2019-05-14T22:12:53.866Z</time>
      </trkpt>
      <trkpt lat="43.47255" lon="2.72056">
        <ele>389</ele>
        <time>2019-05-14T22:12:57.115Z</time>
      </trkpt>
      <trkpt lat="43.47251" lon="2.72021">
        <ele>391</ele>
        <time>2019-05-14T22:13:05.590Z</time>
      </trkpt>
      <trkpt lat="43.47222" lon="2.71825">
        <ele>383</ele>
        <time>2019-05-14T22:13:50.174Z</time>
      </trkpt>
      <trkpt lat="43.47219" lon="2.71745">
        <ele>382</ele>
        <time>2019-05-14T22:14:08.184Z</time>
      </trkpt>
      <trkpt lat="43.4723" lon="2.71669">
        <ele>384</ele>
        <time>2019-05-14T22:14:25.893Z</time>
      </trkpt>
      <trkpt lat="43.47276" lon="2.71539">
        <ele>387</ele>
        <time>2019-05-14T22:14:57.867Z</time>
      </trkpt>
      <trkpt lat="43.47333" lon="2.71418">
        <ele>375</ele>
        <time>2019-05-14T22:15:26.515Z</time>
      </trkpt>
      <trkpt lat="43.47403" lon="2.71215">
        <ele>372</ele>
        <time>2019-05-14T22:16:11.224Z</time>
      </trkpt>
      <trkpt lat="43.47409" lon="2.71202">
        <ele>372</ele>
        <time>2019-05-14T22:16:14.924Z</time>
      </trkpt>
      <trkpt lat="43.47414" lon="2.71202">
        <ele>372</ele>
        <time>2019-05-14T22:16:16.957Z</time>
      </trkpt>
      <trkpt lat="43.47427" lon="2.71166">
        <ele>376</ele>
        <time>2019-05-14T22:16:26.598Z</time>
      </trkpt>
      <trkpt lat="43.47436" lon="2.71142">
        <ele>378</ele>
        <time>2019-05-14T22:16:34.115Z</time>
      </trkpt>
      <trkpt lat="43.47451" lon="2.71105">
        <ele>379</ele>
        <time>2019-05-14T22:16:46.148Z</time>
      </trkpt>
      <trkpt lat="43.47463" lon="2.71083">
        <ele>380</ele>
        <time>2019-05-14T22:16:53.953Z</time>
      </trkpt>
      <trkpt lat="43.47476" lon="2.71058">
        <ele>381</ele>
        <time>2019-05-14T22:17:03.591Z</time>
      </trkpt>
      <trkpt lat="43.47546" lon="2.70963">
        <ele>389</ele>
        <time>2019-05-14T22:17:44.564Z</time>
      </trkpt>
      <trkpt lat="43.47599" lon="2.70891">
        <ele>389</ele>
        <time>2019-05-14T22:18:06.970Z</time>
      </trkpt>
      <trkpt lat="43.47614" lon="2.70876">
        <ele>388</ele>
        <time>2019-05-14T22:18:12.282Z</time>
      </trkpt>
      <trkpt lat="43.47628" lon="2.70848">
        <ele>387</ele>
        <time>2019-05-14T22:18:18.164Z</time>
      </trkpt>
      <trkpt lat="43.47639" lon="2.70827">
        <ele>381</ele>
        <time>2019-05-14T22:18:23.195Z</time>
      </trkpt>
      <trkpt lat="43.47648" lon="2.70807">
        <ele>381</ele>
        <time>2019-05-14T22:18:27.195Z</time>
      </trkpt>
      <trkpt lat="43.47666" lon="2.70769">
        <ele>379</ele>
        <time>2019-05-14T22:18:35.312Z</time>
      </trkpt>
      <trkpt lat="43.47674" lon="2.7075">
        <ele>379</ele>
        <time>2019-05-14T22:18:40.048Z</time>
      </trkpt>
      <trkpt lat="43.47691" lon="2.70706">
        <ele>381</ele>
        <time>2019-05-14T22:18:49.754Z</time>
      </trkpt>
      <trkpt lat="43.4773" lon="2.70609">
        <ele>387</ele>
        <time>2019-05-14T22:19:12.842Z</time>
      </trkpt>
      <trkpt lat="43.47764" lon="2.70523">
        <ele>397</ele>
        <time>2019-05-14T22:19:40.451Z</time>
      </trkpt>
      <trkpt lat="43.47868" lon="2.70264">
        <ele>402</ele>
        <time>2019-05-14T22:21:02.388Z</time>
      </trkpt>
      <trkpt lat="43.47899" lon="2.7019">
        <ele>398</ele>
        <time>2019-05-14T22:21:19.349Z</time>
      </trkpt>
      <trkpt lat="43.47903" lon="2.70176">
        <ele>398</ele>
        <time>2019-05-14T22:21:22.063Z</time>
      </trkpt>
      <trkpt lat="43.47938" lon="2.70086">
        <ele>395</ele>
        <time>2019-05-14T22:21:40.998Z</time>
      </trkpt>
      <trkpt lat="43.47944" lon="2.70068">
        <ele>393</ele>
        <time>2019-05-14T22:21:44.653Z</time>
      </trkpt>
      <trkpt lat="43.47967" lon="2.69992">
        <ele>395</ele>
        <time>2019-05-14T22:22:00.390Z</time>
      </trkpt>
      <trkpt lat="43.47969" lon="2.69977">
        <ele>395</ele>
        <time>2019-05-14T22:22:03.243Z</time>
      </trkpt>
      <trkpt lat="43.48008" lon="2.69764">
        <ele>405</ele>
        <time>2019-05-14T22:22:54.177Z</time>
      </trkpt>
      <trkpt lat="43.48163" lon="2.69156">
        <ele>409</ele>
        <time>2019-05-14T22:25:19.957Z</time>
      </trkpt>
      <trkpt lat="43.48174" lon="2.69101">
        <ele>410</ele>
        <time>2019-05-14T22:25:31.626Z</time>
      </trkpt>
      <trkpt lat="43.4818" lon="2.6904">
        <ele>408</ele>
        <time>2019-05-14T22:25:44.069Z</time>
      </trkpt>
      <trkpt lat="43.48183" lon="2.68988">
        <ele>407</ele>
        <time>2019-05-14T22:25:54.710Z</time>
      </trkpt>
      <trkpt lat="43.48182" lon="2.68925">
        <ele>408</ele>
        <time>2019-05-14T22:26:07.733Z</time>
      </trkpt>
      <trkpt lat="43.48182" lon="2.68903">
        <ele>410</ele>
        <time>2019-05-14T22:26:12.365Z</time>
      </trkpt>
      <trkpt lat="43.48181" lon="2.68878">
        <ele>411</ele>
        <time>2019-05-14T22:26:18.290Z</time>
      </trkpt>
      <trkpt lat="43.4818" lon="2.68864">
        <ele>411</ele>
        <time>2019-05-14T22:26:21.722Z</time>
      </trkpt>
      <trkpt lat="43.4817" lon="2.68811">
        <ele>412</ele>
        <time>2019-05-14T22:26:36.006Z</time>
      </trkpt>
      <trkpt lat="43.48157" lon="2.68752">
        <ele>410</ele>
        <time>2019-05-14T22:26:53.602Z</time>
      </trkpt>
      <trkpt lat="43.48145" lon="2.68711">
        <ele>411</ele>
        <time>2019-05-14T22:27:07.179Z</time>
      </trkpt>
      <trkpt lat="43.48127" lon="2.68664">
        <ele>413</ele>
        <time>2019-05-14T22:27:24.177Z</time>
      </trkpt>
      <trkpt lat="43.47956" lon="2.6835">
        <ele>426</ele>
        <time>2019-05-14T22:29:38.398Z</time>
      </trkpt>
      <trkpt lat="43.47886" lon="2.68125">
        <ele>431</ele>
        <time>2019-05-14T22:30:49.201Z</time>
      </trkpt>
      <trkpt lat="43.47883" lon="2.68114">
        <ele>431</ele>
        <time>2019-05-14T22:30:51.971Z</time>
      </trkpt>
      <trkpt lat="43.4787" lon="2.68056">
        <ele>431</ele>
        <time>2019-05-14T22:31:08.866Z</time>
      </trkpt>
      <trkpt lat="43.47813" lon="2.67817">
        <ele>448</ele>
        <time>2019-05-14T22:32:28.939Z</time>
      </trkpt>
      <trkpt lat="43.47807" lon="2.67775">
        <ele>451</ele>
        <time>2019-05-14T22:32:43.439Z</time>
      </trkpt>
      <trkpt lat="43.478" lon="2.67665">
        <ele>464</ele>
        <time>2019-05-14T22:33:17.504Z</time>
      </trkpt>
      <trkpt lat="43.47789" lon="2.67217">
        <ele>461</ele>
        <time>2019-05-14T22:35:01.914Z</time>
      </trkpt>
      <trkpt lat="43.47793" lon="2.66942">
        <ele>451</ele>
        <time>2019-05-14T22:35:42.822Z</time>
      </trkpt>
      <trkpt lat="43.47802" lon="2.66828">
        <ele>449</ele>
        <time>2019-05-14T22:35:58.561Z</time>
      </trkpt>
      <trkpt lat="43.47801" lon="2.66759">
        <ele>449</ele>
        <time>2019-05-14T22:36:07.864Z</time>
      </trkpt>
      <trkpt lat="43.47791" lon="2.66658">
        <ele>447</ele>
        <time>2019-05-14T22:36:21.714Z</time>
      </trkpt>
      <trkpt lat="43.47745" lon="2.66441">
        <ele>439</ele>
        <time>2019-05-14T22:36:53.459Z</time>
      </trkpt>
      <trkpt lat="43.47723" lon="2.66198">
        <ele>438</ele>
        <time>2019-05-14T22:37:31.500Z</time>
      </trkpt>
      <trkpt lat="43.47707" lon="2.66112">
        <ele>437</ele>
        <time>2019-05-14T22:37:45.515Z</time>
      </trkpt>
      <trkpt lat="43.47679" lon="2.66012">
        <ele>433</ele>
        <time>2019-05-14T22:38:01.621Z</time>
      </trkpt>
      <trkpt lat="43.47594" lon="2.65822">
        <ele>427</ele>
        <time>2019-05-14T22:38:33.364Z</time>
      </trkpt>
      <trkpt lat="43.47564" lon="2.65716">
        <ele>427</ele>
        <time>2019-05-14T22:38:52.059Z</time>
      </trkpt>
      <trkpt lat="43.47549" lon="2.65649">
        <ele>427</ele>
        <time>2019-05-14T22:39:04.326Z</time>
      </trkpt>
      <trkpt lat="43.4753" lon="2.6556">
        <ele>429</ele>
        <time>2019-05-14T22:39:22.276Z</time>
      </trkpt>
      <trkpt lat="43.47471" lon="2.65362">
        <ele>428</ele>
        <time>2019-05-14T22:39:58.879Z</time>
      </trkpt>
      <trkpt lat="43.47356" lon="2.65163">
        <ele>415</ele>
        <time>2019-05-14T22:40:33.805Z</time>
      </trkpt>
      <trkpt lat="43.47293" lon="2.65031">
        <ele>420</ele>
        <time>2019-05-14T22:40:57.325Z</time>
      </trkpt>
      <trkpt lat="43.47258" lon="2.64878">
        <ele>416</ele>
        <time>2019-05-14T22:41:17.190Z</time>
      </trkpt>
      <trkpt lat="43.47247" lon="2.64794">
        <ele>412</ele>
        <time>2019-05-14T22:41:27.057Z</time>
      </trkpt>
      <trkpt lat="43.47244" lon="2.64777">
        <ele>410</ele>
        <time>2019-05-14T22:41:29.015Z</time>
      </trkpt>
      <trkpt lat="43.47238" lon="2.64726">
        <ele>405</ele>
        <time>2019-05-14T22:41:34.980Z</time>
      </trkpt>
      <trkpt lat="43.47236" lon="2.64707">
        <ele>404</ele>
        <time>2019-05-14T22:41:37.241Z</time>
      </trkpt>
      <trkpt lat="43.47234" lon="2.64686">
        <ele>404</ele>
        <time>2019-05-14T22:41:39.736Z</time>
      </trkpt>
      <trkpt lat="43.47234" lon="2.64562">
        <ele>403</ele>
        <time>2019-05-14T22:41:54.416Z</time>
      </trkpt>
      <trkpt lat="43.47236" lon="2.64541">
        <ele>404</ele>
        <time>2019-05-14T22:41:57.115Z</time>
      </trkpt>
      <trkpt lat="43.47236" lon="2.64531">
        <ele>404</ele>
        <time>2019-05-14T22:41:58.498Z</time>
      </trkpt>
      <trkpt lat="43.47239" lon="2.64513">
        <ele>403</ele>
        <time>2019-05-14T22:42:01.010Z</time>
      </trkpt>
      <trkpt lat="43.4724" lon="2.64497">
        <ele>404</ele>
        <time>2019-05-14T22:42:03.538Z</time>
      </trkpt>
      <trkpt lat="43.47279" lon="2.64346">
        <ele>402</ele>
        <time>2019-05-14T22:42:30.018Z</time>
      </trkpt>
      <trkpt lat="43.47291" lon="2.64314">
        <ele>401</ele>
        <time>2019-05-14T22:42:36.233Z</time>
      </trkpt>
      <trkpt lat="43.47311" lon="2.64269">
        <ele>400</ele>
        <time>2019-05-14T22:42:45.158Z</time>
      </trkpt>
      <trkpt lat="43.47439" lon="2.64041">
        <ele>401</ele>
        <time>2019-05-14T22:43:35.698Z</time>
      </trkpt>
      <trkpt lat="43.47465" lon="2.63984">
        <ele>400</ele>
        <time>2019-05-14T22:43:49.088Z</time>
      </trkpt>
      <trkpt lat="43.47471" lon="2.63973">
        <ele>400</ele>
        <time>2019-05-14T22:43:52.013Z</time>
      </trkpt>
      <trkpt lat="43.47486" lon="2.63937">
        <ele>399</ele>
        <time>2019-05-14T22:44:00.915Z</time>
      </trkpt>
      <trkpt lat="43.47497" lon="2.63912">
        <ele>398</ele>
        <time>2019-05-14T22:44:06.896Z</time>
      </trkpt>
      <trkpt lat="43.47516" lon="2.63857">
        <ele>399</ele>
        <time>2019-05-14T22:44:18.854Z</time>
      </trkpt>
      <trkpt lat="43.47517" lon="2.63856">
        <ele>399</ele>
        <time>2019-05-14T22:44:19.282Z</time>
      </trkpt>
      <trkpt lat="43.47522" lon="2.63836">
        <ele>400</ele>
        <time>2019-05-14T22:44:22.882Z</time>
      </trkpt>
      <trkpt lat="43.47528" lon="2.63802">
        <ele>401</ele>
        <time>2019-05-14T22:44:28.886Z</time>
      </trkpt>
      <trkpt lat="43.47532" lon="2.63773">
        <ele>400</ele>
        <time>2019-05-14T22:44:33.578Z</time>
      </trkpt>
      <trkpt lat="43.47533" lon="2.63762">
        <ele>401</ele>
        <time>2019-05-14T22:44:35.360Z</time>
      </trkpt>
      <trkpt lat="43.47535" lon="2.63727">
        <ele>399</ele>
        <time>2019-05-14T22:44:41.252Z</time>
      </trkpt>
      <trkpt lat="43.47531" lon="2.6366">
        <ele>397</ele>
        <time>2019-05-14T22:44:52.724Z</time>
      </trkpt>
      <trkpt lat="43.47525" lon="2.63607">
        <ele>396</ele>
        <time>2019-05-14T22:45:02.160Z</time>
      </trkpt>
      <trkpt lat="43.4751" lon="2.63527">
        <ele>395</ele>
        <time>2019-05-14T22:45:15.114Z</time>
      </trkpt>
      <trkpt lat="43.47508" lon="2.63512">
        <ele>395</ele>
        <time>2019-05-14T22:45:17.387Z</time>
      </trkpt>
      <trkpt lat="43.47496" lon="2.63437">
        <ele>398</ele>
        <time>2019-05-14T22:45:29.659Z</time>
      </trkpt>
      <trkpt lat="43.47491" lon="2.63403">
        <ele>398</ele>
        <time>2019-05-14T22:45:35.665Z</time>
      </trkpt>
      <trkpt lat="43.47468" lon="2.63137">
        <ele>396</ele>
        <time>2019-05-14T22:46:29.294Z</time>
      </trkpt>
      <trkpt lat="43.47453" lon="2.63013">
        <ele>397</ele>
        <time>2019-05-14T22:46:55.928Z</time>
      </trkpt>
      <trkpt lat="43.47446" lon="2.62955">
        <ele>397</ele>
        <time>2019-05-14T22:47:09.012Z</time>
      </trkpt>
      <trkpt lat="43.47445" lon="2.62842">
        <ele>398</ele>
        <time>2019-05-14T22:47:34.932Z</time>
      </trkpt>
      <trkpt lat="43.47474" lon="2.62712">
        <ele>398</ele>
        <time>2019-05-14T22:48:09.910Z</time>
      </trkpt>
      <trkpt lat="43.47517" lon="2.62581">
        <ele>415</ele>
        <time>2019-05-14T22:48:52.929Z</time>
      </trkpt>
      <trkpt lat="43.47568" lon="2.62417">
        <ele>407</ele>
        <time>2019-05-14T22:49:17.775Z</time>
      </trkpt>
      <trkpt lat="43.47574" lon="2.62396">
        <ele>403</ele>
        <time>2019-05-14T22:49:20.144Z</time>
      </trkpt>
      <trkpt lat="43.4758" lon="2.62367">
        <ele>401</ele>
        <time>2019-05-14T22:49:23.840Z</time>
      </trkpt>
      <trkpt lat="43.47585" lon="2.62328">
        <ele>388</ele>
        <time>2019-05-14T22:49:28.361Z</time>
      </trkpt>
      <trkpt lat="43.47588" lon="2.62296">
        <ele>388</ele>
        <time>2019-05-14T22:49:31.801Z</time>
      </trkpt>
      <trkpt lat="43.47589" lon="2.62263">
        <ele>385</ele>
        <time>2019-05-14T22:49:35.505Z</time>
      </trkpt>
      <trkpt lat="43.4759" lon="2.62218">
        <ele>394</ele>
        <time>2019-05-14T22:49:40.482Z</time>
      </trkpt>
      <trkpt lat="43.47588" lon="2.62192">
        <ele>396</ele>
        <time>2019-05-14T22:49:43.205Z</time>
      </trkpt>
      <trkpt lat="43.47584" lon="2.62162">
        <ele>394</ele>
        <time>2019-05-14T22:49:46.640Z</time>
      </trkpt>
      <trkpt lat="43.47577" lon="2.62113">
        <ele>391</ele>
        <time>2019-05-14T22:49:52.195Z</time>
      </trkpt>
      <trkpt lat="43.47568" lon="2.62076">
        <ele>397</ele>
        <time>2019-05-14T22:49:56.727Z</time>
      </trkpt>
      <trkpt lat="43.47527" lon="2.61926">
        <ele>394</ele>
        <time>2019-05-14T22:50:18.469Z</time>
      </trkpt>
      <trkpt lat="43.4746" lon="2.6177">
        <ele>385</ele>
        <time>2019-05-14T22:50:46.041Z</time>
      </trkpt>
      <trkpt lat="43.47459" lon="2.61769">
        <ele>385</ele>
        <time>2019-05-14T22:50:46.111Z</time>
      </trkpt>
      <trkpt lat="43.47449" lon="2.61739">
        <ele>389</ele>
        <time>2019-05-14T22:50:51.651Z</time>
      </trkpt>
      <trkpt lat="43.47408" lon="2.61488">
        <ele>389</ele>
        <time>2019-05-14T22:51:31.024Z</time>
      </trkpt>
      <trkpt lat="43.47371" lon="2.61379">
        <ele>393</ele>
        <time>2019-05-14T22:51:49.893Z</time>
      </trkpt>
      <trkpt lat="43.47246" lon="2.61117">
        <ele>381</ele>
        <time>2019-05-14T22:52:41.074Z</time>
      </trkpt>
      <trkpt lat="43.47134" lon="2.60939">
        <ele>378</ele>
        <time>2019-05-14T22:53:18.284Z</time>
      </trkpt>
      <trkpt lat="43.47102" lon="2.60862">
        <ele>379</ele>
        <time>2019-05-14T22:53:32.425Z</time>
      </trkpt>
      <trkpt lat="43.4708" lon="2.60738">
        <ele>375</ele>
        <time>2019-05-14T22:53:54.165Z</time>
      </trkpt>
      <trkpt lat="43.47081" lon="2.60668">
        <ele>378</ele>
        <time>2019-05-14T22:54:05.323Z</time>
      </trkpt>
      <trkpt lat="43.47098" lon="2.60584">
        <ele>376</ele>
        <time>2019-05-14T22:54:22.573Z</time>
      </trkpt>
      <trkpt lat="43.47109" lon="2.60549">
        <ele>370</ele>
        <time>2019-05-14T22:54:30.690Z</time>
      </trkpt>
      <trkpt lat="43.47119" lon="2.60523">
        <ele>369</ele>
        <time>2019-05-14T22:54:36.173Z</time>
      </trkpt>
      <trkpt lat="43.47129" lon="2.60503">
        <ele>368</ele>
        <time>2019-05-14T22:54:42.185Z</time>
      </trkpt>
      <trkpt lat="43.47138" lon="2.60486">
        <ele>370</ele>
        <time>2019-05-14T22:54:46.212Z</time>
      </trkpt>
      <trkpt lat="43.47157" lon="2.60458">
        <ele>373</ele>
        <time>2019-05-14T22:54:55.427Z</time>
      </trkpt>
      <trkpt lat="43.47303" lon="2.60279">
        <ele>375</ele>
        <time>2019-05-14T22:56:05.124Z</time>
      </trkpt>
      <trkpt lat="43.47351" lon="2.60182">
        <ele>370</ele>
        <time>2019-05-14T22:56:37.061Z</time>
      </trkpt>
      <trkpt lat="43.47352" lon="2.60177">
        <ele>370</ele>
        <time>2019-05-14T22:56:37.946Z</time>
      </trkpt>
      <trkpt lat="43.47352" lon="2.60173">
        <ele>370</ele>
        <time>2019-05-14T22:56:41.576Z</time>
      </trkpt>
      <trkpt lat="43.47298" lon="2.60081">
        <ele>371</ele>
        <time>2019-05-14T22:57:06.621Z</time>
      </trkpt>
      <trkpt lat="43.47278" lon="2.59998">
        <ele>372</ele>
        <time>2019-05-14T22:57:21.625Z</time>
      </trkpt>
      <trkpt lat="43.47264" lon="2.59822">
        <ele>362</ele>
        <time>2019-05-14T22:57:43.260Z</time>
      </trkpt>
      <trkpt lat="43.47209" lon="2.59719">
        <ele>353</ele>
        <time>2019-05-14T22:57:57.911Z</time>
      </trkpt>
      <trkpt lat="43.47135" lon="2.59614">
        <ele>350</ele>
        <time>2019-05-14T22:58:14.964Z</time>
      </trkpt>
      <trkpt lat="43.47052" lon="2.59418">
        <ele>344</ele>
        <time>2019-05-14T22:58:42.093Z</time>
      </trkpt>
      <trkpt lat="43.47032" lon="2.59352">
        <ele>340</ele>
        <time>2019-05-14T22:58:51.148Z</time>
      </trkpt>
      <trkpt lat="43.47047" lon="2.59347">
        <ele>340</ele>
        <time>2019-05-14T22:58:53.623Z</time>
      </trkpt>
      <trkpt lat="43.47054" lon="2.59344">
        <ele>340</ele>
        <time>2019-05-14T22:58:54.841Z</time>
      </trkpt>
      <trkpt lat="43.47064" lon="2.59339">
        <ele>339</ele>
        <time>2019-05-14T22:58:56.597Z</time>
      </trkpt>
      <trkpt lat="43.47086" lon="2.59328">
        <ele>339</ele>
        <time>2019-05-14T22:59:00.407Z</time>
      </trkpt>
      <trkpt lat="43.4711" lon="2.59317">
        <ele>343</ele>
        <time>2019-05-14T22:59:04.772Z</time>
      </trkpt>
      <trkpt lat="43.47142" lon="2.59245">
        <ele>345</ele>
        <time>2019-05-14T22:59:15.466Z</time>
      </trkpt>
      <trkpt lat="43.47143" lon="2.59216">
        <ele>345</ele>
        <time>2019-05-14T22:59:19.315Z</time>
      </trkpt>
      <trkpt lat="43.47142" lon="2.59198">
        <ele>345</ele>
        <time>2019-05-14T22:59:21.963Z</time>
      </trkpt>
      <trkpt lat="43.47152" lon="2.59174">
        <ele>345</ele>
        <time>2019-05-14T22:59:26.020Z</time>
      </trkpt>
      <trkpt lat="43.47159" lon="2.59172">
        <ele>346</ele>
        <time>2019-05-14T22:59:27.749Z</time>
      </trkpt>
      <trkpt lat="43.47161" lon="2.59122">
        <ele>345</ele>
        <time>2019-05-14T22:59:36.980Z</time>
      </trkpt>
      <trkpt lat="43.47156" lon="2.59028">
        <ele>345</ele>
        <time>2019-05-14T22:59:53.101Z</time>
      </trkpt>
      <trkpt lat="43.47125" lon="2.58832">
        <ele>343</ele>
        <time>2019-05-14T23:00:23.048Z</time>
      </trkpt>
      <trkpt lat="43.47116" lon="2.58768">
        <ele>342</ele>
        <time>2019-05-14T23:00:32.729Z</time>
      </trkpt>
      <trkpt lat="43.47113" lon="2.58722">
        <ele>341</ele>
        <time>2019-05-14T23:00:39.689Z</time>
      </trkpt>
      <trkpt lat="43.47111" lon="2.58669">
        <ele>341</ele>
        <time>2019-05-14T23:00:47.845Z</time>
      </trkpt>
      <trkpt lat="43.47113" lon="2.58626">
        <ele>341</ele>
        <time>2019-05-14T23:00:54.420Z</time>
      </trkpt>
      <trkpt lat="43.47137" lon="2.58486">
        <ele>340</ele>
        <time>2019-05-14T23:01:18.218Z</time>
      </trkpt>
      <trkpt lat="43.4715" lon="2.58435">
        <ele>341</ele>
        <time>2019-05-14T23:01:27.988Z</time>
      </trkpt>
      <trkpt lat="43.47154" lon="2.58417">
        <ele>342</ele>
        <time>2019-05-14T23:01:31.630Z</time>
      </trkpt>
      <trkpt lat="43.47205" lon="2.58244">
        <ele>341</ele>
        <time>2019-05-14T23:02:06.357Z</time>
      </trkpt>
      <trkpt lat="43.47239" lon="2.58102">
        <ele>340</ele>
        <time>2019-05-14T23:02:32.120Z</time>
      </trkpt>
      <trkpt lat="43.47256" lon="2.58032">
        <ele>346</ele>
        <time>2019-05-14T23:02:43.852Z</time>
      </trkpt>
      <trkpt lat="43.47279" lon="2.57934">
        <ele>345</ele>
        <time>2019-05-14T23:02:59.721Z</time>
      </trkpt>
      <trkpt lat="43.47294" lon="2.57821">
        <ele>341</ele>
        <time>2019-05-14T23:03:16.945Z</time>
      </trkpt>
      <trkpt lat="43.47301" lon="2.57681">
        <ele>338</ele>
        <time>2019-05-14T23:03:38.891Z</time>
      </trkpt>
      <trkpt lat="43.4731" lon="2.57467">
        <ele>334</ele>
        <time>2019-05-14T23:04:13.161Z</time>
      </trkpt>
      <trkpt lat="43.4732" lon="2.57199">
        <ele>332</ele>
        <time>2019-05-14T23:04:53.500Z</time>
      </trkpt>
      <trkpt lat="43.4733" lon="2.56856">
        <ele>325</ele>
        <time>2019-05-14T23:05:42.337Z</time>
      </trkpt>
      <trkpt lat="43.47283" lon="2.566">
        <ele>321</ele>
        <time>2019-05-14T23:06:20.050Z</time>
      </trkpt>
      <trkpt lat="43.47276" lon="2.56468">
        <ele>322</ele>
        <time>2019-05-14T23:06:40.199Z</time>
      </trkpt>
      <trkpt lat="43.47281" lon="2.5643">
        <ele>322</ele>
        <time>2019-05-14T23:06:46.559Z</time>
      </trkpt>
      <trkpt lat="43.47291" lon="2.56388">
        <ele>320</ele>
        <time>2019-05-14T23:06:54.041Z</time>
      </trkpt>
      <trkpt lat="43.47331" lon="2.56287">
        <ele>317</ele>
        <time>2019-05-14T23:07:14.351Z</time>
      </trkpt>
      <trkpt lat="43.47356" lon="2.56243">
        <ele>322</ele>
        <time>2019-05-14T23:07:24.443Z</time>
      </trkpt>
      <trkpt lat="43.47361" lon="2.56234">
        <ele>322</ele>
        <time>2019-05-14T23:07:26.724Z</time>
      </trkpt>
      <trkpt lat="43.47451" lon="2.56064">
        <ele>320</ele>
        <time>2019-05-14T23:08:05.202Z</time>
      </trkpt>
      <trkpt lat="43.47487" lon="2.55952">
        <ele>318</ele>
        <time>2019-05-14T23:08:27.305Z</time>
      </trkpt>
      <trkpt lat="43.47548" lon="2.55638">
        <ele>325</ele>
        <time>2019-05-14T23:09:25.862Z</time>
      </trkpt>
      <trkpt lat="43.47553" lon="2.55593">
        <ele>324</ele>
        <time>2019-05-14T23:09:33.604Z</time>
      </trkpt>
      <trkpt lat="43.47554" lon="2.55548">
        <ele>324</ele>
        <time>2019-05-14T23:09:41.094Z</time>
      </trkpt>
      <trkpt lat="43.47526" lon="2.55312">
        <ele>320</ele>
        <time>2019-05-14T23:10:18.593Z</time>
      </trkpt>
      <trkpt lat="43.47539" lon="2.55135">
        <ele>312</ele>
        <time>2019-05-14T23:10:50.783Z</time>
      </trkpt>
      <trkpt lat="43.4754" lon="2.55102">
        <ele>312</ele>
        <time>2019-05-14T23:10:56.791Z</time>
      </trkpt>
      <trkpt lat="43.47539" lon="2.55075">
        <ele>311</ele>
        <time>2019-05-14T23:11:02.300Z</time>
      </trkpt>
      <trkpt lat="43.47534" lon="2.55034">
        <ele>312</ele>
        <time>2019-05-14T23:11:10.125Z</time>
      </trkpt>
      <trkpt lat="43.47534" lon="2.55031">
        <ele>312</ele>
        <time>2019-05-14T23:11:10.745Z</time>
      </trkpt>
      <trkpt lat="43.47529" lon="2.55009">
        <ele>313</ele>
        <time>2019-05-14T23:11:14.993Z</time>
      </trkpt>
      <trkpt lat="43.47486" lon="2.54893">
        <ele>312</ele>
        <time>2019-05-14T23:11:39.280Z</time>
      </trkpt>
      <trkpt lat="43.47433" lon="2.54821">
        <ele>309</ele>
        <time>2019-05-14T23:11:55.299Z</time>
      </trkpt>
      <trkpt lat="43.47204" lon="2.54675">
        <ele>305</ele>
        <time>2019-05-14T23:12:43.712Z</time>
      </trkpt>
      <trkpt lat="43.47188" lon="2.54656">
        <ele>305</ele>
        <time>2019-05-14T23:12:47.940Z</time>
      </trkpt>
      <trkpt lat="43.47164" lon="2.54624">
        <ele>306</ele>
        <time>2019-05-14T23:12:54.838Z</time>
      </trkpt>
      <trkpt lat="43.47122" lon="2.54544">
        <ele>304</ele>
        <time>2019-05-14T23:13:10.835Z</time>
      </trkpt>
      <trkpt lat="43.47114" lon="2.54508">
        <ele>304</ele>
        <time>2019-05-14T23:13:17.373Z</time>
      </trkpt>
      <trkpt lat="43.47099" lon="2.54498">
        <ele>305</ele>
        <time>2019-05-14T23:13:21.141Z</time>
      </trkpt>
      <trkpt lat="43.47097" lon="2.54484">
        <ele>305</ele>
        <time>2019-05-14T23:13:23.451Z</time>
      </trkpt>
      <trkpt lat="43.4709" lon="2.54446">
        <ele>305</ele>
        <time>2019-05-14T23:13:30.169Z</time>
      </trkpt>
      <trkpt lat="43.47085" lon="2.54406">
        <ele>307</ele>
        <time>2019-05-14T23:13:37.150Z</time>
      </trkpt>
      <trkpt lat="43.47082" lon="2.54375">
        <ele>308</ele>
        <time>2019-05-14T23:13:42.151Z</time>
      </trkpt>
      <trkpt lat="43.47081" lon="2.5433">
        <ele>307</ele>
        <time>2019-05-14T23:13:49.594Z</time>
      </trkpt>
      <trkpt lat="43.47081" lon="2.54248">
        <ele>305</ele>
        <time>2019-05-14T23:14:02.847Z</time>
      </trkpt>
      <trkpt lat="43.47083" lon="2.54112">
        <ele>303</ele>
        <time>2019-05-14T23:14:23.337Z</time>
      </trkpt>
      <trkpt lat="43.47081" lon="2.54106">
        <ele>302</ele>
        <time>2019-05-14T23:14:24.240Z</time>
      </trkpt>
      <trkpt lat="43.47012" lon="2.54103">
        <ele>304</ele>
        <time>2019-05-14T23:14:38.243Z</time>
      </trkpt>
      <trkpt lat="43.47006" lon="2.53953">
        <ele>300</ele>
        <time>2019-05-14T23:15:01.094Z</time>
      </trkpt>
      <trkpt lat="43.46997" lon="2.53804">
        <ele>300</ele>
        <time>2019-05-14T23:15:24.097Z</time>
      </trkpt>
      <trkpt lat="43.47088" lon="2.53796">
        <ele>297</ele>
        <time>2019-05-14T23:15:42.047Z</time>
      </trkpt>
      <trkpt lat="43.47088" lon="2.53731">
        <ele>297</ele>
        <time>2019-05-14T23:15:51.808Z</time>
      </trkpt>
      <trkpt lat="43.47085" lon="2.53685">
        <ele>299</ele>
        <time>2019-05-14T23:15:58.645Z</time>
      </trkpt>
      <trkpt lat="43.47084" lon="2.53627">
        <ele>299</ele>
        <time>2019-05-14T23:16:07.143Z</time>
      </trkpt>
      <trkpt lat="43.47085" lon="2.53594">
        <ele>299</ele>
        <time>2019-05-14T23:16:12.418Z</time>
      </trkpt>
      <trkpt lat="43.47085" lon="2.53531">
        <ele>297</ele>
        <time>2019-05-14T23:16:22.674Z</time>
      </trkpt>
      <trkpt lat="43.47086" lon="2.53521">
        <ele>296</ele>
        <time>2019-05-14T23:16:24.217Z</time>
      </trkpt>
      <trkpt lat="43.47093" lon="2.53494">
        <ele>296</ele>
        <time>2019-05-14T23:16:29.416Z</time>
      </trkpt>
      <trkpt lat="43.47094" lon="2.53484">
        <ele>295</ele>
        <time>2019-05-14T23:16:30.951Z</time>
      </trkpt>
      <trkpt lat="43.47093" lon="2.53477">
        <ele>295</ele>
        <time>2019-05-14T23:16:31.946Z</time>
      </trkpt>
      <trkpt lat="43.47088" lon="2.53458">
        <ele>295</ele>
        <time>2019-05-14T23:16:35.592Z</time>
      </trkpt>
      <trkpt lat="43.47086" lon="2.53447">
        <ele>295</ele>
        <time>2019-05-14T23:16:37.780Z</time>
      </trkpt>
      <trkpt lat="43.47087" lon="2.53211">
        <ele>297</ele>
        <time>2019-05-14T23:17:17.817Z</time>
      </trkpt>
      <trkpt lat="43.47082" lon="2.53017">
        <ele>296</ele>
        <time>2019-05-14T23:17:45.650Z</time>
      </trkpt>
      <trkpt lat="43.47082" lon="2.53005">
        <ele>294</ele>
        <time>2019-05-14T23:17:47.157Z</time>
      </trkpt>
      <trkpt lat="43.4707" lon="2.52902">
        <ele>293</ele>
        <time>2019-05-14T23:18:00.319Z</time>
      </trkpt>
      <trkpt lat="43.4703" lon="2.52568">
        <ele>287</ele>
        <time>2019-05-14T23:18:42.024Z</time>
      </trkpt>
      <trkpt lat="43.47026" lon="2.52471">
        <ele>286</ele>
        <time>2019-05-14T23:18:54.365Z</time>
      </trkpt>
      <trkpt lat="43.47047" lon="2.52261">
        <ele>285</ele>
        <time>2019-05-14T23:19:23.578Z</time>
      </trkpt>
      <trkpt lat="43.47329" lon="2.51102">
        <ele>287</ele>
        <time>2019-05-14T23:22:38.064Z</time>
      </trkpt>
      <trkpt lat="43.47364" lon="2.5098">
        <ele>283</ele>
        <time>2019-05-14T23:22:58.636Z</time>
      </trkpt>
      <trkpt lat="43.47413" lon="2.50863">
        <ele>286</ele>
        <time>2019-05-14T23:23:19.959Z</time>
      </trkpt>
      <trkpt lat="43.47469" lon="2.50743">
        <ele>285</ele>
        <time>2019-05-14T23:23:43.001Z</time>
      </trkpt>
      <trkpt lat="43.47486" lon="2.50705">
        <ele>285</ele>
        <time>2019-05-14T23:23:51.248Z</time>
      </trkpt>
      <trkpt lat="43.47513" lon="2.50588">
        <ele>284</ele>
        <time>2019-05-14T23:24:13.294Z</time>
      </trkpt>
      <trkpt lat="43.47528" lon="2.50157">
        <ele>282</ele>
        <time>2019-05-14T23:25:28.597Z</time>
      </trkpt>
      <trkpt lat="43.47534" lon="2.50139">
        <ele>281</ele>
        <time>2019-05-14T23:25:32.062Z</time>
      </trkpt>
      <trkpt lat="43.47548" lon="2.49813">
        <ele>287</ele>
        <time>2019-05-14T23:26:30.948Z</time>
      </trkpt>
      <trkpt lat="43.47552" lon="2.49743">
        <ele>287</ele>
        <time>2019-05-14T23:26:43.547Z</time>
      </trkpt>
      <trkpt lat="43.47567" lon="2.49672">
        <ele>286</ele>
        <time>2019-05-14T23:26:56.121Z</time>
      </trkpt>
      <trkpt lat="43.47571" lon="2.4965">
        <ele>287</ele>
        <time>2019-05-14T23:26:59.762Z</time>
      </trkpt>
      <trkpt lat="43.47574" lon="2.49638">
        <ele>287</ele>
        <time>2019-05-14T23:27:01.709Z</time>
      </trkpt>
      <trkpt lat="43.47585" lon="2.49569">
        <ele>286</ele>
        <time>2019-05-14T23:27:12.614Z</time>
      </trkpt>
      <trkpt lat="43.47623" lon="2.49477">
        <ele>285</ele>
        <time>2019-05-14T23:27:28.236Z</time>
      </trkpt>
      <trkpt lat="43.47764" lon="2.49256">
        <ele>279</ele>
        <time>2019-05-14T23:28:10.197Z</time>
      </trkpt>
      <trkpt lat="43.47803" lon="2.49148">
        <ele>275</ele>
        <time>2019-05-14T23:28:28.659Z</time>
      </trkpt>
      <trkpt lat="43.47805" lon="2.49125">
        <ele>275</ele>
        <time>2019-05-14T23:28:32.195Z</time>
      </trkpt>
      <trkpt lat="43.4781" lon="2.49088">
        <ele>275</ele>
        <time>2019-05-14T23:28:41.148Z</time>
      </trkpt>
      <trkpt lat="43.47812" lon="2.49065">
        <ele>275</ele>
        <time>2019-05-14T23:28:46.638Z</time>
      </trkpt>
      <trkpt lat="43.47813" lon="2.49054">
        <ele>276</ele>
        <time>2019-05-14T23:28:49.258Z</time>
      </trkpt>
      <trkpt lat="43.47813" lon="2.49046">
        <ele>276</ele>
        <time>2019-05-14T23:28:51.146Z</time>
      </trkpt>
      <trkpt lat="43.47814" lon="2.49016">
        <ele>276</ele>
        <time>2019-05-14T23:28:58.196Z</time>
      </trkpt>
      <trkpt lat="43.47815" lon="2.49008">
        <ele>275</ele>
        <time>2019-05-14T23:28:59.879Z</time>
      </trkpt>
      <trkpt lat="43.47816" lon="2.48997">
        <ele>275</ele>
        <time>2019-05-14T23:29:02.601Z</time>
      </trkpt>
      <trkpt lat="43.47818" lon="2.48984">
        <ele>275</ele>
        <time>2019-05-14T23:29:05.669Z</time>
      </trkpt>
      <trkpt lat="43.47817" lon="2.48973">
        <ele>276</ele>
        <time>2019-05-14T23:29:08.445Z</time>
      </trkpt>
      <trkpt lat="43.47816" lon="2.48963">
        <ele>276</ele>
        <time>2019-05-14T23:29:09.565Z</time>
      </trkpt>
      <trkpt lat="43.47838" lon="2.4883">
        <ele>270</ele>
        <time>2019-05-14T23:29:26.917Z</time>
      </trkpt>
      <trkpt lat="43.47844" lon="2.48814">
        <ele>269</ele>
        <time>2019-05-14T23:29:28.926Z</time>
      </trkpt>
      <trkpt lat="43.47883" lon="2.48719">
        <ele>269</ele>
        <time>2019-05-14T23:29:44.257Z</time>
      </trkpt>
      <trkpt lat="43.47892" lon="2.48699">
        <ele>269</ele>
        <time>2019-05-14T23:29:47.673Z</time>
      </trkpt>
      <trkpt lat="43.47907" lon="2.48666">
        <ele>269</ele>
        <time>2019-05-14T23:29:53.553Z</time>
      </trkpt>
      <trkpt lat="43.47909" lon="2.48664">
        <ele>269</ele>
        <time>2019-05-14T23:29:54.001Z</time>
      </trkpt>
      <trkpt lat="43.47913" lon="2.48658">
        <ele>269</ele>
        <time>2019-05-14T23:29:55.135Z</time>
      </trkpt>
      <trkpt lat="43.47923" lon="2.48656">
        <ele>268</ele>
        <time>2019-05-14T23:29:57.028Z</time>
      </trkpt>
      <trkpt lat="43.47926" lon="2.48658">
        <ele>268</ele>
        <time>2019-05-14T23:29:57.719Z</time>
      </trkpt>
      <trkpt lat="43.47939" lon="2.48646">
        <ele>269</ele>
        <time>2019-05-14T23:30:01.373Z</time>
      </trkpt>
      <trkpt lat="43.4798" lon="2.48591">
        <ele>269</ele>
        <time>2019-05-14T23:30:14.759Z</time>
      </trkpt>
      <trkpt lat="43.47978" lon="2.48565">
        <ele>271</ele>
        <time>2019-05-14T23:30:19.940Z</time>
      </trkpt>
      <trkpt lat="43.47992" lon="2.48543">
        <ele>272</ele>
        <time>2019-05-14T23:30:25.427Z</time>
      </trkpt>
      <trkpt lat="43.47989" lon="2.48511">
        <ele>272</ele>
        <time>2019-05-14T23:30:31.873Z</time>
      </trkpt>
      <trkpt lat="43.48032" lon="2.48469">
        <ele>272</ele>
        <time>2019-05-14T23:30:46.264Z</time>
      </trkpt>
      <trkpt lat="43.48069" lon="2.48431">
        <ele>272</ele>
        <time>2019-05-14T23:30:59.162Z</time>
      </trkpt>
      <trkpt lat="43.48078" lon="2.48423">
        <ele>272</ele>
        <time>2019-05-14T23:31:01.960Z</time>
      </trkpt>
      <trkpt lat="43.4809" lon="2.48411">
        <ele>272</ele>
        <time>2019-05-14T23:31:06.087Z</time>
      </trkpt>
      <trkpt lat="43.481" lon="2.48401">
        <ele>271</ele>
        <time>2019-05-14T23:31:09.382Z</time>
      </trkpt>
      <trkpt lat="43.48143" lon="2.48352">
        <ele>270</ele>
        <time>2019-05-14T23:31:24.006Z</time>
      </trkpt>
      <trkpt lat="43.48148" lon="2.4835">
        <ele>270</ele>
        <time>2019-05-14T23:31:25.372Z</time>
      </trkpt>
      <trkpt lat="43.48158" lon="2.48332">
        <ele>270</ele>
        <time>2019-05-14T23:31:29.530Z</time>
      </trkpt>
      <trkpt lat="43.48156" lon="2.48323">
        <ele>271</ele>
        <time>2019-05-14T23:31:31.288Z</time>
      </trkpt>
      <trkpt lat="43.48154" lon="2.48319">
        <ele>272</ele>
        <time>2019-05-14T23:31:32.318Z</time>
      </trkpt>
      <trkpt lat="43.48152" lon="2.48312">
        <ele>272</ele>
        <time>2019-05-14T23:31:33.619Z</time>
      </trkpt>
      <trkpt lat="43.48152" lon="2.48306">
        <ele>272</ele>
        <time>2019-05-14T23:31:34.605Z</time>
      </trkpt>
      <trkpt lat="43.48158" lon="2.48295">
        <ele>273</ele>
        <time>2019-05-14T23:31:37.139Z</time>
      </trkpt>
      <trkpt lat="43.48165" lon="2.48284">
        <ele>273</ele>
        <time>2019-05-14T23:31:39.685Z</time>
      </trkpt>
      <trkpt lat="43.48221" lon="2.48152">
        <ele>270</ele>
        <time>2019-05-14T23:32:07.050Z</time>
      </trkpt>
      <trkpt lat="43.48287" lon="2.47982">
        <ele>268</ele>
        <time>2019-05-14T23:32:41.179Z</time>
      </trkpt>
      <trkpt lat="43.48314" lon="2.47651">
        <ele>267</ele>
        <time>2019-05-14T23:33:37.767Z</time>
      </trkpt>
      <trkpt lat="43.48333" lon="2.47355">
        <ele>265</ele>
        <time>2019-05-14T23:34:23.141Z</time>
      </trkpt>
      <trkpt lat="43.48346" lon="2.47171">
        <ele>266</ele>
        <time>2019-05-14T23:34:56.688Z</time>
      </trkpt>
      <trkpt lat="43.48372" lon="2.47026">
        <ele>265</ele>
        <time>2019-05-14T23:35:24.750Z</time>
      </trkpt>
      <trkpt lat="43.48406" lon="2.46941">
        <ele>266</ele>
        <time>2019-05-14T23:35:40.991Z</time>
      </trkpt>
      <trkpt lat="43.48622" lon="2.46587">
        <ele>262</ele>
        <time>2019-05-14T23:36:52.544Z</time>
      </trkpt>
      <trkpt lat="43.48653" lon="2.46546">
        <ele>263</ele>
        <time>2019-05-14T23:37:01.233Z</time>
      </trkpt>
      <trkpt lat="43.48688" lon="2.46505">
        <ele>260</ele>
        <time>2019-05-14T23:37:09.484Z</time>
      </trkpt>
      <trkpt lat="43.48711" lon="2.46475">
        <ele>261</ele>
        <time>2019-05-14T23:37:14.925Z</time>
      </trkpt>
      <trkpt lat="43.48708" lon="2.46467">
        <ele>262</ele>
        <time>2019-05-14T23:37:15.946Z</time>
      </trkpt>
      <trkpt lat="43.4876" lon="2.46425">
        <ele>258</ele>
        <time>2019-05-14T23:37:25.613Z</time>
      </trkpt>
      <trkpt lat="43.48789" lon="2.46383">
        <ele>256</ele>
        <time>2019-05-14T23:37:32.529Z</time>
      </trkpt>
      <trkpt lat="43.48795" lon="2.4638">
        <ele>256</ele>
        <time>2019-05-14T23:37:33.580Z</time>
      </trkpt>
      <trkpt lat="43.48799" lon="2.46374">
        <ele>256</ele>
        <time>2019-05-14T23:37:34.786Z</time>
      </trkpt>
      <trkpt lat="43.48824" lon="2.4634">
        <ele>253</ele>
        <time>2019-05-14T23:37:41.487Z</time>
      </trkpt>
      <trkpt lat="43.48862" lon="2.46288">
        <ele>256</ele>
        <time>2019-05-14T23:37:51.936Z</time>
      </trkpt>
      <trkpt lat="43.48879" lon="2.46258">
        <ele>258</ele>
        <time>2019-05-14T23:37:57.593Z</time>
      </trkpt>
      <trkpt lat="43.48936" lon="2.46117">
        <ele>258</ele>
        <time>2019-05-14T23:38:21.845Z</time>
      </trkpt>
      <trkpt lat="43.49216" lon="2.45205">
        <ele>254</ele>
        <time>2019-05-14T23:41:09.127Z</time>
      </trkpt>
      <trkpt lat="43.49237" lon="2.45133">
        <ele>251</ele>
        <time>2019-05-14T23:41:21.385Z</time>
      </trkpt>
      <trkpt lat="43.49243" lon="2.45103">
        <ele>250</ele>
        <time>2019-05-14T23:41:26.431Z</time>
      </trkpt>
      <trkpt lat="43.49258" lon="2.45057">
        <ele>253</ele>
        <time>2019-05-14T23:41:34.576Z</time>
      </trkpt>
      <trkpt lat="43.49263" lon="2.45038">
        <ele>254</ele>
        <time>2019-05-14T23:41:37.849Z</time>
      </trkpt>
      <trkpt lat="43.49279" lon="2.44974">
        <ele>253</ele>
        <time>2019-05-14T23:41:48.848Z</time>
      </trkpt>
      <trkpt lat="43.49299" lon="2.44872">
        <ele>251</ele>
        <time>2019-05-14T23:42:05.861Z</time>
      </trkpt>
      <trkpt lat="43.49306" lon="2.4483">
        <ele>250</ele>
        <time>2019-05-14T23:42:12.900Z</time>
      </trkpt>
      <trkpt lat="43.49307" lon="2.44813">
        <ele>249</ele>
        <time>2019-05-14T23:42:15.689Z</time>
      </trkpt>
      <trkpt lat="43.49319" lon="2.44507">
        <ele>244</ele>
        <time>2019-05-14T23:43:04.031Z</time>
      </trkpt>
      <trkpt lat="43.49332" lon="2.44491">
        <ele>244</ele>
        <time>2019-05-14T23:43:07.677Z</time>
      </trkpt>
      <trkpt lat="43.49355" lon="2.44503">
        <ele>245</ele>
        <time>2019-05-14T23:43:13.164Z</time>
      </trkpt>
      <trkpt lat="43.49358" lon="2.44497">
        <ele>245</ele>
        <time>2019-05-14T23:43:14.313Z</time>
      </trkpt>
      <trkpt lat="43.49382" lon="2.44348">
        <ele>244</ele>
        <time>2019-05-14T23:43:39.673Z</time>
      </trkpt>
      <trkpt lat="43.49415" lon="2.44116">
        <ele>247</ele>
        <time>2019-05-14T23:44:24.093Z</time>
      </trkpt>
      <trkpt lat="43.49418" lon="2.44064">
        <ele>252</ele>
        <time>2019-05-14T23:44:33.584Z</time>
      </trkpt>
      <trkpt lat="43.49418" lon="2.44021">
        <ele>252</ele>
        <time>2019-05-14T23:44:40.443Z</time>
      </trkpt>
      <trkpt lat="43.49417" lon="2.44014">
        <ele>251</ele>
        <time>2019-05-14T23:44:41.670Z</time>
      </trkpt>
      <trkpt lat="43.49405" lon="2.43998">
        <ele>246</ele>
        <time>2019-05-14T23:44:45.309Z</time>
      </trkpt>
      <trkpt lat="43.49403" lon="2.43987">
        <ele>246</ele>
        <time>2019-05-14T23:44:47.103Z</time>
      </trkpt>
      <trkpt lat="43.49413" lon="2.43945">
        <ele>246</ele>
        <time>2019-05-14T23:44:53.910Z</time>
      </trkpt>
      <trkpt lat="43.49414" lon="2.43933">
        <ele>246</ele>
        <time>2019-05-14T23:44:55.893Z</time>
      </trkpt>
      <trkpt lat="43.49408" lon="2.43884">
        <ele>245</ele>
        <time>2019-05-14T23:45:04.356Z</time>
      </trkpt>
      <trkpt lat="43.49362" lon="2.43626">
        <ele>249</ele>
        <time>2019-05-14T23:45:49.167Z</time>
      </trkpt>
      <trkpt lat="43.49373" lon="2.43256">
        <ele>247</ele>
        <time>2019-05-14T23:46:53.530Z</time>
      </trkpt>
      <trkpt lat="43.49419" lon="2.4278">
        <ele>242</ele>
        <time>2019-05-14T23:48:10.599Z</time>
      </trkpt>
      <trkpt lat="43.49497" lon="2.41993">
        <ele>238</ele>
        <time>2019-05-14T23:50:21.171Z</time>
      </trkpt>
      <trkpt lat="43.49539" lon="2.41578">
        <ele>237</ele>
        <time>2019-05-14T23:51:29.897Z</time>
      </trkpt>
      <trkpt lat="43.49581" lon="2.41163">
        <ele>234</ele>
        <time>2019-05-14T23:52:41.270Z</time>
      </trkpt>
      <trkpt lat="43.49639" lon="2.40591">
        <ele>233</ele>
        <time>2019-05-14T23:54:22.142Z</time>
      </trkpt>
      <trkpt lat="43.4964" lon="2.4056">
        <ele>233</ele>
        <time>2019-05-14T23:54:27.126Z</time>
      </trkpt>
      <trkpt lat="43.49639" lon="2.40542">
        <ele>233</ele>
        <time>2019-05-14T23:54:29.863Z</time>
      </trkpt>
      <trkpt lat="43.49617" lon="2.40393">
        <ele>232</ele>
        <time>2019-05-14T23:54:50.961Z</time>
      </trkpt>
      <trkpt lat="43.49613" lon="2.40375">
        <ele>232</ele>
        <time>2019-05-14T23:54:53.599Z</time>
      </trkpt>
      <trkpt lat="43.49613" lon="2.40365">
        <ele>232</ele>
        <time>2019-05-14T23:54:54.775Z</time>
      </trkpt>
      <trkpt lat="43.49621" lon="2.40297">
        <ele>230</ele>
        <time>2019-05-14T23:55:03.846Z</time>
      </trkpt>
      <trkpt lat="43.49634" lon="2.40172">
        <ele>229</ele>
        <time>2019-05-14T23:55:20.453Z</time>
      </trkpt>
      <trkpt lat="43.49636" lon="2.40146">
        <ele>228</ele>
        <time>2019-05-14T23:55:24.243Z</time>
      </trkpt>
      <trkpt lat="43.49627" lon="2.40097">
        <ele>228</ele>
        <time>2019-05-14T23:55:32.128Z</time>
      </trkpt>
      <trkpt lat="43.49632" lon="2.40066">
        <ele>228</ele>
        <time>2019-05-14T23:55:37.386Z</time>
      </trkpt>
      <trkpt lat="43.49639" lon="2.40052">
        <ele>228</ele>
        <time>2019-05-14T23:55:40.698Z</time>
      </trkpt>
      <trkpt lat="43.49634" lon="2.40046">
        <ele>228</ele>
        <time>2019-05-14T23:55:43.248Z</time>
      </trkpt>
      <trkpt lat="43.49631" lon="2.40042">
        <ele>228</ele>
        <time>2019-05-14T23:55:44.295Z</time>
      </trkpt>
      <trkpt lat="43.49624" lon="2.40033">
        <ele>228</ele>
        <time>2019-05-14T23:55:47.578Z</time>
      </trkpt>
      <trkpt lat="43.49616" lon="2.40024">
        <ele>228</ele>
        <time>2019-05-14T23:55:51.635Z</time>
      </trkpt>
      <trkpt lat="43.49608" lon="2.40032">
        <ele>228</ele>
        <time>2019-05-14T23:55:54.980Z</time>
      </trkpt>
      <trkpt lat="43.4957" lon="2.40074">
        <ele>228</ele>
        <time>2019-05-14T23:56:10.986Z</time>
      </trkpt>
      <trkpt lat="43.49554" lon="2.40092">
        <ele>228</ele>
        <time>2019-05-14T23:56:18.521Z</time>
      </trkpt>
      <trkpt lat="43.49548" lon="2.40095">
        <ele>229</ele>
        <time>2019-05-14T23:56:20.737Z</time>
      </trkpt>
      <trkpt lat="43.49544" lon="2.40094">
        <ele>229</ele>
        <time>2019-05-14T23:56:22.274Z</time>
      </trkpt>
      <trkpt lat="43.49541" lon="2.40082">
        <ele>230</ele>
        <time>2019-05-14T23:56:25.590Z</time>
      </trkpt>
      <trkpt lat="43.49538" lon="2.40057">
        <ele>231</ele>
        <time>2019-05-14T23:56:32.608Z</time>
      </trkpt>
      <trkpt lat="43.49536" lon="2.40029">
        <ele>232</ele>
        <time>2019-05-14T23:56:40.021Z</time>
      </trkpt>
      <trkpt lat="43.49534" lon="2.39993">
        <ele>234</ele>
        <time>2019-05-14T23:56:50.651Z</time>
      </trkpt>
      <trkpt lat="43.49549" lon="2.39759">
        <ele>236</ele>
        <time>2019-05-14T23:57:45.163Z</time>
      </trkpt>
      <trkpt lat="43.4956" lon="2.39615">
        <ele>236</ele>
        <time>2019-05-14T23:58:11.665Z</time>
      </trkpt>
      <trkpt lat="43.49569" lon="2.39486">
        <ele>236</ele>
        <time>2019-05-14T23:58:36.117Z</time>
      </trkpt>
      <trkpt lat="43.49574" lon="2.39474">
        <ele>236</ele>
        <time>2019-05-14T23:58:38.710Z</time>
      </trkpt>
      <trkpt lat="43.49572" lon="2.39459">
        <ele>236</ele>
        <time>2019-05-14T23:58:41.905Z</time>
      </trkpt>
      <trkpt lat="43.49593" lon="2.39174">
        <ele>238</ele>
        <time>2019-05-14T23:59:39.793Z</time>
      </trkpt>
      <trkpt lat="43.49594" lon="2.39158">
        <ele>238</ele>
        <time>2019-05-14T23:59:43.084Z</time>
      </trkpt>
      <trkpt lat="43.496" lon="2.39103">
        <ele>237</ele>
        <time>2019-05-14T23:59:54.774Z</time>
      </trkpt>
      <trkpt lat="43.49606" lon="2.39064">
        <ele>237</ele>
        <time>2019-05-15T00:00:03.364Z</time>
      </trkpt>
      <trkpt lat="43.49607" lon="2.39056">
        <ele>237</ele>
        <time>2019-05-15T00:00:05.033Z</time>
      </trkpt>
      <trkpt lat="43.49616" lon="2.39005">
        <ele>238</ele>
        <time>2019-05-15T00:00:16.401Z</time>
      </trkpt>
      <trkpt lat="43.49627" lon="2.38954">
        <ele>240</ele>
        <time>2019-05-15T00:00:27.928Z</time>
      </trkpt>
      <trkpt lat="43.49651" lon="2.38864">
        <ele>242</ele>
        <time>2019-05-15T00:00:48.661Z</time>
      </trkpt>
      <trkpt lat="43.49672" lon="2.38779">
        <ele>239</ele>
        <time>2019-05-15T00:01:08.292Z</time>
      </trkpt>
      <trkpt lat="43.49681" lon="2.38737">
        <ele>241</ele>
        <time>2019-05-15T00:01:17.470Z</time>
      </trkpt>
      <trkpt lat="43.49687" lon="2.38698">
        <ele>240</ele>
        <time>2019-05-15T00:01:25.324Z</time>
      </trkpt>
      <trkpt lat="43.49691" lon="2.38663">
        <ele>241</ele>
        <time>2019-05-15T00:01:32.115Z</time>
      </trkpt>
      <trkpt lat="43.49688" lon="2.38517">
        <ele>241</ele>
        <time>2019-05-15T00:01:59.964Z</time>
      </trkpt>
      <trkpt lat="43.4968" lon="2.3846">
        <ele>241</ele>
        <time>2019-05-15T00:02:11.257Z</time>
      </trkpt>
      <trkpt lat="43.49648" lon="2.38242">
        <ele>244</ele>
        <time>2019-05-15T00:02:54.523Z</time>
      </trkpt>
      <trkpt lat="43.49643" lon="2.38206">
        <ele>244</ele>
        <time>2019-05-15T00:03:01.645Z</time>
      </trkpt>
      <trkpt lat="43.49651" lon="2.38203">
        <ele>244</ele>
        <time>2019-05-15T00:03:03.503Z</time>
      </trkpt>
      <trkpt lat="43.49653" lon="2.382">
        <ele>244</ele>
        <time>2019-05-15T00:03:04.334Z</time>
      </trkpt>
      <trkpt lat="43.49657" lon="2.38191">
        <ele>244</ele>
        <time>2019-05-15T00:03:06.132Z</time>
      </trkpt>
      <trkpt lat="43.49649" lon="2.38166">
        <ele>243</ele>
        <time>2019-05-15T00:03:10.851Z</time>
      </trkpt>
      <trkpt lat="43.49644" lon="2.38165">
        <ele>243</ele>
        <time>2019-05-15T00:03:11.944Z</time>
      </trkpt>
      <trkpt lat="43.49638" lon="2.38165">
        <ele>244</ele>
        <time>2019-05-15T00:03:13.365Z</time>
      </trkpt>
      <trkpt lat="43.49632" lon="2.38128">
        <ele>244</ele>
        <time>2019-05-15T00:03:20.491Z</time>
      </trkpt>
      <trkpt lat="43.49615" lon="2.38008">
        <ele>244</ele>
        <time>2019-05-15T00:03:42.031Z</time>
      </trkpt>
      <trkpt lat="43.49608" lon="2.37937">
        <ele>244</ele>
        <time>2019-05-15T00:03:53.411Z</time>
      </trkpt>
      <trkpt lat="43.49608" lon="2.37896">
        <ele>243</ele>
        <time>2019-05-15T00:04:00.012Z</time>
      </trkpt>
      <trkpt lat="43.49609" lon="2.3787">
        <ele>242</ele>
        <time>2019-05-15T00:04:04.190Z</time>
      </trkpt>
      <trkpt lat="43.49612" lon="2.37845">
        <ele>242</ele>
        <time>2019-05-15T00:04:08.098Z</time>
      </trkpt>
      <trkpt lat="43.49617" lon="2.37817">
        <ele>242</ele>
        <time>2019-05-15T00:04:12.640Z</time>
      </trkpt>
      <trkpt lat="43.49624" lon="2.37786">
        <ele>242</ele>
        <time>2019-05-15T00:04:17.650Z</time>
      </trkpt>
      <trkpt lat="43.49629" lon="2.37771">
        <ele>242</ele>
        <time>2019-05-15T00:04:20.172Z</time>
      </trkpt>
      <trkpt lat="43.49633" lon="2.37764">
        <ele>242</ele>
        <time>2019-05-15T00:04:21.694Z</time>
      </trkpt>
      <trkpt lat="43.49643" lon="2.37756">
        <ele>242</ele>
        <time>2019-05-15T00:04:23.944Z</time>
      </trkpt>
      <trkpt lat="43.49648" lon="2.37741">
        <ele>242</ele>
        <time>2019-05-15T00:04:26.367Z</time>
      </trkpt>
      <trkpt lat="43.49741" lon="2.3758">
        <ele>243</ele>
        <time>2019-05-15T00:05:00.031Z</time>
      </trkpt>
      <trkpt lat="43.49729" lon="2.37571">
        <ele>243</ele>
        <time>2019-05-15T00:05:03.469Z</time>
      </trkpt>
      <trkpt lat="43.4973" lon="2.37566">
        <ele>243</ele>
        <time>2019-05-15T00:05:04.479Z</time>
      </trkpt>
      <trkpt lat="43.49733" lon="2.37558">
        <ele>244</ele>
        <time>2019-05-15T00:05:06.575Z</time>
      </trkpt>
      <trkpt lat="43.49718" lon="2.37523">
        <ele>245</ele>
        <time>2019-05-15T00:05:14.100Z</time>
      </trkpt>
      <trkpt lat="43.49746" lon="2.37477">
        <ele>246</ele>
        <time>2019-05-15T00:05:26.047Z</time>
      </trkpt>
      <trkpt lat="43.49757" lon="2.3746">
        <ele>244</ele>
        <time>2019-05-15T00:05:30.346Z</time>
      </trkpt>
    </trkseg>
  </trk>
</gpx>